<?xml version="1.0" encoding="UTF-8" standalone="no" ?>
<gpx xmlns="http://www.topografix.com/GPX/1/1" xmlns:xsi="http://www.w3.org/2001/XMLSchema-instance" xsi:schemaLocation="http://www.topografix.com/GPX/1/1 http://www.topografix.com/GPX/1/1/gpx.xsd" version="1.1" creator="VisuGPX - https://www.visugpx.com">
  <metadata>
    <name>salagou col de porte</name>
    <desc><![CDATA[salagou et col de porte trace assez difficile niveau sportif confirmé]]></desc>
  </metadata>
  <trk>
    <name><![CDATA[visugpx_cjWeLHKYzR_1]]></name>
    <extensions>
      <line xmlns="http://www.topografix.com/GPX/gpx_style/0/2">
        <color>0011ff</color>
        <width>4</width>
          <extensions>
            <sens>1</sens>
          </extensions>
      </line>
    </extensions>
    <trkseg>
      <trkpt lat="43.64529" lon="3.3898">
        <ele>147</ele>
        <time>2024-03-21T12:42:20Z</time>
      </trkpt>
      <trkpt lat="43.64533" lon="3.38977">
        <ele>146.8</ele>
        <time>2024-03-21T12:42:21Z</time>
      </trkpt>
      <trkpt lat="43.64535" lon="3.38974">
        <ele>146.8</ele>
        <time>2024-03-21T12:42:22Z</time>
      </trkpt>
      <trkpt lat="43.64546" lon="3.38955">
        <ele>146.1</ele>
        <time>2024-03-21T12:42:30Z</time>
        <extensions>
          <gpxtpx:TrackPointExtension xmlns:gpxtpx="http://www.garmin.com/xmlschemas/TrackPointExtension/v1">
            <gpxtpx:hr>141</gpxtpx:hr>
          </gpxtpx:TrackPointExtension>
        </extensions>
      </trkpt>
      <trkpt lat="43.64548" lon="3.38947">
        <ele>146</ele>
        <time>2024-03-21T12:42:34Z</time>
      </trkpt>
      <trkpt lat="43.6455" lon="3.38941">
        <ele>146</ele>
        <time>2024-03-21T12:42:35Z</time>
      </trkpt>
      <trkpt lat="43.64551" lon="3.38937">
        <ele>146</ele>
        <time>2024-03-21T12:42:36Z</time>
      </trkpt>
      <trkpt lat="43.64553" lon="3.38927">
        <ele>146</ele>
        <time>2024-03-21T12:42:38Z</time>
      </trkpt>
      <trkpt lat="43.64554" lon="3.38921">
        <ele>146</ele>
      </trkpt>
      <trkpt lat="43.64554" lon="3.38919">
        <ele>146</ele>
        <time>2024-03-21T12:42:39Z</time>
      </trkpt>
      <trkpt lat="43.64556" lon="3.38909">
        <ele>145.7</ele>
        <time>2024-03-21T12:42:41Z</time>
      </trkpt>
      <trkpt lat="43.64557" lon="3.38898">
        <ele>145.3</ele>
        <time>2024-03-21T12:42:45Z</time>
      </trkpt>
      <trkpt lat="43.6456" lon="3.38891">
        <ele>145.1</ele>
        <time>2024-03-21T12:42:46Z</time>
      </trkpt>
      <trkpt lat="43.64561" lon="3.38884">
        <ele>145</ele>
        <time>2024-03-21T12:42:47Z</time>
      </trkpt>
      <trkpt lat="43.64561" lon="3.38879">
        <ele>144.9</ele>
        <time>2024-03-21T12:42:48Z</time>
      </trkpt>
      <trkpt lat="43.64562" lon="3.38864">
        <ele>144.8</ele>
        <time>2024-03-21T12:42:51Z</time>
      </trkpt>
      <trkpt lat="43.64562" lon="3.38855">
        <ele>144.6</ele>
        <time>2024-03-21T12:42:52Z</time>
      </trkpt>
      <trkpt lat="43.64564" lon="3.38835">
        <ele>144</ele>
        <time>2024-03-21T12:42:56Z</time>
      </trkpt>
      <trkpt lat="43.64562" lon="3.38829">
        <ele>144</ele>
        <time>2024-03-21T12:42:57Z</time>
      </trkpt>
      <trkpt lat="43.64562" lon="3.38826">
        <ele>144</ele>
        <time>2024-03-21T12:42:58Z</time>
        <extensions>
          <gpxtpx:TrackPointExtension xmlns:gpxtpx="http://www.garmin.com/xmlschemas/TrackPointExtension/v1">
            <gpxtpx:hr>138</gpxtpx:hr>
          </gpxtpx:TrackPointExtension>
        </extensions>
      </trkpt>
      <trkpt lat="43.64561" lon="3.38822">
        <ele>144</ele>
        <time>2024-03-21T12:42:59Z</time>
      </trkpt>
      <trkpt lat="43.64559" lon="3.38817">
        <ele>144</ele>
        <time>2024-03-21T12:43:00Z</time>
      </trkpt>
      <trkpt lat="43.64557" lon="3.38814">
        <ele>144</ele>
        <time>2024-03-21T12:43:01Z</time>
      </trkpt>
      <trkpt lat="43.64554" lon="3.38812">
        <ele>144</ele>
        <time>2024-03-21T12:43:02Z</time>
      </trkpt>
      <trkpt lat="43.64553" lon="3.38808">
        <ele>144</ele>
        <time>2024-03-21T12:43:03Z</time>
      </trkpt>
      <trkpt lat="43.6455" lon="3.38804">
        <ele>144</ele>
        <time>2024-03-21T12:43:04Z</time>
      </trkpt>
      <trkpt lat="43.64549" lon="3.388">
        <ele>144</ele>
        <time>2024-03-21T12:43:05Z</time>
      </trkpt>
      <trkpt lat="43.64549" lon="3.38795">
        <ele>144</ele>
        <time>2024-03-21T12:43:06Z</time>
      </trkpt>
      <trkpt lat="43.64548" lon="3.38791">
        <ele>144</ele>
        <time>2024-03-21T12:43:07Z</time>
      </trkpt>
      <trkpt lat="43.64548" lon="3.38785">
        <ele>144</ele>
        <time>2024-03-21T12:43:08Z</time>
      </trkpt>
      <trkpt lat="43.64547" lon="3.38779">
        <ele>144</ele>
        <time>2024-03-21T12:43:09Z</time>
      </trkpt>
      <trkpt lat="43.64547" lon="3.38772">
        <ele>143.8</ele>
        <time>2024-03-21T12:43:10Z</time>
      </trkpt>
      <trkpt lat="43.64546" lon="3.38765">
        <ele>143.5</ele>
        <time>2024-03-21T12:43:11Z</time>
      </trkpt>
      <trkpt lat="43.64544" lon="3.38758">
        <ele>143.3</ele>
        <time>2024-03-21T12:43:12Z</time>
      </trkpt>
      <trkpt lat="43.64543" lon="3.38752">
        <ele>143.1</ele>
        <time>2024-03-21T12:43:13Z</time>
      </trkpt>
      <trkpt lat="43.6454" lon="3.38737">
        <ele>142.5</ele>
        <time>2024-03-21T12:43:16Z</time>
      </trkpt>
      <trkpt lat="43.64539" lon="3.38731">
        <ele>142.3</ele>
        <time>2024-03-21T12:43:17Z</time>
      </trkpt>
      <trkpt lat="43.64538" lon="3.38726">
        <ele>142.1</ele>
        <time>2024-03-21T12:43:18Z</time>
      </trkpt>
      <trkpt lat="43.64538" lon="3.38693">
        <ele>141.3</ele>
        <time>2024-03-21T12:43:23Z</time>
      </trkpt>
      <trkpt lat="43.6454" lon="3.38679">
        <ele>141.2</ele>
        <time>2024-03-21T12:43:25Z</time>
      </trkpt>
      <trkpt lat="43.6454" lon="3.38673">
        <ele>141.1</ele>
        <time>2024-03-21T12:43:26Z</time>
      </trkpt>
      <trkpt lat="43.64538" lon="3.38667">
        <ele>141</ele>
        <time>2024-03-21T12:43:27Z</time>
      </trkpt>
      <trkpt lat="43.64539" lon="3.3866">
        <ele>140.8</ele>
      </trkpt>
      <trkpt lat="43.64532" lon="3.38655">
        <ele>140.6</ele>
        <time>2024-03-21T12:43:30Z</time>
      </trkpt>
      <trkpt lat="43.64509" lon="3.38631">
        <ele>139.7</ele>
        <time>2024-03-21T12:43:36Z</time>
      </trkpt>
      <trkpt lat="43.64505" lon="3.38628">
        <ele>139.6</ele>
        <time>2024-03-21T12:43:37Z</time>
      </trkpt>
      <trkpt lat="43.64501" lon="3.38622">
        <ele>139.4</ele>
        <time>2024-03-21T12:43:38Z</time>
      </trkpt>
      <trkpt lat="43.64498" lon="3.38617">
        <ele>139.3</ele>
        <time>2024-03-21T12:43:39Z</time>
      </trkpt>
      <trkpt lat="43.64493" lon="3.38612">
        <ele>139.3</ele>
        <time>2024-03-21T12:43:40Z</time>
      </trkpt>
      <trkpt lat="43.64483" lon="3.38603">
        <ele>139.3</ele>
        <time>2024-03-21T12:43:43Z</time>
      </trkpt>
      <trkpt lat="43.64479" lon="3.38598">
        <ele>139.3</ele>
        <time>2024-03-21T12:43:44Z</time>
      </trkpt>
      <trkpt lat="43.64476" lon="3.38594">
        <ele>139.3</ele>
        <time>2024-03-21T12:43:45Z</time>
      </trkpt>
      <trkpt lat="43.64466" lon="3.38573">
        <ele>138.9</ele>
        <time>2024-03-21T12:43:50Z</time>
      </trkpt>
      <trkpt lat="43.6446" lon="3.38559">
        <ele>139</ele>
        <time>2024-03-21T12:43:53Z</time>
      </trkpt>
      <trkpt lat="43.64457" lon="3.38553">
        <ele>139.1</ele>
        <time>2024-03-21T12:43:54Z</time>
      </trkpt>
      <trkpt lat="43.64455" lon="3.38548">
        <ele>139.2</ele>
        <time>2024-03-21T12:43:55Z</time>
      </trkpt>
      <trkpt lat="43.64453" lon="3.38542">
        <ele>139.4</ele>
        <time>2024-03-21T12:43:56Z</time>
      </trkpt>
      <trkpt lat="43.64452" lon="3.38538">
        <ele>139.5</ele>
        <time>2024-03-21T12:43:57Z</time>
      </trkpt>
      <trkpt lat="43.64452" lon="3.38532">
        <ele>139.5</ele>
        <time>2024-03-21T12:43:58Z</time>
      </trkpt>
      <trkpt lat="43.64451" lon="3.38527">
        <ele>139.5</ele>
        <time>2024-03-21T12:43:59Z</time>
      </trkpt>
      <trkpt lat="43.64449" lon="3.38523">
        <ele>139.5</ele>
        <time>2024-03-21T12:44:00Z</time>
      </trkpt>
      <trkpt lat="43.64446" lon="3.38519">
        <ele>139.6</ele>
        <time>2024-03-21T12:44:01Z</time>
      </trkpt>
      <trkpt lat="43.64443" lon="3.38516">
        <ele>139.6</ele>
        <time>2024-03-21T12:44:02Z</time>
      </trkpt>
      <trkpt lat="43.6444" lon="3.38515">
        <ele>139.7</ele>
        <time>2024-03-21T12:44:03Z</time>
      </trkpt>
      <trkpt lat="43.64437" lon="3.38512">
        <ele>139.7</ele>
        <time>2024-03-21T12:44:04Z</time>
      </trkpt>
      <trkpt lat="43.64434" lon="3.3851">
        <ele>139.7</ele>
        <time>2024-03-21T12:44:05Z</time>
      </trkpt>
      <trkpt lat="43.64431" lon="3.38507">
        <ele>139.7</ele>
        <time>2024-03-21T12:44:06Z</time>
      </trkpt>
      <trkpt lat="43.64429" lon="3.38506">
        <ele>139.8</ele>
        <time>2024-03-21T12:44:07Z</time>
      </trkpt>
      <trkpt lat="43.64426" lon="3.38504">
        <ele>139.8</ele>
        <time>2024-03-21T12:44:08Z</time>
      </trkpt>
      <trkpt lat="43.64424" lon="3.38503">
        <ele>139.8</ele>
        <time>2024-03-21T12:44:09Z</time>
      </trkpt>
      <trkpt lat="43.64423" lon="3.38503">
        <ele>139.9</ele>
      </trkpt>
      <trkpt lat="43.64417" lon="3.38503">
        <ele>140.1</ele>
        <time>2024-03-21T12:44:11Z</time>
      </trkpt>
      <trkpt lat="43.64412" lon="3.38501">
        <ele>140</ele>
        <time>2024-03-21T12:44:13Z</time>
      </trkpt>
      <trkpt lat="43.6441" lon="3.38497">
        <ele>139.9</ele>
        <time>2024-03-21T12:44:14Z</time>
      </trkpt>
      <trkpt lat="43.64408" lon="3.38492">
        <ele>139.8</ele>
        <time>2024-03-21T12:44:15Z</time>
      </trkpt>
      <trkpt lat="43.64405" lon="3.38486">
        <ele>139.7</ele>
        <time>2024-03-21T12:44:16Z</time>
      </trkpt>
      <trkpt lat="43.64399" lon="3.38476">
        <ele>139.7</ele>
        <time>2024-03-21T12:44:18Z</time>
      </trkpt>
      <trkpt lat="43.64389" lon="3.38456">
        <ele>139.4</ele>
        <time>2024-03-21T12:44:22Z</time>
      </trkpt>
      <trkpt lat="43.64388" lon="3.38452">
        <ele>139.3</ele>
        <time>2024-03-21T12:44:23Z</time>
      </trkpt>
      <trkpt lat="43.64385" lon="3.38448">
        <ele>139.3</ele>
        <time>2024-03-21T12:44:24Z</time>
      </trkpt>
      <trkpt lat="43.64383" lon="3.38444">
        <ele>139.2</ele>
        <time>2024-03-21T12:44:25Z</time>
      </trkpt>
      <trkpt lat="43.64381" lon="3.38439">
        <ele>139.3</ele>
        <time>2024-03-21T12:44:26Z</time>
      </trkpt>
      <trkpt lat="43.6438" lon="3.38435">
        <ele>139.3</ele>
        <time>2024-03-21T12:44:27Z</time>
      </trkpt>
      <trkpt lat="43.64379" lon="3.38429">
        <ele>139.4</ele>
        <time>2024-03-21T12:44:28Z</time>
      </trkpt>
      <trkpt lat="43.64381" lon="3.38421">
        <ele>139.3</ele>
        <time>2024-03-21T12:44:30Z</time>
      </trkpt>
      <trkpt lat="43.64382" lon="3.38416">
        <ele>139.2</ele>
        <time>2024-03-21T12:44:31Z</time>
      </trkpt>
      <trkpt lat="43.64384" lon="3.38411">
        <ele>139.2</ele>
        <time>2024-03-21T12:44:32Z</time>
      </trkpt>
      <trkpt lat="43.64388" lon="3.38399">
        <ele>139</ele>
        <time>2024-03-21T12:44:34Z</time>
      </trkpt>
      <trkpt lat="43.6439" lon="3.38392">
        <ele>139</ele>
        <time>2024-03-21T12:44:35Z</time>
      </trkpt>
      <trkpt lat="43.64396" lon="3.38374">
        <ele>139.4</ele>
        <time>2024-03-21T12:44:38Z</time>
      </trkpt>
      <trkpt lat="43.64402" lon="3.38359">
        <ele>139.5</ele>
        <time>2024-03-21T12:44:41Z</time>
      </trkpt>
      <trkpt lat="43.64404" lon="3.38355">
        <ele>139.5</ele>
        <time>2024-03-21T12:44:42Z</time>
      </trkpt>
      <trkpt lat="43.64406" lon="3.38349">
        <ele>139.4</ele>
        <time>2024-03-21T12:44:43Z</time>
      </trkpt>
      <trkpt lat="43.64408" lon="3.38344">
        <ele>139.3</ele>
        <time>2024-03-21T12:44:44Z</time>
      </trkpt>
      <trkpt lat="43.64411" lon="3.38329">
        <ele>139.3</ele>
        <time>2024-03-21T12:44:47Z</time>
      </trkpt>
      <trkpt lat="43.64413" lon="3.38317">
        <ele>139.6</ele>
        <time>2024-03-21T12:44:49Z</time>
      </trkpt>
      <trkpt lat="43.64413" lon="3.38311">
        <ele>139.8</ele>
        <time>2024-03-21T12:44:50Z</time>
      </trkpt>
      <trkpt lat="43.64414" lon="3.38306">
        <ele>140</ele>
        <time>2024-03-21T12:44:51Z</time>
      </trkpt>
      <trkpt lat="43.64414" lon="3.383">
        <ele>140</ele>
        <time>2024-03-21T12:44:52Z</time>
      </trkpt>
      <trkpt lat="43.64413" lon="3.38295">
        <ele>140.1</ele>
        <time>2024-03-21T12:44:53Z</time>
      </trkpt>
      <trkpt lat="43.64411" lon="3.38283">
        <ele>140.2</ele>
        <time>2024-03-21T12:44:55Z</time>
      </trkpt>
      <trkpt lat="43.64411" lon="3.38278">
        <ele>140.2</ele>
        <time>2024-03-21T12:44:56Z</time>
      </trkpt>
      <trkpt lat="43.6441" lon="3.38272">
        <ele>140.2</ele>
        <time>2024-03-21T12:44:57Z</time>
      </trkpt>
      <trkpt lat="43.64409" lon="3.38267">
        <ele>140.3</ele>
        <time>2024-03-21T12:44:58Z</time>
      </trkpt>
      <trkpt lat="43.64408" lon="3.38261">
        <ele>140.3</ele>
        <time>2024-03-21T12:44:59Z</time>
      </trkpt>
      <trkpt lat="43.64408" lon="3.38256">
        <ele>140.3</ele>
        <time>2024-03-21T12:45:00Z</time>
      </trkpt>
      <trkpt lat="43.64407" lon="3.38251">
        <ele>140.3</ele>
        <time>2024-03-21T12:45:01Z</time>
      </trkpt>
      <trkpt lat="43.64407" lon="3.38246">
        <ele>140.3</ele>
        <time>2024-03-21T12:45:02Z</time>
      </trkpt>
      <trkpt lat="43.64405" lon="3.38236">
        <ele>140.4</ele>
        <time>2024-03-21T12:45:04Z</time>
      </trkpt>
      <trkpt lat="43.64404" lon="3.3823">
        <ele>140.5</ele>
        <time>2024-03-21T12:45:05Z</time>
      </trkpt>
      <trkpt lat="43.64403" lon="3.38226">
        <ele>140.5</ele>
        <time>2024-03-21T12:45:06Z</time>
      </trkpt>
      <trkpt lat="43.64402" lon="3.3822">
        <ele>140.5</ele>
        <time>2024-03-21T12:45:07Z</time>
      </trkpt>
      <trkpt lat="43.64402" lon="3.38214">
        <ele>140.5</ele>
        <time>2024-03-21T12:45:08Z</time>
      </trkpt>
      <trkpt lat="43.64403" lon="3.38208">
        <ele>140.5</ele>
        <time>2024-03-21T12:45:09Z</time>
      </trkpt>
      <trkpt lat="43.64403" lon="3.38201">
        <ele>140.5</ele>
        <time>2024-03-21T12:45:10Z</time>
      </trkpt>
      <trkpt lat="43.64402" lon="3.38194">
        <ele>140.5</ele>
        <time>2024-03-21T12:45:11Z</time>
      </trkpt>
      <trkpt lat="43.64401" lon="3.38188">
        <ele>140.6</ele>
        <time>2024-03-21T12:45:12Z</time>
      </trkpt>
      <trkpt lat="43.64401" lon="3.38176">
        <ele>140.6</ele>
        <time>2024-03-21T12:45:14Z</time>
      </trkpt>
      <trkpt lat="43.644" lon="3.38169">
        <ele>140.6</ele>
        <time>2024-03-21T12:45:15Z</time>
      </trkpt>
      <trkpt lat="43.64398" lon="3.38163">
        <ele>140.6</ele>
        <time>2024-03-21T12:45:16Z</time>
      </trkpt>
      <trkpt lat="43.64397" lon="3.38158">
        <ele>140.5</ele>
        <time>2024-03-21T12:45:17Z</time>
      </trkpt>
      <trkpt lat="43.64396" lon="3.38152">
        <ele>140.4</ele>
        <time>2024-03-21T12:45:18Z</time>
      </trkpt>
      <trkpt lat="43.64395" lon="3.38145">
        <ele>140.2</ele>
        <time>2024-03-21T12:45:19Z</time>
      </trkpt>
      <trkpt lat="43.64395" lon="3.38133">
        <ele>140.2</ele>
        <time>2024-03-21T12:45:21Z</time>
      </trkpt>
      <trkpt lat="43.64394" lon="3.38127">
        <ele>140.3</ele>
        <time>2024-03-21T12:45:22Z</time>
      </trkpt>
      <trkpt lat="43.64394" lon="3.38122">
        <ele>140.5</ele>
        <time>2024-03-21T12:45:23Z</time>
      </trkpt>
      <trkpt lat="43.64392" lon="3.38117">
        <ele>140.7</ele>
        <time>2024-03-21T12:45:24Z</time>
      </trkpt>
      <trkpt lat="43.64391" lon="3.38111">
        <ele>140.9</ele>
        <time>2024-03-21T12:45:25Z</time>
      </trkpt>
      <trkpt lat="43.64389" lon="3.38101">
        <ele>141</ele>
        <time>2024-03-21T12:45:27Z</time>
      </trkpt>
      <trkpt lat="43.64388" lon="3.38097">
        <ele>141</ele>
        <time>2024-03-21T12:45:28Z</time>
      </trkpt>
      <trkpt lat="43.64387" lon="3.38092">
        <ele>141.1</ele>
        <time>2024-03-21T12:45:29Z</time>
      </trkpt>
      <trkpt lat="43.64386" lon="3.38088">
        <ele>141.1</ele>
        <time>2024-03-21T12:45:30Z</time>
      </trkpt>
      <trkpt lat="43.64384" lon="3.38084">
        <ele>141.2</ele>
        <time>2024-03-21T12:45:31Z</time>
      </trkpt>
      <trkpt lat="43.64383" lon="3.3808">
        <ele>141.2</ele>
        <time>2024-03-21T12:45:32Z</time>
      </trkpt>
      <trkpt lat="43.64382" lon="3.38077">
        <ele>141.1</ele>
        <time>2024-03-21T12:45:33Z</time>
      </trkpt>
      <trkpt lat="43.6438" lon="3.38074">
        <ele>141.1</ele>
        <time>2024-03-21T12:45:34Z</time>
      </trkpt>
      <trkpt lat="43.64372" lon="3.38066">
        <ele>140.8</ele>
        <time>2024-03-21T12:45:37Z</time>
      </trkpt>
      <trkpt lat="43.64368" lon="3.38064">
        <ele>140.7</ele>
        <time>2024-03-21T12:45:38Z</time>
      </trkpt>
      <trkpt lat="43.64365" lon="3.3806">
        <ele>140.4</ele>
        <time>2024-03-21T12:45:39Z</time>
      </trkpt>
      <trkpt lat="43.64361" lon="3.38055">
        <ele>140</ele>
        <time>2024-03-21T12:45:40Z</time>
      </trkpt>
      <trkpt lat="43.64358" lon="3.3805">
        <ele>140.1</ele>
        <time>2024-03-21T12:45:41Z</time>
      </trkpt>
      <trkpt lat="43.64355" lon="3.38044">
        <ele>140.2</ele>
        <time>2024-03-21T12:45:42Z</time>
      </trkpt>
      <trkpt lat="43.64355" lon="3.38039">
        <ele>140.2</ele>
        <time>2024-03-21T12:45:43Z</time>
      </trkpt>
      <trkpt lat="43.64354" lon="3.38035">
        <ele>140.3</ele>
        <time>2024-03-21T12:45:44Z</time>
      </trkpt>
      <trkpt lat="43.64354" lon="3.38031">
        <ele>140.3</ele>
        <time>2024-03-21T12:45:45Z</time>
      </trkpt>
      <trkpt lat="43.64352" lon="3.38028">
        <ele>140.3</ele>
        <time>2024-03-21T12:45:46Z</time>
      </trkpt>
      <trkpt lat="43.64351" lon="3.38026">
        <ele>140.4</ele>
        <time>2024-03-21T12:45:47Z</time>
      </trkpt>
      <trkpt lat="43.6435" lon="3.38022">
        <ele>140.4</ele>
        <time>2024-03-21T12:45:48Z</time>
      </trkpt>
      <trkpt lat="43.64349" lon="3.38016">
        <ele>140.4</ele>
        <time>2024-03-21T12:45:49Z</time>
      </trkpt>
      <trkpt lat="43.64349" lon="3.38002">
        <ele>140.4</ele>
        <time>2024-03-21T12:45:51Z</time>
      </trkpt>
      <trkpt lat="43.6435" lon="3.37995">
        <ele>140.5</ele>
        <time>2024-03-21T12:45:52Z</time>
      </trkpt>
      <trkpt lat="43.6435" lon="3.37988">
        <ele>140.6</ele>
        <time>2024-03-21T12:45:53Z</time>
      </trkpt>
      <trkpt lat="43.64352" lon="3.37982">
        <ele>140.5</ele>
        <time>2024-03-21T12:45:54Z</time>
      </trkpt>
      <trkpt lat="43.64353" lon="3.37976">
        <ele>140.5</ele>
        <time>2024-03-21T12:45:55Z</time>
      </trkpt>
      <trkpt lat="43.64357" lon="3.37966">
        <ele>140.3</ele>
        <time>2024-03-21T12:45:57Z</time>
      </trkpt>
      <trkpt lat="43.64366" lon="3.37954">
        <ele>140</ele>
        <time>2024-03-21T12:46:00Z</time>
      </trkpt>
      <trkpt lat="43.6437" lon="3.37951">
        <ele>140</ele>
        <time>2024-03-21T12:46:01Z</time>
      </trkpt>
      <trkpt lat="43.64379" lon="3.37939">
        <ele>140.1</ele>
        <time>2024-03-21T12:46:04Z</time>
      </trkpt>
      <trkpt lat="43.64381" lon="3.37934">
        <ele>140.1</ele>
        <time>2024-03-21T12:46:05Z</time>
      </trkpt>
      <trkpt lat="43.64382" lon="3.3793">
        <ele>140.1</ele>
        <time>2024-03-21T12:46:06Z</time>
      </trkpt>
      <trkpt lat="43.64383" lon="3.37927">
        <ele>140.1</ele>
        <time>2024-03-21T12:46:07Z</time>
      </trkpt>
      <trkpt lat="43.64383" lon="3.37925">
        <ele>140.1</ele>
        <time>2024-03-21T12:46:08Z</time>
      </trkpt>
      <trkpt lat="43.64385" lon="3.37922">
        <ele>140.1</ele>
        <time>2024-03-21T12:46:09Z</time>
      </trkpt>
      <trkpt lat="43.64386" lon="3.3792">
        <ele>140.1</ele>
        <time>2024-03-21T12:46:10Z</time>
      </trkpt>
      <trkpt lat="43.6439" lon="3.37914">
        <ele>139.8</ele>
        <time>2024-03-21T12:46:12Z</time>
      </trkpt>
      <trkpt lat="43.64391" lon="3.37912">
        <ele>139.6</ele>
        <time>2024-03-21T12:46:13Z</time>
      </trkpt>
      <trkpt lat="43.64392" lon="3.37908">
        <ele>139.4</ele>
        <time>2024-03-21T12:46:14Z</time>
      </trkpt>
      <trkpt lat="43.64393" lon="3.37905">
        <ele>139.3</ele>
        <time>2024-03-21T12:46:15Z</time>
      </trkpt>
      <trkpt lat="43.64392" lon="3.37903">
        <ele>139.3</ele>
        <time>2024-03-21T12:46:16Z</time>
      </trkpt>
      <trkpt lat="43.64391" lon="3.379">
        <ele>139.3</ele>
        <time>2024-03-21T12:46:17Z</time>
      </trkpt>
      <trkpt lat="43.6439" lon="3.37898">
        <ele>139.3</ele>
        <time>2024-03-21T12:46:18Z</time>
      </trkpt>
      <trkpt lat="43.64389" lon="3.37894">
        <ele>139.2</ele>
        <time>2024-03-21T12:46:19Z</time>
      </trkpt>
      <trkpt lat="43.64388" lon="3.37892">
        <ele>139.2</ele>
        <time>2024-03-21T12:46:20Z</time>
      </trkpt>
      <trkpt lat="43.64387" lon="3.37889">
        <ele>139.1</ele>
        <time>2024-03-21T12:46:21Z</time>
      </trkpt>
      <trkpt lat="43.64387" lon="3.37886">
        <ele>139.1</ele>
        <time>2024-03-21T12:46:22Z</time>
      </trkpt>
      <trkpt lat="43.64388" lon="3.37883">
        <ele>139.1</ele>
        <time>2024-03-21T12:46:23Z</time>
      </trkpt>
      <trkpt lat="43.6439" lon="3.37879">
        <ele>139</ele>
        <time>2024-03-21T12:46:24Z</time>
      </trkpt>
      <trkpt lat="43.64391" lon="3.37874">
        <ele>139</ele>
        <time>2024-03-21T12:46:25Z</time>
      </trkpt>
      <trkpt lat="43.64394" lon="3.37869">
        <ele>138.9</ele>
        <time>2024-03-21T12:46:26Z</time>
      </trkpt>
      <trkpt lat="43.64395" lon="3.37864">
        <ele>139</ele>
        <time>2024-03-21T12:46:27Z</time>
      </trkpt>
      <trkpt lat="43.64397" lon="3.37857">
        <ele>139.1</ele>
        <time>2024-03-21T12:46:28Z</time>
      </trkpt>
      <trkpt lat="43.64398" lon="3.37851">
        <ele>139.2</ele>
        <time>2024-03-21T12:46:29Z</time>
      </trkpt>
      <trkpt lat="43.64398" lon="3.37845">
        <ele>139.4</ele>
        <time>2024-03-21T12:46:30Z</time>
      </trkpt>
      <trkpt lat="43.64399" lon="3.37838">
        <ele>139.5</ele>
        <time>2024-03-21T12:46:31Z</time>
      </trkpt>
      <trkpt lat="43.644" lon="3.37832">
        <ele>139.6</ele>
        <time>2024-03-21T12:46:32Z</time>
      </trkpt>
      <trkpt lat="43.64402" lon="3.37825">
        <ele>139.5</ele>
        <time>2024-03-21T12:46:33Z</time>
      </trkpt>
      <trkpt lat="43.64404" lon="3.37819">
        <ele>139.5</ele>
        <time>2024-03-21T12:46:34Z</time>
      </trkpt>
      <trkpt lat="43.64406" lon="3.37812">
        <ele>139.4</ele>
        <time>2024-03-21T12:46:35Z</time>
      </trkpt>
      <trkpt lat="43.64409" lon="3.37806">
        <ele>139.3</ele>
        <time>2024-03-21T12:46:36Z</time>
      </trkpt>
      <trkpt lat="43.64412" lon="3.37801">
        <ele>139.3</ele>
        <time>2024-03-21T12:46:37Z</time>
      </trkpt>
      <trkpt lat="43.64414" lon="3.37795">
        <ele>139.4</ele>
        <time>2024-03-21T12:46:38Z</time>
      </trkpt>
      <trkpt lat="43.64416" lon="3.3779">
        <ele>139.6</ele>
        <time>2024-03-21T12:46:39Z</time>
      </trkpt>
      <trkpt lat="43.64417" lon="3.37785">
        <ele>139.7</ele>
        <time>2024-03-21T12:46:40Z</time>
      </trkpt>
      <trkpt lat="43.64418" lon="3.37779">
        <ele>139.9</ele>
        <time>2024-03-21T12:46:41Z</time>
      </trkpt>
      <trkpt lat="43.64418" lon="3.37768">
        <ele>139.9</ele>
        <time>2024-03-21T12:46:43Z</time>
      </trkpt>
      <trkpt lat="43.64419" lon="3.37762">
        <ele>139.9</ele>
        <time>2024-03-21T12:46:44Z</time>
      </trkpt>
      <trkpt lat="43.64419" lon="3.37748">
        <ele>139.9</ele>
        <time>2024-03-21T12:46:46Z</time>
      </trkpt>
      <trkpt lat="43.6442" lon="3.37741">
        <ele>139.9</ele>
        <time>2024-03-21T12:46:47Z</time>
      </trkpt>
      <trkpt lat="43.6442" lon="3.37699">
        <ele>139.9</ele>
        <time>2024-03-21T12:46:54Z</time>
      </trkpt>
      <trkpt lat="43.64422" lon="3.37693">
        <ele>139.8</ele>
        <time>2024-03-21T12:46:55Z</time>
      </trkpt>
      <trkpt lat="43.64424" lon="3.37683">
        <ele>139.7</ele>
        <time>2024-03-21T12:46:57Z</time>
      </trkpt>
      <trkpt lat="43.64426" lon="3.37679">
        <ele>139.7</ele>
        <time>2024-03-21T12:46:58Z</time>
      </trkpt>
      <trkpt lat="43.64427" lon="3.37675">
        <ele>139.6</ele>
        <time>2024-03-21T12:46:59Z</time>
      </trkpt>
      <trkpt lat="43.64431" lon="3.37665">
        <ele>139.5</ele>
        <time>2024-03-21T12:47:01Z</time>
      </trkpt>
      <trkpt lat="43.64432" lon="3.3766">
        <ele>139.4</ele>
        <time>2024-03-21T12:47:02Z</time>
      </trkpt>
      <trkpt lat="43.64433" lon="3.37656">
        <ele>139.4</ele>
        <time>2024-03-21T12:47:03Z</time>
      </trkpt>
      <trkpt lat="43.64432" lon="3.37652">
        <ele>139.4</ele>
        <time>2024-03-21T12:47:04Z</time>
      </trkpt>
      <trkpt lat="43.64432" lon="3.37648">
        <ele>139.4</ele>
        <time>2024-03-21T12:47:05Z</time>
      </trkpt>
      <trkpt lat="43.6443" lon="3.37642">
        <ele>139.5</ele>
        <time>2024-03-21T12:47:07Z</time>
      </trkpt>
      <trkpt lat="43.64429" lon="3.37638">
        <ele>139.6</ele>
        <time>2024-03-21T12:47:08Z</time>
      </trkpt>
      <trkpt lat="43.64427" lon="3.37635">
        <ele>139.6</ele>
        <time>2024-03-21T12:47:09Z</time>
      </trkpt>
      <trkpt lat="43.64424" lon="3.37633">
        <ele>139.7</ele>
        <time>2024-03-21T12:47:10Z</time>
      </trkpt>
      <trkpt lat="43.64422" lon="3.37627">
        <ele>139.8</ele>
        <time>2024-03-21T12:47:12Z</time>
      </trkpt>
      <trkpt lat="43.64422" lon="3.37624">
        <ele>139.8</ele>
        <time>2024-03-21T12:47:13Z</time>
      </trkpt>
      <trkpt lat="43.64421" lon="3.37622">
        <ele>139.8</ele>
        <time>2024-03-21T12:47:14Z</time>
      </trkpt>
      <trkpt lat="43.64422" lon="3.37619">
        <ele>139.8</ele>
        <time>2024-03-21T12:47:15Z</time>
      </trkpt>
      <trkpt lat="43.64422" lon="3.37617">
        <ele>139.8</ele>
        <time>2024-03-21T12:47:16Z</time>
      </trkpt>
      <trkpt lat="43.64424" lon="3.37614">
        <ele>139.7</ele>
        <time>2024-03-21T12:47:17Z</time>
      </trkpt>
      <trkpt lat="43.64424" lon="3.37603">
        <ele>139.7</ele>
        <time>2024-03-21T12:47:20Z</time>
      </trkpt>
      <trkpt lat="43.64426" lon="3.37598">
        <ele>139.7</ele>
        <time>2024-03-21T12:47:21Z</time>
      </trkpt>
      <trkpt lat="43.64432" lon="3.37592">
        <ele>139.4</ele>
        <time>2024-03-21T12:47:23Z</time>
      </trkpt>
      <trkpt lat="43.64438" lon="3.37584">
        <ele>139.2</ele>
        <time>2024-03-21T12:47:25Z</time>
      </trkpt>
      <trkpt lat="43.64442" lon="3.37574">
        <ele>139.4</ele>
        <time>2024-03-21T12:47:27Z</time>
      </trkpt>
      <trkpt lat="43.64443" lon="3.3757">
        <ele>139.5</ele>
        <time>2024-03-21T12:47:28Z</time>
      </trkpt>
      <trkpt lat="43.64445" lon="3.37566">
        <ele>139.6</ele>
        <time>2024-03-21T12:47:29Z</time>
      </trkpt>
      <trkpt lat="43.64449" lon="3.37556">
        <ele>139.7</ele>
        <time>2024-03-21T12:47:31Z</time>
      </trkpt>
      <trkpt lat="43.6445" lon="3.37551">
        <ele>139.6</ele>
        <time>2024-03-21T12:47:32Z</time>
      </trkpt>
      <trkpt lat="43.64452" lon="3.37546">
        <ele>139.5</ele>
        <time>2024-03-21T12:47:33Z</time>
      </trkpt>
      <trkpt lat="43.64453" lon="3.37541">
        <ele>139.5</ele>
        <time>2024-03-21T12:47:34Z</time>
      </trkpt>
      <trkpt lat="43.64455" lon="3.37535">
        <ele>139.5</ele>
        <time>2024-03-21T12:47:35Z</time>
      </trkpt>
      <trkpt lat="43.64456" lon="3.37529">
        <ele>139.6</ele>
        <time>2024-03-21T12:47:36Z</time>
      </trkpt>
      <trkpt lat="43.64457" lon="3.37524">
        <ele>139.5</ele>
        <time>2024-03-21T12:47:37Z</time>
      </trkpt>
      <trkpt lat="43.64459" lon="3.37518">
        <ele>139.5</ele>
        <time>2024-03-21T12:47:38Z</time>
      </trkpt>
      <trkpt lat="43.6446" lon="3.37512">
        <ele>139.4</ele>
        <time>2024-03-21T12:47:39Z</time>
      </trkpt>
      <trkpt lat="43.64462" lon="3.37507">
        <ele>139.4</ele>
        <time>2024-03-21T12:47:40Z</time>
      </trkpt>
      <trkpt lat="43.64463" lon="3.37501">
        <ele>139.3</ele>
        <time>2024-03-21T12:47:41Z</time>
      </trkpt>
      <trkpt lat="43.64464" lon="3.37496">
        <ele>139.4</ele>
        <time>2024-03-21T12:47:42Z</time>
      </trkpt>
      <trkpt lat="43.64466" lon="3.3749">
        <ele>139.6</ele>
        <time>2024-03-21T12:47:43Z</time>
      </trkpt>
      <trkpt lat="43.64466" lon="3.37485">
        <ele>139.8</ele>
        <time>2024-03-21T12:47:44Z</time>
      </trkpt>
      <trkpt lat="43.64467" lon="3.3748">
        <ele>139.9</ele>
        <time>2024-03-21T12:47:45Z</time>
      </trkpt>
      <trkpt lat="43.64469" lon="3.37474">
        <ele>140.1</ele>
        <time>2024-03-21T12:47:46Z</time>
      </trkpt>
      <trkpt lat="43.64471" lon="3.37464">
        <ele>140</ele>
        <time>2024-03-21T12:47:48Z</time>
      </trkpt>
      <trkpt lat="43.64471" lon="3.37458">
        <ele>140</ele>
        <time>2024-03-21T12:47:49Z</time>
      </trkpt>
      <trkpt lat="43.64472" lon="3.37453">
        <ele>140</ele>
        <time>2024-03-21T12:47:50Z</time>
      </trkpt>
      <trkpt lat="43.64474" lon="3.37449">
        <ele>139.9</ele>
        <time>2024-03-21T12:47:51Z</time>
      </trkpt>
      <trkpt lat="43.64476" lon="3.37437">
        <ele>139.6</ele>
        <time>2024-03-21T12:47:53Z</time>
      </trkpt>
      <trkpt lat="43.64476" lon="3.37399">
        <ele>139.4</ele>
        <time>2024-03-21T12:48:00Z</time>
      </trkpt>
      <trkpt lat="43.64477" lon="3.37394">
        <ele>139.5</ele>
        <time>2024-03-21T12:48:01Z</time>
      </trkpt>
      <trkpt lat="43.64478" lon="3.3739">
        <ele>139.6</ele>
        <time>2024-03-21T12:48:02Z</time>
      </trkpt>
      <trkpt lat="43.64479" lon="3.37384">
        <ele>139.4</ele>
        <time>2024-03-21T12:48:03Z</time>
      </trkpt>
      <trkpt lat="43.64479" lon="3.37374">
        <ele>139.1</ele>
        <time>2024-03-21T12:48:05Z</time>
      </trkpt>
      <trkpt lat="43.64478" lon="3.3737">
        <ele>139</ele>
        <time>2024-03-21T12:48:06Z</time>
      </trkpt>
      <trkpt lat="43.64474" lon="3.37362">
        <ele>139</ele>
        <time>2024-03-21T12:48:08Z</time>
      </trkpt>
      <trkpt lat="43.64472" lon="3.37357">
        <ele>139</ele>
        <time>2024-03-21T12:48:09Z</time>
      </trkpt>
      <trkpt lat="43.6447" lon="3.37354">
        <ele>139.1</ele>
        <time>2024-03-21T12:48:10Z</time>
      </trkpt>
      <trkpt lat="43.64467" lon="3.3735">
        <ele>139.2</ele>
        <time>2024-03-21T12:48:11Z</time>
      </trkpt>
      <trkpt lat="43.64465" lon="3.37346">
        <ele>139.3</ele>
        <time>2024-03-21T12:48:12Z</time>
      </trkpt>
      <trkpt lat="43.64463" lon="3.37343">
        <ele>139.3</ele>
        <time>2024-03-21T12:48:13Z</time>
      </trkpt>
      <trkpt lat="43.64461" lon="3.37339">
        <ele>139.4</ele>
        <time>2024-03-21T12:48:14Z</time>
      </trkpt>
      <trkpt lat="43.6446" lon="3.37334">
        <ele>139.4</ele>
        <time>2024-03-21T12:48:15Z</time>
      </trkpt>
      <trkpt lat="43.64458" lon="3.37329">
        <ele>139.4</ele>
        <time>2024-03-21T12:48:16Z</time>
      </trkpt>
      <trkpt lat="43.64455" lon="3.37325">
        <ele>139.3</ele>
        <time>2024-03-21T12:48:17Z</time>
      </trkpt>
      <trkpt lat="43.64451" lon="3.37322">
        <ele>139.4</ele>
        <time>2024-03-21T12:48:18Z</time>
      </trkpt>
      <trkpt lat="43.64448" lon="3.37319">
        <ele>139.4</ele>
        <time>2024-03-21T12:48:19Z</time>
      </trkpt>
      <trkpt lat="43.64446" lon="3.37315">
        <ele>139.3</ele>
        <time>2024-03-21T12:48:20Z</time>
      </trkpt>
      <trkpt lat="43.64443" lon="3.37311">
        <ele>139.2</ele>
        <time>2024-03-21T12:48:21Z</time>
      </trkpt>
      <trkpt lat="43.64435" lon="3.37291">
        <ele>139.3</ele>
        <time>2024-03-21T12:48:25Z</time>
      </trkpt>
      <trkpt lat="43.64434" lon="3.37286">
        <ele>139.4</ele>
        <time>2024-03-21T12:48:26Z</time>
      </trkpt>
      <trkpt lat="43.64433" lon="3.3728">
        <ele>139.4</ele>
        <time>2024-03-21T12:48:27Z</time>
      </trkpt>
      <trkpt lat="43.64429" lon="3.3726">
        <ele>139.6</ele>
        <time>2024-03-21T12:48:31Z</time>
      </trkpt>
      <trkpt lat="43.64427" lon="3.37254">
        <ele>139.6</ele>
        <time>2024-03-21T12:48:32Z</time>
      </trkpt>
      <trkpt lat="43.64425" lon="3.37244">
        <ele>139.7</ele>
        <time>2024-03-21T12:48:34Z</time>
      </trkpt>
      <trkpt lat="43.64424" lon="3.3724">
        <ele>139.7</ele>
        <time>2024-03-21T12:48:35Z</time>
      </trkpt>
      <trkpt lat="43.64422" lon="3.37236">
        <ele>139.8</ele>
        <time>2024-03-21T12:48:36Z</time>
      </trkpt>
      <trkpt lat="43.64421" lon="3.37232">
        <ele>139.8</ele>
        <time>2024-03-21T12:48:37Z</time>
      </trkpt>
      <trkpt lat="43.64419" lon="3.37227">
        <ele>139.9</ele>
        <time>2024-03-21T12:48:38Z</time>
      </trkpt>
      <trkpt lat="43.64416" lon="3.37222">
        <ele>140</ele>
        <time>2024-03-21T12:48:39Z</time>
      </trkpt>
      <trkpt lat="43.6441" lon="3.37214">
        <ele>139.9</ele>
        <time>2024-03-21T12:48:41Z</time>
      </trkpt>
      <trkpt lat="43.64408" lon="3.37211">
        <ele>139.9</ele>
        <time>2024-03-21T12:48:42Z</time>
      </trkpt>
      <trkpt lat="43.64399" lon="3.37199">
        <ele>139.8</ele>
        <time>2024-03-21T12:48:45Z</time>
      </trkpt>
      <trkpt lat="43.64398" lon="3.37196">
        <ele>139.7</ele>
        <time>2024-03-21T12:48:46Z</time>
      </trkpt>
      <trkpt lat="43.64396" lon="3.37194">
        <ele>139.7</ele>
        <time>2024-03-21T12:48:47Z</time>
      </trkpt>
      <trkpt lat="43.64393" lon="3.3719">
        <ele>139.7</ele>
        <time>2024-03-21T12:48:48Z</time>
      </trkpt>
      <trkpt lat="43.6439" lon="3.37187">
        <ele>139.7</ele>
        <time>2024-03-21T12:48:49Z</time>
      </trkpt>
      <trkpt lat="43.64385" lon="3.37185">
        <ele>139.7</ele>
        <time>2024-03-21T12:48:50Z</time>
      </trkpt>
      <trkpt lat="43.64381" lon="3.37184">
        <ele>139.7</ele>
        <time>2024-03-21T12:48:51Z</time>
      </trkpt>
      <trkpt lat="43.64376" lon="3.37183">
        <ele>139.8</ele>
        <time>2024-03-21T12:48:52Z</time>
      </trkpt>
      <trkpt lat="43.64373" lon="3.3718">
        <ele>139.8</ele>
        <time>2024-03-21T12:48:53Z</time>
      </trkpt>
      <trkpt lat="43.64372" lon="3.37175">
        <ele>139.7</ele>
        <time>2024-03-21T12:48:54Z</time>
      </trkpt>
      <trkpt lat="43.64369" lon="3.3717">
        <ele>139.8</ele>
        <time>2024-03-21T12:48:55Z</time>
      </trkpt>
      <trkpt lat="43.64368" lon="3.37166">
        <ele>139.7</ele>
        <time>2024-03-21T12:48:56Z</time>
      </trkpt>
      <trkpt lat="43.64367" lon="3.37161">
        <ele>139.6</ele>
        <time>2024-03-21T12:48:57Z</time>
      </trkpt>
      <trkpt lat="43.64366" lon="3.37157">
        <ele>139.5</ele>
        <time>2024-03-21T12:48:58Z</time>
      </trkpt>
      <trkpt lat="43.64364" lon="3.37154">
        <ele>139.4</ele>
        <time>2024-03-21T12:48:59Z</time>
      </trkpt>
      <trkpt lat="43.64361" lon="3.3715">
        <ele>139.4</ele>
        <time>2024-03-21T12:49:00Z</time>
      </trkpt>
      <trkpt lat="43.64358" lon="3.37147">
        <ele>139.5</ele>
        <time>2024-03-21T12:49:01Z</time>
      </trkpt>
      <trkpt lat="43.64353" lon="3.37144">
        <ele>139.7</ele>
        <time>2024-03-21T12:49:02Z</time>
      </trkpt>
      <trkpt lat="43.6435" lon="3.37141">
        <ele>139.8</ele>
        <time>2024-03-21T12:49:03Z</time>
      </trkpt>
      <trkpt lat="43.64346" lon="3.37138">
        <ele>140.1</ele>
        <time>2024-03-21T12:49:04Z</time>
      </trkpt>
      <trkpt lat="43.64342" lon="3.37136">
        <ele>140.4</ele>
        <time>2024-03-21T12:49:05Z</time>
      </trkpt>
      <trkpt lat="43.64339" lon="3.37135">
        <ele>140.7</ele>
        <time>2024-03-21T12:49:06Z</time>
      </trkpt>
      <trkpt lat="43.64335" lon="3.37134">
        <ele>141</ele>
        <time>2024-03-21T12:49:07Z</time>
      </trkpt>
      <trkpt lat="43.64332" lon="3.37133">
        <ele>141.3</ele>
        <time>2024-03-21T12:49:08Z</time>
      </trkpt>
      <trkpt lat="43.64329" lon="3.37131">
        <ele>141.4</ele>
        <time>2024-03-21T12:49:09Z</time>
      </trkpt>
      <trkpt lat="43.64323" lon="3.37125">
        <ele>141.9</ele>
        <time>2024-03-21T12:49:11Z</time>
      </trkpt>
      <trkpt lat="43.64321" lon="3.37122">
        <ele>142.1</ele>
        <time>2024-03-21T12:49:12Z</time>
      </trkpt>
      <trkpt lat="43.64318" lon="3.37118">
        <ele>142.3</ele>
        <time>2024-03-21T12:49:13Z</time>
      </trkpt>
      <trkpt lat="43.64316" lon="3.37115">
        <ele>142.5</ele>
        <time>2024-03-21T12:49:14Z</time>
      </trkpt>
      <trkpt lat="43.64314" lon="3.37111">
        <ele>142.7</ele>
        <time>2024-03-21T12:49:15Z</time>
      </trkpt>
      <trkpt lat="43.64313" lon="3.37108">
        <ele>142.7</ele>
        <time>2024-03-21T12:49:16Z</time>
      </trkpt>
      <trkpt lat="43.6431" lon="3.37104">
        <ele>142.8</ele>
        <time>2024-03-21T12:49:17Z</time>
      </trkpt>
      <trkpt lat="43.64308" lon="3.37099">
        <ele>142.9</ele>
        <time>2024-03-21T12:49:18Z</time>
      </trkpt>
      <trkpt lat="43.64307" lon="3.37093">
        <ele>142.9</ele>
        <time>2024-03-21T12:49:19Z</time>
      </trkpt>
      <trkpt lat="43.64305" lon="3.37083">
        <ele>143</ele>
        <time>2024-03-21T12:49:21Z</time>
      </trkpt>
      <trkpt lat="43.64305" lon="3.37077">
        <ele>142.8</ele>
        <time>2024-03-21T12:49:22Z</time>
      </trkpt>
      <trkpt lat="43.64304" lon="3.37071">
        <ele>142.6</ele>
        <time>2024-03-21T12:49:23Z</time>
      </trkpt>
      <trkpt lat="43.64302" lon="3.37065">
        <ele>142.4</ele>
        <time>2024-03-21T12:49:24Z</time>
      </trkpt>
      <trkpt lat="43.64302" lon="3.37051">
        <ele>141.8</ele>
        <time>2024-03-21T12:49:26Z</time>
      </trkpt>
      <trkpt lat="43.64301" lon="3.37044">
        <ele>141.6</ele>
        <time>2024-03-21T12:49:27Z</time>
      </trkpt>
      <trkpt lat="43.643" lon="3.37038">
        <ele>141.4</ele>
        <time>2024-03-21T12:49:28Z</time>
      </trkpt>
      <trkpt lat="43.64298" lon="3.37022">
        <ele>141.2</ele>
        <time>2024-03-21T12:49:30Z</time>
      </trkpt>
      <trkpt lat="43.64298" lon="3.37016">
        <ele>141.3</ele>
        <time>2024-03-21T12:49:31Z</time>
      </trkpt>
      <trkpt lat="43.643" lon="3.3701">
        <ele>141.5</ele>
        <time>2024-03-21T12:49:32Z</time>
      </trkpt>
      <trkpt lat="43.64302" lon="3.37003">
        <ele>141.8</ele>
        <time>2024-03-21T12:49:33Z</time>
      </trkpt>
      <trkpt lat="43.64302" lon="3.36997">
        <ele>142</ele>
        <time>2024-03-21T12:49:34Z</time>
      </trkpt>
      <trkpt lat="43.64303" lon="3.3699">
        <ele>142.3</ele>
        <time>2024-03-21T12:49:35Z</time>
      </trkpt>
      <trkpt lat="43.64303" lon="3.36985">
        <ele>142.5</ele>
        <time>2024-03-21T12:49:36Z</time>
      </trkpt>
      <trkpt lat="43.64304" lon="3.36979">
        <ele>142.7</ele>
        <time>2024-03-21T12:49:37Z</time>
      </trkpt>
      <trkpt lat="43.64304" lon="3.36973">
        <ele>143</ele>
        <time>2024-03-21T12:49:38Z</time>
      </trkpt>
      <trkpt lat="43.64305" lon="3.36968">
        <ele>142.9</ele>
        <time>2024-03-21T12:49:39Z</time>
      </trkpt>
      <trkpt lat="43.64307" lon="3.36956">
        <ele>142.4</ele>
        <time>2024-03-21T12:49:41Z</time>
      </trkpt>
      <trkpt lat="43.64307" lon="3.36921">
        <ele>142.7</ele>
        <time>2024-03-21T12:49:47Z</time>
      </trkpt>
      <trkpt lat="43.64308" lon="3.36915">
        <ele>142.8</ele>
        <time>2024-03-21T12:49:48Z</time>
      </trkpt>
      <trkpt lat="43.64308" lon="3.36904">
        <ele>142.8</ele>
        <time>2024-03-21T12:49:50Z</time>
      </trkpt>
      <trkpt lat="43.64307" lon="3.36898">
        <ele>142.9</ele>
        <time>2024-03-21T12:49:51Z</time>
      </trkpt>
      <trkpt lat="43.64307" lon="3.36871">
        <ele>142.9</ele>
        <time>2024-03-21T12:49:56Z</time>
      </trkpt>
      <trkpt lat="43.64308" lon="3.36866">
        <ele>142.8</ele>
        <time>2024-03-21T12:49:57Z</time>
      </trkpt>
      <trkpt lat="43.64308" lon="3.36847">
        <ele>143.2</ele>
        <time>2024-03-21T12:50:00Z</time>
      </trkpt>
      <trkpt lat="43.64309" lon="3.36842">
        <ele>143.3</ele>
        <time>2024-03-21T12:50:01Z</time>
      </trkpt>
      <trkpt lat="43.64309" lon="3.36837">
        <ele>143.4</ele>
        <time>2024-03-21T12:50:02Z</time>
      </trkpt>
      <trkpt lat="43.6431" lon="3.36832">
        <ele>143.3</ele>
        <time>2024-03-21T12:50:03Z</time>
      </trkpt>
      <trkpt lat="43.6431" lon="3.36822">
        <ele>143</ele>
        <time>2024-03-21T12:50:05Z</time>
      </trkpt>
      <trkpt lat="43.64308" lon="3.36817">
        <ele>143.1</ele>
        <time>2024-03-21T12:50:06Z</time>
      </trkpt>
      <trkpt lat="43.64307" lon="3.36812">
        <ele>143</ele>
        <time>2024-03-21T12:50:07Z</time>
      </trkpt>
      <trkpt lat="43.64303" lon="3.368">
        <ele>143.3</ele>
        <time>2024-03-21T12:50:09Z</time>
      </trkpt>
      <trkpt lat="43.643" lon="3.36794">
        <ele>143.5</ele>
        <time>2024-03-21T12:50:10Z</time>
      </trkpt>
      <trkpt lat="43.64298" lon="3.36786">
        <ele>142.9</ele>
        <time>2024-03-21T12:50:12Z</time>
      </trkpt>
      <trkpt lat="43.64296" lon="3.3678">
        <ele>142.4</ele>
        <time>2024-03-21T12:50:14Z</time>
      </trkpt>
      <trkpt lat="43.64296" lon="3.36778">
        <ele>142.1</ele>
        <time>2024-03-21T12:50:15Z</time>
      </trkpt>
      <trkpt lat="43.64295" lon="3.36776">
        <ele>142</ele>
        <time>2024-03-21T12:50:16Z</time>
      </trkpt>
      <trkpt lat="43.64293" lon="3.36773">
        <ele>142</ele>
        <time>2024-03-21T12:50:17Z</time>
      </trkpt>
      <trkpt lat="43.6429" lon="3.36764">
        <ele>141.6</ele>
        <time>2024-03-21T12:50:19Z</time>
      </trkpt>
      <trkpt lat="43.64291" lon="3.36758">
        <ele>141.1</ele>
        <time>2024-03-21T12:50:20Z</time>
      </trkpt>
      <trkpt lat="43.64292" lon="3.36753">
        <ele>140.7</ele>
        <time>2024-03-21T12:50:21Z</time>
      </trkpt>
      <trkpt lat="43.64294" lon="3.3675">
        <ele>140.4</ele>
        <time>2024-03-21T12:50:22Z</time>
      </trkpt>
      <trkpt lat="43.64297" lon="3.36747">
        <ele>140.4</ele>
        <time>2024-03-21T12:50:23Z</time>
      </trkpt>
      <trkpt lat="43.64299" lon="3.36744">
        <ele>140.4</ele>
        <time>2024-03-21T12:50:24Z</time>
      </trkpt>
      <trkpt lat="43.64301" lon="3.3674">
        <ele>140.5</ele>
        <time>2024-03-21T12:50:25Z</time>
      </trkpt>
      <trkpt lat="43.64304" lon="3.36735">
        <ele>140.6</ele>
        <time>2024-03-21T12:50:26Z</time>
      </trkpt>
      <trkpt lat="43.64306" lon="3.3673">
        <ele>140.7</ele>
        <time>2024-03-21T12:50:27Z</time>
      </trkpt>
      <trkpt lat="43.64308" lon="3.36723">
        <ele>140.7</ele>
        <time>2024-03-21T12:50:28Z</time>
      </trkpt>
      <trkpt lat="43.64308" lon="3.36716">
        <ele>140.5</ele>
        <time>2024-03-21T12:50:29Z</time>
      </trkpt>
      <trkpt lat="43.64311" lon="3.36692">
        <ele>139.6</ele>
        <time>2024-03-21T12:50:32Z</time>
      </trkpt>
      <trkpt lat="43.64313" lon="3.36683">
        <ele>139.5</ele>
        <time>2024-03-21T12:50:33Z</time>
      </trkpt>
      <trkpt lat="43.64312" lon="3.36675">
        <ele>139.5</ele>
        <time>2024-03-21T12:50:34Z</time>
      </trkpt>
      <trkpt lat="43.64308" lon="3.36663">
        <ele>139.7</ele>
        <time>2024-03-21T12:50:36Z</time>
      </trkpt>
      <trkpt lat="43.64303" lon="3.36659">
        <ele>139.8</ele>
        <time>2024-03-21T12:50:37Z</time>
      </trkpt>
      <trkpt lat="43.64299" lon="3.36657">
        <ele>139.9</ele>
        <time>2024-03-21T12:50:38Z</time>
      </trkpt>
      <trkpt lat="43.64296" lon="3.36654">
        <ele>139.9</ele>
        <time>2024-03-21T12:50:39Z</time>
      </trkpt>
      <trkpt lat="43.64291" lon="3.36652">
        <ele>140</ele>
        <time>2024-03-21T12:50:40Z</time>
      </trkpt>
      <trkpt lat="43.64288" lon="3.36648">
        <ele>140</ele>
        <time>2024-03-21T12:50:41Z</time>
      </trkpt>
      <trkpt lat="43.64287" lon="3.36642">
        <ele>139.8</ele>
        <time>2024-03-21T12:50:42Z</time>
      </trkpt>
      <trkpt lat="43.64288" lon="3.36635">
        <ele>139.6</ele>
        <time>2024-03-21T12:50:43Z</time>
      </trkpt>
      <trkpt lat="43.64288" lon="3.36619">
        <ele>139.6</ele>
        <time>2024-03-21T12:50:45Z</time>
      </trkpt>
      <trkpt lat="43.64287" lon="3.36613">
        <ele>139.7</ele>
        <time>2024-03-21T12:50:46Z</time>
      </trkpt>
      <trkpt lat="43.64285" lon="3.36599">
        <ele>140.1</ele>
        <time>2024-03-21T12:50:48Z</time>
      </trkpt>
      <trkpt lat="43.64284" lon="3.36593">
        <ele>140.3</ele>
        <time>2024-03-21T12:50:49Z</time>
      </trkpt>
      <trkpt lat="43.64284" lon="3.36577">
        <ele>140.6</ele>
        <time>2024-03-21T12:50:52Z</time>
      </trkpt>
      <trkpt lat="43.64283" lon="3.36571">
        <ele>140.6</ele>
        <time>2024-03-21T12:50:53Z</time>
      </trkpt>
      <trkpt lat="43.64283" lon="3.36538">
        <ele>140.6</ele>
        <time>2024-03-21T12:50:59Z</time>
      </trkpt>
      <trkpt lat="43.64282" lon="3.36532">
        <ele>140.7</ele>
        <time>2024-03-21T12:51:00Z</time>
      </trkpt>
      <trkpt lat="43.64281" lon="3.36524">
        <ele>140.6</ele>
        <time>2024-03-21T12:51:01Z</time>
      </trkpt>
      <trkpt lat="43.64282" lon="3.36517">
        <ele>140.4</ele>
        <time>2024-03-21T12:51:02Z</time>
      </trkpt>
      <trkpt lat="43.64281" lon="3.3651">
        <ele>140.2</ele>
        <time>2024-03-21T12:51:03Z</time>
      </trkpt>
      <trkpt lat="43.64281" lon="3.36503">
        <ele>140</ele>
        <time>2024-03-21T12:51:04Z</time>
      </trkpt>
      <trkpt lat="43.64283" lon="3.36491">
        <ele>140.1</ele>
        <time>2024-03-21T12:51:06Z</time>
      </trkpt>
      <trkpt lat="43.64285" lon="3.36486">
        <ele>140.1</ele>
        <time>2024-03-21T12:51:07Z</time>
      </trkpt>
      <trkpt lat="43.64286" lon="3.36479">
        <ele>140.2</ele>
        <time>2024-03-21T12:51:08Z</time>
      </trkpt>
      <trkpt lat="43.64288" lon="3.36467">
        <ele>140.6</ele>
        <time>2024-03-21T12:51:10Z</time>
      </trkpt>
      <trkpt lat="43.64289" lon="3.3646">
        <ele>140.9</ele>
        <time>2024-03-21T12:51:11Z</time>
      </trkpt>
      <trkpt lat="43.64291" lon="3.36448">
        <ele>141.4</ele>
        <time>2024-03-21T12:51:13Z</time>
      </trkpt>
      <trkpt lat="43.64292" lon="3.36443">
        <ele>141.6</ele>
        <time>2024-03-21T12:51:14Z</time>
      </trkpt>
      <trkpt lat="43.64293" lon="3.36437">
        <ele>141.9</ele>
        <time>2024-03-21T12:51:15Z</time>
      </trkpt>
      <trkpt lat="43.64293" lon="3.3643">
        <ele>142.3</ele>
        <time>2024-03-21T12:51:17Z</time>
      </trkpt>
      <trkpt lat="43.64294" lon="3.36427">
        <ele>142.4</ele>
        <time>2024-03-21T12:51:18Z</time>
      </trkpt>
      <trkpt lat="43.64295" lon="3.36423">
        <ele>142.5</ele>
        <time>2024-03-21T12:51:19Z</time>
      </trkpt>
      <trkpt lat="43.64297" lon="3.36419">
        <ele>142.4</ele>
        <time>2024-03-21T12:51:20Z</time>
      </trkpt>
      <trkpt lat="43.64298" lon="3.36414">
        <ele>142.5</ele>
        <time>2024-03-21T12:51:21Z</time>
      </trkpt>
      <trkpt lat="43.64299" lon="3.3641">
        <ele>142.6</ele>
        <time>2024-03-21T12:51:22Z</time>
      </trkpt>
      <trkpt lat="43.64301" lon="3.36407">
        <ele>142.5</ele>
        <time>2024-03-21T12:51:23Z</time>
      </trkpt>
      <trkpt lat="43.64303" lon="3.36403">
        <ele>142.4</ele>
        <time>2024-03-21T12:51:24Z</time>
      </trkpt>
      <trkpt lat="43.64304" lon="3.36398">
        <ele>142.6</ele>
        <time>2024-03-21T12:51:25Z</time>
      </trkpt>
      <trkpt lat="43.64306" lon="3.36394">
        <ele>142.6</ele>
        <time>2024-03-21T12:51:26Z</time>
      </trkpt>
      <trkpt lat="43.64308" lon="3.36391">
        <ele>142.9</ele>
        <time>2024-03-21T12:51:27Z</time>
      </trkpt>
      <trkpt lat="43.64309" lon="3.36387">
        <ele>143.1</ele>
        <time>2024-03-21T12:51:28Z</time>
      </trkpt>
      <trkpt lat="43.6431" lon="3.36382">
        <ele>143.2</ele>
        <time>2024-03-21T12:51:29Z</time>
      </trkpt>
      <trkpt lat="43.6431" lon="3.36377">
        <ele>143.4</ele>
        <time>2024-03-21T12:51:30Z</time>
      </trkpt>
      <trkpt lat="43.64311" lon="3.36373">
        <ele>143.5</ele>
        <time>2024-03-21T12:51:31Z</time>
      </trkpt>
      <trkpt lat="43.6431" lon="3.3637">
        <ele>143.6</ele>
        <time>2024-03-21T12:51:32Z</time>
      </trkpt>
      <trkpt lat="43.6431" lon="3.36367">
        <ele>143.7</ele>
        <time>2024-03-21T12:51:33Z</time>
      </trkpt>
      <trkpt lat="43.64311" lon="3.36364">
        <ele>143.7</ele>
        <time>2024-03-21T12:51:34Z</time>
      </trkpt>
      <trkpt lat="43.64313" lon="3.36356">
        <ele>144</ele>
        <time>2024-03-21T12:51:36Z</time>
      </trkpt>
      <trkpt lat="43.64314" lon="3.36353">
        <ele>144</ele>
        <time>2024-03-21T12:51:37Z</time>
      </trkpt>
      <trkpt lat="43.64317" lon="3.36351">
        <ele>143.9</ele>
        <time>2024-03-21T12:51:38Z</time>
      </trkpt>
      <trkpt lat="43.64321" lon="3.36351">
        <ele>143.6</ele>
        <time>2024-03-21T12:51:39Z</time>
      </trkpt>
      <trkpt lat="43.64325" lon="3.36352">
        <ele>143.3</ele>
        <time>2024-03-21T12:51:40Z</time>
      </trkpt>
      <trkpt lat="43.64331" lon="3.36348">
        <ele>142.7</ele>
        <time>2024-03-21T12:51:42Z</time>
      </trkpt>
      <trkpt lat="43.64335" lon="3.36347">
        <ele>142.3</ele>
        <time>2024-03-21T12:51:43Z</time>
      </trkpt>
      <trkpt lat="43.64339" lon="3.36343">
        <ele>141.9</ele>
        <time>2024-03-21T12:51:44Z</time>
      </trkpt>
      <trkpt lat="43.64341" lon="3.36338">
        <ele>141.6</ele>
        <time>2024-03-21T12:51:45Z</time>
      </trkpt>
      <trkpt lat="43.64343" lon="3.36331">
        <ele>141.4</ele>
        <time>2024-03-21T12:51:46Z</time>
      </trkpt>
      <trkpt lat="43.64346" lon="3.36325">
        <ele>141.3</ele>
        <time>2024-03-21T12:51:47Z</time>
      </trkpt>
      <trkpt lat="43.64349" lon="3.3632">
        <ele>141.1</ele>
        <time>2024-03-21T12:51:48Z</time>
      </trkpt>
      <trkpt lat="43.6435" lon="3.36315">
        <ele>141.1</ele>
        <time>2024-03-21T12:51:49Z</time>
      </trkpt>
      <trkpt lat="43.64352" lon="3.36311">
        <ele>140.9</ele>
        <time>2024-03-21T12:51:50Z</time>
      </trkpt>
      <trkpt lat="43.64358" lon="3.36303">
        <ele>140.4</ele>
        <time>2024-03-21T12:51:52Z</time>
      </trkpt>
      <trkpt lat="43.64363" lon="3.36299">
        <ele>140.1</ele>
        <time>2024-03-21T12:51:53Z</time>
      </trkpt>
      <trkpt lat="43.64368" lon="3.36297">
        <ele>139.9</ele>
        <time>2024-03-21T12:51:54Z</time>
      </trkpt>
      <trkpt lat="43.64372" lon="3.36295">
        <ele>139.7</ele>
        <time>2024-03-21T12:51:55Z</time>
      </trkpt>
      <trkpt lat="43.64377" lon="3.36294">
        <ele>139.5</ele>
        <time>2024-03-21T12:51:56Z</time>
      </trkpt>
      <trkpt lat="43.6438" lon="3.36293">
        <ele>139.4</ele>
        <time>2024-03-21T12:51:57Z</time>
      </trkpt>
      <trkpt lat="43.64383" lon="3.3629">
        <ele>139.4</ele>
        <time>2024-03-21T12:51:58Z</time>
      </trkpt>
      <trkpt lat="43.64387" lon="3.36284">
        <ele>139.6</ele>
        <time>2024-03-21T12:52:00Z</time>
      </trkpt>
      <trkpt lat="43.64388" lon="3.36279">
        <ele>139.9</ele>
        <time>2024-03-21T12:52:01Z</time>
      </trkpt>
      <trkpt lat="43.64391" lon="3.36274">
        <ele>140.1</ele>
        <time>2024-03-21T12:52:02Z</time>
      </trkpt>
      <trkpt lat="43.64393" lon="3.36268">
        <ele>140.4</ele>
        <time>2024-03-21T12:52:03Z</time>
      </trkpt>
      <trkpt lat="43.64394" lon="3.36263">
        <ele>140.6</ele>
        <time>2024-03-21T12:52:04Z</time>
      </trkpt>
      <trkpt lat="43.64398" lon="3.36253">
        <ele>140.8</ele>
        <time>2024-03-21T12:52:06Z</time>
      </trkpt>
      <trkpt lat="43.64399" lon="3.36248">
        <ele>141</ele>
        <time>2024-03-21T12:52:07Z</time>
      </trkpt>
      <trkpt lat="43.64398" lon="3.36242">
        <ele>141.2</ele>
        <time>2024-03-21T12:52:08Z</time>
      </trkpt>
      <trkpt lat="43.64395" lon="3.36239">
        <ele>141.6</ele>
        <time>2024-03-21T12:52:09Z</time>
      </trkpt>
      <trkpt lat="43.64393" lon="3.36236">
        <ele>142</ele>
        <time>2024-03-21T12:52:10Z</time>
      </trkpt>
      <trkpt lat="43.64391" lon="3.36231">
        <ele>142.4</ele>
        <time>2024-03-21T12:52:11Z</time>
      </trkpt>
      <trkpt lat="43.64387" lon="3.36223">
        <ele>143.1</ele>
        <time>2024-03-21T12:52:13Z</time>
      </trkpt>
      <trkpt lat="43.64384" lon="3.36218">
        <ele>143.4</ele>
        <time>2024-03-21T12:52:14Z</time>
      </trkpt>
      <trkpt lat="43.6438" lon="3.36214">
        <ele>143.9</ele>
        <time>2024-03-21T12:52:16Z</time>
      </trkpt>
      <trkpt lat="43.6438" lon="3.36211">
        <ele>144</ele>
        <time>2024-03-21T12:52:17Z</time>
      </trkpt>
      <trkpt lat="43.64382" lon="3.36205">
        <ele>144</ele>
        <time>2024-03-21T12:52:19Z</time>
      </trkpt>
      <trkpt lat="43.64383" lon="3.36201">
        <ele>143.9</ele>
        <time>2024-03-21T12:52:20Z</time>
      </trkpt>
      <trkpt lat="43.64383" lon="3.36195">
        <ele>144</ele>
        <time>2024-03-21T12:52:21Z</time>
      </trkpt>
      <trkpt lat="43.64382" lon="3.36191">
        <ele>144.8</ele>
        <time>2024-03-21T12:52:22Z</time>
      </trkpt>
      <trkpt lat="43.64382" lon="3.36188">
        <ele>145.3</ele>
        <time>2024-03-21T12:52:23Z</time>
      </trkpt>
      <trkpt lat="43.6438" lon="3.36185">
        <ele>146.1</ele>
        <time>2024-03-21T12:52:24Z</time>
      </trkpt>
      <trkpt lat="43.64377" lon="3.36181">
        <ele>147.1</ele>
        <time>2024-03-21T12:52:25Z</time>
      </trkpt>
      <trkpt lat="43.64371" lon="3.36177">
        <ele>148.6</ele>
        <time>2024-03-21T12:52:27Z</time>
      </trkpt>
      <trkpt lat="43.6437" lon="3.36175">
        <ele>148.9</ele>
        <time>2024-03-21T12:52:28Z</time>
      </trkpt>
      <trkpt lat="43.64369" lon="3.36172">
        <ele>149.5</ele>
        <time>2024-03-21T12:52:29Z</time>
      </trkpt>
      <trkpt lat="43.64369" lon="3.36167">
        <ele>150.1</ele>
        <time>2024-03-21T12:52:31Z</time>
      </trkpt>
      <trkpt lat="43.6437" lon="3.36164">
        <ele>150.2</ele>
        <time>2024-03-21T12:52:32Z</time>
      </trkpt>
      <trkpt lat="43.64372" lon="3.3616">
        <ele>150.3</ele>
        <time>2024-03-21T12:52:33Z</time>
      </trkpt>
      <trkpt lat="43.64374" lon="3.36159">
        <ele>150.2</ele>
        <time>2024-03-21T12:52:34Z</time>
      </trkpt>
      <trkpt lat="43.64377" lon="3.36158">
        <ele>149.9</ele>
        <time>2024-03-21T12:52:35Z</time>
      </trkpt>
      <trkpt lat="43.64381" lon="3.36157">
        <ele>149.5</ele>
        <time>2024-03-21T12:52:36Z</time>
      </trkpt>
      <trkpt lat="43.64384" lon="3.36154">
        <ele>149.4</ele>
        <time>2024-03-21T12:52:37Z</time>
      </trkpt>
      <trkpt lat="43.64385" lon="3.36149">
        <ele>149.7</ele>
        <time>2024-03-21T12:52:38Z</time>
      </trkpt>
      <trkpt lat="43.64386" lon="3.36143">
        <ele>150</ele>
        <time>2024-03-21T12:52:39Z</time>
      </trkpt>
      <trkpt lat="43.64385" lon="3.36137">
        <ele>150.6</ele>
        <time>2024-03-21T12:52:40Z</time>
      </trkpt>
      <trkpt lat="43.64384" lon="3.36132">
        <ele>151</ele>
        <time>2024-03-21T12:52:41Z</time>
      </trkpt>
      <trkpt lat="43.64384" lon="3.36129">
        <ele>151.2</ele>
        <time>2024-03-21T12:52:42Z</time>
      </trkpt>
      <trkpt lat="43.64385" lon="3.36126">
        <ele>151.3</ele>
        <time>2024-03-21T12:52:43Z</time>
      </trkpt>
      <trkpt lat="43.64395" lon="3.36116">
        <ele>150.9</ele>
        <time>2024-03-21T12:52:48Z</time>
      </trkpt>
      <trkpt lat="43.64397" lon="3.36113">
        <ele>151</ele>
        <time>2024-03-21T12:52:49Z</time>
      </trkpt>
      <trkpt lat="43.644" lon="3.36112">
        <ele>150.7</ele>
        <time>2024-03-21T12:52:50Z</time>
      </trkpt>
      <trkpt lat="43.64402" lon="3.36111">
        <ele>150.6</ele>
        <time>2024-03-21T12:52:51Z</time>
      </trkpt>
      <trkpt lat="43.64405" lon="3.3611">
        <ele>150.4</ele>
        <time>2024-03-21T12:52:52Z</time>
      </trkpt>
      <trkpt lat="43.64409" lon="3.36108">
        <ele>150.1</ele>
        <time>2024-03-21T12:52:54Z</time>
      </trkpt>
      <trkpt lat="43.64411" lon="3.36106">
        <ele>150.1</ele>
        <time>2024-03-21T12:52:55Z</time>
      </trkpt>
      <trkpt lat="43.64413" lon="3.36105">
        <ele>150</ele>
        <time>2024-03-21T12:52:56Z</time>
      </trkpt>
      <trkpt lat="43.64416" lon="3.36103">
        <ele>149.9</ele>
        <time>2024-03-21T12:52:57Z</time>
      </trkpt>
      <trkpt lat="43.64418" lon="3.36101">
        <ele>150</ele>
        <time>2024-03-21T12:52:58Z</time>
      </trkpt>
      <trkpt lat="43.64421" lon="3.36099">
        <ele>150</ele>
        <time>2024-03-21T12:52:59Z</time>
      </trkpt>
      <trkpt lat="43.64423" lon="3.36096">
        <ele>150.2</ele>
        <time>2024-03-21T12:53:00Z</time>
      </trkpt>
      <trkpt lat="43.64426" lon="3.36094">
        <ele>150.2</ele>
        <time>2024-03-21T12:53:01Z</time>
      </trkpt>
      <trkpt lat="43.64428" lon="3.36091">
        <ele>150.4</ele>
        <time>2024-03-21T12:53:02Z</time>
      </trkpt>
      <trkpt lat="43.64433" lon="3.36086">
        <ele>150.5</ele>
        <time>2024-03-21T12:53:04Z</time>
      </trkpt>
      <trkpt lat="43.64439" lon="3.36077">
        <ele>150.8</ele>
        <time>2024-03-21T12:53:07Z</time>
      </trkpt>
      <trkpt lat="43.64443" lon="3.36076">
        <ele>150.6</ele>
        <time>2024-03-21T12:53:08Z</time>
      </trkpt>
      <trkpt lat="43.64447" lon="3.36076">
        <ele>150.3</ele>
        <time>2024-03-21T12:53:09Z</time>
      </trkpt>
      <trkpt lat="43.64455" lon="3.36072">
        <ele>150.1</ele>
        <time>2024-03-21T12:53:11Z</time>
      </trkpt>
      <trkpt lat="43.64459" lon="3.36071">
        <ele>149.8</ele>
        <time>2024-03-21T12:53:12Z</time>
      </trkpt>
      <trkpt lat="43.64462" lon="3.36069">
        <ele>149.8</ele>
        <time>2024-03-21T12:53:13Z</time>
      </trkpt>
      <trkpt lat="43.64464" lon="3.36068">
        <ele>149.7</ele>
        <time>2024-03-21T12:53:14Z</time>
      </trkpt>
      <trkpt lat="43.64467" lon="3.36066">
        <ele>149.6</ele>
        <time>2024-03-21T12:53:15Z</time>
      </trkpt>
      <trkpt lat="43.64469" lon="3.36064">
        <ele>149.6</ele>
        <time>2024-03-21T12:53:16Z</time>
      </trkpt>
      <trkpt lat="43.64472" lon="3.36063">
        <ele>149.5</ele>
        <time>2024-03-21T12:53:17Z</time>
      </trkpt>
      <trkpt lat="43.64476" lon="3.3606">
        <ele>149.4</ele>
        <time>2024-03-21T12:53:18Z</time>
      </trkpt>
      <trkpt lat="43.64479" lon="3.36058">
        <ele>149.3</ele>
        <time>2024-03-21T12:53:19Z</time>
      </trkpt>
      <trkpt lat="43.64489" lon="3.36052">
        <ele>149</ele>
        <time>2024-03-21T12:53:21Z</time>
      </trkpt>
      <trkpt lat="43.64501" lon="3.36044">
        <ele>148.8</ele>
        <time>2024-03-21T12:53:23Z</time>
      </trkpt>
      <trkpt lat="43.64513" lon="3.36038">
        <ele>148.3</ele>
        <time>2024-03-21T12:53:25Z</time>
      </trkpt>
      <trkpt lat="43.6452" lon="3.36036">
        <ele>148</ele>
        <time>2024-03-21T12:53:26Z</time>
      </trkpt>
      <trkpt lat="43.64532" lon="3.3603">
        <ele>147.7</ele>
        <time>2024-03-21T12:53:28Z</time>
      </trkpt>
      <trkpt lat="43.64539" lon="3.36028">
        <ele>147.6</ele>
        <time>2024-03-21T12:53:29Z</time>
      </trkpt>
      <trkpt lat="43.64553" lon="3.36028">
        <ele>147.1</ele>
        <time>2024-03-21T12:53:31Z</time>
      </trkpt>
      <trkpt lat="43.6456" lon="3.36027">
        <ele>146.7</ele>
        <time>2024-03-21T12:53:32Z</time>
      </trkpt>
      <trkpt lat="43.64568" lon="3.36025">
        <ele>146.1</ele>
        <time>2024-03-21T12:53:33Z</time>
      </trkpt>
      <trkpt lat="43.64575" lon="3.36022">
        <ele>145.7</ele>
        <time>2024-03-21T12:53:34Z</time>
      </trkpt>
      <trkpt lat="43.64582" lon="3.3602">
        <ele>145.4</ele>
        <time>2024-03-21T12:53:35Z</time>
      </trkpt>
      <trkpt lat="43.64588" lon="3.36022">
        <ele>144.7</ele>
        <time>2024-03-21T12:53:36Z</time>
      </trkpt>
      <trkpt lat="43.64592" lon="3.36024">
        <ele>144.2</ele>
        <time>2024-03-21T12:53:37Z</time>
      </trkpt>
      <trkpt lat="43.64595" lon="3.36026">
        <ele>143.8</ele>
        <time>2024-03-21T12:53:38Z</time>
      </trkpt>
      <trkpt lat="43.64598" lon="3.36032">
        <ele>143.3</ele>
        <time>2024-03-21T12:53:40Z</time>
      </trkpt>
      <trkpt lat="43.64601" lon="3.36037">
        <ele>142.8</ele>
        <time>2024-03-21T12:53:41Z</time>
      </trkpt>
      <trkpt lat="43.64605" lon="3.36043">
        <ele>142.1</ele>
        <time>2024-03-21T12:53:42Z</time>
      </trkpt>
      <trkpt lat="43.64609" lon="3.36045">
        <ele>141.6</ele>
        <time>2024-03-21T12:53:43Z</time>
      </trkpt>
      <trkpt lat="43.64612" lon="3.36045">
        <ele>141.4</ele>
        <time>2024-03-21T12:53:44Z</time>
      </trkpt>
      <trkpt lat="43.64616" lon="3.36039">
        <ele>141.6</ele>
        <time>2024-03-21T12:53:46Z</time>
      </trkpt>
      <trkpt lat="43.64619" lon="3.36037">
        <ele>141.7</ele>
        <time>2024-03-21T12:53:47Z</time>
      </trkpt>
      <trkpt lat="43.64623" lon="3.36033">
        <ele>141.8</ele>
        <time>2024-03-21T12:53:48Z</time>
      </trkpt>
      <trkpt lat="43.64629" lon="3.36023">
        <ele>142.1</ele>
        <time>2024-03-21T12:53:50Z</time>
      </trkpt>
      <trkpt lat="43.64631" lon="3.36018">
        <ele>142.1</ele>
        <time>2024-03-21T12:53:51Z</time>
      </trkpt>
      <trkpt lat="43.64637" lon="3.3601">
        <ele>142</ele>
        <time>2024-03-21T12:53:53Z</time>
      </trkpt>
      <trkpt lat="43.64645" lon="3.36004">
        <ele>142.6</ele>
        <time>2024-03-21T12:53:55Z</time>
      </trkpt>
      <trkpt lat="43.64649" lon="3.36002">
        <ele>143</ele>
        <time>2024-03-21T12:53:56Z</time>
      </trkpt>
      <trkpt lat="43.64655" lon="3.35998">
        <ele>143.9</ele>
        <time>2024-03-21T12:53:58Z</time>
      </trkpt>
      <trkpt lat="43.64659" lon="3.35997">
        <ele>144.3</ele>
        <time>2024-03-21T12:53:59Z</time>
      </trkpt>
      <trkpt lat="43.64663" lon="3.35997">
        <ele>144.7</ele>
        <time>2024-03-21T12:54:00Z</time>
      </trkpt>
      <trkpt lat="43.64666" lon="3.36">
        <ele>144.9</ele>
        <time>2024-03-21T12:54:01Z</time>
      </trkpt>
      <trkpt lat="43.6467" lon="3.36008">
        <ele>144.4</ele>
        <time>2024-03-21T12:54:03Z</time>
      </trkpt>
      <trkpt lat="43.64671" lon="3.36012">
        <ele>144.1</ele>
        <time>2024-03-21T12:54:04Z</time>
      </trkpt>
      <trkpt lat="43.64675" lon="3.36022">
        <ele>143.4</ele>
        <time>2024-03-21T12:54:06Z</time>
      </trkpt>
      <trkpt lat="43.64677" lon="3.36032">
        <ele>142.8</ele>
        <time>2024-03-21T12:54:08Z</time>
      </trkpt>
      <trkpt lat="43.64679" lon="3.36044">
        <ele>142.4</ele>
        <time>2024-03-21T12:54:10Z</time>
      </trkpt>
      <trkpt lat="43.64679" lon="3.36049">
        <ele>142.2</ele>
        <time>2024-03-21T12:54:11Z</time>
      </trkpt>
      <trkpt lat="43.64681" lon="3.36052">
        <ele>142.1</ele>
        <time>2024-03-21T12:54:12Z</time>
      </trkpt>
      <trkpt lat="43.64684" lon="3.36053">
        <ele>142.1</ele>
        <time>2024-03-21T12:54:13Z</time>
      </trkpt>
      <trkpt lat="43.64688" lon="3.36054">
        <ele>142.1</ele>
        <time>2024-03-21T12:54:14Z</time>
      </trkpt>
      <trkpt lat="43.64692" lon="3.36056">
        <ele>142</ele>
        <time>2024-03-21T12:54:15Z</time>
      </trkpt>
      <trkpt lat="43.647" lon="3.36064">
        <ele>141.3</ele>
        <time>2024-03-21T12:54:17Z</time>
      </trkpt>
      <trkpt lat="43.64704" lon="3.36067">
        <ele>141</ele>
        <time>2024-03-21T12:54:18Z</time>
      </trkpt>
      <trkpt lat="43.64708" lon="3.36072">
        <ele>140.6</ele>
        <time>2024-03-21T12:54:19Z</time>
      </trkpt>
      <trkpt lat="43.64714" lon="3.36082">
        <ele>140.1</ele>
        <time>2024-03-21T12:54:21Z</time>
      </trkpt>
      <trkpt lat="43.64718" lon="3.36086">
        <ele>139.9</ele>
        <time>2024-03-21T12:54:22Z</time>
      </trkpt>
      <trkpt lat="43.64722" lon="3.36089">
        <ele>139.8</ele>
        <time>2024-03-21T12:54:23Z</time>
      </trkpt>
      <trkpt lat="43.64725" lon="3.36095">
        <ele>139.5</ele>
        <time>2024-03-21T12:54:24Z</time>
      </trkpt>
      <trkpt lat="43.64729" lon="3.36098">
        <ele>139.2</ele>
        <time>2024-03-21T12:54:25Z</time>
      </trkpt>
      <trkpt lat="43.64733" lon="3.36098">
        <ele>139.1</ele>
        <time>2024-03-21T12:54:26Z</time>
      </trkpt>
      <trkpt lat="43.64736" lon="3.36095">
        <ele>139.1</ele>
        <time>2024-03-21T12:54:27Z</time>
      </trkpt>
      <trkpt lat="43.64739" lon="3.36091">
        <ele>139.1</ele>
        <time>2024-03-21T12:54:28Z</time>
      </trkpt>
      <trkpt lat="43.64745" lon="3.36077">
        <ele>139.4</ele>
        <time>2024-03-21T12:54:30Z</time>
      </trkpt>
      <trkpt lat="43.64748" lon="3.36071">
        <ele>139.5</ele>
        <time>2024-03-21T12:54:31Z</time>
      </trkpt>
      <trkpt lat="43.64752" lon="3.36067">
        <ele>139.4</ele>
        <time>2024-03-21T12:54:32Z</time>
      </trkpt>
      <trkpt lat="43.64756" lon="3.36062">
        <ele>139.3</ele>
        <time>2024-03-21T12:54:33Z</time>
      </trkpt>
      <trkpt lat="43.6476" lon="3.36059">
        <ele>139.2</ele>
        <time>2024-03-21T12:54:34Z</time>
      </trkpt>
      <trkpt lat="43.64767" lon="3.36052">
        <ele>138.9</ele>
        <time>2024-03-21T12:54:36Z</time>
      </trkpt>
      <trkpt lat="43.64769" lon="3.36048">
        <ele>138.9</ele>
        <time>2024-03-21T12:54:37Z</time>
      </trkpt>
      <trkpt lat="43.64771" lon="3.36045">
        <ele>138.9</ele>
        <time>2024-03-21T12:54:38Z</time>
      </trkpt>
      <trkpt lat="43.64772" lon="3.36042">
        <ele>138.9</ele>
        <time>2024-03-21T12:54:39Z</time>
      </trkpt>
      <trkpt lat="43.64773" lon="3.36041">
        <ele>138.9</ele>
        <time>2024-03-21T12:54:40Z</time>
      </trkpt>
      <trkpt lat="43.64774" lon="3.36041">
        <ele>138.8</ele>
        <time>2024-03-21T12:54:41Z</time>
      </trkpt>
      <trkpt lat="43.64777" lon="3.36042">
        <ele>138.5</ele>
        <time>2024-03-21T12:54:42Z</time>
      </trkpt>
      <trkpt lat="43.6478" lon="3.3604">
        <ele>138.4</ele>
        <time>2024-03-21T12:54:43Z</time>
      </trkpt>
      <trkpt lat="43.64782" lon="3.36038">
        <ele>138.4</ele>
        <time>2024-03-21T12:54:44Z</time>
      </trkpt>
      <trkpt lat="43.64785" lon="3.36033">
        <ele>138.3</ele>
        <time>2024-03-21T12:54:45Z</time>
      </trkpt>
      <trkpt lat="43.64789" lon="3.36021">
        <ele>138.5</ele>
        <time>2024-03-21T12:54:47Z</time>
      </trkpt>
      <trkpt lat="43.64791" lon="3.36014">
        <ele>138.6</ele>
        <time>2024-03-21T12:54:48Z</time>
      </trkpt>
      <trkpt lat="43.64793" lon="3.36008">
        <ele>138.5</ele>
        <time>2024-03-21T12:54:49Z</time>
      </trkpt>
      <trkpt lat="43.64795" lon="3.36003">
        <ele>138.4</ele>
        <time>2024-03-21T12:54:50Z</time>
      </trkpt>
      <trkpt lat="43.64797" lon="3.35997">
        <ele>138.4</ele>
        <time>2024-03-21T12:54:51Z</time>
      </trkpt>
      <trkpt lat="43.64805" lon="3.35981">
        <ele>138.4</ele>
        <time>2024-03-21T12:54:55Z</time>
      </trkpt>
      <trkpt lat="43.64808" lon="3.35976">
        <ele>138.6</ele>
        <time>2024-03-21T12:54:56Z</time>
      </trkpt>
      <trkpt lat="43.64811" lon="3.35972">
        <ele>138.6</ele>
        <time>2024-03-21T12:54:57Z</time>
      </trkpt>
      <trkpt lat="43.64813" lon="3.35968">
        <ele>138.7</ele>
        <time>2024-03-21T12:54:58Z</time>
      </trkpt>
      <trkpt lat="43.64817" lon="3.35958">
        <ele>139</ele>
        <time>2024-03-21T12:55:00Z</time>
      </trkpt>
      <trkpt lat="43.64818" lon="3.35954">
        <ele>139.1</ele>
        <time>2024-03-21T12:55:01Z</time>
      </trkpt>
      <trkpt lat="43.64819" lon="3.35951">
        <ele>139.2</ele>
        <time>2024-03-21T12:55:02Z</time>
      </trkpt>
      <trkpt lat="43.6482" lon="3.35947">
        <ele>139.3</ele>
        <time>2024-03-21T12:55:03Z</time>
      </trkpt>
      <trkpt lat="43.6482" lon="3.35945">
        <ele>139.4</ele>
        <time>2024-03-21T12:55:04Z</time>
      </trkpt>
      <trkpt lat="43.64821" lon="3.35941">
        <ele>139.5</ele>
        <time>2024-03-21T12:55:05Z</time>
      </trkpt>
      <trkpt lat="43.64823" lon="3.35938">
        <ele>139.3</ele>
        <time>2024-03-21T12:55:06Z</time>
      </trkpt>
      <trkpt lat="43.64827" lon="3.35934">
        <ele>139.1</ele>
        <time>2024-03-21T12:55:07Z</time>
      </trkpt>
      <trkpt lat="43.6483" lon="3.3593">
        <ele>138.9</ele>
        <time>2024-03-21T12:55:08Z</time>
      </trkpt>
      <trkpt lat="43.64832" lon="3.35925">
        <ele>138.8</ele>
        <time>2024-03-21T12:55:09Z</time>
      </trkpt>
      <trkpt lat="43.64834" lon="3.35921">
        <ele>138.8</ele>
        <time>2024-03-21T12:55:10Z</time>
      </trkpt>
      <trkpt lat="43.64837" lon="3.35916">
        <ele>138.8</ele>
        <time>2024-03-21T12:55:11Z</time>
      </trkpt>
      <trkpt lat="43.64839" lon="3.35912">
        <ele>138.9</ele>
        <time>2024-03-21T12:55:12Z</time>
      </trkpt>
      <trkpt lat="43.64841" lon="3.35909">
        <ele>138.9</ele>
        <time>2024-03-21T12:55:13Z</time>
      </trkpt>
      <trkpt lat="43.64843" lon="3.35905">
        <ele>139</ele>
        <time>2024-03-21T12:55:14Z</time>
      </trkpt>
      <trkpt lat="43.64845" lon="3.359">
        <ele>139.1</ele>
        <time>2024-03-21T12:55:15Z</time>
      </trkpt>
      <trkpt lat="43.64846" lon="3.35894">
        <ele>139.3</ele>
        <time>2024-03-21T12:55:16Z</time>
      </trkpt>
      <trkpt lat="43.64847" lon="3.35889">
        <ele>139.5</ele>
        <time>2024-03-21T12:55:17Z</time>
      </trkpt>
      <trkpt lat="43.64846" lon="3.35884">
        <ele>139.8</ele>
        <time>2024-03-21T12:55:18Z</time>
      </trkpt>
      <trkpt lat="43.64846" lon="3.35871">
        <ele>140.3</ele>
        <time>2024-03-21T12:55:21Z</time>
      </trkpt>
      <trkpt lat="43.64847" lon="3.35867">
        <ele>140.3</ele>
        <time>2024-03-21T12:55:22Z</time>
      </trkpt>
      <trkpt lat="43.64849" lon="3.35862">
        <ele>140.3</ele>
        <time>2024-03-21T12:55:23Z</time>
      </trkpt>
      <trkpt lat="43.64851" lon="3.35852">
        <ele>140</ele>
        <time>2024-03-21T12:55:25Z</time>
      </trkpt>
      <trkpt lat="43.64853" lon="3.35847">
        <ele>139.7</ele>
        <time>2024-03-21T12:55:26Z</time>
      </trkpt>
      <trkpt lat="43.64856" lon="3.35842">
        <ele>139.4</ele>
        <time>2024-03-21T12:55:27Z</time>
      </trkpt>
      <trkpt lat="43.64858" lon="3.35837">
        <ele>139.2</ele>
        <time>2024-03-21T12:55:28Z</time>
      </trkpt>
      <trkpt lat="43.64859" lon="3.35832">
        <ele>139.2</ele>
        <time>2024-03-21T12:55:29Z</time>
      </trkpt>
      <trkpt lat="43.64861" lon="3.35826">
        <ele>139.3</ele>
        <time>2024-03-21T12:55:30Z</time>
      </trkpt>
      <trkpt lat="43.64862" lon="3.35821">
        <ele>139.4</ele>
        <time>2024-03-21T12:55:31Z</time>
      </trkpt>
      <trkpt lat="43.64864" lon="3.35817">
        <ele>139.5</ele>
        <time>2024-03-21T12:55:32Z</time>
      </trkpt>
      <trkpt lat="43.64865" lon="3.35813">
        <ele>139.6</ele>
        <time>2024-03-21T12:55:33Z</time>
      </trkpt>
      <trkpt lat="43.64867" lon="3.35809">
        <ele>139.7</ele>
        <time>2024-03-21T12:55:34Z</time>
      </trkpt>
      <trkpt lat="43.64868" lon="3.35804">
        <ele>139.8</ele>
        <time>2024-03-21T12:55:35Z</time>
      </trkpt>
      <trkpt lat="43.64868" lon="3.358">
        <ele>139.8</ele>
        <time>2024-03-21T12:55:36Z</time>
      </trkpt>
      <trkpt lat="43.6487" lon="3.3579">
        <ele>139.7</ele>
        <time>2024-03-21T12:55:38Z</time>
      </trkpt>
      <trkpt lat="43.64871" lon="3.35783">
        <ele>139.6</ele>
        <time>2024-03-21T12:55:39Z</time>
      </trkpt>
      <trkpt lat="43.64873" lon="3.35771">
        <ele>139.7</ele>
        <time>2024-03-21T12:55:41Z</time>
      </trkpt>
      <trkpt lat="43.64874" lon="3.35766">
        <ele>139.7</ele>
        <time>2024-03-21T12:55:42Z</time>
      </trkpt>
      <trkpt lat="43.64875" lon="3.3576">
        <ele>139.8</ele>
        <time>2024-03-21T12:55:43Z</time>
      </trkpt>
      <trkpt lat="43.64876" lon="3.35755">
        <ele>139.9</ele>
        <time>2024-03-21T12:55:44Z</time>
      </trkpt>
      <trkpt lat="43.64877" lon="3.35752">
        <ele>140</ele>
        <time>2024-03-21T12:55:45Z</time>
      </trkpt>
      <trkpt lat="43.64877" lon="3.35749">
        <ele>140</ele>
        <time>2024-03-21T12:55:46Z</time>
      </trkpt>
      <trkpt lat="43.64879" lon="3.35745">
        <ele>140.1</ele>
        <time>2024-03-21T12:55:48Z</time>
      </trkpt>
      <trkpt lat="43.6488" lon="3.35744">
        <ele>140.1</ele>
        <time>2024-03-21T12:55:49Z</time>
      </trkpt>
      <trkpt lat="43.64881" lon="3.35742">
        <ele>140.1</ele>
        <time>2024-03-21T12:55:50Z</time>
      </trkpt>
      <trkpt lat="43.64883" lon="3.3574">
        <ele>140.1</ele>
        <time>2024-03-21T12:55:51Z</time>
      </trkpt>
      <trkpt lat="43.64885" lon="3.35739">
        <ele>140.1</ele>
        <time>2024-03-21T12:55:52Z</time>
      </trkpt>
      <trkpt lat="43.64886" lon="3.35737">
        <ele>140</ele>
        <time>2024-03-21T12:55:53Z</time>
      </trkpt>
      <trkpt lat="43.64888" lon="3.35734">
        <ele>140</ele>
        <time>2024-03-21T12:55:54Z</time>
      </trkpt>
      <trkpt lat="43.6489" lon="3.35732">
        <ele>140</ele>
        <time>2024-03-21T12:55:55Z</time>
      </trkpt>
      <trkpt lat="43.64892" lon="3.35729">
        <ele>140</ele>
        <time>2024-03-21T12:55:56Z</time>
      </trkpt>
      <trkpt lat="43.64895" lon="3.35727">
        <ele>140</ele>
        <time>2024-03-21T12:55:57Z</time>
      </trkpt>
      <trkpt lat="43.64899" lon="3.35721">
        <ele>140</ele>
        <time>2024-03-21T12:55:59Z</time>
      </trkpt>
      <trkpt lat="43.64902" lon="3.35718">
        <ele>140.1</ele>
        <time>2024-03-21T12:56:00Z</time>
      </trkpt>
      <trkpt lat="43.64905" lon="3.35714">
        <ele>140.1</ele>
        <time>2024-03-21T12:56:01Z</time>
      </trkpt>
      <trkpt lat="43.64908" lon="3.35709">
        <ele>140.1</ele>
        <time>2024-03-21T12:56:02Z</time>
      </trkpt>
      <trkpt lat="43.6491" lon="3.35705">
        <ele>140.1</ele>
        <time>2024-03-21T12:56:03Z</time>
      </trkpt>
      <trkpt lat="43.64913" lon="3.35702">
        <ele>140.1</ele>
        <time>2024-03-21T12:56:04Z</time>
      </trkpt>
      <trkpt lat="43.64916" lon="3.35698">
        <ele>140</ele>
        <time>2024-03-21T12:56:05Z</time>
      </trkpt>
      <trkpt lat="43.64918" lon="3.35695">
        <ele>140</ele>
        <time>2024-03-21T12:56:06Z</time>
      </trkpt>
      <trkpt lat="43.64921" lon="3.35691">
        <ele>140.1</ele>
        <time>2024-03-21T12:56:07Z</time>
      </trkpt>
      <trkpt lat="43.64924" lon="3.35688">
        <ele>140.2</ele>
        <time>2024-03-21T12:56:08Z</time>
      </trkpt>
      <trkpt lat="43.64926" lon="3.35685">
        <ele>140.2</ele>
        <time>2024-03-21T12:56:09Z</time>
      </trkpt>
      <trkpt lat="43.64929" lon="3.35683">
        <ele>140.3</ele>
        <time>2024-03-21T12:56:10Z</time>
      </trkpt>
      <trkpt lat="43.64933" lon="3.3568">
        <ele>140.3</ele>
        <time>2024-03-21T12:56:11Z</time>
      </trkpt>
      <trkpt lat="43.64939" lon="3.35676">
        <ele>140.3</ele>
        <time>2024-03-21T12:56:13Z</time>
      </trkpt>
      <trkpt lat="43.64942" lon="3.35675">
        <ele>140.3</ele>
        <time>2024-03-21T12:56:14Z</time>
      </trkpt>
      <trkpt lat="43.6495" lon="3.35673">
        <ele>140.2</ele>
        <time>2024-03-21T12:56:16Z</time>
      </trkpt>
      <trkpt lat="43.64953" lon="3.35672">
        <ele>140.1</ele>
        <time>2024-03-21T12:56:17Z</time>
      </trkpt>
      <trkpt lat="43.64956" lon="3.35672">
        <ele>140.1</ele>
        <time>2024-03-21T12:56:18Z</time>
      </trkpt>
      <trkpt lat="43.64959" lon="3.3567">
        <ele>140.1</ele>
        <time>2024-03-21T12:56:19Z</time>
      </trkpt>
      <trkpt lat="43.64963" lon="3.35668">
        <ele>140</ele>
        <time>2024-03-21T12:56:20Z</time>
      </trkpt>
      <trkpt lat="43.64965" lon="3.35665">
        <ele>140</ele>
        <time>2024-03-21T12:56:21Z</time>
      </trkpt>
      <trkpt lat="43.64967" lon="3.35661">
        <ele>140</ele>
        <time>2024-03-21T12:56:22Z</time>
      </trkpt>
      <trkpt lat="43.64968" lon="3.35657">
        <ele>140</ele>
        <time>2024-03-21T12:56:23Z</time>
      </trkpt>
      <trkpt lat="43.64969" lon="3.35652">
        <ele>140</ele>
        <time>2024-03-21T12:56:24Z</time>
      </trkpt>
      <trkpt lat="43.64971" lon="3.35648">
        <ele>140</ele>
        <time>2024-03-21T12:56:25Z</time>
      </trkpt>
      <trkpt lat="43.64974" lon="3.35633">
        <ele>140</ele>
        <time>2024-03-21T12:56:28Z</time>
      </trkpt>
      <trkpt lat="43.64975" lon="3.35629">
        <ele>140</ele>
        <time>2024-03-21T12:56:29Z</time>
      </trkpt>
      <trkpt lat="43.64977" lon="3.35623">
        <ele>140</ele>
        <time>2024-03-21T12:56:30Z</time>
      </trkpt>
      <trkpt lat="43.64981" lon="3.35603">
        <ele>140.1</ele>
        <time>2024-03-21T12:56:34Z</time>
      </trkpt>
      <trkpt lat="43.64983" lon="3.35598">
        <ele>140.1</ele>
        <time>2024-03-21T12:56:35Z</time>
      </trkpt>
      <trkpt lat="43.64984" lon="3.35593">
        <ele>140.1</ele>
        <time>2024-03-21T12:56:36Z</time>
      </trkpt>
      <trkpt lat="43.64985" lon="3.35589">
        <ele>140.1</ele>
        <time>2024-03-21T12:56:37Z</time>
      </trkpt>
      <trkpt lat="43.64985" lon="3.35583">
        <ele>140.1</ele>
        <time>2024-03-21T12:56:38Z</time>
      </trkpt>
      <trkpt lat="43.64987" lon="3.35578">
        <ele>140</ele>
        <time>2024-03-21T12:56:39Z</time>
      </trkpt>
      <trkpt lat="43.6499" lon="3.35563">
        <ele>140.2</ele>
        <time>2024-03-21T12:56:42Z</time>
      </trkpt>
      <trkpt lat="43.64992" lon="3.35558">
        <ele>140.2</ele>
        <time>2024-03-21T12:56:43Z</time>
      </trkpt>
      <trkpt lat="43.64993" lon="3.35554">
        <ele>140.3</ele>
        <time>2024-03-21T12:56:44Z</time>
      </trkpt>
      <trkpt lat="43.64994" lon="3.35548">
        <ele>140.2</ele>
        <time>2024-03-21T12:56:45Z</time>
      </trkpt>
      <trkpt lat="43.64997" lon="3.35533">
        <ele>140.1</ele>
        <time>2024-03-21T12:56:48Z</time>
      </trkpt>
      <trkpt lat="43.64998" lon="3.35527">
        <ele>140.1</ele>
        <time>2024-03-21T12:56:49Z</time>
      </trkpt>
      <trkpt lat="43.64998" lon="3.35521">
        <ele>140.1</ele>
        <time>2024-03-21T12:56:50Z</time>
      </trkpt>
      <trkpt lat="43.64997" lon="3.35516">
        <ele>140.1</ele>
        <time>2024-03-21T12:56:51Z</time>
      </trkpt>
      <trkpt lat="43.64995" lon="3.35511">
        <ele>140.1</ele>
        <time>2024-03-21T12:56:52Z</time>
      </trkpt>
      <trkpt lat="43.64993" lon="3.35507">
        <ele>140.1</ele>
        <time>2024-03-21T12:56:53Z</time>
      </trkpt>
      <trkpt lat="43.6499" lon="3.35503">
        <ele>140</ele>
        <time>2024-03-21T12:56:54Z</time>
      </trkpt>
      <trkpt lat="43.64987" lon="3.355">
        <ele>140</ele>
        <time>2024-03-21T12:56:55Z</time>
      </trkpt>
      <trkpt lat="43.64975" lon="3.35494">
        <ele>139.8</ele>
        <time>2024-03-21T12:56:58Z</time>
      </trkpt>
      <trkpt lat="43.64971" lon="3.35491">
        <ele>139.7</ele>
        <time>2024-03-21T12:56:59Z</time>
      </trkpt>
      <trkpt lat="43.64967" lon="3.35489">
        <ele>139.8</ele>
        <time>2024-03-21T12:57:00Z</time>
      </trkpt>
      <trkpt lat="43.64955" lon="3.35486">
        <ele>140.1</ele>
        <time>2024-03-21T12:57:03Z</time>
      </trkpt>
      <trkpt lat="43.64952" lon="3.35484">
        <ele>140.2</ele>
        <time>2024-03-21T12:57:04Z</time>
      </trkpt>
      <trkpt lat="43.64948" lon="3.35483">
        <ele>140.3</ele>
        <time>2024-03-21T12:57:05Z</time>
      </trkpt>
      <trkpt lat="43.64942" lon="3.35479">
        <ele>140.3</ele>
        <time>2024-03-21T12:57:07Z</time>
      </trkpt>
      <trkpt lat="43.64938" lon="3.35477">
        <ele>140.4</ele>
        <time>2024-03-21T12:57:08Z</time>
      </trkpt>
      <trkpt lat="43.64932" lon="3.35471">
        <ele>140.4</ele>
        <time>2024-03-21T12:57:10Z</time>
      </trkpt>
      <trkpt lat="43.64928" lon="3.35463">
        <ele>140.6</ele>
        <time>2024-03-21T12:57:12Z</time>
      </trkpt>
      <trkpt lat="43.64922" lon="3.35453">
        <ele>140.8</ele>
        <time>2024-03-21T12:57:14Z</time>
      </trkpt>
      <trkpt lat="43.64919" lon="3.35449">
        <ele>140.9</ele>
        <time>2024-03-21T12:57:15Z</time>
      </trkpt>
      <trkpt lat="43.64917" lon="3.35444">
        <ele>141</ele>
        <time>2024-03-21T12:57:16Z</time>
      </trkpt>
      <trkpt lat="43.64915" lon="3.3544">
        <ele>140.8</ele>
        <time>2024-03-21T12:57:17Z</time>
      </trkpt>
      <trkpt lat="43.64912" lon="3.35436">
        <ele>140.7</ele>
        <time>2024-03-21T12:57:18Z</time>
      </trkpt>
      <trkpt lat="43.64911" lon="3.35431">
        <ele>140.5</ele>
        <time>2024-03-21T12:57:19Z</time>
      </trkpt>
      <trkpt lat="43.6491" lon="3.35425">
        <ele>140.3</ele>
        <time>2024-03-21T12:57:20Z</time>
      </trkpt>
      <trkpt lat="43.64911" lon="3.35419">
        <ele>140.1</ele>
        <time>2024-03-21T12:57:21Z</time>
      </trkpt>
      <trkpt lat="43.64913" lon="3.35414">
        <ele>140</ele>
        <time>2024-03-21T12:57:22Z</time>
      </trkpt>
      <trkpt lat="43.64919" lon="3.35406">
        <ele>140</ele>
        <time>2024-03-21T12:57:24Z</time>
      </trkpt>
      <trkpt lat="43.64923" lon="3.35403">
        <ele>140</ele>
        <time>2024-03-21T12:57:25Z</time>
      </trkpt>
      <trkpt lat="43.64927" lon="3.35399">
        <ele>140</ele>
        <time>2024-03-21T12:57:26Z</time>
      </trkpt>
      <trkpt lat="43.6493" lon="3.35394">
        <ele>140</ele>
        <time>2024-03-21T12:57:27Z</time>
      </trkpt>
      <trkpt lat="43.64934" lon="3.3539">
        <ele>140</ele>
        <time>2024-03-21T12:57:28Z</time>
      </trkpt>
      <trkpt lat="43.64938" lon="3.3538">
        <ele>139.8</ele>
        <time>2024-03-21T12:57:30Z</time>
      </trkpt>
      <trkpt lat="43.64939" lon="3.35374">
        <ele>139.6</ele>
        <time>2024-03-21T12:57:31Z</time>
      </trkpt>
      <trkpt lat="43.64941" lon="3.35369">
        <ele>139.4</ele>
        <time>2024-03-21T12:57:32Z</time>
      </trkpt>
      <trkpt lat="43.64942" lon="3.35363">
        <ele>139.2</ele>
        <time>2024-03-21T12:57:33Z</time>
      </trkpt>
      <trkpt lat="43.64942" lon="3.35357">
        <ele>139.2</ele>
        <time>2024-03-21T12:57:34Z</time>
      </trkpt>
      <trkpt lat="43.64943" lon="3.35352">
        <ele>139.4</ele>
        <time>2024-03-21T12:57:35Z</time>
      </trkpt>
      <trkpt lat="43.64943" lon="3.35347">
        <ele>139.5</ele>
        <time>2024-03-21T12:57:36Z</time>
      </trkpt>
      <trkpt lat="43.64941" lon="3.35337">
        <ele>139.9</ele>
        <time>2024-03-21T12:57:38Z</time>
      </trkpt>
      <trkpt lat="43.64939" lon="3.35332">
        <ele>140</ele>
        <time>2024-03-21T12:57:39Z</time>
      </trkpt>
      <trkpt lat="43.64933" lon="3.3532">
        <ele>139.7</ele>
        <time>2024-03-21T12:57:42Z</time>
      </trkpt>
      <trkpt lat="43.6493" lon="3.35317">
        <ele>139.7</ele>
        <time>2024-03-21T12:57:43Z</time>
      </trkpt>
      <trkpt lat="43.64924" lon="3.35309">
        <ele>139.8</ele>
        <time>2024-03-21T12:57:45Z</time>
      </trkpt>
      <trkpt lat="43.6492" lon="3.35301">
        <ele>139.9</ele>
        <time>2024-03-21T12:57:47Z</time>
      </trkpt>
      <trkpt lat="43.64918" lon="3.35296">
        <ele>140</ele>
        <time>2024-03-21T12:57:48Z</time>
      </trkpt>
      <trkpt lat="43.64917" lon="3.3529">
        <ele>140</ele>
        <time>2024-03-21T12:57:49Z</time>
      </trkpt>
      <trkpt lat="43.64916" lon="3.35283">
        <ele>140</ele>
        <time>2024-03-21T12:57:50Z</time>
      </trkpt>
      <trkpt lat="43.64916" lon="3.35276">
        <ele>140</ele>
        <time>2024-03-21T12:57:51Z</time>
      </trkpt>
      <trkpt lat="43.64917" lon="3.35269">
        <ele>140</ele>
        <time>2024-03-21T12:57:52Z</time>
      </trkpt>
      <trkpt lat="43.64917" lon="3.35264">
        <ele>140</ele>
        <time>2024-03-21T12:57:53Z</time>
      </trkpt>
      <trkpt lat="43.64918" lon="3.35258">
        <ele>140</ele>
        <time>2024-03-21T12:57:54Z</time>
      </trkpt>
      <trkpt lat="43.64919" lon="3.35253">
        <ele>139.9</ele>
        <time>2024-03-21T12:57:55Z</time>
      </trkpt>
      <trkpt lat="43.64923" lon="3.35243">
        <ele>139.7</ele>
        <time>2024-03-21T12:57:57Z</time>
      </trkpt>
      <trkpt lat="43.64923" lon="3.35238">
        <ele>139.7</ele>
        <time>2024-03-21T12:57:58Z</time>
      </trkpt>
      <trkpt lat="43.64924" lon="3.35233">
        <ele>139.6</ele>
        <time>2024-03-21T12:57:59Z</time>
      </trkpt>
      <trkpt lat="43.64924" lon="3.35223">
        <ele>139.5</ele>
        <time>2024-03-21T12:58:01Z</time>
      </trkpt>
      <trkpt lat="43.64925" lon="3.35217">
        <ele>139.4</ele>
        <time>2024-03-21T12:58:02Z</time>
      </trkpt>
      <trkpt lat="43.64925" lon="3.35205">
        <ele>139.4</ele>
        <time>2024-03-21T12:58:04Z</time>
      </trkpt>
      <trkpt lat="43.64924" lon="3.35199">
        <ele>139.5</ele>
        <time>2024-03-21T12:58:05Z</time>
      </trkpt>
      <trkpt lat="43.64922" lon="3.35194">
        <ele>139.6</ele>
        <time>2024-03-21T12:58:06Z</time>
      </trkpt>
      <trkpt lat="43.64919" lon="3.35191">
        <ele>139.7</ele>
        <time>2024-03-21T12:58:07Z</time>
      </trkpt>
      <trkpt lat="43.64915" lon="3.35188">
        <ele>139.8</ele>
        <time>2024-03-21T12:58:08Z</time>
      </trkpt>
      <trkpt lat="43.64912" lon="3.35186">
        <ele>139.7</ele>
        <time>2024-03-21T12:58:09Z</time>
      </trkpt>
      <trkpt lat="43.64908" lon="3.35185">
        <ele>139.8</ele>
        <time>2024-03-21T12:58:10Z</time>
      </trkpt>
      <trkpt lat="43.64904" lon="3.35183">
        <ele>139.8</ele>
        <time>2024-03-21T12:58:11Z</time>
      </trkpt>
      <trkpt lat="43.64901" lon="3.35181">
        <ele>139.8</ele>
        <time>2024-03-21T12:58:12Z</time>
      </trkpt>
      <trkpt lat="43.64897" lon="3.3518">
        <ele>139.8</ele>
        <time>2024-03-21T12:58:13Z</time>
      </trkpt>
      <trkpt lat="43.64894" lon="3.35177">
        <ele>139.9</ele>
        <time>2024-03-21T12:58:14Z</time>
      </trkpt>
      <trkpt lat="43.6489" lon="3.35175">
        <ele>140</ele>
        <time>2024-03-21T12:58:15Z</time>
      </trkpt>
      <trkpt lat="43.64884" lon="3.35171">
        <ele>140.2</ele>
        <time>2024-03-21T12:58:17Z</time>
      </trkpt>
      <trkpt lat="43.64881" lon="3.35167">
        <ele>140.3</ele>
        <time>2024-03-21T12:58:18Z</time>
      </trkpt>
      <trkpt lat="43.64879" lon="3.35164">
        <ele>140.3</ele>
        <time>2024-03-21T12:58:19Z</time>
      </trkpt>
      <trkpt lat="43.64877" lon="3.35159">
        <ele>140.3</ele>
        <time>2024-03-21T12:58:20Z</time>
      </trkpt>
      <trkpt lat="43.64875" lon="3.35155">
        <ele>140.3</ele>
        <time>2024-03-21T12:58:21Z</time>
      </trkpt>
      <trkpt lat="43.64871" lon="3.35145">
        <ele>140.1</ele>
        <time>2024-03-21T12:58:23Z</time>
      </trkpt>
      <trkpt lat="43.6487" lon="3.3514">
        <ele>140</ele>
        <time>2024-03-21T12:58:24Z</time>
      </trkpt>
      <trkpt lat="43.64868" lon="3.35135">
        <ele>140</ele>
        <time>2024-03-21T12:58:25Z</time>
      </trkpt>
      <trkpt lat="43.64865" lon="3.3512">
        <ele>139.9</ele>
        <time>2024-03-21T12:58:28Z</time>
      </trkpt>
      <trkpt lat="43.64865" lon="3.35114">
        <ele>139.9</ele>
        <time>2024-03-21T12:58:29Z</time>
      </trkpt>
      <trkpt lat="43.64866" lon="3.35109">
        <ele>139.8</ele>
        <time>2024-03-21T12:58:30Z</time>
      </trkpt>
      <trkpt lat="43.64867" lon="3.35103">
        <ele>139.8</ele>
        <time>2024-03-21T12:58:31Z</time>
      </trkpt>
      <trkpt lat="43.64869" lon="3.35093">
        <ele>139.7</ele>
        <time>2024-03-21T12:58:33Z</time>
      </trkpt>
      <trkpt lat="43.64871" lon="3.35088">
        <ele>139.6</ele>
        <time>2024-03-21T12:58:34Z</time>
      </trkpt>
      <trkpt lat="43.64873" lon="3.35078">
        <ele>139.7</ele>
        <time>2024-03-21T12:58:36Z</time>
      </trkpt>
      <trkpt lat="43.64874" lon="3.35074">
        <ele>139.7</ele>
        <time>2024-03-21T12:58:37Z</time>
      </trkpt>
      <trkpt lat="43.64874" lon="3.35064">
        <ele>139.9</ele>
        <time>2024-03-21T12:58:39Z</time>
      </trkpt>
      <trkpt lat="43.64872" lon="3.35059">
        <ele>140</ele>
        <time>2024-03-21T12:58:40Z</time>
      </trkpt>
      <trkpt lat="43.6487" lon="3.35055">
        <ele>140</ele>
        <time>2024-03-21T12:58:41Z</time>
      </trkpt>
      <trkpt lat="43.64867" lon="3.35051">
        <ele>140</ele>
        <time>2024-03-21T12:58:42Z</time>
      </trkpt>
      <trkpt lat="43.64859" lon="3.35045">
        <ele>140</ele>
        <time>2024-03-21T12:58:44Z</time>
      </trkpt>
      <trkpt lat="43.64855" lon="3.35044">
        <ele>140.1</ele>
        <time>2024-03-21T12:58:45Z</time>
      </trkpt>
      <trkpt lat="43.64851" lon="3.35042">
        <ele>140.2</ele>
        <time>2024-03-21T12:58:46Z</time>
      </trkpt>
      <trkpt lat="43.64848" lon="3.35042">
        <ele>140.2</ele>
        <time>2024-03-21T12:58:47Z</time>
      </trkpt>
      <trkpt lat="43.64844" lon="3.35041">
        <ele>140.3</ele>
        <time>2024-03-21T12:58:48Z</time>
      </trkpt>
      <trkpt lat="43.64836" lon="3.35041">
        <ele>140.5</ele>
        <time>2024-03-21T12:58:50Z</time>
      </trkpt>
      <trkpt lat="43.64833" lon="3.3504">
        <ele>140.6</ele>
        <time>2024-03-21T12:58:51Z</time>
      </trkpt>
      <trkpt lat="43.64829" lon="3.35041">
        <ele>140.6</ele>
        <time>2024-03-21T12:58:52Z</time>
      </trkpt>
      <trkpt lat="43.64825" lon="3.35041">
        <ele>140.7</ele>
        <time>2024-03-21T12:58:53Z</time>
      </trkpt>
      <trkpt lat="43.64822" lon="3.3504">
        <ele>140.7</ele>
        <time>2024-03-21T12:58:54Z</time>
      </trkpt>
      <trkpt lat="43.64816" lon="3.3504">
        <ele>140.8</ele>
        <time>2024-03-21T12:58:56Z</time>
      </trkpt>
      <trkpt lat="43.64812" lon="3.35041">
        <ele>140.9</ele>
        <time>2024-03-21T12:58:57Z</time>
      </trkpt>
      <trkpt lat="43.64806" lon="3.35041">
        <ele>141</ele>
        <time>2024-03-21T12:58:59Z</time>
      </trkpt>
      <trkpt lat="43.64802" lon="3.35042">
        <ele>141</ele>
        <time>2024-03-21T12:59:00Z</time>
      </trkpt>
      <trkpt lat="43.64789" lon="3.35042">
        <ele>141</ele>
        <time>2024-03-21T12:59:04Z</time>
      </trkpt>
      <trkpt lat="43.64786" lon="3.3504">
        <ele>141</ele>
        <time>2024-03-21T12:59:05Z</time>
      </trkpt>
      <trkpt lat="43.64782" lon="3.35038">
        <ele>141</ele>
        <time>2024-03-21T12:59:06Z</time>
      </trkpt>
      <trkpt lat="43.64779" lon="3.35036">
        <ele>141</ele>
        <time>2024-03-21T12:59:07Z</time>
      </trkpt>
      <trkpt lat="43.64776" lon="3.35033">
        <ele>141.1</ele>
        <time>2024-03-21T12:59:08Z</time>
      </trkpt>
      <trkpt lat="43.64772" lon="3.35031">
        <ele>141.2</ele>
        <time>2024-03-21T12:59:09Z</time>
      </trkpt>
      <trkpt lat="43.64769" lon="3.35029">
        <ele>141.3</ele>
        <time>2024-03-21T12:59:10Z</time>
      </trkpt>
      <trkpt lat="43.64766" lon="3.35026">
        <ele>141.4</ele>
        <time>2024-03-21T12:59:11Z</time>
      </trkpt>
      <trkpt lat="43.64762" lon="3.35024">
        <ele>141.6</ele>
        <time>2024-03-21T12:59:12Z</time>
      </trkpt>
      <trkpt lat="43.64759" lon="3.35022">
        <ele>141.7</ele>
        <time>2024-03-21T12:59:13Z</time>
      </trkpt>
      <trkpt lat="43.64755" lon="3.35022">
        <ele>141.8</ele>
        <time>2024-03-21T12:59:14Z</time>
      </trkpt>
      <trkpt lat="43.64747" lon="3.3502">
        <ele>142</ele>
        <time>2024-03-21T12:59:16Z</time>
      </trkpt>
      <trkpt lat="43.64744" lon="3.3502">
        <ele>142</ele>
        <time>2024-03-21T12:59:17Z</time>
      </trkpt>
      <trkpt lat="43.6474" lon="3.35019">
        <ele>142</ele>
        <time>2024-03-21T12:59:18Z</time>
      </trkpt>
      <trkpt lat="43.64737" lon="3.35018">
        <ele>142</ele>
        <time>2024-03-21T12:59:19Z</time>
      </trkpt>
      <trkpt lat="43.64729" lon="3.35014">
        <ele>142</ele>
        <time>2024-03-21T12:59:21Z</time>
      </trkpt>
      <trkpt lat="43.64723" lon="3.3501">
        <ele>142</ele>
        <time>2024-03-21T12:59:23Z</time>
      </trkpt>
      <trkpt lat="43.64717" lon="3.35004">
        <ele>142.2</ele>
        <time>2024-03-21T12:59:25Z</time>
      </trkpt>
      <trkpt lat="43.64715" lon="3.35001">
        <ele>142.3</ele>
        <time>2024-03-21T12:59:26Z</time>
      </trkpt>
      <trkpt lat="43.64702" lon="3.34988">
        <ele>142.8</ele>
        <time>2024-03-21T12:59:32Z</time>
      </trkpt>
      <trkpt lat="43.647" lon="3.34984">
        <ele>142.9</ele>
        <time>2024-03-21T12:59:34Z</time>
      </trkpt>
      <trkpt lat="43.647" lon="3.3498">
        <ele>142.9</ele>
        <time>2024-03-21T12:59:36Z</time>
      </trkpt>
      <trkpt lat="43.64705" lon="3.3496">
        <ele>143</ele>
        <time>2024-03-21T12:59:41Z</time>
      </trkpt>
      <trkpt lat="43.64706" lon="3.34954">
        <ele>143</ele>
        <time>2024-03-21T12:59:42Z</time>
      </trkpt>
      <trkpt lat="43.64708" lon="3.34949">
        <ele>143</ele>
        <time>2024-03-21T12:59:43Z</time>
      </trkpt>
      <trkpt lat="43.64709" lon="3.34943">
        <ele>143</ele>
        <time>2024-03-21T12:59:44Z</time>
      </trkpt>
      <trkpt lat="43.64711" lon="3.34938">
        <ele>143.1</ele>
        <time>2024-03-21T12:59:45Z</time>
      </trkpt>
      <trkpt lat="43.64712" lon="3.34933">
        <ele>143.2</ele>
        <time>2024-03-21T12:59:46Z</time>
      </trkpt>
      <trkpt lat="43.64713" lon="3.34927">
        <ele>143.2</ele>
        <time>2024-03-21T12:59:47Z</time>
      </trkpt>
      <trkpt lat="43.64715" lon="3.34922">
        <ele>143.2</ele>
        <time>2024-03-21T12:59:48Z</time>
      </trkpt>
      <trkpt lat="43.64717" lon="3.34912">
        <ele>143.4</ele>
        <time>2024-03-21T12:59:50Z</time>
      </trkpt>
      <trkpt lat="43.64719" lon="3.34907">
        <ele>143.5</ele>
        <time>2024-03-21T12:59:51Z</time>
      </trkpt>
      <trkpt lat="43.64719" lon="3.34901">
        <ele>143.7</ele>
        <time>2024-03-21T12:59:52Z</time>
      </trkpt>
      <trkpt lat="43.64721" lon="3.34891">
        <ele>144</ele>
        <time>2024-03-21T12:59:54Z</time>
      </trkpt>
      <trkpt lat="43.64722" lon="3.34887">
        <ele>144</ele>
        <time>2024-03-21T12:59:55Z</time>
      </trkpt>
      <trkpt lat="43.64725" lon="3.34872">
        <ele>143.9</ele>
        <time>2024-03-21T12:59:58Z</time>
      </trkpt>
      <trkpt lat="43.64726" lon="3.34868">
        <ele>143.9</ele>
        <time>2024-03-21T12:59:59Z</time>
      </trkpt>
      <trkpt lat="43.64727" lon="3.34863">
        <ele>143.8</ele>
        <time>2024-03-21T13:00:00Z</time>
      </trkpt>
      <trkpt lat="43.64727" lon="3.34858">
        <ele>143.9</ele>
        <time>2024-03-21T13:00:01Z</time>
      </trkpt>
      <trkpt lat="43.64728" lon="3.34854">
        <ele>144</ele>
        <time>2024-03-21T13:00:02Z</time>
      </trkpt>
      <trkpt lat="43.64728" lon="3.34845">
        <ele>144.3</ele>
        <time>2024-03-21T13:00:04Z</time>
      </trkpt>
      <trkpt lat="43.64729" lon="3.34841">
        <ele>144.3</ele>
        <time>2024-03-21T13:00:05Z</time>
      </trkpt>
      <trkpt lat="43.64729" lon="3.34836">
        <ele>144.4</ele>
        <time>2024-03-21T13:00:06Z</time>
      </trkpt>
      <trkpt lat="43.6473" lon="3.34831">
        <ele>144.4</ele>
        <time>2024-03-21T13:00:07Z</time>
      </trkpt>
      <trkpt lat="43.6473" lon="3.34826">
        <ele>144.4</ele>
        <time>2024-03-21T13:00:08Z</time>
      </trkpt>
      <trkpt lat="43.64731" lon="3.3482">
        <ele>144.4</ele>
        <time>2024-03-21T13:00:09Z</time>
      </trkpt>
      <trkpt lat="43.64731" lon="3.34809">
        <ele>144.4</ele>
        <time>2024-03-21T13:00:11Z</time>
      </trkpt>
      <trkpt lat="43.64732" lon="3.34804">
        <ele>144.3</ele>
        <time>2024-03-21T13:00:12Z</time>
      </trkpt>
      <trkpt lat="43.64732" lon="3.34794">
        <ele>144.4</ele>
        <time>2024-03-21T13:00:14Z</time>
      </trkpt>
      <trkpt lat="43.64733" lon="3.34789">
        <ele>144.5</ele>
        <time>2024-03-21T13:00:15Z</time>
      </trkpt>
      <trkpt lat="43.64733" lon="3.34785">
        <ele>144.5</ele>
        <time>2024-03-21T13:00:16Z</time>
      </trkpt>
      <trkpt lat="43.64734" lon="3.34779">
        <ele>144.6</ele>
        <time>2024-03-21T13:00:17Z</time>
      </trkpt>
      <trkpt lat="43.64735" lon="3.34775">
        <ele>144.6</ele>
        <time>2024-03-21T13:00:18Z</time>
      </trkpt>
      <trkpt lat="43.64735" lon="3.34766">
        <ele>145</ele>
        <time>2024-03-21T13:00:20Z</time>
      </trkpt>
      <trkpt lat="43.64736" lon="3.34761">
        <ele>145.1</ele>
        <time>2024-03-21T13:00:21Z</time>
      </trkpt>
      <trkpt lat="43.64736" lon="3.34756">
        <ele>145.3</ele>
        <time>2024-03-21T13:00:22Z</time>
      </trkpt>
      <trkpt lat="43.64735" lon="3.34751">
        <ele>145.5</ele>
        <time>2024-03-21T13:00:23Z</time>
      </trkpt>
      <trkpt lat="43.64735" lon="3.34741">
        <ele>145.7</ele>
        <time>2024-03-21T13:00:25Z</time>
      </trkpt>
      <trkpt lat="43.64734" lon="3.34737">
        <ele>145.8</ele>
        <time>2024-03-21T13:00:26Z</time>
      </trkpt>
      <trkpt lat="43.64734" lon="3.34733">
        <ele>145.9</ele>
        <time>2024-03-21T13:00:27Z</time>
      </trkpt>
      <trkpt lat="43.64733" lon="3.34728">
        <ele>146.1</ele>
        <time>2024-03-21T13:00:28Z</time>
      </trkpt>
      <trkpt lat="43.64733" lon="3.34723">
        <ele>146.2</ele>
        <time>2024-03-21T13:00:29Z</time>
      </trkpt>
      <trkpt lat="43.64732" lon="3.34717">
        <ele>146.3</ele>
        <time>2024-03-21T13:00:30Z</time>
      </trkpt>
      <trkpt lat="43.64731" lon="3.34712">
        <ele>146.4</ele>
        <time>2024-03-21T13:00:31Z</time>
      </trkpt>
      <trkpt lat="43.64731" lon="3.34707">
        <ele>146.4</ele>
        <time>2024-03-21T13:00:32Z</time>
      </trkpt>
      <trkpt lat="43.64729" lon="3.34697">
        <ele>146.5</ele>
        <time>2024-03-21T13:00:34Z</time>
      </trkpt>
      <trkpt lat="43.64729" lon="3.34692">
        <ele>146.5</ele>
        <time>2024-03-21T13:00:35Z</time>
      </trkpt>
      <trkpt lat="43.64728" lon="3.34688">
        <ele>146.5</ele>
        <time>2024-03-21T13:00:36Z</time>
      </trkpt>
      <trkpt lat="43.64728" lon="3.34683">
        <ele>146.5</ele>
        <time>2024-03-21T13:00:37Z</time>
      </trkpt>
      <trkpt lat="43.64727" lon="3.34679">
        <ele>146.6</ele>
        <time>2024-03-21T13:00:38Z</time>
      </trkpt>
      <trkpt lat="43.64727" lon="3.34654">
        <ele>146.6</ele>
        <time>2024-03-21T13:00:43Z</time>
      </trkpt>
      <trkpt lat="43.64726" lon="3.3465">
        <ele>146.7</ele>
        <time>2024-03-21T13:00:44Z</time>
      </trkpt>
      <trkpt lat="43.64726" lon="3.34645">
        <ele>146.7</ele>
        <time>2024-03-21T13:00:45Z</time>
      </trkpt>
      <trkpt lat="43.64725" lon="3.34641">
        <ele>146.8</ele>
        <time>2024-03-21T13:00:46Z</time>
      </trkpt>
      <trkpt lat="43.64724" lon="3.34638">
        <ele>146.8</ele>
        <time>2024-03-21T13:00:47Z</time>
      </trkpt>
      <trkpt lat="43.64724" lon="3.34634">
        <ele>146.7</ele>
        <time>2024-03-21T13:00:48Z</time>
      </trkpt>
      <trkpt lat="43.64723" lon="3.34631">
        <ele>146.7</ele>
        <time>2024-03-21T13:00:49Z</time>
      </trkpt>
      <trkpt lat="43.64723" lon="3.34628">
        <ele>146.6</ele>
        <time>2024-03-21T13:00:50Z</time>
      </trkpt>
      <trkpt lat="43.64726" lon="3.34622">
        <ele>146.4</ele>
        <time>2024-03-21T13:00:52Z</time>
      </trkpt>
      <trkpt lat="43.64728" lon="3.34617">
        <ele>146.3</ele>
        <time>2024-03-21T13:00:53Z</time>
      </trkpt>
      <trkpt lat="43.64729" lon="3.3461">
        <ele>146.3</ele>
        <time>2024-03-21T13:00:54Z</time>
      </trkpt>
      <trkpt lat="43.64731" lon="3.34598">
        <ele>146.6</ele>
        <time>2024-03-21T13:00:56Z</time>
      </trkpt>
      <trkpt lat="43.64731" lon="3.34593">
        <ele>146.7</ele>
        <time>2024-03-21T13:00:57Z</time>
      </trkpt>
      <trkpt lat="43.6473" lon="3.34588">
        <ele>146.7</ele>
        <time>2024-03-21T13:00:58Z</time>
      </trkpt>
      <trkpt lat="43.64729" lon="3.34584">
        <ele>146.7</ele>
        <time>2024-03-21T13:00:59Z</time>
      </trkpt>
      <trkpt lat="43.64729" lon="3.34579">
        <ele>146.9</ele>
        <time>2024-03-21T13:01:00Z</time>
      </trkpt>
      <trkpt lat="43.6473" lon="3.34575">
        <ele>147.1</ele>
        <time>2024-03-21T13:01:01Z</time>
      </trkpt>
      <trkpt lat="43.64731" lon="3.3457">
        <ele>147.4</ele>
        <time>2024-03-21T13:01:02Z</time>
      </trkpt>
      <trkpt lat="43.64731" lon="3.34566">
        <ele>147.6</ele>
        <time>2024-03-21T13:01:03Z</time>
      </trkpt>
      <trkpt lat="43.64733" lon="3.34556">
        <ele>148.1</ele>
        <time>2024-03-21T13:01:05Z</time>
      </trkpt>
      <trkpt lat="43.64735" lon="3.34548">
        <ele>148.5</ele>
        <time>2024-03-21T13:01:07Z</time>
      </trkpt>
      <trkpt lat="43.64735" lon="3.34543">
        <ele>148.6</ele>
        <time>2024-03-21T13:01:08Z</time>
      </trkpt>
      <trkpt lat="43.64736" lon="3.34538">
        <ele>148.8</ele>
        <time>2024-03-21T13:01:09Z</time>
      </trkpt>
      <trkpt lat="43.64736" lon="3.34492">
        <ele>149.6</ele>
        <time>2024-03-21T13:01:17Z</time>
      </trkpt>
      <trkpt lat="43.64737" lon="3.34488">
        <ele>149.8</ele>
        <time>2024-03-21T13:01:18Z</time>
      </trkpt>
      <trkpt lat="43.64737" lon="3.34477">
        <ele>150</ele>
        <time>2024-03-21T13:01:20Z</time>
      </trkpt>
      <trkpt lat="43.64738" lon="3.34472">
        <ele>150.3</ele>
        <time>2024-03-21T13:01:21Z</time>
      </trkpt>
      <trkpt lat="43.64738" lon="3.34466">
        <ele>150.2</ele>
        <time>2024-03-21T13:01:22Z</time>
      </trkpt>
      <trkpt lat="43.64739" lon="3.34459">
        <ele>150.3</ele>
        <time>2024-03-21T13:01:23Z</time>
      </trkpt>
      <trkpt lat="43.64739" lon="3.34416">
        <ele>150.8</ele>
        <time>2024-03-21T13:01:32Z</time>
      </trkpt>
      <trkpt lat="43.6474" lon="3.34411">
        <ele>151</ele>
        <time>2024-03-21T13:01:33Z</time>
      </trkpt>
      <trkpt lat="43.64742" lon="3.34405">
        <ele>151.3</ele>
        <time>2024-03-21T13:01:34Z</time>
      </trkpt>
      <trkpt lat="43.64742" lon="3.344">
        <ele>151.3</ele>
        <time>2024-03-21T13:01:35Z</time>
      </trkpt>
      <trkpt lat="43.6474" lon="3.34395">
        <ele>151.2</ele>
        <time>2024-03-21T13:01:36Z</time>
      </trkpt>
      <trkpt lat="43.64739" lon="3.3439">
        <ele>151.2</ele>
        <time>2024-03-21T13:01:37Z</time>
      </trkpt>
      <trkpt lat="43.64739" lon="3.34379">
        <ele>151.6</ele>
        <time>2024-03-21T13:01:39Z</time>
      </trkpt>
      <trkpt lat="43.6474" lon="3.34373">
        <ele>151.9</ele>
        <time>2024-03-21T13:01:40Z</time>
      </trkpt>
      <trkpt lat="43.64744" lon="3.34353">
        <ele>152.8</ele>
        <time>2024-03-21T13:01:44Z</time>
      </trkpt>
      <trkpt lat="43.64747" lon="3.34349">
        <ele>153.2</ele>
        <time>2024-03-21T13:01:45Z</time>
      </trkpt>
      <trkpt lat="43.64749" lon="3.34344">
        <ele>153.5</ele>
        <time>2024-03-21T13:01:46Z</time>
      </trkpt>
      <trkpt lat="43.64752" lon="3.34329">
        <ele>154.2</ele>
        <time>2024-03-21T13:01:49Z</time>
      </trkpt>
      <trkpt lat="43.64754" lon="3.34325">
        <ele>154.3</ele>
        <time>2024-03-21T13:01:50Z</time>
      </trkpt>
      <trkpt lat="43.64756" lon="3.34317">
        <ele>154.6</ele>
        <time>2024-03-21T13:01:52Z</time>
      </trkpt>
      <trkpt lat="43.64756" lon="3.34312">
        <ele>154.6</ele>
        <time>2024-03-21T13:01:53Z</time>
      </trkpt>
      <trkpt lat="43.64755" lon="3.34308">
        <ele>154.5</ele>
        <time>2024-03-21T13:01:54Z</time>
      </trkpt>
      <trkpt lat="43.64753" lon="3.34303">
        <ele>154.4</ele>
        <time>2024-03-21T13:01:55Z</time>
      </trkpt>
      <trkpt lat="43.64751" lon="3.34297">
        <ele>154.4</ele>
        <time>2024-03-21T13:01:56Z</time>
      </trkpt>
      <trkpt lat="43.64751" lon="3.34292">
        <ele>154.6</ele>
        <time>2024-03-21T13:01:57Z</time>
      </trkpt>
      <trkpt lat="43.64749" lon="3.34282">
        <ele>154.8</ele>
        <time>2024-03-21T13:01:59Z</time>
      </trkpt>
      <trkpt lat="43.64748" lon="3.34276">
        <ele>155</ele>
        <time>2024-03-21T13:02:00Z</time>
      </trkpt>
      <trkpt lat="43.64746" lon="3.34271">
        <ele>155.2</ele>
        <time>2024-03-21T13:02:01Z</time>
      </trkpt>
      <trkpt lat="43.64745" lon="3.34266">
        <ele>155.4</ele>
        <time>2024-03-21T13:02:02Z</time>
      </trkpt>
      <trkpt lat="43.64744" lon="3.34262">
        <ele>155.6</ele>
        <time>2024-03-21T13:02:03Z</time>
      </trkpt>
      <trkpt lat="43.64744" lon="3.34246">
        <ele>156.5</ele>
        <time>2024-03-21T13:02:06Z</time>
      </trkpt>
      <trkpt lat="43.64747" lon="3.34231">
        <ele>157.4</ele>
        <time>2024-03-21T13:02:09Z</time>
      </trkpt>
      <trkpt lat="43.64748" lon="3.34227">
        <ele>157.6</ele>
        <time>2024-03-21T13:02:10Z</time>
      </trkpt>
      <trkpt lat="43.64749" lon="3.34222">
        <ele>157.9</ele>
        <time>2024-03-21T13:02:11Z</time>
      </trkpt>
      <trkpt lat="43.64748" lon="3.34219">
        <ele>157.9</ele>
        <time>2024-03-21T13:02:12Z</time>
      </trkpt>
      <trkpt lat="43.64749" lon="3.34214">
        <ele>158.2</ele>
        <time>2024-03-21T13:02:13Z</time>
      </trkpt>
      <trkpt lat="43.64749" lon="3.34192">
        <ele>159</ele>
        <time>2024-03-21T13:02:18Z</time>
      </trkpt>
      <trkpt lat="43.6475" lon="3.34188">
        <ele>159.2</ele>
        <time>2024-03-21T13:02:19Z</time>
      </trkpt>
      <trkpt lat="43.6475" lon="3.34182">
        <ele>159.4</ele>
        <time>2024-03-21T13:02:20Z</time>
      </trkpt>
      <trkpt lat="43.64751" lon="3.34177">
        <ele>159.7</ele>
        <time>2024-03-21T13:02:21Z</time>
      </trkpt>
      <trkpt lat="43.64752" lon="3.34173">
        <ele>159.8</ele>
        <time>2024-03-21T13:02:22Z</time>
      </trkpt>
      <trkpt lat="43.64754" lon="3.34168">
        <ele>160.1</ele>
        <time>2024-03-21T13:02:23Z</time>
      </trkpt>
      <trkpt lat="43.64756" lon="3.34162">
        <ele>160.3</ele>
        <time>2024-03-21T13:02:24Z</time>
      </trkpt>
      <trkpt lat="43.64758" lon="3.34157">
        <ele>160.4</ele>
        <time>2024-03-21T13:02:25Z</time>
      </trkpt>
      <trkpt lat="43.64759" lon="3.34152">
        <ele>160.5</ele>
        <time>2024-03-21T13:02:26Z</time>
      </trkpt>
      <trkpt lat="43.64763" lon="3.34142">
        <ele>160.9</ele>
        <time>2024-03-21T13:02:28Z</time>
      </trkpt>
      <trkpt lat="43.64764" lon="3.34137">
        <ele>161</ele>
        <time>2024-03-21T13:02:29Z</time>
      </trkpt>
      <trkpt lat="43.64766" lon="3.34131">
        <ele>161.2</ele>
        <time>2024-03-21T13:02:30Z</time>
      </trkpt>
      <trkpt lat="43.64767" lon="3.34127">
        <ele>161.2</ele>
        <time>2024-03-21T13:02:31Z</time>
      </trkpt>
      <trkpt lat="43.64768" lon="3.34122">
        <ele>161.3</ele>
        <time>2024-03-21T13:02:32Z</time>
      </trkpt>
      <trkpt lat="43.6477" lon="3.34117">
        <ele>161.4</ele>
        <time>2024-03-21T13:02:33Z</time>
      </trkpt>
      <trkpt lat="43.64771" lon="3.34112">
        <ele>161.5</ele>
        <time>2024-03-21T13:02:34Z</time>
      </trkpt>
      <trkpt lat="43.64773" lon="3.34108">
        <ele>161.5</ele>
        <time>2024-03-21T13:02:35Z</time>
      </trkpt>
      <trkpt lat="43.64774" lon="3.34103">
        <ele>161.4</ele>
        <time>2024-03-21T13:02:36Z</time>
      </trkpt>
      <trkpt lat="43.64776" lon="3.34098">
        <ele>161.4</ele>
        <time>2024-03-21T13:02:37Z</time>
      </trkpt>
      <trkpt lat="43.64777" lon="3.34094">
        <ele>161.3</ele>
        <time>2024-03-21T13:02:38Z</time>
      </trkpt>
      <trkpt lat="43.64778" lon="3.34089">
        <ele>161.2</ele>
        <time>2024-03-21T13:02:39Z</time>
      </trkpt>
      <trkpt lat="43.64779" lon="3.34085">
        <ele>161.1</ele>
        <time>2024-03-21T13:02:40Z</time>
      </trkpt>
      <trkpt lat="43.64781" lon="3.3408">
        <ele>161.2</ele>
        <time>2024-03-21T13:02:41Z</time>
      </trkpt>
      <trkpt lat="43.64782" lon="3.34075">
        <ele>161.3</ele>
        <time>2024-03-21T13:02:42Z</time>
      </trkpt>
      <trkpt lat="43.64784" lon="3.3407">
        <ele>161.4</ele>
        <time>2024-03-21T13:02:43Z</time>
      </trkpt>
      <trkpt lat="43.64785" lon="3.34065">
        <ele>161.5</ele>
        <time>2024-03-21T13:02:44Z</time>
      </trkpt>
      <trkpt lat="43.64787" lon="3.34059">
        <ele>161.7</ele>
        <time>2024-03-21T13:02:45Z</time>
      </trkpt>
      <trkpt lat="43.64789" lon="3.34054">
        <ele>161.7</ele>
        <time>2024-03-21T13:02:46Z</time>
      </trkpt>
      <trkpt lat="43.6479" lon="3.34048">
        <ele>161.3</ele>
        <time>2024-03-21T13:02:47Z</time>
      </trkpt>
      <trkpt lat="43.64792" lon="3.34042">
        <ele>161</ele>
        <time>2024-03-21T13:02:48Z</time>
      </trkpt>
      <trkpt lat="43.64794" lon="3.34035">
        <ele>160.7</ele>
        <time>2024-03-21T13:02:49Z</time>
      </trkpt>
      <trkpt lat="43.64795" lon="3.34028">
        <ele>160.3</ele>
        <time>2024-03-21T13:02:50Z</time>
      </trkpt>
      <trkpt lat="43.64801" lon="3.34007">
        <ele>159.2</ele>
        <time>2024-03-21T13:02:53Z</time>
      </trkpt>
      <trkpt lat="43.64803" lon="3.33999">
        <ele>158.8</ele>
        <time>2024-03-21T13:02:54Z</time>
      </trkpt>
      <trkpt lat="43.64805" lon="3.33993">
        <ele>158.7</ele>
        <time>2024-03-21T13:02:55Z</time>
      </trkpt>
      <trkpt lat="43.64807" lon="3.33986">
        <ele>158.6</ele>
        <time>2024-03-21T13:02:56Z</time>
      </trkpt>
      <trkpt lat="43.64808" lon="3.3398">
        <ele>158.5</ele>
        <time>2024-03-21T13:02:57Z</time>
      </trkpt>
      <trkpt lat="43.6481" lon="3.33974">
        <ele>158.4</ele>
        <time>2024-03-21T13:02:58Z</time>
      </trkpt>
      <trkpt lat="43.6481" lon="3.33971">
        <ele>158.2</ele>
        <time>2024-03-21T13:02:59Z</time>
      </trkpt>
      <trkpt lat="43.64811" lon="3.33968">
        <ele>158.1</ele>
        <time>2024-03-21T13:03:00Z</time>
      </trkpt>
      <trkpt lat="43.64811" lon="3.33965">
        <ele>157.9</ele>
        <time>2024-03-21T13:03:01Z</time>
      </trkpt>
      <trkpt lat="43.64812" lon="3.33963">
        <ele>157.8</ele>
        <time>2024-03-21T13:03:02Z</time>
      </trkpt>
      <trkpt lat="43.64815" lon="3.33954">
        <ele>157.4</ele>
        <time>2024-03-21T13:03:05Z</time>
      </trkpt>
      <trkpt lat="43.64815" lon="3.33951">
        <ele>157.2</ele>
        <time>2024-03-21T13:03:06Z</time>
      </trkpt>
      <trkpt lat="43.64816" lon="3.33947">
        <ele>156.9</ele>
        <time>2024-03-21T13:03:07Z</time>
      </trkpt>
      <trkpt lat="43.64817" lon="3.33945">
        <ele>156.9</ele>
        <time>2024-03-21T13:03:08Z</time>
      </trkpt>
      <trkpt lat="43.64818" lon="3.33942">
        <ele>156.7</ele>
        <time>2024-03-21T13:03:09Z</time>
      </trkpt>
      <trkpt lat="43.64818" lon="3.33939">
        <ele>156.5</ele>
        <time>2024-03-21T13:03:10Z</time>
      </trkpt>
      <trkpt lat="43.64819" lon="3.33935">
        <ele>156.3</ele>
        <time>2024-03-21T13:03:11Z</time>
      </trkpt>
      <trkpt lat="43.64821" lon="3.33932">
        <ele>156.2</ele>
        <time>2024-03-21T13:03:12Z</time>
      </trkpt>
      <trkpt lat="43.64822" lon="3.33927">
        <ele>155.9</ele>
        <time>2024-03-21T13:03:13Z</time>
      </trkpt>
      <trkpt lat="43.64822" lon="3.33921">
        <ele>155.5</ele>
        <time>2024-03-21T13:03:14Z</time>
      </trkpt>
      <trkpt lat="43.64823" lon="3.33916">
        <ele>155.2</ele>
        <time>2024-03-21T13:03:15Z</time>
      </trkpt>
      <trkpt lat="43.64824" lon="3.3391">
        <ele>155.2</ele>
        <time>2024-03-21T13:03:16Z</time>
      </trkpt>
      <trkpt lat="43.64827" lon="3.33905">
        <ele>155.4</ele>
        <time>2024-03-21T13:03:17Z</time>
      </trkpt>
      <trkpt lat="43.6483" lon="3.33901">
        <ele>155.7</ele>
        <time>2024-03-21T13:03:18Z</time>
      </trkpt>
      <trkpt lat="43.64832" lon="3.33895">
        <ele>155.9</ele>
        <time>2024-03-21T13:03:19Z</time>
      </trkpt>
      <trkpt lat="43.64834" lon="3.3389">
        <ele>156.1</ele>
        <time>2024-03-21T13:03:20Z</time>
      </trkpt>
      <trkpt lat="43.64834" lon="3.33885">
        <ele>155.9</ele>
        <time>2024-03-21T13:03:21Z</time>
      </trkpt>
      <trkpt lat="43.64836" lon="3.33879">
        <ele>155.9</ele>
        <time>2024-03-21T13:03:22Z</time>
      </trkpt>
      <trkpt lat="43.64838" lon="3.33875">
        <ele>156</ele>
        <time>2024-03-21T13:03:23Z</time>
      </trkpt>
      <trkpt lat="43.64839" lon="3.33871">
        <ele>156</ele>
        <time>2024-03-21T13:03:24Z</time>
      </trkpt>
      <trkpt lat="43.6484" lon="3.33866">
        <ele>155.9</ele>
        <time>2024-03-21T13:03:25Z</time>
      </trkpt>
      <trkpt lat="43.64842" lon="3.33858">
        <ele>155.8</ele>
        <time>2024-03-21T13:03:27Z</time>
      </trkpt>
      <trkpt lat="43.64842" lon="3.33853">
        <ele>155.6</ele>
        <time>2024-03-21T13:03:28Z</time>
      </trkpt>
      <trkpt lat="43.64843" lon="3.33848">
        <ele>155.4</ele>
        <time>2024-03-21T13:03:29Z</time>
      </trkpt>
      <trkpt lat="43.64845" lon="3.33843">
        <ele>155.3</ele>
        <time>2024-03-21T13:03:30Z</time>
      </trkpt>
      <trkpt lat="43.64846" lon="3.33839">
        <ele>155.2</ele>
        <time>2024-03-21T13:03:31Z</time>
      </trkpt>
      <trkpt lat="43.64848" lon="3.33833">
        <ele>155</ele>
        <time>2024-03-21T13:03:32Z</time>
      </trkpt>
      <trkpt lat="43.64849" lon="3.33827">
        <ele>154.9</ele>
        <time>2024-03-21T13:03:33Z</time>
      </trkpt>
      <trkpt lat="43.6485" lon="3.3382">
        <ele>154.7</ele>
        <time>2024-03-21T13:03:34Z</time>
      </trkpt>
      <trkpt lat="43.64851" lon="3.33812">
        <ele>154.5</ele>
        <time>2024-03-21T13:03:35Z</time>
      </trkpt>
      <trkpt lat="43.64853" lon="3.33804">
        <ele>154.4</ele>
        <time>2024-03-21T13:03:36Z</time>
      </trkpt>
      <trkpt lat="43.64854" lon="3.33795">
        <ele>154.1</ele>
        <time>2024-03-21T13:03:37Z</time>
      </trkpt>
      <trkpt lat="43.64855" lon="3.33785">
        <ele>153.8</ele>
        <time>2024-03-21T13:03:38Z</time>
      </trkpt>
      <trkpt lat="43.64856" lon="3.33776">
        <ele>153.6</ele>
        <time>2024-03-21T13:03:39Z</time>
      </trkpt>
      <trkpt lat="43.64858" lon="3.33767">
        <ele>153.3</ele>
        <time>2024-03-21T13:03:40Z</time>
      </trkpt>
      <trkpt lat="43.64859" lon="3.33756">
        <ele>153</ele>
        <time>2024-03-21T13:03:41Z</time>
      </trkpt>
      <trkpt lat="43.64859" lon="3.33723">
        <ele>151.7</ele>
        <time>2024-03-21T13:03:44Z</time>
      </trkpt>
      <trkpt lat="43.64857" lon="3.33714">
        <ele>150.9</ele>
        <time>2024-03-21T13:03:45Z</time>
      </trkpt>
      <trkpt lat="43.64856" lon="3.33705">
        <ele>150.1</ele>
        <time>2024-03-21T13:03:46Z</time>
      </trkpt>
      <trkpt lat="43.64856" lon="3.3369">
        <ele>149.2</ele>
        <time>2024-03-21T13:03:48Z</time>
      </trkpt>
      <trkpt lat="43.64857" lon="3.33684">
        <ele>148.9</ele>
        <time>2024-03-21T13:03:49Z</time>
      </trkpt>
      <trkpt lat="43.64859" lon="3.33677">
        <ele>148.6</ele>
        <time>2024-03-21T13:03:50Z</time>
      </trkpt>
      <trkpt lat="43.64863" lon="3.33671">
        <ele>148.4</ele>
        <time>2024-03-21T13:03:51Z</time>
      </trkpt>
      <trkpt lat="43.64863" lon="3.33666">
        <ele>148</ele>
        <time>2024-03-21T13:03:52Z</time>
      </trkpt>
      <trkpt lat="43.64862" lon="3.3366">
        <ele>147.8</ele>
        <time>2024-03-21T13:03:53Z</time>
      </trkpt>
      <trkpt lat="43.6486" lon="3.3365">
        <ele>147.3</ele>
        <time>2024-03-21T13:03:55Z</time>
      </trkpt>
      <trkpt lat="43.64858" lon="3.33644">
        <ele>147.1</ele>
        <time>2024-03-21T13:03:56Z</time>
      </trkpt>
      <trkpt lat="43.64857" lon="3.33636">
        <ele>146.9</ele>
        <time>2024-03-21T13:03:57Z</time>
      </trkpt>
      <trkpt lat="43.64855" lon="3.33628">
        <ele>146.8</ele>
        <time>2024-03-21T13:03:58Z</time>
      </trkpt>
      <trkpt lat="43.64855" lon="3.33603">
        <ele>146.5</ele>
        <time>2024-03-21T13:04:01Z</time>
      </trkpt>
      <trkpt lat="43.64854" lon="3.33597">
        <ele>146.2</ele>
        <time>2024-03-21T13:04:02Z</time>
      </trkpt>
      <trkpt lat="43.64853" lon="3.3359">
        <ele>145.9</ele>
        <time>2024-03-21T13:04:03Z</time>
      </trkpt>
      <trkpt lat="43.64855" lon="3.3358">
        <ele>145.7</ele>
        <time>2024-03-21T13:04:05Z</time>
      </trkpt>
      <trkpt lat="43.64855" lon="3.33564">
        <ele>145.2</ele>
        <time>2024-03-21T13:04:09Z</time>
      </trkpt>
      <trkpt lat="43.64856" lon="3.33558">
        <ele>145.1</ele>
        <time>2024-03-21T13:04:10Z</time>
      </trkpt>
      <trkpt lat="43.64855" lon="3.33553">
        <ele>145</ele>
        <time>2024-03-21T13:04:11Z</time>
      </trkpt>
      <trkpt lat="43.64855" lon="3.33548">
        <ele>145</ele>
        <time>2024-03-21T13:04:12Z</time>
      </trkpt>
      <trkpt lat="43.64856" lon="3.33542">
        <ele>145</ele>
        <time>2024-03-21T13:04:13Z</time>
      </trkpt>
      <trkpt lat="43.64856" lon="3.3353">
        <ele>145</ele>
        <time>2024-03-21T13:04:15Z</time>
      </trkpt>
      <trkpt lat="43.64854" lon="3.33518">
        <ele>145.3</ele>
        <time>2024-03-21T13:04:17Z</time>
      </trkpt>
      <trkpt lat="43.64852" lon="3.3351">
        <ele>145.4</ele>
        <time>2024-03-21T13:04:18Z</time>
      </trkpt>
      <trkpt lat="43.64851" lon="3.33503">
        <ele>145.6</ele>
        <time>2024-03-21T13:04:19Z</time>
      </trkpt>
      <trkpt lat="43.6485" lon="3.33495">
        <ele>145.5</ele>
        <time>2024-03-21T13:04:20Z</time>
      </trkpt>
      <trkpt lat="43.64848" lon="3.33486">
        <ele>145.3</ele>
        <time>2024-03-21T13:04:21Z</time>
      </trkpt>
      <trkpt lat="43.64846" lon="3.3347">
        <ele>144.9</ele>
        <time>2024-03-21T13:04:23Z</time>
      </trkpt>
      <trkpt lat="43.64846" lon="3.33463">
        <ele>144.5</ele>
        <time>2024-03-21T13:04:25Z</time>
      </trkpt>
      <trkpt lat="43.64845" lon="3.33461">
        <ele>144.4</ele>
        <time>2024-03-21T13:04:26Z</time>
      </trkpt>
      <trkpt lat="43.64845" lon="3.33445">
        <ele>143.6</ele>
        <time>2024-03-21T13:04:30Z</time>
      </trkpt>
      <trkpt lat="43.64846" lon="3.3344">
        <ele>143.6</ele>
        <time>2024-03-21T13:04:31Z</time>
      </trkpt>
      <trkpt lat="43.64846" lon="3.33434">
        <ele>143.7</ele>
        <time>2024-03-21T13:04:32Z</time>
      </trkpt>
      <trkpt lat="43.64845" lon="3.3343">
        <ele>143.8</ele>
        <time>2024-03-21T13:04:33Z</time>
      </trkpt>
      <trkpt lat="43.64845" lon="3.33424">
        <ele>143.9</ele>
        <time>2024-03-21T13:04:34Z</time>
      </trkpt>
      <trkpt lat="43.64843" lon="3.33414">
        <ele>144</ele>
        <time>2024-03-21T13:04:36Z</time>
      </trkpt>
      <trkpt lat="43.64843" lon="3.33409">
        <ele>144</ele>
        <time>2024-03-21T13:04:37Z</time>
      </trkpt>
      <trkpt lat="43.64844" lon="3.33405">
        <ele>144</ele>
        <time>2024-03-21T13:04:38Z</time>
      </trkpt>
      <trkpt lat="43.64843" lon="3.33399">
        <ele>144</ele>
        <time>2024-03-21T13:04:39Z</time>
      </trkpt>
      <trkpt lat="43.64843" lon="3.33391">
        <ele>144</ele>
        <time>2024-03-21T13:04:41Z</time>
      </trkpt>
      <trkpt lat="43.64842" lon="3.33388">
        <ele>144</ele>
        <time>2024-03-21T13:04:42Z</time>
      </trkpt>
      <trkpt lat="43.64842" lon="3.33385">
        <ele>144</ele>
        <time>2024-03-21T13:04:43Z</time>
      </trkpt>
      <trkpt lat="43.64843" lon="3.33382">
        <ele>144</ele>
        <time>2024-03-21T13:04:44Z</time>
      </trkpt>
      <trkpt lat="43.64843" lon="3.33379">
        <ele>144</ele>
        <time>2024-03-21T13:04:45Z</time>
      </trkpt>
      <trkpt lat="43.64842" lon="3.33375">
        <ele>144</ele>
        <time>2024-03-21T13:04:46Z</time>
      </trkpt>
      <trkpt lat="43.64842" lon="3.33368">
        <ele>144</ele>
        <time>2024-03-21T13:04:48Z</time>
      </trkpt>
      <trkpt lat="43.64841" lon="3.33364">
        <ele>144</ele>
        <time>2024-03-21T13:04:49Z</time>
      </trkpt>
      <trkpt lat="43.64841" lon="3.3336">
        <ele>144</ele>
        <time>2024-03-21T13:04:50Z</time>
      </trkpt>
      <trkpt lat="43.6484" lon="3.33356">
        <ele>143.8</ele>
        <time>2024-03-21T13:04:51Z</time>
      </trkpt>
      <trkpt lat="43.6484" lon="3.33348">
        <ele>143.5</ele>
        <time>2024-03-21T13:04:53Z</time>
      </trkpt>
      <trkpt lat="43.64839" lon="3.33343">
        <ele>143.3</ele>
        <time>2024-03-21T13:04:54Z</time>
      </trkpt>
      <trkpt lat="43.64839" lon="3.33331">
        <ele>143</ele>
        <time>2024-03-21T13:04:57Z</time>
      </trkpt>
      <trkpt lat="43.64838" lon="3.33326">
        <ele>143</ele>
        <time>2024-03-21T13:04:58Z</time>
      </trkpt>
      <trkpt lat="43.64838" lon="3.33313">
        <ele>143</ele>
        <time>2024-03-21T13:05:01Z</time>
      </trkpt>
      <trkpt lat="43.64837" lon="3.33309">
        <ele>143</ele>
        <time>2024-03-21T13:05:02Z</time>
      </trkpt>
      <trkpt lat="43.64837" lon="3.33295">
        <ele>142.9</ele>
        <time>2024-03-21T13:05:05Z</time>
      </trkpt>
      <trkpt lat="43.64838" lon="3.3329">
        <ele>142.9</ele>
        <time>2024-03-21T13:05:06Z</time>
      </trkpt>
      <trkpt lat="43.64838" lon="3.33286">
        <ele>142.9</ele>
        <time>2024-03-21T13:05:07Z</time>
      </trkpt>
      <trkpt lat="43.64839" lon="3.33282">
        <ele>142.8</ele>
        <time>2024-03-21T13:05:08Z</time>
      </trkpt>
      <trkpt lat="43.64839" lon="3.33278">
        <ele>142.8</ele>
        <time>2024-03-21T13:05:09Z</time>
      </trkpt>
      <trkpt lat="43.64836" lon="3.3326">
        <ele>142.3</ele>
        <time>2024-03-21T13:05:12Z</time>
      </trkpt>
      <trkpt lat="43.64835" lon="3.33253">
        <ele>142</ele>
        <time>2024-03-21T13:05:13Z</time>
      </trkpt>
      <trkpt lat="43.64834" lon="3.33248">
        <ele>142</ele>
        <time>2024-03-21T13:05:14Z</time>
      </trkpt>
      <trkpt lat="43.64833" lon="3.33242">
        <ele>142</ele>
        <time>2024-03-21T13:05:15Z</time>
      </trkpt>
      <trkpt lat="43.64832" lon="3.33235">
        <ele>142</ele>
        <time>2024-03-21T13:05:16Z</time>
      </trkpt>
      <trkpt lat="43.64832" lon="3.33229">
        <ele>142</ele>
        <time>2024-03-21T13:05:17Z</time>
      </trkpt>
      <trkpt lat="43.64831" lon="3.33223">
        <ele>142.1</ele>
        <time>2024-03-21T13:05:18Z</time>
      </trkpt>
      <trkpt lat="43.64831" lon="3.33195">
        <ele>142</ele>
        <time>2024-03-21T13:05:23Z</time>
      </trkpt>
      <trkpt lat="43.6483" lon="3.3319">
        <ele>141.8</ele>
        <time>2024-03-21T13:05:24Z</time>
      </trkpt>
      <trkpt lat="43.64828" lon="3.33178">
        <ele>141.4</ele>
        <time>2024-03-21T13:05:26Z</time>
      </trkpt>
      <trkpt lat="43.64827" lon="3.33173">
        <ele>141.2</ele>
        <time>2024-03-21T13:05:27Z</time>
      </trkpt>
      <trkpt lat="43.64825" lon="3.33168">
        <ele>141</ele>
        <time>2024-03-21T13:05:28Z</time>
      </trkpt>
      <trkpt lat="43.64817" lon="3.33144">
        <ele>140.7</ele>
        <time>2024-03-21T13:05:32Z</time>
      </trkpt>
      <trkpt lat="43.64816" lon="3.33137">
        <ele>140.6</ele>
        <time>2024-03-21T13:05:33Z</time>
      </trkpt>
      <trkpt lat="43.64815" lon="3.33132">
        <ele>140.5</ele>
        <time>2024-03-21T13:05:34Z</time>
      </trkpt>
      <trkpt lat="43.64813" lon="3.33127">
        <ele>140.4</ele>
        <time>2024-03-21T13:05:35Z</time>
      </trkpt>
      <trkpt lat="43.64811" lon="3.33121">
        <ele>140.3</ele>
        <time>2024-03-21T13:05:36Z</time>
      </trkpt>
      <trkpt lat="43.64808" lon="3.33117">
        <ele>140.2</ele>
        <time>2024-03-21T13:05:37Z</time>
      </trkpt>
      <trkpt lat="43.64806" lon="3.33113">
        <ele>140.1</ele>
        <time>2024-03-21T13:05:38Z</time>
      </trkpt>
      <trkpt lat="43.64803" lon="3.33108">
        <ele>140.2</ele>
        <time>2024-03-21T13:05:39Z</time>
      </trkpt>
      <trkpt lat="43.64801" lon="3.33103">
        <ele>140.3</ele>
        <time>2024-03-21T13:05:40Z</time>
      </trkpt>
      <trkpt lat="43.64799" lon="3.331">
        <ele>140.4</ele>
        <time>2024-03-21T13:05:41Z</time>
      </trkpt>
      <trkpt lat="43.64796" lon="3.33098">
        <ele>140.5</ele>
        <time>2024-03-21T13:05:42Z</time>
      </trkpt>
      <trkpt lat="43.64793" lon="3.33098">
        <ele>140.7</ele>
        <time>2024-03-21T13:05:43Z</time>
      </trkpt>
      <trkpt lat="43.6479" lon="3.33099">
        <ele>140.9</ele>
        <time>2024-03-21T13:05:44Z</time>
      </trkpt>
      <trkpt lat="43.64786" lon="3.33095">
        <ele>141</ele>
        <time>2024-03-21T13:05:46Z</time>
      </trkpt>
      <trkpt lat="43.64785" lon="3.33092">
        <ele>141</ele>
        <time>2024-03-21T13:05:47Z</time>
      </trkpt>
      <trkpt lat="43.64782" lon="3.33091">
        <ele>141.1</ele>
        <time>2024-03-21T13:05:48Z</time>
      </trkpt>
      <trkpt lat="43.6478" lon="3.3309">
        <ele>141.1</ele>
        <time>2024-03-21T13:05:49Z</time>
      </trkpt>
      <trkpt lat="43.64778" lon="3.33088">
        <ele>141.2</ele>
        <time>2024-03-21T13:05:50Z</time>
      </trkpt>
      <trkpt lat="43.64776" lon="3.33084">
        <ele>141.1</ele>
        <time>2024-03-21T13:05:51Z</time>
      </trkpt>
      <trkpt lat="43.64773" lon="3.33079">
        <ele>141.2</ele>
        <time>2024-03-21T13:05:52Z</time>
      </trkpt>
      <trkpt lat="43.64773" lon="3.33074">
        <ele>141.2</ele>
        <time>2024-03-21T13:05:53Z</time>
      </trkpt>
      <trkpt lat="43.64772" lon="3.33071">
        <ele>141.2</ele>
        <time>2024-03-21T13:05:54Z</time>
      </trkpt>
      <trkpt lat="43.6477" lon="3.33068">
        <ele>141.3</ele>
        <time>2024-03-21T13:05:55Z</time>
      </trkpt>
      <trkpt lat="43.64767" lon="3.33066">
        <ele>141.4</ele>
        <time>2024-03-21T13:05:56Z</time>
      </trkpt>
      <trkpt lat="43.64765" lon="3.33062">
        <ele>141.5</ele>
        <time>2024-03-21T13:05:57Z</time>
      </trkpt>
      <trkpt lat="43.64764" lon="3.33057">
        <ele>141.5</ele>
        <time>2024-03-21T13:05:58Z</time>
      </trkpt>
      <trkpt lat="43.64762" lon="3.33052">
        <ele>141.4</ele>
        <time>2024-03-21T13:05:59Z</time>
      </trkpt>
      <trkpt lat="43.6476" lon="3.33049">
        <ele>141.4</ele>
        <time>2024-03-21T13:06:00Z</time>
      </trkpt>
      <trkpt lat="43.64755" lon="3.33044">
        <ele>141.4</ele>
        <time>2024-03-21T13:06:02Z</time>
      </trkpt>
      <trkpt lat="43.64749" lon="3.33035">
        <ele>141.3</ele>
        <time>2024-03-21T13:06:05Z</time>
      </trkpt>
      <trkpt lat="43.64747" lon="3.33033">
        <ele>141.3</ele>
        <time>2024-03-21T13:06:06Z</time>
      </trkpt>
      <trkpt lat="43.64745" lon="3.3303">
        <ele>141.3</ele>
        <time>2024-03-21T13:06:07Z</time>
      </trkpt>
      <trkpt lat="43.64745" lon="3.33029">
        <ele>141.2</ele>
        <time>2024-03-21T13:06:08Z</time>
      </trkpt>
      <trkpt lat="43.64744" lon="3.33029">
        <ele>141.3</ele>
        <time>2024-03-21T13:06:16Z</time>
      </trkpt>
      <trkpt lat="43.64745" lon="3.33029">
        <ele>141.2</ele>
        <time>2024-03-21T13:06:24Z</time>
      </trkpt>
      <trkpt lat="43.64745" lon="3.33027">
        <ele>141.2</ele>
        <time>2024-03-21T13:06:26Z</time>
      </trkpt>
      <trkpt lat="43.64744" lon="3.33024">
        <ele>141.1</ele>
        <time>2024-03-21T13:06:27Z</time>
      </trkpt>
      <trkpt lat="43.64742" lon="3.3302">
        <ele>141</ele>
        <time>2024-03-21T13:06:28Z</time>
      </trkpt>
      <trkpt lat="43.64739" lon="3.33015">
        <ele>140.9</ele>
        <time>2024-03-21T13:06:29Z</time>
      </trkpt>
      <trkpt lat="43.64735" lon="3.33009">
        <ele>140.9</ele>
        <time>2024-03-21T13:06:30Z</time>
      </trkpt>
      <trkpt lat="43.64731" lon="3.33004">
        <ele>140.8</ele>
        <time>2024-03-21T13:06:31Z</time>
      </trkpt>
      <trkpt lat="43.64726" lon="3.32999">
        <ele>140.8</ele>
        <time>2024-03-21T13:06:32Z</time>
      </trkpt>
      <trkpt lat="43.64721" lon="3.32995">
        <ele>140.8</ele>
        <time>2024-03-21T13:06:33Z</time>
      </trkpt>
      <trkpt lat="43.64716" lon="3.32992">
        <ele>140.6</ele>
        <time>2024-03-21T13:06:34Z</time>
      </trkpt>
      <trkpt lat="43.64711" lon="3.3299">
        <ele>140.5</ele>
        <time>2024-03-21T13:06:35Z</time>
      </trkpt>
      <trkpt lat="43.64706" lon="3.32989">
        <ele>140.4</ele>
        <time>2024-03-21T13:06:36Z</time>
      </trkpt>
      <trkpt lat="43.64701" lon="3.32989">
        <ele>140.3</ele>
        <time>2024-03-21T13:06:37Z</time>
      </trkpt>
      <trkpt lat="43.64695" lon="3.3299">
        <ele>140.3</ele>
        <time>2024-03-21T13:06:38Z</time>
      </trkpt>
      <trkpt lat="43.64689" lon="3.32992">
        <ele>140.3</ele>
        <time>2024-03-21T13:06:39Z</time>
      </trkpt>
      <trkpt lat="43.64684" lon="3.32996">
        <ele>140.4</ele>
        <time>2024-03-21T13:06:40Z</time>
      </trkpt>
      <trkpt lat="43.6468" lon="3.32999">
        <ele>140.4</ele>
        <time>2024-03-21T13:06:41Z</time>
      </trkpt>
      <trkpt lat="43.64675" lon="3.33001">
        <ele>140.4</ele>
        <time>2024-03-21T13:06:42Z</time>
      </trkpt>
      <trkpt lat="43.64671" lon="3.33002">
        <ele>140.3</ele>
        <time>2024-03-21T13:06:43Z</time>
      </trkpt>
      <trkpt lat="43.64665" lon="3.33004">
        <ele>140.3</ele>
        <time>2024-03-21T13:06:44Z</time>
      </trkpt>
      <trkpt lat="43.6466" lon="3.33007">
        <ele>140.4</ele>
        <time>2024-03-21T13:06:45Z</time>
      </trkpt>
      <trkpt lat="43.64654" lon="3.33009">
        <ele>140.5</ele>
        <time>2024-03-21T13:06:46Z</time>
      </trkpt>
      <trkpt lat="43.64649" lon="3.33011">
        <ele>140.5</ele>
        <time>2024-03-21T13:06:47Z</time>
      </trkpt>
      <trkpt lat="43.64643" lon="3.33011">
        <ele>140.5</ele>
        <time>2024-03-21T13:06:48Z</time>
      </trkpt>
      <trkpt lat="43.64639" lon="3.33008">
        <ele>140.3</ele>
        <time>2024-03-21T13:06:49Z</time>
      </trkpt>
      <trkpt lat="43.64634" lon="3.33008">
        <ele>140.4</ele>
        <time>2024-03-21T13:06:50Z</time>
      </trkpt>
      <trkpt lat="43.64629" lon="3.33011">
        <ele>140.6</ele>
        <time>2024-03-21T13:06:51Z</time>
      </trkpt>
      <trkpt lat="43.64626" lon="3.33015">
        <ele>140.8</ele>
        <time>2024-03-21T13:06:52Z</time>
      </trkpt>
      <trkpt lat="43.64623" lon="3.33016">
        <ele>140.8</ele>
        <time>2024-03-21T13:06:53Z</time>
      </trkpt>
      <trkpt lat="43.6462" lon="3.33013">
        <ele>140.8</ele>
        <time>2024-03-21T13:06:54Z</time>
      </trkpt>
      <trkpt lat="43.64618" lon="3.33009">
        <ele>140.8</ele>
        <time>2024-03-21T13:06:55Z</time>
      </trkpt>
      <trkpt lat="43.64615" lon="3.33005">
        <ele>140.9</ele>
        <time>2024-03-21T13:06:56Z</time>
      </trkpt>
      <trkpt lat="43.64611" lon="3.33002">
        <ele>141</ele>
        <time>2024-03-21T13:06:57Z</time>
      </trkpt>
      <trkpt lat="43.64606" lon="3.32999">
        <ele>141.2</ele>
        <time>2024-03-21T13:06:58Z</time>
      </trkpt>
      <trkpt lat="43.64591" lon="3.32987">
        <ele>141.7</ele>
        <time>2024-03-21T13:07:01Z</time>
      </trkpt>
      <trkpt lat="43.64586" lon="3.32984">
        <ele>141.9</ele>
        <time>2024-03-21T13:07:02Z</time>
      </trkpt>
      <trkpt lat="43.64583" lon="3.32981">
        <ele>142</ele>
        <time>2024-03-21T13:07:03Z</time>
      </trkpt>
      <trkpt lat="43.64578" lon="3.32978">
        <ele>142.2</ele>
        <time>2024-03-21T13:07:04Z</time>
      </trkpt>
      <trkpt lat="43.64575" lon="3.32976">
        <ele>142.3</ele>
        <time>2024-03-21T13:07:05Z</time>
      </trkpt>
      <trkpt lat="43.64571" lon="3.32972">
        <ele>142.4</ele>
        <time>2024-03-21T13:07:06Z</time>
      </trkpt>
      <trkpt lat="43.64568" lon="3.32967">
        <ele>142.6</ele>
        <time>2024-03-21T13:07:07Z</time>
      </trkpt>
      <trkpt lat="43.64566" lon="3.32961">
        <ele>142.6</ele>
        <time>2024-03-21T13:07:08Z</time>
      </trkpt>
      <trkpt lat="43.64564" lon="3.32957">
        <ele>142.7</ele>
        <time>2024-03-21T13:07:09Z</time>
      </trkpt>
      <trkpt lat="43.64561" lon="3.32952">
        <ele>142.8</ele>
        <time>2024-03-21T13:07:10Z</time>
      </trkpt>
      <trkpt lat="43.64557" lon="3.32948">
        <ele>142.9</ele>
        <time>2024-03-21T13:07:11Z</time>
      </trkpt>
      <trkpt lat="43.64555" lon="3.32943">
        <ele>143</ele>
        <time>2024-03-21T13:07:12Z</time>
      </trkpt>
      <trkpt lat="43.64553" lon="3.32935">
        <ele>142.8</ele>
        <time>2024-03-21T13:07:14Z</time>
      </trkpt>
      <trkpt lat="43.64547" lon="3.32925">
        <ele>142.6</ele>
        <time>2024-03-21T13:07:16Z</time>
      </trkpt>
      <trkpt lat="43.64541" lon="3.32921">
        <ele>142.7</ele>
        <time>2024-03-21T13:07:18Z</time>
      </trkpt>
      <trkpt lat="43.64538" lon="3.32918">
        <ele>142.7</ele>
        <time>2024-03-21T13:07:19Z</time>
      </trkpt>
      <trkpt lat="43.64534" lon="3.32915">
        <ele>142.7</ele>
        <time>2024-03-21T13:07:20Z</time>
      </trkpt>
      <trkpt lat="43.64531" lon="3.32911">
        <ele>142.7</ele>
        <time>2024-03-21T13:07:21Z</time>
      </trkpt>
      <trkpt lat="43.64527" lon="3.32906">
        <ele>142.6</ele>
        <time>2024-03-21T13:07:22Z</time>
      </trkpt>
      <trkpt lat="43.64524" lon="3.32901">
        <ele>142.6</ele>
        <time>2024-03-21T13:07:23Z</time>
      </trkpt>
      <trkpt lat="43.6452" lon="3.32896">
        <ele>142.5</ele>
        <time>2024-03-21T13:07:24Z</time>
      </trkpt>
      <trkpt lat="43.64517" lon="3.32891">
        <ele>142.5</ele>
        <time>2024-03-21T13:07:25Z</time>
      </trkpt>
      <trkpt lat="43.64514" lon="3.32885">
        <ele>142.1</ele>
        <time>2024-03-21T13:07:26Z</time>
      </trkpt>
      <trkpt lat="43.6451" lon="3.3288">
        <ele>141.8</ele>
        <time>2024-03-21T13:07:27Z</time>
      </trkpt>
      <trkpt lat="43.64506" lon="3.32874">
        <ele>141.3</ele>
        <time>2024-03-21T13:07:28Z</time>
      </trkpt>
      <trkpt lat="43.64501" lon="3.32867">
        <ele>140.6</ele>
        <time>2024-03-21T13:07:29Z</time>
      </trkpt>
      <trkpt lat="43.64497" lon="3.32859">
        <ele>140.3</ele>
        <time>2024-03-21T13:07:30Z</time>
      </trkpt>
      <trkpt lat="43.64489" lon="3.32847">
        <ele>140.8</ele>
        <time>2024-03-21T13:07:32Z</time>
      </trkpt>
      <trkpt lat="43.64485" lon="3.32842">
        <ele>140.9</ele>
        <time>2024-03-21T13:07:33Z</time>
      </trkpt>
      <trkpt lat="43.64481" lon="3.32838">
        <ele>140.9</ele>
        <time>2024-03-21T13:07:34Z</time>
      </trkpt>
      <trkpt lat="43.64475" lon="3.32835">
        <ele>141</ele>
        <time>2024-03-21T13:07:35Z</time>
      </trkpt>
      <trkpt lat="43.6447" lon="3.32833">
        <ele>141.1</ele>
        <time>2024-03-21T13:07:36Z</time>
      </trkpt>
      <trkpt lat="43.64467" lon="3.32829">
        <ele>141.1</ele>
        <time>2024-03-21T13:07:37Z</time>
      </trkpt>
      <trkpt lat="43.64466" lon="3.32823">
        <ele>140.9</ele>
        <time>2024-03-21T13:07:38Z</time>
      </trkpt>
      <trkpt lat="43.64464" lon="3.32818">
        <ele>140.9</ele>
        <time>2024-03-21T13:07:39Z</time>
      </trkpt>
      <trkpt lat="43.64463" lon="3.32812">
        <ele>140.8</ele>
        <time>2024-03-21T13:07:40Z</time>
      </trkpt>
      <trkpt lat="43.64461" lon="3.32807">
        <ele>140.8</ele>
        <time>2024-03-21T13:07:41Z</time>
      </trkpt>
      <trkpt lat="43.64458" lon="3.32804">
        <ele>141</ele>
        <time>2024-03-21T13:07:43Z</time>
      </trkpt>
      <trkpt lat="43.64456" lon="3.32796">
        <ele>140.8</ele>
        <time>2024-03-21T13:07:45Z</time>
      </trkpt>
      <trkpt lat="43.64453" lon="3.32793">
        <ele>140.9</ele>
        <time>2024-03-21T13:07:46Z</time>
      </trkpt>
      <trkpt lat="43.64445" lon="3.32789">
        <ele>141.4</ele>
        <time>2024-03-21T13:07:48Z</time>
      </trkpt>
      <trkpt lat="43.64441" lon="3.32788">
        <ele>141.5</ele>
        <time>2024-03-21T13:07:49Z</time>
      </trkpt>
      <trkpt lat="43.64437" lon="3.32788">
        <ele>141.6</ele>
        <time>2024-03-21T13:07:50Z</time>
      </trkpt>
      <trkpt lat="43.64425" lon="3.32791">
        <ele>142.2</ele>
        <time>2024-03-21T13:07:53Z</time>
      </trkpt>
      <trkpt lat="43.64409" lon="3.32791">
        <ele>142.8</ele>
        <time>2024-03-21T13:07:59Z</time>
      </trkpt>
      <trkpt lat="43.64406" lon="3.3279">
        <ele>142.8</ele>
        <time>2024-03-21T13:08:00Z</time>
      </trkpt>
      <trkpt lat="43.64403" lon="3.32788">
        <ele>142.9</ele>
        <time>2024-03-21T13:08:01Z</time>
      </trkpt>
      <trkpt lat="43.64401" lon="3.32786">
        <ele>142.9</ele>
        <time>2024-03-21T13:08:02Z</time>
      </trkpt>
      <trkpt lat="43.64398" lon="3.32785">
        <ele>142.9</ele>
        <time>2024-03-21T13:08:03Z</time>
      </trkpt>
      <trkpt lat="43.64395" lon="3.32782">
        <ele>142.9</ele>
        <time>2024-03-21T13:08:04Z</time>
      </trkpt>
      <trkpt lat="43.64391" lon="3.3278">
        <ele>143</ele>
        <time>2024-03-21T13:08:05Z</time>
      </trkpt>
      <trkpt lat="43.64388" lon="3.32777">
        <ele>142.9</ele>
        <time>2024-03-21T13:08:06Z</time>
      </trkpt>
      <trkpt lat="43.64385" lon="3.32775">
        <ele>142.8</ele>
        <time>2024-03-21T13:08:07Z</time>
      </trkpt>
      <trkpt lat="43.64382" lon="3.32772">
        <ele>142.5</ele>
        <time>2024-03-21T13:08:08Z</time>
      </trkpt>
      <trkpt lat="43.64374" lon="3.3277">
        <ele>142.6</ele>
        <time>2024-03-21T13:08:10Z</time>
      </trkpt>
      <trkpt lat="43.64371" lon="3.32769">
        <ele>142.6</ele>
        <time>2024-03-21T13:08:11Z</time>
      </trkpt>
      <trkpt lat="43.64365" lon="3.32769">
        <ele>142.9</ele>
        <time>2024-03-21T13:08:13Z</time>
      </trkpt>
      <trkpt lat="43.64362" lon="3.32768">
        <ele>142.9</ele>
        <time>2024-03-21T13:08:14Z</time>
      </trkpt>
      <trkpt lat="43.64358" lon="3.32766">
        <ele>142.8</ele>
        <time>2024-03-21T13:08:15Z</time>
      </trkpt>
      <trkpt lat="43.64352" lon="3.32764">
        <ele>142.7</ele>
        <time>2024-03-21T13:08:17Z</time>
      </trkpt>
      <trkpt lat="43.64348" lon="3.32762">
        <ele>142.6</ele>
        <time>2024-03-21T13:08:18Z</time>
      </trkpt>
      <trkpt lat="43.64345" lon="3.32761">
        <ele>142.5</ele>
        <time>2024-03-21T13:08:19Z</time>
      </trkpt>
      <trkpt lat="43.64341" lon="3.32761">
        <ele>142.6</ele>
        <time>2024-03-21T13:08:20Z</time>
      </trkpt>
      <trkpt lat="43.64337" lon="3.32762">
        <ele>142.8</ele>
        <time>2024-03-21T13:08:21Z</time>
      </trkpt>
      <trkpt lat="43.64334" lon="3.32764">
        <ele>143</ele>
        <time>2024-03-21T13:08:22Z</time>
      </trkpt>
      <trkpt lat="43.64331" lon="3.32768">
        <ele>143.3</ele>
        <time>2024-03-21T13:08:23Z</time>
      </trkpt>
      <trkpt lat="43.64329" lon="3.32772">
        <ele>143.6</ele>
        <time>2024-03-21T13:08:24Z</time>
      </trkpt>
      <trkpt lat="43.64326" lon="3.32776">
        <ele>143.9</ele>
        <time>2024-03-21T13:08:25Z</time>
      </trkpt>
      <trkpt lat="43.64323" lon="3.32778">
        <ele>144</ele>
        <time>2024-03-21T13:08:26Z</time>
      </trkpt>
      <trkpt lat="43.64319" lon="3.32779">
        <ele>144.1</ele>
        <time>2024-03-21T13:08:27Z</time>
      </trkpt>
      <trkpt lat="43.64315" lon="3.32779">
        <ele>144.1</ele>
        <time>2024-03-21T13:08:28Z</time>
      </trkpt>
      <trkpt lat="43.64313" lon="3.32777">
        <ele>143.9</ele>
        <time>2024-03-21T13:08:29Z</time>
      </trkpt>
      <trkpt lat="43.64311" lon="3.32776">
        <ele>143.8</ele>
        <time>2024-03-21T13:08:30Z</time>
      </trkpt>
      <trkpt lat="43.64309" lon="3.32774">
        <ele>143.6</ele>
        <time>2024-03-21T13:08:31Z</time>
      </trkpt>
      <trkpt lat="43.64306" lon="3.32772">
        <ele>143.4</ele>
        <time>2024-03-21T13:08:32Z</time>
      </trkpt>
      <trkpt lat="43.64302" lon="3.32771">
        <ele>143.3</ele>
        <time>2024-03-21T13:08:33Z</time>
      </trkpt>
      <trkpt lat="43.64296" lon="3.32765">
        <ele>142.6</ele>
        <time>2024-03-21T13:08:35Z</time>
      </trkpt>
      <trkpt lat="43.64292" lon="3.32759">
        <ele>142</ele>
        <time>2024-03-21T13:08:37Z</time>
      </trkpt>
      <trkpt lat="43.6429" lon="3.32757">
        <ele>141.8</ele>
        <time>2024-03-21T13:08:38Z</time>
      </trkpt>
      <trkpt lat="43.64287" lon="3.32755">
        <ele>141.5</ele>
        <time>2024-03-21T13:08:39Z</time>
      </trkpt>
      <trkpt lat="43.64284" lon="3.32752">
        <ele>141.2</ele>
        <time>2024-03-21T13:08:40Z</time>
      </trkpt>
      <trkpt lat="43.64282" lon="3.32748">
        <ele>140.8</ele>
        <time>2024-03-21T13:08:41Z</time>
      </trkpt>
      <trkpt lat="43.64279" lon="3.32744">
        <ele>140.6</ele>
        <time>2024-03-21T13:08:42Z</time>
      </trkpt>
      <trkpt lat="43.64271" lon="3.32742">
        <ele>141.1</ele>
        <time>2024-03-21T13:08:44Z</time>
      </trkpt>
      <trkpt lat="43.64266" lon="3.32741">
        <ele>141.5</ele>
        <time>2024-03-21T13:08:45Z</time>
      </trkpt>
      <trkpt lat="43.64262" lon="3.3274">
        <ele>141.8</ele>
        <time>2024-03-21T13:08:46Z</time>
      </trkpt>
      <trkpt lat="43.64256" lon="3.32736">
        <ele>141.9</ele>
        <time>2024-03-21T13:08:48Z</time>
      </trkpt>
      <trkpt lat="43.64254" lon="3.32735">
        <ele>142</ele>
        <time>2024-03-21T13:08:49Z</time>
      </trkpt>
      <trkpt lat="43.64251" lon="3.32735">
        <ele>142.3</ele>
        <time>2024-03-21T13:08:50Z</time>
      </trkpt>
      <trkpt lat="43.64249" lon="3.32734">
        <ele>142.3</ele>
        <time>2024-03-21T13:08:51Z</time>
      </trkpt>
      <trkpt lat="43.64246" lon="3.32733">
        <ele>142.4</ele>
        <time>2024-03-21T13:08:52Z</time>
      </trkpt>
      <trkpt lat="43.64243" lon="3.32733">
        <ele>142.6</ele>
        <time>2024-03-21T13:08:53Z</time>
      </trkpt>
      <trkpt lat="43.6424" lon="3.32732">
        <ele>142.6</ele>
        <time>2024-03-21T13:08:54Z</time>
      </trkpt>
      <trkpt lat="43.64236" lon="3.32731">
        <ele>142.8</ele>
        <time>2024-03-21T13:08:55Z</time>
      </trkpt>
      <trkpt lat="43.64227" lon="3.32731">
        <ele>143.3</ele>
        <time>2024-03-21T13:08:58Z</time>
      </trkpt>
      <trkpt lat="43.64224" lon="3.3273">
        <ele>143.4</ele>
        <time>2024-03-21T13:08:59Z</time>
      </trkpt>
      <trkpt lat="43.64222" lon="3.32727">
        <ele>143.3</ele>
        <time>2024-03-21T13:09:00Z</time>
      </trkpt>
      <trkpt lat="43.64219" lon="3.32725">
        <ele>143.2</ele>
        <time>2024-03-21T13:09:01Z</time>
      </trkpt>
      <trkpt lat="43.64216" lon="3.32724">
        <ele>143.1</ele>
        <time>2024-03-21T13:09:02Z</time>
      </trkpt>
      <trkpt lat="43.64212" lon="3.32722">
        <ele>143</ele>
        <time>2024-03-21T13:09:03Z</time>
      </trkpt>
      <trkpt lat="43.64211" lon="3.32718">
        <ele>142.5</ele>
        <time>2024-03-21T13:09:04Z</time>
      </trkpt>
      <trkpt lat="43.64209" lon="3.32714">
        <ele>142.1</ele>
        <time>2024-03-21T13:09:05Z</time>
      </trkpt>
      <trkpt lat="43.64207" lon="3.32711">
        <ele>141.8</ele>
        <time>2024-03-21T13:09:06Z</time>
      </trkpt>
      <trkpt lat="43.64204" lon="3.32709">
        <ele>141.7</ele>
        <time>2024-03-21T13:09:07Z</time>
      </trkpt>
      <trkpt lat="43.64202" lon="3.32706">
        <ele>141.5</ele>
        <time>2024-03-21T13:09:08Z</time>
      </trkpt>
      <trkpt lat="43.64199" lon="3.32704">
        <ele>141.5</ele>
        <time>2024-03-21T13:09:09Z</time>
      </trkpt>
      <trkpt lat="43.64195" lon="3.327">
        <ele>141.4</ele>
        <time>2024-03-21T13:09:11Z</time>
      </trkpt>
      <trkpt lat="43.64194" lon="3.32697">
        <ele>141.2</ele>
        <time>2024-03-21T13:09:12Z</time>
      </trkpt>
      <trkpt lat="43.64193" lon="3.32695">
        <ele>141</ele>
        <time>2024-03-21T13:09:13Z</time>
      </trkpt>
      <trkpt lat="43.64193" lon="3.32689">
        <ele>140.6</ele>
        <time>2024-03-21T13:09:15Z</time>
      </trkpt>
      <trkpt lat="43.64194" lon="3.32687">
        <ele>140.5</ele>
        <time>2024-03-21T13:09:16Z</time>
      </trkpt>
      <trkpt lat="43.64194" lon="3.3268">
        <ele>140</ele>
        <time>2024-03-21T13:09:18Z</time>
      </trkpt>
      <trkpt lat="43.64195" lon="3.32677">
        <ele>139.7</ele>
        <time>2024-03-21T13:09:19Z</time>
      </trkpt>
      <trkpt lat="43.64195" lon="3.3267">
        <ele>139.3</ele>
        <time>2024-03-21T13:09:23Z</time>
      </trkpt>
      <trkpt lat="43.64194" lon="3.32669">
        <ele>139.2</ele>
        <time>2024-03-21T13:09:24Z</time>
      </trkpt>
      <trkpt lat="43.64194" lon="3.32667">
        <ele>139</ele>
        <time>2024-03-21T13:09:28Z</time>
      </trkpt>
      <trkpt lat="43.64194" lon="3.32668">
        <ele>139.1</ele>
        <time>2024-03-21T13:09:30Z</time>
      </trkpt>
      <trkpt lat="43.64194" lon="3.32667">
        <ele>139</ele>
        <time>2024-03-21T13:09:32Z</time>
      </trkpt>
      <trkpt lat="43.64193" lon="3.32664">
        <ele>139.1</ele>
        <time>2024-03-21T13:09:33Z</time>
      </trkpt>
      <trkpt lat="43.64193" lon="3.32648">
        <ele>139.1</ele>
        <time>2024-03-21T13:09:41Z</time>
      </trkpt>
      <trkpt lat="43.64194" lon="3.32646">
        <ele>139</ele>
        <time>2024-03-21T13:09:42Z</time>
      </trkpt>
      <trkpt lat="43.64194" lon="3.32644">
        <ele>139</ele>
        <time>2024-03-21T13:09:43Z</time>
      </trkpt>
      <trkpt lat="43.64195" lon="3.32642">
        <ele>139</ele>
        <time>2024-03-21T13:09:44Z</time>
      </trkpt>
      <trkpt lat="43.64196" lon="3.32638">
        <ele>139.1</ele>
        <time>2024-03-21T13:09:45Z</time>
      </trkpt>
      <trkpt lat="43.64196" lon="3.32617">
        <ele>139.9</ele>
        <time>2024-03-21T13:09:49Z</time>
      </trkpt>
      <trkpt lat="43.64197" lon="3.32611">
        <ele>140.1</ele>
        <time>2024-03-21T13:09:50Z</time>
      </trkpt>
      <trkpt lat="43.64199" lon="3.32604">
        <ele>140.4</ele>
        <time>2024-03-21T13:09:51Z</time>
      </trkpt>
      <trkpt lat="43.64201" lon="3.32598">
        <ele>140.6</ele>
        <time>2024-03-21T13:09:52Z</time>
      </trkpt>
      <trkpt lat="43.64203" lon="3.32591">
        <ele>140.8</ele>
        <time>2024-03-21T13:09:53Z</time>
      </trkpt>
      <trkpt lat="43.64204" lon="3.32585">
        <ele>141</ele>
        <time>2024-03-21T13:09:54Z</time>
      </trkpt>
      <trkpt lat="43.64206" lon="3.32579">
        <ele>141</ele>
        <time>2024-03-21T13:09:55Z</time>
      </trkpt>
      <trkpt lat="43.64208" lon="3.32572">
        <ele>141</ele>
        <time>2024-03-21T13:09:56Z</time>
      </trkpt>
      <trkpt lat="43.64209" lon="3.32566">
        <ele>141</ele>
        <time>2024-03-21T13:09:57Z</time>
      </trkpt>
      <trkpt lat="43.64211" lon="3.3256">
        <ele>141</ele>
        <time>2024-03-21T13:09:58Z</time>
      </trkpt>
      <trkpt lat="43.64212" lon="3.32554">
        <ele>141</ele>
        <time>2024-03-21T13:09:59Z</time>
      </trkpt>
      <trkpt lat="43.64214" lon="3.32549">
        <ele>141</ele>
        <time>2024-03-21T13:10:00Z</time>
      </trkpt>
      <trkpt lat="43.64216" lon="3.32543">
        <ele>141</ele>
        <time>2024-03-21T13:10:01Z</time>
      </trkpt>
      <trkpt lat="43.64217" lon="3.32538">
        <ele>141</ele>
        <time>2024-03-21T13:10:02Z</time>
      </trkpt>
      <trkpt lat="43.64219" lon="3.3253">
        <ele>141</ele>
        <time>2024-03-21T13:10:04Z</time>
      </trkpt>
      <trkpt lat="43.6422" lon="3.32527">
        <ele>141</ele>
        <time>2024-03-21T13:10:05Z</time>
      </trkpt>
      <trkpt lat="43.64221" lon="3.32522">
        <ele>141</ele>
        <time>2024-03-21T13:10:06Z</time>
      </trkpt>
      <trkpt lat="43.64224" lon="3.3251">
        <ele>141</ele>
        <time>2024-03-21T13:10:09Z</time>
      </trkpt>
      <trkpt lat="43.64226" lon="3.32504">
        <ele>141</ele>
        <time>2024-03-21T13:10:11Z</time>
      </trkpt>
      <trkpt lat="43.64226" lon="3.325">
        <ele>141</ele>
        <time>2024-03-21T13:10:12Z</time>
      </trkpt>
      <trkpt lat="43.64228" lon="3.32497">
        <ele>141</ele>
        <time>2024-03-21T13:10:13Z</time>
      </trkpt>
      <trkpt lat="43.64231" lon="3.32491">
        <ele>141</ele>
        <time>2024-03-21T13:10:15Z</time>
      </trkpt>
      <trkpt lat="43.64232" lon="3.32488">
        <ele>141</ele>
        <time>2024-03-21T13:10:16Z</time>
      </trkpt>
      <trkpt lat="43.64234" lon="3.32484">
        <ele>141</ele>
        <time>2024-03-21T13:10:17Z</time>
      </trkpt>
      <trkpt lat="43.64235" lon="3.3248">
        <ele>141</ele>
        <time>2024-03-21T13:10:18Z</time>
      </trkpt>
      <trkpt lat="43.64236" lon="3.32477">
        <ele>141</ele>
        <time>2024-03-21T13:10:19Z</time>
      </trkpt>
      <trkpt lat="43.64238" lon="3.32473">
        <ele>141</ele>
        <time>2024-03-21T13:10:20Z</time>
      </trkpt>
      <trkpt lat="43.64239" lon="3.3247">
        <ele>141</ele>
        <time>2024-03-21T13:10:21Z</time>
      </trkpt>
      <trkpt lat="43.64241" lon="3.32466">
        <ele>141.1</ele>
        <time>2024-03-21T13:10:22Z</time>
      </trkpt>
      <trkpt lat="43.64242" lon="3.32463">
        <ele>141.1</ele>
        <time>2024-03-21T13:10:23Z</time>
      </trkpt>
      <trkpt lat="43.64244" lon="3.32459">
        <ele>141.1</ele>
        <time>2024-03-21T13:10:24Z</time>
      </trkpt>
      <trkpt lat="43.64245" lon="3.32456">
        <ele>141.1</ele>
        <time>2024-03-21T13:10:25Z</time>
      </trkpt>
      <trkpt lat="43.64247" lon="3.32453">
        <ele>141.1</ele>
        <time>2024-03-21T13:10:26Z</time>
      </trkpt>
      <trkpt lat="43.64248" lon="3.32449">
        <ele>141.1</ele>
        <time>2024-03-21T13:10:27Z</time>
      </trkpt>
      <trkpt lat="43.6425" lon="3.32445">
        <ele>141</ele>
        <time>2024-03-21T13:10:28Z</time>
      </trkpt>
      <trkpt lat="43.64252" lon="3.32437">
        <ele>141.2</ele>
        <time>2024-03-21T13:10:30Z</time>
      </trkpt>
      <trkpt lat="43.64254" lon="3.32433">
        <ele>141.4</ele>
        <time>2024-03-21T13:10:31Z</time>
      </trkpt>
      <trkpt lat="43.64255" lon="3.3243">
        <ele>141.4</ele>
        <time>2024-03-21T13:10:32Z</time>
      </trkpt>
      <trkpt lat="43.64255" lon="3.32426">
        <ele>141.5</ele>
        <time>2024-03-21T13:10:33Z</time>
      </trkpt>
      <trkpt lat="43.64256" lon="3.32423">
        <ele>141.6</ele>
        <time>2024-03-21T13:10:34Z</time>
      </trkpt>
      <trkpt lat="43.64257" lon="3.32419">
        <ele>141.7</ele>
        <time>2024-03-21T13:10:35Z</time>
      </trkpt>
      <trkpt lat="43.64258" lon="3.32416">
        <ele>141.7</ele>
        <time>2024-03-21T13:10:36Z</time>
      </trkpt>
      <trkpt lat="43.64258" lon="3.32412">
        <ele>141.9</ele>
        <time>2024-03-21T13:10:37Z</time>
      </trkpt>
      <trkpt lat="43.64261" lon="3.32403">
        <ele>142.1</ele>
        <time>2024-03-21T13:10:40Z</time>
      </trkpt>
      <trkpt lat="43.64261" lon="3.324">
        <ele>142.2</ele>
        <time>2024-03-21T13:10:41Z</time>
      </trkpt>
      <trkpt lat="43.64262" lon="3.32396">
        <ele>142.3</ele>
        <time>2024-03-21T13:10:42Z</time>
      </trkpt>
      <trkpt lat="43.64266" lon="3.3239">
        <ele>142.4</ele>
        <time>2024-03-21T13:10:44Z</time>
      </trkpt>
      <trkpt lat="43.64267" lon="3.32386">
        <ele>142.6</ele>
        <time>2024-03-21T13:10:45Z</time>
      </trkpt>
      <trkpt lat="43.64268" lon="3.32383">
        <ele>142.8</ele>
        <time>2024-03-21T13:10:46Z</time>
      </trkpt>
      <trkpt lat="43.64272" lon="3.32375">
        <ele>143.2</ele>
        <time>2024-03-21T13:10:48Z</time>
      </trkpt>
      <trkpt lat="43.64274" lon="3.32373">
        <ele>143.3</ele>
        <time>2024-03-21T13:10:49Z</time>
      </trkpt>
      <trkpt lat="43.64276" lon="3.3237">
        <ele>143.4</ele>
        <time>2024-03-21T13:10:50Z</time>
      </trkpt>
      <trkpt lat="43.64279" lon="3.32368">
        <ele>143.4</ele>
        <time>2024-03-21T13:10:51Z</time>
      </trkpt>
      <trkpt lat="43.64285" lon="3.32359">
        <ele>143.7</ele>
        <time>2024-03-21T13:10:54Z</time>
      </trkpt>
      <trkpt lat="43.64288" lon="3.32357">
        <ele>143.7</ele>
        <time>2024-03-21T13:10:55Z</time>
      </trkpt>
      <trkpt lat="43.6429" lon="3.32354">
        <ele>143.8</ele>
        <time>2024-03-21T13:10:56Z</time>
      </trkpt>
      <trkpt lat="43.64293" lon="3.3235">
        <ele>143.9</ele>
        <time>2024-03-21T13:10:57Z</time>
      </trkpt>
      <trkpt lat="43.64299" lon="3.32341">
        <ele>144.1</ele>
        <time>2024-03-21T13:11:00Z</time>
      </trkpt>
      <trkpt lat="43.64301" lon="3.32337">
        <ele>144.2</ele>
        <time>2024-03-21T13:11:01Z</time>
      </trkpt>
      <trkpt lat="43.64303" lon="3.32334">
        <ele>144.2</ele>
        <time>2024-03-21T13:11:02Z</time>
      </trkpt>
      <trkpt lat="43.64305" lon="3.3233">
        <ele>144.5</ele>
        <time>2024-03-21T13:11:03Z</time>
      </trkpt>
      <trkpt lat="43.64307" lon="3.32327">
        <ele>144.8</ele>
        <time>2024-03-21T13:11:04Z</time>
      </trkpt>
      <trkpt lat="43.64309" lon="3.32323">
        <ele>145.1</ele>
        <time>2024-03-21T13:11:05Z</time>
      </trkpt>
      <trkpt lat="43.64311" lon="3.3232">
        <ele>145.2</ele>
        <time>2024-03-21T13:11:06Z</time>
      </trkpt>
      <trkpt lat="43.64312" lon="3.32316">
        <ele>145.6</ele>
        <time>2024-03-21T13:11:07Z</time>
      </trkpt>
      <trkpt lat="43.64314" lon="3.32313">
        <ele>145.7</ele>
        <time>2024-03-21T13:11:08Z</time>
      </trkpt>
      <trkpt lat="43.64315" lon="3.32308">
        <ele>146</ele>
        <time>2024-03-21T13:11:09Z</time>
      </trkpt>
      <trkpt lat="43.64316" lon="3.32304">
        <ele>146.2</ele>
        <time>2024-03-21T13:11:10Z</time>
      </trkpt>
      <trkpt lat="43.64318" lon="3.32299">
        <ele>146</ele>
        <time>2024-03-21T13:11:11Z</time>
      </trkpt>
      <trkpt lat="43.64318" lon="3.32285">
        <ele>146.6</ele>
        <time>2024-03-21T13:11:14Z</time>
      </trkpt>
      <trkpt lat="43.64319" lon="3.3228">
        <ele>146.5</ele>
        <time>2024-03-21T13:11:15Z</time>
      </trkpt>
      <trkpt lat="43.64319" lon="3.3226">
        <ele>146.9</ele>
        <time>2024-03-21T13:11:19Z</time>
      </trkpt>
      <trkpt lat="43.64318" lon="3.32255">
        <ele>147.3</ele>
        <time>2024-03-21T13:11:20Z</time>
      </trkpt>
      <trkpt lat="43.64318" lon="3.3224">
        <ele>147.6</ele>
        <time>2024-03-21T13:11:23Z</time>
      </trkpt>
      <trkpt lat="43.64319" lon="3.32235">
        <ele>147.4</ele>
        <time>2024-03-21T13:11:24Z</time>
      </trkpt>
      <trkpt lat="43.64321" lon="3.32223">
        <ele>147.1</ele>
        <time>2024-03-21T13:11:26Z</time>
      </trkpt>
      <trkpt lat="43.64321" lon="3.32218">
        <ele>147.1</ele>
        <time>2024-03-21T13:11:27Z</time>
      </trkpt>
      <trkpt lat="43.64323" lon="3.32206">
        <ele>146.6</ele>
        <time>2024-03-21T13:11:29Z</time>
      </trkpt>
      <trkpt lat="43.64325" lon="3.32201">
        <ele>146.1</ele>
        <time>2024-03-21T13:11:30Z</time>
      </trkpt>
      <trkpt lat="43.64326" lon="3.32195">
        <ele>145.8</ele>
        <time>2024-03-21T13:11:31Z</time>
      </trkpt>
      <trkpt lat="43.64328" lon="3.3219">
        <ele>145.5</ele>
        <time>2024-03-21T13:11:32Z</time>
      </trkpt>
      <trkpt lat="43.6433" lon="3.32184">
        <ele>145.2</ele>
        <time>2024-03-21T13:11:33Z</time>
      </trkpt>
      <trkpt lat="43.6433" lon="3.32172">
        <ele>145.6</ele>
        <time>2024-03-21T13:11:35Z</time>
      </trkpt>
      <trkpt lat="43.64329" lon="3.32167">
        <ele>146.1</ele>
        <time>2024-03-21T13:11:36Z</time>
      </trkpt>
      <trkpt lat="43.64329" lon="3.32162">
        <ele>146.1</ele>
        <time>2024-03-21T13:11:37Z</time>
      </trkpt>
      <trkpt lat="43.64328" lon="3.32158">
        <ele>146.3</ele>
        <time>2024-03-21T13:11:38Z</time>
      </trkpt>
      <trkpt lat="43.64326" lon="3.32154">
        <ele>146.7</ele>
        <time>2024-03-21T13:11:39Z</time>
      </trkpt>
      <trkpt lat="43.64324" lon="3.32144">
        <ele>147.1</ele>
        <time>2024-03-21T13:11:41Z</time>
      </trkpt>
      <trkpt lat="43.64324" lon="3.32139">
        <ele>147</ele>
        <time>2024-03-21T13:11:42Z</time>
      </trkpt>
      <trkpt lat="43.64323" lon="3.32134">
        <ele>147.2</ele>
        <time>2024-03-21T13:11:43Z</time>
      </trkpt>
      <trkpt lat="43.64323" lon="3.32129">
        <ele>147.1</ele>
        <time>2024-03-21T13:11:44Z</time>
      </trkpt>
      <trkpt lat="43.64321" lon="3.32121">
        <ele>147.4</ele>
        <time>2024-03-21T13:11:46Z</time>
      </trkpt>
      <trkpt lat="43.64319" lon="3.32117">
        <ele>147.7</ele>
        <time>2024-03-21T13:11:47Z</time>
      </trkpt>
      <trkpt lat="43.64319" lon="3.32113">
        <ele>147.6</ele>
        <time>2024-03-21T13:11:48Z</time>
      </trkpt>
      <trkpt lat="43.64318" lon="3.32108">
        <ele>147.7</ele>
        <time>2024-03-21T13:11:49Z</time>
      </trkpt>
      <trkpt lat="43.64317" lon="3.32104">
        <ele>147.8</ele>
        <time>2024-03-21T13:11:50Z</time>
      </trkpt>
      <trkpt lat="43.64316" lon="3.32098">
        <ele>147.8</ele>
        <time>2024-03-21T13:11:51Z</time>
      </trkpt>
      <trkpt lat="43.64316" lon="3.32086">
        <ele>147.6</ele>
        <time>2024-03-21T13:11:53Z</time>
      </trkpt>
      <trkpt lat="43.64317" lon="3.32079">
        <ele>147.4</ele>
        <time>2024-03-21T13:11:54Z</time>
      </trkpt>
      <trkpt lat="43.64318" lon="3.32073">
        <ele>147.2</ele>
        <time>2024-03-21T13:11:55Z</time>
      </trkpt>
      <trkpt lat="43.64319" lon="3.32068">
        <ele>147.1</ele>
        <time>2024-03-21T13:11:56Z</time>
      </trkpt>
      <trkpt lat="43.6432" lon="3.32062">
        <ele>146.9</ele>
        <time>2024-03-21T13:11:57Z</time>
      </trkpt>
      <trkpt lat="43.64321" lon="3.32057">
        <ele>146.8</ele>
        <time>2024-03-21T13:11:58Z</time>
      </trkpt>
      <trkpt lat="43.64323" lon="3.32052">
        <ele>146.6</ele>
        <time>2024-03-21T13:11:59Z</time>
      </trkpt>
      <trkpt lat="43.64324" lon="3.32047">
        <ele>146.7</ele>
        <time>2024-03-21T13:12:00Z</time>
      </trkpt>
      <trkpt lat="43.64328" lon="3.32037">
        <ele>146.4</ele>
        <time>2024-03-21T13:12:02Z</time>
      </trkpt>
      <trkpt lat="43.64331" lon="3.32025">
        <ele>146.4</ele>
        <time>2024-03-21T13:12:05Z</time>
      </trkpt>
      <trkpt lat="43.64334" lon="3.32023">
        <ele>146.2</ele>
        <time>2024-03-21T13:12:06Z</time>
      </trkpt>
      <trkpt lat="43.64336" lon="3.32019">
        <ele>146.3</ele>
        <time>2024-03-21T13:12:07Z</time>
      </trkpt>
      <trkpt lat="43.64338" lon="3.32014">
        <ele>146.4</ele>
        <time>2024-03-21T13:12:08Z</time>
      </trkpt>
      <trkpt lat="43.64338" lon="3.3201">
        <ele>146.5</ele>
        <time>2024-03-21T13:12:09Z</time>
      </trkpt>
      <trkpt lat="43.6434" lon="3.32005">
        <ele>146.6</ele>
        <time>2024-03-21T13:12:10Z</time>
      </trkpt>
      <trkpt lat="43.64341" lon="3.32001">
        <ele>146.7</ele>
        <time>2024-03-21T13:12:11Z</time>
      </trkpt>
      <trkpt lat="43.64341" lon="3.31996">
        <ele>146.8</ele>
        <time>2024-03-21T13:12:12Z</time>
      </trkpt>
      <trkpt lat="43.64342" lon="3.3199">
        <ele>146.8</ele>
        <time>2024-03-21T13:12:13Z</time>
      </trkpt>
      <trkpt lat="43.64343" lon="3.31985">
        <ele>146.8</ele>
        <time>2024-03-21T13:12:14Z</time>
      </trkpt>
      <trkpt lat="43.64343" lon="3.31975">
        <ele>147</ele>
        <time>2024-03-21T13:12:16Z</time>
      </trkpt>
      <trkpt lat="43.64342" lon="3.31971">
        <ele>147</ele>
        <time>2024-03-21T13:12:17Z</time>
      </trkpt>
      <trkpt lat="43.64341" lon="3.31966">
        <ele>147.2</ele>
        <time>2024-03-21T13:12:18Z</time>
      </trkpt>
      <trkpt lat="43.64339" lon="3.31958">
        <ele>147.5</ele>
        <time>2024-03-21T13:12:20Z</time>
      </trkpt>
      <trkpt lat="43.64339" lon="3.31949">
        <ele>147.8</ele>
        <time>2024-03-21T13:12:22Z</time>
      </trkpt>
      <trkpt lat="43.64342" lon="3.31934">
        <ele>148.3</ele>
        <time>2024-03-21T13:12:25Z</time>
      </trkpt>
      <trkpt lat="43.64342" lon="3.31923">
        <ele>148.5</ele>
        <time>2024-03-21T13:12:27Z</time>
      </trkpt>
      <trkpt lat="43.64343" lon="3.31919">
        <ele>148.6</ele>
        <time>2024-03-21T13:12:28Z</time>
      </trkpt>
      <trkpt lat="43.64345" lon="3.31914">
        <ele>148.7</ele>
        <time>2024-03-21T13:12:29Z</time>
      </trkpt>
      <trkpt lat="43.64346" lon="3.31909">
        <ele>148.8</ele>
        <time>2024-03-21T13:12:30Z</time>
      </trkpt>
      <trkpt lat="43.64348" lon="3.31904">
        <ele>148.9</ele>
        <time>2024-03-21T13:12:31Z</time>
      </trkpt>
      <trkpt lat="43.6435" lon="3.31894">
        <ele>149.2</ele>
        <time>2024-03-21T13:12:33Z</time>
      </trkpt>
      <trkpt lat="43.64351" lon="3.31888">
        <ele>149.4</ele>
        <time>2024-03-21T13:12:34Z</time>
      </trkpt>
      <trkpt lat="43.64352" lon="3.31884">
        <ele>149.5</ele>
        <time>2024-03-21T13:12:35Z</time>
      </trkpt>
      <trkpt lat="43.64354" lon="3.31879">
        <ele>149.6</ele>
        <time>2024-03-21T13:12:36Z</time>
      </trkpt>
      <trkpt lat="43.64355" lon="3.31876">
        <ele>149.7</ele>
        <time>2024-03-21T13:12:37Z</time>
      </trkpt>
      <trkpt lat="43.64356" lon="3.31872">
        <ele>149.8</ele>
        <time>2024-03-21T13:12:38Z</time>
      </trkpt>
      <trkpt lat="43.64358" lon="3.31868">
        <ele>149.9</ele>
        <time>2024-03-21T13:12:39Z</time>
      </trkpt>
      <trkpt lat="43.6436" lon="3.3186">
        <ele>150.1</ele>
        <time>2024-03-21T13:12:41Z</time>
      </trkpt>
      <trkpt lat="43.64362" lon="3.31855">
        <ele>150.2</ele>
        <time>2024-03-21T13:12:42Z</time>
      </trkpt>
      <trkpt lat="43.64366" lon="3.31847">
        <ele>150.2</ele>
        <time>2024-03-21T13:12:44Z</time>
      </trkpt>
      <trkpt lat="43.64367" lon="3.31843">
        <ele>150.4</ele>
        <time>2024-03-21T13:12:45Z</time>
      </trkpt>
      <trkpt lat="43.64369" lon="3.31839">
        <ele>150.5</ele>
        <time>2024-03-21T13:12:46Z</time>
      </trkpt>
      <trkpt lat="43.6437" lon="3.31836">
        <ele>150.6</ele>
        <time>2024-03-21T13:12:47Z</time>
      </trkpt>
      <trkpt lat="43.64372" lon="3.31828">
        <ele>150.8</ele>
        <time>2024-03-21T13:12:49Z</time>
      </trkpt>
      <trkpt lat="43.64376" lon="3.3182">
        <ele>150.9</ele>
        <time>2024-03-21T13:12:51Z</time>
      </trkpt>
      <trkpt lat="43.64379" lon="3.31808">
        <ele>151.3</ele>
        <time>2024-03-21T13:12:54Z</time>
      </trkpt>
      <trkpt lat="43.64382" lon="3.31804">
        <ele>151.3</ele>
        <time>2024-03-21T13:12:55Z</time>
      </trkpt>
      <trkpt lat="43.64386" lon="3.31796">
        <ele>151.5</ele>
        <time>2024-03-21T13:12:57Z</time>
      </trkpt>
      <trkpt lat="43.64387" lon="3.31793">
        <ele>151.6</ele>
        <time>2024-03-21T13:12:58Z</time>
      </trkpt>
      <trkpt lat="43.64389" lon="3.3179">
        <ele>151.6</ele>
        <time>2024-03-21T13:12:59Z</time>
      </trkpt>
      <trkpt lat="43.6439" lon="3.31787">
        <ele>151.6</ele>
        <time>2024-03-21T13:13:00Z</time>
      </trkpt>
      <trkpt lat="43.6439" lon="3.31783">
        <ele>151.7</ele>
        <time>2024-03-21T13:13:01Z</time>
      </trkpt>
      <trkpt lat="43.64388" lon="3.31777">
        <ele>152.1</ele>
        <time>2024-03-21T13:13:03Z</time>
      </trkpt>
      <trkpt lat="43.64384" lon="3.31773">
        <ele>152.5</ele>
        <time>2024-03-21T13:13:05Z</time>
      </trkpt>
      <trkpt lat="43.64381" lon="3.31771">
        <ele>152.8</ele>
        <time>2024-03-21T13:13:06Z</time>
      </trkpt>
      <trkpt lat="43.64372" lon="3.31768">
        <ele>153.6</ele>
        <time>2024-03-21T13:13:09Z</time>
      </trkpt>
      <trkpt lat="43.6437" lon="3.31766">
        <ele>153.8</ele>
        <time>2024-03-21T13:13:10Z</time>
      </trkpt>
      <trkpt lat="43.64368" lon="3.31763">
        <ele>154</ele>
        <time>2024-03-21T13:13:11Z</time>
      </trkpt>
      <trkpt lat="43.64365" lon="3.3176">
        <ele>154.4</ele>
        <time>2024-03-21T13:13:12Z</time>
      </trkpt>
      <trkpt lat="43.64363" lon="3.31752">
        <ele>154.8</ele>
        <time>2024-03-21T13:13:14Z</time>
      </trkpt>
      <trkpt lat="43.64363" lon="3.31743">
        <ele>155.1</ele>
        <time>2024-03-21T13:13:16Z</time>
      </trkpt>
      <trkpt lat="43.64365" lon="3.31739">
        <ele>155.1</ele>
        <time>2024-03-21T13:13:17Z</time>
      </trkpt>
      <trkpt lat="43.64367" lon="3.31731">
        <ele>155.3</ele>
        <time>2024-03-21T13:13:19Z</time>
      </trkpt>
      <trkpt lat="43.64368" lon="3.31726">
        <ele>155.4</ele>
        <time>2024-03-21T13:13:20Z</time>
      </trkpt>
      <trkpt lat="43.6437" lon="3.31718">
        <ele>155.5</ele>
        <time>2024-03-21T13:13:22Z</time>
      </trkpt>
      <trkpt lat="43.64371" lon="3.31713">
        <ele>155.6</ele>
        <time>2024-03-21T13:13:23Z</time>
      </trkpt>
      <trkpt lat="43.64371" lon="3.31708">
        <ele>155.8</ele>
        <time>2024-03-21T13:13:24Z</time>
      </trkpt>
      <trkpt lat="43.64373" lon="3.31704">
        <ele>155.8</ele>
        <time>2024-03-21T13:13:25Z</time>
      </trkpt>
      <trkpt lat="43.64375" lon="3.31694">
        <ele>156</ele>
        <time>2024-03-21T13:13:27Z</time>
      </trkpt>
      <trkpt lat="43.64377" lon="3.3169">
        <ele>155.9</ele>
        <time>2024-03-21T13:13:28Z</time>
      </trkpt>
      <trkpt lat="43.64378" lon="3.31685">
        <ele>155.9</ele>
        <time>2024-03-21T13:13:29Z</time>
      </trkpt>
      <trkpt lat="43.64379" lon="3.31681">
        <ele>155.9</ele>
        <time>2024-03-21T13:13:30Z</time>
      </trkpt>
      <trkpt lat="43.6438" lon="3.31676">
        <ele>155.9</ele>
        <time>2024-03-21T13:13:31Z</time>
      </trkpt>
      <trkpt lat="43.64382" lon="3.31672">
        <ele>155.7</ele>
        <time>2024-03-21T13:13:32Z</time>
      </trkpt>
      <trkpt lat="43.64384" lon="3.31667">
        <ele>155.5</ele>
        <time>2024-03-21T13:13:33Z</time>
      </trkpt>
      <trkpt lat="43.64385" lon="3.31663">
        <ele>155.6</ele>
        <time>2024-03-21T13:13:34Z</time>
      </trkpt>
      <trkpt lat="43.64386" lon="3.31658">
        <ele>155.6</ele>
        <time>2024-03-21T13:13:35Z</time>
      </trkpt>
      <trkpt lat="43.64386" lon="3.31647">
        <ele>156</ele>
        <time>2024-03-21T13:13:37Z</time>
      </trkpt>
      <trkpt lat="43.64387" lon="3.31642">
        <ele>156.1</ele>
        <time>2024-03-21T13:13:38Z</time>
      </trkpt>
      <trkpt lat="43.64387" lon="3.31631">
        <ele>156.2</ele>
        <time>2024-03-21T13:13:40Z</time>
      </trkpt>
      <trkpt lat="43.64388" lon="3.31626">
        <ele>156.1</ele>
        <time>2024-03-21T13:13:41Z</time>
      </trkpt>
      <trkpt lat="43.6439" lon="3.31621">
        <ele>155.9</ele>
        <time>2024-03-21T13:13:42Z</time>
      </trkpt>
      <trkpt lat="43.6439" lon="3.31616">
        <ele>155.9</ele>
        <time>2024-03-21T13:13:43Z</time>
      </trkpt>
      <trkpt lat="43.64394" lon="3.31596">
        <ele>156</ele>
        <time>2024-03-21T13:13:47Z</time>
      </trkpt>
      <trkpt lat="43.64396" lon="3.31593">
        <ele>155.9</ele>
        <time>2024-03-21T13:13:48Z</time>
      </trkpt>
      <trkpt lat="43.64398" lon="3.31588">
        <ele>155.8</ele>
        <time>2024-03-21T13:13:49Z</time>
      </trkpt>
      <trkpt lat="43.64399" lon="3.31584">
        <ele>155.9</ele>
        <time>2024-03-21T13:13:50Z</time>
      </trkpt>
      <trkpt lat="43.64401" lon="3.31579">
        <ele>155.8</ele>
        <time>2024-03-21T13:13:51Z</time>
      </trkpt>
      <trkpt lat="43.64402" lon="3.31574">
        <ele>155.9</ele>
        <time>2024-03-21T13:13:52Z</time>
      </trkpt>
      <trkpt lat="43.64402" lon="3.31569">
        <ele>156.1</ele>
        <time>2024-03-21T13:13:53Z</time>
      </trkpt>
      <trkpt lat="43.64404" lon="3.31564">
        <ele>156.1</ele>
        <time>2024-03-21T13:13:54Z</time>
      </trkpt>
      <trkpt lat="43.64405" lon="3.31558">
        <ele>156.2</ele>
        <time>2024-03-21T13:13:55Z</time>
      </trkpt>
      <trkpt lat="43.64407" lon="3.31548">
        <ele>156.1</ele>
        <time>2024-03-21T13:13:57Z</time>
      </trkpt>
      <trkpt lat="43.64409" lon="3.31544">
        <ele>155.9</ele>
        <time>2024-03-21T13:13:58Z</time>
      </trkpt>
      <trkpt lat="43.6441" lon="3.31539">
        <ele>155.9</ele>
        <time>2024-03-21T13:13:59Z</time>
      </trkpt>
      <trkpt lat="43.64412" lon="3.31534">
        <ele>155.6</ele>
        <time>2024-03-21T13:14:00Z</time>
      </trkpt>
      <trkpt lat="43.64413" lon="3.31528">
        <ele>155.5</ele>
        <time>2024-03-21T13:14:01Z</time>
      </trkpt>
      <trkpt lat="43.64412" lon="3.31522">
        <ele>155.9</ele>
        <time>2024-03-21T13:14:02Z</time>
      </trkpt>
      <trkpt lat="43.64412" lon="3.31516">
        <ele>156.1</ele>
        <time>2024-03-21T13:14:03Z</time>
      </trkpt>
      <trkpt lat="43.64411" lon="3.3151">
        <ele>156.5</ele>
        <time>2024-03-21T13:14:04Z</time>
      </trkpt>
      <trkpt lat="43.64412" lon="3.31504">
        <ele>156.5</ele>
        <time>2024-03-21T13:14:05Z</time>
      </trkpt>
      <trkpt lat="43.64412" lon="3.31499">
        <ele>156.7</ele>
        <time>2024-03-21T13:14:06Z</time>
      </trkpt>
      <trkpt lat="43.64413" lon="3.31494">
        <ele>156.7</ele>
        <time>2024-03-21T13:14:07Z</time>
      </trkpt>
      <trkpt lat="43.64413" lon="3.31479">
        <ele>157.3</ele>
        <time>2024-03-21T13:14:10Z</time>
      </trkpt>
      <trkpt lat="43.64412" lon="3.31474">
        <ele>157.6</ele>
        <time>2024-03-21T13:14:11Z</time>
      </trkpt>
      <trkpt lat="43.64412" lon="3.3147">
        <ele>157.7</ele>
        <time>2024-03-21T13:14:12Z</time>
      </trkpt>
      <trkpt lat="43.64411" lon="3.31465">
        <ele>157.8</ele>
        <time>2024-03-21T13:14:13Z</time>
      </trkpt>
      <trkpt lat="43.64411" lon="3.31453">
        <ele>157.8</ele>
        <time>2024-03-21T13:14:15Z</time>
      </trkpt>
      <trkpt lat="43.6441" lon="3.31447">
        <ele>158</ele>
        <time>2024-03-21T13:14:16Z</time>
      </trkpt>
      <trkpt lat="43.6441" lon="3.31436">
        <ele>158</ele>
        <time>2024-03-21T13:14:18Z</time>
      </trkpt>
      <trkpt lat="43.64409" lon="3.31431">
        <ele>158.1</ele>
        <time>2024-03-21T13:14:19Z</time>
      </trkpt>
      <trkpt lat="43.64408" lon="3.31427">
        <ele>158.2</ele>
        <time>2024-03-21T13:14:20Z</time>
      </trkpt>
      <trkpt lat="43.64408" lon="3.31422">
        <ele>158.2</ele>
        <time>2024-03-21T13:14:21Z</time>
      </trkpt>
      <trkpt lat="43.64406" lon="3.31412">
        <ele>158.5</ele>
        <time>2024-03-21T13:14:23Z</time>
      </trkpt>
      <trkpt lat="43.64406" lon="3.31408">
        <ele>158.5</ele>
        <time>2024-03-21T13:14:24Z</time>
      </trkpt>
      <trkpt lat="43.64405" lon="3.31403">
        <ele>158.7</ele>
        <time>2024-03-21T13:14:25Z</time>
      </trkpt>
      <trkpt lat="43.64405" lon="3.31399">
        <ele>158.7</ele>
        <time>2024-03-21T13:14:26Z</time>
      </trkpt>
      <trkpt lat="43.64404" lon="3.31394">
        <ele>158.8</ele>
        <time>2024-03-21T13:14:27Z</time>
      </trkpt>
      <trkpt lat="43.64404" lon="3.31384">
        <ele>158.6</ele>
        <time>2024-03-21T13:14:29Z</time>
      </trkpt>
      <trkpt lat="43.64403" lon="3.31378">
        <ele>158.6</ele>
        <time>2024-03-21T13:14:30Z</time>
      </trkpt>
      <trkpt lat="43.64403" lon="3.31372">
        <ele>158.4</ele>
        <time>2024-03-21T13:14:31Z</time>
      </trkpt>
      <trkpt lat="43.64402" lon="3.31365">
        <ele>158.3</ele>
        <time>2024-03-21T13:14:32Z</time>
      </trkpt>
      <trkpt lat="43.644" lon="3.31353">
        <ele>158.2</ele>
        <time>2024-03-21T13:14:34Z</time>
      </trkpt>
      <trkpt lat="43.644" lon="3.31346">
        <ele>158.1</ele>
        <time>2024-03-21T13:14:35Z</time>
      </trkpt>
      <trkpt lat="43.64399" lon="3.3134">
        <ele>158.1</ele>
        <time>2024-03-21T13:14:36Z</time>
      </trkpt>
      <trkpt lat="43.64397" lon="3.31335">
        <ele>158.2</ele>
        <time>2024-03-21T13:14:37Z</time>
      </trkpt>
      <trkpt lat="43.64396" lon="3.3133">
        <ele>158.2</ele>
        <time>2024-03-21T13:14:38Z</time>
      </trkpt>
      <trkpt lat="43.64394" lon="3.31326">
        <ele>158.4</ele>
        <time>2024-03-21T13:14:39Z</time>
      </trkpt>
      <trkpt lat="43.64391" lon="3.31321">
        <ele>158.8</ele>
        <time>2024-03-21T13:14:40Z</time>
      </trkpt>
      <trkpt lat="43.64389" lon="3.31317">
        <ele>159</ele>
        <time>2024-03-21T13:14:41Z</time>
      </trkpt>
      <trkpt lat="43.64387" lon="3.31312">
        <ele>159.3</ele>
        <time>2024-03-21T13:14:42Z</time>
      </trkpt>
      <trkpt lat="43.64385" lon="3.31308">
        <ele>159.6</ele>
        <time>2024-03-21T13:14:43Z</time>
      </trkpt>
      <trkpt lat="43.64383" lon="3.31303">
        <ele>159.8</ele>
        <time>2024-03-21T13:14:44Z</time>
      </trkpt>
      <trkpt lat="43.64379" lon="3.31295">
        <ele>160.3</ele>
        <time>2024-03-21T13:14:46Z</time>
      </trkpt>
      <trkpt lat="43.64377" lon="3.3129">
        <ele>160.5</ele>
        <time>2024-03-21T13:14:47Z</time>
      </trkpt>
      <trkpt lat="43.64375" lon="3.31286">
        <ele>160.6</ele>
        <time>2024-03-21T13:14:48Z</time>
      </trkpt>
      <trkpt lat="43.64373" lon="3.31281">
        <ele>160.8</ele>
        <time>2024-03-21T13:14:49Z</time>
      </trkpt>
      <trkpt lat="43.64371" lon="3.31277">
        <ele>160.9</ele>
        <time>2024-03-21T13:14:50Z</time>
      </trkpt>
      <trkpt lat="43.64369" lon="3.31272">
        <ele>161.1</ele>
        <time>2024-03-21T13:14:51Z</time>
      </trkpt>
      <trkpt lat="43.64365" lon="3.31264">
        <ele>161.6</ele>
        <time>2024-03-21T13:14:53Z</time>
      </trkpt>
      <trkpt lat="43.64363" lon="3.31259">
        <ele>161.8</ele>
        <time>2024-03-21T13:14:54Z</time>
      </trkpt>
      <trkpt lat="43.64361" lon="3.31255">
        <ele>162</ele>
        <time>2024-03-21T13:14:55Z</time>
      </trkpt>
      <trkpt lat="43.64357" lon="3.31245">
        <ele>162.6</ele>
        <time>2024-03-21T13:14:57Z</time>
      </trkpt>
      <trkpt lat="43.64355" lon="3.31241">
        <ele>162.8</ele>
        <time>2024-03-21T13:14:58Z</time>
      </trkpt>
      <trkpt lat="43.64352" lon="3.31236">
        <ele>163.1</ele>
        <time>2024-03-21T13:14:59Z</time>
      </trkpt>
      <trkpt lat="43.6435" lon="3.31231">
        <ele>163.3</ele>
        <time>2024-03-21T13:15:00Z</time>
      </trkpt>
      <trkpt lat="43.64349" lon="3.31226">
        <ele>163.4</ele>
        <time>2024-03-21T13:15:01Z</time>
      </trkpt>
      <trkpt lat="43.64345" lon="3.31216">
        <ele>163.6</ele>
        <time>2024-03-21T13:15:03Z</time>
      </trkpt>
      <trkpt lat="43.64343" lon="3.31212">
        <ele>163.8</ele>
        <time>2024-03-21T13:15:04Z</time>
      </trkpt>
      <trkpt lat="43.64341" lon="3.31207">
        <ele>164</ele>
        <time>2024-03-21T13:15:05Z</time>
      </trkpt>
      <trkpt lat="43.64337" lon="3.31199">
        <ele>164.5</ele>
        <time>2024-03-21T13:15:07Z</time>
      </trkpt>
      <trkpt lat="43.64336" lon="3.31195">
        <ele>164.6</ele>
        <time>2024-03-21T13:15:08Z</time>
      </trkpt>
      <trkpt lat="43.64332" lon="3.31185">
        <ele>164.8</ele>
        <time>2024-03-21T13:15:10Z</time>
      </trkpt>
      <trkpt lat="43.6433" lon="3.31178">
        <ele>164.8</ele>
        <time>2024-03-21T13:15:11Z</time>
      </trkpt>
      <trkpt lat="43.64329" lon="3.31173">
        <ele>164.8</ele>
        <time>2024-03-21T13:15:12Z</time>
      </trkpt>
      <trkpt lat="43.64327" lon="3.31167">
        <ele>164.9</ele>
        <time>2024-03-21T13:15:13Z</time>
      </trkpt>
      <trkpt lat="43.64326" lon="3.31162">
        <ele>164.8</ele>
        <time>2024-03-21T13:15:14Z</time>
      </trkpt>
      <trkpt lat="43.64324" lon="3.31157">
        <ele>164.9</ele>
        <time>2024-03-21T13:15:15Z</time>
      </trkpt>
      <trkpt lat="43.64323" lon="3.31151">
        <ele>164.7</ele>
        <time>2024-03-21T13:15:16Z</time>
      </trkpt>
      <trkpt lat="43.64321" lon="3.31145">
        <ele>164.6</ele>
        <time>2024-03-21T13:15:17Z</time>
      </trkpt>
      <trkpt lat="43.6432" lon="3.3114">
        <ele>164.5</ele>
        <time>2024-03-21T13:15:18Z</time>
      </trkpt>
      <trkpt lat="43.64318" lon="3.31134">
        <ele>164.6</ele>
        <time>2024-03-21T13:15:19Z</time>
      </trkpt>
      <trkpt lat="43.64317" lon="3.31127">
        <ele>164.6</ele>
        <time>2024-03-21T13:15:20Z</time>
      </trkpt>
      <trkpt lat="43.64315" lon="3.3112">
        <ele>164.7</ele>
        <time>2024-03-21T13:15:21Z</time>
      </trkpt>
      <trkpt lat="43.64314" lon="3.31114">
        <ele>164.8</ele>
        <time>2024-03-21T13:15:22Z</time>
      </trkpt>
      <trkpt lat="43.64308" lon="3.31096">
        <ele>165.2</ele>
        <time>2024-03-21T13:15:25Z</time>
      </trkpt>
      <trkpt lat="43.64307" lon="3.3109">
        <ele>165.1</ele>
        <time>2024-03-21T13:15:26Z</time>
      </trkpt>
      <trkpt lat="43.64305" lon="3.31085">
        <ele>165.1</ele>
        <time>2024-03-21T13:15:27Z</time>
      </trkpt>
      <trkpt lat="43.64301" lon="3.31073">
        <ele>165.2</ele>
        <time>2024-03-21T13:15:29Z</time>
      </trkpt>
      <trkpt lat="43.64295" lon="3.31052">
        <ele>165.5</ele>
        <time>2024-03-21T13:15:32Z</time>
      </trkpt>
      <trkpt lat="43.64294" lon="3.31045">
        <ele>165.7</ele>
        <time>2024-03-21T13:15:33Z</time>
      </trkpt>
      <trkpt lat="43.64292" lon="3.31039">
        <ele>166</ele>
        <time>2024-03-21T13:15:34Z</time>
      </trkpt>
      <trkpt lat="43.64291" lon="3.31033">
        <ele>166.1</ele>
        <time>2024-03-21T13:15:35Z</time>
      </trkpt>
      <trkpt lat="43.64289" lon="3.31028">
        <ele>166.4</ele>
        <time>2024-03-21T13:15:36Z</time>
      </trkpt>
      <trkpt lat="43.64287" lon="3.31022">
        <ele>166.5</ele>
        <time>2024-03-21T13:15:37Z</time>
      </trkpt>
      <trkpt lat="43.64286" lon="3.31016">
        <ele>166.4</ele>
        <time>2024-03-21T13:15:38Z</time>
      </trkpt>
      <trkpt lat="43.64284" lon="3.3101">
        <ele>166.5</ele>
        <time>2024-03-21T13:15:39Z</time>
      </trkpt>
      <trkpt lat="43.6428" lon="3.3099">
        <ele>166.7</ele>
        <time>2024-03-21T13:15:43Z</time>
      </trkpt>
      <trkpt lat="43.64279" lon="3.30984">
        <ele>166.8</ele>
        <time>2024-03-21T13:15:44Z</time>
      </trkpt>
      <trkpt lat="43.64278" lon="3.30979">
        <ele>167</ele>
        <time>2024-03-21T13:15:45Z</time>
      </trkpt>
      <trkpt lat="43.64277" lon="3.30973">
        <ele>167.1</ele>
        <time>2024-03-21T13:15:46Z</time>
      </trkpt>
      <trkpt lat="43.64277" lon="3.30934">
        <ele>167.1</ele>
        <time>2024-03-21T13:15:52Z</time>
      </trkpt>
      <trkpt lat="43.64276" lon="3.30928">
        <ele>167.3</ele>
        <time>2024-03-21T13:15:53Z</time>
      </trkpt>
      <trkpt lat="43.64276" lon="3.30855">
        <ele>167.2</ele>
        <time>2024-03-21T13:16:05Z</time>
      </trkpt>
      <trkpt lat="43.64274" lon="3.30843">
        <ele>167.4</ele>
        <time>2024-03-21T13:16:07Z</time>
      </trkpt>
      <trkpt lat="43.64273" lon="3.30836">
        <ele>167.5</ele>
        <time>2024-03-21T13:16:08Z</time>
      </trkpt>
      <trkpt lat="43.64269" lon="3.30824">
        <ele>167.9</ele>
        <time>2024-03-21T13:16:10Z</time>
      </trkpt>
      <trkpt lat="43.64266" lon="3.30819">
        <ele>168.3</ele>
        <time>2024-03-21T13:16:11Z</time>
      </trkpt>
      <trkpt lat="43.64264" lon="3.30814">
        <ele>168.5</ele>
        <time>2024-03-21T13:16:12Z</time>
      </trkpt>
      <trkpt lat="43.64261" lon="3.30809">
        <ele>168.8</ele>
        <time>2024-03-21T13:16:13Z</time>
      </trkpt>
      <trkpt lat="43.64259" lon="3.30804">
        <ele>169</ele>
        <time>2024-03-21T13:16:14Z</time>
      </trkpt>
      <trkpt lat="43.64256" lon="3.30799">
        <ele>169.4</ele>
        <time>2024-03-21T13:16:15Z</time>
      </trkpt>
      <trkpt lat="43.64255" lon="3.30794">
        <ele>169.5</ele>
        <time>2024-03-21T13:16:16Z</time>
      </trkpt>
      <trkpt lat="43.64251" lon="3.30784">
        <ele>169.9</ele>
        <time>2024-03-21T13:16:18Z</time>
      </trkpt>
      <trkpt lat="43.6425" lon="3.30779">
        <ele>170</ele>
        <time>2024-03-21T13:16:19Z</time>
      </trkpt>
      <trkpt lat="43.64246" lon="3.30769">
        <ele>171</ele>
        <time>2024-03-21T13:16:21Z</time>
      </trkpt>
      <trkpt lat="43.64245" lon="3.30764">
        <ele>171.3</ele>
        <time>2024-03-21T13:16:22Z</time>
      </trkpt>
      <trkpt lat="43.64245" lon="3.3076">
        <ele>171.4</ele>
        <time>2024-03-21T13:16:23Z</time>
      </trkpt>
      <trkpt lat="43.64244" lon="3.30755">
        <ele>171.7</ele>
        <time>2024-03-21T13:16:24Z</time>
      </trkpt>
      <trkpt lat="43.64243" lon="3.30751">
        <ele>172</ele>
        <time>2024-03-21T13:16:25Z</time>
      </trkpt>
      <trkpt lat="43.64241" lon="3.30741">
        <ele>172.3</ele>
        <time>2024-03-21T13:16:27Z</time>
      </trkpt>
      <trkpt lat="43.64241" lon="3.30718">
        <ele>172.4</ele>
        <time>2024-03-21T13:16:32Z</time>
      </trkpt>
      <trkpt lat="43.64242" lon="3.30714">
        <ele>172.4</ele>
        <time>2024-03-21T13:16:33Z</time>
      </trkpt>
      <trkpt lat="43.64242" lon="3.30706">
        <ele>172.7</ele>
        <time>2024-03-21T13:16:35Z</time>
      </trkpt>
      <trkpt lat="43.64244" lon="3.307">
        <ele>172.7</ele>
        <time>2024-03-21T13:16:37Z</time>
      </trkpt>
      <trkpt lat="43.64246" lon="3.30692">
        <ele>172.6</ele>
        <time>2024-03-21T13:16:39Z</time>
      </trkpt>
      <trkpt lat="43.64248" lon="3.30687">
        <ele>172.3</ele>
        <time>2024-03-21T13:16:40Z</time>
      </trkpt>
      <trkpt lat="43.64249" lon="3.30682">
        <ele>172.2</ele>
        <time>2024-03-21T13:16:41Z</time>
      </trkpt>
      <trkpt lat="43.64251" lon="3.30677">
        <ele>171.9</ele>
        <time>2024-03-21T13:16:42Z</time>
      </trkpt>
      <trkpt lat="43.64253" lon="3.30671">
        <ele>171.7</ele>
        <time>2024-03-21T13:16:43Z</time>
      </trkpt>
      <trkpt lat="43.64254" lon="3.30665">
        <ele>171.6</ele>
        <time>2024-03-21T13:16:44Z</time>
      </trkpt>
      <trkpt lat="43.64253" lon="3.30658">
        <ele>172</ele>
        <time>2024-03-21T13:16:45Z</time>
      </trkpt>
      <trkpt lat="43.64251" lon="3.30648">
        <ele>172.6</ele>
        <time>2024-03-21T13:16:47Z</time>
      </trkpt>
      <trkpt lat="43.6425" lon="3.30642">
        <ele>172.9</ele>
        <time>2024-03-21T13:16:48Z</time>
      </trkpt>
      <trkpt lat="43.6425" lon="3.3063">
        <ele>173.3</ele>
        <time>2024-03-21T13:16:50Z</time>
      </trkpt>
      <trkpt lat="43.64249" lon="3.30625">
        <ele>173.7</ele>
        <time>2024-03-21T13:16:51Z</time>
      </trkpt>
      <trkpt lat="43.64249" lon="3.30613">
        <ele>174.1</ele>
        <time>2024-03-21T13:16:53Z</time>
      </trkpt>
      <trkpt lat="43.64247" lon="3.30601">
        <ele>174.4</ele>
        <time>2024-03-21T13:16:55Z</time>
      </trkpt>
      <trkpt lat="43.64246" lon="3.30596">
        <ele>174.6</ele>
        <time>2024-03-21T13:16:56Z</time>
      </trkpt>
      <trkpt lat="43.64246" lon="3.3059">
        <ele>174.6</ele>
        <time>2024-03-21T13:16:57Z</time>
      </trkpt>
      <trkpt lat="43.64243" lon="3.30575">
        <ele>175.4</ele>
        <time>2024-03-21T13:17:00Z</time>
      </trkpt>
      <trkpt lat="43.64243" lon="3.30569">
        <ele>175.7</ele>
        <time>2024-03-21T13:17:01Z</time>
      </trkpt>
      <trkpt lat="43.64242" lon="3.30565">
        <ele>176</ele>
        <time>2024-03-21T13:17:02Z</time>
      </trkpt>
      <trkpt lat="43.64241" lon="3.3056">
        <ele>176.4</ele>
        <time>2024-03-21T13:17:03Z</time>
      </trkpt>
      <trkpt lat="43.64241" lon="3.30556">
        <ele>176.6</ele>
        <time>2024-03-21T13:17:04Z</time>
      </trkpt>
      <trkpt lat="43.64239" lon="3.30546">
        <ele>177.7</ele>
        <time>2024-03-21T13:17:06Z</time>
      </trkpt>
      <trkpt lat="43.64239" lon="3.30542">
        <ele>178</ele>
        <time>2024-03-21T13:17:07Z</time>
      </trkpt>
      <trkpt lat="43.64238" lon="3.30537">
        <ele>178.5</ele>
        <time>2024-03-21T13:17:08Z</time>
      </trkpt>
      <trkpt lat="43.64238" lon="3.30532">
        <ele>178.9</ele>
        <time>2024-03-21T13:17:09Z</time>
      </trkpt>
      <trkpt lat="43.64237" lon="3.30527">
        <ele>179.4</ele>
        <time>2024-03-21T13:17:10Z</time>
      </trkpt>
      <trkpt lat="43.64237" lon="3.30522">
        <ele>179.5</ele>
        <time>2024-03-21T13:17:11Z</time>
      </trkpt>
      <trkpt lat="43.64232" lon="3.30497">
        <ele>181.3</ele>
        <time>2024-03-21T13:17:16Z</time>
      </trkpt>
      <trkpt lat="43.64231" lon="3.30491">
        <ele>181.6</ele>
        <time>2024-03-21T13:17:17Z</time>
      </trkpt>
      <trkpt lat="43.64229" lon="3.30481">
        <ele>182.3</ele>
        <time>2024-03-21T13:17:19Z</time>
      </trkpt>
      <trkpt lat="43.64227" lon="3.30476">
        <ele>182.9</ele>
        <time>2024-03-21T13:17:20Z</time>
      </trkpt>
      <trkpt lat="43.64227" lon="3.30471">
        <ele>183</ele>
        <time>2024-03-21T13:17:21Z</time>
      </trkpt>
      <trkpt lat="43.64226" lon="3.30466">
        <ele>183.4</ele>
        <time>2024-03-21T13:17:22Z</time>
      </trkpt>
      <trkpt lat="43.64226" lon="3.30447">
        <ele>184.1</ele>
        <time>2024-03-21T13:17:26Z</time>
      </trkpt>
      <trkpt lat="43.64225" lon="3.30442">
        <ele>184.5</ele>
        <time>2024-03-21T13:17:27Z</time>
      </trkpt>
      <trkpt lat="43.64225" lon="3.30433">
        <ele>184.8</ele>
        <time>2024-03-21T13:17:29Z</time>
      </trkpt>
      <trkpt lat="43.64224" lon="3.30428">
        <ele>185.2</ele>
        <time>2024-03-21T13:17:30Z</time>
      </trkpt>
      <trkpt lat="43.64224" lon="3.30419">
        <ele>185.5</ele>
        <time>2024-03-21T13:17:32Z</time>
      </trkpt>
      <trkpt lat="43.64223" lon="3.30414">
        <ele>185.9</ele>
        <time>2024-03-21T13:17:33Z</time>
      </trkpt>
      <trkpt lat="43.64223" lon="3.30405">
        <ele>186.2</ele>
        <time>2024-03-21T13:17:35Z</time>
      </trkpt>
      <trkpt lat="43.64222" lon="3.30402">
        <ele>186.5</ele>
        <time>2024-03-21T13:17:36Z</time>
      </trkpt>
      <trkpt lat="43.64222" lon="3.30367">
        <ele>188.6</ele>
        <time>2024-03-21T13:17:44Z</time>
      </trkpt>
      <trkpt lat="43.64223" lon="3.30362">
        <ele>188.8</ele>
        <time>2024-03-21T13:17:45Z</time>
      </trkpt>
      <trkpt lat="43.64225" lon="3.30354">
        <ele>189.2</ele>
        <time>2024-03-21T13:17:47Z</time>
      </trkpt>
      <trkpt lat="43.64226" lon="3.30349">
        <ele>189.4</ele>
        <time>2024-03-21T13:17:48Z</time>
      </trkpt>
      <trkpt lat="43.64228" lon="3.30341">
        <ele>189.9</ele>
        <time>2024-03-21T13:17:50Z</time>
      </trkpt>
      <trkpt lat="43.64228" lon="3.30324">
        <ele>191.1</ele>
        <time>2024-03-21T13:17:54Z</time>
      </trkpt>
      <trkpt lat="43.64227" lon="3.30319">
        <ele>191.3</ele>
        <time>2024-03-21T13:17:55Z</time>
      </trkpt>
      <trkpt lat="43.64225" lon="3.30315">
        <ele>191.6</ele>
        <time>2024-03-21T13:17:56Z</time>
      </trkpt>
      <trkpt lat="43.64224" lon="3.30312">
        <ele>191.7</ele>
        <time>2024-03-21T13:17:57Z</time>
      </trkpt>
      <trkpt lat="43.64222" lon="3.30308">
        <ele>191.9</ele>
        <time>2024-03-21T13:17:58Z</time>
      </trkpt>
      <trkpt lat="43.64221" lon="3.30304">
        <ele>192</ele>
        <time>2024-03-21T13:17:59Z</time>
      </trkpt>
      <trkpt lat="43.64221" lon="3.30301">
        <ele>192.1</ele>
        <time>2024-03-21T13:18:00Z</time>
      </trkpt>
      <trkpt lat="43.6422" lon="3.30297">
        <ele>192.2</ele>
        <time>2024-03-21T13:18:01Z</time>
      </trkpt>
      <trkpt lat="43.6422" lon="3.30293">
        <ele>192.3</ele>
        <time>2024-03-21T13:18:02Z</time>
      </trkpt>
      <trkpt lat="43.64219" lon="3.30288">
        <ele>192.3</ele>
        <time>2024-03-21T13:18:03Z</time>
      </trkpt>
      <trkpt lat="43.64217" lon="3.3028">
        <ele>192.2</ele>
        <time>2024-03-21T13:18:05Z</time>
      </trkpt>
      <trkpt lat="43.64217" lon="3.3027">
        <ele>192.5</ele>
        <time>2024-03-21T13:18:07Z</time>
      </trkpt>
      <trkpt lat="43.64216" lon="3.30266">
        <ele>192.4</ele>
        <time>2024-03-21T13:18:08Z</time>
      </trkpt>
      <trkpt lat="43.64216" lon="3.30257">
        <ele>192.7</ele>
        <time>2024-03-21T13:18:10Z</time>
      </trkpt>
      <trkpt lat="43.64215" lon="3.30252">
        <ele>192.6</ele>
        <time>2024-03-21T13:18:11Z</time>
      </trkpt>
      <trkpt lat="43.64215" lon="3.30207">
        <ele>195.1</ele>
        <time>2024-03-21T13:18:21Z</time>
      </trkpt>
      <trkpt lat="43.64216" lon="3.30202">
        <ele>195.3</ele>
        <time>2024-03-21T13:18:22Z</time>
      </trkpt>
      <trkpt lat="43.64216" lon="3.30197">
        <ele>195.3</ele>
        <time>2024-03-21T13:18:23Z</time>
      </trkpt>
      <trkpt lat="43.64217" lon="3.30192">
        <ele>195.5</ele>
        <time>2024-03-21T13:18:24Z</time>
      </trkpt>
      <trkpt lat="43.64217" lon="3.30187">
        <ele>195.8</ele>
        <time>2024-03-21T13:18:25Z</time>
      </trkpt>
      <trkpt lat="43.64219" lon="3.30177">
        <ele>196.4</ele>
        <time>2024-03-21T13:18:27Z</time>
      </trkpt>
      <trkpt lat="43.64219" lon="3.30173">
        <ele>196.5</ele>
        <time>2024-03-21T13:18:28Z</time>
      </trkpt>
      <trkpt lat="43.6422" lon="3.30168">
        <ele>196.8</ele>
        <time>2024-03-21T13:18:29Z</time>
      </trkpt>
      <trkpt lat="43.6422" lon="3.30162">
        <ele>197</ele>
        <time>2024-03-21T13:18:30Z</time>
      </trkpt>
      <trkpt lat="43.64221" lon="3.30157">
        <ele>197.3</ele>
        <time>2024-03-21T13:18:31Z</time>
      </trkpt>
      <trkpt lat="43.64221" lon="3.30147">
        <ele>197.7</ele>
        <time>2024-03-21T13:18:33Z</time>
      </trkpt>
      <trkpt lat="43.64223" lon="3.30137">
        <ele>198</ele>
        <time>2024-03-21T13:18:35Z</time>
      </trkpt>
      <trkpt lat="43.64223" lon="3.30132">
        <ele>198</ele>
        <time>2024-03-21T13:18:36Z</time>
      </trkpt>
      <trkpt lat="43.64225" lon="3.30127">
        <ele>198.1</ele>
        <time>2024-03-21T13:18:37Z</time>
      </trkpt>
      <trkpt lat="43.64225" lon="3.30122">
        <ele>198.1</ele>
        <time>2024-03-21T13:18:38Z</time>
      </trkpt>
      <trkpt lat="43.64227" lon="3.30112">
        <ele>198.2</ele>
        <time>2024-03-21T13:18:40Z</time>
      </trkpt>
      <trkpt lat="43.64229" lon="3.30107">
        <ele>198.3</ele>
        <time>2024-03-21T13:18:41Z</time>
      </trkpt>
      <trkpt lat="43.6423" lon="3.30102">
        <ele>198.4</ele>
        <time>2024-03-21T13:18:42Z</time>
      </trkpt>
      <trkpt lat="43.64232" lon="3.30098">
        <ele>198.5</ele>
        <time>2024-03-21T13:18:43Z</time>
      </trkpt>
      <trkpt lat="43.64235" lon="3.30093">
        <ele>198.5</ele>
        <time>2024-03-21T13:18:44Z</time>
      </trkpt>
      <trkpt lat="43.64237" lon="3.30088">
        <ele>198.5</ele>
        <time>2024-03-21T13:18:45Z</time>
      </trkpt>
      <trkpt lat="43.64238" lon="3.30082">
        <ele>198.5</ele>
        <time>2024-03-21T13:18:46Z</time>
      </trkpt>
      <trkpt lat="43.64239" lon="3.30077">
        <ele>198.5</ele>
        <time>2024-03-21T13:18:47Z</time>
      </trkpt>
      <trkpt lat="43.64239" lon="3.30051">
        <ele>198.8</ele>
        <time>2024-03-21T13:18:52Z</time>
      </trkpt>
      <trkpt lat="43.64238" lon="3.30045">
        <ele>198.9</ele>
        <time>2024-03-21T13:18:53Z</time>
      </trkpt>
      <trkpt lat="43.64238" lon="3.30015">
        <ele>199.3</ele>
        <time>2024-03-21T13:19:01Z</time>
      </trkpt>
      <trkpt lat="43.64237" lon="3.30011">
        <ele>199.5</ele>
        <time>2024-03-21T13:19:02Z</time>
      </trkpt>
      <trkpt lat="43.64237" lon="3.29991">
        <ele>200.1</ele>
        <time>2024-03-21T13:19:06Z</time>
      </trkpt>
      <trkpt lat="43.64236" lon="3.29987">
        <ele>200.2</ele>
        <time>2024-03-21T13:19:07Z</time>
      </trkpt>
      <trkpt lat="43.64236" lon="3.29981">
        <ele>200.3</ele>
        <time>2024-03-21T13:19:08Z</time>
      </trkpt>
      <trkpt lat="43.64235" lon="3.29976">
        <ele>200.5</ele>
        <time>2024-03-21T13:19:09Z</time>
      </trkpt>
      <trkpt lat="43.64235" lon="3.29971">
        <ele>200.6</ele>
        <time>2024-03-21T13:19:10Z</time>
      </trkpt>
      <trkpt lat="43.64234" lon="3.29965">
        <ele>200.8</ele>
        <time>2024-03-21T13:19:11Z</time>
      </trkpt>
      <trkpt lat="43.64234" lon="3.2996">
        <ele>201</ele>
        <time>2024-03-21T13:19:12Z</time>
      </trkpt>
      <trkpt lat="43.64233" lon="3.29954">
        <ele>201.3</ele>
        <time>2024-03-21T13:19:13Z</time>
      </trkpt>
      <trkpt lat="43.64232" lon="3.29949">
        <ele>201.5</ele>
        <time>2024-03-21T13:19:14Z</time>
      </trkpt>
      <trkpt lat="43.64231" lon="3.29943">
        <ele>201.8</ele>
        <time>2024-03-21T13:19:15Z</time>
      </trkpt>
      <trkpt lat="43.6423" lon="3.29938">
        <ele>202</ele>
        <time>2024-03-21T13:19:16Z</time>
      </trkpt>
      <trkpt lat="43.6423" lon="3.29933">
        <ele>202.2</ele>
        <time>2024-03-21T13:19:17Z</time>
      </trkpt>
      <trkpt lat="43.64229" lon="3.29928">
        <ele>202.5</ele>
        <time>2024-03-21T13:19:18Z</time>
      </trkpt>
      <trkpt lat="43.64228" lon="3.29922">
        <ele>202.8</ele>
        <time>2024-03-21T13:19:19Z</time>
      </trkpt>
      <trkpt lat="43.64227" lon="3.29918">
        <ele>202.9</ele>
        <time>2024-03-21T13:19:20Z</time>
      </trkpt>
      <trkpt lat="43.64227" lon="3.29913">
        <ele>203</ele>
        <time>2024-03-21T13:19:21Z</time>
      </trkpt>
      <trkpt lat="43.64226" lon="3.29907">
        <ele>203</ele>
        <time>2024-03-21T13:19:22Z</time>
      </trkpt>
      <trkpt lat="43.64224" lon="3.29897">
        <ele>203</ele>
        <time>2024-03-21T13:19:24Z</time>
      </trkpt>
      <trkpt lat="43.64224" lon="3.29892">
        <ele>203.1</ele>
        <time>2024-03-21T13:19:25Z</time>
      </trkpt>
      <trkpt lat="43.64223" lon="3.29886">
        <ele>203.1</ele>
        <time>2024-03-21T13:19:26Z</time>
      </trkpt>
      <trkpt lat="43.64223" lon="3.29881">
        <ele>203.3</ele>
        <time>2024-03-21T13:19:27Z</time>
      </trkpt>
      <trkpt lat="43.64224" lon="3.29876">
        <ele>203.5</ele>
        <time>2024-03-21T13:19:28Z</time>
      </trkpt>
      <trkpt lat="43.64224" lon="3.29853">
        <ele>204.4</ele>
        <time>2024-03-21T13:19:33Z</time>
      </trkpt>
      <trkpt lat="43.64225" lon="3.29848">
        <ele>204.6</ele>
        <time>2024-03-21T13:19:34Z</time>
      </trkpt>
      <trkpt lat="43.64225" lon="3.2984">
        <ele>204.9</ele>
        <time>2024-03-21T13:19:36Z</time>
      </trkpt>
      <trkpt lat="43.64224" lon="3.29836">
        <ele>205</ele>
        <time>2024-03-21T13:19:37Z</time>
      </trkpt>
      <trkpt lat="43.64224" lon="3.2982">
        <ele>205.6</ele>
        <time>2024-03-21T13:19:41Z</time>
      </trkpt>
      <trkpt lat="43.64223" lon="3.29816">
        <ele>205.7</ele>
        <time>2024-03-21T13:19:42Z</time>
      </trkpt>
      <trkpt lat="43.64222" lon="3.29813">
        <ele>205.7</ele>
        <time>2024-03-21T13:19:43Z</time>
      </trkpt>
      <trkpt lat="43.6422" lon="3.29811">
        <ele>205.7</ele>
        <time>2024-03-21T13:19:44Z</time>
      </trkpt>
      <trkpt lat="43.64219" lon="3.29809">
        <ele>205.8</ele>
        <time>2024-03-21T13:19:45Z</time>
      </trkpt>
      <trkpt lat="43.64218" lon="3.29808">
        <ele>205.8</ele>
        <time>2024-03-21T13:19:46Z</time>
      </trkpt>
      <trkpt lat="43.64216" lon="3.29807">
        <ele>205.7</ele>
        <time>2024-03-21T13:19:47Z</time>
      </trkpt>
      <trkpt lat="43.64213" lon="3.29806">
        <ele>205.7</ele>
        <time>2024-03-21T13:19:48Z</time>
      </trkpt>
      <trkpt lat="43.64211" lon="3.29805">
        <ele>205.6</ele>
        <time>2024-03-21T13:19:49Z</time>
      </trkpt>
      <trkpt lat="43.64209" lon="3.29802">
        <ele>205.7</ele>
        <time>2024-03-21T13:19:50Z</time>
      </trkpt>
      <trkpt lat="43.64204" lon="3.29797">
        <ele>205.7</ele>
        <time>2024-03-21T13:19:52Z</time>
      </trkpt>
      <trkpt lat="43.64202" lon="3.29793">
        <ele>205.7</ele>
        <time>2024-03-21T13:19:53Z</time>
      </trkpt>
      <trkpt lat="43.64198" lon="3.29777">
        <ele>206.1</ele>
        <time>2024-03-21T13:19:57Z</time>
      </trkpt>
      <trkpt lat="43.64196" lon="3.29773">
        <ele>206.1</ele>
        <time>2024-03-21T13:19:58Z</time>
      </trkpt>
      <trkpt lat="43.64195" lon="3.2977">
        <ele>206</ele>
        <time>2024-03-21T13:19:59Z</time>
      </trkpt>
      <trkpt lat="43.64193" lon="3.29762">
        <ele>206</ele>
        <time>2024-03-21T13:20:01Z</time>
      </trkpt>
      <trkpt lat="43.64193" lon="3.29758">
        <ele>206</ele>
        <time>2024-03-21T13:20:02Z</time>
      </trkpt>
      <trkpt lat="43.64192" lon="3.29754">
        <ele>206.1</ele>
        <time>2024-03-21T13:20:03Z</time>
      </trkpt>
      <trkpt lat="43.64192" lon="3.29746">
        <ele>206.2</ele>
        <time>2024-03-21T13:20:05Z</time>
      </trkpt>
      <trkpt lat="43.64193" lon="3.29742">
        <ele>206.3</ele>
        <time>2024-03-21T13:20:06Z</time>
      </trkpt>
      <trkpt lat="43.64195" lon="3.29737">
        <ele>206.5</ele>
        <time>2024-03-21T13:20:07Z</time>
      </trkpt>
      <trkpt lat="43.64199" lon="3.29731">
        <ele>206.8</ele>
        <time>2024-03-21T13:20:09Z</time>
      </trkpt>
      <trkpt lat="43.64201" lon="3.29729">
        <ele>207</ele>
        <time>2024-03-21T13:20:10Z</time>
      </trkpt>
      <trkpt lat="43.64202" lon="3.29726">
        <ele>207.1</ele>
        <time>2024-03-21T13:20:11Z</time>
      </trkpt>
      <trkpt lat="43.64203" lon="3.29724">
        <ele>207.2</ele>
        <time>2024-03-21T13:20:12Z</time>
      </trkpt>
      <trkpt lat="43.64204" lon="3.29721">
        <ele>207.4</ele>
        <time>2024-03-21T13:20:13Z</time>
      </trkpt>
      <trkpt lat="43.64206" lon="3.29713">
        <ele>207.7</ele>
        <time>2024-03-21T13:20:15Z</time>
      </trkpt>
      <trkpt lat="43.64206" lon="3.29709">
        <ele>207.9</ele>
        <time>2024-03-21T13:20:16Z</time>
      </trkpt>
      <trkpt lat="43.64207" lon="3.29704">
        <ele>208.1</ele>
        <time>2024-03-21T13:20:17Z</time>
      </trkpt>
      <trkpt lat="43.64207" lon="3.297">
        <ele>208.3</ele>
        <time>2024-03-21T13:20:18Z</time>
      </trkpt>
      <trkpt lat="43.64209" lon="3.29692">
        <ele>208.6</ele>
        <time>2024-03-21T13:20:20Z</time>
      </trkpt>
      <trkpt lat="43.64209" lon="3.29688">
        <ele>208.6</ele>
        <time>2024-03-21T13:20:21Z</time>
      </trkpt>
      <trkpt lat="43.6421" lon="3.29684">
        <ele>208.7</ele>
        <time>2024-03-21T13:20:22Z</time>
      </trkpt>
      <trkpt lat="43.6421" lon="3.29679">
        <ele>208.8</ele>
        <time>2024-03-21T13:20:23Z</time>
      </trkpt>
      <trkpt lat="43.64211" lon="3.29675">
        <ele>208.9</ele>
        <time>2024-03-21T13:20:24Z</time>
      </trkpt>
      <trkpt lat="43.64211" lon="3.2967">
        <ele>209</ele>
        <time>2024-03-21T13:20:25Z</time>
      </trkpt>
      <trkpt lat="43.64209" lon="3.29662">
        <ele>209.2</ele>
        <time>2024-03-21T13:20:27Z</time>
      </trkpt>
      <trkpt lat="43.64209" lon="3.29654">
        <ele>209.5</ele>
        <time>2024-03-21T13:20:29Z</time>
      </trkpt>
      <trkpt lat="43.64208" lon="3.29649">
        <ele>209.6</ele>
        <time>2024-03-21T13:20:30Z</time>
      </trkpt>
      <trkpt lat="43.64207" lon="3.29645">
        <ele>209.8</ele>
        <time>2024-03-21T13:20:31Z</time>
      </trkpt>
      <trkpt lat="43.64205" lon="3.29639">
        <ele>210</ele>
        <time>2024-03-21T13:20:33Z</time>
      </trkpt>
      <trkpt lat="43.64204" lon="3.29635">
        <ele>210.2</ele>
        <time>2024-03-21T13:20:34Z</time>
      </trkpt>
      <trkpt lat="43.64204" lon="3.29626">
        <ele>210.6</ele>
        <time>2024-03-21T13:20:36Z</time>
      </trkpt>
      <trkpt lat="43.64203" lon="3.29621">
        <ele>210.8</ele>
        <time>2024-03-21T13:20:37Z</time>
      </trkpt>
      <trkpt lat="43.64203" lon="3.29617">
        <ele>211</ele>
        <time>2024-03-21T13:20:38Z</time>
      </trkpt>
      <trkpt lat="43.64202" lon="3.29613">
        <ele>211.2</ele>
        <time>2024-03-21T13:20:39Z</time>
      </trkpt>
      <trkpt lat="43.64202" lon="3.29609">
        <ele>211.4</ele>
        <time>2024-03-21T13:20:40Z</time>
      </trkpt>
      <trkpt lat="43.64201" lon="3.29605">
        <ele>211.7</ele>
        <time>2024-03-21T13:20:41Z</time>
      </trkpt>
      <trkpt lat="43.64201" lon="3.2959">
        <ele>212.8</ele>
        <time>2024-03-21T13:20:45Z</time>
      </trkpt>
      <trkpt lat="43.642" lon="3.29586">
        <ele>213</ele>
        <time>2024-03-21T13:20:46Z</time>
      </trkpt>
      <trkpt lat="43.642" lon="3.2958">
        <ele>213.5</ele>
        <time>2024-03-21T13:20:48Z</time>
      </trkpt>
      <trkpt lat="43.64199" lon="3.29577">
        <ele>213.7</ele>
        <time>2024-03-21T13:20:49Z</time>
      </trkpt>
      <trkpt lat="43.64199" lon="3.29573">
        <ele>214</ele>
        <time>2024-03-21T13:20:50Z</time>
      </trkpt>
      <trkpt lat="43.64198" lon="3.2957">
        <ele>214.1</ele>
        <time>2024-03-21T13:20:51Z</time>
      </trkpt>
      <trkpt lat="43.64198" lon="3.29557">
        <ele>215.1</ele>
        <time>2024-03-21T13:20:55Z</time>
      </trkpt>
      <trkpt lat="43.64197" lon="3.29553">
        <ele>215.3</ele>
        <time>2024-03-21T13:20:56Z</time>
      </trkpt>
      <trkpt lat="43.64198" lon="3.29549">
        <ele>215.5</ele>
        <time>2024-03-21T13:20:57Z</time>
      </trkpt>
      <trkpt lat="43.64198" lon="3.29515">
        <ele>217.2</ele>
        <time>2024-03-21T13:21:07Z</time>
      </trkpt>
      <trkpt lat="43.64197" lon="3.29512">
        <ele>217.3</ele>
        <time>2024-03-21T13:21:08Z</time>
      </trkpt>
      <trkpt lat="43.64197" lon="3.29508">
        <ele>217.6</ele>
        <time>2024-03-21T13:21:09Z</time>
      </trkpt>
      <trkpt lat="43.64196" lon="3.29505">
        <ele>217.8</ele>
        <time>2024-03-21T13:21:10Z</time>
      </trkpt>
      <trkpt lat="43.64196" lon="3.29501">
        <ele>218</ele>
        <time>2024-03-21T13:21:11Z</time>
      </trkpt>
      <trkpt lat="43.64194" lon="3.29495">
        <ele>218</ele>
        <time>2024-03-21T13:21:13Z</time>
      </trkpt>
      <trkpt lat="43.64194" lon="3.29492">
        <ele>218</ele>
        <time>2024-03-21T13:21:14Z</time>
      </trkpt>
      <trkpt lat="43.64192" lon="3.29488">
        <ele>217.9</ele>
        <time>2024-03-21T13:21:16Z</time>
      </trkpt>
      <trkpt lat="43.64192" lon="3.29485">
        <ele>217.9</ele>
        <time>2024-03-21T13:21:17Z</time>
      </trkpt>
      <trkpt lat="43.6419" lon="3.29479">
        <ele>217.8</ele>
        <time>2024-03-21T13:21:19Z</time>
      </trkpt>
      <trkpt lat="43.64188" lon="3.29476">
        <ele>217.7</ele>
        <time>2024-03-21T13:21:20Z</time>
      </trkpt>
      <trkpt lat="43.64187" lon="3.29472">
        <ele>217.7</ele>
        <time>2024-03-21T13:21:21Z</time>
      </trkpt>
      <trkpt lat="43.64185" lon="3.29469">
        <ele>217.8</ele>
        <time>2024-03-21T13:21:22Z</time>
      </trkpt>
      <trkpt lat="43.64184" lon="3.29466">
        <ele>217.8</ele>
        <time>2024-03-21T13:21:23Z</time>
      </trkpt>
      <trkpt lat="43.64182" lon="3.29463">
        <ele>217.9</ele>
        <time>2024-03-21T13:21:24Z</time>
      </trkpt>
      <trkpt lat="43.64181" lon="3.2946">
        <ele>218</ele>
        <time>2024-03-21T13:21:25Z</time>
      </trkpt>
      <trkpt lat="43.6418" lon="3.29458">
        <ele>218</ele>
        <time>2024-03-21T13:21:26Z</time>
      </trkpt>
      <trkpt lat="43.6418" lon="3.29451">
        <ele>218.2</ele>
        <time>2024-03-21T13:22:19Z</time>
      </trkpt>
      <trkpt lat="43.64179" lon="3.29448">
        <ele>218.3</ele>
        <time>2024-03-21T13:22:20Z</time>
      </trkpt>
      <trkpt lat="43.64179" lon="3.29445">
        <ele>218.4</ele>
        <time>2024-03-21T13:22:21Z</time>
      </trkpt>
      <trkpt lat="43.64178" lon="3.29442">
        <ele>218.5</ele>
        <time>2024-03-21T13:22:22Z</time>
      </trkpt>
      <trkpt lat="43.64178" lon="3.29438">
        <ele>218.8</ele>
        <time>2024-03-21T13:22:23Z</time>
      </trkpt>
      <trkpt lat="43.64177" lon="3.29434">
        <ele>219</ele>
        <time>2024-03-21T13:22:24Z</time>
      </trkpt>
      <trkpt lat="43.64176" lon="3.29429">
        <ele>219.3</ele>
        <time>2024-03-21T13:22:25Z</time>
      </trkpt>
      <trkpt lat="43.64173" lon="3.29417">
        <ele>220</ele>
        <time>2024-03-21T13:22:28Z</time>
      </trkpt>
      <trkpt lat="43.64173" lon="3.29413">
        <ele>220.1</ele>
        <time>2024-03-21T13:22:29Z</time>
      </trkpt>
      <trkpt lat="43.64172" lon="3.2941">
        <ele>220.2</ele>
        <time>2024-03-21T13:22:30Z</time>
      </trkpt>
      <trkpt lat="43.64171" lon="3.29406">
        <ele>220.3</ele>
        <time>2024-03-21T13:22:31Z</time>
      </trkpt>
      <trkpt lat="43.64171" lon="3.29402">
        <ele>220.4</ele>
        <time>2024-03-21T13:22:32Z</time>
      </trkpt>
      <trkpt lat="43.6417" lon="3.29399">
        <ele>220.6</ele>
        <time>2024-03-21T13:22:33Z</time>
      </trkpt>
      <trkpt lat="43.6417" lon="3.29391">
        <ele>220.8</ele>
        <time>2024-03-21T13:22:35Z</time>
      </trkpt>
      <trkpt lat="43.64169" lon="3.29388">
        <ele>221</ele>
        <time>2024-03-21T13:22:36Z</time>
      </trkpt>
      <trkpt lat="43.64169" lon="3.29381">
        <ele>221.2</ele>
        <time>2024-03-21T13:22:38Z</time>
      </trkpt>
      <trkpt lat="43.6417" lon="3.29378">
        <ele>221.4</ele>
        <time>2024-03-21T13:22:39Z</time>
      </trkpt>
      <trkpt lat="43.6417" lon="3.29361">
        <ele>222.1</ele>
        <time>2024-03-21T13:22:45Z</time>
      </trkpt>
      <trkpt lat="43.64171" lon="3.29357">
        <ele>222.3</ele>
        <time>2024-03-21T13:22:46Z</time>
      </trkpt>
      <trkpt lat="43.64171" lon="3.29349">
        <ele>222.7</ele>
        <time>2024-03-21T13:22:49Z</time>
      </trkpt>
      <trkpt lat="43.6417" lon="3.29347">
        <ele>222.7</ele>
        <time>2024-03-21T13:22:50Z</time>
      </trkpt>
      <trkpt lat="43.6417" lon="3.29343">
        <ele>222.9</ele>
        <time>2024-03-21T13:22:51Z</time>
      </trkpt>
      <trkpt lat="43.64171" lon="3.2934">
        <ele>223</ele>
        <time>2024-03-21T13:22:52Z</time>
      </trkpt>
      <trkpt lat="43.64171" lon="3.29337">
        <ele>223.2</ele>
        <time>2024-03-21T13:22:53Z</time>
      </trkpt>
      <trkpt lat="43.6417" lon="3.29334">
        <ele>223.2</ele>
        <time>2024-03-21T13:22:54Z</time>
      </trkpt>
      <trkpt lat="43.6417" lon="3.29327">
        <ele>223.5</ele>
        <time>2024-03-21T13:22:56Z</time>
      </trkpt>
      <trkpt lat="43.64169" lon="3.29324">
        <ele>223.5</ele>
        <time>2024-03-21T13:22:57Z</time>
      </trkpt>
      <trkpt lat="43.64169" lon="3.29321">
        <ele>223.6</ele>
        <time>2024-03-21T13:22:58Z</time>
      </trkpt>
      <trkpt lat="43.64168" lon="3.29317">
        <ele>223.7</ele>
        <time>2024-03-21T13:22:59Z</time>
      </trkpt>
      <trkpt lat="43.64168" lon="3.29314">
        <ele>223.8</ele>
        <time>2024-03-21T13:23:00Z</time>
      </trkpt>
      <trkpt lat="43.64167" lon="3.29311">
        <ele>223.8</ele>
        <time>2024-03-21T13:23:01Z</time>
      </trkpt>
      <trkpt lat="43.64167" lon="3.29306">
        <ele>224</ele>
        <time>2024-03-21T13:23:03Z</time>
      </trkpt>
      <trkpt lat="43.64166" lon="3.29302">
        <ele>224.2</ele>
        <time>2024-03-21T13:23:04Z</time>
      </trkpt>
      <trkpt lat="43.64166" lon="3.29299">
        <ele>224.4</ele>
        <time>2024-03-21T13:23:05Z</time>
      </trkpt>
      <trkpt lat="43.64165" lon="3.29295">
        <ele>224.6</ele>
        <time>2024-03-21T13:23:06Z</time>
      </trkpt>
      <trkpt lat="43.64165" lon="3.29292">
        <ele>224.8</ele>
        <time>2024-03-21T13:23:07Z</time>
      </trkpt>
      <trkpt lat="43.64164" lon="3.29289">
        <ele>224.8</ele>
        <time>2024-03-21T13:23:08Z</time>
      </trkpt>
      <trkpt lat="43.64164" lon="3.29283">
        <ele>225.3</ele>
        <time>2024-03-21T13:23:10Z</time>
      </trkpt>
      <trkpt lat="43.64163" lon="3.29279">
        <ele>225.4</ele>
        <time>2024-03-21T13:23:11Z</time>
      </trkpt>
      <trkpt lat="43.64163" lon="3.29275">
        <ele>225.5</ele>
        <time>2024-03-21T13:23:12Z</time>
      </trkpt>
      <trkpt lat="43.64162" lon="3.29272">
        <ele>225.4</ele>
        <time>2024-03-21T13:23:13Z</time>
      </trkpt>
      <trkpt lat="43.64162" lon="3.29265">
        <ele>225.4</ele>
        <time>2024-03-21T13:23:15Z</time>
      </trkpt>
      <trkpt lat="43.64161" lon="3.29261">
        <ele>225.3</ele>
        <time>2024-03-21T13:23:16Z</time>
      </trkpt>
      <trkpt lat="43.64161" lon="3.29254">
        <ele>225.4</ele>
        <time>2024-03-21T13:23:18Z</time>
      </trkpt>
      <trkpt lat="43.6416" lon="3.29251">
        <ele>225.3</ele>
        <time>2024-03-21T13:23:19Z</time>
      </trkpt>
      <trkpt lat="43.6416" lon="3.29235">
        <ele>225.8</ele>
        <time>2024-03-21T13:23:23Z</time>
      </trkpt>
      <trkpt lat="43.64161" lon="3.29231">
        <ele>226.1</ele>
        <time>2024-03-21T13:23:24Z</time>
      </trkpt>
      <trkpt lat="43.64161" lon="3.29224">
        <ele>226.3</ele>
        <time>2024-03-21T13:23:26Z</time>
      </trkpt>
      <trkpt lat="43.64162" lon="3.29221">
        <ele>226.5</ele>
        <time>2024-03-21T13:23:27Z</time>
      </trkpt>
      <trkpt lat="43.64162" lon="3.29213">
        <ele>226.5</ele>
        <time>2024-03-21T13:23:29Z</time>
      </trkpt>
      <trkpt lat="43.64163" lon="3.29209">
        <ele>226.6</ele>
        <time>2024-03-21T13:23:30Z</time>
      </trkpt>
      <trkpt lat="43.64163" lon="3.29204">
        <ele>226.6</ele>
        <time>2024-03-21T13:23:31Z</time>
      </trkpt>
      <trkpt lat="43.64165" lon="3.29196">
        <ele>226.8</ele>
        <time>2024-03-21T13:23:33Z</time>
      </trkpt>
      <trkpt lat="43.64165" lon="3.29192">
        <ele>226.7</ele>
        <time>2024-03-21T13:23:34Z</time>
      </trkpt>
      <trkpt lat="43.64166" lon="3.29187">
        <ele>226.7</ele>
        <time>2024-03-21T13:23:35Z</time>
      </trkpt>
      <trkpt lat="43.64166" lon="3.29183">
        <ele>226.5</ele>
        <time>2024-03-21T13:23:36Z</time>
      </trkpt>
      <trkpt lat="43.64165" lon="3.2918">
        <ele>226.3</ele>
        <time>2024-03-21T13:23:37Z</time>
      </trkpt>
      <trkpt lat="43.64164" lon="3.29176">
        <ele>226.1</ele>
        <time>2024-03-21T13:23:38Z</time>
      </trkpt>
      <trkpt lat="43.64164" lon="3.29172">
        <ele>226</ele>
        <time>2024-03-21T13:23:39Z</time>
      </trkpt>
      <trkpt lat="43.64163" lon="3.29169">
        <ele>225.8</ele>
        <time>2024-03-21T13:23:40Z</time>
      </trkpt>
      <trkpt lat="43.64162" lon="3.29165">
        <ele>225.6</ele>
        <time>2024-03-21T13:23:41Z</time>
      </trkpt>
      <trkpt lat="43.64162" lon="3.29146">
        <ele>224.3</ele>
        <time>2024-03-21T13:23:47Z</time>
      </trkpt>
      <trkpt lat="43.64163" lon="3.29143">
        <ele>224.1</ele>
        <time>2024-03-21T13:23:48Z</time>
      </trkpt>
      <trkpt lat="43.64163" lon="3.2914">
        <ele>223.9</ele>
        <time>2024-03-21T13:23:49Z</time>
      </trkpt>
      <trkpt lat="43.64161" lon="3.29134">
        <ele>223</ele>
        <time>2024-03-21T13:23:51Z</time>
      </trkpt>
      <trkpt lat="43.64159" lon="3.2913">
        <ele>222.3</ele>
        <time>2024-03-21T13:23:52Z</time>
      </trkpt>
      <trkpt lat="43.64157" lon="3.29125">
        <ele>221.5</ele>
        <time>2024-03-21T13:23:53Z</time>
      </trkpt>
      <trkpt lat="43.64155" lon="3.29121">
        <ele>220.9</ele>
        <time>2024-03-21T13:23:54Z</time>
      </trkpt>
      <trkpt lat="43.64146" lon="3.29106">
        <ele>218.7</ele>
        <time>2024-03-21T13:23:57Z</time>
      </trkpt>
      <trkpt lat="43.64142" lon="3.29094">
        <ele>216.3</ele>
        <time>2024-03-21T13:23:59Z</time>
      </trkpt>
      <trkpt lat="43.64139" lon="3.29089">
        <ele>215.2</ele>
        <time>2024-03-21T13:24:00Z</time>
      </trkpt>
      <trkpt lat="43.64136" lon="3.29083">
        <ele>213.6</ele>
        <time>2024-03-21T13:24:01Z</time>
      </trkpt>
      <trkpt lat="43.6413" lon="3.29073">
        <ele>211.7</ele>
        <time>2024-03-21T13:24:03Z</time>
      </trkpt>
      <trkpt lat="43.64127" lon="3.29069">
        <ele>210.9</ele>
        <time>2024-03-21T13:24:04Z</time>
      </trkpt>
      <trkpt lat="43.64124" lon="3.29064">
        <ele>210</ele>
        <time>2024-03-21T13:24:05Z</time>
      </trkpt>
      <trkpt lat="43.64122" lon="3.29058">
        <ele>209.1</ele>
        <time>2024-03-21T13:24:06Z</time>
      </trkpt>
      <trkpt lat="43.64122" lon="3.29052">
        <ele>208.5</ele>
        <time>2024-03-21T13:24:07Z</time>
      </trkpt>
      <trkpt lat="43.64123" lon="3.29045">
        <ele>208</ele>
        <time>2024-03-21T13:24:08Z</time>
      </trkpt>
      <trkpt lat="43.64123" lon="3.29032">
        <ele>207</ele>
        <time>2024-03-21T13:24:10Z</time>
      </trkpt>
      <trkpt lat="43.64124" lon="3.29024">
        <ele>206.8</ele>
        <time>2024-03-21T13:24:11Z</time>
      </trkpt>
      <trkpt lat="43.64126" lon="3.29012">
        <ele>206.8</ele>
        <time>2024-03-21T13:24:13Z</time>
      </trkpt>
      <trkpt lat="43.64128" lon="3.29005">
        <ele>206.9</ele>
        <time>2024-03-21T13:24:14Z</time>
      </trkpt>
      <trkpt lat="43.6413" lon="3.29">
        <ele>207</ele>
        <time>2024-03-21T13:24:15Z</time>
      </trkpt>
      <trkpt lat="43.64133" lon="3.28995">
        <ele>207.1</ele>
        <time>2024-03-21T13:24:16Z</time>
      </trkpt>
      <trkpt lat="43.64137" lon="3.2899">
        <ele>207.1</ele>
        <time>2024-03-21T13:24:17Z</time>
      </trkpt>
      <trkpt lat="43.6414" lon="3.28987">
        <ele>207.2</ele>
        <time>2024-03-21T13:24:18Z</time>
      </trkpt>
      <trkpt lat="43.64144" lon="3.28979">
        <ele>207</ele>
        <time>2024-03-21T13:24:20Z</time>
      </trkpt>
      <trkpt lat="43.64147" lon="3.28976">
        <ele>207.1</ele>
        <time>2024-03-21T13:24:21Z</time>
      </trkpt>
      <trkpt lat="43.64149" lon="3.28973">
        <ele>207.1</ele>
        <time>2024-03-21T13:24:22Z</time>
      </trkpt>
      <trkpt lat="43.64151" lon="3.28971">
        <ele>207.2</ele>
        <time>2024-03-21T13:24:23Z</time>
      </trkpt>
      <trkpt lat="43.64152" lon="3.28969">
        <ele>207</ele>
        <time>2024-03-21T13:24:24Z</time>
      </trkpt>
      <trkpt lat="43.64154" lon="3.28963">
        <ele>206.4</ele>
        <time>2024-03-21T13:24:26Z</time>
      </trkpt>
      <trkpt lat="43.64154" lon="3.28953">
        <ele>205.1</ele>
        <time>2024-03-21T13:24:29Z</time>
      </trkpt>
      <trkpt lat="43.6415" lon="3.28947">
        <ele>204.3</ele>
        <time>2024-03-21T13:24:31Z</time>
      </trkpt>
      <trkpt lat="43.64147" lon="3.28944">
        <ele>204.1</ele>
        <time>2024-03-21T13:24:32Z</time>
      </trkpt>
      <trkpt lat="43.64143" lon="3.28944">
        <ele>204.1</ele>
        <time>2024-03-21T13:24:33Z</time>
      </trkpt>
      <trkpt lat="43.6414" lon="3.28945">
        <ele>204</ele>
        <time>2024-03-21T13:24:34Z</time>
      </trkpt>
      <trkpt lat="43.64136" lon="3.28946">
        <ele>204.5</ele>
        <time>2024-03-21T13:24:35Z</time>
      </trkpt>
      <trkpt lat="43.64131" lon="3.28946">
        <ele>205.2</ele>
        <time>2024-03-21T13:24:36Z</time>
      </trkpt>
      <trkpt lat="43.64127" lon="3.28948">
        <ele>205.7</ele>
        <time>2024-03-21T13:24:37Z</time>
      </trkpt>
      <trkpt lat="43.64124" lon="3.28949">
        <ele>206.1</ele>
        <time>2024-03-21T13:24:38Z</time>
      </trkpt>
      <trkpt lat="43.64122" lon="3.28948">
        <ele>206.4</ele>
        <time>2024-03-21T13:24:39Z</time>
      </trkpt>
      <trkpt lat="43.64121" lon="3.28945">
        <ele>206.6</ele>
        <time>2024-03-21T13:24:40Z</time>
      </trkpt>
      <trkpt lat="43.64122" lon="3.28942">
        <ele>206.9</ele>
        <time>2024-03-21T13:24:41Z</time>
      </trkpt>
      <trkpt lat="43.64124" lon="3.2894">
        <ele>206.9</ele>
        <time>2024-03-21T13:24:42Z</time>
      </trkpt>
      <trkpt lat="43.64127" lon="3.28938">
        <ele>206.9</ele>
        <time>2024-03-21T13:24:43Z</time>
      </trkpt>
      <trkpt lat="43.64129" lon="3.28935">
        <ele>207.1</ele>
        <time>2024-03-21T13:24:44Z</time>
      </trkpt>
      <trkpt lat="43.64135" lon="3.28929">
        <ele>207.3</ele>
        <time>2024-03-21T13:24:46Z</time>
      </trkpt>
      <trkpt lat="43.64137" lon="3.28926">
        <ele>207.6</ele>
        <time>2024-03-21T13:24:47Z</time>
      </trkpt>
      <trkpt lat="43.64141" lon="3.28925">
        <ele>207.4</ele>
        <time>2024-03-21T13:24:48Z</time>
      </trkpt>
      <trkpt lat="43.64144" lon="3.28926">
        <ele>207.2</ele>
        <time>2024-03-21T13:24:49Z</time>
      </trkpt>
      <trkpt lat="43.6415" lon="3.28924">
        <ele>207.4</ele>
        <time>2024-03-21T13:24:51Z</time>
      </trkpt>
      <trkpt lat="43.64156" lon="3.2892">
        <ele>207.9</ele>
        <time>2024-03-21T13:24:53Z</time>
      </trkpt>
      <trkpt lat="43.64164" lon="3.28912">
        <ele>208.9</ele>
        <time>2024-03-21T13:24:56Z</time>
      </trkpt>
      <trkpt lat="43.64167" lon="3.28908">
        <ele>209.5</ele>
        <time>2024-03-21T13:24:57Z</time>
      </trkpt>
      <trkpt lat="43.64169" lon="3.28906">
        <ele>209.8</ele>
        <time>2024-03-21T13:24:58Z</time>
      </trkpt>
      <trkpt lat="43.64172" lon="3.28904">
        <ele>210.1</ele>
        <time>2024-03-21T13:24:59Z</time>
      </trkpt>
      <trkpt lat="43.64174" lon="3.28904">
        <ele>210</ele>
        <time>2024-03-21T13:25:00Z</time>
      </trkpt>
      <trkpt lat="43.64178" lon="3.28902">
        <ele>210.2</ele>
        <time>2024-03-21T13:25:02Z</time>
      </trkpt>
      <trkpt lat="43.6418" lon="3.28902">
        <ele>210.2</ele>
        <time>2024-03-21T13:25:03Z</time>
      </trkpt>
      <trkpt lat="43.64186" lon="3.28899">
        <ele>210.5</ele>
        <time>2024-03-21T13:25:06Z</time>
      </trkpt>
      <trkpt lat="43.6419" lon="3.28895">
        <ele>211.1</ele>
        <time>2024-03-21T13:25:08Z</time>
      </trkpt>
      <trkpt lat="43.64192" lon="3.28894">
        <ele>211.2</ele>
        <time>2024-03-21T13:25:09Z</time>
      </trkpt>
      <trkpt lat="43.64194" lon="3.28892">
        <ele>211.5</ele>
        <time>2024-03-21T13:25:10Z</time>
      </trkpt>
      <trkpt lat="43.64196" lon="3.28891">
        <ele>211.4</ele>
        <time>2024-03-21T13:25:11Z</time>
      </trkpt>
      <trkpt lat="43.64197" lon="3.2889">
        <ele>211.4</ele>
        <time>2024-03-21T13:25:12Z</time>
      </trkpt>
      <trkpt lat="43.64199" lon="3.28889">
        <ele>211.3</ele>
        <time>2024-03-21T13:25:13Z</time>
      </trkpt>
      <trkpt lat="43.64201" lon="3.28887">
        <ele>211.4</ele>
        <time>2024-03-21T13:25:14Z</time>
      </trkpt>
      <trkpt lat="43.64203" lon="3.28886">
        <ele>211.2</ele>
        <time>2024-03-21T13:25:15Z</time>
      </trkpt>
      <trkpt lat="43.64205" lon="3.28884">
        <ele>211.3</ele>
        <time>2024-03-21T13:25:16Z</time>
      </trkpt>
      <trkpt lat="43.64207" lon="3.28883">
        <ele>211.2</ele>
        <time>2024-03-21T13:25:17Z</time>
      </trkpt>
      <trkpt lat="43.64209" lon="3.28881">
        <ele>211.3</ele>
        <time>2024-03-21T13:25:18Z</time>
      </trkpt>
      <trkpt lat="43.64211" lon="3.28878">
        <ele>211.7</ele>
        <time>2024-03-21T13:25:19Z</time>
      </trkpt>
      <trkpt lat="43.64215" lon="3.28874">
        <ele>212</ele>
        <time>2024-03-21T13:25:21Z</time>
      </trkpt>
      <trkpt lat="43.64217" lon="3.28871">
        <ele>212.4</ele>
        <time>2024-03-21T13:25:22Z</time>
      </trkpt>
      <trkpt lat="43.64218" lon="3.28868">
        <ele>212.9</ele>
        <time>2024-03-21T13:25:23Z</time>
      </trkpt>
      <trkpt lat="43.6422" lon="3.28866">
        <ele>213.1</ele>
        <time>2024-03-21T13:25:24Z</time>
      </trkpt>
      <trkpt lat="43.64222" lon="3.28863">
        <ele>213.6</ele>
        <time>2024-03-21T13:25:25Z</time>
      </trkpt>
      <trkpt lat="43.64224" lon="3.28861">
        <ele>213.7</ele>
        <time>2024-03-21T13:25:26Z</time>
      </trkpt>
      <trkpt lat="43.64226" lon="3.28858">
        <ele>214</ele>
        <time>2024-03-21T13:25:27Z</time>
      </trkpt>
      <trkpt lat="43.6423" lon="3.28854">
        <ele>214.2</ele>
        <time>2024-03-21T13:25:29Z</time>
      </trkpt>
      <trkpt lat="43.64231" lon="3.28852">
        <ele>214.5</ele>
        <time>2024-03-21T13:25:30Z</time>
      </trkpt>
      <trkpt lat="43.64243" lon="3.2884">
        <ele>215.4</ele>
        <time>2024-03-21T13:25:36Z</time>
      </trkpt>
      <trkpt lat="43.64244" lon="3.28838">
        <ele>215.7</ele>
        <time>2024-03-21T13:25:37Z</time>
      </trkpt>
      <trkpt lat="43.64254" lon="3.28828">
        <ele>216.7</ele>
        <time>2024-03-21T13:25:42Z</time>
      </trkpt>
      <trkpt lat="43.64256" lon="3.28825">
        <ele>217.1</ele>
        <time>2024-03-21T13:25:43Z</time>
      </trkpt>
      <trkpt lat="43.64258" lon="3.28823">
        <ele>217.2</ele>
        <time>2024-03-21T13:25:44Z</time>
      </trkpt>
      <trkpt lat="43.64259" lon="3.28821">
        <ele>217.5</ele>
        <time>2024-03-21T13:25:45Z</time>
      </trkpt>
      <trkpt lat="43.64261" lon="3.28818">
        <ele>217.8</ele>
        <time>2024-03-21T13:25:46Z</time>
      </trkpt>
      <trkpt lat="43.64263" lon="3.28814">
        <ele>218.3</ele>
        <time>2024-03-21T13:25:48Z</time>
      </trkpt>
      <trkpt lat="43.64267" lon="3.2881">
        <ele>218.4</ele>
        <time>2024-03-21T13:25:50Z</time>
      </trkpt>
      <trkpt lat="43.64268" lon="3.28807">
        <ele>218.8</ele>
        <time>2024-03-21T13:25:51Z</time>
      </trkpt>
      <trkpt lat="43.6427" lon="3.28804">
        <ele>218.9</ele>
        <time>2024-03-21T13:25:52Z</time>
      </trkpt>
      <trkpt lat="43.64273" lon="3.28795">
        <ele>219.6</ele>
        <time>2024-03-21T13:25:55Z</time>
      </trkpt>
      <trkpt lat="43.64274" lon="3.28791">
        <ele>220</ele>
        <time>2024-03-21T13:25:56Z</time>
      </trkpt>
      <trkpt lat="43.64275" lon="3.28788">
        <ele>220.2</ele>
        <time>2024-03-21T13:25:57Z</time>
      </trkpt>
      <trkpt lat="43.64275" lon="3.28784">
        <ele>220.8</ele>
        <time>2024-03-21T13:25:58Z</time>
      </trkpt>
      <trkpt lat="43.64277" lon="3.28776">
        <ele>221.5</ele>
        <time>2024-03-21T13:26:00Z</time>
      </trkpt>
      <trkpt lat="43.64283" lon="3.28767">
        <ele>222.6</ele>
        <time>2024-03-21T13:26:03Z</time>
      </trkpt>
      <trkpt lat="43.64292" lon="3.28758">
        <ele>223.3</ele>
        <time>2024-03-21T13:26:07Z</time>
      </trkpt>
      <trkpt lat="43.64293" lon="3.28755">
        <ele>223.7</ele>
        <time>2024-03-21T13:26:08Z</time>
      </trkpt>
      <trkpt lat="43.64299" lon="3.28746">
        <ele>224.5</ele>
        <time>2024-03-21T13:26:11Z</time>
      </trkpt>
      <trkpt lat="43.64301" lon="3.28742">
        <ele>225</ele>
        <time>2024-03-21T13:26:12Z</time>
      </trkpt>
      <trkpt lat="43.64303" lon="3.28739">
        <ele>225.3</ele>
        <time>2024-03-21T13:26:13Z</time>
      </trkpt>
      <trkpt lat="43.64305" lon="3.28737">
        <ele>225.4</ele>
        <time>2024-03-21T13:26:14Z</time>
      </trkpt>
      <trkpt lat="43.64306" lon="3.28735">
        <ele>225.7</ele>
        <time>2024-03-21T13:26:15Z</time>
      </trkpt>
      <trkpt lat="43.64308" lon="3.28733">
        <ele>225.8</ele>
        <time>2024-03-21T13:26:16Z</time>
      </trkpt>
      <trkpt lat="43.64309" lon="3.28731">
        <ele>226.1</ele>
        <time>2024-03-21T13:26:17Z</time>
      </trkpt>
      <trkpt lat="43.64313" lon="3.28725">
        <ele>226.7</ele>
        <time>2024-03-21T13:26:19Z</time>
      </trkpt>
      <trkpt lat="43.64314" lon="3.28722">
        <ele>227.1</ele>
        <time>2024-03-21T13:26:20Z</time>
      </trkpt>
      <trkpt lat="43.64316" lon="3.2872">
        <ele>227.1</ele>
        <time>2024-03-21T13:26:21Z</time>
      </trkpt>
      <trkpt lat="43.64317" lon="3.28717">
        <ele>227.4</ele>
        <time>2024-03-21T13:26:22Z</time>
      </trkpt>
      <trkpt lat="43.64319" lon="3.28714">
        <ele>227.4</ele>
        <time>2024-03-21T13:26:23Z</time>
      </trkpt>
      <trkpt lat="43.64321" lon="3.2871">
        <ele>227.6</ele>
        <time>2024-03-21T13:26:24Z</time>
      </trkpt>
      <trkpt lat="43.64323" lon="3.28707">
        <ele>227.6</ele>
        <time>2024-03-21T13:26:25Z</time>
      </trkpt>
      <trkpt lat="43.64324" lon="3.28702">
        <ele>228</ele>
        <time>2024-03-21T13:26:26Z</time>
      </trkpt>
      <trkpt lat="43.64326" lon="3.28698">
        <ele>228</ele>
        <time>2024-03-21T13:26:27Z</time>
      </trkpt>
      <trkpt lat="43.64326" lon="3.28693">
        <ele>228.4</ele>
        <time>2024-03-21T13:26:28Z</time>
      </trkpt>
      <trkpt lat="43.64328" lon="3.28685">
        <ele>228.7</ele>
        <time>2024-03-21T13:26:30Z</time>
      </trkpt>
      <trkpt lat="43.64329" lon="3.2868">
        <ele>228.9</ele>
        <time>2024-03-21T13:26:31Z</time>
      </trkpt>
      <trkpt lat="43.64329" lon="3.28666">
        <ele>230</ele>
        <time>2024-03-21T13:26:35Z</time>
      </trkpt>
      <trkpt lat="43.6433" lon="3.28663">
        <ele>230</ele>
        <time>2024-03-21T13:26:36Z</time>
      </trkpt>
      <trkpt lat="43.6433" lon="3.28655">
        <ele>230.6</ele>
        <time>2024-03-21T13:26:38Z</time>
      </trkpt>
      <trkpt lat="43.64331" lon="3.28651">
        <ele>230.6</ele>
        <time>2024-03-21T13:26:39Z</time>
      </trkpt>
      <trkpt lat="43.64331" lon="3.28647">
        <ele>230.9</ele>
        <time>2024-03-21T13:26:40Z</time>
      </trkpt>
      <trkpt lat="43.64332" lon="3.28643">
        <ele>231</ele>
        <time>2024-03-21T13:26:41Z</time>
      </trkpt>
      <trkpt lat="43.64336" lon="3.28631">
        <ele>231.4</ele>
        <time>2024-03-21T13:26:45Z</time>
      </trkpt>
      <trkpt lat="43.6434" lon="3.28625">
        <ele>231.4</ele>
        <time>2024-03-21T13:26:47Z</time>
      </trkpt>
      <trkpt lat="43.64341" lon="3.28623">
        <ele>231.5</ele>
        <time>2024-03-21T13:26:48Z</time>
      </trkpt>
      <trkpt lat="43.64343" lon="3.2862">
        <ele>231.5</ele>
        <time>2024-03-21T13:26:49Z</time>
      </trkpt>
      <trkpt lat="43.64346" lon="3.28619">
        <ele>231.2</ele>
        <time>2024-03-21T13:26:50Z</time>
      </trkpt>
      <trkpt lat="43.64347" lon="3.28617">
        <ele>231.3</ele>
        <time>2024-03-21T13:26:51Z</time>
      </trkpt>
      <trkpt lat="43.64352" lon="3.28612">
        <ele>231.2</ele>
        <time>2024-03-21T13:26:55Z</time>
      </trkpt>
      <trkpt lat="43.64353" lon="3.2861">
        <ele>231.4</ele>
        <time>2024-03-21T13:26:56Z</time>
      </trkpt>
      <trkpt lat="43.64354" lon="3.28609">
        <ele>231.4</ele>
        <time>2024-03-21T13:26:57Z</time>
      </trkpt>
      <trkpt lat="43.64356" lon="3.28605">
        <ele>231.8</ele>
        <time>2024-03-21T13:26:59Z</time>
      </trkpt>
      <trkpt lat="43.64357" lon="3.28604">
        <ele>231.8</ele>
        <time>2024-03-21T13:27:00Z</time>
      </trkpt>
      <trkpt lat="43.64357" lon="3.28602">
        <ele>232.2</ele>
        <time>2024-03-21T13:27:01Z</time>
      </trkpt>
      <trkpt lat="43.64358" lon="3.28599">
        <ele>232.6</ele>
        <time>2024-03-21T13:27:02Z</time>
      </trkpt>
      <trkpt lat="43.64358" lon="3.28597">
        <ele>232.9</ele>
        <time>2024-03-21T13:27:03Z</time>
      </trkpt>
      <trkpt lat="43.64359" lon="3.28595">
        <ele>233.2</ele>
        <time>2024-03-21T13:27:04Z</time>
      </trkpt>
      <trkpt lat="43.6436" lon="3.28594">
        <ele>233.2</ele>
        <time>2024-03-21T13:27:05Z</time>
      </trkpt>
      <trkpt lat="43.64362" lon="3.2859">
        <ele>233.7</ele>
        <time>2024-03-21T13:27:07Z</time>
      </trkpt>
      <trkpt lat="43.64364" lon="3.28587">
        <ele>234</ele>
        <time>2024-03-21T13:27:08Z</time>
      </trkpt>
      <trkpt lat="43.64365" lon="3.28584">
        <ele>234.6</ele>
        <time>2024-03-21T13:27:09Z</time>
      </trkpt>
      <trkpt lat="43.64366" lon="3.28582">
        <ele>234.9</ele>
        <time>2024-03-21T13:27:10Z</time>
      </trkpt>
      <trkpt lat="43.6437" lon="3.28578">
        <ele>235.3</ele>
        <time>2024-03-21T13:27:12Z</time>
      </trkpt>
      <trkpt lat="43.64374" lon="3.28576">
        <ele>235.4</ele>
        <time>2024-03-21T13:27:14Z</time>
      </trkpt>
      <trkpt lat="43.64377" lon="3.28577">
        <ele>235</ele>
        <time>2024-03-21T13:27:15Z</time>
      </trkpt>
      <trkpt lat="43.64379" lon="3.28578">
        <ele>234.7</ele>
        <time>2024-03-21T13:27:16Z</time>
      </trkpt>
      <trkpt lat="43.64384" lon="3.28578">
        <ele>234.4</ele>
        <time>2024-03-21T13:27:18Z</time>
      </trkpt>
      <trkpt lat="43.64388" lon="3.28576">
        <ele>234.6</ele>
        <time>2024-03-21T13:27:20Z</time>
      </trkpt>
      <trkpt lat="43.6439" lon="3.28574">
        <ele>234.7</ele>
        <time>2024-03-21T13:27:21Z</time>
      </trkpt>
      <trkpt lat="43.64391" lon="3.28571">
        <ele>235.2</ele>
        <time>2024-03-21T13:27:22Z</time>
      </trkpt>
      <trkpt lat="43.64393" lon="3.28569">
        <ele>235.1</ele>
        <time>2024-03-21T13:27:23Z</time>
      </trkpt>
      <trkpt lat="43.64395" lon="3.28568">
        <ele>234.9</ele>
        <time>2024-03-21T13:27:24Z</time>
      </trkpt>
      <trkpt lat="43.64397" lon="3.28566">
        <ele>235</ele>
        <time>2024-03-21T13:27:25Z</time>
      </trkpt>
      <trkpt lat="43.64399" lon="3.28565">
        <ele>234.8</ele>
        <time>2024-03-21T13:27:26Z</time>
      </trkpt>
      <trkpt lat="43.64401" lon="3.28563">
        <ele>234.9</ele>
        <time>2024-03-21T13:27:27Z</time>
      </trkpt>
      <trkpt lat="43.64402" lon="3.28561">
        <ele>235.2</ele>
        <time>2024-03-21T13:27:28Z</time>
      </trkpt>
      <trkpt lat="43.64404" lon="3.28558">
        <ele>235.6</ele>
        <time>2024-03-21T13:27:29Z</time>
      </trkpt>
      <trkpt lat="43.64405" lon="3.28556">
        <ele>236</ele>
        <time>2024-03-21T13:27:30Z</time>
      </trkpt>
      <trkpt lat="43.64407" lon="3.28555">
        <ele>235.9</ele>
        <time>2024-03-21T13:27:31Z</time>
      </trkpt>
      <trkpt lat="43.64412" lon="3.2855">
        <ele>236.2</ele>
        <time>2024-03-21T13:27:33Z</time>
      </trkpt>
      <trkpt lat="43.64413" lon="3.28548">
        <ele>236.5</ele>
        <time>2024-03-21T13:27:34Z</time>
      </trkpt>
      <trkpt lat="43.64415" lon="3.28546">
        <ele>236.7</ele>
        <time>2024-03-21T13:27:35Z</time>
      </trkpt>
      <trkpt lat="43.64417" lon="3.28545">
        <ele>236.6</ele>
        <time>2024-03-21T13:27:36Z</time>
      </trkpt>
      <trkpt lat="43.64418" lon="3.28543">
        <ele>236.8</ele>
        <time>2024-03-21T13:27:37Z</time>
      </trkpt>
      <trkpt lat="43.6442" lon="3.2854">
        <ele>237.1</ele>
        <time>2024-03-21T13:27:38Z</time>
      </trkpt>
      <trkpt lat="43.64421" lon="3.28538">
        <ele>237.4</ele>
        <time>2024-03-21T13:27:39Z</time>
      </trkpt>
      <trkpt lat="43.64422" lon="3.28535">
        <ele>237.9</ele>
        <time>2024-03-21T13:27:40Z</time>
      </trkpt>
      <trkpt lat="43.64423" lon="3.28533">
        <ele>238.2</ele>
        <time>2024-03-21T13:27:41Z</time>
      </trkpt>
      <trkpt lat="43.64424" lon="3.2853">
        <ele>238.8</ele>
        <time>2024-03-21T13:27:42Z</time>
      </trkpt>
      <trkpt lat="43.64426" lon="3.28529">
        <ele>238.6</ele>
        <time>2024-03-21T13:27:43Z</time>
      </trkpt>
      <trkpt lat="43.64433" lon="3.28522">
        <ele>238.8</ele>
        <time>2024-03-21T13:27:47Z</time>
      </trkpt>
      <trkpt lat="43.64439" lon="3.2852">
        <ele>238</ele>
        <time>2024-03-21T13:27:49Z</time>
      </trkpt>
      <trkpt lat="43.64441" lon="3.2852">
        <ele>237.6</ele>
        <time>2024-03-21T13:27:50Z</time>
      </trkpt>
      <trkpt lat="43.64444" lon="3.28519">
        <ele>237.3</ele>
        <time>2024-03-21T13:27:51Z</time>
      </trkpt>
      <trkpt lat="43.64446" lon="3.28518">
        <ele>237.2</ele>
        <time>2024-03-21T13:27:52Z</time>
      </trkpt>
      <trkpt lat="43.64448" lon="3.28515">
        <ele>237.6</ele>
        <time>2024-03-21T13:27:53Z</time>
      </trkpt>
      <trkpt lat="43.64453" lon="3.2851">
        <ele>238.1</ele>
        <time>2024-03-21T13:27:56Z</time>
      </trkpt>
      <trkpt lat="43.64456" lon="3.28508">
        <ele>238</ele>
        <time>2024-03-21T13:27:57Z</time>
      </trkpt>
      <trkpt lat="43.64458" lon="3.28507">
        <ele>237.9</ele>
        <time>2024-03-21T13:27:58Z</time>
      </trkpt>
      <trkpt lat="43.64462" lon="3.28503">
        <ele>238.2</ele>
        <time>2024-03-21T13:28:00Z</time>
      </trkpt>
      <trkpt lat="43.64463" lon="3.285">
        <ele>238.7</ele>
        <time>2024-03-21T13:28:01Z</time>
      </trkpt>
      <trkpt lat="43.64465" lon="3.28499">
        <ele>238.5</ele>
        <time>2024-03-21T13:28:02Z</time>
      </trkpt>
      <trkpt lat="43.64467" lon="3.28496">
        <ele>238.7</ele>
        <time>2024-03-21T13:28:03Z</time>
      </trkpt>
      <trkpt lat="43.64474" lon="3.28475">
        <ele>241.2</ele>
        <time>2024-03-21T13:28:10Z</time>
      </trkpt>
      <trkpt lat="43.64474" lon="3.28471">
        <ele>241.9</ele>
        <time>2024-03-21T13:28:11Z</time>
      </trkpt>
      <trkpt lat="43.64475" lon="3.28468">
        <ele>242.2</ele>
        <time>2024-03-21T13:28:12Z</time>
      </trkpt>
      <trkpt lat="43.64475" lon="3.28461">
        <ele>243.2</ele>
        <time>2024-03-21T13:28:15Z</time>
      </trkpt>
      <trkpt lat="43.64474" lon="3.28458">
        <ele>243.8</ele>
        <time>2024-03-21T13:28:16Z</time>
      </trkpt>
      <trkpt lat="43.64474" lon="3.28454">
        <ele>244.3</ele>
        <time>2024-03-21T13:28:17Z</time>
      </trkpt>
      <trkpt lat="43.64473" lon="3.28451">
        <ele>244.9</ele>
        <time>2024-03-21T13:28:18Z</time>
      </trkpt>
      <trkpt lat="43.64472" lon="3.28447">
        <ele>245.7</ele>
        <time>2024-03-21T13:28:19Z</time>
      </trkpt>
      <trkpt lat="43.64472" lon="3.28437">
        <ele>246.8</ele>
        <time>2024-03-21T13:28:22Z</time>
      </trkpt>
      <trkpt lat="43.64473" lon="3.28435">
        <ele>246.9</ele>
        <time>2024-03-21T13:28:23Z</time>
      </trkpt>
      <trkpt lat="43.64473" lon="3.28432">
        <ele>247.2</ele>
        <time>2024-03-21T13:28:24Z</time>
      </trkpt>
      <trkpt lat="43.64474" lon="3.28429">
        <ele>247.3</ele>
        <time>2024-03-21T13:28:25Z</time>
      </trkpt>
      <trkpt lat="43.64474" lon="3.28427">
        <ele>247.5</ele>
        <time>2024-03-21T13:28:26Z</time>
      </trkpt>
      <trkpt lat="43.64476" lon="3.28421">
        <ele>247.7</ele>
        <time>2024-03-21T13:28:28Z</time>
      </trkpt>
      <trkpt lat="43.64475" lon="3.28417">
        <ele>248.4</ele>
        <time>2024-03-21T13:28:29Z</time>
      </trkpt>
      <trkpt lat="43.64475" lon="3.28411">
        <ele>248.8</ele>
        <time>2024-03-21T13:28:31Z</time>
      </trkpt>
      <trkpt lat="43.64476" lon="3.28408">
        <ele>248.8</ele>
        <time>2024-03-21T13:28:32Z</time>
      </trkpt>
      <trkpt lat="43.64476" lon="3.28406">
        <ele>248.9</ele>
        <time>2024-03-21T13:28:33Z</time>
      </trkpt>
      <trkpt lat="43.64477" lon="3.28403">
        <ele>248.9</ele>
        <time>2024-03-21T13:28:34Z</time>
      </trkpt>
      <trkpt lat="43.64476" lon="3.284">
        <ele>249.3</ele>
        <time>2024-03-21T13:28:35Z</time>
      </trkpt>
      <trkpt lat="43.64476" lon="3.28392">
        <ele>249.8</ele>
        <time>2024-03-21T13:28:38Z</time>
      </trkpt>
      <trkpt lat="43.64475" lon="3.28391">
        <ele>250.2</ele>
        <time>2024-03-21T13:28:39Z</time>
      </trkpt>
      <trkpt lat="43.64475" lon="3.28386">
        <ele>250.5</ele>
        <time>2024-03-21T13:28:41Z</time>
      </trkpt>
      <trkpt lat="43.64474" lon="3.28384">
        <ele>250.9</ele>
        <time>2024-03-21T13:28:42Z</time>
      </trkpt>
      <trkpt lat="43.64474" lon="3.28381">
        <ele>251.1</ele>
        <time>2024-03-21T13:28:43Z</time>
      </trkpt>
      <trkpt lat="43.64475" lon="3.28378">
        <ele>251.1</ele>
        <time>2024-03-21T13:28:44Z</time>
      </trkpt>
      <trkpt lat="43.64475" lon="3.28374">
        <ele>251.4</ele>
        <time>2024-03-21T13:28:46Z</time>
      </trkpt>
      <trkpt lat="43.64474" lon="3.28371">
        <ele>251.9</ele>
        <time>2024-03-21T13:28:47Z</time>
      </trkpt>
      <trkpt lat="43.64473" lon="3.28367">
        <ele>252.4</ele>
        <time>2024-03-21T13:28:48Z</time>
      </trkpt>
      <trkpt lat="43.64473" lon="3.28361">
        <ele>252.8</ele>
        <time>2024-03-21T13:28:50Z</time>
      </trkpt>
      <trkpt lat="43.64474" lon="3.28359">
        <ele>252.8</ele>
        <time>2024-03-21T13:28:51Z</time>
      </trkpt>
      <trkpt lat="43.64476" lon="3.28353">
        <ele>252.8</ele>
        <time>2024-03-21T13:28:53Z</time>
      </trkpt>
      <trkpt lat="43.64476" lon="3.28348">
        <ele>253.3</ele>
        <time>2024-03-21T13:28:57Z</time>
      </trkpt>
      <trkpt lat="43.64475" lon="3.28345">
        <ele>253.7</ele>
        <time>2024-03-21T13:28:59Z</time>
      </trkpt>
      <trkpt lat="43.64474" lon="3.28343">
        <ele>254</ele>
        <time>2024-03-21T13:29:00Z</time>
      </trkpt>
      <trkpt lat="43.64474" lon="3.28341">
        <ele>254.2</ele>
        <time>2024-03-21T13:29:01Z</time>
      </trkpt>
      <trkpt lat="43.64475" lon="3.28337">
        <ele>254.3</ele>
        <time>2024-03-21T13:29:02Z</time>
      </trkpt>
      <trkpt lat="43.64474" lon="3.28334">
        <ele>254.7</ele>
        <time>2024-03-21T13:29:03Z</time>
      </trkpt>
      <trkpt lat="43.64473" lon="3.2833">
        <ele>255.1</ele>
        <time>2024-03-21T13:29:04Z</time>
      </trkpt>
      <trkpt lat="43.64473" lon="3.28323">
        <ele>255.7</ele>
        <time>2024-03-21T13:29:06Z</time>
      </trkpt>
      <trkpt lat="43.64472" lon="3.28319">
        <ele>256.1</ele>
        <time>2024-03-21T13:29:07Z</time>
      </trkpt>
      <trkpt lat="43.64472" lon="3.28316">
        <ele>256.3</ele>
        <time>2024-03-21T13:29:08Z</time>
      </trkpt>
      <trkpt lat="43.6447" lon="3.2831">
        <ele>257.5</ele>
        <time>2024-03-21T13:29:10Z</time>
      </trkpt>
      <trkpt lat="43.6447" lon="3.28307">
        <ele>257.8</ele>
        <time>2024-03-21T13:29:11Z</time>
      </trkpt>
      <trkpt lat="43.64471" lon="3.28304">
        <ele>257.5</ele>
        <time>2024-03-21T13:29:12Z</time>
      </trkpt>
      <trkpt lat="43.64471" lon="3.28299">
        <ele>257.7</ele>
        <time>2024-03-21T13:29:14Z</time>
      </trkpt>
      <trkpt lat="43.6447" lon="3.28296">
        <ele>258.2</ele>
        <time>2024-03-21T13:29:15Z</time>
      </trkpt>
      <trkpt lat="43.64469" lon="3.28292">
        <ele>258.8</ele>
        <time>2024-03-21T13:29:16Z</time>
      </trkpt>
      <trkpt lat="43.64469" lon="3.28286">
        <ele>259</ele>
        <time>2024-03-21T13:29:18Z</time>
      </trkpt>
      <trkpt lat="43.6447" lon="3.28284">
        <ele>258.7</ele>
        <time>2024-03-21T13:29:19Z</time>
      </trkpt>
      <trkpt lat="43.6447" lon="3.28281">
        <ele>258.8</ele>
        <time>2024-03-21T13:29:20Z</time>
      </trkpt>
      <trkpt lat="43.64472" lon="3.2828">
        <ele>258</ele>
        <time>2024-03-21T13:29:21Z</time>
      </trkpt>
      <trkpt lat="43.64474" lon="3.28276">
        <ele>258.6</ele>
        <time>2024-03-21T13:29:23Z</time>
      </trkpt>
      <trkpt lat="43.64478" lon="3.28274">
        <ele>259.3</ele>
        <time>2024-03-21T13:29:25Z</time>
      </trkpt>
      <trkpt lat="43.64481" lon="3.28273">
        <ele>259.6</ele>
        <time>2024-03-21T13:29:26Z</time>
      </trkpt>
      <trkpt lat="43.64483" lon="3.28274">
        <ele>259.4</ele>
        <time>2024-03-21T13:29:27Z</time>
      </trkpt>
      <trkpt lat="43.64486" lon="3.28275">
        <ele>259.2</ele>
        <time>2024-03-21T13:29:28Z</time>
      </trkpt>
      <trkpt lat="43.64488" lon="3.28277">
        <ele>258.8</ele>
        <time>2024-03-21T13:29:29Z</time>
      </trkpt>
      <trkpt lat="43.64491" lon="3.28279">
        <ele>258.5</ele>
        <time>2024-03-21T13:29:30Z</time>
      </trkpt>
      <trkpt lat="43.64495" lon="3.28283">
        <ele>258.2</ele>
        <time>2024-03-21T13:29:32Z</time>
      </trkpt>
      <trkpt lat="43.64496" lon="3.28285">
        <ele>257.9</ele>
        <time>2024-03-21T13:29:33Z</time>
      </trkpt>
      <trkpt lat="43.64498" lon="3.28286">
        <ele>257.8</ele>
        <time>2024-03-21T13:29:34Z</time>
      </trkpt>
      <trkpt lat="43.64501" lon="3.28287">
        <ele>257.9</ele>
        <time>2024-03-21T13:29:35Z</time>
      </trkpt>
      <trkpt lat="43.64503" lon="3.28288">
        <ele>258.4</ele>
        <time>2024-03-21T13:29:36Z</time>
      </trkpt>
      <trkpt lat="43.64507" lon="3.28292">
        <ele>258.8</ele>
        <time>2024-03-21T13:29:38Z</time>
      </trkpt>
      <trkpt lat="43.64509" lon="3.28295">
        <ele>258.9</ele>
        <time>2024-03-21T13:29:39Z</time>
      </trkpt>
      <trkpt lat="43.64519" lon="3.28305">
        <ele>259.9</ele>
        <time>2024-03-21T13:29:44Z</time>
      </trkpt>
      <trkpt lat="43.6452" lon="3.28307">
        <ele>259.8</ele>
        <time>2024-03-21T13:29:45Z</time>
      </trkpt>
      <trkpt lat="43.64524" lon="3.28311">
        <ele>260.3</ele>
        <time>2024-03-21T13:29:47Z</time>
      </trkpt>
      <trkpt lat="43.64525" lon="3.28314">
        <ele>260.1</ele>
        <time>2024-03-21T13:29:48Z</time>
      </trkpt>
      <trkpt lat="43.64527" lon="3.28317">
        <ele>260.2</ele>
        <time>2024-03-21T13:29:49Z</time>
      </trkpt>
      <trkpt lat="43.64528" lon="3.2832">
        <ele>260</ele>
        <time>2024-03-21T13:29:50Z</time>
      </trkpt>
      <trkpt lat="43.64529" lon="3.28322">
        <ele>259.9</ele>
        <time>2024-03-21T13:29:51Z</time>
      </trkpt>
      <trkpt lat="43.6453" lon="3.28325">
        <ele>259.7</ele>
        <time>2024-03-21T13:29:52Z</time>
      </trkpt>
      <trkpt lat="43.64531" lon="3.28327">
        <ele>259.7</ele>
        <time>2024-03-21T13:29:53Z</time>
      </trkpt>
      <trkpt lat="43.64533" lon="3.28329">
        <ele>259.8</ele>
        <time>2024-03-21T13:29:54Z</time>
      </trkpt>
      <trkpt lat="43.64535" lon="3.28335">
        <ele>259.3</ele>
        <time>2024-03-21T13:29:56Z</time>
      </trkpt>
      <trkpt lat="43.64536" lon="3.28337">
        <ele>259.1</ele>
        <time>2024-03-21T13:29:57Z</time>
      </trkpt>
      <trkpt lat="43.64538" lon="3.2834">
        <ele>259</ele>
        <time>2024-03-21T13:29:58Z</time>
      </trkpt>
      <trkpt lat="43.64539" lon="3.28342">
        <ele>258.9</ele>
        <time>2024-03-21T13:29:59Z</time>
      </trkpt>
      <trkpt lat="43.64541" lon="3.28344">
        <ele>258.9</ele>
        <time>2024-03-21T13:30:00Z</time>
      </trkpt>
      <trkpt lat="43.64543" lon="3.28345">
        <ele>259.2</ele>
        <time>2024-03-21T13:30:01Z</time>
      </trkpt>
      <trkpt lat="43.64546" lon="3.28345">
        <ele>259.8</ele>
        <time>2024-03-21T13:30:02Z</time>
      </trkpt>
      <trkpt lat="43.64549" lon="3.28346">
        <ele>260.3</ele>
        <time>2024-03-21T13:30:03Z</time>
      </trkpt>
      <trkpt lat="43.64552" lon="3.28346">
        <ele>261</ele>
        <time>2024-03-21T13:30:04Z</time>
      </trkpt>
      <trkpt lat="43.64555" lon="3.28347">
        <ele>261.4</ele>
        <time>2024-03-21T13:30:05Z</time>
      </trkpt>
      <trkpt lat="43.64557" lon="3.28349">
        <ele>261.5</ele>
        <time>2024-03-21T13:30:06Z</time>
      </trkpt>
      <trkpt lat="43.6456" lon="3.28351">
        <ele>261.7</ele>
        <time>2024-03-21T13:30:07Z</time>
      </trkpt>
      <trkpt lat="43.64562" lon="3.28354">
        <ele>261.5</ele>
        <time>2024-03-21T13:30:08Z</time>
      </trkpt>
      <trkpt lat="43.64565" lon="3.28355">
        <ele>261.9</ele>
        <time>2024-03-21T13:30:09Z</time>
      </trkpt>
      <trkpt lat="43.64568" lon="3.28355">
        <ele>262.4</ele>
        <time>2024-03-21T13:30:10Z</time>
      </trkpt>
      <trkpt lat="43.64571" lon="3.28354">
        <ele>263.2</ele>
        <time>2024-03-21T13:30:11Z</time>
      </trkpt>
      <trkpt lat="43.64582" lon="3.28354">
        <ele>265.3</ele>
        <time>2024-03-21T13:30:15Z</time>
      </trkpt>
      <trkpt lat="43.64585" lon="3.28355">
        <ele>265.7</ele>
        <time>2024-03-21T13:30:16Z</time>
      </trkpt>
      <trkpt lat="43.64587" lon="3.28355">
        <ele>266.1</ele>
        <time>2024-03-21T13:30:17Z</time>
      </trkpt>
      <trkpt lat="43.6459" lon="3.28357">
        <ele>266.3</ele>
        <time>2024-03-21T13:30:18Z</time>
      </trkpt>
      <trkpt lat="43.64592" lon="3.28358">
        <ele>266.5</ele>
        <time>2024-03-21T13:30:19Z</time>
      </trkpt>
      <trkpt lat="43.64594" lon="3.28361">
        <ele>266.3</ele>
        <time>2024-03-21T13:30:20Z</time>
      </trkpt>
      <trkpt lat="43.64596" lon="3.28362">
        <ele>266.5</ele>
        <time>2024-03-21T13:30:21Z</time>
      </trkpt>
      <trkpt lat="43.64602" lon="3.28368">
        <ele>266.5</ele>
        <time>2024-03-21T13:30:24Z</time>
      </trkpt>
      <trkpt lat="43.64605" lon="3.2837">
        <ele>266.7</ele>
        <time>2024-03-21T13:30:25Z</time>
      </trkpt>
      <trkpt lat="43.64607" lon="3.28371">
        <ele>266.9</ele>
        <time>2024-03-21T13:30:26Z</time>
      </trkpt>
      <trkpt lat="43.64609" lon="3.28373">
        <ele>266.9</ele>
        <time>2024-03-21T13:30:27Z</time>
      </trkpt>
      <trkpt lat="43.64615" lon="3.28376">
        <ele>267.5</ele>
        <time>2024-03-21T13:30:30Z</time>
      </trkpt>
      <trkpt lat="43.64617" lon="3.28375">
        <ele>268.1</ele>
        <time>2024-03-21T13:30:31Z</time>
      </trkpt>
      <trkpt lat="43.64618" lon="3.28372">
        <ele>268.9</ele>
        <time>2024-03-21T13:30:32Z</time>
      </trkpt>
      <trkpt lat="43.64618" lon="3.28366">
        <ele>270.2</ele>
        <time>2024-03-21T13:30:34Z</time>
      </trkpt>
      <trkpt lat="43.64617" lon="3.28364">
        <ele>270.4</ele>
        <time>2024-03-21T13:30:35Z</time>
      </trkpt>
      <trkpt lat="43.64613" lon="3.2836">
        <ele>270.6</ele>
        <time>2024-03-21T13:30:37Z</time>
      </trkpt>
      <trkpt lat="43.64612" lon="3.28357">
        <ele>271</ele>
        <time>2024-03-21T13:30:38Z</time>
      </trkpt>
      <trkpt lat="43.64611" lon="3.28355">
        <ele>271.3</ele>
        <time>2024-03-21T13:30:39Z</time>
      </trkpt>
      <trkpt lat="43.64607" lon="3.28351">
        <ele>271.3</ele>
        <time>2024-03-21T13:30:41Z</time>
      </trkpt>
      <trkpt lat="43.64606" lon="3.28348">
        <ele>271.7</ele>
        <time>2024-03-21T13:30:42Z</time>
      </trkpt>
      <trkpt lat="43.64605" lon="3.28346">
        <ele>271.9</ele>
        <time>2024-03-21T13:30:43Z</time>
      </trkpt>
      <trkpt lat="43.64604" lon="3.28343">
        <ele>272.4</ele>
        <time>2024-03-21T13:30:44Z</time>
      </trkpt>
      <trkpt lat="43.646" lon="3.28337">
        <ele>272.8</ele>
        <time>2024-03-21T13:30:46Z</time>
      </trkpt>
      <trkpt lat="43.64599" lon="3.28335">
        <ele>273</ele>
        <time>2024-03-21T13:30:47Z</time>
      </trkpt>
      <trkpt lat="43.64595" lon="3.28331">
        <ele>273</ele>
        <time>2024-03-21T13:30:49Z</time>
      </trkpt>
      <trkpt lat="43.64593" lon="3.28328">
        <ele>273.2</ele>
        <time>2024-03-21T13:30:50Z</time>
      </trkpt>
      <trkpt lat="43.64592" lon="3.28326">
        <ele>273.5</ele>
        <time>2024-03-21T13:30:51Z</time>
      </trkpt>
      <trkpt lat="43.64591" lon="3.28323">
        <ele>273.9</ele>
        <time>2024-03-21T13:30:52Z</time>
      </trkpt>
      <trkpt lat="43.6459" lon="3.28321">
        <ele>274.1</ele>
        <time>2024-03-21T13:30:53Z</time>
      </trkpt>
      <trkpt lat="43.64587" lon="3.2832">
        <ele>273.7</ele>
        <time>2024-03-21T13:30:54Z</time>
      </trkpt>
      <trkpt lat="43.64585" lon="3.28319">
        <ele>273.5</ele>
        <time>2024-03-21T13:30:55Z</time>
      </trkpt>
      <trkpt lat="43.64583" lon="3.28317">
        <ele>273.5</ele>
        <time>2024-03-21T13:30:56Z</time>
      </trkpt>
      <trkpt lat="43.6458" lon="3.28315">
        <ele>273.2</ele>
        <time>2024-03-21T13:30:57Z</time>
      </trkpt>
      <trkpt lat="43.64574" lon="3.28312">
        <ele>272.6</ele>
        <time>2024-03-21T13:31:00Z</time>
      </trkpt>
      <trkpt lat="43.64572" lon="3.28309">
        <ele>272.8</ele>
        <time>2024-03-21T13:31:01Z</time>
      </trkpt>
      <trkpt lat="43.6457" lon="3.28307">
        <ele>272.8</ele>
        <time>2024-03-21T13:31:02Z</time>
      </trkpt>
      <trkpt lat="43.64568" lon="3.28304">
        <ele>273</ele>
        <time>2024-03-21T13:31:03Z</time>
      </trkpt>
      <trkpt lat="43.64565" lon="3.28298">
        <ele>273.5</ele>
        <time>2024-03-21T13:31:05Z</time>
      </trkpt>
      <trkpt lat="43.64562" lon="3.28289">
        <ele>274.5</ele>
        <time>2024-03-21T13:31:08Z</time>
      </trkpt>
      <trkpt lat="43.64561" lon="3.28287">
        <ele>274.6</ele>
        <time>2024-03-21T13:31:09Z</time>
      </trkpt>
      <trkpt lat="43.64559" lon="3.28285">
        <ele>274.5</ele>
        <time>2024-03-21T13:31:10Z</time>
      </trkpt>
      <trkpt lat="43.64554" lon="3.2827">
        <ele>276.2</ele>
        <time>2024-03-21T13:31:15Z</time>
      </trkpt>
      <trkpt lat="43.64553" lon="3.28268">
        <ele>276.4</ele>
        <time>2024-03-21T13:31:16Z</time>
      </trkpt>
      <trkpt lat="43.64552" lon="3.28265">
        <ele>276.7</ele>
        <time>2024-03-21T13:31:17Z</time>
      </trkpt>
      <trkpt lat="43.64551" lon="3.28263">
        <ele>276.9</ele>
        <time>2024-03-21T13:31:18Z</time>
      </trkpt>
      <trkpt lat="43.64549" lon="3.28257">
        <ele>277.6</ele>
        <time>2024-03-21T13:31:20Z</time>
      </trkpt>
      <trkpt lat="43.64547" lon="3.28254">
        <ele>277.7</ele>
        <time>2024-03-21T13:31:21Z</time>
      </trkpt>
      <trkpt lat="43.64543" lon="3.28242">
        <ele>279</ele>
        <time>2024-03-21T13:31:25Z</time>
      </trkpt>
      <trkpt lat="43.64542" lon="3.28238">
        <ele>279.5</ele>
        <time>2024-03-21T13:31:26Z</time>
      </trkpt>
      <trkpt lat="43.64542" lon="3.28235">
        <ele>280.1</ele>
        <time>2024-03-21T13:31:27Z</time>
      </trkpt>
      <trkpt lat="43.6454" lon="3.28231">
        <ele>280.3</ele>
        <time>2024-03-21T13:31:29Z</time>
      </trkpt>
      <trkpt lat="43.6454" lon="3.28229">
        <ele>280.7</ele>
        <time>2024-03-21T13:31:30Z</time>
      </trkpt>
      <trkpt lat="43.64538" lon="3.28228">
        <ele>280.4</ele>
        <time>2024-03-21T13:31:31Z</time>
      </trkpt>
      <trkpt lat="43.64538" lon="3.28226">
        <ele>280.8</ele>
        <time>2024-03-21T13:31:32Z</time>
      </trkpt>
      <trkpt lat="43.64537" lon="3.28224">
        <ele>281</ele>
        <time>2024-03-21T13:31:33Z</time>
      </trkpt>
      <trkpt lat="43.64535" lon="3.28222">
        <ele>280.9</ele>
        <time>2024-03-21T13:31:34Z</time>
      </trkpt>
      <trkpt lat="43.64535" lon="3.28219">
        <ele>281.4</ele>
        <time>2024-03-21T13:31:35Z</time>
      </trkpt>
      <trkpt lat="43.64533" lon="3.28217">
        <ele>281.3</ele>
        <time>2024-03-21T13:31:36Z</time>
      </trkpt>
      <trkpt lat="43.64532" lon="3.28213">
        <ele>281.7</ele>
        <time>2024-03-21T13:31:37Z</time>
      </trkpt>
      <trkpt lat="43.6453" lon="3.28207">
        <ele>282.3</ele>
        <time>2024-03-21T13:31:39Z</time>
      </trkpt>
      <trkpt lat="43.6453" lon="3.28204">
        <ele>282.8</ele>
        <time>2024-03-21T13:31:40Z</time>
      </trkpt>
      <trkpt lat="43.64529" lon="3.28201">
        <ele>283.1</ele>
        <time>2024-03-21T13:31:41Z</time>
      </trkpt>
      <trkpt lat="43.64529" lon="3.28198">
        <ele>283.7</ele>
        <time>2024-03-21T13:31:42Z</time>
      </trkpt>
      <trkpt lat="43.64528" lon="3.28196">
        <ele>283.8</ele>
        <time>2024-03-21T13:31:43Z</time>
      </trkpt>
      <trkpt lat="43.64528" lon="3.2819">
        <ele>284.7</ele>
        <time>2024-03-21T13:31:45Z</time>
      </trkpt>
      <trkpt lat="43.64526" lon="3.28184">
        <ele>285.2</ele>
        <time>2024-03-21T13:31:47Z</time>
      </trkpt>
      <trkpt lat="43.64526" lon="3.28182">
        <ele>285.5</ele>
        <time>2024-03-21T13:31:48Z</time>
      </trkpt>
      <trkpt lat="43.64525" lon="3.28179">
        <ele>285.7</ele>
        <time>2024-03-21T13:31:49Z</time>
      </trkpt>
      <trkpt lat="43.64526" lon="3.28176">
        <ele>286.4</ele>
        <time>2024-03-21T13:31:50Z</time>
      </trkpt>
      <trkpt lat="43.64526" lon="3.28167">
        <ele>287.7</ele>
        <time>2024-03-21T13:31:53Z</time>
      </trkpt>
      <trkpt lat="43.64525" lon="3.28164">
        <ele>288.2</ele>
        <time>2024-03-21T13:31:54Z</time>
      </trkpt>
      <trkpt lat="43.64524" lon="3.28162">
        <ele>288.5</ele>
        <time>2024-03-21T13:31:55Z</time>
      </trkpt>
      <trkpt lat="43.64523" lon="3.28159">
        <ele>289</ele>
        <time>2024-03-21T13:31:56Z</time>
      </trkpt>
      <trkpt lat="43.64519" lon="3.28155">
        <ele>289.3</ele>
        <time>2024-03-21T13:31:58Z</time>
      </trkpt>
      <trkpt lat="43.64516" lon="3.28154">
        <ele>289</ele>
        <time>2024-03-21T13:31:59Z</time>
      </trkpt>
      <trkpt lat="43.64512" lon="3.2815">
        <ele>289.3</ele>
        <time>2024-03-21T13:32:01Z</time>
      </trkpt>
      <trkpt lat="43.64511" lon="3.28148">
        <ele>289.6</ele>
        <time>2024-03-21T13:32:02Z</time>
      </trkpt>
      <trkpt lat="43.64509" lon="3.28146">
        <ele>289.8</ele>
        <time>2024-03-21T13:32:03Z</time>
      </trkpt>
      <trkpt lat="43.64508" lon="3.28144">
        <ele>290</ele>
        <time>2024-03-21T13:32:04Z</time>
      </trkpt>
      <trkpt lat="43.64506" lon="3.28143">
        <ele>290</ele>
        <time>2024-03-21T13:32:05Z</time>
      </trkpt>
      <trkpt lat="43.645" lon="3.28137">
        <ele>290.4</ele>
        <time>2024-03-21T13:32:08Z</time>
      </trkpt>
      <trkpt lat="43.64498" lon="3.28137">
        <ele>290.4</ele>
        <time>2024-03-21T13:32:09Z</time>
      </trkpt>
      <trkpt lat="43.64494" lon="3.28133">
        <ele>291.1</ele>
        <time>2024-03-21T13:32:12Z</time>
      </trkpt>
      <trkpt lat="43.6449" lon="3.28131">
        <ele>291.4</ele>
        <time>2024-03-21T13:32:14Z</time>
      </trkpt>
      <trkpt lat="43.64487" lon="3.28128">
        <ele>291.8</ele>
        <time>2024-03-21T13:32:16Z</time>
      </trkpt>
      <trkpt lat="43.64485" lon="3.28127">
        <ele>291.9</ele>
        <time>2024-03-21T13:32:17Z</time>
      </trkpt>
      <trkpt lat="43.64482" lon="3.28124">
        <ele>292.2</ele>
        <time>2024-03-21T13:32:19Z</time>
      </trkpt>
      <trkpt lat="43.6448" lon="3.28123">
        <ele>292.2</ele>
        <time>2024-03-21T13:32:20Z</time>
      </trkpt>
      <trkpt lat="43.64479" lon="3.28122">
        <ele>292.3</ele>
        <time>2024-03-21T13:32:21Z</time>
      </trkpt>
      <trkpt lat="43.64476" lon="3.28116">
        <ele>292.8</ele>
        <time>2024-03-21T13:32:24Z</time>
      </trkpt>
      <trkpt lat="43.64476" lon="3.28114">
        <ele>293.1</ele>
        <time>2024-03-21T13:32:25Z</time>
      </trkpt>
      <trkpt lat="43.64475" lon="3.28113">
        <ele>293.1</ele>
        <time>2024-03-21T13:32:26Z</time>
      </trkpt>
      <trkpt lat="43.64474" lon="3.28114">
        <ele>292.9</ele>
        <time>2024-03-21T13:32:28Z</time>
      </trkpt>
      <trkpt lat="43.64474" lon="3.28113">
        <ele>293</ele>
        <time>2024-03-21T13:32:32Z</time>
      </trkpt>
      <trkpt lat="43.64475" lon="3.28114">
        <ele>293</ele>
        <time>2024-03-21T13:32:36Z</time>
      </trkpt>
      <trkpt lat="43.64475" lon="3.28112">
        <ele>293.2</ele>
        <time>2024-03-21T13:32:37Z</time>
      </trkpt>
      <trkpt lat="43.64477" lon="3.2811">
        <ele>293.6</ele>
        <time>2024-03-21T13:32:39Z</time>
      </trkpt>
      <trkpt lat="43.64478" lon="3.2811">
        <ele>293.8</ele>
        <time>2024-03-21T13:32:40Z</time>
      </trkpt>
      <trkpt lat="43.64478" lon="3.28109">
        <ele>293.9</ele>
        <time>2024-03-21T13:32:41Z</time>
      </trkpt>
      <trkpt lat="43.64479" lon="3.28108">
        <ele>294.1</ele>
        <time>2024-03-21T13:32:43Z</time>
      </trkpt>
      <trkpt lat="43.64479" lon="3.28107">
        <ele>294.2</ele>
        <time>2024-03-21T13:32:45Z</time>
      </trkpt>
      <trkpt lat="43.64482" lon="3.28107">
        <ele>294.6</ele>
        <time>2024-03-21T13:32:47Z</time>
      </trkpt>
      <trkpt lat="43.64486" lon="3.28109">
        <ele>294.8</ele>
        <time>2024-03-21T13:32:49Z</time>
      </trkpt>
      <trkpt lat="43.64488" lon="3.28112">
        <ele>294.6</ele>
        <time>2024-03-21T13:32:50Z</time>
      </trkpt>
      <trkpt lat="43.64491" lon="3.28114">
        <ele>294.5</ele>
        <time>2024-03-21T13:32:51Z</time>
      </trkpt>
      <trkpt lat="43.64497" lon="3.2812">
        <ele>293.9</ele>
        <time>2024-03-21T13:32:54Z</time>
      </trkpt>
      <trkpt lat="43.64501" lon="3.28121">
        <ele>294</ele>
        <time>2024-03-21T13:32:55Z</time>
      </trkpt>
      <trkpt lat="43.64504" lon="3.28122">
        <ele>294.1</ele>
        <time>2024-03-21T13:32:56Z</time>
      </trkpt>
      <trkpt lat="43.64508" lon="3.28122">
        <ele>294.6</ele>
        <time>2024-03-21T13:32:57Z</time>
      </trkpt>
      <trkpt lat="43.64511" lon="3.28123">
        <ele>294.8</ele>
        <time>2024-03-21T13:32:58Z</time>
      </trkpt>
      <trkpt lat="43.6452" lon="3.28123">
        <ele>295.9</ele>
        <time>2024-03-21T13:33:01Z</time>
      </trkpt>
      <trkpt lat="43.64522" lon="3.28124">
        <ele>296</ele>
        <time>2024-03-21T13:33:02Z</time>
      </trkpt>
      <trkpt lat="43.64531" lon="3.2813">
        <ele>296.3</ele>
        <time>2024-03-21T13:33:05Z</time>
      </trkpt>
      <trkpt lat="43.64534" lon="3.28131">
        <ele>296.7</ele>
        <time>2024-03-21T13:33:06Z</time>
      </trkpt>
      <trkpt lat="43.6454" lon="3.28135">
        <ele>297.3</ele>
        <time>2024-03-21T13:33:08Z</time>
      </trkpt>
      <trkpt lat="43.64543" lon="3.28136">
        <ele>297.8</ele>
        <time>2024-03-21T13:33:09Z</time>
      </trkpt>
      <trkpt lat="43.64547" lon="3.28137">
        <ele>298.4</ele>
        <time>2024-03-21T13:33:10Z</time>
      </trkpt>
      <trkpt lat="43.64553" lon="3.28139">
        <ele>299.4</ele>
        <time>2024-03-21T13:33:12Z</time>
      </trkpt>
      <trkpt lat="43.64555" lon="3.28141">
        <ele>299.5</ele>
        <time>2024-03-21T13:33:13Z</time>
      </trkpt>
      <trkpt lat="43.64557" lon="3.28142">
        <ele>299.7</ele>
        <time>2024-03-21T13:33:14Z</time>
      </trkpt>
      <trkpt lat="43.64559" lon="3.28142">
        <ele>300.1</ele>
        <time>2024-03-21T13:33:15Z</time>
      </trkpt>
      <trkpt lat="43.64567" lon="3.28146">
        <ele>301</ele>
        <time>2024-03-21T13:33:19Z</time>
      </trkpt>
      <trkpt lat="43.6457" lon="3.28147">
        <ele>301.4</ele>
        <time>2024-03-21T13:33:20Z</time>
      </trkpt>
      <trkpt lat="43.64572" lon="3.28148">
        <ele>301.7</ele>
        <time>2024-03-21T13:33:21Z</time>
      </trkpt>
      <trkpt lat="43.64574" lon="3.28148">
        <ele>302.1</ele>
        <time>2024-03-21T13:33:22Z</time>
      </trkpt>
      <trkpt lat="43.64577" lon="3.28149">
        <ele>302.6</ele>
        <time>2024-03-21T13:33:23Z</time>
      </trkpt>
      <trkpt lat="43.64579" lon="3.28151">
        <ele>302.8</ele>
        <time>2024-03-21T13:33:24Z</time>
      </trkpt>
      <trkpt lat="43.64582" lon="3.28152">
        <ele>303.3</ele>
        <time>2024-03-21T13:33:25Z</time>
      </trkpt>
      <trkpt lat="43.64587" lon="3.28152">
        <ele>304.2</ele>
        <time>2024-03-21T13:33:27Z</time>
      </trkpt>
      <trkpt lat="43.64589" lon="3.28151">
        <ele>304.7</ele>
        <time>2024-03-21T13:33:28Z</time>
      </trkpt>
      <trkpt lat="43.6459" lon="3.28152">
        <ele>304.8</ele>
        <time>2024-03-21T13:33:29Z</time>
      </trkpt>
      <trkpt lat="43.64592" lon="3.28152">
        <ele>305.1</ele>
        <time>2024-03-21T13:33:30Z</time>
      </trkpt>
      <trkpt lat="43.64596" lon="3.28154">
        <ele>305.6</ele>
        <time>2024-03-21T13:33:32Z</time>
      </trkpt>
      <trkpt lat="43.64598" lon="3.28154">
        <ele>306</ele>
        <time>2024-03-21T13:33:33Z</time>
      </trkpt>
      <trkpt lat="43.646" lon="3.28155">
        <ele>306.3</ele>
        <time>2024-03-21T13:33:34Z</time>
      </trkpt>
      <trkpt lat="43.64601" lon="3.28157">
        <ele>306.2</ele>
        <time>2024-03-21T13:33:35Z</time>
      </trkpt>
      <trkpt lat="43.64603" lon="3.28158">
        <ele>306.5</ele>
        <time>2024-03-21T13:33:36Z</time>
      </trkpt>
      <trkpt lat="43.64606" lon="3.2816">
        <ele>306.8</ele>
        <time>2024-03-21T13:33:37Z</time>
      </trkpt>
      <trkpt lat="43.64618" lon="3.28172">
        <ele>307.5</ele>
        <time>2024-03-21T13:33:43Z</time>
      </trkpt>
      <trkpt lat="43.6462" lon="3.28175">
        <ele>307.5</ele>
        <time>2024-03-21T13:33:44Z</time>
      </trkpt>
      <trkpt lat="43.64622" lon="3.28177">
        <ele>307.6</ele>
        <time>2024-03-21T13:33:45Z</time>
      </trkpt>
      <trkpt lat="43.64624" lon="3.2818">
        <ele>307.6</ele>
        <time>2024-03-21T13:33:46Z</time>
      </trkpt>
      <trkpt lat="43.64626" lon="3.28182">
        <ele>307.8</ele>
        <time>2024-03-21T13:33:47Z</time>
      </trkpt>
      <trkpt lat="43.64628" lon="3.28185">
        <ele>307.8</ele>
        <time>2024-03-21T13:33:48Z</time>
      </trkpt>
      <trkpt lat="43.64631" lon="3.28187">
        <ele>308.2</ele>
        <time>2024-03-21T13:33:49Z</time>
      </trkpt>
      <trkpt lat="43.64632" lon="3.2819">
        <ele>308</ele>
        <time>2024-03-21T13:33:50Z</time>
      </trkpt>
      <trkpt lat="43.64634" lon="3.28192">
        <ele>308.2</ele>
        <time>2024-03-21T13:33:51Z</time>
      </trkpt>
      <trkpt lat="43.64636" lon="3.28193">
        <ele>308.5</ele>
        <time>2024-03-21T13:33:52Z</time>
      </trkpt>
      <trkpt lat="43.6464" lon="3.28197">
        <ele>308.9</ele>
        <time>2024-03-21T13:33:54Z</time>
      </trkpt>
      <trkpt lat="43.64642" lon="3.282">
        <ele>308.9</ele>
        <time>2024-03-21T13:33:55Z</time>
      </trkpt>
      <trkpt lat="43.64645" lon="3.28203">
        <ele>309.2</ele>
        <time>2024-03-21T13:33:56Z</time>
      </trkpt>
      <trkpt lat="43.64646" lon="3.28206">
        <ele>309</ele>
        <time>2024-03-21T13:33:57Z</time>
      </trkpt>
      <trkpt lat="43.64648" lon="3.28208">
        <ele>309.2</ele>
        <time>2024-03-21T13:33:58Z</time>
      </trkpt>
      <trkpt lat="43.6465" lon="3.28211">
        <ele>309.2</ele>
        <time>2024-03-21T13:33:59Z</time>
      </trkpt>
      <trkpt lat="43.64651" lon="3.28213">
        <ele>309.1</ele>
        <time>2024-03-21T13:34:00Z</time>
      </trkpt>
      <trkpt lat="43.64652" lon="3.28216">
        <ele>308.9</ele>
        <time>2024-03-21T13:34:01Z</time>
      </trkpt>
      <trkpt lat="43.64655" lon="3.28219">
        <ele>309.2</ele>
        <time>2024-03-21T13:34:03Z</time>
      </trkpt>
      <trkpt lat="43.64657" lon="3.2822">
        <ele>309.6</ele>
        <time>2024-03-21T13:34:04Z</time>
      </trkpt>
      <trkpt lat="43.64661" lon="3.28224">
        <ele>310</ele>
        <time>2024-03-21T13:34:07Z</time>
      </trkpt>
      <trkpt lat="43.64663" lon="3.28225">
        <ele>310.4</ele>
        <time>2024-03-21T13:34:08Z</time>
      </trkpt>
      <trkpt lat="43.64665" lon="3.28228">
        <ele>310.3</ele>
        <time>2024-03-21T13:34:09Z</time>
      </trkpt>
      <trkpt lat="43.64671" lon="3.28234">
        <ele>310.5</ele>
        <time>2024-03-21T13:34:12Z</time>
      </trkpt>
      <trkpt lat="43.64672" lon="3.28236">
        <ele>310.3</ele>
        <time>2024-03-21T13:34:13Z</time>
      </trkpt>
      <trkpt lat="43.64676" lon="3.2824">
        <ele>310.3</ele>
        <time>2024-03-21T13:34:15Z</time>
      </trkpt>
      <trkpt lat="43.64678" lon="3.28241">
        <ele>310.5</ele>
        <time>2024-03-21T13:34:16Z</time>
      </trkpt>
      <trkpt lat="43.64682" lon="3.28245">
        <ele>310.5</ele>
        <time>2024-03-21T13:34:18Z</time>
      </trkpt>
      <trkpt lat="43.64684" lon="3.28246">
        <ele>310.7</ele>
        <time>2024-03-21T13:34:19Z</time>
      </trkpt>
      <trkpt lat="43.64687" lon="3.28247">
        <ele>311.1</ele>
        <time>2024-03-21T13:34:20Z</time>
      </trkpt>
      <trkpt lat="43.64689" lon="3.28248">
        <ele>311.3</ele>
        <time>2024-03-21T13:34:21Z</time>
      </trkpt>
      <trkpt lat="43.6469" lon="3.28249">
        <ele>311.3</ele>
        <time>2024-03-21T13:34:22Z</time>
      </trkpt>
      <trkpt lat="43.64696" lon="3.28252">
        <ele>311.8</ele>
        <time>2024-03-21T13:34:25Z</time>
      </trkpt>
      <trkpt lat="43.64698" lon="3.28252">
        <ele>312.3</ele>
        <time>2024-03-21T13:34:26Z</time>
      </trkpt>
      <trkpt lat="43.64701" lon="3.28253">
        <ele>312.8</ele>
        <time>2024-03-21T13:34:27Z</time>
      </trkpt>
      <trkpt lat="43.64703" lon="3.28253">
        <ele>313.3</ele>
        <time>2024-03-21T13:34:28Z</time>
      </trkpt>
      <trkpt lat="43.64706" lon="3.28254">
        <ele>313.7</ele>
        <time>2024-03-21T13:34:29Z</time>
      </trkpt>
      <trkpt lat="43.64708" lon="3.28255">
        <ele>313.9</ele>
        <time>2024-03-21T13:34:30Z</time>
      </trkpt>
      <trkpt lat="43.64711" lon="3.28256">
        <ele>314.3</ele>
        <time>2024-03-21T13:34:31Z</time>
      </trkpt>
      <trkpt lat="43.64713" lon="3.28257">
        <ele>314.5</ele>
        <time>2024-03-21T13:34:32Z</time>
      </trkpt>
      <trkpt lat="43.64716" lon="3.28258">
        <ele>314.9</ele>
        <time>2024-03-21T13:34:33Z</time>
      </trkpt>
      <trkpt lat="43.6472" lon="3.2826">
        <ele>315.2</ele>
        <time>2024-03-21T13:34:35Z</time>
      </trkpt>
      <trkpt lat="43.64722" lon="3.2826">
        <ele>315.7</ele>
        <time>2024-03-21T13:34:36Z</time>
      </trkpt>
      <trkpt lat="43.64724" lon="3.28261">
        <ele>315.7</ele>
        <time>2024-03-21T13:34:37Z</time>
      </trkpt>
      <trkpt lat="43.64726" lon="3.28263">
        <ele>315.4</ele>
        <time>2024-03-21T13:34:38Z</time>
      </trkpt>
      <trkpt lat="43.6473" lon="3.28265">
        <ele>315.4</ele>
        <time>2024-03-21T13:34:40Z</time>
      </trkpt>
      <trkpt lat="43.64734" lon="3.28261">
        <ele>317.3</ele>
        <time>2024-03-21T13:34:42Z</time>
      </trkpt>
      <trkpt lat="43.64735" lon="3.28257">
        <ele>318.7</ele>
        <time>2024-03-21T13:34:43Z</time>
      </trkpt>
      <trkpt lat="43.64733" lon="3.28253">
        <ele>319.6</ele>
        <time>2024-03-21T13:34:45Z</time>
      </trkpt>
      <trkpt lat="43.6473" lon="3.28252">
        <ele>319.5</ele>
        <time>2024-03-21T13:34:46Z</time>
      </trkpt>
      <trkpt lat="43.64725" lon="3.28252">
        <ele>318.8</ele>
        <time>2024-03-21T13:34:48Z</time>
      </trkpt>
      <trkpt lat="43.6472" lon="3.28247">
        <ele>319.1</ele>
        <time>2024-03-21T13:34:50Z</time>
      </trkpt>
      <trkpt lat="43.64714" lon="3.28238">
        <ele>319.6</ele>
        <time>2024-03-21T13:34:53Z</time>
      </trkpt>
      <trkpt lat="43.64711" lon="3.28236">
        <ele>319.4</ele>
        <time>2024-03-21T13:34:54Z</time>
      </trkpt>
      <trkpt lat="43.64709" lon="3.28232">
        <ele>319.9</ele>
        <time>2024-03-21T13:34:55Z</time>
      </trkpt>
      <trkpt lat="43.64708" lon="3.28229">
        <ele>320.3</ele>
        <time>2024-03-21T13:34:56Z</time>
      </trkpt>
      <trkpt lat="43.64706" lon="3.28226">
        <ele>320.6</ele>
        <time>2024-03-21T13:34:57Z</time>
      </trkpt>
      <trkpt lat="43.64705" lon="3.28223">
        <ele>321.1</ele>
        <time>2024-03-21T13:34:58Z</time>
      </trkpt>
      <trkpt lat="43.64703" lon="3.2822">
        <ele>321.4</ele>
        <time>2024-03-21T13:34:59Z</time>
      </trkpt>
      <trkpt lat="43.64702" lon="3.28217">
        <ele>321.8</ele>
        <time>2024-03-21T13:35:00Z</time>
      </trkpt>
      <trkpt lat="43.64698" lon="3.28209">
        <ele>322.7</ele>
        <time>2024-03-21T13:35:02Z</time>
      </trkpt>
      <trkpt lat="43.64697" lon="3.28205">
        <ele>323.3</ele>
        <time>2024-03-21T13:35:03Z</time>
      </trkpt>
      <trkpt lat="43.64696" lon="3.28202">
        <ele>323.7</ele>
        <time>2024-03-21T13:35:04Z</time>
      </trkpt>
      <trkpt lat="43.64694" lon="3.28199">
        <ele>323.9</ele>
        <time>2024-03-21T13:35:05Z</time>
      </trkpt>
      <trkpt lat="43.64692" lon="3.28195">
        <ele>324.2</ele>
        <time>2024-03-21T13:35:06Z</time>
      </trkpt>
      <trkpt lat="43.64691" lon="3.28192">
        <ele>324.4</ele>
        <time>2024-03-21T13:35:07Z</time>
      </trkpt>
      <trkpt lat="43.64689" lon="3.28188">
        <ele>324.5</ele>
        <time>2024-03-21T13:35:08Z</time>
      </trkpt>
      <trkpt lat="43.64685" lon="3.28178">
        <ele>325</ele>
        <time>2024-03-21T13:35:10Z</time>
      </trkpt>
      <trkpt lat="43.64683" lon="3.28174">
        <ele>325.1</ele>
        <time>2024-03-21T13:35:11Z</time>
      </trkpt>
      <trkpt lat="43.64682" lon="3.2817">
        <ele>325.4</ele>
        <time>2024-03-21T13:35:12Z</time>
      </trkpt>
      <trkpt lat="43.6468" lon="3.28166">
        <ele>325.5</ele>
        <time>2024-03-21T13:35:13Z</time>
      </trkpt>
      <trkpt lat="43.64676" lon="3.2816">
        <ele>325.3</ele>
        <time>2024-03-21T13:35:15Z</time>
      </trkpt>
      <trkpt lat="43.64675" lon="3.28156">
        <ele>325.7</ele>
        <time>2024-03-21T13:35:16Z</time>
      </trkpt>
      <trkpt lat="43.64673" lon="3.28153">
        <ele>325.6</ele>
        <time>2024-03-21T13:35:17Z</time>
      </trkpt>
      <trkpt lat="43.64672" lon="3.28149">
        <ele>326</ele>
        <time>2024-03-21T13:35:18Z</time>
      </trkpt>
      <trkpt lat="43.6467" lon="3.28145">
        <ele>326.1</ele>
        <time>2024-03-21T13:35:19Z</time>
      </trkpt>
      <trkpt lat="43.64669" lon="3.28141">
        <ele>326.5</ele>
        <time>2024-03-21T13:35:20Z</time>
      </trkpt>
      <trkpt lat="43.64667" lon="3.28137">
        <ele>326.5</ele>
        <time>2024-03-21T13:35:21Z</time>
      </trkpt>
      <trkpt lat="43.64666" lon="3.28134">
        <ele>326.7</ele>
        <time>2024-03-21T13:35:22Z</time>
      </trkpt>
      <trkpt lat="43.64664" lon="3.28131">
        <ele>326.5</ele>
        <time>2024-03-21T13:35:23Z</time>
      </trkpt>
      <trkpt lat="43.64663" lon="3.28129">
        <ele>326.5</ele>
        <time>2024-03-21T13:35:24Z</time>
      </trkpt>
      <trkpt lat="43.64661" lon="3.28126">
        <ele>326.4</ele>
        <time>2024-03-21T13:35:25Z</time>
      </trkpt>
      <trkpt lat="43.6466" lon="3.28123">
        <ele>326.6</ele>
        <time>2024-03-21T13:35:26Z</time>
      </trkpt>
      <trkpt lat="43.64658" lon="3.2812">
        <ele>326.4</ele>
        <time>2024-03-21T13:35:27Z</time>
      </trkpt>
      <trkpt lat="43.64657" lon="3.28116">
        <ele>326.7</ele>
        <time>2024-03-21T13:35:28Z</time>
      </trkpt>
      <trkpt lat="43.64655" lon="3.28113">
        <ele>326.5</ele>
        <time>2024-03-21T13:35:29Z</time>
      </trkpt>
      <trkpt lat="43.64653" lon="3.28105">
        <ele>326.8</ele>
        <time>2024-03-21T13:35:31Z</time>
      </trkpt>
      <trkpt lat="43.64653" lon="3.28083">
        <ele>329.6</ele>
        <time>2024-03-21T13:35:37Z</time>
      </trkpt>
      <trkpt lat="43.64654" lon="3.28079">
        <ele>330.2</ele>
        <time>2024-03-21T13:35:38Z</time>
      </trkpt>
      <trkpt lat="43.64654" lon="3.28074">
        <ele>330.5</ele>
        <time>2024-03-21T13:35:39Z</time>
      </trkpt>
      <trkpt lat="43.64656" lon="3.28066">
        <ele>331.6</ele>
        <time>2024-03-21T13:35:41Z</time>
      </trkpt>
      <trkpt lat="43.64657" lon="3.28063">
        <ele>332.1</ele>
        <time>2024-03-21T13:35:42Z</time>
      </trkpt>
      <trkpt lat="43.64658" lon="3.28059">
        <ele>332.6</ele>
        <time>2024-03-21T13:35:43Z</time>
      </trkpt>
      <trkpt lat="43.64658" lon="3.28056">
        <ele>332.8</ele>
        <time>2024-03-21T13:35:44Z</time>
      </trkpt>
      <trkpt lat="43.64659" lon="3.28053">
        <ele>333.1</ele>
        <time>2024-03-21T13:35:45Z</time>
      </trkpt>
      <trkpt lat="43.64659" lon="3.2805">
        <ele>333.1</ele>
        <time>2024-03-21T13:35:46Z</time>
      </trkpt>
      <trkpt lat="43.64662" lon="3.28041">
        <ele>333.8</ele>
        <time>2024-03-21T13:35:49Z</time>
      </trkpt>
      <trkpt lat="43.64664" lon="3.28038">
        <ele>334.3</ele>
        <time>2024-03-21T13:35:50Z</time>
      </trkpt>
      <trkpt lat="43.64665" lon="3.28035">
        <ele>334.6</ele>
        <time>2024-03-21T13:35:51Z</time>
      </trkpt>
      <trkpt lat="43.64667" lon="3.28031">
        <ele>335.1</ele>
        <time>2024-03-21T13:35:52Z</time>
      </trkpt>
      <trkpt lat="43.64669" lon="3.28029">
        <ele>335.7</ele>
        <time>2024-03-21T13:35:53Z</time>
      </trkpt>
      <trkpt lat="43.64671" lon="3.28026">
        <ele>336.2</ele>
        <time>2024-03-21T13:35:54Z</time>
      </trkpt>
      <trkpt lat="43.64672" lon="3.28023">
        <ele>336.4</ele>
        <time>2024-03-21T13:35:55Z</time>
      </trkpt>
      <trkpt lat="43.64674" lon="3.2802">
        <ele>336.8</ele>
        <time>2024-03-21T13:35:56Z</time>
      </trkpt>
      <trkpt lat="43.64676" lon="3.28014">
        <ele>337.2</ele>
        <time>2024-03-21T13:35:58Z</time>
      </trkpt>
      <trkpt lat="43.64678" lon="3.28011">
        <ele>337.7</ele>
        <time>2024-03-21T13:35:59Z</time>
      </trkpt>
      <trkpt lat="43.64679" lon="3.28009">
        <ele>337.9</ele>
        <time>2024-03-21T13:36:00Z</time>
      </trkpt>
      <trkpt lat="43.64681" lon="3.28003">
        <ele>338.2</ele>
        <time>2024-03-21T13:36:02Z</time>
      </trkpt>
      <trkpt lat="43.64682" lon="3.27999">
        <ele>338.4</ele>
        <time>2024-03-21T13:36:03Z</time>
      </trkpt>
      <trkpt lat="43.64682" lon="3.27996">
        <ele>338.5</ele>
        <time>2024-03-21T13:36:04Z</time>
      </trkpt>
      <trkpt lat="43.64683" lon="3.27994">
        <ele>338.8</ele>
        <time>2024-03-21T13:36:05Z</time>
      </trkpt>
      <trkpt lat="43.64683" lon="3.27991">
        <ele>338.8</ele>
        <time>2024-03-21T13:36:06Z</time>
      </trkpt>
      <trkpt lat="43.64684" lon="3.27988">
        <ele>339.2</ele>
        <time>2024-03-21T13:36:07Z</time>
      </trkpt>
      <trkpt lat="43.64684" lon="3.27981">
        <ele>339.2</ele>
        <time>2024-03-21T13:36:09Z</time>
      </trkpt>
      <trkpt lat="43.64685" lon="3.27977">
        <ele>339.6</ele>
        <time>2024-03-21T13:36:10Z</time>
      </trkpt>
      <trkpt lat="43.64686" lon="3.27974">
        <ele>339.9</ele>
        <time>2024-03-21T13:36:11Z</time>
      </trkpt>
      <trkpt lat="43.64686" lon="3.27966">
        <ele>339.9</ele>
        <time>2024-03-21T13:36:13Z</time>
      </trkpt>
      <trkpt lat="43.64687" lon="3.27963">
        <ele>340.1</ele>
        <time>2024-03-21T13:36:14Z</time>
      </trkpt>
      <trkpt lat="43.64688" lon="3.27959">
        <ele>340.4</ele>
        <time>2024-03-21T13:36:15Z</time>
      </trkpt>
      <trkpt lat="43.64688" lon="3.27955">
        <ele>340.4</ele>
        <time>2024-03-21T13:36:16Z</time>
      </trkpt>
      <trkpt lat="43.6469" lon="3.27949">
        <ele>340.9</ele>
        <time>2024-03-21T13:36:18Z</time>
      </trkpt>
      <trkpt lat="43.6469" lon="3.27945">
        <ele>340.9</ele>
        <time>2024-03-21T13:36:19Z</time>
      </trkpt>
      <trkpt lat="43.64692" lon="3.27939">
        <ele>341.6</ele>
        <time>2024-03-21T13:36:21Z</time>
      </trkpt>
      <trkpt lat="43.64692" lon="3.27936">
        <ele>341.7</ele>
        <time>2024-03-21T13:36:22Z</time>
      </trkpt>
      <trkpt lat="43.64693" lon="3.27934">
        <ele>342.1</ele>
        <time>2024-03-21T13:36:23Z</time>
      </trkpt>
      <trkpt lat="43.64694" lon="3.27931">
        <ele>342.4</ele>
        <time>2024-03-21T13:36:24Z</time>
      </trkpt>
      <trkpt lat="43.64696" lon="3.27929">
        <ele>343</ele>
        <time>2024-03-21T13:36:25Z</time>
      </trkpt>
      <trkpt lat="43.64697" lon="3.27925">
        <ele>343.3</ele>
        <time>2024-03-21T13:36:26Z</time>
      </trkpt>
      <trkpt lat="43.64699" lon="3.27919">
        <ele>343.9</ele>
        <time>2024-03-21T13:36:28Z</time>
      </trkpt>
      <trkpt lat="43.64701" lon="3.27917">
        <ele>344.4</ele>
        <time>2024-03-21T13:36:29Z</time>
      </trkpt>
      <trkpt lat="43.64703" lon="3.27911">
        <ele>344.8</ele>
        <time>2024-03-21T13:36:31Z</time>
      </trkpt>
      <trkpt lat="43.64703" lon="3.27896">
        <ele>344.8</ele>
        <time>2024-03-21T13:36:36Z</time>
      </trkpt>
      <trkpt lat="43.64704" lon="3.27892">
        <ele>345.1</ele>
        <time>2024-03-21T13:36:37Z</time>
      </trkpt>
      <trkpt lat="43.64704" lon="3.27852">
        <ele>346.3</ele>
        <time>2024-03-21T13:36:49Z</time>
      </trkpt>
      <trkpt lat="43.64703" lon="3.27849">
        <ele>346.3</ele>
        <time>2024-03-21T13:36:50Z</time>
      </trkpt>
      <trkpt lat="43.64703" lon="3.27838">
        <ele>347.4</ele>
        <time>2024-03-21T13:36:53Z</time>
      </trkpt>
      <trkpt lat="43.64704" lon="3.27835">
        <ele>347.9</ele>
        <time>2024-03-21T13:36:54Z</time>
      </trkpt>
      <trkpt lat="43.64704" lon="3.27828">
        <ele>348.4</ele>
        <time>2024-03-21T13:36:56Z</time>
      </trkpt>
      <trkpt lat="43.64705" lon="3.27824">
        <ele>349</ele>
        <time>2024-03-21T13:36:57Z</time>
      </trkpt>
      <trkpt lat="43.64705" lon="3.27815">
        <ele>349.6</ele>
        <time>2024-03-21T13:37:00Z</time>
      </trkpt>
      <trkpt lat="43.64706" lon="3.27812">
        <ele>350</ele>
        <time>2024-03-21T13:37:01Z</time>
      </trkpt>
      <trkpt lat="43.64708" lon="3.27804">
        <ele>351</ele>
        <time>2024-03-21T13:37:03Z</time>
      </trkpt>
      <trkpt lat="43.64709" lon="3.27801">
        <ele>351.2</ele>
        <time>2024-03-21T13:37:04Z</time>
      </trkpt>
      <trkpt lat="43.64709" lon="3.27798">
        <ele>351.3</ele>
        <time>2024-03-21T13:37:05Z</time>
      </trkpt>
      <trkpt lat="43.6471" lon="3.27794">
        <ele>351.6</ele>
        <time>2024-03-21T13:37:06Z</time>
      </trkpt>
      <trkpt lat="43.64712" lon="3.27788">
        <ele>352.2</ele>
        <time>2024-03-21T13:37:08Z</time>
      </trkpt>
      <trkpt lat="43.64712" lon="3.27784">
        <ele>352.3</ele>
        <time>2024-03-21T13:37:09Z</time>
      </trkpt>
      <trkpt lat="43.64713" lon="3.2778">
        <ele>352.6</ele>
        <time>2024-03-21T13:37:10Z</time>
      </trkpt>
      <trkpt lat="43.64713" lon="3.2777">
        <ele>352.7</ele>
        <time>2024-03-21T13:37:13Z</time>
      </trkpt>
      <trkpt lat="43.64714" lon="3.27766">
        <ele>352.9</ele>
        <time>2024-03-21T13:37:14Z</time>
      </trkpt>
      <trkpt lat="43.64714" lon="3.27761">
        <ele>352.9</ele>
        <time>2024-03-21T13:37:15Z</time>
      </trkpt>
      <trkpt lat="43.64715" lon="3.27757">
        <ele>353.2</ele>
        <time>2024-03-21T13:37:16Z</time>
      </trkpt>
      <trkpt lat="43.64715" lon="3.27749">
        <ele>353.2</ele>
        <time>2024-03-21T13:37:18Z</time>
      </trkpt>
      <trkpt lat="43.64717" lon="3.27741">
        <ele>353.8</ele>
        <time>2024-03-21T13:37:20Z</time>
      </trkpt>
      <trkpt lat="43.64717" lon="3.27737">
        <ele>353.9</ele>
        <time>2024-03-21T13:37:21Z</time>
      </trkpt>
      <trkpt lat="43.64718" lon="3.27733">
        <ele>354.1</ele>
        <time>2024-03-21T13:37:22Z</time>
      </trkpt>
      <trkpt lat="43.64719" lon="3.2773">
        <ele>354.4</ele>
        <time>2024-03-21T13:37:23Z</time>
      </trkpt>
      <trkpt lat="43.64723" lon="3.27722">
        <ele>355.2</ele>
        <time>2024-03-21T13:37:25Z</time>
      </trkpt>
      <trkpt lat="43.64724" lon="3.27719">
        <ele>355.6</ele>
        <time>2024-03-21T13:37:26Z</time>
      </trkpt>
      <trkpt lat="43.6473" lon="3.2771">
        <ele>357.4</ele>
        <time>2024-03-21T13:37:29Z</time>
      </trkpt>
      <trkpt lat="43.64731" lon="3.27707">
        <ele>357.7</ele>
        <time>2024-03-21T13:37:30Z</time>
      </trkpt>
      <trkpt lat="43.64733" lon="3.27704">
        <ele>358.3</ele>
        <time>2024-03-21T13:37:31Z</time>
      </trkpt>
      <trkpt lat="43.64734" lon="3.27701">
        <ele>358.5</ele>
        <time>2024-03-21T13:37:32Z</time>
      </trkpt>
      <trkpt lat="43.64738" lon="3.27695">
        <ele>359.4</ele>
        <time>2024-03-21T13:37:34Z</time>
      </trkpt>
      <trkpt lat="43.6474" lon="3.27691">
        <ele>359.8</ele>
        <time>2024-03-21T13:37:35Z</time>
      </trkpt>
      <trkpt lat="43.64741" lon="3.27688">
        <ele>359.9</ele>
        <time>2024-03-21T13:37:36Z</time>
      </trkpt>
      <trkpt lat="43.64742" lon="3.27684">
        <ele>360</ele>
        <time>2024-03-21T13:37:37Z</time>
      </trkpt>
      <trkpt lat="43.64743" lon="3.27681">
        <ele>360.1</ele>
        <time>2024-03-21T13:37:38Z</time>
      </trkpt>
      <trkpt lat="43.64745" lon="3.27677">
        <ele>360.4</ele>
        <time>2024-03-21T13:37:39Z</time>
      </trkpt>
      <trkpt lat="43.64746" lon="3.27674">
        <ele>360.5</ele>
        <time>2024-03-21T13:37:40Z</time>
      </trkpt>
      <trkpt lat="43.64746" lon="3.2767">
        <ele>360.4</ele>
        <time>2024-03-21T13:37:41Z</time>
      </trkpt>
      <trkpt lat="43.64747" lon="3.27666">
        <ele>360.5</ele>
        <time>2024-03-21T13:37:42Z</time>
      </trkpt>
      <trkpt lat="43.64749" lon="3.27662">
        <ele>360.8</ele>
        <time>2024-03-21T13:37:43Z</time>
      </trkpt>
      <trkpt lat="43.6475" lon="3.27658">
        <ele>361</ele>
        <time>2024-03-21T13:37:44Z</time>
      </trkpt>
      <trkpt lat="43.64752" lon="3.27653">
        <ele>361.7</ele>
        <time>2024-03-21T13:37:45Z</time>
      </trkpt>
      <trkpt lat="43.64755" lon="3.27641">
        <ele>362.8</ele>
        <time>2024-03-21T13:37:48Z</time>
      </trkpt>
      <trkpt lat="43.64755" lon="3.27636">
        <ele>362.9</ele>
        <time>2024-03-21T13:37:49Z</time>
      </trkpt>
      <trkpt lat="43.64756" lon="3.2763">
        <ele>363.3</ele>
        <time>2024-03-21T13:37:50Z</time>
      </trkpt>
      <trkpt lat="43.64757" lon="3.27625">
        <ele>363.8</ele>
        <time>2024-03-21T13:37:51Z</time>
      </trkpt>
      <trkpt lat="43.64757" lon="3.27621">
        <ele>363.8</ele>
        <time>2024-03-21T13:37:52Z</time>
      </trkpt>
      <trkpt lat="43.64758" lon="3.27616">
        <ele>364.2</ele>
        <time>2024-03-21T13:37:53Z</time>
      </trkpt>
      <trkpt lat="43.6476" lon="3.27612">
        <ele>364.9</ele>
        <time>2024-03-21T13:37:54Z</time>
      </trkpt>
      <trkpt lat="43.64761" lon="3.27607">
        <ele>365.2</ele>
        <time>2024-03-21T13:37:55Z</time>
      </trkpt>
      <trkpt lat="43.64763" lon="3.27602">
        <ele>365.8</ele>
        <time>2024-03-21T13:37:56Z</time>
      </trkpt>
      <trkpt lat="43.64765" lon="3.27592">
        <ele>366.3</ele>
        <time>2024-03-21T13:37:58Z</time>
      </trkpt>
      <trkpt lat="43.64766" lon="3.27586">
        <ele>366.5</ele>
        <time>2024-03-21T13:37:59Z</time>
      </trkpt>
      <trkpt lat="43.64767" lon="3.27581">
        <ele>366.7</ele>
        <time>2024-03-21T13:38:00Z</time>
      </trkpt>
      <trkpt lat="43.64768" lon="3.27574">
        <ele>367</ele>
        <time>2024-03-21T13:38:01Z</time>
      </trkpt>
      <trkpt lat="43.64769" lon="3.27568">
        <ele>367.3</ele>
        <time>2024-03-21T13:38:02Z</time>
      </trkpt>
      <trkpt lat="43.64769" lon="3.27562">
        <ele>367.3</ele>
        <time>2024-03-21T13:38:03Z</time>
      </trkpt>
      <trkpt lat="43.6477" lon="3.27555">
        <ele>367.6</ele>
        <time>2024-03-21T13:38:04Z</time>
      </trkpt>
      <trkpt lat="43.6477" lon="3.27547">
        <ele>367.5</ele>
        <time>2024-03-21T13:38:05Z</time>
      </trkpt>
      <trkpt lat="43.64771" lon="3.2754">
        <ele>367.6</ele>
        <time>2024-03-21T13:38:06Z</time>
      </trkpt>
      <trkpt lat="43.64771" lon="3.27533">
        <ele>367.6</ele>
        <time>2024-03-21T13:38:07Z</time>
      </trkpt>
      <trkpt lat="43.64772" lon="3.27525">
        <ele>367.6</ele>
        <time>2024-03-21T13:38:08Z</time>
      </trkpt>
      <trkpt lat="43.64774" lon="3.27511">
        <ele>367.4</ele>
        <time>2024-03-21T13:38:10Z</time>
      </trkpt>
      <trkpt lat="43.64776" lon="3.27504">
        <ele>367.7</ele>
        <time>2024-03-21T13:38:11Z</time>
      </trkpt>
      <trkpt lat="43.64778" lon="3.2749">
        <ele>367.7</ele>
        <time>2024-03-21T13:38:13Z</time>
      </trkpt>
      <trkpt lat="43.6478" lon="3.27483">
        <ele>367.9</ele>
        <time>2024-03-21T13:38:14Z</time>
      </trkpt>
      <trkpt lat="43.64781" lon="3.27476">
        <ele>367.9</ele>
        <time>2024-03-21T13:38:15Z</time>
      </trkpt>
      <trkpt lat="43.64782" lon="3.2747">
        <ele>367.9</ele>
        <time>2024-03-21T13:38:16Z</time>
      </trkpt>
      <trkpt lat="43.64786" lon="3.2746">
        <ele>368.3</ele>
        <time>2024-03-21T13:38:18Z</time>
      </trkpt>
      <trkpt lat="43.64788" lon="3.27452">
        <ele>368.4</ele>
        <time>2024-03-21T13:38:20Z</time>
      </trkpt>
      <trkpt lat="43.6479" lon="3.27449">
        <ele>368.8</ele>
        <time>2024-03-21T13:38:21Z</time>
      </trkpt>
      <trkpt lat="43.64791" lon="3.27446">
        <ele>368.9</ele>
        <time>2024-03-21T13:38:22Z</time>
      </trkpt>
      <trkpt lat="43.64793" lon="3.27442">
        <ele>369.1</ele>
        <time>2024-03-21T13:38:23Z</time>
      </trkpt>
      <trkpt lat="43.64795" lon="3.27439">
        <ele>369.4</ele>
        <time>2024-03-21T13:38:24Z</time>
      </trkpt>
      <trkpt lat="43.64796" lon="3.27436">
        <ele>369.4</ele>
        <time>2024-03-21T13:38:25Z</time>
      </trkpt>
      <trkpt lat="43.64798" lon="3.27432">
        <ele>369.7</ele>
        <time>2024-03-21T13:38:26Z</time>
      </trkpt>
      <trkpt lat="43.648" lon="3.27429">
        <ele>370.1</ele>
        <time>2024-03-21T13:38:27Z</time>
      </trkpt>
      <trkpt lat="43.64803" lon="3.27423">
        <ele>370.6</ele>
        <time>2024-03-21T13:38:29Z</time>
      </trkpt>
      <trkpt lat="43.64806" lon="3.2742">
        <ele>371.4</ele>
        <time>2024-03-21T13:38:30Z</time>
      </trkpt>
      <trkpt lat="43.64807" lon="3.27415">
        <ele>371.2</ele>
        <time>2024-03-21T13:38:31Z</time>
      </trkpt>
      <trkpt lat="43.6481" lon="3.27412">
        <ele>371.7</ele>
        <time>2024-03-21T13:38:32Z</time>
      </trkpt>
      <trkpt lat="43.64813" lon="3.2741">
        <ele>372.4</ele>
        <time>2024-03-21T13:38:33Z</time>
      </trkpt>
      <trkpt lat="43.64816" lon="3.27409">
        <ele>373.1</ele>
        <time>2024-03-21T13:38:34Z</time>
      </trkpt>
      <trkpt lat="43.6482" lon="3.27407">
        <ele>373.9</ele>
        <time>2024-03-21T13:38:35Z</time>
      </trkpt>
      <trkpt lat="43.64826" lon="3.27403">
        <ele>375</ele>
        <time>2024-03-21T13:38:37Z</time>
      </trkpt>
      <trkpt lat="43.64834" lon="3.27397">
        <ele>376.5</ele>
        <time>2024-03-21T13:38:39Z</time>
      </trkpt>
      <trkpt lat="43.64838" lon="3.27393">
        <ele>377.6</ele>
        <time>2024-03-21T13:38:40Z</time>
      </trkpt>
      <trkpt lat="43.64841" lon="3.27389">
        <ele>378.3</ele>
        <time>2024-03-21T13:38:41Z</time>
      </trkpt>
      <trkpt lat="43.64849" lon="3.27379">
        <ele>379.8</ele>
        <time>2024-03-21T13:38:43Z</time>
      </trkpt>
      <trkpt lat="43.64851" lon="3.27375">
        <ele>380</ele>
        <time>2024-03-21T13:38:44Z</time>
      </trkpt>
      <trkpt lat="43.64854" lon="3.2737">
        <ele>380.4</ele>
        <time>2024-03-21T13:38:45Z</time>
      </trkpt>
      <trkpt lat="43.64858" lon="3.27358">
        <ele>380.5</ele>
        <time>2024-03-21T13:38:47Z</time>
      </trkpt>
      <trkpt lat="43.64859" lon="3.27353">
        <ele>381</ele>
        <time>2024-03-21T13:38:48Z</time>
      </trkpt>
      <trkpt lat="43.64859" lon="3.27347">
        <ele>381</ele>
        <time>2024-03-21T13:38:49Z</time>
      </trkpt>
      <trkpt lat="43.64861" lon="3.27341">
        <ele>381.9</ele>
        <time>2024-03-21T13:38:50Z</time>
      </trkpt>
      <trkpt lat="43.64864" lon="3.27323">
        <ele>383</ele>
        <time>2024-03-21T13:38:53Z</time>
      </trkpt>
      <trkpt lat="43.64864" lon="3.27305">
        <ele>382.3</ele>
        <time>2024-03-21T13:38:56Z</time>
      </trkpt>
      <trkpt lat="43.64865" lon="3.27299">
        <ele>382.8</ele>
        <time>2024-03-21T13:38:57Z</time>
      </trkpt>
      <trkpt lat="43.64867" lon="3.27294">
        <ele>383.7</ele>
        <time>2024-03-21T13:38:58Z</time>
      </trkpt>
      <trkpt lat="43.64869" lon="3.2729">
        <ele>384.5</ele>
        <time>2024-03-21T13:38:59Z</time>
      </trkpt>
      <trkpt lat="43.64872" lon="3.27286">
        <ele>385.6</ele>
        <time>2024-03-21T13:39:00Z</time>
      </trkpt>
      <trkpt lat="43.64875" lon="3.27281">
        <ele>386.6</ele>
        <time>2024-03-21T13:39:01Z</time>
      </trkpt>
      <trkpt lat="43.64878" lon="3.27278">
        <ele>387.5</ele>
        <time>2024-03-21T13:39:02Z</time>
      </trkpt>
      <trkpt lat="43.64881" lon="3.27274">
        <ele>388.2</ele>
        <time>2024-03-21T13:39:03Z</time>
      </trkpt>
      <trkpt lat="43.6489" lon="3.27265">
        <ele>390.4</ele>
        <time>2024-03-21T13:39:06Z</time>
      </trkpt>
      <trkpt lat="43.64894" lon="3.27263">
        <ele>391.5</ele>
        <time>2024-03-21T13:39:07Z</time>
      </trkpt>
      <trkpt lat="43.64898" lon="3.2726">
        <ele>392.4</ele>
        <time>2024-03-21T13:39:08Z</time>
      </trkpt>
      <trkpt lat="43.64901" lon="3.27257">
        <ele>392.9</ele>
        <time>2024-03-21T13:39:09Z</time>
      </trkpt>
      <trkpt lat="43.6491" lon="3.27245">
        <ele>393.8</ele>
        <time>2024-03-21T13:39:12Z</time>
      </trkpt>
      <trkpt lat="43.64926" lon="3.27229">
        <ele>396.2</ele>
        <time>2024-03-21T13:39:18Z</time>
      </trkpt>
      <trkpt lat="43.64938" lon="3.27221">
        <ele>398.3</ele>
        <time>2024-03-21T13:39:22Z</time>
      </trkpt>
      <trkpt lat="43.64941" lon="3.27218">
        <ele>398.8</ele>
        <time>2024-03-21T13:39:23Z</time>
      </trkpt>
      <trkpt lat="43.64943" lon="3.27215">
        <ele>399.1</ele>
        <time>2024-03-21T13:39:24Z</time>
      </trkpt>
      <trkpt lat="43.64946" lon="3.27213">
        <ele>399.8</ele>
        <time>2024-03-21T13:39:25Z</time>
      </trkpt>
      <trkpt lat="43.64949" lon="3.2721">
        <ele>400.5</ele>
        <time>2024-03-21T13:39:26Z</time>
      </trkpt>
      <trkpt lat="43.64953" lon="3.27207">
        <ele>401.3</ele>
        <time>2024-03-21T13:39:27Z</time>
      </trkpt>
      <trkpt lat="43.64956" lon="3.27204">
        <ele>401.9</ele>
        <time>2024-03-21T13:39:28Z</time>
      </trkpt>
      <trkpt lat="43.64962" lon="3.272">
        <ele>403.1</ele>
        <time>2024-03-21T13:39:30Z</time>
      </trkpt>
      <trkpt lat="43.64968" lon="3.27194">
        <ele>403.9</ele>
        <time>2024-03-21T13:39:32Z</time>
      </trkpt>
      <trkpt lat="43.64971" lon="3.27192">
        <ele>404.3</ele>
        <time>2024-03-21T13:39:33Z</time>
      </trkpt>
      <trkpt lat="43.64984" lon="3.27179">
        <ele>405.9</ele>
        <time>2024-03-21T13:39:37Z</time>
      </trkpt>
      <trkpt lat="43.6499" lon="3.27175">
        <ele>406.9</ele>
        <time>2024-03-21T13:39:39Z</time>
      </trkpt>
      <trkpt lat="43.64995" lon="3.2717">
        <ele>407.3</ele>
        <time>2024-03-21T13:39:41Z</time>
      </trkpt>
      <trkpt lat="43.64998" lon="3.27168">
        <ele>407.7</ele>
        <time>2024-03-21T13:39:42Z</time>
      </trkpt>
      <trkpt lat="43.65001" lon="3.27165">
        <ele>408.2</ele>
        <time>2024-03-21T13:39:43Z</time>
      </trkpt>
      <trkpt lat="43.65003" lon="3.27162">
        <ele>408.6</ele>
        <time>2024-03-21T13:39:44Z</time>
      </trkpt>
      <trkpt lat="43.65006" lon="3.27159">
        <ele>409.3</ele>
        <time>2024-03-21T13:39:45Z</time>
      </trkpt>
      <trkpt lat="43.65012" lon="3.27155">
        <ele>410.5</ele>
        <time>2024-03-21T13:39:47Z</time>
      </trkpt>
      <trkpt lat="43.65014" lon="3.27152">
        <ele>410.7</ele>
        <time>2024-03-21T13:39:48Z</time>
      </trkpt>
      <trkpt lat="43.65016" lon="3.27148">
        <ele>410.8</ele>
        <time>2024-03-21T13:39:49Z</time>
      </trkpt>
      <trkpt lat="43.65022" lon="3.27142">
        <ele>411.3</ele>
        <time>2024-03-21T13:39:51Z</time>
      </trkpt>
      <trkpt lat="43.65026" lon="3.27139">
        <ele>411.7</ele>
        <time>2024-03-21T13:39:52Z</time>
      </trkpt>
      <trkpt lat="43.65029" lon="3.27135">
        <ele>412.1</ele>
        <time>2024-03-21T13:39:53Z</time>
      </trkpt>
      <trkpt lat="43.65032" lon="3.27132">
        <ele>412.7</ele>
        <time>2024-03-21T13:39:54Z</time>
      </trkpt>
      <trkpt lat="43.65035" lon="3.27128">
        <ele>413.2</ele>
        <time>2024-03-21T13:39:55Z</time>
      </trkpt>
      <trkpt lat="43.65038" lon="3.27123">
        <ele>413.6</ele>
        <time>2024-03-21T13:39:56Z</time>
      </trkpt>
      <trkpt lat="43.65046" lon="3.27113">
        <ele>414.8</ele>
        <time>2024-03-21T13:39:58Z</time>
      </trkpt>
      <trkpt lat="43.65049" lon="3.27109">
        <ele>415.1</ele>
        <time>2024-03-21T13:39:59Z</time>
      </trkpt>
      <trkpt lat="43.65055" lon="3.27099">
        <ele>415.2</ele>
        <time>2024-03-21T13:40:01Z</time>
      </trkpt>
      <trkpt lat="43.65058" lon="3.27093">
        <ele>415</ele>
        <time>2024-03-21T13:40:02Z</time>
      </trkpt>
      <trkpt lat="43.6507" lon="3.27073">
        <ele>416.6</ele>
        <time>2024-03-21T13:40:06Z</time>
      </trkpt>
      <trkpt lat="43.65073" lon="3.27067">
        <ele>417.1</ele>
        <time>2024-03-21T13:40:07Z</time>
      </trkpt>
      <trkpt lat="43.65076" lon="3.27062">
        <ele>417.6</ele>
        <time>2024-03-21T13:40:08Z</time>
      </trkpt>
      <trkpt lat="43.65079" lon="3.27058">
        <ele>418.1</ele>
        <time>2024-03-21T13:40:09Z</time>
      </trkpt>
      <trkpt lat="43.65081" lon="3.27055">
        <ele>418.4</ele>
        <time>2024-03-21T13:40:10Z</time>
      </trkpt>
      <trkpt lat="43.65085" lon="3.27045">
        <ele>418.9</ele>
        <time>2024-03-21T13:40:12Z</time>
      </trkpt>
      <trkpt lat="43.65086" lon="3.2704">
        <ele>418.9</ele>
        <time>2024-03-21T13:40:13Z</time>
      </trkpt>
      <trkpt lat="43.65088" lon="3.27028">
        <ele>418.8</ele>
        <time>2024-03-21T13:40:15Z</time>
      </trkpt>
      <trkpt lat="43.65088" lon="3.27012">
        <ele>420.4</ele>
        <time>2024-03-21T13:40:18Z</time>
      </trkpt>
      <trkpt lat="43.65087" lon="3.27006">
        <ele>420.9</ele>
        <time>2024-03-21T13:40:19Z</time>
      </trkpt>
      <trkpt lat="43.65087" lon="3.26986">
        <ele>422.5</ele>
        <time>2024-03-21T13:40:23Z</time>
      </trkpt>
      <trkpt lat="43.65086" lon="3.26981">
        <ele>422.8</ele>
        <time>2024-03-21T13:40:24Z</time>
      </trkpt>
      <trkpt lat="43.65086" lon="3.26976">
        <ele>423.1</ele>
        <time>2024-03-21T13:40:25Z</time>
      </trkpt>
      <trkpt lat="43.65085" lon="3.26969">
        <ele>423.6</ele>
        <time>2024-03-21T13:40:26Z</time>
      </trkpt>
      <trkpt lat="43.65084" lon="3.26963">
        <ele>424.1</ele>
        <time>2024-03-21T13:40:27Z</time>
      </trkpt>
      <trkpt lat="43.65084" lon="3.26951">
        <ele>425.4</ele>
        <time>2024-03-21T13:40:29Z</time>
      </trkpt>
      <trkpt lat="43.65083" lon="3.26945">
        <ele>425.9</ele>
        <time>2024-03-21T13:40:30Z</time>
      </trkpt>
      <trkpt lat="43.65083" lon="3.26932">
        <ele>427.3</ele>
        <time>2024-03-21T13:40:32Z</time>
      </trkpt>
      <trkpt lat="43.65082" lon="3.26926">
        <ele>428</ele>
        <time>2024-03-21T13:40:33Z</time>
      </trkpt>
      <trkpt lat="43.65083" lon="3.2692">
        <ele>428.6</ele>
        <time>2024-03-21T13:40:34Z</time>
      </trkpt>
      <trkpt lat="43.65083" lon="3.26914">
        <ele>429.1</ele>
        <time>2024-03-21T13:40:35Z</time>
      </trkpt>
      <trkpt lat="43.65084" lon="3.26908">
        <ele>429.4</ele>
        <time>2024-03-21T13:40:36Z</time>
      </trkpt>
      <trkpt lat="43.65086" lon="3.26894">
        <ele>430.1</ele>
        <time>2024-03-21T13:40:38Z</time>
      </trkpt>
      <trkpt lat="43.65086" lon="3.26882">
        <ele>430.5</ele>
        <time>2024-03-21T13:40:40Z</time>
      </trkpt>
      <trkpt lat="43.65085" lon="3.26877">
        <ele>430.6</ele>
        <time>2024-03-21T13:40:41Z</time>
      </trkpt>
      <trkpt lat="43.65084" lon="3.26873">
        <ele>430.6</ele>
        <time>2024-03-21T13:40:42Z</time>
      </trkpt>
      <trkpt lat="43.65083" lon="3.26871">
        <ele>430.6</ele>
        <time>2024-03-21T13:40:43Z</time>
      </trkpt>
      <trkpt lat="43.65081" lon="3.26868">
        <ele>430.8</ele>
        <time>2024-03-21T13:40:44Z</time>
      </trkpt>
      <trkpt lat="43.6508" lon="3.26866">
        <ele>430.8</ele>
        <time>2024-03-21T13:40:45Z</time>
      </trkpt>
      <trkpt lat="43.65079" lon="3.26865">
        <ele>430.9</ele>
        <time>2024-03-21T13:40:46Z</time>
      </trkpt>
      <trkpt lat="43.65077" lon="3.26861">
        <ele>431</ele>
        <time>2024-03-21T13:40:48Z</time>
      </trkpt>
      <trkpt lat="43.65077" lon="3.2686">
        <ele>431</ele>
        <time>2024-03-21T13:40:49Z</time>
      </trkpt>
      <trkpt lat="43.65076" lon="3.2686">
        <ele>431</ele>
        <time>2024-03-21T13:40:51Z</time>
      </trkpt>
      <trkpt lat="43.65076" lon="3.26861">
        <ele>431</ele>
        <time>2024-03-21T13:41:23Z</time>
      </trkpt>
      <trkpt lat="43.65076" lon="3.2686">
        <ele>431</ele>
        <time>2024-03-21T13:41:34Z</time>
      </trkpt>
      <trkpt lat="43.65077" lon="3.26859">
        <ele>431</ele>
        <time>2024-03-21T13:41:35Z</time>
      </trkpt>
      <trkpt lat="43.65077" lon="3.26857">
        <ele>431</ele>
        <time>2024-03-21T13:41:36Z</time>
      </trkpt>
      <trkpt lat="43.65076" lon="3.26856">
        <ele>431</ele>
        <time>2024-03-21T13:41:38Z</time>
      </trkpt>
      <trkpt lat="43.65075" lon="3.26856">
        <ele>430.9</ele>
        <time>2024-03-21T13:42:10Z</time>
      </trkpt>
      <trkpt lat="43.65076" lon="3.26856">
        <ele>431</ele>
        <time>2024-03-21T13:43:14Z</time>
      </trkpt>
      <trkpt lat="43.65076" lon="3.26855">
        <ele>430.9</ele>
        <time>2024-03-21T13:44:08Z</time>
      </trkpt>
      <trkpt lat="43.65076" lon="3.26856">
        <ele>431</ele>
        <time>2024-03-21T13:44:09Z</time>
      </trkpt>
      <trkpt lat="43.65076" lon="3.26855">
        <ele>430.9</ele>
        <time>2024-03-21T13:44:10Z</time>
      </trkpt>
      <trkpt lat="43.65076" lon="3.26856">
        <ele>431</ele>
        <time>2024-03-21T13:44:12Z</time>
      </trkpt>
      <trkpt lat="43.65076" lon="3.26855">
        <ele>430.9</ele>
        <time>2024-03-21T13:44:14Z</time>
      </trkpt>
      <trkpt lat="43.65076" lon="3.26856">
        <ele>431</ele>
        <time>2024-03-21T13:44:15Z</time>
      </trkpt>
      <trkpt lat="43.65076" lon="3.26855">
        <ele>430.9</ele>
        <time>2024-03-21T13:44:16Z</time>
      </trkpt>
      <trkpt lat="43.65076" lon="3.26856">
        <ele>431</ele>
        <time>2024-03-21T13:44:17Z</time>
      </trkpt>
      <trkpt lat="43.65076" lon="3.26855">
        <ele>430.9</ele>
        <time>2024-03-21T13:44:18Z</time>
      </trkpt>
      <trkpt lat="43.65076" lon="3.26856">
        <ele>431</ele>
        <time>2024-03-21T13:44:34Z</time>
      </trkpt>
      <trkpt lat="43.65075" lon="3.26855">
        <ele>430.9</ele>
        <time>2024-03-21T13:44:35Z</time>
      </trkpt>
      <trkpt lat="43.65076" lon="3.26853">
        <ele>430.9</ele>
        <time>2024-03-21T13:44:36Z</time>
      </trkpt>
      <trkpt lat="43.65076" lon="3.26851">
        <ele>430.9</ele>
        <time>2024-03-21T13:44:37Z</time>
      </trkpt>
      <trkpt lat="43.65075" lon="3.26847">
        <ele>430.8</ele>
        <time>2024-03-21T13:44:38Z</time>
      </trkpt>
      <trkpt lat="43.65074" lon="3.26844">
        <ele>430.8</ele>
        <time>2024-03-21T13:44:39Z</time>
      </trkpt>
      <trkpt lat="43.65074" lon="3.26837">
        <ele>430.7</ele>
        <time>2024-03-21T13:44:41Z</time>
      </trkpt>
      <trkpt lat="43.65073" lon="3.26834">
        <ele>430.6</ele>
        <time>2024-03-21T13:44:42Z</time>
      </trkpt>
      <trkpt lat="43.65071" lon="3.26826">
        <ele>430.1</ele>
        <time>2024-03-21T13:44:44Z</time>
      </trkpt>
      <trkpt lat="43.65069" lon="3.2682">
        <ele>429.8</ele>
        <time>2024-03-21T13:44:45Z</time>
      </trkpt>
      <trkpt lat="43.65069" lon="3.26808">
        <ele>429.1</ele>
        <time>2024-03-21T13:44:47Z</time>
      </trkpt>
      <trkpt lat="43.65071" lon="3.26801">
        <ele>428.7</ele>
        <time>2024-03-21T13:44:48Z</time>
      </trkpt>
      <trkpt lat="43.65074" lon="3.26796">
        <ele>428.2</ele>
        <time>2024-03-21T13:44:49Z</time>
      </trkpt>
      <trkpt lat="43.65079" lon="3.26792">
        <ele>427.7</ele>
        <time>2024-03-21T13:44:50Z</time>
      </trkpt>
      <trkpt lat="43.65085" lon="3.26788">
        <ele>427.1</ele>
        <time>2024-03-21T13:44:51Z</time>
      </trkpt>
      <trkpt lat="43.65093" lon="3.26786">
        <ele>426.6</ele>
        <time>2024-03-21T13:44:52Z</time>
      </trkpt>
      <trkpt lat="43.651" lon="3.26786">
        <ele>426.5</ele>
        <time>2024-03-21T13:44:53Z</time>
      </trkpt>
      <trkpt lat="43.65108" lon="3.26785">
        <ele>426.1</ele>
        <time>2024-03-21T13:44:54Z</time>
      </trkpt>
      <trkpt lat="43.65115" lon="3.26781">
        <ele>426</ele>
        <time>2024-03-21T13:44:55Z</time>
      </trkpt>
      <trkpt lat="43.65122" lon="3.26774">
        <ele>426</ele>
        <time>2024-03-21T13:44:56Z</time>
      </trkpt>
      <trkpt lat="43.65128" lon="3.26765">
        <ele>425.3</ele>
        <time>2024-03-21T13:44:57Z</time>
      </trkpt>
      <trkpt lat="43.65133" lon="3.26755">
        <ele>424.2</ele>
        <time>2024-03-21T13:44:58Z</time>
      </trkpt>
      <trkpt lat="43.65137" lon="3.26743">
        <ele>422.8</ele>
        <time>2024-03-21T13:44:59Z</time>
      </trkpt>
      <trkpt lat="43.65139" lon="3.2673">
        <ele>421.1</ele>
        <time>2024-03-21T13:45:00Z</time>
      </trkpt>
      <trkpt lat="43.65138" lon="3.26717">
        <ele>419.5</ele>
        <time>2024-03-21T13:45:01Z</time>
      </trkpt>
      <trkpt lat="43.65138" lon="3.26704">
        <ele>418.6</ele>
        <time>2024-03-21T13:45:02Z</time>
      </trkpt>
      <trkpt lat="43.6514" lon="3.26692">
        <ele>418.1</ele>
        <time>2024-03-21T13:45:03Z</time>
      </trkpt>
      <trkpt lat="43.65141" lon="3.26679">
        <ele>417.4</ele>
        <time>2024-03-21T13:45:04Z</time>
      </trkpt>
      <trkpt lat="43.65144" lon="3.26665">
        <ele>416.9</ele>
        <time>2024-03-21T13:45:05Z</time>
      </trkpt>
      <trkpt lat="43.65146" lon="3.26651">
        <ele>415.7</ele>
        <time>2024-03-21T13:45:06Z</time>
      </trkpt>
      <trkpt lat="43.6515" lon="3.26637">
        <ele>414.8</ele>
        <time>2024-03-21T13:45:07Z</time>
      </trkpt>
      <trkpt lat="43.65153" lon="3.26622">
        <ele>413.7</ele>
        <time>2024-03-21T13:45:08Z</time>
      </trkpt>
      <trkpt lat="43.65163" lon="3.26594">
        <ele>413.1</ele>
        <time>2024-03-21T13:45:10Z</time>
      </trkpt>
      <trkpt lat="43.6517" lon="3.26582">
        <ele>413.2</ele>
        <time>2024-03-21T13:45:11Z</time>
      </trkpt>
      <trkpt lat="43.65178" lon="3.26571">
        <ele>412.9</ele>
        <time>2024-03-21T13:45:12Z</time>
      </trkpt>
      <trkpt lat="43.65185" lon="3.2656">
        <ele>412.5</ele>
        <time>2024-03-21T13:45:13Z</time>
      </trkpt>
      <trkpt lat="43.65201" lon="3.2654">
        <ele>410.7</ele>
        <time>2024-03-21T13:45:15Z</time>
      </trkpt>
      <trkpt lat="43.6521" lon="3.2653">
        <ele>410</ele>
        <time>2024-03-21T13:45:16Z</time>
      </trkpt>
      <trkpt lat="43.65218" lon="3.2652">
        <ele>408.9</ele>
        <time>2024-03-21T13:45:17Z</time>
      </trkpt>
      <trkpt lat="43.65227" lon="3.26509">
        <ele>406.9</ele>
        <time>2024-03-21T13:45:18Z</time>
      </trkpt>
      <trkpt lat="43.65234" lon="3.26499">
        <ele>404.9</ele>
        <time>2024-03-21T13:45:19Z</time>
      </trkpt>
      <trkpt lat="43.65243" lon="3.26489">
        <ele>403.7</ele>
        <time>2024-03-21T13:45:20Z</time>
      </trkpt>
      <trkpt lat="43.6525" lon="3.26478">
        <ele>402.6</ele>
        <time>2024-03-21T13:45:21Z</time>
      </trkpt>
      <trkpt lat="43.65257" lon="3.26465">
        <ele>401.4</ele>
        <time>2024-03-21T13:45:22Z</time>
      </trkpt>
      <trkpt lat="43.65267" lon="3.26437">
        <ele>399.7</ele>
        <time>2024-03-21T13:45:24Z</time>
      </trkpt>
      <trkpt lat="43.65274" lon="3.26423">
        <ele>399.2</ele>
        <time>2024-03-21T13:45:25Z</time>
      </trkpt>
      <trkpt lat="43.6528" lon="3.2641">
        <ele>398.3</ele>
        <time>2024-03-21T13:45:26Z</time>
      </trkpt>
      <trkpt lat="43.65286" lon="3.26396">
        <ele>397.2</ele>
        <time>2024-03-21T13:45:27Z</time>
      </trkpt>
      <trkpt lat="43.65292" lon="3.26385">
        <ele>396.6</ele>
        <time>2024-03-21T13:45:28Z</time>
      </trkpt>
      <trkpt lat="43.653" lon="3.26375">
        <ele>396.4</ele>
        <time>2024-03-21T13:45:29Z</time>
      </trkpt>
      <trkpt lat="43.65308" lon="3.26368">
        <ele>396.5</ele>
        <time>2024-03-21T13:45:30Z</time>
      </trkpt>
      <trkpt lat="43.65315" lon="3.2636">
        <ele>395.9</ele>
        <time>2024-03-21T13:45:31Z</time>
      </trkpt>
      <trkpt lat="43.65325" lon="3.26338">
        <ele>394.9</ele>
        <time>2024-03-21T13:45:33Z</time>
      </trkpt>
      <trkpt lat="43.65328" lon="3.26325">
        <ele>394.8</ele>
        <time>2024-03-21T13:45:34Z</time>
      </trkpt>
      <trkpt lat="43.65331" lon="3.26313">
        <ele>394.9</ele>
        <time>2024-03-21T13:45:35Z</time>
      </trkpt>
      <trkpt lat="43.65333" lon="3.26301">
        <ele>395</ele>
        <time>2024-03-21T13:45:36Z</time>
      </trkpt>
      <trkpt lat="43.65339" lon="3.26279">
        <ele>395.2</ele>
        <time>2024-03-21T13:45:38Z</time>
      </trkpt>
      <trkpt lat="43.65341" lon="3.26269">
        <ele>395.5</ele>
        <time>2024-03-21T13:45:39Z</time>
      </trkpt>
      <trkpt lat="43.65342" lon="3.26261">
        <ele>395.7</ele>
        <time>2024-03-21T13:45:40Z</time>
      </trkpt>
      <trkpt lat="43.65339" lon="3.26255">
        <ele>395.9</ele>
        <time>2024-03-21T13:45:41Z</time>
      </trkpt>
      <trkpt lat="43.65335" lon="3.26251">
        <ele>396</ele>
        <time>2024-03-21T13:45:42Z</time>
      </trkpt>
      <trkpt lat="43.6533" lon="3.26249">
        <ele>396</ele>
        <time>2024-03-21T13:45:43Z</time>
      </trkpt>
      <trkpt lat="43.65326" lon="3.26247">
        <ele>396.1</ele>
        <time>2024-03-21T13:45:44Z</time>
      </trkpt>
      <trkpt lat="43.65324" lon="3.26243">
        <ele>396.2</ele>
        <time>2024-03-21T13:45:45Z</time>
      </trkpt>
      <trkpt lat="43.65322" lon="3.26237">
        <ele>396.3</ele>
        <time>2024-03-21T13:45:46Z</time>
      </trkpt>
      <trkpt lat="43.6532" lon="3.26227">
        <ele>396.4</ele>
        <time>2024-03-21T13:45:48Z</time>
      </trkpt>
      <trkpt lat="43.65319" lon="3.26224">
        <ele>396.5</ele>
        <time>2024-03-21T13:45:49Z</time>
      </trkpt>
      <trkpt lat="43.65318" lon="3.2622">
        <ele>396.5</ele>
        <time>2024-03-21T13:45:50Z</time>
      </trkpt>
      <trkpt lat="43.65316" lon="3.26214">
        <ele>396.6</ele>
        <time>2024-03-21T13:45:52Z</time>
      </trkpt>
      <trkpt lat="43.65315" lon="3.2621">
        <ele>396.6</ele>
        <time>2024-03-21T13:45:53Z</time>
      </trkpt>
      <trkpt lat="43.65314" lon="3.26207">
        <ele>396.7</ele>
        <time>2024-03-21T13:45:54Z</time>
      </trkpt>
      <trkpt lat="43.65312" lon="3.26203">
        <ele>396.8</ele>
        <time>2024-03-21T13:45:55Z</time>
      </trkpt>
      <trkpt lat="43.65311" lon="3.26199">
        <ele>396.9</ele>
        <time>2024-03-21T13:45:56Z</time>
      </trkpt>
      <trkpt lat="43.65309" lon="3.26194">
        <ele>397</ele>
        <time>2024-03-21T13:45:57Z</time>
      </trkpt>
      <trkpt lat="43.65307" lon="3.2619">
        <ele>397</ele>
        <time>2024-03-21T13:45:58Z</time>
      </trkpt>
      <trkpt lat="43.65306" lon="3.26186">
        <ele>397</ele>
        <time>2024-03-21T13:45:59Z</time>
      </trkpt>
      <trkpt lat="43.65305" lon="3.26181">
        <ele>397</ele>
        <time>2024-03-21T13:46:00Z</time>
      </trkpt>
      <trkpt lat="43.65301" lon="3.26165">
        <ele>396.8</ele>
        <time>2024-03-21T13:46:04Z</time>
      </trkpt>
      <trkpt lat="43.65298" lon="3.2615">
        <ele>396.7</ele>
        <time>2024-03-21T13:46:07Z</time>
      </trkpt>
      <trkpt lat="43.65297" lon="3.26146">
        <ele>396.7</ele>
        <time>2024-03-21T13:46:08Z</time>
      </trkpt>
      <trkpt lat="43.65296" lon="3.26141">
        <ele>396.7</ele>
        <time>2024-03-21T13:46:09Z</time>
      </trkpt>
      <trkpt lat="43.65294" lon="3.26137">
        <ele>396.7</ele>
        <time>2024-03-21T13:46:10Z</time>
      </trkpt>
      <trkpt lat="43.65293" lon="3.26132">
        <ele>396.9</ele>
        <time>2024-03-21T13:46:11Z</time>
      </trkpt>
      <trkpt lat="43.6529" lon="3.2612">
        <ele>397.4</ele>
        <time>2024-03-21T13:46:14Z</time>
      </trkpt>
      <trkpt lat="43.65288" lon="3.26116">
        <ele>397.5</ele>
        <time>2024-03-21T13:46:15Z</time>
      </trkpt>
      <trkpt lat="43.65287" lon="3.26112">
        <ele>397.6</ele>
        <time>2024-03-21T13:46:16Z</time>
      </trkpt>
      <trkpt lat="43.65285" lon="3.26108">
        <ele>397.6</ele>
        <time>2024-03-21T13:46:17Z</time>
      </trkpt>
      <trkpt lat="43.65283" lon="3.261">
        <ele>397.8</ele>
        <time>2024-03-21T13:46:19Z</time>
      </trkpt>
      <trkpt lat="43.65282" lon="3.26097">
        <ele>397.8</ele>
        <time>2024-03-21T13:46:20Z</time>
      </trkpt>
      <trkpt lat="43.6528" lon="3.26089">
        <ele>398</ele>
        <time>2024-03-21T13:46:22Z</time>
      </trkpt>
      <trkpt lat="43.65279" lon="3.26086">
        <ele>398</ele>
        <time>2024-03-21T13:46:23Z</time>
      </trkpt>
      <trkpt lat="43.65277" lon="3.26078">
        <ele>398.3</ele>
        <time>2024-03-21T13:46:25Z</time>
      </trkpt>
      <trkpt lat="43.65276" lon="3.26073">
        <ele>398.6</ele>
        <time>2024-03-21T13:46:26Z</time>
      </trkpt>
      <trkpt lat="43.65275" lon="3.2607">
        <ele>398.8</ele>
        <time>2024-03-21T13:46:27Z</time>
      </trkpt>
      <trkpt lat="43.65273" lon="3.26067">
        <ele>398.8</ele>
        <time>2024-03-21T13:46:28Z</time>
      </trkpt>
      <trkpt lat="43.65272" lon="3.26065">
        <ele>398.8</ele>
        <time>2024-03-21T13:46:29Z</time>
      </trkpt>
      <trkpt lat="43.65272" lon="3.26059">
        <ele>399.2</ele>
        <time>2024-03-21T13:46:31Z</time>
      </trkpt>
      <trkpt lat="43.65273" lon="3.26056">
        <ele>399.5</ele>
        <time>2024-03-21T13:46:32Z</time>
      </trkpt>
      <trkpt lat="43.65275" lon="3.26054">
        <ele>399.7</ele>
        <time>2024-03-21T13:46:33Z</time>
      </trkpt>
      <trkpt lat="43.65277" lon="3.26048">
        <ele>399.9</ele>
        <time>2024-03-21T13:46:35Z</time>
      </trkpt>
      <trkpt lat="43.65279" lon="3.26045">
        <ele>400.1</ele>
        <time>2024-03-21T13:46:36Z</time>
      </trkpt>
      <trkpt lat="43.6528" lon="3.26041">
        <ele>400.1</ele>
        <time>2024-03-21T13:46:37Z</time>
      </trkpt>
      <trkpt lat="43.65282" lon="3.26035">
        <ele>400.3</ele>
        <time>2024-03-21T13:46:39Z</time>
      </trkpt>
      <trkpt lat="43.65283" lon="3.26033">
        <ele>400.3</ele>
        <time>2024-03-21T13:46:40Z</time>
      </trkpt>
      <trkpt lat="43.65285" lon="3.26027">
        <ele>400.5</ele>
        <time>2024-03-21T13:46:42Z</time>
      </trkpt>
      <trkpt lat="43.65286" lon="3.26025">
        <ele>400.7</ele>
        <time>2024-03-21T13:46:43Z</time>
      </trkpt>
      <trkpt lat="43.65287" lon="3.26021">
        <ele>400.9</ele>
        <time>2024-03-21T13:46:44Z</time>
      </trkpt>
      <trkpt lat="43.65288" lon="3.26019">
        <ele>401.1</ele>
        <time>2024-03-21T13:46:45Z</time>
      </trkpt>
      <trkpt lat="43.65289" lon="3.26016">
        <ele>401.2</ele>
        <time>2024-03-21T13:46:46Z</time>
      </trkpt>
      <trkpt lat="43.65291" lon="3.26012">
        <ele>401.5</ele>
        <time>2024-03-21T13:46:48Z</time>
      </trkpt>
      <trkpt lat="43.65291" lon="3.2601">
        <ele>401.6</ele>
        <time>2024-03-21T13:46:49Z</time>
      </trkpt>
      <trkpt lat="43.65292" lon="3.26008">
        <ele>401.7</ele>
        <time>2024-03-21T13:46:50Z</time>
      </trkpt>
      <trkpt lat="43.65292" lon="3.26005">
        <ele>401.8</ele>
        <time>2024-03-21T13:46:51Z</time>
      </trkpt>
      <trkpt lat="43.65293" lon="3.26003">
        <ele>402</ele>
        <time>2024-03-21T13:46:52Z</time>
      </trkpt>
      <trkpt lat="43.65293" lon="3.26001">
        <ele>402.1</ele>
        <time>2024-03-21T13:46:53Z</time>
      </trkpt>
      <trkpt lat="43.65294" lon="3.25999">
        <ele>402.3</ele>
        <time>2024-03-21T13:46:54Z</time>
      </trkpt>
      <trkpt lat="43.65295" lon="3.25996">
        <ele>402.7</ele>
        <time>2024-03-21T13:46:55Z</time>
      </trkpt>
      <trkpt lat="43.65295" lon="3.25991">
        <ele>403.2</ele>
        <time>2024-03-21T13:46:57Z</time>
      </trkpt>
      <trkpt lat="43.65296" lon="3.25988">
        <ele>403.6</ele>
        <time>2024-03-21T13:46:58Z</time>
      </trkpt>
      <trkpt lat="43.65296" lon="3.25982">
        <ele>404.3</ele>
        <time>2024-03-21T13:47:00Z</time>
      </trkpt>
      <trkpt lat="43.65297" lon="3.25979">
        <ele>404.7</ele>
        <time>2024-03-21T13:47:01Z</time>
      </trkpt>
      <trkpt lat="43.65297" lon="3.25963">
        <ele>406.8</ele>
        <time>2024-03-21T13:47:07Z</time>
      </trkpt>
      <trkpt lat="43.65296" lon="3.2596">
        <ele>407.2</ele>
        <time>2024-03-21T13:47:08Z</time>
      </trkpt>
      <trkpt lat="43.65295" lon="3.25958">
        <ele>407.4</ele>
        <time>2024-03-21T13:47:09Z</time>
      </trkpt>
      <trkpt lat="43.65295" lon="3.25948">
        <ele>408.9</ele>
        <time>2024-03-21T13:47:12Z</time>
      </trkpt>
      <trkpt lat="43.65294" lon="3.25945">
        <ele>409.3</ele>
        <time>2024-03-21T13:47:13Z</time>
      </trkpt>
      <trkpt lat="43.65294" lon="3.25939">
        <ele>410</ele>
        <time>2024-03-21T13:47:15Z</time>
      </trkpt>
      <trkpt lat="43.65293" lon="3.25936">
        <ele>410.2</ele>
        <time>2024-03-21T13:47:16Z</time>
      </trkpt>
      <trkpt lat="43.65293" lon="3.25931">
        <ele>410.9</ele>
        <time>2024-03-21T13:47:18Z</time>
      </trkpt>
      <trkpt lat="43.65292" lon="3.25929">
        <ele>411</ele>
        <time>2024-03-21T13:47:19Z</time>
      </trkpt>
      <trkpt lat="43.65292" lon="3.25909">
        <ele>413.4</ele>
        <time>2024-03-21T13:47:27Z</time>
      </trkpt>
      <trkpt lat="43.65293" lon="3.25906">
        <ele>413.8</ele>
        <time>2024-03-21T13:47:28Z</time>
      </trkpt>
      <trkpt lat="43.65293" lon="3.25903">
        <ele>414.1</ele>
        <time>2024-03-21T13:47:29Z</time>
      </trkpt>
      <trkpt lat="43.65294" lon="3.25901">
        <ele>414.4</ele>
        <time>2024-03-21T13:47:30Z</time>
      </trkpt>
      <trkpt lat="43.65294" lon="3.25895">
        <ele>415.1</ele>
        <time>2024-03-21T13:47:32Z</time>
      </trkpt>
      <trkpt lat="43.65295" lon="3.25893">
        <ele>415.4</ele>
        <time>2024-03-21T13:47:33Z</time>
      </trkpt>
      <trkpt lat="43.65295" lon="3.25891">
        <ele>415.6</ele>
        <time>2024-03-21T13:47:34Z</time>
      </trkpt>
      <trkpt lat="43.65296" lon="3.25888">
        <ele>416.1</ele>
        <time>2024-03-21T13:47:35Z</time>
      </trkpt>
      <trkpt lat="43.65296" lon="3.25883">
        <ele>416.8</ele>
        <time>2024-03-21T13:47:37Z</time>
      </trkpt>
      <trkpt lat="43.65298" lon="3.25877">
        <ele>417.9</ele>
        <time>2024-03-21T13:47:39Z</time>
      </trkpt>
      <trkpt lat="43.65298" lon="3.25873">
        <ele>418.5</ele>
        <time>2024-03-21T13:47:41Z</time>
      </trkpt>
      <trkpt lat="43.65299" lon="3.25871">
        <ele>418.9</ele>
        <time>2024-03-21T13:47:42Z</time>
      </trkpt>
      <trkpt lat="43.65299" lon="3.25869">
        <ele>419.2</ele>
        <time>2024-03-21T13:47:43Z</time>
      </trkpt>
      <trkpt lat="43.653" lon="3.25866">
        <ele>419.7</ele>
        <time>2024-03-21T13:47:44Z</time>
      </trkpt>
      <trkpt lat="43.653" lon="3.25864">
        <ele>420</ele>
        <time>2024-03-21T13:47:45Z</time>
      </trkpt>
      <trkpt lat="43.65301" lon="3.25861">
        <ele>420.5</ele>
        <time>2024-03-21T13:47:46Z</time>
      </trkpt>
      <trkpt lat="43.65301" lon="3.25859">
        <ele>420.6</ele>
        <time>2024-03-21T13:47:47Z</time>
      </trkpt>
      <trkpt lat="43.65302" lon="3.25857">
        <ele>420.9</ele>
        <time>2024-03-21T13:47:48Z</time>
      </trkpt>
      <trkpt lat="43.65303" lon="3.25854">
        <ele>421.2</ele>
        <time>2024-03-21T13:47:49Z</time>
      </trkpt>
      <trkpt lat="43.65303" lon="3.25845">
        <ele>421.8</ele>
        <time>2024-03-21T13:47:53Z</time>
      </trkpt>
      <trkpt lat="43.65304" lon="3.25843">
        <ele>422.1</ele>
        <time>2024-03-21T13:47:54Z</time>
      </trkpt>
      <trkpt lat="43.65304" lon="3.25839">
        <ele>422.4</ele>
        <time>2024-03-21T13:47:56Z</time>
      </trkpt>
      <trkpt lat="43.65307" lon="3.25833">
        <ele>423.1</ele>
        <time>2024-03-21T13:47:59Z</time>
      </trkpt>
      <trkpt lat="43.65308" lon="3.2583">
        <ele>423.6</ele>
        <time>2024-03-21T13:48:00Z</time>
      </trkpt>
      <trkpt lat="43.65309" lon="3.25828">
        <ele>423.9</ele>
        <time>2024-03-21T13:48:01Z</time>
      </trkpt>
      <trkpt lat="43.65311" lon="3.25826">
        <ele>424.3</ele>
        <time>2024-03-21T13:48:02Z</time>
      </trkpt>
      <trkpt lat="43.65312" lon="3.25824">
        <ele>424.7</ele>
        <time>2024-03-21T13:48:03Z</time>
      </trkpt>
      <trkpt lat="43.65314" lon="3.25821">
        <ele>425.3</ele>
        <time>2024-03-21T13:48:04Z</time>
      </trkpt>
      <trkpt lat="43.65316" lon="3.25819">
        <ele>425.9</ele>
        <time>2024-03-21T13:48:05Z</time>
      </trkpt>
      <trkpt lat="43.65316" lon="3.25813">
        <ele>426.8</ele>
        <time>2024-03-21T13:48:07Z</time>
      </trkpt>
      <trkpt lat="43.65315" lon="3.2581">
        <ele>427.1</ele>
        <time>2024-03-21T13:48:08Z</time>
      </trkpt>
      <trkpt lat="43.65311" lon="3.25802">
        <ele>427.6</ele>
        <time>2024-03-21T13:48:12Z</time>
      </trkpt>
      <trkpt lat="43.6531" lon="3.25801">
        <ele>427.6</ele>
        <time>2024-03-21T13:48:13Z</time>
      </trkpt>
      <trkpt lat="43.65309" lon="3.25799">
        <ele>427.8</ele>
        <time>2024-03-21T13:48:14Z</time>
      </trkpt>
      <trkpt lat="43.65307" lon="3.25796">
        <ele>428</ele>
        <time>2024-03-21T13:48:15Z</time>
      </trkpt>
      <trkpt lat="43.65306" lon="3.25794">
        <ele>428.2</ele>
        <time>2024-03-21T13:48:16Z</time>
      </trkpt>
      <trkpt lat="43.65306" lon="3.25792">
        <ele>428.5</ele>
        <time>2024-03-21T13:48:17Z</time>
      </trkpt>
      <trkpt lat="43.65305" lon="3.2579">
        <ele>428.7</ele>
        <time>2024-03-21T13:48:18Z</time>
      </trkpt>
      <trkpt lat="43.65305" lon="3.25787">
        <ele>429.2</ele>
        <time>2024-03-21T13:48:19Z</time>
      </trkpt>
      <trkpt lat="43.65304" lon="3.25784">
        <ele>429.6</ele>
        <time>2024-03-21T13:48:20Z</time>
      </trkpt>
      <trkpt lat="43.65304" lon="3.25781">
        <ele>430.1</ele>
        <time>2024-03-21T13:48:21Z</time>
      </trkpt>
      <trkpt lat="43.65303" lon="3.25779">
        <ele>430.2</ele>
        <time>2024-03-21T13:48:22Z</time>
      </trkpt>
      <trkpt lat="43.65303" lon="3.25776">
        <ele>430.6</ele>
        <time>2024-03-21T13:48:23Z</time>
      </trkpt>
      <trkpt lat="43.65302" lon="3.25773">
        <ele>430.7</ele>
        <time>2024-03-21T13:48:24Z</time>
      </trkpt>
      <trkpt lat="43.65302" lon="3.25754">
        <ele>432.8</ele>
        <time>2024-03-21T13:48:32Z</time>
      </trkpt>
      <trkpt lat="43.65303" lon="3.25751">
        <ele>433.3</ele>
        <time>2024-03-21T13:48:33Z</time>
      </trkpt>
      <trkpt lat="43.65303" lon="3.25744">
        <ele>433.9</ele>
        <time>2024-03-21T13:48:36Z</time>
      </trkpt>
      <trkpt lat="43.65304" lon="3.25741">
        <ele>434.3</ele>
        <time>2024-03-21T13:48:37Z</time>
      </trkpt>
      <trkpt lat="43.65304" lon="3.25731">
        <ele>435.1</ele>
        <time>2024-03-21T13:48:41Z</time>
      </trkpt>
      <trkpt lat="43.65305" lon="3.25728">
        <ele>435.5</ele>
        <time>2024-03-21T13:48:42Z</time>
      </trkpt>
      <trkpt lat="43.65305" lon="3.25725">
        <ele>435.7</ele>
        <time>2024-03-21T13:48:43Z</time>
      </trkpt>
      <trkpt lat="43.65306" lon="3.25722">
        <ele>436.1</ele>
        <time>2024-03-21T13:48:44Z</time>
      </trkpt>
      <trkpt lat="43.65306" lon="3.25718">
        <ele>436.6</ele>
        <time>2024-03-21T13:48:46Z</time>
      </trkpt>
      <trkpt lat="43.65305" lon="3.25716">
        <ele>436.6</ele>
        <time>2024-03-21T13:48:47Z</time>
      </trkpt>
      <trkpt lat="43.65305" lon="3.25701">
        <ele>438.2</ele>
        <time>2024-03-21T13:48:53Z</time>
      </trkpt>
      <trkpt lat="43.65306" lon="3.25699">
        <ele>438.6</ele>
        <time>2024-03-21T13:48:54Z</time>
      </trkpt>
      <trkpt lat="43.65306" lon="3.25696">
        <ele>438.9</ele>
        <time>2024-03-21T13:48:55Z</time>
      </trkpt>
      <trkpt lat="43.65305" lon="3.25693">
        <ele>439</ele>
        <time>2024-03-21T13:48:56Z</time>
      </trkpt>
      <trkpt lat="43.65306" lon="3.2569">
        <ele>439.4</ele>
        <time>2024-03-21T13:48:57Z</time>
      </trkpt>
      <trkpt lat="43.65306" lon="3.25688">
        <ele>439.6</ele>
        <time>2024-03-21T13:48:58Z</time>
      </trkpt>
      <trkpt lat="43.65305" lon="3.25684">
        <ele>439.6</ele>
        <time>2024-03-21T13:48:59Z</time>
      </trkpt>
      <trkpt lat="43.65305" lon="3.25682">
        <ele>439.8</ele>
        <time>2024-03-21T13:49:00Z</time>
      </trkpt>
      <trkpt lat="43.65304" lon="3.2568">
        <ele>439.8</ele>
        <time>2024-03-21T13:49:01Z</time>
      </trkpt>
      <trkpt lat="43.65304" lon="3.25674">
        <ele>440.2</ele>
        <time>2024-03-21T13:49:03Z</time>
      </trkpt>
      <trkpt lat="43.65306" lon="3.2567">
        <ele>440.8</ele>
        <time>2024-03-21T13:49:05Z</time>
      </trkpt>
      <trkpt lat="43.65306" lon="3.25667">
        <ele>441.1</ele>
        <time>2024-03-21T13:49:06Z</time>
      </trkpt>
      <trkpt lat="43.65307" lon="3.25664">
        <ele>441.5</ele>
        <time>2024-03-21T13:49:07Z</time>
      </trkpt>
      <trkpt lat="43.65307" lon="3.25662">
        <ele>441.6</ele>
        <time>2024-03-21T13:49:08Z</time>
      </trkpt>
      <trkpt lat="43.65308" lon="3.25659">
        <ele>442</ele>
        <time>2024-03-21T13:49:09Z</time>
      </trkpt>
      <trkpt lat="43.65308" lon="3.25657">
        <ele>442.1</ele>
        <time>2024-03-21T13:49:10Z</time>
      </trkpt>
      <trkpt lat="43.65309" lon="3.25654">
        <ele>442.5</ele>
        <time>2024-03-21T13:49:11Z</time>
      </trkpt>
      <trkpt lat="43.65309" lon="3.2564">
        <ele>443.5</ele>
        <time>2024-03-21T13:49:16Z</time>
      </trkpt>
      <trkpt lat="43.65308" lon="3.25637">
        <ele>443.5</ele>
        <time>2024-03-21T13:49:17Z</time>
      </trkpt>
      <trkpt lat="43.65308" lon="3.25632">
        <ele>443.7</ele>
        <time>2024-03-21T13:49:19Z</time>
      </trkpt>
      <trkpt lat="43.65307" lon="3.2563">
        <ele>443.6</ele>
        <time>2024-03-21T13:49:20Z</time>
      </trkpt>
      <trkpt lat="43.65307" lon="3.25628">
        <ele>443.6</ele>
        <time>2024-03-21T13:49:21Z</time>
      </trkpt>
      <trkpt lat="43.65306" lon="3.25625">
        <ele>443.6</ele>
        <time>2024-03-21T13:49:22Z</time>
      </trkpt>
      <trkpt lat="43.65306" lon="3.25622">
        <ele>443.7</ele>
        <time>2024-03-21T13:49:23Z</time>
      </trkpt>
      <trkpt lat="43.65305" lon="3.25618">
        <ele>443.6</ele>
        <time>2024-03-21T13:49:24Z</time>
      </trkpt>
      <trkpt lat="43.65305" lon="3.25608">
        <ele>443.9</ele>
        <time>2024-03-21T13:49:26Z</time>
      </trkpt>
      <trkpt lat="43.65303" lon="3.25602">
        <ele>443.4</ele>
        <time>2024-03-21T13:49:27Z</time>
      </trkpt>
      <trkpt lat="43.65302" lon="3.25596">
        <ele>443.2</ele>
        <time>2024-03-21T13:49:28Z</time>
      </trkpt>
      <trkpt lat="43.653" lon="3.25589">
        <ele>442.8</ele>
        <time>2024-03-21T13:49:29Z</time>
      </trkpt>
      <trkpt lat="43.65299" lon="3.25581">
        <ele>442.4</ele>
        <time>2024-03-21T13:49:30Z</time>
      </trkpt>
      <trkpt lat="43.65296" lon="3.25573">
        <ele>440.9</ele>
        <time>2024-03-21T13:49:31Z</time>
      </trkpt>
      <trkpt lat="43.65292" lon="3.25555">
        <ele>438.5</ele>
        <time>2024-03-21T13:49:33Z</time>
      </trkpt>
      <trkpt lat="43.65291" lon="3.25544">
        <ele>437.3</ele>
        <time>2024-03-21T13:49:34Z</time>
      </trkpt>
      <trkpt lat="43.65291" lon="3.25534">
        <ele>436.4</ele>
        <time>2024-03-21T13:49:35Z</time>
      </trkpt>
      <trkpt lat="43.65293" lon="3.25524">
        <ele>436.2</ele>
        <time>2024-03-21T13:49:36Z</time>
      </trkpt>
      <trkpt lat="43.65295" lon="3.25515">
        <ele>436.5</ele>
        <time>2024-03-21T13:49:37Z</time>
      </trkpt>
      <trkpt lat="43.65298" lon="3.25507">
        <ele>437.7</ele>
        <time>2024-03-21T13:49:38Z</time>
      </trkpt>
      <trkpt lat="43.653" lon="3.255">
        <ele>438.8</ele>
        <time>2024-03-21T13:49:39Z</time>
      </trkpt>
      <trkpt lat="43.65301" lon="3.25493">
        <ele>439.2</ele>
        <time>2024-03-21T13:49:40Z</time>
      </trkpt>
      <trkpt lat="43.65303" lon="3.25481">
        <ele>439.9</ele>
        <time>2024-03-21T13:49:42Z</time>
      </trkpt>
      <trkpt lat="43.65305" lon="3.25477">
        <ele>440.9</ele>
        <time>2024-03-21T13:49:43Z</time>
      </trkpt>
      <trkpt lat="43.65306" lon="3.25473">
        <ele>441.2</ele>
        <time>2024-03-21T13:49:44Z</time>
      </trkpt>
      <trkpt lat="43.65308" lon="3.25469">
        <ele>441.7</ele>
        <time>2024-03-21T13:49:45Z</time>
      </trkpt>
      <trkpt lat="43.6531" lon="3.25466">
        <ele>442.3</ele>
        <time>2024-03-21T13:49:46Z</time>
      </trkpt>
      <trkpt lat="43.6532" lon="3.25446">
        <ele>445.5</ele>
        <time>2024-03-21T13:49:51Z</time>
      </trkpt>
      <trkpt lat="43.65322" lon="3.25441">
        <ele>445.9</ele>
        <time>2024-03-21T13:49:52Z</time>
      </trkpt>
      <trkpt lat="43.65324" lon="3.25437">
        <ele>446.5</ele>
        <time>2024-03-21T13:49:53Z</time>
      </trkpt>
      <trkpt lat="43.65325" lon="3.25432">
        <ele>446.3</ele>
        <time>2024-03-21T13:49:54Z</time>
      </trkpt>
      <trkpt lat="43.65325" lon="3.25419">
        <ele>444.4</ele>
        <time>2024-03-21T13:49:57Z</time>
      </trkpt>
      <trkpt lat="43.65323" lon="3.25409">
        <ele>444.7</ele>
        <time>2024-03-21T13:49:59Z</time>
      </trkpt>
      <trkpt lat="43.65321" lon="3.25401">
        <ele>445.8</ele>
        <time>2024-03-21T13:50:01Z</time>
      </trkpt>
      <trkpt lat="43.65319" lon="3.25396">
        <ele>446.1</ele>
        <time>2024-03-21T13:50:02Z</time>
      </trkpt>
      <trkpt lat="43.65317" lon="3.25392">
        <ele>446.2</ele>
        <time>2024-03-21T13:50:03Z</time>
      </trkpt>
      <trkpt lat="43.65315" lon="3.25387">
        <ele>446.2</ele>
        <time>2024-03-21T13:50:04Z</time>
      </trkpt>
      <trkpt lat="43.65314" lon="3.25382">
        <ele>445.9</ele>
        <time>2024-03-21T13:50:05Z</time>
      </trkpt>
      <trkpt lat="43.65312" lon="3.25376">
        <ele>445</ele>
        <time>2024-03-21T13:50:06Z</time>
      </trkpt>
      <trkpt lat="43.65311" lon="3.2537">
        <ele>444.6</ele>
        <time>2024-03-21T13:50:07Z</time>
      </trkpt>
      <trkpt lat="43.6531" lon="3.25363">
        <ele>444.1</ele>
        <time>2024-03-21T13:50:08Z</time>
      </trkpt>
      <trkpt lat="43.6531" lon="3.25351">
        <ele>443.6</ele>
        <time>2024-03-21T13:50:10Z</time>
      </trkpt>
      <trkpt lat="43.65313" lon="3.2533">
        <ele>444.5</ele>
        <time>2024-03-21T13:50:13Z</time>
      </trkpt>
      <trkpt lat="43.65313" lon="3.25323">
        <ele>443.8</ele>
        <time>2024-03-21T13:50:14Z</time>
      </trkpt>
      <trkpt lat="43.65314" lon="3.25316">
        <ele>443.8</ele>
        <time>2024-03-21T13:50:15Z</time>
      </trkpt>
      <trkpt lat="43.65314" lon="3.2531">
        <ele>443.2</ele>
        <time>2024-03-21T13:50:16Z</time>
      </trkpt>
      <trkpt lat="43.65313" lon="3.25305">
        <ele>441.9</ele>
        <time>2024-03-21T13:50:17Z</time>
      </trkpt>
      <trkpt lat="43.65313" lon="3.253">
        <ele>442.3</ele>
        <time>2024-03-21T13:50:18Z</time>
      </trkpt>
      <trkpt lat="43.65311" lon="3.2529">
        <ele>441.6</ele>
        <time>2024-03-21T13:50:20Z</time>
      </trkpt>
      <trkpt lat="43.65306" lon="3.2526">
        <ele>439.9</ele>
        <time>2024-03-21T13:50:25Z</time>
      </trkpt>
      <trkpt lat="43.65305" lon="3.25253">
        <ele>439.7</ele>
        <time>2024-03-21T13:50:26Z</time>
      </trkpt>
      <trkpt lat="43.65304" lon="3.25248">
        <ele>439.5</ele>
        <time>2024-03-21T13:50:27Z</time>
      </trkpt>
      <trkpt lat="43.65303" lon="3.25241">
        <ele>438.9</ele>
        <time>2024-03-21T13:50:28Z</time>
      </trkpt>
      <trkpt lat="43.65303" lon="3.25234">
        <ele>438.6</ele>
        <time>2024-03-21T13:50:29Z</time>
      </trkpt>
      <trkpt lat="43.65302" lon="3.25227">
        <ele>438</ele>
        <time>2024-03-21T13:50:30Z</time>
      </trkpt>
      <trkpt lat="43.65303" lon="3.2522">
        <ele>438.1</ele>
        <time>2024-03-21T13:50:31Z</time>
      </trkpt>
      <trkpt lat="43.65303" lon="3.25213">
        <ele>437.8</ele>
        <time>2024-03-21T13:50:32Z</time>
      </trkpt>
      <trkpt lat="43.65309" lon="3.25192">
        <ele>438.4</ele>
        <time>2024-03-21T13:50:35Z</time>
      </trkpt>
      <trkpt lat="43.65315" lon="3.2518">
        <ele>438.1</ele>
        <time>2024-03-21T13:50:37Z</time>
      </trkpt>
      <trkpt lat="43.65319" lon="3.25174">
        <ele>438.3</ele>
        <time>2024-03-21T13:50:38Z</time>
      </trkpt>
      <trkpt lat="43.65323" lon="3.25169">
        <ele>438.7</ele>
        <time>2024-03-21T13:50:39Z</time>
      </trkpt>
      <trkpt lat="43.65329" lon="3.25157">
        <ele>438.4</ele>
        <time>2024-03-21T13:50:41Z</time>
      </trkpt>
      <trkpt lat="43.65331" lon="3.2515">
        <ele>437.9</ele>
        <time>2024-03-21T13:50:42Z</time>
      </trkpt>
      <trkpt lat="43.65333" lon="3.25142">
        <ele>437.3</ele>
        <time>2024-03-21T13:50:43Z</time>
      </trkpt>
      <trkpt lat="43.65334" lon="3.25134">
        <ele>437.3</ele>
        <time>2024-03-21T13:50:44Z</time>
      </trkpt>
      <trkpt lat="43.65334" lon="3.25111">
        <ele>437.3</ele>
        <time>2024-03-21T13:50:47Z</time>
      </trkpt>
      <trkpt lat="43.65333" lon="3.25104">
        <ele>436.9</ele>
        <time>2024-03-21T13:50:48Z</time>
      </trkpt>
      <trkpt lat="43.65333" lon="3.25072">
        <ele>436.5</ele>
        <time>2024-03-21T13:50:52Z</time>
      </trkpt>
      <trkpt lat="43.65336" lon="3.25051">
        <ele>436.7</ele>
        <time>2024-03-21T13:50:55Z</time>
      </trkpt>
      <trkpt lat="43.65338" lon="3.25044">
        <ele>437</ele>
        <time>2024-03-21T13:50:56Z</time>
      </trkpt>
      <trkpt lat="43.6534" lon="3.25038">
        <ele>437.4</ele>
        <time>2024-03-21T13:50:57Z</time>
      </trkpt>
      <trkpt lat="43.65343" lon="3.25031">
        <ele>438.1</ele>
        <time>2024-03-21T13:50:58Z</time>
      </trkpt>
      <trkpt lat="43.65346" lon="3.25025">
        <ele>438.3</ele>
        <time>2024-03-21T13:50:59Z</time>
      </trkpt>
      <trkpt lat="43.6535" lon="3.25013">
        <ele>437</ele>
        <time>2024-03-21T13:51:01Z</time>
      </trkpt>
      <trkpt lat="43.65351" lon="3.25007">
        <ele>436</ele>
        <time>2024-03-21T13:51:02Z</time>
      </trkpt>
      <trkpt lat="43.65351" lon="3.24995">
        <ele>435.1</ele>
        <time>2024-03-21T13:51:06Z</time>
      </trkpt>
      <trkpt lat="43.6535" lon="3.24993">
        <ele>435.1</ele>
        <time>2024-03-21T13:51:07Z</time>
      </trkpt>
      <trkpt lat="43.6535" lon="3.2499">
        <ele>435.6</ele>
        <time>2024-03-21T13:51:08Z</time>
      </trkpt>
      <trkpt lat="43.65349" lon="3.24988">
        <ele>435.6</ele>
        <time>2024-03-21T13:51:09Z</time>
      </trkpt>
      <trkpt lat="43.65345" lon="3.24982">
        <ele>435.3</ele>
        <time>2024-03-21T13:51:11Z</time>
      </trkpt>
      <trkpt lat="43.65341" lon="3.24978">
        <ele>434.8</ele>
        <time>2024-03-21T13:51:13Z</time>
      </trkpt>
      <trkpt lat="43.65337" lon="3.24976">
        <ele>434.1</ele>
        <time>2024-03-21T13:51:15Z</time>
      </trkpt>
      <trkpt lat="43.65322" lon="3.24966">
        <ele>433.7</ele>
        <time>2024-03-21T13:51:20Z</time>
      </trkpt>
      <trkpt lat="43.65318" lon="3.24964">
        <ele>433.5</ele>
        <time>2024-03-21T13:51:21Z</time>
      </trkpt>
      <trkpt lat="43.65315" lon="3.24961">
        <ele>433.7</ele>
        <time>2024-03-21T13:51:22Z</time>
      </trkpt>
      <trkpt lat="43.653" lon="3.24955">
        <ele>431.5</ele>
        <time>2024-03-21T13:51:25Z</time>
      </trkpt>
      <trkpt lat="43.65296" lon="3.24953">
        <ele>431.2</ele>
        <time>2024-03-21T13:51:26Z</time>
      </trkpt>
      <trkpt lat="43.65293" lon="3.24951">
        <ele>431.2</ele>
        <time>2024-03-21T13:51:27Z</time>
      </trkpt>
      <trkpt lat="43.65291" lon="3.2495">
        <ele>431.2</ele>
        <time>2024-03-21T13:51:28Z</time>
      </trkpt>
      <trkpt lat="43.65287" lon="3.2495">
        <ele>430.3</ele>
        <time>2024-03-21T13:51:31Z</time>
      </trkpt>
      <trkpt lat="43.65288" lon="3.24949">
        <ele>430.9</ele>
        <time>2024-03-21T13:51:39Z</time>
      </trkpt>
      <trkpt lat="43.65282" lon="3.24949">
        <ele>429.6</ele>
        <time>2024-03-21T13:51:42Z</time>
      </trkpt>
      <trkpt lat="43.65278" lon="3.24947">
        <ele>429.8</ele>
        <time>2024-03-21T13:51:43Z</time>
      </trkpt>
      <trkpt lat="43.65273" lon="3.24944">
        <ele>429.9</ele>
        <time>2024-03-21T13:51:44Z</time>
      </trkpt>
      <trkpt lat="43.65268" lon="3.24939">
        <ele>429.8</ele>
        <time>2024-03-21T13:51:45Z</time>
      </trkpt>
      <trkpt lat="43.65262" lon="3.24935">
        <ele>429</ele>
        <time>2024-03-21T13:51:46Z</time>
      </trkpt>
      <trkpt lat="43.65256" lon="3.2493">
        <ele>428</ele>
        <time>2024-03-21T13:51:47Z</time>
      </trkpt>
      <trkpt lat="43.65251" lon="3.24927">
        <ele>426.9</ele>
        <time>2024-03-21T13:51:48Z</time>
      </trkpt>
      <trkpt lat="43.65247" lon="3.24924">
        <ele>425.8</ele>
        <time>2024-03-21T13:51:49Z</time>
      </trkpt>
      <trkpt lat="43.65242" lon="3.24921">
        <ele>424.2</ele>
        <time>2024-03-21T13:51:50Z</time>
      </trkpt>
      <trkpt lat="43.65239" lon="3.24917">
        <ele>423.6</ele>
        <time>2024-03-21T13:51:51Z</time>
      </trkpt>
      <trkpt lat="43.65235" lon="3.24911">
        <ele>423</ele>
        <time>2024-03-21T13:51:52Z</time>
      </trkpt>
      <trkpt lat="43.65232" lon="3.24905">
        <ele>422.7</ele>
        <time>2024-03-21T13:51:53Z</time>
      </trkpt>
      <trkpt lat="43.65228" lon="3.24899">
        <ele>422</ele>
        <time>2024-03-21T13:51:54Z</time>
      </trkpt>
      <trkpt lat="43.65223" lon="3.24894">
        <ele>420.6</ele>
        <time>2024-03-21T13:51:55Z</time>
      </trkpt>
      <trkpt lat="43.6522" lon="3.24889">
        <ele>420.3</ele>
        <time>2024-03-21T13:51:56Z</time>
      </trkpt>
      <trkpt lat="43.65215" lon="3.24887">
        <ele>418.9</ele>
        <time>2024-03-21T13:51:57Z</time>
      </trkpt>
      <trkpt lat="43.65211" lon="3.24885">
        <ele>417.9</ele>
        <time>2024-03-21T13:51:58Z</time>
      </trkpt>
      <trkpt lat="43.65208" lon="3.24884">
        <ele>417</ele>
        <time>2024-03-21T13:51:59Z</time>
      </trkpt>
      <trkpt lat="43.65205" lon="3.24884">
        <ele>416</ele>
        <time>2024-03-21T13:52:00Z</time>
      </trkpt>
      <trkpt lat="43.65201" lon="3.24883">
        <ele>414.8</ele>
        <time>2024-03-21T13:52:01Z</time>
      </trkpt>
      <trkpt lat="43.65199" lon="3.24882">
        <ele>414.3</ele>
        <time>2024-03-21T13:52:02Z</time>
      </trkpt>
      <trkpt lat="43.65196" lon="3.24882">
        <ele>413.3</ele>
        <time>2024-03-21T13:52:03Z</time>
      </trkpt>
      <trkpt lat="43.65193" lon="3.24883">
        <ele>412.4</ele>
        <time>2024-03-21T13:52:04Z</time>
      </trkpt>
      <trkpt lat="43.65186" lon="3.2489">
        <ele>410.3</ele>
        <time>2024-03-21T13:52:06Z</time>
      </trkpt>
      <trkpt lat="43.65183" lon="3.24892">
        <ele>409.5</ele>
        <time>2024-03-21T13:52:07Z</time>
      </trkpt>
      <trkpt lat="43.65179" lon="3.24893">
        <ele>408.6</ele>
        <time>2024-03-21T13:52:08Z</time>
      </trkpt>
      <trkpt lat="43.65177" lon="3.24893">
        <ele>408.3</ele>
        <time>2024-03-21T13:52:09Z</time>
      </trkpt>
      <trkpt lat="43.65175" lon="3.24892">
        <ele>408.1</ele>
        <time>2024-03-21T13:52:10Z</time>
      </trkpt>
      <trkpt lat="43.65167" lon="3.24892">
        <ele>406.6</ele>
        <time>2024-03-21T13:52:13Z</time>
      </trkpt>
      <trkpt lat="43.65163" lon="3.24893">
        <ele>405.9</ele>
        <time>2024-03-21T13:52:14Z</time>
      </trkpt>
      <trkpt lat="43.65157" lon="3.24894">
        <ele>404.8</ele>
        <time>2024-03-21T13:52:15Z</time>
      </trkpt>
      <trkpt lat="43.65151" lon="3.24896">
        <ele>403.6</ele>
        <time>2024-03-21T13:52:16Z</time>
      </trkpt>
      <trkpt lat="43.65145" lon="3.24897">
        <ele>402.5</ele>
        <time>2024-03-21T13:52:17Z</time>
      </trkpt>
      <trkpt lat="43.6514" lon="3.24896">
        <ele>401.9</ele>
        <time>2024-03-21T13:52:18Z</time>
      </trkpt>
      <trkpt lat="43.65134" lon="3.24894">
        <ele>400.8</ele>
        <time>2024-03-21T13:52:19Z</time>
      </trkpt>
      <trkpt lat="43.65129" lon="3.24891">
        <ele>400.1</ele>
        <time>2024-03-21T13:52:20Z</time>
      </trkpt>
      <trkpt lat="43.65125" lon="3.24889">
        <ele>399.5</ele>
        <time>2024-03-21T13:52:21Z</time>
      </trkpt>
      <trkpt lat="43.65122" lon="3.2489">
        <ele>398.5</ele>
        <time>2024-03-21T13:52:22Z</time>
      </trkpt>
      <trkpt lat="43.65117" lon="3.2489">
        <ele>397.3</ele>
        <time>2024-03-21T13:52:24Z</time>
      </trkpt>
      <trkpt lat="43.65115" lon="3.24889">
        <ele>397</ele>
        <time>2024-03-21T13:52:25Z</time>
      </trkpt>
      <trkpt lat="43.65105" lon="3.24889">
        <ele>394.4</ele>
        <time>2024-03-21T13:52:29Z</time>
      </trkpt>
      <trkpt lat="43.65102" lon="3.24887">
        <ele>394</ele>
        <time>2024-03-21T13:52:30Z</time>
      </trkpt>
      <trkpt lat="43.65099" lon="3.24886">
        <ele>393.3</ele>
        <time>2024-03-21T13:52:31Z</time>
      </trkpt>
      <trkpt lat="43.65097" lon="3.24885">
        <ele>392.9</ele>
        <time>2024-03-21T13:52:32Z</time>
      </trkpt>
      <trkpt lat="43.65091" lon="3.24883">
        <ele>391.6</ele>
        <time>2024-03-21T13:52:34Z</time>
      </trkpt>
      <trkpt lat="43.65088" lon="3.24883">
        <ele>390.8</ele>
        <time>2024-03-21T13:52:35Z</time>
      </trkpt>
      <trkpt lat="43.65084" lon="3.24882">
        <ele>389.9</ele>
        <time>2024-03-21T13:52:36Z</time>
      </trkpt>
      <trkpt lat="43.65082" lon="3.24881">
        <ele>389.5</ele>
        <time>2024-03-21T13:52:37Z</time>
      </trkpt>
      <trkpt lat="43.65078" lon="3.24881">
        <ele>388.3</ele>
        <time>2024-03-21T13:52:39Z</time>
      </trkpt>
      <trkpt lat="43.65077" lon="3.24879">
        <ele>388.2</ele>
        <time>2024-03-21T13:52:40Z</time>
      </trkpt>
      <trkpt lat="43.65075" lon="3.24877">
        <ele>387.8</ele>
        <time>2024-03-21T13:52:41Z</time>
      </trkpt>
      <trkpt lat="43.65074" lon="3.24875">
        <ele>387.6</ele>
        <time>2024-03-21T13:52:42Z</time>
      </trkpt>
      <trkpt lat="43.65072" lon="3.24874">
        <ele>387.1</ele>
        <time>2024-03-21T13:52:43Z</time>
      </trkpt>
      <trkpt lat="43.65071" lon="3.24874">
        <ele>386.8</ele>
        <time>2024-03-21T13:52:44Z</time>
      </trkpt>
      <trkpt lat="43.65069" lon="3.24873">
        <ele>386.3</ele>
        <time>2024-03-21T13:52:45Z</time>
      </trkpt>
      <trkpt lat="43.65068" lon="3.24873">
        <ele>386</ele>
        <time>2024-03-21T13:52:46Z</time>
      </trkpt>
      <trkpt lat="43.65067" lon="3.24872">
        <ele>385.8</ele>
        <time>2024-03-21T13:52:47Z</time>
      </trkpt>
      <trkpt lat="43.65066" lon="3.24872">
        <ele>385.5</ele>
        <time>2024-03-21T13:52:48Z</time>
      </trkpt>
      <trkpt lat="43.65066" lon="3.24875">
        <ele>385.2</ele>
        <time>2024-03-21T13:52:50Z</time>
      </trkpt>
      <trkpt lat="43.65064" lon="3.24881">
        <ele>384.1</ele>
        <time>2024-03-21T13:52:52Z</time>
      </trkpt>
      <trkpt lat="43.65063" lon="3.24882">
        <ele>383.7</ele>
        <time>2024-03-21T13:53:16Z</time>
      </trkpt>
      <trkpt lat="43.65063" lon="3.24881">
        <ele>383.8</ele>
        <time>2024-03-21T13:53:17Z</time>
      </trkpt>
      <trkpt lat="43.65062" lon="3.24879">
        <ele>383.7</ele>
        <time>2024-03-21T13:53:18Z</time>
      </trkpt>
      <trkpt lat="43.65062" lon="3.24875">
        <ele>384</ele>
        <time>2024-03-21T13:53:22Z</time>
      </trkpt>
      <trkpt lat="43.6506" lon="3.24873">
        <ele>383.5</ele>
        <time>2024-03-21T13:53:26Z</time>
      </trkpt>
      <trkpt lat="43.65057" lon="3.24873">
        <ele>382.6</ele>
        <time>2024-03-21T13:53:42Z</time>
      </trkpt>
      <trkpt lat="43.65058" lon="3.24873">
        <ele>382.9</ele>
        <time>2024-03-21T13:53:50Z</time>
      </trkpt>
      <trkpt lat="43.65056" lon="3.24873">
        <ele>382.3</ele>
        <time>2024-03-21T13:53:58Z</time>
      </trkpt>
      <trkpt lat="43.65054" lon="3.24872">
        <ele>381.7</ele>
        <time>2024-03-21T13:53:59Z</time>
      </trkpt>
      <trkpt lat="43.65052" lon="3.2487">
        <ele>381.2</ele>
        <time>2024-03-21T13:54:00Z</time>
      </trkpt>
      <trkpt lat="43.6505" lon="3.24866">
        <ele>380.8</ele>
        <time>2024-03-21T13:54:01Z</time>
      </trkpt>
      <trkpt lat="43.65049" lon="3.24862">
        <ele>380.8</ele>
        <time>2024-03-21T13:54:02Z</time>
      </trkpt>
      <trkpt lat="43.65048" lon="3.24857">
        <ele>381</ele>
        <time>2024-03-21T13:54:03Z</time>
      </trkpt>
      <trkpt lat="43.65044" lon="3.24847">
        <ele>381</ele>
        <time>2024-03-21T13:54:05Z</time>
      </trkpt>
      <trkpt lat="43.65042" lon="3.24841">
        <ele>381.1</ele>
        <time>2024-03-21T13:54:06Z</time>
      </trkpt>
      <trkpt lat="43.65039" lon="3.24835">
        <ele>381</ele>
        <time>2024-03-21T13:54:07Z</time>
      </trkpt>
      <trkpt lat="43.65036" lon="3.24828">
        <ele>380.6</ele>
        <time>2024-03-21T13:54:08Z</time>
      </trkpt>
      <trkpt lat="43.65034" lon="3.24821">
        <ele>380.3</ele>
        <time>2024-03-21T13:54:09Z</time>
      </trkpt>
      <trkpt lat="43.65031" lon="3.24814">
        <ele>379.7</ele>
        <time>2024-03-21T13:54:10Z</time>
      </trkpt>
      <trkpt lat="43.65028" lon="3.24806">
        <ele>379.1</ele>
        <time>2024-03-21T13:54:11Z</time>
      </trkpt>
      <trkpt lat="43.65026" lon="3.24797">
        <ele>378</ele>
        <time>2024-03-21T13:54:12Z</time>
      </trkpt>
      <trkpt lat="43.65025" lon="3.24787">
        <ele>377.3</ele>
        <time>2024-03-21T13:54:13Z</time>
      </trkpt>
      <trkpt lat="43.65026" lon="3.24776">
        <ele>377.2</ele>
        <time>2024-03-21T13:54:14Z</time>
      </trkpt>
      <trkpt lat="43.65028" lon="3.24764">
        <ele>376.6</ele>
        <time>2024-03-21T13:54:15Z</time>
      </trkpt>
      <trkpt lat="43.65032" lon="3.24753">
        <ele>376.7</ele>
        <time>2024-03-21T13:54:16Z</time>
      </trkpt>
      <trkpt lat="43.65036" lon="3.24741">
        <ele>375.9</ele>
        <time>2024-03-21T13:54:17Z</time>
      </trkpt>
      <trkpt lat="43.65042" lon="3.24717">
        <ele>373.8</ele>
        <time>2024-03-21T13:54:19Z</time>
      </trkpt>
      <trkpt lat="43.65044" lon="3.24704">
        <ele>372.4</ele>
        <time>2024-03-21T13:54:20Z</time>
      </trkpt>
      <trkpt lat="43.65045" lon="3.24691">
        <ele>370.9</ele>
        <time>2024-03-21T13:54:21Z</time>
      </trkpt>
      <trkpt lat="43.65049" lon="3.24663">
        <ele>369.9</ele>
        <time>2024-03-21T13:54:23Z</time>
      </trkpt>
      <trkpt lat="43.65052" lon="3.24651">
        <ele>369.1</ele>
        <time>2024-03-21T13:54:24Z</time>
      </trkpt>
      <trkpt lat="43.65055" lon="3.24641">
        <ele>368.2</ele>
        <time>2024-03-21T13:54:25Z</time>
      </trkpt>
      <trkpt lat="43.65058" lon="3.24632">
        <ele>368.3</ele>
        <time>2024-03-21T13:54:26Z</time>
      </trkpt>
      <trkpt lat="43.65059" lon="3.24623">
        <ele>367.9</ele>
        <time>2024-03-21T13:54:27Z</time>
      </trkpt>
      <trkpt lat="43.65055" lon="3.24618">
        <ele>366.3</ele>
        <time>2024-03-21T13:54:28Z</time>
      </trkpt>
      <trkpt lat="43.6505" lon="3.24618">
        <ele>364.9</ele>
        <time>2024-03-21T13:54:29Z</time>
      </trkpt>
      <trkpt lat="43.65044" lon="3.24622">
        <ele>363.6</ele>
        <time>2024-03-21T13:54:30Z</time>
      </trkpt>
      <trkpt lat="43.6504" lon="3.24629">
        <ele>363.2</ele>
        <time>2024-03-21T13:54:31Z</time>
      </trkpt>
      <trkpt lat="43.65036" lon="3.24647">
        <ele>363.7</ele>
        <time>2024-03-21T13:54:33Z</time>
      </trkpt>
      <trkpt lat="43.65033" lon="3.24655">
        <ele>363.3</ele>
        <time>2024-03-21T13:54:34Z</time>
      </trkpt>
      <trkpt lat="43.65031" lon="3.24664">
        <ele>363.1</ele>
        <time>2024-03-21T13:54:35Z</time>
      </trkpt>
      <trkpt lat="43.65028" lon="3.24673">
        <ele>362.8</ele>
        <time>2024-03-21T13:54:36Z</time>
      </trkpt>
      <trkpt lat="43.65026" lon="3.24683">
        <ele>363.3</ele>
        <time>2024-03-21T13:54:37Z</time>
      </trkpt>
      <trkpt lat="43.65018" lon="3.24699">
        <ele>362.8</ele>
        <time>2024-03-21T13:54:39Z</time>
      </trkpt>
      <trkpt lat="43.65008" lon="3.24711">
        <ele>361.3</ele>
        <time>2024-03-21T13:54:41Z</time>
      </trkpt>
      <trkpt lat="43.65003" lon="3.24716">
        <ele>360.3</ele>
        <time>2024-03-21T13:54:42Z</time>
      </trkpt>
      <trkpt lat="43.64998" lon="3.24722">
        <ele>359.5</ele>
        <time>2024-03-21T13:54:43Z</time>
      </trkpt>
      <trkpt lat="43.64986" lon="3.24734">
        <ele>358.6</ele>
        <time>2024-03-21T13:54:45Z</time>
      </trkpt>
      <trkpt lat="43.64981" lon="3.2474">
        <ele>358.2</ele>
        <time>2024-03-21T13:54:46Z</time>
      </trkpt>
      <trkpt lat="43.64975" lon="3.24747">
        <ele>357.4</ele>
        <time>2024-03-21T13:54:47Z</time>
      </trkpt>
      <trkpt lat="43.64965" lon="3.24761">
        <ele>355.4</ele>
        <time>2024-03-21T13:54:49Z</time>
      </trkpt>
      <trkpt lat="43.6496" lon="3.2477">
        <ele>354.7</ele>
        <time>2024-03-21T13:54:50Z</time>
      </trkpt>
      <trkpt lat="43.64956" lon="3.24778">
        <ele>354.3</ele>
        <time>2024-03-21T13:54:51Z</time>
      </trkpt>
      <trkpt lat="43.64952" lon="3.24785">
        <ele>353.6</ele>
        <time>2024-03-21T13:54:52Z</time>
      </trkpt>
      <trkpt lat="43.64947" lon="3.24793">
        <ele>352.7</ele>
        <time>2024-03-21T13:54:53Z</time>
      </trkpt>
      <trkpt lat="43.64943" lon="3.248">
        <ele>352.1</ele>
        <time>2024-03-21T13:54:54Z</time>
      </trkpt>
      <trkpt lat="43.64938" lon="3.24807">
        <ele>351.2</ele>
        <time>2024-03-21T13:54:55Z</time>
      </trkpt>
      <trkpt lat="43.64934" lon="3.24814">
        <ele>350.1</ele>
        <time>2024-03-21T13:54:56Z</time>
      </trkpt>
      <trkpt lat="43.64931" lon="3.24822">
        <ele>349.4</ele>
        <time>2024-03-21T13:54:57Z</time>
      </trkpt>
      <trkpt lat="43.64928" lon="3.24829">
        <ele>348.8</ele>
        <time>2024-03-21T13:54:58Z</time>
      </trkpt>
      <trkpt lat="43.64927" lon="3.24837">
        <ele>348.4</ele>
        <time>2024-03-21T13:54:59Z</time>
      </trkpt>
      <trkpt lat="43.64927" lon="3.24845">
        <ele>347.9</ele>
        <time>2024-03-21T13:55:00Z</time>
      </trkpt>
      <trkpt lat="43.64928" lon="3.24852">
        <ele>347.8</ele>
        <time>2024-03-21T13:55:01Z</time>
      </trkpt>
      <trkpt lat="43.6493" lon="3.24859">
        <ele>348</ele>
        <time>2024-03-21T13:55:02Z</time>
      </trkpt>
      <trkpt lat="43.64933" lon="3.24865">
        <ele>347.6</ele>
        <time>2024-03-21T13:55:03Z</time>
      </trkpt>
      <trkpt lat="43.64937" lon="3.24871">
        <ele>347</ele>
        <time>2024-03-21T13:55:04Z</time>
      </trkpt>
      <trkpt lat="43.64942" lon="3.24876">
        <ele>347</ele>
        <time>2024-03-21T13:55:05Z</time>
      </trkpt>
      <trkpt lat="43.64947" lon="3.2488">
        <ele>347.4</ele>
        <time>2024-03-21T13:55:06Z</time>
      </trkpt>
      <trkpt lat="43.64953" lon="3.24884">
        <ele>348.3</ele>
        <time>2024-03-21T13:55:07Z</time>
      </trkpt>
      <trkpt lat="43.64958" lon="3.24888">
        <ele>349.1</ele>
        <time>2024-03-21T13:55:08Z</time>
      </trkpt>
      <trkpt lat="43.64962" lon="3.24895">
        <ele>349.4</ele>
        <time>2024-03-21T13:55:09Z</time>
      </trkpt>
      <trkpt lat="43.64964" lon="3.24904">
        <ele>348.7</ele>
        <time>2024-03-21T13:55:10Z</time>
      </trkpt>
      <trkpt lat="43.64962" lon="3.24912">
        <ele>346.7</ele>
        <time>2024-03-21T13:55:11Z</time>
      </trkpt>
      <trkpt lat="43.64959" lon="3.24919">
        <ele>344.6</ele>
        <time>2024-03-21T13:55:12Z</time>
      </trkpt>
      <trkpt lat="43.64958" lon="3.24927">
        <ele>343.6</ele>
        <time>2024-03-21T13:55:13Z</time>
      </trkpt>
      <trkpt lat="43.6496" lon="3.24934">
        <ele>343.8</ele>
        <time>2024-03-21T13:55:14Z</time>
      </trkpt>
      <trkpt lat="43.64964" lon="3.2494">
        <ele>344.4</ele>
        <time>2024-03-21T13:55:15Z</time>
      </trkpt>
      <trkpt lat="43.64967" lon="3.24944">
        <ele>344.7</ele>
        <time>2024-03-21T13:55:16Z</time>
      </trkpt>
      <trkpt lat="43.64968" lon="3.2495">
        <ele>344.5</ele>
        <time>2024-03-21T13:55:17Z</time>
      </trkpt>
      <trkpt lat="43.64968" lon="3.24956">
        <ele>344</ele>
        <time>2024-03-21T13:55:18Z</time>
      </trkpt>
      <trkpt lat="43.64966" lon="3.24961">
        <ele>343</ele>
        <time>2024-03-21T13:55:19Z</time>
      </trkpt>
      <trkpt lat="43.64962" lon="3.24962">
        <ele>341.7</ele>
        <time>2024-03-21T13:55:20Z</time>
      </trkpt>
      <trkpt lat="43.64959" lon="3.2496">
        <ele>341</ele>
        <time>2024-03-21T13:55:21Z</time>
      </trkpt>
      <trkpt lat="43.64955" lon="3.24957">
        <ele>340.2</ele>
        <time>2024-03-21T13:55:22Z</time>
      </trkpt>
      <trkpt lat="43.6495" lon="3.24953">
        <ele>339.3</ele>
        <time>2024-03-21T13:55:23Z</time>
      </trkpt>
      <trkpt lat="43.64945" lon="3.24947">
        <ele>338.8</ele>
        <time>2024-03-21T13:55:24Z</time>
      </trkpt>
      <trkpt lat="43.64942" lon="3.24941">
        <ele>338.4</ele>
        <time>2024-03-21T13:55:25Z</time>
      </trkpt>
      <trkpt lat="43.64941" lon="3.24934">
        <ele>338.2</ele>
        <time>2024-03-21T13:55:26Z</time>
      </trkpt>
      <trkpt lat="43.64941" lon="3.24921">
        <ele>338.3</ele>
        <time>2024-03-21T13:55:28Z</time>
      </trkpt>
      <trkpt lat="43.6494" lon="3.24916">
        <ele>338.3</ele>
        <time>2024-03-21T13:55:29Z</time>
      </trkpt>
      <trkpt lat="43.64939" lon="3.24912">
        <ele>338.8</ele>
        <time>2024-03-21T13:55:30Z</time>
      </trkpt>
      <trkpt lat="43.64936" lon="3.24908">
        <ele>338.8</ele>
        <time>2024-03-21T13:55:31Z</time>
      </trkpt>
      <trkpt lat="43.64933" lon="3.24905">
        <ele>338.5</ele>
        <time>2024-03-21T13:55:32Z</time>
      </trkpt>
      <trkpt lat="43.6493" lon="3.24903">
        <ele>338.1</ele>
        <time>2024-03-21T13:55:33Z</time>
      </trkpt>
      <trkpt lat="43.64924" lon="3.24901">
        <ele>336.9</ele>
        <time>2024-03-21T13:55:35Z</time>
      </trkpt>
      <trkpt lat="43.64922" lon="3.249">
        <ele>336.5</ele>
        <time>2024-03-21T13:55:36Z</time>
      </trkpt>
      <trkpt lat="43.64919" lon="3.24899">
        <ele>335.9</ele>
        <time>2024-03-21T13:55:37Z</time>
      </trkpt>
      <trkpt lat="43.64916" lon="3.24897">
        <ele>335.3</ele>
        <time>2024-03-21T13:55:38Z</time>
      </trkpt>
      <trkpt lat="43.64908" lon="3.24893">
        <ele>334.1</ele>
        <time>2024-03-21T13:55:40Z</time>
      </trkpt>
      <trkpt lat="43.64903" lon="3.24892">
        <ele>333.3</ele>
        <time>2024-03-21T13:55:41Z</time>
      </trkpt>
      <trkpt lat="43.64898" lon="3.2489">
        <ele>332.5</ele>
        <time>2024-03-21T13:55:42Z</time>
      </trkpt>
      <trkpt lat="43.64893" lon="3.24886">
        <ele>332.3</ele>
        <time>2024-03-21T13:55:43Z</time>
      </trkpt>
      <trkpt lat="43.64884" lon="3.24877">
        <ele>332.2</ele>
        <time>2024-03-21T13:55:45Z</time>
      </trkpt>
      <trkpt lat="43.6488" lon="3.24875">
        <ele>331.7</ele>
        <time>2024-03-21T13:55:46Z</time>
      </trkpt>
      <trkpt lat="43.64874" lon="3.24869">
        <ele>331.3</ele>
        <time>2024-03-21T13:55:48Z</time>
      </trkpt>
      <trkpt lat="43.6487" lon="3.24866">
        <ele>330.7</ele>
        <time>2024-03-21T13:55:49Z</time>
      </trkpt>
      <trkpt lat="43.64866" lon="3.24864">
        <ele>330</ele>
        <time>2024-03-21T13:55:50Z</time>
      </trkpt>
      <trkpt lat="43.64863" lon="3.24862">
        <ele>329.4</ele>
        <time>2024-03-21T13:55:51Z</time>
      </trkpt>
      <trkpt lat="43.64861" lon="3.24859">
        <ele>329</ele>
        <time>2024-03-21T13:55:52Z</time>
      </trkpt>
      <trkpt lat="43.64859" lon="3.24855">
        <ele>328.7</ele>
        <time>2024-03-21T13:55:53Z</time>
      </trkpt>
      <trkpt lat="43.64859" lon="3.24846">
        <ele>328.7</ele>
        <time>2024-03-21T13:55:55Z</time>
      </trkpt>
      <trkpt lat="43.6486" lon="3.24839">
        <ele>328.8</ele>
        <time>2024-03-21T13:55:56Z</time>
      </trkpt>
      <trkpt lat="43.6486" lon="3.24831">
        <ele>328.5</ele>
        <time>2024-03-21T13:55:57Z</time>
      </trkpt>
      <trkpt lat="43.64862" lon="3.24823">
        <ele>327.8</ele>
        <time>2024-03-21T13:55:58Z</time>
      </trkpt>
      <trkpt lat="43.64863" lon="3.24816">
        <ele>327.1</ele>
        <time>2024-03-21T13:55:59Z</time>
      </trkpt>
      <trkpt lat="43.64869" lon="3.24802">
        <ele>326.2</ele>
        <time>2024-03-21T13:56:01Z</time>
      </trkpt>
      <trkpt lat="43.64871" lon="3.24794">
        <ele>325.3</ele>
        <time>2024-03-21T13:56:02Z</time>
      </trkpt>
      <trkpt lat="43.64877" lon="3.2478">
        <ele>324.2</ele>
        <time>2024-03-21T13:56:04Z</time>
      </trkpt>
      <trkpt lat="43.64879" lon="3.24772">
        <ele>323.6</ele>
        <time>2024-03-21T13:56:05Z</time>
      </trkpt>
      <trkpt lat="43.6488" lon="3.24765">
        <ele>323</ele>
        <time>2024-03-21T13:56:06Z</time>
      </trkpt>
      <trkpt lat="43.64882" lon="3.24757">
        <ele>322.7</ele>
        <time>2024-03-21T13:56:07Z</time>
      </trkpt>
      <trkpt lat="43.64884" lon="3.2475">
        <ele>322.6</ele>
        <time>2024-03-21T13:56:08Z</time>
      </trkpt>
      <trkpt lat="43.64886" lon="3.24742">
        <ele>322.8</ele>
        <time>2024-03-21T13:56:09Z</time>
      </trkpt>
      <trkpt lat="43.64887" lon="3.24735">
        <ele>322.8</ele>
        <time>2024-03-21T13:56:10Z</time>
      </trkpt>
      <trkpt lat="43.64887" lon="3.24727">
        <ele>322.5</ele>
        <time>2024-03-21T13:56:11Z</time>
      </trkpt>
      <trkpt lat="43.64888" lon="3.24721">
        <ele>322.4</ele>
        <time>2024-03-21T13:56:12Z</time>
      </trkpt>
      <trkpt lat="43.64888" lon="3.24715">
        <ele>321.1</ele>
        <time>2024-03-21T13:56:13Z</time>
      </trkpt>
      <trkpt lat="43.64889" lon="3.24711">
        <ele>320.6</ele>
        <time>2024-03-21T13:56:14Z</time>
      </trkpt>
      <trkpt lat="43.64889" lon="3.24707">
        <ele>319.7</ele>
        <time>2024-03-21T13:56:15Z</time>
      </trkpt>
      <trkpt lat="43.64891" lon="3.24702">
        <ele>319.1</ele>
        <time>2024-03-21T13:56:16Z</time>
      </trkpt>
      <trkpt lat="43.64893" lon="3.24696">
        <ele>318.4</ele>
        <time>2024-03-21T13:56:17Z</time>
      </trkpt>
      <trkpt lat="43.64896" lon="3.2469">
        <ele>318.2</ele>
        <time>2024-03-21T13:56:18Z</time>
      </trkpt>
      <trkpt lat="43.649" lon="3.24684">
        <ele>318.6</ele>
        <time>2024-03-21T13:56:19Z</time>
      </trkpt>
      <trkpt lat="43.64904" lon="3.24677">
        <ele>319</ele>
        <time>2024-03-21T13:56:20Z</time>
      </trkpt>
      <trkpt lat="43.64905" lon="3.24671">
        <ele>318.7</ele>
        <time>2024-03-21T13:56:21Z</time>
      </trkpt>
      <trkpt lat="43.64905" lon="3.24664">
        <ele>318.3</ele>
        <time>2024-03-21T13:56:22Z</time>
      </trkpt>
      <trkpt lat="43.64903" lon="3.24656">
        <ele>317.8</ele>
        <time>2024-03-21T13:56:23Z</time>
      </trkpt>
      <trkpt lat="43.649" lon="3.2465">
        <ele>316.7</ele>
        <time>2024-03-21T13:56:24Z</time>
      </trkpt>
      <trkpt lat="43.64898" lon="3.24643">
        <ele>315.9</ele>
        <time>2024-03-21T13:56:25Z</time>
      </trkpt>
      <trkpt lat="43.64897" lon="3.24636">
        <ele>315.5</ele>
        <time>2024-03-21T13:56:26Z</time>
      </trkpt>
      <trkpt lat="43.64895" lon="3.2463">
        <ele>314.6</ele>
        <time>2024-03-21T13:56:27Z</time>
      </trkpt>
      <trkpt lat="43.64893" lon="3.24623">
        <ele>313.7</ele>
        <time>2024-03-21T13:56:28Z</time>
      </trkpt>
      <trkpt lat="43.6489" lon="3.24616">
        <ele>312.4</ele>
        <time>2024-03-21T13:56:29Z</time>
      </trkpt>
      <trkpt lat="43.64887" lon="3.24608">
        <ele>311.2</ele>
        <time>2024-03-21T13:56:30Z</time>
      </trkpt>
      <trkpt lat="43.64885" lon="3.24599">
        <ele>310.1</ele>
        <time>2024-03-21T13:56:31Z</time>
      </trkpt>
      <trkpt lat="43.64885" lon="3.24568">
        <ele>308.9</ele>
        <time>2024-03-21T13:56:35Z</time>
      </trkpt>
      <trkpt lat="43.64886" lon="3.24565">
        <ele>309</ele>
        <time>2024-03-21T13:56:36Z</time>
      </trkpt>
      <trkpt lat="43.64886" lon="3.24555">
        <ele>308.4</ele>
        <time>2024-03-21T13:56:39Z</time>
      </trkpt>
      <trkpt lat="43.64885" lon="3.24552">
        <ele>308.1</ele>
        <time>2024-03-21T13:56:40Z</time>
      </trkpt>
      <trkpt lat="43.64885" lon="3.24548">
        <ele>307.8</ele>
        <time>2024-03-21T13:56:41Z</time>
      </trkpt>
      <trkpt lat="43.64884" lon="3.24543">
        <ele>307.3</ele>
        <time>2024-03-21T13:56:42Z</time>
      </trkpt>
      <trkpt lat="43.64882" lon="3.24539">
        <ele>306.7</ele>
        <time>2024-03-21T13:56:43Z</time>
      </trkpt>
      <trkpt lat="43.64881" lon="3.24536">
        <ele>306.4</ele>
        <time>2024-03-21T13:56:44Z</time>
      </trkpt>
      <trkpt lat="43.64879" lon="3.24533">
        <ele>305.9</ele>
        <time>2024-03-21T13:56:45Z</time>
      </trkpt>
      <trkpt lat="43.64874" lon="3.24528">
        <ele>304.9</ele>
        <time>2024-03-21T13:56:47Z</time>
      </trkpt>
      <trkpt lat="43.64871" lon="3.24528">
        <ele>304.4</ele>
        <time>2024-03-21T13:56:48Z</time>
      </trkpt>
      <trkpt lat="43.64867" lon="3.24526">
        <ele>303.7</ele>
        <time>2024-03-21T13:56:50Z</time>
      </trkpt>
      <trkpt lat="43.64865" lon="3.24524">
        <ele>303.2</ele>
        <time>2024-03-21T13:56:51Z</time>
      </trkpt>
      <trkpt lat="43.64864" lon="3.24516">
        <ele>302.4</ele>
        <time>2024-03-21T13:57:41Z</time>
      </trkpt>
      <trkpt lat="43.64865" lon="3.24512">
        <ele>302.2</ele>
        <time>2024-03-21T13:57:42Z</time>
      </trkpt>
      <trkpt lat="43.64864" lon="3.24509">
        <ele>301.9</ele>
        <time>2024-03-21T13:57:43Z</time>
      </trkpt>
      <trkpt lat="43.64865" lon="3.24506">
        <ele>301.7</ele>
        <time>2024-03-21T13:57:44Z</time>
      </trkpt>
      <trkpt lat="43.64865" lon="3.24503">
        <ele>301.4</ele>
        <time>2024-03-21T13:57:45Z</time>
      </trkpt>
      <trkpt lat="43.64867" lon="3.24497">
        <ele>300.3</ele>
        <time>2024-03-21T13:57:47Z</time>
      </trkpt>
      <trkpt lat="43.64867" lon="3.24495">
        <ele>299.8</ele>
        <time>2024-03-21T13:57:48Z</time>
      </trkpt>
      <trkpt lat="43.64868" lon="3.24492">
        <ele>298.9</ele>
        <time>2024-03-21T13:57:49Z</time>
      </trkpt>
      <trkpt lat="43.64868" lon="3.24487">
        <ele>297.5</ele>
        <time>2024-03-21T13:57:51Z</time>
      </trkpt>
      <trkpt lat="43.6487" lon="3.24483">
        <ele>296.4</ele>
        <time>2024-03-21T13:57:53Z</time>
      </trkpt>
      <trkpt lat="43.64871" lon="3.2448">
        <ele>295.6</ele>
        <time>2024-03-21T13:57:54Z</time>
      </trkpt>
      <trkpt lat="43.64872" lon="3.24478">
        <ele>295.1</ele>
        <time>2024-03-21T13:57:55Z</time>
      </trkpt>
      <trkpt lat="43.64874" lon="3.24476">
        <ele>294.6</ele>
        <time>2024-03-21T13:57:56Z</time>
      </trkpt>
      <trkpt lat="43.64877" lon="3.24475">
        <ele>294.4</ele>
        <time>2024-03-21T13:57:57Z</time>
      </trkpt>
      <trkpt lat="43.64879" lon="3.24474">
        <ele>294.2</ele>
        <time>2024-03-21T13:57:58Z</time>
      </trkpt>
      <trkpt lat="43.64881" lon="3.24472">
        <ele>293.7</ele>
        <time>2024-03-21T13:57:59Z</time>
      </trkpt>
      <trkpt lat="43.64882" lon="3.24469">
        <ele>293</ele>
        <time>2024-03-21T13:58:00Z</time>
      </trkpt>
      <trkpt lat="43.64883" lon="3.24467">
        <ele>292.6</ele>
        <time>2024-03-21T13:58:01Z</time>
      </trkpt>
      <trkpt lat="43.64883" lon="3.24465">
        <ele>292.1</ele>
        <time>2024-03-21T13:58:02Z</time>
      </trkpt>
      <trkpt lat="43.64888" lon="3.24455">
        <ele>290.2</ele>
        <time>2024-03-21T13:58:08Z</time>
      </trkpt>
      <trkpt lat="43.6489" lon="3.24453">
        <ele>290</ele>
        <time>2024-03-21T13:58:11Z</time>
      </trkpt>
      <trkpt lat="43.6489" lon="3.24452">
        <ele>289.8</ele>
        <time>2024-03-21T13:58:13Z</time>
      </trkpt>
      <trkpt lat="43.64891" lon="3.24452">
        <ele>289.9</ele>
        <time>2024-03-21T13:58:15Z</time>
      </trkpt>
      <trkpt lat="43.64892" lon="3.24451">
        <ele>289.8</ele>
        <time>2024-03-21T13:58:17Z</time>
      </trkpt>
      <trkpt lat="43.64893" lon="3.24452">
        <ele>290.1</ele>
        <time>2024-03-21T13:58:21Z</time>
      </trkpt>
      <trkpt lat="43.64894" lon="3.24452">
        <ele>290.2</ele>
        <time>2024-03-21T13:58:23Z</time>
      </trkpt>
      <trkpt lat="43.64896" lon="3.24451">
        <ele>290.3</ele>
        <time>2024-03-21T13:58:25Z</time>
      </trkpt>
      <trkpt lat="43.64898" lon="3.24449">
        <ele>290.2</ele>
        <time>2024-03-21T13:58:28Z</time>
      </trkpt>
      <trkpt lat="43.64898" lon="3.24444">
        <ele>289.6</ele>
        <time>2024-03-21T13:58:32Z</time>
      </trkpt>
      <trkpt lat="43.64897" lon="3.24441">
        <ele>289.4</ele>
        <time>2024-03-21T13:58:33Z</time>
      </trkpt>
      <trkpt lat="43.64895" lon="3.24439">
        <ele>289</ele>
        <time>2024-03-21T13:58:34Z</time>
      </trkpt>
      <trkpt lat="43.64893" lon="3.24436">
        <ele>288.5</ele>
        <time>2024-03-21T13:58:35Z</time>
      </trkpt>
      <trkpt lat="43.64891" lon="3.24434">
        <ele>288.1</ele>
        <time>2024-03-21T13:58:36Z</time>
      </trkpt>
      <trkpt lat="43.64889" lon="3.24433">
        <ele>287.6</ele>
        <time>2024-03-21T13:58:37Z</time>
      </trkpt>
      <trkpt lat="43.64887" lon="3.24427">
        <ele>287.1</ele>
        <time>2024-03-21T13:58:39Z</time>
      </trkpt>
      <trkpt lat="43.64887" lon="3.24426">
        <ele>287</ele>
        <time>2024-03-21T13:58:40Z</time>
      </trkpt>
      <trkpt lat="43.64886" lon="3.24427">
        <ele>286.9</ele>
        <time>2024-03-21T13:59:12Z</time>
      </trkpt>
      <trkpt lat="43.64887" lon="3.24427">
        <ele>287.1</ele>
        <time>2024-03-21T13:59:24Z</time>
      </trkpt>
      <trkpt lat="43.64886" lon="3.24427">
        <ele>286.9</ele>
        <time>2024-03-21T13:59:25Z</time>
      </trkpt>
      <trkpt lat="43.64887" lon="3.24427">
        <ele>287.1</ele>
        <time>2024-03-21T13:59:29Z</time>
      </trkpt>
      <trkpt lat="43.64887" lon="3.24426">
        <ele>287</ele>
        <time>2024-03-21T13:59:32Z</time>
      </trkpt>
      <trkpt lat="43.64886" lon="3.24425">
        <ele>286.8</ele>
        <time>2024-03-21T13:59:36Z</time>
      </trkpt>
      <trkpt lat="43.64885" lon="3.24426">
        <ele>286.7</ele>
        <time>2024-03-21T13:59:38Z</time>
      </trkpt>
      <trkpt lat="43.64884" lon="3.24425">
        <ele>286.5</ele>
        <time>2024-03-21T13:59:40Z</time>
      </trkpt>
      <trkpt lat="43.64885" lon="3.24425">
        <ele>286.7</ele>
        <time>2024-03-21T13:59:42Z</time>
      </trkpt>
      <trkpt lat="43.64884" lon="3.24425">
        <ele>286.5</ele>
        <time>2024-03-21T13:59:44Z</time>
      </trkpt>
      <trkpt lat="43.64884" lon="3.24424">
        <ele>286.5</ele>
        <time>2024-03-21T13:59:45Z</time>
      </trkpt>
      <trkpt lat="43.64875" lon="3.24421">
        <ele>284.8</ele>
        <time>2024-03-21T13:59:48Z</time>
      </trkpt>
      <trkpt lat="43.64873" lon="3.24418">
        <ele>284.2</ele>
        <time>2024-03-21T13:59:49Z</time>
      </trkpt>
      <trkpt lat="43.64871" lon="3.24416">
        <ele>283.8</ele>
        <time>2024-03-21T13:59:50Z</time>
      </trkpt>
      <trkpt lat="43.64869" lon="3.24412">
        <ele>283.4</ele>
        <time>2024-03-21T13:59:51Z</time>
      </trkpt>
      <trkpt lat="43.64868" lon="3.24408">
        <ele>283.1</ele>
        <time>2024-03-21T13:59:52Z</time>
      </trkpt>
      <trkpt lat="43.64867" lon="3.24405">
        <ele>282.8</ele>
        <time>2024-03-21T13:59:53Z</time>
      </trkpt>
      <trkpt lat="43.64865" lon="3.24404">
        <ele>282.2</ele>
        <time>2024-03-21T13:59:54Z</time>
      </trkpt>
      <trkpt lat="43.64865" lon="3.24403">
        <ele>282.1</ele>
        <time>2024-03-21T13:59:55Z</time>
      </trkpt>
      <trkpt lat="43.64864" lon="3.244">
        <ele>281.7</ele>
        <time>2024-03-21T13:59:56Z</time>
      </trkpt>
      <trkpt lat="43.64865" lon="3.24396">
        <ele>281.8</ele>
        <time>2024-03-21T13:59:57Z</time>
      </trkpt>
      <trkpt lat="43.64863" lon="3.2439">
        <ele>280.8</ele>
        <time>2024-03-21T13:59:59Z</time>
      </trkpt>
      <trkpt lat="43.64861" lon="3.24388">
        <ele>280.1</ele>
        <time>2024-03-21T14:00:00Z</time>
      </trkpt>
      <trkpt lat="43.64859" lon="3.24385">
        <ele>280.1</ele>
        <time>2024-03-21T14:00:01Z</time>
      </trkpt>
      <trkpt lat="43.64856" lon="3.24384">
        <ele>279.7</ele>
        <time>2024-03-21T14:00:02Z</time>
      </trkpt>
      <trkpt lat="43.64852" lon="3.24384">
        <ele>279</ele>
        <time>2024-03-21T14:00:04Z</time>
      </trkpt>
      <trkpt lat="43.64849" lon="3.24383">
        <ele>278.6</ele>
        <time>2024-03-21T14:00:05Z</time>
      </trkpt>
      <trkpt lat="43.64847" lon="3.24381">
        <ele>278.4</ele>
        <time>2024-03-21T14:00:06Z</time>
      </trkpt>
      <trkpt lat="43.64846" lon="3.24378">
        <ele>278.4</ele>
        <time>2024-03-21T14:00:07Z</time>
      </trkpt>
      <trkpt lat="43.64842" lon="3.24374">
        <ele>277.7</ele>
        <time>2024-03-21T14:00:22Z</time>
      </trkpt>
      <trkpt lat="43.64842" lon="3.24371">
        <ele>277.9</ele>
        <time>2024-03-21T14:00:23Z</time>
      </trkpt>
      <trkpt lat="43.64841" lon="3.24366">
        <ele>277.8</ele>
        <time>2024-03-21T14:00:24Z</time>
      </trkpt>
      <trkpt lat="43.64839" lon="3.24363">
        <ele>277.4</ele>
        <time>2024-03-21T14:00:25Z</time>
      </trkpt>
      <trkpt lat="43.64837" lon="3.24359">
        <ele>277.2</ele>
        <time>2024-03-21T14:00:26Z</time>
      </trkpt>
      <trkpt lat="43.64835" lon="3.24356">
        <ele>277.2</ele>
        <time>2024-03-21T14:00:27Z</time>
      </trkpt>
      <trkpt lat="43.64832" lon="3.24352">
        <ele>277.1</ele>
        <time>2024-03-21T14:00:28Z</time>
      </trkpt>
      <trkpt lat="43.6483" lon="3.24347">
        <ele>277.4</ele>
        <time>2024-03-21T14:00:29Z</time>
      </trkpt>
      <trkpt lat="43.64828" lon="3.24344">
        <ele>277.4</ele>
        <time>2024-03-21T14:00:30Z</time>
      </trkpt>
      <trkpt lat="43.64825" lon="3.24342">
        <ele>277</ele>
        <time>2024-03-21T14:00:31Z</time>
      </trkpt>
      <trkpt lat="43.64823" lon="3.24339">
        <ele>277</ele>
        <time>2024-03-21T14:00:32Z</time>
      </trkpt>
      <trkpt lat="43.64822" lon="3.24336">
        <ele>277.2</ele>
        <time>2024-03-21T14:00:33Z</time>
      </trkpt>
      <trkpt lat="43.64822" lon="3.24332">
        <ele>277.8</ele>
        <time>2024-03-21T14:00:34Z</time>
      </trkpt>
      <trkpt lat="43.64819" lon="3.24327">
        <ele>277.8</ele>
        <time>2024-03-21T14:00:35Z</time>
      </trkpt>
      <trkpt lat="43.64816" lon="3.24324">
        <ele>277.4</ele>
        <time>2024-03-21T14:00:36Z</time>
      </trkpt>
      <trkpt lat="43.64814" lon="3.24321">
        <ele>277.3</ele>
        <time>2024-03-21T14:00:37Z</time>
      </trkpt>
      <trkpt lat="43.64812" lon="3.24317">
        <ele>277.1</ele>
        <time>2024-03-21T14:00:38Z</time>
      </trkpt>
      <trkpt lat="43.64811" lon="3.24312">
        <ele>277.3</ele>
        <time>2024-03-21T14:00:39Z</time>
      </trkpt>
      <trkpt lat="43.64808" lon="3.24308">
        <ele>276.7</ele>
        <time>2024-03-21T14:00:40Z</time>
      </trkpt>
      <trkpt lat="43.64806" lon="3.24305">
        <ele>276.3</ele>
        <time>2024-03-21T14:00:41Z</time>
      </trkpt>
      <trkpt lat="43.64805" lon="3.24302">
        <ele>276.5</ele>
        <time>2024-03-21T14:00:42Z</time>
      </trkpt>
      <trkpt lat="43.64803" lon="3.24298">
        <ele>276.7</ele>
        <time>2024-03-21T14:00:43Z</time>
      </trkpt>
      <trkpt lat="43.648" lon="3.24295">
        <ele>276.4</ele>
        <time>2024-03-21T14:00:44Z</time>
      </trkpt>
      <trkpt lat="43.64798" lon="3.24292">
        <ele>276.4</ele>
        <time>2024-03-21T14:00:45Z</time>
      </trkpt>
      <trkpt lat="43.64797" lon="3.24288">
        <ele>276.8</ele>
        <time>2024-03-21T14:00:46Z</time>
      </trkpt>
      <trkpt lat="43.64795" lon="3.24284">
        <ele>276.9</ele>
        <time>2024-03-21T14:00:47Z</time>
      </trkpt>
      <trkpt lat="43.64793" lon="3.24279">
        <ele>277.2</ele>
        <time>2024-03-21T14:00:48Z</time>
      </trkpt>
      <trkpt lat="43.64787" lon="3.24267">
        <ele>277.3</ele>
        <time>2024-03-21T14:00:51Z</time>
      </trkpt>
      <trkpt lat="43.64777" lon="3.24257">
        <ele>276.5</ele>
        <time>2024-03-21T14:00:55Z</time>
      </trkpt>
      <trkpt lat="43.64776" lon="3.24255">
        <ele>276.6</ele>
        <time>2024-03-21T14:00:56Z</time>
      </trkpt>
      <trkpt lat="43.64774" lon="3.24252">
        <ele>276.5</ele>
        <time>2024-03-21T14:00:57Z</time>
      </trkpt>
      <trkpt lat="43.64772" lon="3.24248">
        <ele>276.2</ele>
        <time>2024-03-21T14:00:59Z</time>
      </trkpt>
      <trkpt lat="43.6477" lon="3.24242">
        <ele>275.2</ele>
        <time>2024-03-21T14:01:01Z</time>
      </trkpt>
      <trkpt lat="43.6477" lon="3.24239">
        <ele>275</ele>
        <time>2024-03-21T14:01:02Z</time>
      </trkpt>
      <trkpt lat="43.64771" lon="3.24235">
        <ele>275.1</ele>
        <time>2024-03-21T14:01:03Z</time>
      </trkpt>
      <trkpt lat="43.64772" lon="3.24232">
        <ele>275.3</ele>
        <time>2024-03-21T14:01:04Z</time>
      </trkpt>
      <trkpt lat="43.64774" lon="3.24228">
        <ele>275.8</ele>
        <time>2024-03-21T14:01:05Z</time>
      </trkpt>
      <trkpt lat="43.64775" lon="3.24224">
        <ele>276</ele>
        <time>2024-03-21T14:01:06Z</time>
      </trkpt>
      <trkpt lat="43.64776" lon="3.24219">
        <ele>275.7</ele>
        <time>2024-03-21T14:01:07Z</time>
      </trkpt>
      <trkpt lat="43.64778" lon="3.24211">
        <ele>275</ele>
        <time>2024-03-21T14:01:09Z</time>
      </trkpt>
      <trkpt lat="43.64781" lon="3.24202">
        <ele>273.5</ele>
        <time>2024-03-21T14:01:12Z</time>
      </trkpt>
      <trkpt lat="43.64782" lon="3.242">
        <ele>273.1</ele>
        <time>2024-03-21T14:01:13Z</time>
      </trkpt>
      <trkpt lat="43.64782" lon="3.24197">
        <ele>272.4</ele>
        <time>2024-03-21T14:01:14Z</time>
      </trkpt>
      <trkpt lat="43.64783" lon="3.24194">
        <ele>271.7</ele>
        <time>2024-03-21T14:01:15Z</time>
      </trkpt>
      <trkpt lat="43.64784" lon="3.24192">
        <ele>271.4</ele>
        <time>2024-03-21T14:01:16Z</time>
      </trkpt>
      <trkpt lat="43.64786" lon="3.2419">
        <ele>271.1</ele>
        <time>2024-03-21T14:01:17Z</time>
      </trkpt>
      <trkpt lat="43.64787" lon="3.24186">
        <ele>270.6</ele>
        <time>2024-03-21T14:01:18Z</time>
      </trkpt>
      <trkpt lat="43.64789" lon="3.24182">
        <ele>270.1</ele>
        <time>2024-03-21T14:01:19Z</time>
      </trkpt>
      <trkpt lat="43.64789" lon="3.2418">
        <ele>269.8</ele>
        <time>2024-03-21T14:01:20Z</time>
      </trkpt>
      <trkpt lat="43.6479" lon="3.24176">
        <ele>269.4</ele>
        <time>2024-03-21T14:01:21Z</time>
      </trkpt>
      <trkpt lat="43.64788" lon="3.24172">
        <ele>268.8</ele>
        <time>2024-03-21T14:01:22Z</time>
      </trkpt>
      <trkpt lat="43.64787" lon="3.24169">
        <ele>268.3</ele>
        <time>2024-03-21T14:01:23Z</time>
      </trkpt>
      <trkpt lat="43.64785" lon="3.24165">
        <ele>268</ele>
        <time>2024-03-21T14:01:24Z</time>
      </trkpt>
      <trkpt lat="43.64782" lon="3.24161">
        <ele>268.2</ele>
        <time>2024-03-21T14:01:25Z</time>
      </trkpt>
      <trkpt lat="43.64781" lon="3.24157">
        <ele>268.5</ele>
        <time>2024-03-21T14:01:26Z</time>
      </trkpt>
      <trkpt lat="43.6478" lon="3.24154">
        <ele>268.7</ele>
        <time>2024-03-21T14:01:27Z</time>
      </trkpt>
      <trkpt lat="43.64776" lon="3.24152">
        <ele>268.5</ele>
        <time>2024-03-21T14:01:29Z</time>
      </trkpt>
      <trkpt lat="43.6477" lon="3.24152">
        <ele>268.3</ele>
        <time>2024-03-21T14:01:32Z</time>
      </trkpt>
      <trkpt lat="43.64768" lon="3.24153">
        <ele>268.1</ele>
        <time>2024-03-21T14:01:33Z</time>
      </trkpt>
      <trkpt lat="43.64767" lon="3.24154">
        <ele>267.9</ele>
        <time>2024-03-21T14:01:34Z</time>
      </trkpt>
      <trkpt lat="43.64767" lon="3.24163">
        <ele>266.7</ele>
        <time>2024-03-21T14:01:37Z</time>
      </trkpt>
      <trkpt lat="43.64765" lon="3.24166">
        <ele>266.2</ele>
        <time>2024-03-21T14:01:38Z</time>
      </trkpt>
      <trkpt lat="43.64762" lon="3.24169">
        <ele>266</ele>
        <time>2024-03-21T14:01:39Z</time>
      </trkpt>
      <trkpt lat="43.6476" lon="3.24173">
        <ele>265.8</ele>
        <time>2024-03-21T14:01:40Z</time>
      </trkpt>
      <trkpt lat="43.64757" lon="3.24177">
        <ele>265.4</ele>
        <time>2024-03-21T14:01:41Z</time>
      </trkpt>
      <trkpt lat="43.64754" lon="3.2418">
        <ele>264.8</ele>
        <time>2024-03-21T14:01:42Z</time>
      </trkpt>
      <trkpt lat="43.6475" lon="3.24182">
        <ele>263.9</ele>
        <time>2024-03-21T14:01:43Z</time>
      </trkpt>
      <trkpt lat="43.64745" lon="3.24183">
        <ele>263.9</ele>
        <time>2024-03-21T14:01:44Z</time>
      </trkpt>
      <trkpt lat="43.64741" lon="3.24183">
        <ele>264</ele>
        <time>2024-03-21T14:01:45Z</time>
      </trkpt>
      <trkpt lat="43.64737" lon="3.24184">
        <ele>263.9</ele>
        <time>2024-03-21T14:01:46Z</time>
      </trkpt>
      <trkpt lat="43.64735" lon="3.24185">
        <ele>263.9</ele>
        <time>2024-03-21T14:01:47Z</time>
      </trkpt>
      <trkpt lat="43.64731" lon="3.24185">
        <ele>263.9</ele>
        <time>2024-03-21T14:01:48Z</time>
      </trkpt>
      <trkpt lat="43.64728" lon="3.24186">
        <ele>263.8</ele>
        <time>2024-03-21T14:01:49Z</time>
      </trkpt>
      <trkpt lat="43.64726" lon="3.24185">
        <ele>264</ele>
        <time>2024-03-21T14:01:50Z</time>
      </trkpt>
      <trkpt lat="43.64724" lon="3.24183">
        <ele>264.2</ele>
        <time>2024-03-21T14:01:51Z</time>
      </trkpt>
      <trkpt lat="43.64722" lon="3.24182">
        <ele>264.3</ele>
        <time>2024-03-21T14:01:52Z</time>
      </trkpt>
      <trkpt lat="43.64714" lon="3.2418">
        <ele>263.7</ele>
        <time>2024-03-21T14:01:54Z</time>
      </trkpt>
      <trkpt lat="43.64705" lon="3.2418">
        <ele>262.7</ele>
        <time>2024-03-21T14:01:56Z</time>
      </trkpt>
      <trkpt lat="43.647" lon="3.24181">
        <ele>262.1</ele>
        <time>2024-03-21T14:01:57Z</time>
      </trkpt>
      <trkpt lat="43.64695" lon="3.24183">
        <ele>261.5</ele>
        <time>2024-03-21T14:01:58Z</time>
      </trkpt>
      <trkpt lat="43.64692" lon="3.24184">
        <ele>261.2</ele>
        <time>2024-03-21T14:01:59Z</time>
      </trkpt>
      <trkpt lat="43.6469" lon="3.24184">
        <ele>261</ele>
        <time>2024-03-21T14:02:00Z</time>
      </trkpt>
      <trkpt lat="43.6469" lon="3.24185">
        <ele>261</ele>
        <time>2024-03-21T14:02:01Z</time>
      </trkpt>
      <trkpt lat="43.64691" lon="3.24185">
        <ele>261.1</ele>
        <time>2024-03-21T14:02:33Z</time>
      </trkpt>
      <trkpt lat="43.64686" lon="3.24185">
        <ele>260.7</ele>
        <time>2024-03-21T14:02:37Z</time>
      </trkpt>
      <trkpt lat="43.64686" lon="3.24186">
        <ele>260.7</ele>
        <time>2024-03-21T14:02:38Z</time>
      </trkpt>
      <trkpt lat="43.64685" lon="3.24187">
        <ele>260.7</ele>
        <time>2024-03-21T14:02:39Z</time>
      </trkpt>
      <trkpt lat="43.64685" lon="3.24188">
        <ele>260.7</ele>
        <time>2024-03-21T14:02:40Z</time>
      </trkpt>
      <trkpt lat="43.64684" lon="3.24188">
        <ele>260.6</ele>
        <time>2024-03-21T14:02:41Z</time>
      </trkpt>
      <trkpt lat="43.64684" lon="3.24187">
        <ele>260.6</ele>
        <time>2024-03-21T14:02:43Z</time>
      </trkpt>
      <trkpt lat="43.64683" lon="3.24187">
        <ele>260.5</ele>
        <time>2024-03-21T14:03:15Z</time>
      </trkpt>
      <trkpt lat="43.64679" lon="3.24185">
        <ele>260.2</ele>
        <time>2024-03-21T14:03:19Z</time>
      </trkpt>
      <trkpt lat="43.64664" lon="3.24185">
        <ele>259.1</ele>
        <time>2024-03-21T14:03:24Z</time>
      </trkpt>
      <trkpt lat="43.6466" lon="3.24184">
        <ele>258.8</ele>
        <time>2024-03-21T14:03:25Z</time>
      </trkpt>
      <trkpt lat="43.64652" lon="3.24186">
        <ele>258.3</ele>
        <time>2024-03-21T14:03:27Z</time>
      </trkpt>
      <trkpt lat="43.64648" lon="3.24186">
        <ele>258</ele>
        <time>2024-03-21T14:03:28Z</time>
      </trkpt>
      <trkpt lat="43.64643" lon="3.24187">
        <ele>257.8</ele>
        <time>2024-03-21T14:03:29Z</time>
      </trkpt>
      <trkpt lat="43.64635" lon="3.24185">
        <ele>257</ele>
        <time>2024-03-21T14:03:31Z</time>
      </trkpt>
      <trkpt lat="43.64632" lon="3.24185">
        <ele>256.8</ele>
        <time>2024-03-21T14:03:32Z</time>
      </trkpt>
      <trkpt lat="43.64629" lon="3.24187">
        <ele>256.8</ele>
        <time>2024-03-21T14:03:33Z</time>
      </trkpt>
      <trkpt lat="43.64626" lon="3.24187">
        <ele>256.5</ele>
        <time>2024-03-21T14:03:34Z</time>
      </trkpt>
      <trkpt lat="43.6462" lon="3.24191">
        <ele>256.4</ele>
        <time>2024-03-21T14:03:36Z</time>
      </trkpt>
      <trkpt lat="43.64617" lon="3.24195">
        <ele>256.4</ele>
        <time>2024-03-21T14:03:37Z</time>
      </trkpt>
      <trkpt lat="43.64614" lon="3.24201">
        <ele>256.4</ele>
        <time>2024-03-21T14:03:38Z</time>
      </trkpt>
      <trkpt lat="43.64611" lon="3.24206">
        <ele>256.4</ele>
        <time>2024-03-21T14:03:39Z</time>
      </trkpt>
      <trkpt lat="43.64608" lon="3.24213">
        <ele>256.4</ele>
        <time>2024-03-21T14:03:40Z</time>
      </trkpt>
      <trkpt lat="43.64605" lon="3.24219">
        <ele>256.4</ele>
        <time>2024-03-21T14:03:41Z</time>
      </trkpt>
      <trkpt lat="43.64602" lon="3.24226">
        <ele>256.1</ele>
        <time>2024-03-21T14:03:42Z</time>
      </trkpt>
      <trkpt lat="43.64598" lon="3.24232">
        <ele>255.4</ele>
        <time>2024-03-21T14:03:43Z</time>
      </trkpt>
      <trkpt lat="43.64594" lon="3.24239">
        <ele>254.6</ele>
        <time>2024-03-21T14:03:44Z</time>
      </trkpt>
      <trkpt lat="43.64591" lon="3.24243">
        <ele>254.1</ele>
        <time>2024-03-21T14:03:45Z</time>
      </trkpt>
      <trkpt lat="43.64589" lon="3.24246">
        <ele>253.7</ele>
        <time>2024-03-21T14:03:46Z</time>
      </trkpt>
      <trkpt lat="43.64579" lon="3.24256">
        <ele>252.8</ele>
        <time>2024-03-21T14:03:52Z</time>
      </trkpt>
      <trkpt lat="43.64579" lon="3.24257">
        <ele>252.8</ele>
        <time>2024-03-21T14:04:00Z</time>
      </trkpt>
      <trkpt lat="43.64578" lon="3.24259">
        <ele>252.7</ele>
        <time>2024-03-21T14:04:07Z</time>
      </trkpt>
      <trkpt lat="43.64577" lon="3.2426">
        <ele>252.7</ele>
        <time>2024-03-21T14:04:08Z</time>
      </trkpt>
      <trkpt lat="43.64575" lon="3.24261">
        <ele>252.6</ele>
        <time>2024-03-21T14:04:10Z</time>
      </trkpt>
      <trkpt lat="43.64574" lon="3.24262">
        <ele>252.5</ele>
        <time>2024-03-21T14:04:11Z</time>
      </trkpt>
      <trkpt lat="43.64573" lon="3.24262">
        <ele>252.5</ele>
        <time>2024-03-21T14:04:12Z</time>
      </trkpt>
      <trkpt lat="43.64573" lon="3.24263">
        <ele>252.5</ele>
        <time>2024-03-21T14:04:16Z</time>
      </trkpt>
      <trkpt lat="43.64571" lon="3.24265">
        <ele>252.3</ele>
        <time>2024-03-21T14:04:20Z</time>
      </trkpt>
      <trkpt lat="43.6457" lon="3.24267">
        <ele>252.2</ele>
        <time>2024-03-21T14:04:21Z</time>
      </trkpt>
      <trkpt lat="43.64566" lon="3.24271">
        <ele>251.9</ele>
        <time>2024-03-21T14:04:23Z</time>
      </trkpt>
      <trkpt lat="43.64564" lon="3.24274">
        <ele>251.7</ele>
        <time>2024-03-21T14:04:24Z</time>
      </trkpt>
      <trkpt lat="43.64561" lon="3.24277">
        <ele>251.4</ele>
        <time>2024-03-21T14:04:25Z</time>
      </trkpt>
      <trkpt lat="43.64559" lon="3.2428">
        <ele>251.3</ele>
        <time>2024-03-21T14:04:26Z</time>
      </trkpt>
      <trkpt lat="43.64556" lon="3.24283">
        <ele>251.2</ele>
        <time>2024-03-21T14:04:27Z</time>
      </trkpt>
      <trkpt lat="43.64553" lon="3.24285">
        <ele>251.2</ele>
        <time>2024-03-21T14:04:28Z</time>
      </trkpt>
      <trkpt lat="43.6455" lon="3.24288">
        <ele>251.2</ele>
        <time>2024-03-21T14:04:29Z</time>
      </trkpt>
      <trkpt lat="43.64547" lon="3.24292">
        <ele>251.2</ele>
        <time>2024-03-21T14:04:30Z</time>
      </trkpt>
      <trkpt lat="43.64544" lon="3.24297">
        <ele>251.3</ele>
        <time>2024-03-21T14:04:31Z</time>
      </trkpt>
      <trkpt lat="43.64541" lon="3.24301">
        <ele>251.3</ele>
        <time>2024-03-21T14:04:32Z</time>
      </trkpt>
      <trkpt lat="43.64539" lon="3.24304">
        <ele>251.3</ele>
        <time>2024-03-21T14:04:33Z</time>
      </trkpt>
      <trkpt lat="43.64536" lon="3.24306">
        <ele>251.4</ele>
        <time>2024-03-21T14:04:34Z</time>
      </trkpt>
      <trkpt lat="43.64534" lon="3.24307">
        <ele>251.7</ele>
        <time>2024-03-21T14:04:35Z</time>
      </trkpt>
      <trkpt lat="43.64531" lon="3.24308">
        <ele>252</ele>
        <time>2024-03-21T14:04:36Z</time>
      </trkpt>
      <trkpt lat="43.64529" lon="3.2431">
        <ele>252.6</ele>
        <time>2024-03-21T14:04:37Z</time>
      </trkpt>
      <trkpt lat="43.64526" lon="3.24311">
        <ele>252.8</ele>
        <time>2024-03-21T14:04:38Z</time>
      </trkpt>
      <trkpt lat="43.64524" lon="3.24312">
        <ele>252.9</ele>
        <time>2024-03-21T14:04:39Z</time>
      </trkpt>
      <trkpt lat="43.64521" lon="3.24312">
        <ele>252.5</ele>
        <time>2024-03-21T14:04:40Z</time>
      </trkpt>
      <trkpt lat="43.64517" lon="3.24314">
        <ele>252.6</ele>
        <time>2024-03-21T14:04:42Z</time>
      </trkpt>
      <trkpt lat="43.64514" lon="3.24315">
        <ele>252.4</ele>
        <time>2024-03-21T14:04:43Z</time>
      </trkpt>
      <trkpt lat="43.64512" lon="3.24316">
        <ele>252.3</ele>
        <time>2024-03-21T14:04:44Z</time>
      </trkpt>
      <trkpt lat="43.64509" lon="3.24316">
        <ele>251.9</ele>
        <time>2024-03-21T14:04:45Z</time>
      </trkpt>
      <trkpt lat="43.64497" lon="3.24319">
        <ele>250.7</ele>
        <time>2024-03-21T14:04:48Z</time>
      </trkpt>
      <trkpt lat="43.64494" lon="3.2432">
        <ele>250.6</ele>
        <time>2024-03-21T14:04:49Z</time>
      </trkpt>
      <trkpt lat="43.6449" lon="3.24322">
        <ele>250.6</ele>
        <time>2024-03-21T14:04:50Z</time>
      </trkpt>
      <trkpt lat="43.64487" lon="3.24324">
        <ele>250.6</ele>
        <time>2024-03-21T14:04:51Z</time>
      </trkpt>
      <trkpt lat="43.64486" lon="3.24326">
        <ele>250.7</ele>
        <time>2024-03-21T14:04:52Z</time>
      </trkpt>
      <trkpt lat="43.64484" lon="3.24328">
        <ele>250.7</ele>
        <time>2024-03-21T14:04:53Z</time>
      </trkpt>
      <trkpt lat="43.64483" lon="3.24331">
        <ele>250.9</ele>
        <time>2024-03-21T14:04:54Z</time>
      </trkpt>
      <trkpt lat="43.64481" lon="3.24334">
        <ele>250.9</ele>
        <time>2024-03-21T14:04:55Z</time>
      </trkpt>
      <trkpt lat="43.64478" lon="3.24337">
        <ele>250.5</ele>
        <time>2024-03-21T14:04:56Z</time>
      </trkpt>
      <trkpt lat="43.64476" lon="3.24341">
        <ele>250</ele>
        <time>2024-03-21T14:04:57Z</time>
      </trkpt>
      <trkpt lat="43.64475" lon="3.24346">
        <ele>249.6</ele>
        <time>2024-03-21T14:04:58Z</time>
      </trkpt>
      <trkpt lat="43.64474" lon="3.24352">
        <ele>249</ele>
        <time>2024-03-21T14:04:59Z</time>
      </trkpt>
      <trkpt lat="43.64474" lon="3.24364">
        <ele>248.2</ele>
        <time>2024-03-21T14:05:01Z</time>
      </trkpt>
      <trkpt lat="43.64473" lon="3.24371">
        <ele>247.5</ele>
        <time>2024-03-21T14:05:02Z</time>
      </trkpt>
      <trkpt lat="43.64472" lon="3.2438">
        <ele>246.6</ele>
        <time>2024-03-21T14:05:03Z</time>
      </trkpt>
      <trkpt lat="43.64473" lon="3.24389">
        <ele>246.2</ele>
        <time>2024-03-21T14:05:04Z</time>
      </trkpt>
      <trkpt lat="43.64474" lon="3.24399">
        <ele>245.7</ele>
        <time>2024-03-21T14:05:05Z</time>
      </trkpt>
      <trkpt lat="43.64475" lon="3.24408">
        <ele>245.5</ele>
        <time>2024-03-21T14:05:06Z</time>
      </trkpt>
      <trkpt lat="43.64475" lon="3.24414">
        <ele>245.2</ele>
        <time>2024-03-21T14:05:07Z</time>
      </trkpt>
      <trkpt lat="43.64474" lon="3.24418">
        <ele>244.6</ele>
        <time>2024-03-21T14:05:08Z</time>
      </trkpt>
      <trkpt lat="43.64474" lon="3.24423">
        <ele>244.4</ele>
        <time>2024-03-21T14:05:09Z</time>
      </trkpt>
      <trkpt lat="43.64475" lon="3.24427">
        <ele>244.7</ele>
        <time>2024-03-21T14:05:10Z</time>
      </trkpt>
      <trkpt lat="43.64476" lon="3.24432">
        <ele>244.9</ele>
        <time>2024-03-21T14:05:11Z</time>
      </trkpt>
      <trkpt lat="43.64478" lon="3.24436">
        <ele>245.5</ele>
        <time>2024-03-21T14:05:12Z</time>
      </trkpt>
      <trkpt lat="43.64482" lon="3.24442">
        <ele>246.9</ele>
        <time>2024-03-21T14:05:14Z</time>
      </trkpt>
      <trkpt lat="43.64483" lon="3.24446">
        <ele>247.3</ele>
        <time>2024-03-21T14:05:15Z</time>
      </trkpt>
      <trkpt lat="43.64485" lon="3.24448">
        <ele>248.1</ele>
        <time>2024-03-21T14:05:16Z</time>
      </trkpt>
      <trkpt lat="43.64487" lon="3.24451">
        <ele>249</ele>
        <time>2024-03-21T14:05:17Z</time>
      </trkpt>
      <trkpt lat="43.64488" lon="3.24455">
        <ele>249.5</ele>
        <time>2024-03-21T14:05:18Z</time>
      </trkpt>
      <trkpt lat="43.64491" lon="3.24464">
        <ele>251.2</ele>
        <time>2024-03-21T14:05:21Z</time>
      </trkpt>
      <trkpt lat="43.64491" lon="3.24467">
        <ele>251.3</ele>
        <time>2024-03-21T14:05:22Z</time>
      </trkpt>
      <trkpt lat="43.6449" lon="3.2447">
        <ele>250.9</ele>
        <time>2024-03-21T14:05:23Z</time>
      </trkpt>
      <trkpt lat="43.64488" lon="3.24473">
        <ele>250</ele>
        <time>2024-03-21T14:05:24Z</time>
      </trkpt>
      <trkpt lat="43.64486" lon="3.24479">
        <ele>249.2</ele>
        <time>2024-03-21T14:05:26Z</time>
      </trkpt>
      <trkpt lat="43.64484" lon="3.2448">
        <ele>248.3</ele>
        <time>2024-03-21T14:05:27Z</time>
      </trkpt>
      <trkpt lat="43.64483" lon="3.24482">
        <ele>247.9</ele>
        <time>2024-03-21T14:05:28Z</time>
      </trkpt>
      <trkpt lat="43.64481" lon="3.24483">
        <ele>247</ele>
        <time>2024-03-21T14:05:29Z</time>
      </trkpt>
      <trkpt lat="43.64477" lon="3.24487">
        <ele>245.3</ele>
        <time>2024-03-21T14:05:31Z</time>
      </trkpt>
      <trkpt lat="43.64475" lon="3.24488">
        <ele>244.4</ele>
        <time>2024-03-21T14:05:32Z</time>
      </trkpt>
      <trkpt lat="43.64472" lon="3.24491">
        <ele>243.3</ele>
        <time>2024-03-21T14:05:34Z</time>
      </trkpt>
      <trkpt lat="43.6447" lon="3.24492">
        <ele>243.3</ele>
        <time>2024-03-21T14:05:35Z</time>
      </trkpt>
      <trkpt lat="43.64469" lon="3.24494">
        <ele>243.3</ele>
        <time>2024-03-21T14:05:36Z</time>
      </trkpt>
      <trkpt lat="43.64466" lon="3.24496">
        <ele>243.2</ele>
        <time>2024-03-21T14:05:37Z</time>
      </trkpt>
      <trkpt lat="43.64464" lon="3.24497">
        <ele>243</ele>
        <time>2024-03-21T14:05:38Z</time>
      </trkpt>
      <trkpt lat="43.64461" lon="3.24499">
        <ele>242.8</ele>
        <time>2024-03-21T14:05:39Z</time>
      </trkpt>
      <trkpt lat="43.6446" lon="3.245">
        <ele>242.7</ele>
        <time>2024-03-21T14:05:40Z</time>
      </trkpt>
      <trkpt lat="43.64458" lon="3.24503">
        <ele>242.7</ele>
        <time>2024-03-21T14:05:41Z</time>
      </trkpt>
      <trkpt lat="43.64457" lon="3.24505">
        <ele>242.8</ele>
        <time>2024-03-21T14:05:42Z</time>
      </trkpt>
      <trkpt lat="43.64455" lon="3.24507">
        <ele>242.8</ele>
        <time>2024-03-21T14:05:43Z</time>
      </trkpt>
      <trkpt lat="43.64452" lon="3.24508">
        <ele>242.7</ele>
        <time>2024-03-21T14:05:44Z</time>
      </trkpt>
      <trkpt lat="43.64449" lon="3.24508">
        <ele>242.5</ele>
        <time>2024-03-21T14:05:45Z</time>
      </trkpt>
      <trkpt lat="43.64446" lon="3.2451">
        <ele>242.5</ele>
        <time>2024-03-21T14:05:46Z</time>
      </trkpt>
      <trkpt lat="43.64444" lon="3.2451">
        <ele>242.4</ele>
        <time>2024-03-21T14:05:47Z</time>
      </trkpt>
      <trkpt lat="43.64443" lon="3.24511">
        <ele>242.6</ele>
        <time>2024-03-21T14:05:48Z</time>
      </trkpt>
      <trkpt lat="43.64439" lon="3.24511">
        <ele>242.5</ele>
        <time>2024-03-21T14:05:51Z</time>
      </trkpt>
      <trkpt lat="43.64437" lon="3.24512">
        <ele>242.6</ele>
        <time>2024-03-21T14:05:52Z</time>
      </trkpt>
      <trkpt lat="43.64428" lon="3.24512">
        <ele>242.4</ele>
        <time>2024-03-21T14:05:55Z</time>
      </trkpt>
      <trkpt lat="43.64426" lon="3.24514">
        <ele>242.7</ele>
        <time>2024-03-21T14:05:56Z</time>
      </trkpt>
      <trkpt lat="43.64423" lon="3.24515">
        <ele>242.8</ele>
        <time>2024-03-21T14:05:57Z</time>
      </trkpt>
      <trkpt lat="43.6442" lon="3.24517">
        <ele>243.1</ele>
        <time>2024-03-21T14:05:58Z</time>
      </trkpt>
      <trkpt lat="43.64418" lon="3.24519">
        <ele>243.4</ele>
        <time>2024-03-21T14:05:59Z</time>
      </trkpt>
      <trkpt lat="43.64417" lon="3.24521">
        <ele>243.8</ele>
        <time>2024-03-21T14:06:00Z</time>
      </trkpt>
      <trkpt lat="43.64414" lon="3.24523">
        <ele>244.1</ele>
        <time>2024-03-21T14:06:01Z</time>
      </trkpt>
      <trkpt lat="43.64412" lon="3.24524">
        <ele>244.3</ele>
        <time>2024-03-21T14:06:02Z</time>
      </trkpt>
      <trkpt lat="43.64409" lon="3.24525">
        <ele>244.5</ele>
        <time>2024-03-21T14:06:03Z</time>
      </trkpt>
      <trkpt lat="43.64407" lon="3.24527">
        <ele>244.9</ele>
        <time>2024-03-21T14:06:04Z</time>
      </trkpt>
      <trkpt lat="43.64404" lon="3.24529">
        <ele>245.1</ele>
        <time>2024-03-21T14:06:05Z</time>
      </trkpt>
      <trkpt lat="43.64395" lon="3.24538">
        <ele>245.5</ele>
        <time>2024-03-21T14:06:09Z</time>
      </trkpt>
      <trkpt lat="43.64393" lon="3.24542">
        <ele>245.7</ele>
        <time>2024-03-21T14:06:10Z</time>
      </trkpt>
      <trkpt lat="43.64391" lon="3.24545">
        <ele>245.7</ele>
        <time>2024-03-21T14:06:11Z</time>
      </trkpt>
      <trkpt lat="43.64388" lon="3.24549">
        <ele>245.7</ele>
        <time>2024-03-21T14:06:12Z</time>
      </trkpt>
      <trkpt lat="43.64384" lon="3.24557">
        <ele>245.5</ele>
        <time>2024-03-21T14:06:14Z</time>
      </trkpt>
      <trkpt lat="43.6438" lon="3.24569">
        <ele>245.2</ele>
        <time>2024-03-21T14:06:16Z</time>
      </trkpt>
      <trkpt lat="43.64378" lon="3.24581">
        <ele>245</ele>
        <time>2024-03-21T14:06:18Z</time>
      </trkpt>
      <trkpt lat="43.64374" lon="3.24593">
        <ele>245.2</ele>
        <time>2024-03-21T14:06:20Z</time>
      </trkpt>
      <trkpt lat="43.64368" lon="3.24623">
        <ele>245</ele>
        <time>2024-03-21T14:06:26Z</time>
      </trkpt>
      <trkpt lat="43.64367" lon="3.24629">
        <ele>244.7</ele>
        <time>2024-03-21T14:06:27Z</time>
      </trkpt>
      <trkpt lat="43.64366" lon="3.24634">
        <ele>244.4</ele>
        <time>2024-03-21T14:06:28Z</time>
      </trkpt>
      <trkpt lat="43.64366" lon="3.24664">
        <ele>243.3</ele>
        <time>2024-03-21T14:06:33Z</time>
      </trkpt>
      <trkpt lat="43.64367" lon="3.2467">
        <ele>243.2</ele>
        <time>2024-03-21T14:06:34Z</time>
      </trkpt>
      <trkpt lat="43.64367" lon="3.24683">
        <ele>242.3</ele>
        <time>2024-03-21T14:06:36Z</time>
      </trkpt>
      <trkpt lat="43.64369" lon="3.24697">
        <ele>241.9</ele>
        <time>2024-03-21T14:06:38Z</time>
      </trkpt>
      <trkpt lat="43.64369" lon="3.24709">
        <ele>241.2</ele>
        <time>2024-03-21T14:06:40Z</time>
      </trkpt>
      <trkpt lat="43.64368" lon="3.24715">
        <ele>240.6</ele>
        <time>2024-03-21T14:06:41Z</time>
      </trkpt>
      <trkpt lat="43.64362" lon="3.24733">
        <ele>237.9</ele>
        <time>2024-03-21T14:06:44Z</time>
      </trkpt>
      <trkpt lat="43.64359" lon="3.2474">
        <ele>237.2</ele>
        <time>2024-03-21T14:06:45Z</time>
      </trkpt>
      <trkpt lat="43.64355" lon="3.24758">
        <ele>236.2</ele>
        <time>2024-03-21T14:06:47Z</time>
      </trkpt>
      <trkpt lat="43.64355" lon="3.24768">
        <ele>236</ele>
        <time>2024-03-21T14:06:48Z</time>
      </trkpt>
      <trkpt lat="43.64356" lon="3.24776">
        <ele>235.9</ele>
        <time>2024-03-21T14:06:49Z</time>
      </trkpt>
      <trkpt lat="43.6436" lon="3.24784">
        <ele>235.7</ele>
        <time>2024-03-21T14:06:50Z</time>
      </trkpt>
      <trkpt lat="43.64364" lon="3.24789">
        <ele>236.4</ele>
        <time>2024-03-21T14:06:51Z</time>
      </trkpt>
      <trkpt lat="43.64367" lon="3.24796">
        <ele>236.9</ele>
        <time>2024-03-21T14:06:52Z</time>
      </trkpt>
      <trkpt lat="43.64369" lon="3.24802">
        <ele>237.2</ele>
        <time>2024-03-21T14:06:53Z</time>
      </trkpt>
      <trkpt lat="43.64369" lon="3.24823">
        <ele>237</ele>
        <time>2024-03-21T14:06:56Z</time>
      </trkpt>
      <trkpt lat="43.64367" lon="3.24837">
        <ele>236.6</ele>
        <time>2024-03-21T14:06:58Z</time>
      </trkpt>
      <trkpt lat="43.64365" lon="3.24842">
        <ele>236.2</ele>
        <time>2024-03-21T14:06:59Z</time>
      </trkpt>
      <trkpt lat="43.64364" lon="3.24847">
        <ele>236.2</ele>
        <time>2024-03-21T14:07:00Z</time>
      </trkpt>
      <trkpt lat="43.64364" lon="3.24852">
        <ele>236.3</ele>
        <time>2024-03-21T14:07:01Z</time>
      </trkpt>
      <trkpt lat="43.64363" lon="3.24857">
        <ele>236.3</ele>
        <time>2024-03-21T14:07:02Z</time>
      </trkpt>
      <trkpt lat="43.64362" lon="3.2486">
        <ele>236.2</ele>
        <time>2024-03-21T14:07:03Z</time>
      </trkpt>
      <trkpt lat="43.64361" lon="3.24864">
        <ele>236.3</ele>
        <time>2024-03-21T14:07:04Z</time>
      </trkpt>
      <trkpt lat="43.64357" lon="3.24872">
        <ele>236.6</ele>
        <time>2024-03-21T14:07:06Z</time>
      </trkpt>
      <trkpt lat="43.64355" lon="3.24875">
        <ele>236.6</ele>
        <time>2024-03-21T14:07:07Z</time>
      </trkpt>
      <trkpt lat="43.64353" lon="3.24879">
        <ele>236.7</ele>
        <time>2024-03-21T14:07:08Z</time>
      </trkpt>
      <trkpt lat="43.64342" lon="3.2489">
        <ele>235.7</ele>
        <time>2024-03-21T14:07:12Z</time>
      </trkpt>
      <trkpt lat="43.64339" lon="3.24891">
        <ele>235.2</ele>
        <time>2024-03-21T14:07:13Z</time>
      </trkpt>
      <trkpt lat="43.64333" lon="3.24895">
        <ele>234.6</ele>
        <time>2024-03-21T14:07:15Z</time>
      </trkpt>
      <trkpt lat="43.64329" lon="3.24899">
        <ele>234.5</ele>
        <time>2024-03-21T14:07:17Z</time>
      </trkpt>
      <trkpt lat="43.64327" lon="3.24902">
        <ele>234.4</ele>
        <time>2024-03-21T14:07:18Z</time>
      </trkpt>
      <trkpt lat="43.64325" lon="3.24906">
        <ele>234.4</ele>
        <time>2024-03-21T14:07:19Z</time>
      </trkpt>
      <trkpt lat="43.64322" lon="3.2491">
        <ele>234.1</ele>
        <time>2024-03-21T14:07:20Z</time>
      </trkpt>
      <trkpt lat="43.6432" lon="3.24914">
        <ele>234</ele>
        <time>2024-03-21T14:07:21Z</time>
      </trkpt>
      <trkpt lat="43.64318" lon="3.24919">
        <ele>233.8</ele>
        <time>2024-03-21T14:07:22Z</time>
      </trkpt>
      <trkpt lat="43.64316" lon="3.24925">
        <ele>233.7</ele>
        <time>2024-03-21T14:07:23Z</time>
      </trkpt>
      <trkpt lat="43.64313" lon="3.24931">
        <ele>233.5</ele>
        <time>2024-03-21T14:07:24Z</time>
      </trkpt>
      <trkpt lat="43.64311" lon="3.24937">
        <ele>233.5</ele>
        <time>2024-03-21T14:07:25Z</time>
      </trkpt>
      <trkpt lat="43.64309" lon="3.24942">
        <ele>233.5</ele>
        <time>2024-03-21T14:07:26Z</time>
      </trkpt>
      <trkpt lat="43.64307" lon="3.24948">
        <ele>233.1</ele>
        <time>2024-03-21T14:07:27Z</time>
      </trkpt>
      <trkpt lat="43.64306" lon="3.24954">
        <ele>232.7</ele>
        <time>2024-03-21T14:07:28Z</time>
      </trkpt>
      <trkpt lat="43.64306" lon="3.24961">
        <ele>232.5</ele>
        <time>2024-03-21T14:07:29Z</time>
      </trkpt>
      <trkpt lat="43.64308" lon="3.24975">
        <ele>232.3</ele>
        <time>2024-03-21T14:07:31Z</time>
      </trkpt>
      <trkpt lat="43.64311" lon="3.24981">
        <ele>232.4</ele>
        <time>2024-03-21T14:07:32Z</time>
      </trkpt>
      <trkpt lat="43.64315" lon="3.24991">
        <ele>232</ele>
        <time>2024-03-21T14:07:34Z</time>
      </trkpt>
      <trkpt lat="43.64321" lon="3.25001">
        <ele>231.7</ele>
        <time>2024-03-21T14:07:36Z</time>
      </trkpt>
      <trkpt lat="43.64323" lon="3.25006">
        <ele>232</ele>
        <time>2024-03-21T14:07:37Z</time>
      </trkpt>
      <trkpt lat="43.64324" lon="3.25012">
        <ele>232.3</ele>
        <time>2024-03-21T14:07:38Z</time>
      </trkpt>
      <trkpt lat="43.64326" lon="3.2502">
        <ele>232.7</ele>
        <time>2024-03-21T14:07:40Z</time>
      </trkpt>
      <trkpt lat="43.64326" lon="3.25024">
        <ele>232.8</ele>
        <time>2024-03-21T14:07:41Z</time>
      </trkpt>
      <trkpt lat="43.64327" lon="3.25029">
        <ele>233.1</ele>
        <time>2024-03-21T14:07:42Z</time>
      </trkpt>
      <trkpt lat="43.64328" lon="3.25035">
        <ele>233.4</ele>
        <time>2024-03-21T14:07:43Z</time>
      </trkpt>
      <trkpt lat="43.64328" lon="3.2504">
        <ele>233.6</ele>
        <time>2024-03-21T14:07:44Z</time>
      </trkpt>
      <trkpt lat="43.64327" lon="3.25044">
        <ele>233.5</ele>
        <time>2024-03-21T14:07:45Z</time>
      </trkpt>
      <trkpt lat="43.64327" lon="3.25049">
        <ele>233.7</ele>
        <time>2024-03-21T14:07:46Z</time>
      </trkpt>
      <trkpt lat="43.64326" lon="3.25053">
        <ele>233.6</ele>
        <time>2024-03-21T14:07:47Z</time>
      </trkpt>
      <trkpt lat="43.64324" lon="3.25058">
        <ele>233.7</ele>
        <time>2024-03-21T14:07:48Z</time>
      </trkpt>
      <trkpt lat="43.64323" lon="3.25064">
        <ele>234.3</ele>
        <time>2024-03-21T14:07:49Z</time>
      </trkpt>
      <trkpt lat="43.64321" lon="3.25069">
        <ele>234.4</ele>
        <time>2024-03-21T14:07:50Z</time>
      </trkpt>
      <trkpt lat="43.64321" lon="3.25074">
        <ele>235</ele>
        <time>2024-03-21T14:07:51Z</time>
      </trkpt>
      <trkpt lat="43.6432" lon="3.25078">
        <ele>235.1</ele>
        <time>2024-03-21T14:07:52Z</time>
      </trkpt>
      <trkpt lat="43.64318" lon="3.25082">
        <ele>234.8</ele>
        <time>2024-03-21T14:07:53Z</time>
      </trkpt>
      <trkpt lat="43.64317" lon="3.25087">
        <ele>234.7</ele>
        <time>2024-03-21T14:07:54Z</time>
      </trkpt>
      <trkpt lat="43.64315" lon="3.25091">
        <ele>234</ele>
        <time>2024-03-21T14:07:55Z</time>
      </trkpt>
      <trkpt lat="43.64313" lon="3.25094">
        <ele>233.3</ele>
        <time>2024-03-21T14:07:56Z</time>
      </trkpt>
      <trkpt lat="43.64312" lon="3.25098">
        <ele>233.1</ele>
        <time>2024-03-21T14:07:57Z</time>
      </trkpt>
      <trkpt lat="43.64306" lon="3.25113">
        <ele>231.3</ele>
        <time>2024-03-21T14:08:00Z</time>
      </trkpt>
      <trkpt lat="43.64305" lon="3.25117">
        <ele>231.4</ele>
        <time>2024-03-21T14:08:01Z</time>
      </trkpt>
      <trkpt lat="43.64302" lon="3.25122">
        <ele>231.3</ele>
        <time>2024-03-21T14:08:02Z</time>
      </trkpt>
      <trkpt lat="43.643" lon="3.25126">
        <ele>231.4</ele>
        <time>2024-03-21T14:08:03Z</time>
      </trkpt>
      <trkpt lat="43.64297" lon="3.25131">
        <ele>231.3</ele>
        <time>2024-03-21T14:08:04Z</time>
      </trkpt>
      <trkpt lat="43.64293" lon="3.25135">
        <ele>231</ele>
        <time>2024-03-21T14:08:05Z</time>
      </trkpt>
      <trkpt lat="43.64285" lon="3.25141">
        <ele>230.5</ele>
        <time>2024-03-21T14:08:07Z</time>
      </trkpt>
      <trkpt lat="43.64281" lon="3.25143">
        <ele>230.4</ele>
        <time>2024-03-21T14:08:08Z</time>
      </trkpt>
      <trkpt lat="43.64273" lon="3.25149">
        <ele>230.6</ele>
        <time>2024-03-21T14:08:10Z</time>
      </trkpt>
      <trkpt lat="43.64268" lon="3.25152">
        <ele>230.5</ele>
        <time>2024-03-21T14:08:11Z</time>
      </trkpt>
      <trkpt lat="43.64256" lon="3.25164">
        <ele>229.4</ele>
        <time>2024-03-21T14:08:14Z</time>
      </trkpt>
      <trkpt lat="43.64253" lon="3.25168">
        <ele>228.8</ele>
        <time>2024-03-21T14:08:15Z</time>
      </trkpt>
      <trkpt lat="43.6425" lon="3.25173">
        <ele>228.2</ele>
        <time>2024-03-21T14:08:16Z</time>
      </trkpt>
      <trkpt lat="43.64248" lon="3.25177">
        <ele>228.3</ele>
        <time>2024-03-21T14:08:17Z</time>
      </trkpt>
      <trkpt lat="43.64246" lon="3.25182">
        <ele>228.3</ele>
        <time>2024-03-21T14:08:18Z</time>
      </trkpt>
      <trkpt lat="43.64242" lon="3.25194">
        <ele>228.4</ele>
        <time>2024-03-21T14:08:20Z</time>
      </trkpt>
      <trkpt lat="43.64241" lon="3.25199">
        <ele>228.4</ele>
        <time>2024-03-21T14:08:21Z</time>
      </trkpt>
      <trkpt lat="43.64239" lon="3.25211">
        <ele>228.4</ele>
        <time>2024-03-21T14:08:23Z</time>
      </trkpt>
      <trkpt lat="43.64237" lon="3.25216">
        <ele>228.4</ele>
        <time>2024-03-21T14:08:24Z</time>
      </trkpt>
      <trkpt lat="43.64236" lon="3.2522">
        <ele>228.5</ele>
        <time>2024-03-21T14:08:25Z</time>
      </trkpt>
      <trkpt lat="43.64234" lon="3.25223">
        <ele>228.4</ele>
        <time>2024-03-21T14:08:26Z</time>
      </trkpt>
      <trkpt lat="43.64231" lon="3.25227">
        <ele>228.3</ele>
        <time>2024-03-21T14:08:27Z</time>
      </trkpt>
      <trkpt lat="43.64229" lon="3.25232">
        <ele>228.1</ele>
        <time>2024-03-21T14:08:28Z</time>
      </trkpt>
      <trkpt lat="43.64226" lon="3.2525">
        <ele>227.5</ele>
        <time>2024-03-21T14:08:31Z</time>
      </trkpt>
      <trkpt lat="43.64226" lon="3.25278">
        <ele>227.7</ele>
        <time>2024-03-21T14:08:35Z</time>
      </trkpt>
      <trkpt lat="43.64228" lon="3.25284">
        <ele>227.7</ele>
        <time>2024-03-21T14:08:36Z</time>
      </trkpt>
      <trkpt lat="43.6423" lon="3.25289">
        <ele>227.7</ele>
        <time>2024-03-21T14:08:37Z</time>
      </trkpt>
      <trkpt lat="43.64233" lon="3.25294">
        <ele>227.7</ele>
        <time>2024-03-21T14:08:38Z</time>
      </trkpt>
      <trkpt lat="43.64235" lon="3.25298">
        <ele>227.6</ele>
        <time>2024-03-21T14:08:39Z</time>
      </trkpt>
      <trkpt lat="43.64237" lon="3.25303">
        <ele>227.3</ele>
        <time>2024-03-21T14:08:40Z</time>
      </trkpt>
      <trkpt lat="43.64238" lon="3.25308">
        <ele>227.1</ele>
        <time>2024-03-21T14:08:41Z</time>
      </trkpt>
      <trkpt lat="43.64238" lon="3.25314">
        <ele>227.2</ele>
        <time>2024-03-21T14:08:42Z</time>
      </trkpt>
      <trkpt lat="43.64236" lon="3.25326">
        <ele>227</ele>
        <time>2024-03-21T14:08:44Z</time>
      </trkpt>
      <trkpt lat="43.64235" lon="3.25333">
        <ele>226.8</ele>
        <time>2024-03-21T14:08:45Z</time>
      </trkpt>
      <trkpt lat="43.64233" lon="3.25339">
        <ele>226.3</ele>
        <time>2024-03-21T14:08:46Z</time>
      </trkpt>
      <trkpt lat="43.64232" lon="3.25346">
        <ele>226</ele>
        <time>2024-03-21T14:08:47Z</time>
      </trkpt>
      <trkpt lat="43.64232" lon="3.25353">
        <ele>225.7</ele>
        <time>2024-03-21T14:08:48Z</time>
      </trkpt>
      <trkpt lat="43.64231" lon="3.25359">
        <ele>225.3</ele>
        <time>2024-03-21T14:08:49Z</time>
      </trkpt>
      <trkpt lat="43.64231" lon="3.25365">
        <ele>225.4</ele>
        <time>2024-03-21T14:08:50Z</time>
      </trkpt>
      <trkpt lat="43.64229" lon="3.25372">
        <ele>225.3</ele>
        <time>2024-03-21T14:08:51Z</time>
      </trkpt>
      <trkpt lat="43.64225" lon="3.25384">
        <ele>225.1</ele>
        <time>2024-03-21T14:08:53Z</time>
      </trkpt>
      <trkpt lat="43.64222" lon="3.2539">
        <ele>225</ele>
        <time>2024-03-21T14:08:54Z</time>
      </trkpt>
      <trkpt lat="43.64216" lon="3.254">
        <ele>224.9</ele>
        <time>2024-03-21T14:08:56Z</time>
      </trkpt>
      <trkpt lat="43.64212" lon="3.25405">
        <ele>224.6</ele>
        <time>2024-03-21T14:08:57Z</time>
      </trkpt>
      <trkpt lat="43.64209" lon="3.25409">
        <ele>224.4</ele>
        <time>2024-03-21T14:08:58Z</time>
      </trkpt>
      <trkpt lat="43.64206" lon="3.25415">
        <ele>224.2</ele>
        <time>2024-03-21T14:08:59Z</time>
      </trkpt>
      <trkpt lat="43.64203" lon="3.2542">
        <ele>224.4</ele>
        <time>2024-03-21T14:09:00Z</time>
      </trkpt>
      <trkpt lat="43.642" lon="3.25426">
        <ele>224.9</ele>
        <time>2024-03-21T14:09:01Z</time>
      </trkpt>
      <trkpt lat="43.64197" lon="3.2543">
        <ele>225.2</ele>
        <time>2024-03-21T14:09:02Z</time>
      </trkpt>
      <trkpt lat="43.64194" lon="3.25435">
        <ele>225.6</ele>
        <time>2024-03-21T14:09:03Z</time>
      </trkpt>
      <trkpt lat="43.64186" lon="3.25445">
        <ele>225.1</ele>
        <time>2024-03-21T14:09:05Z</time>
      </trkpt>
      <trkpt lat="43.64183" lon="3.25451">
        <ele>224.3</ele>
        <time>2024-03-21T14:09:06Z</time>
      </trkpt>
      <trkpt lat="43.64181" lon="3.25457">
        <ele>223.6</ele>
        <time>2024-03-21T14:09:07Z</time>
      </trkpt>
      <trkpt lat="43.64178" lon="3.25463">
        <ele>222.9</ele>
        <time>2024-03-21T14:09:08Z</time>
      </trkpt>
      <trkpt lat="43.64176" lon="3.2547">
        <ele>222.4</ele>
        <time>2024-03-21T14:09:09Z</time>
      </trkpt>
      <trkpt lat="43.64174" lon="3.25476">
        <ele>222.8</ele>
        <time>2024-03-21T14:09:10Z</time>
      </trkpt>
      <trkpt lat="43.64166" lon="3.25486">
        <ele>223.4</ele>
        <time>2024-03-21T14:09:12Z</time>
      </trkpt>
      <trkpt lat="43.64163" lon="3.2549">
        <ele>223.7</ele>
        <time>2024-03-21T14:09:13Z</time>
      </trkpt>
      <trkpt lat="43.6416" lon="3.25495">
        <ele>223.9</ele>
        <time>2024-03-21T14:09:14Z</time>
      </trkpt>
      <trkpt lat="43.64157" lon="3.25499">
        <ele>223.8</ele>
        <time>2024-03-21T14:09:15Z</time>
      </trkpt>
      <trkpt lat="43.64155" lon="3.25502">
        <ele>223.7</ele>
        <time>2024-03-21T14:09:16Z</time>
      </trkpt>
      <trkpt lat="43.64152" lon="3.25506">
        <ele>223.6</ele>
        <time>2024-03-21T14:09:17Z</time>
      </trkpt>
      <trkpt lat="43.64146" lon="3.25516">
        <ele>223.4</ele>
        <time>2024-03-21T14:09:19Z</time>
      </trkpt>
      <trkpt lat="43.64144" lon="3.25522">
        <ele>223.6</ele>
        <time>2024-03-21T14:09:20Z</time>
      </trkpt>
      <trkpt lat="43.64142" lon="3.25527">
        <ele>223.7</ele>
        <time>2024-03-21T14:09:21Z</time>
      </trkpt>
      <trkpt lat="43.6414" lon="3.25531">
        <ele>223.5</ele>
        <time>2024-03-21T14:09:22Z</time>
      </trkpt>
      <trkpt lat="43.6414" lon="3.25538">
        <ele>224</ele>
        <time>2024-03-21T14:09:24Z</time>
      </trkpt>
      <trkpt lat="43.64139" lon="3.25541">
        <ele>224</ele>
        <time>2024-03-21T14:09:25Z</time>
      </trkpt>
      <trkpt lat="43.6414" lon="3.25544">
        <ele>224.4</ele>
        <time>2024-03-21T14:09:26Z</time>
      </trkpt>
      <trkpt lat="43.6414" lon="3.25546">
        <ele>224.6</ele>
        <time>2024-03-21T14:09:27Z</time>
      </trkpt>
      <trkpt lat="43.64139" lon="3.25548">
        <ele>224.5</ele>
        <time>2024-03-21T14:09:28Z</time>
      </trkpt>
      <trkpt lat="43.6414" lon="3.25551">
        <ele>224.9</ele>
        <time>2024-03-21T14:09:29Z</time>
      </trkpt>
      <trkpt lat="43.6414" lon="3.25555">
        <ele>225.2</ele>
        <time>2024-03-21T14:09:31Z</time>
      </trkpt>
      <trkpt lat="43.64139" lon="3.25557">
        <ele>225</ele>
        <time>2024-03-21T14:09:32Z</time>
      </trkpt>
      <trkpt lat="43.64139" lon="3.25567">
        <ele>225</ele>
        <time>2024-03-21T14:13:48Z</time>
      </trkpt>
      <trkpt lat="43.64137" lon="3.25568">
        <ele>224.7</ele>
        <time>2024-03-21T14:15:14Z</time>
      </trkpt>
      <trkpt lat="43.64136" lon="3.2557">
        <ele>224.6</ele>
        <time>2024-03-21T14:15:15Z</time>
      </trkpt>
      <trkpt lat="43.64136" lon="3.25572">
        <ele>224.6</ele>
        <time>2024-03-21T14:15:16Z</time>
      </trkpt>
      <trkpt lat="43.64134" lon="3.25575">
        <ele>224.4</ele>
        <time>2024-03-21T14:15:17Z</time>
      </trkpt>
      <trkpt lat="43.64132" lon="3.25579">
        <ele>224.2</ele>
        <time>2024-03-21T14:15:18Z</time>
      </trkpt>
      <trkpt lat="43.6413" lon="3.25584">
        <ele>224</ele>
        <time>2024-03-21T14:15:19Z</time>
      </trkpt>
      <trkpt lat="43.64128" lon="3.25594">
        <ele>224</ele>
        <time>2024-03-21T14:15:21Z</time>
      </trkpt>
      <trkpt lat="43.64126" lon="3.256">
        <ele>223.9</ele>
        <time>2024-03-21T14:15:22Z</time>
      </trkpt>
      <trkpt lat="43.64124" lon="3.25605">
        <ele>223.8</ele>
        <time>2024-03-21T14:15:23Z</time>
      </trkpt>
      <trkpt lat="43.64122" lon="3.25611">
        <ele>223.8</ele>
        <time>2024-03-21T14:15:24Z</time>
      </trkpt>
      <trkpt lat="43.64119" lon="3.25617">
        <ele>224.1</ele>
        <time>2024-03-21T14:15:25Z</time>
      </trkpt>
      <trkpt lat="43.64116" lon="3.25624">
        <ele>224.4</ele>
        <time>2024-03-21T14:15:26Z</time>
      </trkpt>
      <trkpt lat="43.64113" lon="3.2563">
        <ele>224.6</ele>
        <time>2024-03-21T14:15:27Z</time>
      </trkpt>
      <trkpt lat="43.64111" lon="3.25636">
        <ele>224.8</ele>
        <time>2024-03-21T14:15:28Z</time>
      </trkpt>
      <trkpt lat="43.64102" lon="3.25654">
        <ele>224</ele>
        <time>2024-03-21T14:15:31Z</time>
      </trkpt>
      <trkpt lat="43.64099" lon="3.25659">
        <ele>223.7</ele>
        <time>2024-03-21T14:15:32Z</time>
      </trkpt>
      <trkpt lat="43.64095" lon="3.25665">
        <ele>223.4</ele>
        <time>2024-03-21T14:15:33Z</time>
      </trkpt>
      <trkpt lat="43.64092" lon="3.2567">
        <ele>223.1</ele>
        <time>2024-03-21T14:15:34Z</time>
      </trkpt>
      <trkpt lat="43.64088" lon="3.25675">
        <ele>222.6</ele>
        <time>2024-03-21T14:15:35Z</time>
      </trkpt>
      <trkpt lat="43.64078" lon="3.25683">
        <ele>221.6</ele>
        <time>2024-03-21T14:15:37Z</time>
      </trkpt>
      <trkpt lat="43.64068" lon="3.25689">
        <ele>221.1</ele>
        <time>2024-03-21T14:15:39Z</time>
      </trkpt>
      <trkpt lat="43.64062" lon="3.25691">
        <ele>221</ele>
        <time>2024-03-21T14:15:40Z</time>
      </trkpt>
      <trkpt lat="43.64047" lon="3.257">
        <ele>220.7</ele>
        <time>2024-03-21T14:15:43Z</time>
      </trkpt>
      <trkpt lat="43.64041" lon="3.25702">
        <ele>220.5</ele>
        <time>2024-03-21T14:15:44Z</time>
      </trkpt>
      <trkpt lat="43.64036" lon="3.25705">
        <ele>220.3</ele>
        <time>2024-03-21T14:15:45Z</time>
      </trkpt>
      <trkpt lat="43.6403" lon="3.25708">
        <ele>220.1</ele>
        <time>2024-03-21T14:15:46Z</time>
      </trkpt>
      <trkpt lat="43.64025" lon="3.25711">
        <ele>219.9</ele>
        <time>2024-03-21T14:15:47Z</time>
      </trkpt>
      <trkpt lat="43.64019" lon="3.25714">
        <ele>219.7</ele>
        <time>2024-03-21T14:15:48Z</time>
      </trkpt>
      <trkpt lat="43.64013" lon="3.25716">
        <ele>219.5</ele>
        <time>2024-03-21T14:15:49Z</time>
      </trkpt>
      <trkpt lat="43.64008" lon="3.2572">
        <ele>219.3</ele>
        <time>2024-03-21T14:15:50Z</time>
      </trkpt>
      <trkpt lat="43.63984" lon="3.25732">
        <ele>218.6</ele>
        <time>2024-03-21T14:15:54Z</time>
      </trkpt>
      <trkpt lat="43.63974" lon="3.25738">
        <ele>218.6</ele>
        <time>2024-03-21T14:15:56Z</time>
      </trkpt>
      <trkpt lat="43.63968" lon="3.2574">
        <ele>218.6</ele>
        <time>2024-03-21T14:15:57Z</time>
      </trkpt>
      <trkpt lat="43.63958" lon="3.25746">
        <ele>218.9</ele>
        <time>2024-03-21T14:15:59Z</time>
      </trkpt>
      <trkpt lat="43.63954" lon="3.25748">
        <ele>218.9</ele>
        <time>2024-03-21T14:16:00Z</time>
      </trkpt>
      <trkpt lat="43.63924" lon="3.25766">
        <ele>219.3</ele>
        <time>2024-03-21T14:16:06Z</time>
      </trkpt>
      <trkpt lat="43.63919" lon="3.25768">
        <ele>219.3</ele>
        <time>2024-03-21T14:16:07Z</time>
      </trkpt>
      <trkpt lat="43.63909" lon="3.25774">
        <ele>219.5</ele>
        <time>2024-03-21T14:16:09Z</time>
      </trkpt>
      <trkpt lat="43.63904" lon="3.25776">
        <ele>219.4</ele>
        <time>2024-03-21T14:16:10Z</time>
      </trkpt>
      <trkpt lat="43.63899" lon="3.25779">
        <ele>219.5</ele>
        <time>2024-03-21T14:16:11Z</time>
      </trkpt>
      <trkpt lat="43.63894" lon="3.25781">
        <ele>219.5</ele>
        <time>2024-03-21T14:16:12Z</time>
      </trkpt>
      <trkpt lat="43.6389" lon="3.25784">
        <ele>219.5</ele>
        <time>2024-03-21T14:16:13Z</time>
      </trkpt>
      <trkpt lat="43.63885" lon="3.25786">
        <ele>219.3</ele>
        <time>2024-03-21T14:16:14Z</time>
      </trkpt>
      <trkpt lat="43.63877" lon="3.2579">
        <ele>219</ele>
        <time>2024-03-21T14:16:16Z</time>
      </trkpt>
      <trkpt lat="43.63872" lon="3.25791">
        <ele>218.7</ele>
        <time>2024-03-21T14:16:17Z</time>
      </trkpt>
      <trkpt lat="43.63868" lon="3.25793">
        <ele>218.6</ele>
        <time>2024-03-21T14:16:18Z</time>
      </trkpt>
      <trkpt lat="43.63863" lon="3.25794">
        <ele>218.3</ele>
        <time>2024-03-21T14:16:19Z</time>
      </trkpt>
      <trkpt lat="43.63858" lon="3.25796">
        <ele>218.2</ele>
        <time>2024-03-21T14:16:20Z</time>
      </trkpt>
      <trkpt lat="43.63848" lon="3.25798">
        <ele>218</ele>
        <time>2024-03-21T14:16:22Z</time>
      </trkpt>
      <trkpt lat="43.63844" lon="3.258">
        <ele>218</ele>
        <time>2024-03-21T14:16:23Z</time>
      </trkpt>
      <trkpt lat="43.63839" lon="3.25801">
        <ele>217.9</ele>
        <time>2024-03-21T14:16:24Z</time>
      </trkpt>
      <trkpt lat="43.63834" lon="3.25803">
        <ele>217.8</ele>
        <time>2024-03-21T14:16:25Z</time>
      </trkpt>
      <trkpt lat="43.6383" lon="3.25805">
        <ele>217.8</ele>
        <time>2024-03-21T14:16:26Z</time>
      </trkpt>
      <trkpt lat="43.63825" lon="3.25807">
        <ele>217.8</ele>
        <time>2024-03-21T14:16:27Z</time>
      </trkpt>
      <trkpt lat="43.63815" lon="3.25809">
        <ele>217.6</ele>
        <time>2024-03-21T14:16:29Z</time>
      </trkpt>
      <trkpt lat="43.6381" lon="3.25811">
        <ele>217.6</ele>
        <time>2024-03-21T14:16:30Z</time>
      </trkpt>
      <trkpt lat="43.63805" lon="3.25812">
        <ele>217.4</ele>
        <time>2024-03-21T14:16:31Z</time>
      </trkpt>
      <trkpt lat="43.638" lon="3.25814">
        <ele>217.3</ele>
        <time>2024-03-21T14:16:32Z</time>
      </trkpt>
      <trkpt lat="43.63796" lon="3.25815">
        <ele>217.2</ele>
        <time>2024-03-21T14:16:33Z</time>
      </trkpt>
      <trkpt lat="43.63791" lon="3.25817">
        <ele>217.1</ele>
        <time>2024-03-21T14:16:34Z</time>
      </trkpt>
      <trkpt lat="43.63787" lon="3.25818">
        <ele>216.9</ele>
        <time>2024-03-21T14:16:35Z</time>
      </trkpt>
      <trkpt lat="43.63783" lon="3.2582">
        <ele>216.8</ele>
        <time>2024-03-21T14:16:36Z</time>
      </trkpt>
      <trkpt lat="43.63778" lon="3.25821">
        <ele>216.6</ele>
        <time>2024-03-21T14:16:37Z</time>
      </trkpt>
      <trkpt lat="43.63774" lon="3.25822">
        <ele>216.6</ele>
        <time>2024-03-21T14:16:38Z</time>
      </trkpt>
      <trkpt lat="43.63769" lon="3.25823">
        <ele>216.7</ele>
        <time>2024-03-21T14:16:39Z</time>
      </trkpt>
      <trkpt lat="43.63764" lon="3.25825">
        <ele>216.9</ele>
        <time>2024-03-21T14:16:40Z</time>
      </trkpt>
      <trkpt lat="43.6376" lon="3.25826">
        <ele>217</ele>
        <time>2024-03-21T14:16:41Z</time>
      </trkpt>
      <trkpt lat="43.63755" lon="3.25827">
        <ele>217.2</ele>
        <time>2024-03-21T14:16:42Z</time>
      </trkpt>
      <trkpt lat="43.63751" lon="3.25828">
        <ele>217.4</ele>
        <time>2024-03-21T14:16:43Z</time>
      </trkpt>
      <trkpt lat="43.63747" lon="3.2583">
        <ele>217.4</ele>
        <time>2024-03-21T14:16:44Z</time>
      </trkpt>
      <trkpt lat="43.63742" lon="3.25832">
        <ele>217.3</ele>
        <time>2024-03-21T14:16:45Z</time>
      </trkpt>
      <trkpt lat="43.63738" lon="3.25833">
        <ele>217.1</ele>
        <time>2024-03-21T14:16:46Z</time>
      </trkpt>
      <trkpt lat="43.63733" lon="3.25835">
        <ele>216.9</ele>
        <time>2024-03-21T14:16:47Z</time>
      </trkpt>
      <trkpt lat="43.63725" lon="3.25841">
        <ele>216.7</ele>
        <time>2024-03-21T14:16:49Z</time>
      </trkpt>
      <trkpt lat="43.63721" lon="3.25845">
        <ele>216.7</ele>
        <time>2024-03-21T14:16:50Z</time>
      </trkpt>
      <trkpt lat="43.63718" lon="3.2585">
        <ele>216.8</ele>
        <time>2024-03-21T14:16:51Z</time>
      </trkpt>
      <trkpt lat="43.63714" lon="3.25855">
        <ele>216.7</ele>
        <time>2024-03-21T14:16:52Z</time>
      </trkpt>
      <trkpt lat="43.63711" lon="3.2586">
        <ele>216.7</ele>
        <time>2024-03-21T14:16:53Z</time>
      </trkpt>
      <trkpt lat="43.63705" lon="3.25872">
        <ele>216.4</ele>
        <time>2024-03-21T14:16:55Z</time>
      </trkpt>
      <trkpt lat="43.63702" lon="3.25877">
        <ele>216.2</ele>
        <time>2024-03-21T14:16:56Z</time>
      </trkpt>
      <trkpt lat="43.63698" lon="3.25883">
        <ele>216.1</ele>
        <time>2024-03-21T14:16:57Z</time>
      </trkpt>
      <trkpt lat="43.63695" lon="3.25888">
        <ele>216</ele>
        <time>2024-03-21T14:16:58Z</time>
      </trkpt>
      <trkpt lat="43.63692" lon="3.25894">
        <ele>215.9</ele>
        <time>2024-03-21T14:16:59Z</time>
      </trkpt>
      <trkpt lat="43.6369" lon="3.25899">
        <ele>215.9</ele>
        <time>2024-03-21T14:17:00Z</time>
      </trkpt>
      <trkpt lat="43.63687" lon="3.25905">
        <ele>215.9</ele>
        <time>2024-03-21T14:17:01Z</time>
      </trkpt>
      <trkpt lat="43.63684" lon="3.2591">
        <ele>215.9</ele>
        <time>2024-03-21T14:17:02Z</time>
      </trkpt>
      <trkpt lat="43.6368" lon="3.25916">
        <ele>215.9</ele>
        <time>2024-03-21T14:17:03Z</time>
      </trkpt>
      <trkpt lat="43.63677" lon="3.25921">
        <ele>215.8</ele>
        <time>2024-03-21T14:17:04Z</time>
      </trkpt>
      <trkpt lat="43.63674" lon="3.25927">
        <ele>215.8</ele>
        <time>2024-03-21T14:17:05Z</time>
      </trkpt>
      <trkpt lat="43.63671" lon="3.25932">
        <ele>215.8</ele>
        <time>2024-03-21T14:17:06Z</time>
      </trkpt>
      <trkpt lat="43.63668" lon="3.25938">
        <ele>215.8</ele>
        <time>2024-03-21T14:17:07Z</time>
      </trkpt>
      <trkpt lat="43.63666" lon="3.25943">
        <ele>215.9</ele>
        <time>2024-03-21T14:17:08Z</time>
      </trkpt>
      <trkpt lat="43.63662" lon="3.25949">
        <ele>216.4</ele>
        <time>2024-03-21T14:17:09Z</time>
      </trkpt>
      <trkpt lat="43.63656" lon="3.25959">
        <ele>217.2</ele>
        <time>2024-03-21T14:17:11Z</time>
      </trkpt>
      <trkpt lat="43.63651" lon="3.25963">
        <ele>217.1</ele>
        <time>2024-03-21T14:17:12Z</time>
      </trkpt>
      <trkpt lat="43.63647" lon="3.25967">
        <ele>216.9</ele>
        <time>2024-03-21T14:17:13Z</time>
      </trkpt>
      <trkpt lat="43.63642" lon="3.25971">
        <ele>216.5</ele>
        <time>2024-03-21T14:17:14Z</time>
      </trkpt>
      <trkpt lat="43.63638" lon="3.25975">
        <ele>216.2</ele>
        <time>2024-03-21T14:17:15Z</time>
      </trkpt>
      <trkpt lat="43.63623" lon="3.25984">
        <ele>216.1</ele>
        <time>2024-03-21T14:17:18Z</time>
      </trkpt>
      <trkpt lat="43.63619" lon="3.25987">
        <ele>216.2</ele>
        <time>2024-03-21T14:17:19Z</time>
      </trkpt>
      <trkpt lat="43.63614" lon="3.25991">
        <ele>216.2</ele>
        <time>2024-03-21T14:17:20Z</time>
      </trkpt>
      <trkpt lat="43.63609" lon="3.25994">
        <ele>216.1</ele>
        <time>2024-03-21T14:17:21Z</time>
      </trkpt>
      <trkpt lat="43.63594" lon="3.26006">
        <ele>215.5</ele>
        <time>2024-03-21T14:17:24Z</time>
      </trkpt>
      <trkpt lat="43.63579" lon="3.26015">
        <ele>214.3</ele>
        <time>2024-03-21T14:17:27Z</time>
      </trkpt>
      <trkpt lat="43.63574" lon="3.26017">
        <ele>214.1</ele>
        <time>2024-03-21T14:17:28Z</time>
      </trkpt>
      <trkpt lat="43.63569" lon="3.2602">
        <ele>214.1</ele>
        <time>2024-03-21T14:17:29Z</time>
      </trkpt>
      <trkpt lat="43.63559" lon="3.26024">
        <ele>213.9</ele>
        <time>2024-03-21T14:17:31Z</time>
      </trkpt>
      <trkpt lat="43.63553" lon="3.26027">
        <ele>213.8</ele>
        <time>2024-03-21T14:17:32Z</time>
      </trkpt>
      <trkpt lat="43.63548" lon="3.26029">
        <ele>213.6</ele>
        <time>2024-03-21T14:17:33Z</time>
      </trkpt>
      <trkpt lat="43.63538" lon="3.26035">
        <ele>213.5</ele>
        <time>2024-03-21T14:17:35Z</time>
      </trkpt>
      <trkpt lat="43.63532" lon="3.26037">
        <ele>213.3</ele>
        <time>2024-03-21T14:17:36Z</time>
      </trkpt>
      <trkpt lat="43.63527" lon="3.2604">
        <ele>213.3</ele>
        <time>2024-03-21T14:17:37Z</time>
      </trkpt>
      <trkpt lat="43.6352" lon="3.26043">
        <ele>213.4</ele>
        <time>2024-03-21T14:17:38Z</time>
      </trkpt>
      <trkpt lat="43.63515" lon="3.26045">
        <ele>213.4</ele>
        <time>2024-03-21T14:17:39Z</time>
      </trkpt>
      <trkpt lat="43.63509" lon="3.26047">
        <ele>213.4</ele>
        <time>2024-03-21T14:17:40Z</time>
      </trkpt>
      <trkpt lat="43.63503" lon="3.2605">
        <ele>213.5</ele>
        <time>2024-03-21T14:17:41Z</time>
      </trkpt>
      <trkpt lat="43.63497" lon="3.26052">
        <ele>213.5</ele>
        <time>2024-03-21T14:17:42Z</time>
      </trkpt>
      <trkpt lat="43.6349" lon="3.26055">
        <ele>213.6</ele>
        <time>2024-03-21T14:17:43Z</time>
      </trkpt>
      <trkpt lat="43.63484" lon="3.26058">
        <ele>213.8</ele>
        <time>2024-03-21T14:17:44Z</time>
      </trkpt>
      <trkpt lat="43.63479" lon="3.26061">
        <ele>214.1</ele>
        <time>2024-03-21T14:17:45Z</time>
      </trkpt>
      <trkpt lat="43.63473" lon="3.26064">
        <ele>214.3</ele>
        <time>2024-03-21T14:17:46Z</time>
      </trkpt>
      <trkpt lat="43.63468" lon="3.26067">
        <ele>214.2</ele>
        <time>2024-03-21T14:17:47Z</time>
      </trkpt>
      <trkpt lat="43.63462" lon="3.2607">
        <ele>214</ele>
        <time>2024-03-21T14:17:48Z</time>
      </trkpt>
      <trkpt lat="43.63458" lon="3.26074">
        <ele>214</ele>
        <time>2024-03-21T14:17:49Z</time>
      </trkpt>
      <trkpt lat="43.63452" lon="3.26077">
        <ele>213.5</ele>
        <time>2024-03-21T14:17:50Z</time>
      </trkpt>
      <trkpt lat="43.63447" lon="3.2608">
        <ele>213.1</ele>
        <time>2024-03-21T14:17:51Z</time>
      </trkpt>
      <trkpt lat="43.63442" lon="3.26084">
        <ele>212.7</ele>
        <time>2024-03-21T14:17:52Z</time>
      </trkpt>
      <trkpt lat="43.63436" lon="3.26087">
        <ele>212</ele>
        <time>2024-03-21T14:17:53Z</time>
      </trkpt>
      <trkpt lat="43.63426" lon="3.26095">
        <ele>211.2</ele>
        <time>2024-03-21T14:17:55Z</time>
      </trkpt>
      <trkpt lat="43.6342" lon="3.26099">
        <ele>210.6</ele>
        <time>2024-03-21T14:17:56Z</time>
      </trkpt>
      <trkpt lat="43.63415" lon="3.26103">
        <ele>210.2</ele>
        <time>2024-03-21T14:17:57Z</time>
      </trkpt>
      <trkpt lat="43.63403" lon="3.26113">
        <ele>209.5</ele>
        <time>2024-03-21T14:17:59Z</time>
      </trkpt>
      <trkpt lat="43.63396" lon="3.26117">
        <ele>208.6</ele>
        <time>2024-03-21T14:18:00Z</time>
      </trkpt>
      <trkpt lat="43.6339" lon="3.2612">
        <ele>207.8</ele>
        <time>2024-03-21T14:18:01Z</time>
      </trkpt>
      <trkpt lat="43.63376" lon="3.26126">
        <ele>206.6</ele>
        <time>2024-03-21T14:18:03Z</time>
      </trkpt>
      <trkpt lat="43.63368" lon="3.26129">
        <ele>206.1</ele>
        <time>2024-03-21T14:18:04Z</time>
      </trkpt>
      <trkpt lat="43.63361" lon="3.26133">
        <ele>205.8</ele>
        <time>2024-03-21T14:18:05Z</time>
      </trkpt>
      <trkpt lat="43.63347" lon="3.26139">
        <ele>206</ele>
        <time>2024-03-21T14:18:07Z</time>
      </trkpt>
      <trkpt lat="43.6334" lon="3.26143">
        <ele>206</ele>
        <time>2024-03-21T14:18:08Z</time>
      </trkpt>
      <trkpt lat="43.63332" lon="3.26146">
        <ele>205.9</ele>
        <time>2024-03-21T14:18:09Z</time>
      </trkpt>
      <trkpt lat="43.63325" lon="3.26149">
        <ele>205.3</ele>
        <time>2024-03-21T14:18:10Z</time>
      </trkpt>
      <trkpt lat="43.63318" lon="3.26153">
        <ele>204.9</ele>
        <time>2024-03-21T14:18:11Z</time>
      </trkpt>
      <trkpt lat="43.63311" lon="3.26156">
        <ele>204.6</ele>
        <time>2024-03-21T14:18:12Z</time>
      </trkpt>
      <trkpt lat="43.63304" lon="3.2616">
        <ele>204.5</ele>
        <time>2024-03-21T14:18:13Z</time>
      </trkpt>
      <trkpt lat="43.6329" lon="3.26166">
        <ele>204.4</ele>
        <time>2024-03-21T14:18:15Z</time>
      </trkpt>
      <trkpt lat="43.63284" lon="3.2617">
        <ele>204.3</ele>
        <time>2024-03-21T14:18:16Z</time>
      </trkpt>
      <trkpt lat="43.63277" lon="3.26173">
        <ele>204.2</ele>
        <time>2024-03-21T14:18:17Z</time>
      </trkpt>
      <trkpt lat="43.63271" lon="3.26176">
        <ele>204.3</ele>
        <time>2024-03-21T14:18:18Z</time>
      </trkpt>
      <trkpt lat="43.63241" lon="3.26196">
        <ele>203.7</ele>
        <time>2024-03-21T14:18:23Z</time>
      </trkpt>
      <trkpt lat="43.63235" lon="3.26199">
        <ele>203.6</ele>
        <time>2024-03-21T14:18:24Z</time>
      </trkpt>
      <trkpt lat="43.63225" lon="3.26207">
        <ele>203.6</ele>
        <time>2024-03-21T14:18:26Z</time>
      </trkpt>
      <trkpt lat="43.63221" lon="3.26211">
        <ele>203.6</ele>
        <time>2024-03-21T14:18:27Z</time>
      </trkpt>
      <trkpt lat="43.63216" lon="3.26213">
        <ele>203.5</ele>
        <time>2024-03-21T14:18:28Z</time>
      </trkpt>
      <trkpt lat="43.63213" lon="3.26216">
        <ele>203.6</ele>
        <time>2024-03-21T14:18:29Z</time>
      </trkpt>
      <trkpt lat="43.6321" lon="3.26218">
        <ele>203.7</ele>
        <time>2024-03-21T14:18:30Z</time>
      </trkpt>
      <trkpt lat="43.63209" lon="3.26218">
        <ele>203.7</ele>
        <time>2024-03-21T14:18:31Z</time>
      </trkpt>
      <trkpt lat="43.63208" lon="3.26215">
        <ele>203.5</ele>
        <time>2024-03-21T14:18:32Z</time>
      </trkpt>
      <trkpt lat="43.63208" lon="3.26212">
        <ele>203.3</ele>
        <time>2024-03-21T14:18:33Z</time>
      </trkpt>
      <trkpt lat="43.63211" lon="3.2621">
        <ele>203.2</ele>
        <time>2024-03-21T14:18:34Z</time>
      </trkpt>
      <trkpt lat="43.63213" lon="3.26207">
        <ele>203.1</ele>
        <time>2024-03-21T14:18:35Z</time>
      </trkpt>
      <trkpt lat="43.63216" lon="3.26203">
        <ele>203</ele>
        <time>2024-03-21T14:18:36Z</time>
      </trkpt>
      <trkpt lat="43.63219" lon="3.26198">
        <ele>202.9</ele>
        <time>2024-03-21T14:18:37Z</time>
      </trkpt>
      <trkpt lat="43.63223" lon="3.26193">
        <ele>203</ele>
        <time>2024-03-21T14:18:38Z</time>
      </trkpt>
      <trkpt lat="43.63225" lon="3.26189">
        <ele>203.1</ele>
        <time>2024-03-21T14:18:39Z</time>
      </trkpt>
      <trkpt lat="43.63231" lon="3.26181">
        <ele>203.3</ele>
        <time>2024-03-21T14:18:41Z</time>
      </trkpt>
      <trkpt lat="43.63233" lon="3.26178">
        <ele>203.4</ele>
        <time>2024-03-21T14:18:42Z</time>
      </trkpt>
      <trkpt lat="43.63236" lon="3.26175">
        <ele>203.5</ele>
        <time>2024-03-21T14:18:43Z</time>
      </trkpt>
      <trkpt lat="43.63237" lon="3.26173">
        <ele>203.5</ele>
        <time>2024-03-21T14:18:44Z</time>
      </trkpt>
      <trkpt lat="43.63239" lon="3.2617">
        <ele>203.6</ele>
        <time>2024-03-21T14:18:45Z</time>
      </trkpt>
      <trkpt lat="43.63241" lon="3.26168">
        <ele>203.7</ele>
        <time>2024-03-21T14:18:46Z</time>
      </trkpt>
      <trkpt lat="43.63243" lon="3.26165">
        <ele>203.8</ele>
        <time>2024-03-21T14:18:47Z</time>
      </trkpt>
      <trkpt lat="43.6325" lon="3.26158">
        <ele>204</ele>
        <time>2024-03-21T14:18:50Z</time>
      </trkpt>
      <trkpt lat="43.63256" lon="3.26154">
        <ele>203.9</ele>
        <time>2024-03-21T14:18:52Z</time>
      </trkpt>
      <trkpt lat="43.63272" lon="3.26142">
        <ele>203.3</ele>
        <time>2024-03-21T14:18:56Z</time>
      </trkpt>
      <trkpt lat="43.63275" lon="3.26138">
        <ele>203.2</ele>
        <time>2024-03-21T14:18:57Z</time>
      </trkpt>
      <trkpt lat="43.6328" lon="3.26133">
        <ele>203.4</ele>
        <time>2024-03-21T14:18:59Z</time>
      </trkpt>
      <trkpt lat="43.63284" lon="3.26131">
        <ele>203.6</ele>
        <time>2024-03-21T14:19:00Z</time>
      </trkpt>
      <trkpt lat="43.6329" lon="3.26125">
        <ele>204</ele>
        <time>2024-03-21T14:19:02Z</time>
      </trkpt>
      <trkpt lat="43.63299" lon="3.26119">
        <ele>204.4</ele>
        <time>2024-03-21T14:19:05Z</time>
      </trkpt>
      <trkpt lat="43.63301" lon="3.26115">
        <ele>204.7</ele>
        <time>2024-03-21T14:19:06Z</time>
      </trkpt>
      <trkpt lat="43.63304" lon="3.26113">
        <ele>204.9</ele>
        <time>2024-03-21T14:19:07Z</time>
      </trkpt>
      <trkpt lat="43.63306" lon="3.26111">
        <ele>205</ele>
        <time>2024-03-21T14:19:08Z</time>
      </trkpt>
      <trkpt lat="43.63312" lon="3.26107">
        <ele>204.8</ele>
        <time>2024-03-21T14:19:10Z</time>
      </trkpt>
      <trkpt lat="43.63314" lon="3.26105">
        <ele>204.8</ele>
        <time>2024-03-21T14:19:11Z</time>
      </trkpt>
      <trkpt lat="43.63316" lon="3.26104">
        <ele>204.8</ele>
        <time>2024-03-21T14:19:12Z</time>
      </trkpt>
      <trkpt lat="43.6332" lon="3.26098">
        <ele>205</ele>
        <time>2024-03-21T14:19:14Z</time>
      </trkpt>
      <trkpt lat="43.63322" lon="3.2609">
        <ele>205.3</ele>
        <time>2024-03-21T14:19:16Z</time>
      </trkpt>
      <trkpt lat="43.63322" lon="3.26078">
        <ele>205.7</ele>
        <time>2024-03-21T14:19:19Z</time>
      </trkpt>
      <trkpt lat="43.63321" lon="3.26074">
        <ele>205.7</ele>
        <time>2024-03-21T14:19:20Z</time>
      </trkpt>
      <trkpt lat="43.63321" lon="3.26066">
        <ele>205.8</ele>
        <time>2024-03-21T14:19:22Z</time>
      </trkpt>
      <trkpt lat="43.6332" lon="3.26062">
        <ele>205.9</ele>
        <time>2024-03-21T14:19:23Z</time>
      </trkpt>
      <trkpt lat="43.63314" lon="3.26053">
        <ele>206.1</ele>
        <time>2024-03-21T14:19:26Z</time>
      </trkpt>
      <trkpt lat="43.6331" lon="3.26049">
        <ele>206.2</ele>
        <time>2024-03-21T14:19:28Z</time>
      </trkpt>
      <trkpt lat="43.63308" lon="3.26046">
        <ele>206.3</ele>
        <time>2024-03-21T14:19:29Z</time>
      </trkpt>
      <trkpt lat="43.63301" lon="3.26039">
        <ele>206.8</ele>
        <time>2024-03-21T14:19:32Z</time>
      </trkpt>
      <trkpt lat="43.63299" lon="3.26036">
        <ele>206.9</ele>
        <time>2024-03-21T14:19:33Z</time>
      </trkpt>
      <trkpt lat="43.63297" lon="3.26034">
        <ele>207.1</ele>
        <time>2024-03-21T14:19:34Z</time>
      </trkpt>
      <trkpt lat="43.63295" lon="3.26031">
        <ele>207.3</ele>
        <time>2024-03-21T14:19:35Z</time>
      </trkpt>
      <trkpt lat="43.63294" lon="3.26028">
        <ele>207.4</ele>
        <time>2024-03-21T14:19:36Z</time>
      </trkpt>
      <trkpt lat="43.63292" lon="3.26025">
        <ele>207.5</ele>
        <time>2024-03-21T14:19:37Z</time>
      </trkpt>
      <trkpt lat="43.6329" lon="3.26023">
        <ele>207.7</ele>
        <time>2024-03-21T14:19:38Z</time>
      </trkpt>
      <trkpt lat="43.63288" lon="3.2602">
        <ele>207.8</ele>
        <time>2024-03-21T14:19:39Z</time>
      </trkpt>
      <trkpt lat="43.63284" lon="3.26016">
        <ele>208.1</ele>
        <time>2024-03-21T14:19:41Z</time>
      </trkpt>
      <trkpt lat="43.63282" lon="3.26013">
        <ele>208.3</ele>
        <time>2024-03-21T14:19:42Z</time>
      </trkpt>
      <trkpt lat="43.63281" lon="3.2601">
        <ele>208.4</ele>
        <time>2024-03-21T14:19:43Z</time>
      </trkpt>
      <trkpt lat="43.63269" lon="3.25998">
        <ele>209.3</ele>
        <time>2024-03-21T14:19:48Z</time>
      </trkpt>
      <trkpt lat="43.63267" lon="3.25995">
        <ele>209.5</ele>
        <time>2024-03-21T14:19:49Z</time>
      </trkpt>
      <trkpt lat="43.63264" lon="3.25993">
        <ele>209.6</ele>
        <time>2024-03-21T14:19:50Z</time>
      </trkpt>
      <trkpt lat="43.63262" lon="3.25992">
        <ele>209.7</ele>
        <time>2024-03-21T14:19:51Z</time>
      </trkpt>
      <trkpt lat="43.63259" lon="3.2599">
        <ele>209.9</ele>
        <time>2024-03-21T14:19:52Z</time>
      </trkpt>
      <trkpt lat="43.63257" lon="3.25989">
        <ele>210</ele>
        <time>2024-03-21T14:19:53Z</time>
      </trkpt>
      <trkpt lat="43.63254" lon="3.25987">
        <ele>210.3</ele>
        <time>2024-03-21T14:19:54Z</time>
      </trkpt>
      <trkpt lat="43.63251" lon="3.25987">
        <ele>210.4</ele>
        <time>2024-03-21T14:19:55Z</time>
      </trkpt>
      <trkpt lat="43.63248" lon="3.25986">
        <ele>210.7</ele>
        <time>2024-03-21T14:19:56Z</time>
      </trkpt>
      <trkpt lat="43.63245" lon="3.25986">
        <ele>211</ele>
        <time>2024-03-21T14:19:57Z</time>
      </trkpt>
      <trkpt lat="43.63243" lon="3.25987">
        <ele>211.2</ele>
        <time>2024-03-21T14:19:58Z</time>
      </trkpt>
      <trkpt lat="43.63239" lon="3.25986">
        <ele>211.7</ele>
        <time>2024-03-21T14:19:59Z</time>
      </trkpt>
      <trkpt lat="43.63231" lon="3.25986">
        <ele>212.6</ele>
        <time>2024-03-21T14:20:02Z</time>
      </trkpt>
      <trkpt lat="43.63229" lon="3.25985">
        <ele>212.7</ele>
        <time>2024-03-21T14:20:03Z</time>
      </trkpt>
      <trkpt lat="43.63224" lon="3.25985">
        <ele>213.3</ele>
        <time>2024-03-21T14:20:05Z</time>
      </trkpt>
      <trkpt lat="43.63218" lon="3.25983">
        <ele>213.3</ele>
        <time>2024-03-21T14:20:07Z</time>
      </trkpt>
      <trkpt lat="43.63216" lon="3.25982">
        <ele>213.2</ele>
        <time>2024-03-21T14:20:08Z</time>
      </trkpt>
      <trkpt lat="43.63214" lon="3.2598">
        <ele>213.1</ele>
        <time>2024-03-21T14:20:09Z</time>
      </trkpt>
      <trkpt lat="43.6321" lon="3.25974">
        <ele>213</ele>
        <time>2024-03-21T14:20:11Z</time>
      </trkpt>
      <trkpt lat="43.63208" lon="3.25972">
        <ele>213</ele>
        <time>2024-03-21T14:20:12Z</time>
      </trkpt>
      <trkpt lat="43.63206" lon="3.25969">
        <ele>213.1</ele>
        <time>2024-03-21T14:20:13Z</time>
      </trkpt>
      <trkpt lat="43.632" lon="3.25963">
        <ele>213.3</ele>
        <time>2024-03-21T14:20:15Z</time>
      </trkpt>
      <trkpt lat="43.63198" lon="3.25962">
        <ele>213.3</ele>
        <time>2024-03-21T14:20:16Z</time>
      </trkpt>
      <trkpt lat="43.63194" lon="3.25958">
        <ele>213.5</ele>
        <time>2024-03-21T14:20:18Z</time>
      </trkpt>
      <trkpt lat="43.6319" lon="3.25957">
        <ele>213.5</ele>
        <time>2024-03-21T14:20:19Z</time>
      </trkpt>
      <trkpt lat="43.63187" lon="3.25955">
        <ele>213.5</ele>
        <time>2024-03-21T14:20:20Z</time>
      </trkpt>
      <trkpt lat="43.63185" lon="3.25953">
        <ele>213.6</ele>
        <time>2024-03-21T14:20:21Z</time>
      </trkpt>
      <trkpt lat="43.63182" lon="3.25951">
        <ele>213.7</ele>
        <time>2024-03-21T14:20:22Z</time>
      </trkpt>
      <trkpt lat="43.63179" lon="3.2595">
        <ele>213.7</ele>
        <time>2024-03-21T14:20:23Z</time>
      </trkpt>
      <trkpt lat="43.63177" lon="3.25948">
        <ele>213.8</ele>
        <time>2024-03-21T14:20:24Z</time>
      </trkpt>
      <trkpt lat="43.63174" lon="3.25947">
        <ele>213.8</ele>
        <time>2024-03-21T14:20:25Z</time>
      </trkpt>
      <trkpt lat="43.63172" lon="3.25945">
        <ele>214</ele>
        <time>2024-03-21T14:20:26Z</time>
      </trkpt>
      <trkpt lat="43.63169" lon="3.25944">
        <ele>214</ele>
        <time>2024-03-21T14:20:27Z</time>
      </trkpt>
      <trkpt lat="43.63167" lon="3.25943">
        <ele>214.1</ele>
        <time>2024-03-21T14:20:28Z</time>
      </trkpt>
      <trkpt lat="43.63164" lon="3.25941">
        <ele>214.2</ele>
        <time>2024-03-21T14:20:29Z</time>
      </trkpt>
      <trkpt lat="43.63162" lon="3.2594">
        <ele>214.3</ele>
        <time>2024-03-21T14:20:30Z</time>
      </trkpt>
      <trkpt lat="43.63156" lon="3.25938">
        <ele>214.6</ele>
        <time>2024-03-21T14:20:32Z</time>
      </trkpt>
      <trkpt lat="43.63154" lon="3.25938">
        <ele>214.7</ele>
        <time>2024-03-21T14:20:33Z</time>
      </trkpt>
      <trkpt lat="43.63148" lon="3.25936">
        <ele>215</ele>
        <time>2024-03-21T14:20:35Z</time>
      </trkpt>
      <trkpt lat="43.63146" lon="3.25935">
        <ele>215.1</ele>
        <time>2024-03-21T14:20:36Z</time>
      </trkpt>
      <trkpt lat="43.63143" lon="3.25935">
        <ele>215.2</ele>
        <time>2024-03-21T14:20:37Z</time>
      </trkpt>
      <trkpt lat="43.6314" lon="3.25934">
        <ele>215.3</ele>
        <time>2024-03-21T14:20:38Z</time>
      </trkpt>
      <trkpt lat="43.63138" lon="3.25933">
        <ele>215.4</ele>
        <time>2024-03-21T14:20:39Z</time>
      </trkpt>
      <trkpt lat="43.63135" lon="3.25932">
        <ele>215.4</ele>
        <time>2024-03-21T14:20:40Z</time>
      </trkpt>
      <trkpt lat="43.63133" lon="3.25931">
        <ele>215.4</ele>
        <time>2024-03-21T14:20:41Z</time>
      </trkpt>
      <trkpt lat="43.6313" lon="3.2593">
        <ele>215.4</ele>
        <time>2024-03-21T14:20:42Z</time>
      </trkpt>
      <trkpt lat="43.63128" lon="3.25929">
        <ele>215.4</ele>
        <time>2024-03-21T14:20:43Z</time>
      </trkpt>
      <trkpt lat="43.63126" lon="3.25927">
        <ele>215.5</ele>
        <time>2024-03-21T14:20:44Z</time>
      </trkpt>
      <trkpt lat="43.63123" lon="3.25926">
        <ele>215.5</ele>
        <time>2024-03-21T14:20:45Z</time>
      </trkpt>
      <trkpt lat="43.63121" lon="3.25925">
        <ele>215.5</ele>
        <time>2024-03-21T14:20:46Z</time>
      </trkpt>
      <trkpt lat="43.63119" lon="3.25923">
        <ele>215.6</ele>
        <time>2024-03-21T14:20:47Z</time>
      </trkpt>
      <trkpt lat="43.63117" lon="3.25922">
        <ele>215.7</ele>
        <time>2024-03-21T14:20:48Z</time>
      </trkpt>
      <trkpt lat="43.63116" lon="3.2592">
        <ele>215.8</ele>
        <time>2024-03-21T14:20:49Z</time>
      </trkpt>
      <trkpt lat="43.63112" lon="3.25916">
        <ele>216</ele>
        <time>2024-03-21T14:20:51Z</time>
      </trkpt>
      <trkpt lat="43.6311" lon="3.2591">
        <ele>216.2</ele>
        <time>2024-03-21T14:20:53Z</time>
      </trkpt>
      <trkpt lat="43.6311" lon="3.25906">
        <ele>216.4</ele>
        <time>2024-03-21T14:20:54Z</time>
      </trkpt>
      <trkpt lat="43.63111" lon="3.25902">
        <ele>216.5</ele>
        <time>2024-03-21T14:20:55Z</time>
      </trkpt>
      <trkpt lat="43.63112" lon="3.25899">
        <ele>216.6</ele>
        <time>2024-03-21T14:20:56Z</time>
      </trkpt>
      <trkpt lat="43.63113" lon="3.25897">
        <ele>216.7</ele>
        <time>2024-03-21T14:20:57Z</time>
      </trkpt>
      <trkpt lat="43.63114" lon="3.25894">
        <ele>216.8</ele>
        <time>2024-03-21T14:20:58Z</time>
      </trkpt>
      <trkpt lat="43.63116" lon="3.25891">
        <ele>216.9</ele>
        <time>2024-03-21T14:20:59Z</time>
      </trkpt>
      <trkpt lat="43.63117" lon="3.25888">
        <ele>217.1</ele>
        <time>2024-03-21T14:21:00Z</time>
      </trkpt>
      <trkpt lat="43.63118" lon="3.25886">
        <ele>217.2</ele>
        <time>2024-03-21T14:21:01Z</time>
      </trkpt>
      <trkpt lat="43.63118" lon="3.25877">
        <ele>217.7</ele>
        <time>2024-03-21T14:21:04Z</time>
      </trkpt>
      <trkpt lat="43.63114" lon="3.25865">
        <ele>218.6</ele>
        <time>2024-03-21T14:21:08Z</time>
      </trkpt>
      <trkpt lat="43.63112" lon="3.25863">
        <ele>218.8</ele>
        <time>2024-03-21T14:21:09Z</time>
      </trkpt>
      <trkpt lat="43.63111" lon="3.2586">
        <ele>219</ele>
        <time>2024-03-21T14:21:10Z</time>
      </trkpt>
      <trkpt lat="43.63109" lon="3.25857">
        <ele>219.1</ele>
        <time>2024-03-21T14:21:11Z</time>
      </trkpt>
      <trkpt lat="43.63108" lon="3.25855">
        <ele>219.2</ele>
        <time>2024-03-21T14:21:12Z</time>
      </trkpt>
      <trkpt lat="43.63106" lon="3.25853">
        <ele>219.3</ele>
        <time>2024-03-21T14:21:13Z</time>
      </trkpt>
      <trkpt lat="43.63105" lon="3.25851">
        <ele>219.4</ele>
        <time>2024-03-21T14:21:14Z</time>
      </trkpt>
      <trkpt lat="43.63101" lon="3.25847">
        <ele>219.5</ele>
        <time>2024-03-21T14:21:16Z</time>
      </trkpt>
      <trkpt lat="43.631" lon="3.25845">
        <ele>219.6</ele>
        <time>2024-03-21T14:21:17Z</time>
      </trkpt>
      <trkpt lat="43.63098" lon="3.25844">
        <ele>219.6</ele>
        <time>2024-03-21T14:21:18Z</time>
      </trkpt>
      <trkpt lat="43.63097" lon="3.25843">
        <ele>219.7</ele>
        <time>2024-03-21T14:21:19Z</time>
      </trkpt>
      <trkpt lat="43.63096" lon="3.25841">
        <ele>219.7</ele>
        <time>2024-03-21T14:21:20Z</time>
      </trkpt>
      <trkpt lat="43.63094" lon="3.25839">
        <ele>219.8</ele>
        <time>2024-03-21T14:21:22Z</time>
      </trkpt>
      <trkpt lat="43.63094" lon="3.25837">
        <ele>219.9</ele>
        <time>2024-03-21T14:21:24Z</time>
      </trkpt>
      <trkpt lat="43.63092" lon="3.25835">
        <ele>219.9</ele>
        <time>2024-03-21T14:21:32Z</time>
      </trkpt>
      <trkpt lat="43.63093" lon="3.25835">
        <ele>219.9</ele>
        <time>2024-03-21T14:21:36Z</time>
      </trkpt>
      <trkpt lat="43.63092" lon="3.25835">
        <ele>219.9</ele>
        <time>2024-03-21T14:21:37Z</time>
      </trkpt>
      <trkpt lat="43.63093" lon="3.25835">
        <ele>219.9</ele>
        <time>2024-03-21T14:21:39Z</time>
      </trkpt>
      <trkpt lat="43.63092" lon="3.25835">
        <ele>219.9</ele>
        <time>2024-03-21T14:21:41Z</time>
      </trkpt>
      <trkpt lat="43.63091" lon="3.25834">
        <ele>220</ele>
        <time>2024-03-21T14:21:43Z</time>
      </trkpt>
      <trkpt lat="43.63092" lon="3.25834">
        <ele>220</ele>
        <time>2024-03-21T14:21:59Z</time>
      </trkpt>
      <trkpt lat="43.63091" lon="3.25834">
        <ele>220</ele>
        <time>2024-03-21T14:22:14Z</time>
      </trkpt>
      <trkpt lat="43.63089" lon="3.25835">
        <ele>219.9</ele>
        <time>2024-03-21T14:22:15Z</time>
      </trkpt>
      <trkpt lat="43.63089" lon="3.25839">
        <ele>219.8</ele>
        <time>2024-03-21T14:22:17Z</time>
      </trkpt>
      <trkpt lat="43.63088" lon="3.25843">
        <ele>219.7</ele>
        <time>2024-03-21T14:22:18Z</time>
      </trkpt>
      <trkpt lat="43.63088" lon="3.25847">
        <ele>219.5</ele>
        <time>2024-03-21T14:22:19Z</time>
      </trkpt>
      <trkpt lat="43.63087" lon="3.25851">
        <ele>219.4</ele>
        <time>2024-03-21T14:22:20Z</time>
      </trkpt>
      <trkpt lat="43.63086" lon="3.25856">
        <ele>219.2</ele>
        <time>2024-03-21T14:22:21Z</time>
      </trkpt>
      <trkpt lat="43.63084" lon="3.25862">
        <ele>219</ele>
        <time>2024-03-21T14:22:23Z</time>
      </trkpt>
      <trkpt lat="43.63083" lon="3.25866">
        <ele>218.9</ele>
        <time>2024-03-21T14:22:24Z</time>
      </trkpt>
      <trkpt lat="43.63081" lon="3.25869">
        <ele>218.9</ele>
        <time>2024-03-21T14:22:25Z</time>
      </trkpt>
      <trkpt lat="43.63078" lon="3.25871">
        <ele>219.1</ele>
        <time>2024-03-21T14:22:26Z</time>
      </trkpt>
      <trkpt lat="43.63076" lon="3.25872">
        <ele>219.2</ele>
        <time>2024-03-21T14:22:27Z</time>
      </trkpt>
      <trkpt lat="43.63073" lon="3.25873">
        <ele>219.5</ele>
        <time>2024-03-21T14:22:28Z</time>
      </trkpt>
      <trkpt lat="43.63069" lon="3.25872">
        <ele>219.8</ele>
        <time>2024-03-21T14:22:29Z</time>
      </trkpt>
      <trkpt lat="43.63066" lon="3.25871">
        <ele>220.1</ele>
        <time>2024-03-21T14:22:30Z</time>
      </trkpt>
      <trkpt lat="43.63058" lon="3.25867">
        <ele>220.8</ele>
        <time>2024-03-21T14:22:34Z</time>
      </trkpt>
      <trkpt lat="43.63055" lon="3.25867">
        <ele>221.1</ele>
        <time>2024-03-21T14:22:35Z</time>
      </trkpt>
      <trkpt lat="43.63053" lon="3.25866">
        <ele>221.5</ele>
        <time>2024-03-21T14:22:36Z</time>
      </trkpt>
      <trkpt lat="43.63051" lon="3.25864">
        <ele>221.8</ele>
        <time>2024-03-21T14:22:37Z</time>
      </trkpt>
      <trkpt lat="43.63048" lon="3.25863">
        <ele>222.4</ele>
        <time>2024-03-21T14:22:38Z</time>
      </trkpt>
      <trkpt lat="43.63044" lon="3.25861">
        <ele>223.1</ele>
        <time>2024-03-21T14:22:40Z</time>
      </trkpt>
      <trkpt lat="43.6304" lon="3.25857">
        <ele>223.9</ele>
        <time>2024-03-21T14:22:42Z</time>
      </trkpt>
      <trkpt lat="43.63037" lon="3.25856">
        <ele>224.5</ele>
        <time>2024-03-21T14:22:43Z</time>
      </trkpt>
      <trkpt lat="43.63035" lon="3.25855">
        <ele>224.8</ele>
        <time>2024-03-21T14:22:44Z</time>
      </trkpt>
      <trkpt lat="43.63032" lon="3.25854">
        <ele>225.3</ele>
        <time>2024-03-21T14:22:45Z</time>
      </trkpt>
      <trkpt lat="43.6303" lon="3.25853">
        <ele>225.6</ele>
        <time>2024-03-21T14:22:46Z</time>
      </trkpt>
      <trkpt lat="43.63028" lon="3.25853">
        <ele>226</ele>
        <time>2024-03-21T14:22:47Z</time>
      </trkpt>
      <trkpt lat="43.63025" lon="3.25852">
        <ele>226.5</ele>
        <time>2024-03-21T14:22:48Z</time>
      </trkpt>
      <trkpt lat="43.63024" lon="3.2585">
        <ele>226.7</ele>
        <time>2024-03-21T14:22:49Z</time>
      </trkpt>
      <trkpt lat="43.63021" lon="3.25848">
        <ele>227.3</ele>
        <time>2024-03-21T14:22:50Z</time>
      </trkpt>
      <trkpt lat="43.63017" lon="3.25846">
        <ele>228.2</ele>
        <time>2024-03-21T14:22:52Z</time>
      </trkpt>
      <trkpt lat="43.63015" lon="3.25844">
        <ele>228.6</ele>
        <time>2024-03-21T14:22:53Z</time>
      </trkpt>
      <trkpt lat="43.63012" lon="3.25844">
        <ele>229.2</ele>
        <time>2024-03-21T14:22:54Z</time>
      </trkpt>
      <trkpt lat="43.63004" lon="3.2584">
        <ele>230.9</ele>
        <time>2024-03-21T14:22:58Z</time>
      </trkpt>
      <trkpt lat="43.63" lon="3.25836">
        <ele>231.9</ele>
        <time>2024-03-21T14:23:00Z</time>
      </trkpt>
      <trkpt lat="43.62998" lon="3.25835">
        <ele>232.1</ele>
        <time>2024-03-21T14:23:01Z</time>
      </trkpt>
      <trkpt lat="43.62995" lon="3.25833">
        <ele>232.5</ele>
        <time>2024-03-21T14:23:02Z</time>
      </trkpt>
      <trkpt lat="43.62993" lon="3.25832">
        <ele>232.8</ele>
        <time>2024-03-21T14:23:03Z</time>
      </trkpt>
      <trkpt lat="43.62992" lon="3.2583">
        <ele>233</ele>
        <time>2024-03-21T14:23:04Z</time>
      </trkpt>
      <trkpt lat="43.6299" lon="3.25829">
        <ele>233.2</ele>
        <time>2024-03-21T14:23:05Z</time>
      </trkpt>
      <trkpt lat="43.62988" lon="3.25829">
        <ele>233.5</ele>
        <time>2024-03-21T14:23:06Z</time>
      </trkpt>
      <trkpt lat="43.62985" lon="3.25828">
        <ele>233.9</ele>
        <time>2024-03-21T14:23:07Z</time>
      </trkpt>
      <trkpt lat="43.62984" lon="3.25827">
        <ele>234.1</ele>
        <time>2024-03-21T14:23:08Z</time>
      </trkpt>
      <trkpt lat="43.6298" lon="3.25825">
        <ele>234.8</ele>
        <time>2024-03-21T14:23:10Z</time>
      </trkpt>
      <trkpt lat="43.62978" lon="3.25823">
        <ele>235.3</ele>
        <time>2024-03-21T14:23:11Z</time>
      </trkpt>
      <trkpt lat="43.62974" lon="3.25821">
        <ele>236.1</ele>
        <time>2024-03-21T14:23:13Z</time>
      </trkpt>
      <trkpt lat="43.62972" lon="3.25817">
        <ele>236.8</ele>
        <time>2024-03-21T14:23:15Z</time>
      </trkpt>
      <trkpt lat="43.6297" lon="3.25817">
        <ele>236.9</ele>
        <time>2024-03-21T14:23:16Z</time>
      </trkpt>
      <trkpt lat="43.6297" lon="3.25816">
        <ele>237</ele>
        <time>2024-03-21T14:23:17Z</time>
      </trkpt>
      <trkpt lat="43.62969" lon="3.25817">
        <ele>237</ele>
        <time>2024-03-21T14:23:18Z</time>
      </trkpt>
      <trkpt lat="43.6297" lon="3.25817">
        <ele>236.9</ele>
        <time>2024-03-21T14:23:34Z</time>
      </trkpt>
      <trkpt lat="43.62968" lon="3.25815">
        <ele>237.3</ele>
        <time>2024-03-21T14:23:37Z</time>
      </trkpt>
      <trkpt lat="43.62966" lon="3.25814">
        <ele>237.5</ele>
        <time>2024-03-21T14:23:38Z</time>
      </trkpt>
      <trkpt lat="43.62964" lon="3.25814">
        <ele>237.7</ele>
        <time>2024-03-21T14:23:39Z</time>
      </trkpt>
      <trkpt lat="43.62962" lon="3.25813">
        <ele>237.9</ele>
        <time>2024-03-21T14:23:40Z</time>
      </trkpt>
      <trkpt lat="43.62959" lon="3.25814">
        <ele>238</ele>
        <time>2024-03-21T14:23:41Z</time>
      </trkpt>
      <trkpt lat="43.62957" lon="3.25814">
        <ele>238.2</ele>
        <time>2024-03-21T14:23:42Z</time>
      </trkpt>
      <trkpt lat="43.62953" lon="3.25816">
        <ele>238.3</ele>
        <time>2024-03-21T14:23:44Z</time>
      </trkpt>
      <trkpt lat="43.62951" lon="3.25818">
        <ele>238.2</ele>
        <time>2024-03-21T14:23:45Z</time>
      </trkpt>
      <trkpt lat="43.62947" lon="3.2582">
        <ele>238.3</ele>
        <time>2024-03-21T14:23:47Z</time>
      </trkpt>
      <trkpt lat="43.62935" lon="3.2582">
        <ele>239.3</ele>
        <time>2024-03-21T14:23:52Z</time>
      </trkpt>
      <trkpt lat="43.62933" lon="3.25821">
        <ele>239.3</ele>
        <time>2024-03-21T14:23:53Z</time>
      </trkpt>
      <trkpt lat="43.62931" lon="3.25823">
        <ele>239.3</ele>
        <time>2024-03-21T14:23:54Z</time>
      </trkpt>
      <trkpt lat="43.62928" lon="3.25824">
        <ele>239.4</ele>
        <time>2024-03-21T14:23:55Z</time>
      </trkpt>
      <trkpt lat="43.62926" lon="3.25824">
        <ele>239.6</ele>
        <time>2024-03-21T14:23:56Z</time>
      </trkpt>
      <trkpt lat="43.62923" lon="3.25825">
        <ele>239.7</ele>
        <time>2024-03-21T14:23:57Z</time>
      </trkpt>
      <trkpt lat="43.62917" lon="3.25825">
        <ele>240.2</ele>
        <time>2024-03-21T14:24:01Z</time>
      </trkpt>
      <trkpt lat="43.62917" lon="3.25826">
        <ele>240</ele>
        <time>2024-03-21T14:24:09Z</time>
      </trkpt>
      <trkpt lat="43.62917" lon="3.25825">
        <ele>240.2</ele>
        <time>2024-03-21T14:24:10Z</time>
      </trkpt>
      <trkpt lat="43.62914" lon="3.25824">
        <ele>240.6</ele>
        <time>2024-03-21T14:24:11Z</time>
      </trkpt>
      <trkpt lat="43.62912" lon="3.25822">
        <ele>241</ele>
        <time>2024-03-21T14:24:12Z</time>
      </trkpt>
      <trkpt lat="43.62907" lon="3.25822">
        <ele>241.5</ele>
        <time>2024-03-21T14:24:14Z</time>
      </trkpt>
      <trkpt lat="43.62904" lon="3.25823">
        <ele>241.6</ele>
        <time>2024-03-21T14:24:15Z</time>
      </trkpt>
      <trkpt lat="43.62899" lon="3.25823">
        <ele>242</ele>
        <time>2024-03-21T14:24:17Z</time>
      </trkpt>
      <trkpt lat="43.62897" lon="3.25822">
        <ele>242.3</ele>
        <time>2024-03-21T14:24:18Z</time>
      </trkpt>
      <trkpt lat="43.62892" lon="3.25822">
        <ele>242.8</ele>
        <time>2024-03-21T14:24:20Z</time>
      </trkpt>
      <trkpt lat="43.62889" lon="3.2582">
        <ele>243.4</ele>
        <time>2024-03-21T14:24:21Z</time>
      </trkpt>
      <trkpt lat="43.62887" lon="3.25819">
        <ele>243.6</ele>
        <time>2024-03-21T14:24:22Z</time>
      </trkpt>
      <trkpt lat="43.62885" lon="3.2582">
        <ele>243.5</ele>
        <time>2024-03-21T14:24:23Z</time>
      </trkpt>
      <trkpt lat="43.62879" lon="3.2582">
        <ele>243.6</ele>
        <time>2024-03-21T14:24:26Z</time>
      </trkpt>
      <trkpt lat="43.62876" lon="3.25819">
        <ele>243.8</ele>
        <time>2024-03-21T14:24:27Z</time>
      </trkpt>
      <trkpt lat="43.62874" lon="3.25819">
        <ele>243.9</ele>
        <time>2024-03-21T14:24:28Z</time>
      </trkpt>
      <trkpt lat="43.62872" lon="3.25818">
        <ele>244.1</ele>
        <time>2024-03-21T14:24:29Z</time>
      </trkpt>
      <trkpt lat="43.62869" lon="3.25818">
        <ele>244.2</ele>
        <time>2024-03-21T14:24:30Z</time>
      </trkpt>
      <trkpt lat="43.62867" lon="3.25816">
        <ele>244.6</ele>
        <time>2024-03-21T14:24:31Z</time>
      </trkpt>
      <trkpt lat="43.62864" lon="3.25815">
        <ele>244.9</ele>
        <time>2024-03-21T14:24:32Z</time>
      </trkpt>
      <trkpt lat="43.62856" lon="3.25815">
        <ele>245.5</ele>
        <time>2024-03-21T14:24:35Z</time>
      </trkpt>
      <trkpt lat="43.62854" lon="3.25816">
        <ele>245.4</ele>
        <time>2024-03-21T14:24:36Z</time>
      </trkpt>
      <trkpt lat="43.62851" lon="3.25817">
        <ele>245.6</ele>
        <time>2024-03-21T14:24:37Z</time>
      </trkpt>
      <trkpt lat="43.62849" lon="3.25818">
        <ele>245.6</ele>
        <time>2024-03-21T14:24:38Z</time>
      </trkpt>
      <trkpt lat="43.62846" lon="3.2582">
        <ele>245.5</ele>
        <time>2024-03-21T14:24:39Z</time>
      </trkpt>
      <trkpt lat="43.62843" lon="3.25821">
        <ele>245.7</ele>
        <time>2024-03-21T14:24:40Z</time>
      </trkpt>
      <trkpt lat="43.62835" lon="3.25821">
        <ele>246.6</ele>
        <time>2024-03-21T14:24:43Z</time>
      </trkpt>
      <trkpt lat="43.62833" lon="3.25822">
        <ele>246.6</ele>
        <time>2024-03-21T14:24:44Z</time>
      </trkpt>
      <trkpt lat="43.6283" lon="3.25824">
        <ele>246.3</ele>
        <time>2024-03-21T14:24:45Z</time>
      </trkpt>
      <trkpt lat="43.62822" lon="3.25824">
        <ele>246.2</ele>
        <time>2024-03-21T14:24:48Z</time>
      </trkpt>
      <trkpt lat="43.62819" lon="3.25823">
        <ele>246.4</ele>
        <time>2024-03-21T14:24:49Z</time>
      </trkpt>
      <trkpt lat="43.62815" lon="3.25821">
        <ele>246.7</ele>
        <time>2024-03-21T14:24:51Z</time>
      </trkpt>
      <trkpt lat="43.62812" lon="3.2582">
        <ele>246.9</ele>
        <time>2024-03-21T14:24:52Z</time>
      </trkpt>
      <trkpt lat="43.62809" lon="3.25818">
        <ele>247.3</ele>
        <time>2024-03-21T14:24:53Z</time>
      </trkpt>
      <trkpt lat="43.62799" lon="3.25818">
        <ele>247.6</ele>
        <time>2024-03-21T14:24:57Z</time>
      </trkpt>
      <trkpt lat="43.62797" lon="3.25817">
        <ele>247.9</ele>
        <time>2024-03-21T14:24:58Z</time>
      </trkpt>
      <trkpt lat="43.62794" lon="3.25816">
        <ele>248.2</ele>
        <time>2024-03-21T14:24:59Z</time>
      </trkpt>
      <trkpt lat="43.62792" lon="3.25815">
        <ele>248.5</ele>
        <time>2024-03-21T14:25:00Z</time>
      </trkpt>
      <trkpt lat="43.62789" lon="3.25813">
        <ele>248.9</ele>
        <time>2024-03-21T14:25:01Z</time>
      </trkpt>
      <trkpt lat="43.62786" lon="3.25813">
        <ele>249</ele>
        <time>2024-03-21T14:25:02Z</time>
      </trkpt>
      <trkpt lat="43.62783" lon="3.25814">
        <ele>248.9</ele>
        <time>2024-03-21T14:25:03Z</time>
      </trkpt>
      <trkpt lat="43.62781" lon="3.25814">
        <ele>249</ele>
        <time>2024-03-21T14:25:04Z</time>
      </trkpt>
      <trkpt lat="43.62778" lon="3.25813">
        <ele>249.2</ele>
        <time>2024-03-21T14:25:05Z</time>
      </trkpt>
      <trkpt lat="43.62775" lon="3.25814">
        <ele>249.4</ele>
        <time>2024-03-21T14:25:06Z</time>
      </trkpt>
      <trkpt lat="43.62773" lon="3.25815">
        <ele>249.6</ele>
        <time>2024-03-21T14:25:07Z</time>
      </trkpt>
      <trkpt lat="43.62769" lon="3.25815">
        <ele>250</ele>
        <time>2024-03-21T14:25:09Z</time>
      </trkpt>
      <trkpt lat="43.62767" lon="3.25816">
        <ele>250.2</ele>
        <time>2024-03-21T14:25:10Z</time>
      </trkpt>
      <trkpt lat="43.62764" lon="3.25817">
        <ele>250.5</ele>
        <time>2024-03-21T14:25:11Z</time>
      </trkpt>
      <trkpt lat="43.62762" lon="3.25817">
        <ele>250.7</ele>
        <time>2024-03-21T14:25:12Z</time>
      </trkpt>
      <trkpt lat="43.62759" lon="3.25818">
        <ele>251</ele>
        <time>2024-03-21T14:25:13Z</time>
      </trkpt>
      <trkpt lat="43.62757" lon="3.25818">
        <ele>251.2</ele>
        <time>2024-03-21T14:25:14Z</time>
      </trkpt>
      <trkpt lat="43.62755" lon="3.25819">
        <ele>251.4</ele>
        <time>2024-03-21T14:25:15Z</time>
      </trkpt>
      <trkpt lat="43.62752" lon="3.25818">
        <ele>251.9</ele>
        <time>2024-03-21T14:25:16Z</time>
      </trkpt>
      <trkpt lat="43.62748" lon="3.25818">
        <ele>252.3</ele>
        <time>2024-03-21T14:25:18Z</time>
      </trkpt>
      <trkpt lat="43.62745" lon="3.25819">
        <ele>252.6</ele>
        <time>2024-03-21T14:25:19Z</time>
      </trkpt>
      <trkpt lat="43.62743" lon="3.25819">
        <ele>252.8</ele>
        <time>2024-03-21T14:25:20Z</time>
      </trkpt>
      <trkpt lat="43.62741" lon="3.2582">
        <ele>252.9</ele>
        <time>2024-03-21T14:25:21Z</time>
      </trkpt>
      <trkpt lat="43.62739" lon="3.25819">
        <ele>253.2</ele>
        <time>2024-03-21T14:25:22Z</time>
      </trkpt>
      <trkpt lat="43.62735" lon="3.25819">
        <ele>253.6</ele>
        <time>2024-03-21T14:25:24Z</time>
      </trkpt>
      <trkpt lat="43.62723" lon="3.25825">
        <ele>254.9</ele>
        <time>2024-03-21T14:25:30Z</time>
      </trkpt>
      <trkpt lat="43.62722" lon="3.25826">
        <ele>255</ele>
        <time>2024-03-21T14:25:31Z</time>
      </trkpt>
      <trkpt lat="43.62718" lon="3.25828">
        <ele>254.6</ele>
        <time>2024-03-21T14:25:33Z</time>
      </trkpt>
      <trkpt lat="43.62715" lon="3.25829">
        <ele>254.3</ele>
        <time>2024-03-21T14:25:34Z</time>
      </trkpt>
      <trkpt lat="43.62713" lon="3.25831">
        <ele>254.1</ele>
        <time>2024-03-21T14:25:35Z</time>
      </trkpt>
      <trkpt lat="43.6271" lon="3.25833">
        <ele>253.7</ele>
        <time>2024-03-21T14:25:36Z</time>
      </trkpt>
      <trkpt lat="43.62708" lon="3.25834">
        <ele>253.5</ele>
        <time>2024-03-21T14:25:37Z</time>
      </trkpt>
      <trkpt lat="43.62705" lon="3.25834">
        <ele>253.2</ele>
        <time>2024-03-21T14:25:38Z</time>
      </trkpt>
      <trkpt lat="43.62702" lon="3.25835">
        <ele>252.9</ele>
        <time>2024-03-21T14:25:39Z</time>
      </trkpt>
      <trkpt lat="43.627" lon="3.25836">
        <ele>252.8</ele>
        <time>2024-03-21T14:25:40Z</time>
      </trkpt>
      <trkpt lat="43.62698" lon="3.25835">
        <ele>252.5</ele>
        <time>2024-03-21T14:25:41Z</time>
      </trkpt>
      <trkpt lat="43.62695" lon="3.25832">
        <ele>252.2</ele>
        <time>2024-03-21T14:25:43Z</time>
      </trkpt>
      <trkpt lat="43.62694" lon="3.2583">
        <ele>252.3</ele>
        <time>2024-03-21T14:25:44Z</time>
      </trkpt>
      <trkpt lat="43.62692" lon="3.25829">
        <ele>252.3</ele>
        <time>2024-03-21T14:25:45Z</time>
      </trkpt>
      <trkpt lat="43.62688" lon="3.25825">
        <ele>252.4</ele>
        <time>2024-03-21T14:25:48Z</time>
      </trkpt>
      <trkpt lat="43.62687" lon="3.25822">
        <ele>252.6</ele>
        <time>2024-03-21T14:25:49Z</time>
      </trkpt>
      <trkpt lat="43.62686" lon="3.2582">
        <ele>252.7</ele>
        <time>2024-03-21T14:25:50Z</time>
      </trkpt>
      <trkpt lat="43.62686" lon="3.25809">
        <ele>253.8</ele>
        <time>2024-03-21T14:25:54Z</time>
      </trkpt>
      <trkpt lat="43.62685" lon="3.25807">
        <ele>253.8</ele>
        <time>2024-03-21T14:25:55Z</time>
      </trkpt>
      <trkpt lat="43.62685" lon="3.25805">
        <ele>254</ele>
        <time>2024-03-21T14:25:56Z</time>
      </trkpt>
      <trkpt lat="43.62684" lon="3.25802">
        <ele>253.7</ele>
        <time>2024-03-21T14:25:57Z</time>
      </trkpt>
      <trkpt lat="43.62684" lon="3.25793">
        <ele>253.4</ele>
        <time>2024-03-21T14:26:01Z</time>
      </trkpt>
      <trkpt lat="43.62686" lon="3.2579">
        <ele>253.6</ele>
        <time>2024-03-21T14:26:02Z</time>
      </trkpt>
      <trkpt lat="43.62686" lon="3.25787">
        <ele>253.5</ele>
        <time>2024-03-21T14:26:03Z</time>
      </trkpt>
      <trkpt lat="43.62685" lon="3.25785">
        <ele>253.2</ele>
        <time>2024-03-21T14:26:04Z</time>
      </trkpt>
      <trkpt lat="43.62683" lon="3.25784">
        <ele>252.8</ele>
        <time>2024-03-21T14:26:05Z</time>
      </trkpt>
      <trkpt lat="43.62682" lon="3.25783">
        <ele>252.6</ele>
        <time>2024-03-21T14:26:06Z</time>
      </trkpt>
      <trkpt lat="43.6268" lon="3.25779">
        <ele>251.9</ele>
        <time>2024-03-21T14:26:08Z</time>
      </trkpt>
      <trkpt lat="43.62678" lon="3.25777">
        <ele>251.5</ele>
        <time>2024-03-21T14:26:09Z</time>
      </trkpt>
      <trkpt lat="43.62676" lon="3.25771">
        <ele>251.6</ele>
        <time>2024-03-21T14:26:11Z</time>
      </trkpt>
      <trkpt lat="43.62676" lon="3.25768">
        <ele>251.8</ele>
        <time>2024-03-21T14:26:12Z</time>
      </trkpt>
      <trkpt lat="43.62675" lon="3.25765">
        <ele>251.8</ele>
        <time>2024-03-21T14:26:13Z</time>
      </trkpt>
      <trkpt lat="43.62674" lon="3.25763">
        <ele>251.7</ele>
        <time>2024-03-21T14:26:14Z</time>
      </trkpt>
      <trkpt lat="43.62674" lon="3.25761">
        <ele>251.8</ele>
        <time>2024-03-21T14:26:15Z</time>
      </trkpt>
      <trkpt lat="43.62673" lon="3.25759">
        <ele>251.7</ele>
        <time>2024-03-21T14:26:16Z</time>
      </trkpt>
      <trkpt lat="43.62672" lon="3.25756">
        <ele>251.5</ele>
        <time>2024-03-21T14:26:17Z</time>
      </trkpt>
      <trkpt lat="43.62671" lon="3.25752">
        <ele>251.4</ele>
        <time>2024-03-21T14:26:18Z</time>
      </trkpt>
      <trkpt lat="43.6267" lon="3.25749">
        <ele>251.3</ele>
        <time>2024-03-21T14:26:19Z</time>
      </trkpt>
      <trkpt lat="43.62668" lon="3.25745">
        <ele>251</ele>
        <time>2024-03-21T14:26:21Z</time>
      </trkpt>
      <trkpt lat="43.62667" lon="3.25742">
        <ele>251</ele>
        <time>2024-03-21T14:26:22Z</time>
      </trkpt>
      <trkpt lat="43.62665" lon="3.2574">
        <ele>250.8</ele>
        <time>2024-03-21T14:26:23Z</time>
      </trkpt>
      <trkpt lat="43.62664" lon="3.25737">
        <ele>250.9</ele>
        <time>2024-03-21T14:26:24Z</time>
      </trkpt>
      <trkpt lat="43.62663" lon="3.25735">
        <ele>250.9</ele>
        <time>2024-03-21T14:26:25Z</time>
      </trkpt>
      <trkpt lat="43.62661" lon="3.25732">
        <ele>250.7</ele>
        <time>2024-03-21T14:26:26Z</time>
      </trkpt>
      <trkpt lat="43.6266" lon="3.25729">
        <ele>250.8</ele>
        <time>2024-03-21T14:26:27Z</time>
      </trkpt>
      <trkpt lat="43.62658" lon="3.25726">
        <ele>250.5</ele>
        <time>2024-03-21T14:26:28Z</time>
      </trkpt>
      <trkpt lat="43.62656" lon="3.25724">
        <ele>250.2</ele>
        <time>2024-03-21T14:26:29Z</time>
      </trkpt>
      <trkpt lat="43.62655" lon="3.25722">
        <ele>250.1</ele>
        <time>2024-03-21T14:26:30Z</time>
      </trkpt>
      <trkpt lat="43.62655" lon="3.2572">
        <ele>250.3</ele>
        <time>2024-03-21T14:26:31Z</time>
      </trkpt>
      <trkpt lat="43.62653" lon="3.25717">
        <ele>250.1</ele>
        <time>2024-03-21T14:26:32Z</time>
      </trkpt>
      <trkpt lat="43.62652" lon="3.25714">
        <ele>250.2</ele>
        <time>2024-03-21T14:26:33Z</time>
      </trkpt>
      <trkpt lat="43.6265" lon="3.2571">
        <ele>250.1</ele>
        <time>2024-03-21T14:26:34Z</time>
      </trkpt>
      <trkpt lat="43.62648" lon="3.25707">
        <ele>249.9</ele>
        <time>2024-03-21T14:26:35Z</time>
      </trkpt>
      <trkpt lat="43.62646" lon="3.25706">
        <ele>249.5</ele>
        <time>2024-03-21T14:26:36Z</time>
      </trkpt>
      <trkpt lat="43.62643" lon="3.25706">
        <ele>248.8</ele>
        <time>2024-03-21T14:26:37Z</time>
      </trkpt>
      <trkpt lat="43.62642" lon="3.25705">
        <ele>248.6</ele>
        <time>2024-03-21T14:26:38Z</time>
      </trkpt>
      <trkpt lat="43.62638" lon="3.25703">
        <ele>248.2</ele>
        <time>2024-03-21T14:26:40Z</time>
      </trkpt>
      <trkpt lat="43.62636" lon="3.25704">
        <ele>248.5</ele>
        <time>2024-03-21T14:26:41Z</time>
      </trkpt>
      <trkpt lat="43.62634" lon="3.25704">
        <ele>248.8</ele>
        <time>2024-03-21T14:26:42Z</time>
      </trkpt>
      <trkpt lat="43.62633" lon="3.25705">
        <ele>248.9</ele>
        <time>2024-03-21T14:26:43Z</time>
      </trkpt>
      <trkpt lat="43.62631" lon="3.25705">
        <ele>249.2</ele>
        <time>2024-03-21T14:26:44Z</time>
      </trkpt>
      <trkpt lat="43.62627" lon="3.25709">
        <ele>249.6</ele>
        <time>2024-03-21T14:26:46Z</time>
      </trkpt>
      <trkpt lat="43.62625" lon="3.25712">
        <ele>249.7</ele>
        <time>2024-03-21T14:26:47Z</time>
      </trkpt>
      <trkpt lat="43.62623" lon="3.25713">
        <ele>250</ele>
        <time>2024-03-21T14:26:48Z</time>
      </trkpt>
      <trkpt lat="43.62622" lon="3.25715">
        <ele>250.1</ele>
        <time>2024-03-21T14:26:49Z</time>
      </trkpt>
      <trkpt lat="43.6262" lon="3.25718">
        <ele>250.3</ele>
        <time>2024-03-21T14:26:50Z</time>
      </trkpt>
      <trkpt lat="43.62619" lon="3.25721">
        <ele>250.4</ele>
        <time>2024-03-21T14:26:51Z</time>
      </trkpt>
      <trkpt lat="43.62617" lon="3.25724">
        <ele>250.6</ele>
        <time>2024-03-21T14:26:52Z</time>
      </trkpt>
      <trkpt lat="43.62615" lon="3.25726">
        <ele>250.8</ele>
        <time>2024-03-21T14:26:53Z</time>
      </trkpt>
      <trkpt lat="43.62614" lon="3.25729">
        <ele>250.7</ele>
        <time>2024-03-21T14:26:54Z</time>
      </trkpt>
      <trkpt lat="43.62613" lon="3.25731">
        <ele>250.7</ele>
        <time>2024-03-21T14:26:55Z</time>
      </trkpt>
      <trkpt lat="43.62611" lon="3.25734">
        <ele>250.8</ele>
        <time>2024-03-21T14:26:56Z</time>
      </trkpt>
      <trkpt lat="43.62605" lon="3.2574">
        <ele>251.6</ele>
        <time>2024-03-21T14:26:59Z</time>
      </trkpt>
      <trkpt lat="43.62602" lon="3.25742">
        <ele>252</ele>
        <time>2024-03-21T14:27:00Z</time>
      </trkpt>
      <trkpt lat="43.626" lon="3.25744">
        <ele>252.2</ele>
        <time>2024-03-21T14:27:01Z</time>
      </trkpt>
      <trkpt lat="43.62597" lon="3.25745">
        <ele>252.8</ele>
        <time>2024-03-21T14:27:02Z</time>
      </trkpt>
      <trkpt lat="43.62593" lon="3.25747">
        <ele>253.4</ele>
        <time>2024-03-21T14:27:04Z</time>
      </trkpt>
      <trkpt lat="43.6259" lon="3.25748">
        <ele>253.9</ele>
        <time>2024-03-21T14:27:05Z</time>
      </trkpt>
      <trkpt lat="43.62584" lon="3.25751">
        <ele>254.6</ele>
        <time>2024-03-21T14:27:08Z</time>
      </trkpt>
      <trkpt lat="43.62583" lon="3.25751">
        <ele>254.8</ele>
        <time>2024-03-21T14:27:09Z</time>
      </trkpt>
      <trkpt lat="43.62569" lon="3.25761">
        <ele>252.2</ele>
        <time>2024-03-21T14:30:04Z</time>
      </trkpt>
      <trkpt lat="43.62567" lon="3.25761">
        <ele>252.2</ele>
        <time>2024-03-21T14:30:05Z</time>
      </trkpt>
      <trkpt lat="43.62565" lon="3.25762">
        <ele>251.9</ele>
        <time>2024-03-21T14:30:06Z</time>
      </trkpt>
      <trkpt lat="43.62562" lon="3.25762">
        <ele>251.9</ele>
        <time>2024-03-21T14:30:07Z</time>
      </trkpt>
      <trkpt lat="43.62559" lon="3.25763">
        <ele>251.4</ele>
        <time>2024-03-21T14:30:08Z</time>
      </trkpt>
      <trkpt lat="43.62554" lon="3.25764">
        <ele>251.1</ele>
        <time>2024-03-21T14:30:09Z</time>
      </trkpt>
      <trkpt lat="43.62546" lon="3.25766">
        <ele>250.8</ele>
        <time>2024-03-21T14:30:11Z</time>
      </trkpt>
      <trkpt lat="43.62543" lon="3.25767">
        <ele>250.7</ele>
        <time>2024-03-21T14:30:12Z</time>
      </trkpt>
      <trkpt lat="43.62535" lon="3.25771">
        <ele>249.8</ele>
        <time>2024-03-21T14:30:14Z</time>
      </trkpt>
      <trkpt lat="43.62531" lon="3.25772">
        <ele>249.8</ele>
        <time>2024-03-21T14:30:15Z</time>
      </trkpt>
      <trkpt lat="43.62525" lon="3.25776">
        <ele>248.5</ele>
        <time>2024-03-21T14:30:17Z</time>
      </trkpt>
      <trkpt lat="43.62523" lon="3.25778">
        <ele>247.8</ele>
        <time>2024-03-21T14:30:18Z</time>
      </trkpt>
      <trkpt lat="43.62519" lon="3.2578">
        <ele>247.3</ele>
        <time>2024-03-21T14:30:20Z</time>
      </trkpt>
      <trkpt lat="43.62516" lon="3.2578">
        <ele>247.2</ele>
        <time>2024-03-21T14:30:21Z</time>
      </trkpt>
      <trkpt lat="43.62513" lon="3.25781">
        <ele>247</ele>
        <time>2024-03-21T14:30:22Z</time>
      </trkpt>
      <trkpt lat="43.6251" lon="3.25783">
        <ele>246.6</ele>
        <time>2024-03-21T14:30:23Z</time>
      </trkpt>
      <trkpt lat="43.62507" lon="3.25784">
        <ele>246.5</ele>
        <time>2024-03-21T14:30:24Z</time>
      </trkpt>
      <trkpt lat="43.62504" lon="3.25783">
        <ele>246.6</ele>
        <time>2024-03-21T14:30:25Z</time>
      </trkpt>
      <trkpt lat="43.62502" lon="3.25782">
        <ele>246.7</ele>
        <time>2024-03-21T14:30:26Z</time>
      </trkpt>
      <trkpt lat="43.62498" lon="3.25781">
        <ele>246.9</ele>
        <time>2024-03-21T14:30:27Z</time>
      </trkpt>
      <trkpt lat="43.62496" lon="3.25782">
        <ele>247</ele>
        <time>2024-03-21T14:30:28Z</time>
      </trkpt>
      <trkpt lat="43.62492" lon="3.25786">
        <ele>247.2</ele>
        <time>2024-03-21T14:30:30Z</time>
      </trkpt>
      <trkpt lat="43.62492" lon="3.25788">
        <ele>247.2</ele>
        <time>2024-03-21T14:30:31Z</time>
      </trkpt>
      <trkpt lat="43.62491" lon="3.2579">
        <ele>247.3</ele>
        <time>2024-03-21T14:30:32Z</time>
      </trkpt>
      <trkpt lat="43.62491" lon="3.25793">
        <ele>247.3</ele>
        <time>2024-03-21T14:30:33Z</time>
      </trkpt>
      <trkpt lat="43.62492" lon="3.25795">
        <ele>247.1</ele>
        <time>2024-03-21T14:30:34Z</time>
      </trkpt>
      <trkpt lat="43.62492" lon="3.25797">
        <ele>247.1</ele>
        <time>2024-03-21T14:30:35Z</time>
      </trkpt>
      <trkpt lat="43.62494" lon="3.258">
        <ele>246.7</ele>
        <time>2024-03-21T14:30:36Z</time>
      </trkpt>
      <trkpt lat="43.62495" lon="3.25803">
        <ele>246.3</ele>
        <time>2024-03-21T14:30:37Z</time>
      </trkpt>
      <trkpt lat="43.62506" lon="3.25814">
        <ele>246.6</ele>
        <time>2024-03-21T14:30:42Z</time>
      </trkpt>
      <trkpt lat="43.62509" lon="3.25816">
        <ele>246.7</ele>
        <time>2024-03-21T14:30:43Z</time>
      </trkpt>
      <trkpt lat="43.62511" lon="3.25817">
        <ele>246.7</ele>
        <time>2024-03-21T14:30:44Z</time>
      </trkpt>
      <trkpt lat="43.6252" lon="3.2582">
        <ele>246.3</ele>
        <time>2024-03-21T14:30:47Z</time>
      </trkpt>
      <trkpt lat="43.62526" lon="3.25823">
        <ele>246.3</ele>
        <time>2024-03-21T14:30:50Z</time>
      </trkpt>
      <trkpt lat="43.62528" lon="3.25825">
        <ele>246.5</ele>
        <time>2024-03-21T14:30:51Z</time>
      </trkpt>
      <trkpt lat="43.6253" lon="3.25828">
        <ele>246.9</ele>
        <time>2024-03-21T14:30:52Z</time>
      </trkpt>
      <trkpt lat="43.62532" lon="3.25832">
        <ele>247.4</ele>
        <time>2024-03-21T14:30:54Z</time>
      </trkpt>
      <trkpt lat="43.62533" lon="3.25835">
        <ele>247.7</ele>
        <time>2024-03-21T14:30:55Z</time>
      </trkpt>
      <trkpt lat="43.62534" lon="3.25839">
        <ele>247.8</ele>
        <time>2024-03-21T14:30:56Z</time>
      </trkpt>
      <trkpt lat="43.62535" lon="3.25842">
        <ele>247.8</ele>
        <time>2024-03-21T14:30:57Z</time>
      </trkpt>
      <trkpt lat="43.62535" lon="3.25846">
        <ele>248.3</ele>
        <time>2024-03-21T14:30:58Z</time>
      </trkpt>
      <trkpt lat="43.62536" lon="3.25848">
        <ele>248.1</ele>
        <time>2024-03-21T14:30:59Z</time>
      </trkpt>
      <trkpt lat="43.62536" lon="3.25851">
        <ele>248.4</ele>
        <time>2024-03-21T14:31:00Z</time>
      </trkpt>
      <trkpt lat="43.62537" lon="3.25853">
        <ele>248.2</ele>
        <time>2024-03-21T14:31:01Z</time>
      </trkpt>
      <trkpt lat="43.62537" lon="3.25856">
        <ele>248.5</ele>
        <time>2024-03-21T14:31:02Z</time>
      </trkpt>
      <trkpt lat="43.62538" lon="3.25859">
        <ele>248.4</ele>
        <time>2024-03-21T14:31:03Z</time>
      </trkpt>
      <trkpt lat="43.62538" lon="3.25865">
        <ele>248.6</ele>
        <time>2024-03-21T14:31:05Z</time>
      </trkpt>
      <trkpt lat="43.62537" lon="3.25869">
        <ele>249.1</ele>
        <time>2024-03-21T14:31:06Z</time>
      </trkpt>
      <trkpt lat="43.62536" lon="3.25872">
        <ele>249.6</ele>
        <time>2024-03-21T14:31:07Z</time>
      </trkpt>
      <trkpt lat="43.62536" lon="3.25877">
        <ele>249.7</ele>
        <time>2024-03-21T14:31:09Z</time>
      </trkpt>
      <trkpt lat="43.62535" lon="3.2588">
        <ele>250.2</ele>
        <time>2024-03-21T14:31:10Z</time>
      </trkpt>
      <trkpt lat="43.62535" lon="3.25883">
        <ele>250.3</ele>
        <time>2024-03-21T14:31:11Z</time>
      </trkpt>
      <trkpt lat="43.62534" lon="3.25886">
        <ele>250.8</ele>
        <time>2024-03-21T14:31:12Z</time>
      </trkpt>
      <trkpt lat="43.62534" lon="3.2589">
        <ele>250.9</ele>
        <time>2024-03-21T14:31:13Z</time>
      </trkpt>
      <trkpt lat="43.62533" lon="3.25894">
        <ele>251.7</ele>
        <time>2024-03-21T14:31:14Z</time>
      </trkpt>
      <trkpt lat="43.62533" lon="3.25902">
        <ele>252.1</ele>
        <time>2024-03-21T14:31:16Z</time>
      </trkpt>
      <trkpt lat="43.62532" lon="3.25906">
        <ele>252.8</ele>
        <time>2024-03-21T14:31:17Z</time>
      </trkpt>
      <trkpt lat="43.62532" lon="3.25923">
        <ele>253.4</ele>
        <time>2024-03-21T14:31:22Z</time>
      </trkpt>
      <trkpt lat="43.62531" lon="3.25927">
        <ele>253.8</ele>
        <time>2024-03-21T14:31:23Z</time>
      </trkpt>
      <trkpt lat="43.62531" lon="3.2593">
        <ele>253.8</ele>
        <time>2024-03-21T14:31:24Z</time>
      </trkpt>
      <trkpt lat="43.6253" lon="3.25934">
        <ele>254.2</ele>
        <time>2024-03-21T14:31:25Z</time>
      </trkpt>
      <trkpt lat="43.6253" lon="3.25942">
        <ele>254.2</ele>
        <time>2024-03-21T14:31:27Z</time>
      </trkpt>
      <trkpt lat="43.62529" lon="3.25946">
        <ele>254.6</ele>
        <time>2024-03-21T14:31:28Z</time>
      </trkpt>
      <trkpt lat="43.62529" lon="3.25952">
        <ele>254.8</ele>
        <time>2024-03-21T14:31:30Z</time>
      </trkpt>
      <trkpt lat="43.6253" lon="3.25955">
        <ele>254.6</ele>
        <time>2024-03-21T14:31:31Z</time>
      </trkpt>
      <trkpt lat="43.62531" lon="3.25959">
        <ele>254.4</ele>
        <time>2024-03-21T14:31:32Z</time>
      </trkpt>
      <trkpt lat="43.62532" lon="3.25962">
        <ele>254.2</ele>
        <time>2024-03-21T14:31:33Z</time>
      </trkpt>
      <trkpt lat="43.62533" lon="3.25966">
        <ele>254</ele>
        <time>2024-03-21T14:31:34Z</time>
      </trkpt>
      <trkpt lat="43.62533" lon="3.2597">
        <ele>254.2</ele>
        <time>2024-03-21T14:31:35Z</time>
      </trkpt>
      <trkpt lat="43.62532" lon="3.25974">
        <ele>254.7</ele>
        <time>2024-03-21T14:31:36Z</time>
      </trkpt>
      <trkpt lat="43.62532" lon="3.25978">
        <ele>254.8</ele>
        <time>2024-03-21T14:31:37Z</time>
      </trkpt>
      <trkpt lat="43.62531" lon="3.25982">
        <ele>255.3</ele>
        <time>2024-03-21T14:31:38Z</time>
      </trkpt>
      <trkpt lat="43.62531" lon="3.25985">
        <ele>255.4</ele>
        <time>2024-03-21T14:31:39Z</time>
      </trkpt>
      <trkpt lat="43.62532" lon="3.2599">
        <ele>255.2</ele>
        <time>2024-03-21T14:31:40Z</time>
      </trkpt>
      <trkpt lat="43.62532" lon="3.26011">
        <ele>255.5</ele>
        <time>2024-03-21T14:31:45Z</time>
      </trkpt>
      <trkpt lat="43.62533" lon="3.26015">
        <ele>255.2</ele>
        <time>2024-03-21T14:31:46Z</time>
      </trkpt>
      <trkpt lat="43.62533" lon="3.26027">
        <ele>255.3</ele>
        <time>2024-03-21T14:31:49Z</time>
      </trkpt>
      <trkpt lat="43.62534" lon="3.26032">
        <ele>254.9</ele>
        <time>2024-03-21T14:31:50Z</time>
      </trkpt>
      <trkpt lat="43.62534" lon="3.26043">
        <ele>254.6</ele>
        <time>2024-03-21T14:31:52Z</time>
      </trkpt>
      <trkpt lat="43.62533" lon="3.26049">
        <ele>254.7</ele>
        <time>2024-03-21T14:31:53Z</time>
      </trkpt>
      <trkpt lat="43.62531" lon="3.26057">
        <ele>254.9</ele>
        <time>2024-03-21T14:31:54Z</time>
      </trkpt>
      <trkpt lat="43.6253" lon="3.26063">
        <ele>254.6</ele>
        <time>2024-03-21T14:31:55Z</time>
      </trkpt>
      <trkpt lat="43.62527" lon="3.26069">
        <ele>254.8</ele>
        <time>2024-03-21T14:31:56Z</time>
      </trkpt>
      <trkpt lat="43.62526" lon="3.26075">
        <ele>254.4</ele>
        <time>2024-03-21T14:31:57Z</time>
      </trkpt>
      <trkpt lat="43.62527" lon="3.26079">
        <ele>253.7</ele>
        <time>2024-03-21T14:31:58Z</time>
      </trkpt>
      <trkpt lat="43.62527" lon="3.26085">
        <ele>253.3</ele>
        <time>2024-03-21T14:31:59Z</time>
      </trkpt>
      <trkpt lat="43.62529" lon="3.2609">
        <ele>253.2</ele>
        <time>2024-03-21T14:32:00Z</time>
      </trkpt>
      <trkpt lat="43.62531" lon="3.26102">
        <ele>253.5</ele>
        <time>2024-03-21T14:32:02Z</time>
      </trkpt>
      <trkpt lat="43.62532" lon="3.26106">
        <ele>253.5</ele>
        <time>2024-03-21T14:32:03Z</time>
      </trkpt>
      <trkpt lat="43.62533" lon="3.26112">
        <ele>253.6</ele>
        <time>2024-03-21T14:32:04Z</time>
      </trkpt>
      <trkpt lat="43.62537" lon="3.26122">
        <ele>253.5</ele>
        <time>2024-03-21T14:32:06Z</time>
      </trkpt>
      <trkpt lat="43.62538" lon="3.26126">
        <ele>253.7</ele>
        <time>2024-03-21T14:32:07Z</time>
      </trkpt>
      <trkpt lat="43.6254" lon="3.2613">
        <ele>253.5</ele>
        <time>2024-03-21T14:32:08Z</time>
      </trkpt>
      <trkpt lat="43.62541" lon="3.26135">
        <ele>253.8</ele>
        <time>2024-03-21T14:32:09Z</time>
      </trkpt>
      <trkpt lat="43.62543" lon="3.2614">
        <ele>253.7</ele>
        <time>2024-03-21T14:32:10Z</time>
      </trkpt>
      <trkpt lat="43.62545" lon="3.2615">
        <ele>253.4</ele>
        <time>2024-03-21T14:32:12Z</time>
      </trkpt>
      <trkpt lat="43.62545" lon="3.26155">
        <ele>253.6</ele>
        <time>2024-03-21T14:32:13Z</time>
      </trkpt>
      <trkpt lat="43.62544" lon="3.26159">
        <ele>254.1</ele>
        <time>2024-03-21T14:32:14Z</time>
      </trkpt>
      <trkpt lat="43.62544" lon="3.26163">
        <ele>254.2</ele>
        <time>2024-03-21T14:32:15Z</time>
      </trkpt>
      <trkpt lat="43.62543" lon="3.26167">
        <ele>254.6</ele>
        <time>2024-03-21T14:32:16Z</time>
      </trkpt>
      <trkpt lat="43.62542" lon="3.26172">
        <ele>254.5</ele>
        <time>2024-03-21T14:32:17Z</time>
      </trkpt>
      <trkpt lat="43.62542" lon="3.26176">
        <ele>254.2</ele>
        <time>2024-03-21T14:32:18Z</time>
      </trkpt>
      <trkpt lat="43.62541" lon="3.26181">
        <ele>254.1</ele>
        <time>2024-03-21T14:32:19Z</time>
      </trkpt>
      <trkpt lat="43.62542" lon="3.26186">
        <ele>253.5</ele>
        <time>2024-03-21T14:32:20Z</time>
      </trkpt>
      <trkpt lat="43.62541" lon="3.26192">
        <ele>253.3</ele>
        <time>2024-03-21T14:32:21Z</time>
      </trkpt>
      <trkpt lat="43.62541" lon="3.26198">
        <ele>253</ele>
        <time>2024-03-21T14:32:22Z</time>
      </trkpt>
      <trkpt lat="43.62539" lon="3.26212">
        <ele>253.1</ele>
        <time>2024-03-21T14:32:24Z</time>
      </trkpt>
      <trkpt lat="43.62539" lon="3.26219">
        <ele>252.9</ele>
        <time>2024-03-21T14:32:25Z</time>
      </trkpt>
      <trkpt lat="43.6254" lon="3.26226">
        <ele>252.6</ele>
        <time>2024-03-21T14:32:26Z</time>
      </trkpt>
      <trkpt lat="43.6254" lon="3.26233">
        <ele>252.7</ele>
        <time>2024-03-21T14:32:27Z</time>
      </trkpt>
      <trkpt lat="43.62542" lon="3.2624">
        <ele>252.2</ele>
        <time>2024-03-21T14:32:28Z</time>
      </trkpt>
      <trkpt lat="43.62543" lon="3.26248">
        <ele>252</ele>
        <time>2024-03-21T14:32:29Z</time>
      </trkpt>
      <trkpt lat="43.62544" lon="3.26255">
        <ele>251.5</ele>
        <time>2024-03-21T14:32:30Z</time>
      </trkpt>
      <trkpt lat="43.62541" lon="3.26276">
        <ele>251.3</ele>
        <time>2024-03-21T14:32:33Z</time>
      </trkpt>
      <trkpt lat="43.62539" lon="3.26282">
        <ele>251.3</ele>
        <time>2024-03-21T14:32:34Z</time>
      </trkpt>
      <trkpt lat="43.62535" lon="3.26292">
        <ele>251.3</ele>
        <time>2024-03-21T14:32:36Z</time>
      </trkpt>
      <trkpt lat="43.62533" lon="3.26298">
        <ele>251.2</ele>
        <time>2024-03-21T14:32:37Z</time>
      </trkpt>
      <trkpt lat="43.62532" lon="3.26303">
        <ele>250.9</ele>
        <time>2024-03-21T14:32:38Z</time>
      </trkpt>
      <trkpt lat="43.62532" lon="3.26309">
        <ele>251</ele>
        <time>2024-03-21T14:32:39Z</time>
      </trkpt>
      <trkpt lat="43.62534" lon="3.26319">
        <ele>251.5</ele>
        <time>2024-03-21T14:32:41Z</time>
      </trkpt>
      <trkpt lat="43.62535" lon="3.26323">
        <ele>251.7</ele>
        <time>2024-03-21T14:32:42Z</time>
      </trkpt>
      <trkpt lat="43.62538" lon="3.26327">
        <ele>251.3</ele>
        <time>2024-03-21T14:32:43Z</time>
      </trkpt>
      <trkpt lat="43.62541" lon="3.26332">
        <ele>251</ele>
        <time>2024-03-21T14:32:44Z</time>
      </trkpt>
      <trkpt lat="43.62544" lon="3.26338">
        <ele>250.7</ele>
        <time>2024-03-21T14:32:45Z</time>
      </trkpt>
      <trkpt lat="43.62546" lon="3.26344">
        <ele>250.5</ele>
        <time>2024-03-21T14:32:46Z</time>
      </trkpt>
      <trkpt lat="43.62546" lon="3.26363">
        <ele>251.8</ele>
        <time>2024-03-21T14:32:50Z</time>
      </trkpt>
      <trkpt lat="43.62547" lon="3.26367">
        <ele>251.6</ele>
        <time>2024-03-21T14:32:51Z</time>
      </trkpt>
      <trkpt lat="43.62547" lon="3.26397">
        <ele>253</ele>
        <time>2024-03-21T14:32:56Z</time>
      </trkpt>
      <trkpt lat="43.62546" lon="3.26404">
        <ele>254</ele>
        <time>2024-03-21T14:32:57Z</time>
      </trkpt>
      <trkpt lat="43.62546" lon="3.2642">
        <ele>255.1</ele>
        <time>2024-03-21T14:32:59Z</time>
      </trkpt>
      <trkpt lat="43.62545" lon="3.26428">
        <ele>254.7</ele>
        <time>2024-03-21T14:33:00Z</time>
      </trkpt>
      <trkpt lat="43.62543" lon="3.26438">
        <ele>254.6</ele>
        <time>2024-03-21T14:33:01Z</time>
      </trkpt>
      <trkpt lat="43.6254" lon="3.26447">
        <ele>254.8</ele>
        <time>2024-03-21T14:33:02Z</time>
      </trkpt>
      <trkpt lat="43.62539" lon="3.26456">
        <ele>254.4</ele>
        <time>2024-03-21T14:33:03Z</time>
      </trkpt>
      <trkpt lat="43.62537" lon="3.2647">
        <ele>253.9</ele>
        <time>2024-03-21T14:33:05Z</time>
      </trkpt>
      <trkpt lat="43.62538" lon="3.26474">
        <ele>253.4</ele>
        <time>2024-03-21T14:33:06Z</time>
      </trkpt>
      <trkpt lat="43.6254" lon="3.26477">
        <ele>252.9</ele>
        <time>2024-03-21T14:33:07Z</time>
      </trkpt>
      <trkpt lat="43.62543" lon="3.26481">
        <ele>252</ele>
        <time>2024-03-21T14:33:08Z</time>
      </trkpt>
      <trkpt lat="43.62547" lon="3.26486">
        <ele>250.7</ele>
        <time>2024-03-21T14:33:09Z</time>
      </trkpt>
      <trkpt lat="43.62551" lon="3.2649">
        <ele>249.4</ele>
        <time>2024-03-21T14:33:10Z</time>
      </trkpt>
      <trkpt lat="43.62556" lon="3.26494">
        <ele>247.7</ele>
        <time>2024-03-21T14:33:11Z</time>
      </trkpt>
      <trkpt lat="43.6256" lon="3.26499">
        <ele>247.5</ele>
        <time>2024-03-21T14:33:12Z</time>
      </trkpt>
      <trkpt lat="43.62564" lon="3.26503">
        <ele>247.4</ele>
        <time>2024-03-21T14:33:13Z</time>
      </trkpt>
      <trkpt lat="43.62569" lon="3.26507">
        <ele>247.2</ele>
        <time>2024-03-21T14:33:14Z</time>
      </trkpt>
      <trkpt lat="43.62577" lon="3.26517">
        <ele>246.7</ele>
        <time>2024-03-21T14:33:16Z</time>
      </trkpt>
      <trkpt lat="43.6258" lon="3.26522">
        <ele>246.4</ele>
        <time>2024-03-21T14:33:17Z</time>
      </trkpt>
      <trkpt lat="43.62584" lon="3.26528">
        <ele>245.8</ele>
        <time>2024-03-21T14:33:18Z</time>
      </trkpt>
      <trkpt lat="43.62588" lon="3.26535">
        <ele>245.2</ele>
        <time>2024-03-21T14:33:19Z</time>
      </trkpt>
      <trkpt lat="43.62591" lon="3.26541">
        <ele>244.9</ele>
        <time>2024-03-21T14:33:20Z</time>
      </trkpt>
      <trkpt lat="43.62595" lon="3.26547">
        <ele>244.3</ele>
        <time>2024-03-21T14:33:21Z</time>
      </trkpt>
      <trkpt lat="43.62598" lon="3.26554">
        <ele>244.2</ele>
        <time>2024-03-21T14:33:22Z</time>
      </trkpt>
      <trkpt lat="43.62601" lon="3.2656">
        <ele>243.9</ele>
        <time>2024-03-21T14:33:23Z</time>
      </trkpt>
      <trkpt lat="43.62605" lon="3.26566">
        <ele>243.4</ele>
        <time>2024-03-21T14:33:24Z</time>
      </trkpt>
      <trkpt lat="43.62608" lon="3.26572">
        <ele>243</ele>
        <time>2024-03-21T14:33:25Z</time>
      </trkpt>
      <trkpt lat="43.62612" lon="3.26578">
        <ele>242.4</ele>
        <time>2024-03-21T14:33:26Z</time>
      </trkpt>
      <trkpt lat="43.62615" lon="3.26583">
        <ele>242</ele>
        <time>2024-03-21T14:33:27Z</time>
      </trkpt>
      <trkpt lat="43.62618" lon="3.26589">
        <ele>241.7</ele>
        <time>2024-03-21T14:33:28Z</time>
      </trkpt>
      <trkpt lat="43.62621" lon="3.26594">
        <ele>241.4</ele>
        <time>2024-03-21T14:33:29Z</time>
      </trkpt>
      <trkpt lat="43.62623" lon="3.26599">
        <ele>241.4</ele>
        <time>2024-03-21T14:33:30Z</time>
      </trkpt>
      <trkpt lat="43.62626" lon="3.26604">
        <ele>241.1</ele>
        <time>2024-03-21T14:33:31Z</time>
      </trkpt>
      <trkpt lat="43.62627" lon="3.26609">
        <ele>241.4</ele>
        <time>2024-03-21T14:33:32Z</time>
      </trkpt>
      <trkpt lat="43.62628" lon="3.26613">
        <ele>241.4</ele>
        <time>2024-03-21T14:33:33Z</time>
      </trkpt>
      <trkpt lat="43.6263" lon="3.26617">
        <ele>241.1</ele>
        <time>2024-03-21T14:33:34Z</time>
      </trkpt>
      <trkpt lat="43.62631" lon="3.26621">
        <ele>241</ele>
        <time>2024-03-21T14:33:35Z</time>
      </trkpt>
      <trkpt lat="43.62633" lon="3.26626">
        <ele>240.7</ele>
        <time>2024-03-21T14:33:36Z</time>
      </trkpt>
      <trkpt lat="43.62634" lon="3.26631">
        <ele>240.6</ele>
        <time>2024-03-21T14:33:37Z</time>
      </trkpt>
      <trkpt lat="43.62634" lon="3.26637">
        <ele>240.8</ele>
        <time>2024-03-21T14:33:38Z</time>
      </trkpt>
      <trkpt lat="43.62635" lon="3.26643">
        <ele>240.5</ele>
        <time>2024-03-21T14:33:39Z</time>
      </trkpt>
      <trkpt lat="43.62635" lon="3.26654">
        <ele>240.1</ele>
        <time>2024-03-21T14:33:41Z</time>
      </trkpt>
      <trkpt lat="43.62637" lon="3.2666">
        <ele>239.5</ele>
        <time>2024-03-21T14:33:42Z</time>
      </trkpt>
      <trkpt lat="43.62638" lon="3.26666">
        <ele>239.2</ele>
        <time>2024-03-21T14:33:43Z</time>
      </trkpt>
      <trkpt lat="43.62638" lon="3.26672">
        <ele>238.9</ele>
        <time>2024-03-21T14:33:44Z</time>
      </trkpt>
      <trkpt lat="43.62639" lon="3.26679">
        <ele>238.5</ele>
        <time>2024-03-21T14:33:45Z</time>
      </trkpt>
      <trkpt lat="43.62639" lon="3.26686">
        <ele>238.3</ele>
        <time>2024-03-21T14:33:46Z</time>
      </trkpt>
      <trkpt lat="43.62637" lon="3.26702">
        <ele>238.1</ele>
        <time>2024-03-21T14:33:48Z</time>
      </trkpt>
      <trkpt lat="43.62636" lon="3.26709">
        <ele>238.2</ele>
        <time>2024-03-21T14:33:49Z</time>
      </trkpt>
      <trkpt lat="43.62636" lon="3.26717">
        <ele>238.2</ele>
        <time>2024-03-21T14:33:50Z</time>
      </trkpt>
      <trkpt lat="43.62637" lon="3.26723">
        <ele>238.1</ele>
        <time>2024-03-21T14:33:51Z</time>
      </trkpt>
      <trkpt lat="43.62638" lon="3.2673">
        <ele>238.1</ele>
        <time>2024-03-21T14:33:52Z</time>
      </trkpt>
      <trkpt lat="43.6264" lon="3.26736">
        <ele>237.9</ele>
        <time>2024-03-21T14:33:53Z</time>
      </trkpt>
      <trkpt lat="43.62641" lon="3.26743">
        <ele>237.8</ele>
        <time>2024-03-21T14:33:54Z</time>
      </trkpt>
      <trkpt lat="43.62643" lon="3.2675">
        <ele>237.7</ele>
        <time>2024-03-21T14:33:55Z</time>
      </trkpt>
      <trkpt lat="43.62644" lon="3.26758">
        <ele>237.3</ele>
        <time>2024-03-21T14:33:56Z</time>
      </trkpt>
      <trkpt lat="43.62645" lon="3.26765">
        <ele>237</ele>
        <time>2024-03-21T14:33:57Z</time>
      </trkpt>
      <trkpt lat="43.62646" lon="3.26771">
        <ele>236.7</ele>
        <time>2024-03-21T14:33:58Z</time>
      </trkpt>
      <trkpt lat="43.62646" lon="3.26776">
        <ele>236.6</ele>
        <time>2024-03-21T14:33:59Z</time>
      </trkpt>
      <trkpt lat="43.62645" lon="3.2678">
        <ele>236.5</ele>
        <time>2024-03-21T14:34:00Z</time>
      </trkpt>
      <trkpt lat="43.62645" lon="3.26787">
        <ele>236.2</ele>
        <time>2024-03-21T14:34:03Z</time>
      </trkpt>
      <trkpt lat="43.62644" lon="3.26789">
        <ele>236.2</ele>
        <time>2024-03-21T14:34:04Z</time>
      </trkpt>
      <trkpt lat="43.62644" lon="3.26791">
        <ele>236.2</ele>
        <time>2024-03-21T14:34:06Z</time>
      </trkpt>
      <trkpt lat="43.62643" lon="3.26791">
        <ele>236.2</ele>
        <time>2024-03-21T14:34:08Z</time>
      </trkpt>
      <trkpt lat="43.62644" lon="3.26791">
        <ele>236.2</ele>
        <time>2024-03-21T14:34:09Z</time>
      </trkpt>
      <trkpt lat="43.62643" lon="3.26791">
        <ele>236.2</ele>
        <time>2024-03-21T14:34:11Z</time>
      </trkpt>
      <trkpt lat="43.62644" lon="3.26791">
        <ele>236.2</ele>
        <time>2024-03-21T14:34:13Z</time>
      </trkpt>
      <trkpt lat="43.62643" lon="3.26791">
        <ele>236.2</ele>
        <time>2024-03-21T14:34:17Z</time>
      </trkpt>
      <trkpt lat="43.62644" lon="3.26791">
        <ele>236.2</ele>
        <time>2024-03-21T14:34:20Z</time>
      </trkpt>
      <trkpt lat="43.62643" lon="3.26791">
        <ele>236.2</ele>
        <time>2024-03-21T14:34:22Z</time>
      </trkpt>
      <trkpt lat="43.62644" lon="3.26791">
        <ele>236.2</ele>
        <time>2024-03-21T14:34:23Z</time>
      </trkpt>
      <trkpt lat="43.62643" lon="3.26791">
        <ele>236.2</ele>
        <time>2024-03-21T14:34:24Z</time>
      </trkpt>
      <trkpt lat="43.62644" lon="3.26791">
        <ele>236.2</ele>
        <time>2024-03-21T14:34:25Z</time>
      </trkpt>
      <trkpt lat="43.62643" lon="3.26791">
        <ele>236.2</ele>
        <time>2024-03-21T14:34:27Z</time>
      </trkpt>
      <trkpt lat="43.62644" lon="3.26791">
        <ele>236.2</ele>
        <time>2024-03-21T14:34:29Z</time>
      </trkpt>
      <trkpt lat="43.62643" lon="3.26791">
        <ele>236.2</ele>
        <time>2024-03-21T14:34:30Z</time>
      </trkpt>
      <trkpt lat="43.62644" lon="3.26791">
        <ele>236.2</ele>
        <time>2024-03-21T14:34:31Z</time>
      </trkpt>
      <trkpt lat="43.62643" lon="3.26791">
        <ele>236.2</ele>
        <time>2024-03-21T14:34:35Z</time>
      </trkpt>
      <trkpt lat="43.62644" lon="3.26791">
        <ele>236.2</ele>
        <time>2024-03-21T14:34:43Z</time>
      </trkpt>
      <trkpt lat="43.62644" lon="3.2679">
        <ele>236.2</ele>
        <time>2024-03-21T14:34:51Z</time>
      </trkpt>
      <trkpt lat="43.62644" lon="3.26791">
        <ele>236.2</ele>
        <time>2024-03-21T14:34:52Z</time>
      </trkpt>
      <trkpt lat="43.62644" lon="3.2679">
        <ele>236.2</ele>
        <time>2024-03-21T14:34:53Z</time>
      </trkpt>
      <trkpt lat="43.62644" lon="3.26791">
        <ele>236.2</ele>
        <time>2024-03-21T14:34:54Z</time>
      </trkpt>
      <trkpt lat="43.62645" lon="3.26792">
        <ele>236</ele>
        <time>2024-03-21T14:43:26Z</time>
      </trkpt>
      <trkpt lat="43.62644" lon="3.26792">
        <ele>236.1</ele>
        <time>2024-03-21T14:44:30Z</time>
      </trkpt>
      <trkpt lat="43.62644" lon="3.26791">
        <ele>236.2</ele>
        <time>2024-03-21T14:44:34Z</time>
      </trkpt>
      <trkpt lat="43.62645" lon="3.26793">
        <ele>236</ele>
        <time>2024-03-21T14:44:35Z</time>
      </trkpt>
      <trkpt lat="43.62646" lon="3.26797">
        <ele>235.8</ele>
        <time>2024-03-21T14:44:36Z</time>
      </trkpt>
      <trkpt lat="43.62647" lon="3.26803">
        <ele>235.5</ele>
        <time>2024-03-21T14:44:37Z</time>
      </trkpt>
      <trkpt lat="43.62645" lon="3.26817">
        <ele>234.4</ele>
        <time>2024-03-21T14:44:39Z</time>
      </trkpt>
      <trkpt lat="43.62646" lon="3.26824">
        <ele>233.7</ele>
        <time>2024-03-21T14:44:40Z</time>
      </trkpt>
      <trkpt lat="43.62647" lon="3.26832">
        <ele>232.8</ele>
        <time>2024-03-21T14:44:41Z</time>
      </trkpt>
      <trkpt lat="43.62648" lon="3.26842">
        <ele>231.7</ele>
        <time>2024-03-21T14:44:42Z</time>
      </trkpt>
      <trkpt lat="43.62649" lon="3.26851">
        <ele>230.7</ele>
        <time>2024-03-21T14:44:43Z</time>
      </trkpt>
      <trkpt lat="43.62651" lon="3.26859">
        <ele>229.8</ele>
        <time>2024-03-21T14:44:44Z</time>
      </trkpt>
      <trkpt lat="43.62652" lon="3.26864">
        <ele>229.2</ele>
        <time>2024-03-21T14:44:45Z</time>
      </trkpt>
      <trkpt lat="43.62653" lon="3.26867">
        <ele>228.9</ele>
        <time>2024-03-21T14:44:46Z</time>
      </trkpt>
      <trkpt lat="43.62653" lon="3.26869">
        <ele>228.6</ele>
        <time>2024-03-21T14:44:47Z</time>
      </trkpt>
      <trkpt lat="43.62654" lon="3.26871">
        <ele>228.4</ele>
        <time>2024-03-21T14:44:48Z</time>
      </trkpt>
      <trkpt lat="43.62655" lon="3.26874">
        <ele>228</ele>
        <time>2024-03-21T14:44:49Z</time>
      </trkpt>
      <trkpt lat="43.62655" lon="3.26877">
        <ele>227.7</ele>
        <time>2024-03-21T14:44:50Z</time>
      </trkpt>
      <trkpt lat="43.62654" lon="3.26879">
        <ele>227.5</ele>
        <time>2024-03-21T14:44:51Z</time>
      </trkpt>
      <trkpt lat="43.62652" lon="3.26881">
        <ele>227.4</ele>
        <time>2024-03-21T14:44:52Z</time>
      </trkpt>
      <trkpt lat="43.62649" lon="3.26882">
        <ele>227.4</ele>
        <time>2024-03-21T14:44:53Z</time>
      </trkpt>
      <trkpt lat="43.62635" lon="3.26882">
        <ele>227.9</ele>
        <time>2024-03-21T14:44:58Z</time>
      </trkpt>
      <trkpt lat="43.62631" lon="3.26884">
        <ele>227.8</ele>
        <time>2024-03-21T14:44:59Z</time>
      </trkpt>
      <trkpt lat="43.62625" lon="3.26886">
        <ele>227.8</ele>
        <time>2024-03-21T14:45:01Z</time>
      </trkpt>
      <trkpt lat="43.62622" lon="3.26886">
        <ele>227.9</ele>
        <time>2024-03-21T14:45:02Z</time>
      </trkpt>
      <trkpt lat="43.62619" lon="3.26888">
        <ele>227.8</ele>
        <time>2024-03-21T14:45:03Z</time>
      </trkpt>
      <trkpt lat="43.62617" lon="3.26889">
        <ele>227.8</ele>
        <time>2024-03-21T14:45:04Z</time>
      </trkpt>
      <trkpt lat="43.62614" lon="3.2689">
        <ele>227.8</ele>
        <time>2024-03-21T14:45:05Z</time>
      </trkpt>
      <trkpt lat="43.62612" lon="3.26891">
        <ele>227.7</ele>
        <time>2024-03-21T14:45:06Z</time>
      </trkpt>
      <trkpt lat="43.6261" lon="3.26891">
        <ele>227.9</ele>
        <time>2024-03-21T14:45:07Z</time>
      </trkpt>
      <trkpt lat="43.62608" lon="3.26892">
        <ele>228</ele>
        <time>2024-03-21T14:45:08Z</time>
      </trkpt>
      <trkpt lat="43.62605" lon="3.26893">
        <ele>228.2</ele>
        <time>2024-03-21T14:45:09Z</time>
      </trkpt>
      <trkpt lat="43.62597" lon="3.26895">
        <ele>228.9</ele>
        <time>2024-03-21T14:45:11Z</time>
      </trkpt>
      <trkpt lat="43.62594" lon="3.26896">
        <ele>229.1</ele>
        <time>2024-03-21T14:45:12Z</time>
      </trkpt>
      <trkpt lat="43.6259" lon="3.26898">
        <ele>229.3</ele>
        <time>2024-03-21T14:45:13Z</time>
      </trkpt>
      <trkpt lat="43.62587" lon="3.269">
        <ele>229.4</ele>
        <time>2024-03-21T14:45:14Z</time>
      </trkpt>
      <trkpt lat="43.62584" lon="3.26901">
        <ele>229.6</ele>
        <time>2024-03-21T14:45:15Z</time>
      </trkpt>
      <trkpt lat="43.62581" lon="3.26904">
        <ele>229.7</ele>
        <time>2024-03-21T14:45:17Z</time>
      </trkpt>
      <trkpt lat="43.62578" lon="3.26906">
        <ele>229.9</ele>
        <time>2024-03-21T14:45:18Z</time>
      </trkpt>
      <trkpt lat="43.62576" lon="3.26908">
        <ele>229.9</ele>
        <time>2024-03-21T14:45:19Z</time>
      </trkpt>
      <trkpt lat="43.62573" lon="3.26909">
        <ele>230.1</ele>
        <time>2024-03-21T14:45:20Z</time>
      </trkpt>
      <trkpt lat="43.62569" lon="3.26915">
        <ele>229.8</ele>
        <time>2024-03-21T14:45:22Z</time>
      </trkpt>
      <trkpt lat="43.62566" lon="3.26917">
        <ele>229.8</ele>
        <time>2024-03-21T14:45:23Z</time>
      </trkpt>
      <trkpt lat="43.62557" lon="3.26926">
        <ele>230.2</ele>
        <time>2024-03-21T14:45:26Z</time>
      </trkpt>
      <trkpt lat="43.62555" lon="3.26929">
        <ele>230.2</ele>
        <time>2024-03-21T14:45:27Z</time>
      </trkpt>
      <trkpt lat="43.62552" lon="3.26931">
        <ele>230.3</ele>
        <time>2024-03-21T14:45:28Z</time>
      </trkpt>
      <trkpt lat="43.62549" lon="3.26934">
        <ele>230.3</ele>
        <time>2024-03-21T14:45:29Z</time>
      </trkpt>
      <trkpt lat="43.62545" lon="3.2694">
        <ele>229.9</ele>
        <time>2024-03-21T14:45:31Z</time>
      </trkpt>
      <trkpt lat="43.62542" lon="3.26942">
        <ele>229.8</ele>
        <time>2024-03-21T14:45:32Z</time>
      </trkpt>
      <trkpt lat="43.62539" lon="3.26943">
        <ele>229.8</ele>
        <time>2024-03-21T14:45:33Z</time>
      </trkpt>
      <trkpt lat="43.62536" lon="3.26945">
        <ele>229.6</ele>
        <time>2024-03-21T14:45:34Z</time>
      </trkpt>
      <trkpt lat="43.62533" lon="3.26948">
        <ele>229.4</ele>
        <time>2024-03-21T14:45:35Z</time>
      </trkpt>
      <trkpt lat="43.6253" lon="3.26949">
        <ele>229.4</ele>
        <time>2024-03-21T14:45:36Z</time>
      </trkpt>
      <trkpt lat="43.62527" lon="3.26951">
        <ele>229.3</ele>
        <time>2024-03-21T14:45:37Z</time>
      </trkpt>
      <trkpt lat="43.62523" lon="3.26952">
        <ele>229.4</ele>
        <time>2024-03-21T14:45:38Z</time>
      </trkpt>
      <trkpt lat="43.6252" lon="3.26953">
        <ele>229.4</ele>
        <time>2024-03-21T14:45:39Z</time>
      </trkpt>
      <trkpt lat="43.62516" lon="3.26954">
        <ele>229.5</ele>
        <time>2024-03-21T14:45:40Z</time>
      </trkpt>
      <trkpt lat="43.62511" lon="3.26955">
        <ele>229.7</ele>
        <time>2024-03-21T14:45:41Z</time>
      </trkpt>
      <trkpt lat="43.62507" lon="3.26956">
        <ele>229.8</ele>
        <time>2024-03-21T14:45:42Z</time>
      </trkpt>
      <trkpt lat="43.62503" lon="3.26956">
        <ele>230</ele>
        <time>2024-03-21T14:45:43Z</time>
      </trkpt>
      <trkpt lat="43.62499" lon="3.26957">
        <ele>230.1</ele>
        <time>2024-03-21T14:45:44Z</time>
      </trkpt>
      <trkpt lat="43.62496" lon="3.26958">
        <ele>230</ele>
        <time>2024-03-21T14:45:45Z</time>
      </trkpt>
      <trkpt lat="43.62492" lon="3.26959">
        <ele>230</ele>
        <time>2024-03-21T14:45:46Z</time>
      </trkpt>
      <trkpt lat="43.62489" lon="3.26959">
        <ele>230</ele>
        <time>2024-03-21T14:45:47Z</time>
      </trkpt>
      <trkpt lat="43.62487" lon="3.26958">
        <ele>230</ele>
        <time>2024-03-21T14:45:48Z</time>
      </trkpt>
      <trkpt lat="43.62483" lon="3.26959">
        <ele>230</ele>
        <time>2024-03-21T14:45:49Z</time>
      </trkpt>
      <trkpt lat="43.62476" lon="3.26959">
        <ele>230</ele>
        <time>2024-03-21T14:45:51Z</time>
      </trkpt>
      <trkpt lat="43.62473" lon="3.26958">
        <ele>230</ele>
        <time>2024-03-21T14:45:52Z</time>
      </trkpt>
      <trkpt lat="43.6247" lon="3.26958">
        <ele>230.3</ele>
        <time>2024-03-21T14:45:53Z</time>
      </trkpt>
      <trkpt lat="43.62466" lon="3.26957">
        <ele>230.8</ele>
        <time>2024-03-21T14:45:54Z</time>
      </trkpt>
      <trkpt lat="43.62463" lon="3.26958">
        <ele>231</ele>
        <time>2024-03-21T14:45:55Z</time>
      </trkpt>
      <trkpt lat="43.62459" lon="3.26959">
        <ele>231.3</ele>
        <time>2024-03-21T14:45:56Z</time>
      </trkpt>
      <trkpt lat="43.62456" lon="3.26961">
        <ele>231.3</ele>
        <time>2024-03-21T14:45:57Z</time>
      </trkpt>
      <trkpt lat="43.62453" lon="3.26964">
        <ele>231.1</ele>
        <time>2024-03-21T14:45:58Z</time>
      </trkpt>
      <trkpt lat="43.62451" lon="3.2697">
        <ele>230.2</ele>
        <time>2024-03-21T14:45:59Z</time>
      </trkpt>
      <trkpt lat="43.6245" lon="3.26975">
        <ele>229.7</ele>
        <time>2024-03-21T14:46:00Z</time>
      </trkpt>
      <trkpt lat="43.62444" lon="3.26983">
        <ele>229.7</ele>
        <time>2024-03-21T14:46:02Z</time>
      </trkpt>
      <trkpt lat="43.62441" lon="3.26986">
        <ele>230.4</ele>
        <time>2024-03-21T14:46:03Z</time>
      </trkpt>
      <trkpt lat="43.62438" lon="3.26988">
        <ele>231</ele>
        <time>2024-03-21T14:46:04Z</time>
      </trkpt>
      <trkpt lat="43.62435" lon="3.26991">
        <ele>231.6</ele>
        <time>2024-03-21T14:46:05Z</time>
      </trkpt>
      <trkpt lat="43.62433" lon="3.26995">
        <ele>231.8</ele>
        <time>2024-03-21T14:46:06Z</time>
      </trkpt>
      <trkpt lat="43.62432" lon="3.27001">
        <ele>231.7</ele>
        <time>2024-03-21T14:46:07Z</time>
      </trkpt>
      <trkpt lat="43.62433" lon="3.27006">
        <ele>231.6</ele>
        <time>2024-03-21T14:46:08Z</time>
      </trkpt>
      <trkpt lat="43.62435" lon="3.2701">
        <ele>231.3</ele>
        <time>2024-03-21T14:46:09Z</time>
      </trkpt>
      <trkpt lat="43.62438" lon="3.27015">
        <ele>230.8</ele>
        <time>2024-03-21T14:46:10Z</time>
      </trkpt>
      <trkpt lat="43.6244" lon="3.27019">
        <ele>230.5</ele>
        <time>2024-03-21T14:46:11Z</time>
      </trkpt>
      <trkpt lat="43.62442" lon="3.27022">
        <ele>230.3</ele>
        <time>2024-03-21T14:46:12Z</time>
      </trkpt>
      <trkpt lat="43.62445" lon="3.27026">
        <ele>229.8</ele>
        <time>2024-03-21T14:46:13Z</time>
      </trkpt>
      <trkpt lat="43.62447" lon="3.2703">
        <ele>229.6</ele>
        <time>2024-03-21T14:46:14Z</time>
      </trkpt>
      <trkpt lat="43.62449" lon="3.27035">
        <ele>229.5</ele>
        <time>2024-03-21T14:46:15Z</time>
      </trkpt>
      <trkpt lat="43.62451" lon="3.27039">
        <ele>229.3</ele>
        <time>2024-03-21T14:46:16Z</time>
      </trkpt>
      <trkpt lat="43.62452" lon="3.27044">
        <ele>229.4</ele>
        <time>2024-03-21T14:46:17Z</time>
      </trkpt>
      <trkpt lat="43.62454" lon="3.27049">
        <ele>229.3</ele>
        <time>2024-03-21T14:46:18Z</time>
      </trkpt>
      <trkpt lat="43.62454" lon="3.27054">
        <ele>229.5</ele>
        <time>2024-03-21T14:46:19Z</time>
      </trkpt>
      <trkpt lat="43.62456" lon="3.27064">
        <ele>229.6</ele>
        <time>2024-03-21T14:46:21Z</time>
      </trkpt>
      <trkpt lat="43.62457" lon="3.27068">
        <ele>229.6</ele>
        <time>2024-03-21T14:46:22Z</time>
      </trkpt>
      <trkpt lat="43.62459" lon="3.27071">
        <ele>229.5</ele>
        <time>2024-03-21T14:46:23Z</time>
      </trkpt>
      <trkpt lat="43.6246" lon="3.27075">
        <ele>229.5</ele>
        <time>2024-03-21T14:46:24Z</time>
      </trkpt>
      <trkpt lat="43.62461" lon="3.27078">
        <ele>229.6</ele>
        <time>2024-03-21T14:46:25Z</time>
      </trkpt>
      <trkpt lat="43.62464" lon="3.2709">
        <ele>229.4</ele>
        <time>2024-03-21T14:46:28Z</time>
      </trkpt>
      <trkpt lat="43.62464" lon="3.27095">
        <ele>229.2</ele>
        <time>2024-03-21T14:46:29Z</time>
      </trkpt>
      <trkpt lat="43.62462" lon="3.27105">
        <ele>229</ele>
        <time>2024-03-21T14:46:31Z</time>
      </trkpt>
      <trkpt lat="43.6246" lon="3.2711">
        <ele>228.9</ele>
        <time>2024-03-21T14:46:32Z</time>
      </trkpt>
      <trkpt lat="43.62458" lon="3.27114">
        <ele>228.6</ele>
        <time>2024-03-21T14:46:33Z</time>
      </trkpt>
      <trkpt lat="43.62454" lon="3.27117">
        <ele>228.3</ele>
        <time>2024-03-21T14:46:34Z</time>
      </trkpt>
      <trkpt lat="43.62451" lon="3.2712">
        <ele>228</ele>
        <time>2024-03-21T14:46:35Z</time>
      </trkpt>
      <trkpt lat="43.62448" lon="3.27122">
        <ele>227.8</ele>
        <time>2024-03-21T14:46:36Z</time>
      </trkpt>
      <trkpt lat="43.62444" lon="3.27124">
        <ele>227.7</ele>
        <time>2024-03-21T14:46:37Z</time>
      </trkpt>
      <trkpt lat="43.6244" lon="3.27125">
        <ele>227.4</ele>
        <time>2024-03-21T14:46:38Z</time>
      </trkpt>
      <trkpt lat="43.62437" lon="3.27126">
        <ele>227.2</ele>
        <time>2024-03-21T14:46:39Z</time>
      </trkpt>
      <trkpt lat="43.62426" lon="3.27126">
        <ele>227</ele>
        <time>2024-03-21T14:46:42Z</time>
      </trkpt>
      <trkpt lat="43.62423" lon="3.27125">
        <ele>227.1</ele>
        <time>2024-03-21T14:46:43Z</time>
      </trkpt>
      <trkpt lat="43.6242" lon="3.27123">
        <ele>227.4</ele>
        <time>2024-03-21T14:46:44Z</time>
      </trkpt>
      <trkpt lat="43.62417" lon="3.2712">
        <ele>227.7</ele>
        <time>2024-03-21T14:46:45Z</time>
      </trkpt>
      <trkpt lat="43.62411" lon="3.27111">
        <ele>228.6</ele>
        <time>2024-03-21T14:46:48Z</time>
      </trkpt>
      <trkpt lat="43.62408" lon="3.27107">
        <ele>228.8</ele>
        <time>2024-03-21T14:46:49Z</time>
      </trkpt>
      <trkpt lat="43.62406" lon="3.27103">
        <ele>229</ele>
        <time>2024-03-21T14:46:50Z</time>
      </trkpt>
      <trkpt lat="43.624" lon="3.27095">
        <ele>228.7</ele>
        <time>2024-03-21T14:46:52Z</time>
      </trkpt>
      <trkpt lat="43.62398" lon="3.27092">
        <ele>228.6</ele>
        <time>2024-03-21T14:46:53Z</time>
      </trkpt>
      <trkpt lat="43.62395" lon="3.27088">
        <ele>228.2</ele>
        <time>2024-03-21T14:46:54Z</time>
      </trkpt>
      <trkpt lat="43.62386" lon="3.27079">
        <ele>228.2</ele>
        <time>2024-03-21T14:46:57Z</time>
      </trkpt>
      <trkpt lat="43.62384" lon="3.27075">
        <ele>229.1</ele>
        <time>2024-03-21T14:46:58Z</time>
      </trkpt>
      <trkpt lat="43.62382" lon="3.27072">
        <ele>229.7</ele>
        <time>2024-03-21T14:46:59Z</time>
      </trkpt>
      <trkpt lat="43.62379" lon="3.2707">
        <ele>230.1</ele>
        <time>2024-03-21T14:47:00Z</time>
      </trkpt>
      <trkpt lat="43.62377" lon="3.27068">
        <ele>230.4</ele>
        <time>2024-03-21T14:47:01Z</time>
      </trkpt>
      <trkpt lat="43.62375" lon="3.27064">
        <ele>230.7</ele>
        <time>2024-03-21T14:47:02Z</time>
      </trkpt>
      <trkpt lat="43.62373" lon="3.27061">
        <ele>230.9</ele>
        <time>2024-03-21T14:47:03Z</time>
      </trkpt>
      <trkpt lat="43.62371" lon="3.27057">
        <ele>231</ele>
        <time>2024-03-21T14:47:04Z</time>
      </trkpt>
      <trkpt lat="43.62369" lon="3.27054">
        <ele>231</ele>
        <time>2024-03-21T14:47:05Z</time>
      </trkpt>
      <trkpt lat="43.62366" lon="3.27051">
        <ele>230.9</ele>
        <time>2024-03-21T14:47:06Z</time>
      </trkpt>
      <trkpt lat="43.62363" lon="3.27047">
        <ele>230.8</ele>
        <time>2024-03-21T14:47:07Z</time>
      </trkpt>
      <trkpt lat="43.62359" lon="3.27043">
        <ele>231</ele>
        <time>2024-03-21T14:47:08Z</time>
      </trkpt>
      <trkpt lat="43.62356" lon="3.27039">
        <ele>231.2</ele>
        <time>2024-03-21T14:47:09Z</time>
      </trkpt>
      <trkpt lat="43.62354" lon="3.27036">
        <ele>231.4</ele>
        <time>2024-03-21T14:47:10Z</time>
      </trkpt>
      <trkpt lat="43.62347" lon="3.27029">
        <ele>231.5</ele>
        <time>2024-03-21T14:47:12Z</time>
      </trkpt>
      <trkpt lat="43.62343" lon="3.27027">
        <ele>231.5</ele>
        <time>2024-03-21T14:47:13Z</time>
      </trkpt>
      <trkpt lat="43.62337" lon="3.27023">
        <ele>231.7</ele>
        <time>2024-03-21T14:47:15Z</time>
      </trkpt>
      <trkpt lat="43.62333" lon="3.27022">
        <ele>231.7</ele>
        <time>2024-03-21T14:47:16Z</time>
      </trkpt>
      <trkpt lat="43.6233" lon="3.27021">
        <ele>232.8</ele>
        <time>2024-03-21T14:47:17Z</time>
      </trkpt>
      <trkpt lat="43.62326" lon="3.27023">
        <ele>233.9</ele>
        <time>2024-03-21T14:47:18Z</time>
      </trkpt>
      <trkpt lat="43.62322" lon="3.27029">
        <ele>234.7</ele>
        <time>2024-03-21T14:47:20Z</time>
      </trkpt>
      <trkpt lat="43.62323" lon="3.27033">
        <ele>234.6</ele>
        <time>2024-03-21T14:47:21Z</time>
      </trkpt>
      <trkpt lat="43.62329" lon="3.27045">
        <ele>233.1</ele>
        <time>2024-03-21T14:47:24Z</time>
      </trkpt>
      <trkpt lat="43.62332" lon="3.27049">
        <ele>232.2</ele>
        <time>2024-03-21T14:47:25Z</time>
      </trkpt>
      <trkpt lat="43.62335" lon="3.27054">
        <ele>231.8</ele>
        <time>2024-03-21T14:47:26Z</time>
      </trkpt>
      <trkpt lat="43.62337" lon="3.27059">
        <ele>231.8</ele>
        <time>2024-03-21T14:47:27Z</time>
      </trkpt>
      <trkpt lat="43.62338" lon="3.27064">
        <ele>231.7</ele>
        <time>2024-03-21T14:47:28Z</time>
      </trkpt>
      <trkpt lat="43.62339" lon="3.2707">
        <ele>231.7</ele>
        <time>2024-03-21T14:47:29Z</time>
      </trkpt>
      <trkpt lat="43.62339" lon="3.27076">
        <ele>231.7</ele>
        <time>2024-03-21T14:47:30Z</time>
      </trkpt>
      <trkpt lat="43.6234" lon="3.27082">
        <ele>231.7</ele>
        <time>2024-03-21T14:47:31Z</time>
      </trkpt>
      <trkpt lat="43.62339" lon="3.27088">
        <ele>231.8</ele>
        <time>2024-03-21T14:47:32Z</time>
      </trkpt>
      <trkpt lat="43.62339" lon="3.27111">
        <ele>231.8</ele>
        <time>2024-03-21T14:47:36Z</time>
      </trkpt>
      <trkpt lat="43.62338" lon="3.27115">
        <ele>231.7</ele>
        <time>2024-03-21T14:47:37Z</time>
      </trkpt>
      <trkpt lat="43.62336" lon="3.27125">
        <ele>231.4</ele>
        <time>2024-03-21T14:47:39Z</time>
      </trkpt>
      <trkpt lat="43.62335" lon="3.27131">
        <ele>231.2</ele>
        <time>2024-03-21T14:47:40Z</time>
      </trkpt>
      <trkpt lat="43.62332" lon="3.27135">
        <ele>231.6</ele>
        <time>2024-03-21T14:47:41Z</time>
      </trkpt>
      <trkpt lat="43.62331" lon="3.2714">
        <ele>231.9</ele>
        <time>2024-03-21T14:47:42Z</time>
      </trkpt>
      <trkpt lat="43.62329" lon="3.27146">
        <ele>232.8</ele>
        <time>2024-03-21T14:47:43Z</time>
      </trkpt>
      <trkpt lat="43.62329" lon="3.27157">
        <ele>233.1</ele>
        <time>2024-03-21T14:47:45Z</time>
      </trkpt>
      <trkpt lat="43.62331" lon="3.27162">
        <ele>232.6</ele>
        <time>2024-03-21T14:47:46Z</time>
      </trkpt>
      <trkpt lat="43.62337" lon="3.27192">
        <ele>231.6</ele>
        <time>2024-03-21T14:47:52Z</time>
      </trkpt>
      <trkpt lat="43.62337" lon="3.27197">
        <ele>231.6</ele>
        <time>2024-03-21T14:47:53Z</time>
      </trkpt>
      <trkpt lat="43.62339" lon="3.27209">
        <ele>231.3</ele>
        <time>2024-03-21T14:47:55Z</time>
      </trkpt>
      <trkpt lat="43.62339" lon="3.27215">
        <ele>231.2</ele>
        <time>2024-03-21T14:47:56Z</time>
      </trkpt>
      <trkpt lat="43.62338" lon="3.2722">
        <ele>231.3</ele>
        <time>2024-03-21T14:47:57Z</time>
      </trkpt>
      <trkpt lat="43.62337" lon="3.27226">
        <ele>231.5</ele>
        <time>2024-03-21T14:47:58Z</time>
      </trkpt>
      <trkpt lat="43.62335" lon="3.27231">
        <ele>231.7</ele>
        <time>2024-03-21T14:47:59Z</time>
      </trkpt>
      <trkpt lat="43.62333" lon="3.27243">
        <ele>232.1</ele>
        <time>2024-03-21T14:48:01Z</time>
      </trkpt>
      <trkpt lat="43.62333" lon="3.27287">
        <ele>231.1</ele>
        <time>2024-03-21T14:48:08Z</time>
      </trkpt>
      <trkpt lat="43.62331" lon="3.27299">
        <ele>231.8</ele>
        <time>2024-03-21T14:48:10Z</time>
      </trkpt>
      <trkpt lat="43.62331" lon="3.27305">
        <ele>231.8</ele>
        <time>2024-03-21T14:48:11Z</time>
      </trkpt>
      <trkpt lat="43.62332" lon="3.27311">
        <ele>232.2</ele>
        <time>2024-03-21T14:48:12Z</time>
      </trkpt>
      <trkpt lat="43.62334" lon="3.27315">
        <ele>232.3</ele>
        <time>2024-03-21T14:48:13Z</time>
      </trkpt>
      <trkpt lat="43.62337" lon="3.27317">
        <ele>232.3</ele>
        <time>2024-03-21T14:48:14Z</time>
      </trkpt>
      <trkpt lat="43.62344" lon="3.27317">
        <ele>231.6</ele>
        <time>2024-03-21T14:48:16Z</time>
      </trkpt>
      <trkpt lat="43.62352" lon="3.27319">
        <ele>230.9</ele>
        <time>2024-03-21T14:48:18Z</time>
      </trkpt>
      <trkpt lat="43.62356" lon="3.27321">
        <ele>230.7</ele>
        <time>2024-03-21T14:48:19Z</time>
      </trkpt>
      <trkpt lat="43.62363" lon="3.27328">
        <ele>230.5</ele>
        <time>2024-03-21T14:48:21Z</time>
      </trkpt>
      <trkpt lat="43.62366" lon="3.27332">
        <ele>230.5</ele>
        <time>2024-03-21T14:48:22Z</time>
      </trkpt>
      <trkpt lat="43.62368" lon="3.27337">
        <ele>230.6</ele>
        <time>2024-03-21T14:48:23Z</time>
      </trkpt>
      <trkpt lat="43.62369" lon="3.27342">
        <ele>230.7</ele>
        <time>2024-03-21T14:48:24Z</time>
      </trkpt>
      <trkpt lat="43.62369" lon="3.27348">
        <ele>230.8</ele>
        <time>2024-03-21T14:48:25Z</time>
      </trkpt>
      <trkpt lat="43.62368" lon="3.27354">
        <ele>231.1</ele>
        <time>2024-03-21T14:48:26Z</time>
      </trkpt>
      <trkpt lat="43.62362" lon="3.27369">
        <ele>231.6</ele>
        <time>2024-03-21T14:48:29Z</time>
      </trkpt>
      <trkpt lat="43.62356" lon="3.27377">
        <ele>232</ele>
        <time>2024-03-21T14:48:31Z</time>
      </trkpt>
      <trkpt lat="43.62353" lon="3.27382">
        <ele>232</ele>
        <time>2024-03-21T14:48:32Z</time>
      </trkpt>
      <trkpt lat="43.6235" lon="3.27386">
        <ele>232</ele>
        <time>2024-03-21T14:48:33Z</time>
      </trkpt>
      <trkpt lat="43.62348" lon="3.2739">
        <ele>231.9</ele>
        <time>2024-03-21T14:48:34Z</time>
      </trkpt>
      <trkpt lat="43.62345" lon="3.27395">
        <ele>232</ele>
        <time>2024-03-21T14:48:35Z</time>
      </trkpt>
      <trkpt lat="43.62342" lon="3.27401">
        <ele>232.1</ele>
        <time>2024-03-21T14:48:36Z</time>
      </trkpt>
      <trkpt lat="43.6234" lon="3.27406">
        <ele>232.1</ele>
        <time>2024-03-21T14:48:37Z</time>
      </trkpt>
      <trkpt lat="43.62337" lon="3.27411">
        <ele>232</ele>
        <time>2024-03-21T14:48:38Z</time>
      </trkpt>
      <trkpt lat="43.62334" lon="3.27417">
        <ele>232</ele>
        <time>2024-03-21T14:48:39Z</time>
      </trkpt>
      <trkpt lat="43.6233" lon="3.27421">
        <ele>232.8</ele>
        <time>2024-03-21T14:48:40Z</time>
      </trkpt>
      <trkpt lat="43.62327" lon="3.27426">
        <ele>233.4</ele>
        <time>2024-03-21T14:48:41Z</time>
      </trkpt>
      <trkpt lat="43.62324" lon="3.2743">
        <ele>233.9</ele>
        <time>2024-03-21T14:48:42Z</time>
      </trkpt>
      <trkpt lat="43.6232" lon="3.27433">
        <ele>234.3</ele>
        <time>2024-03-21T14:48:43Z</time>
      </trkpt>
      <trkpt lat="43.62314" lon="3.27441">
        <ele>234.6</ele>
        <time>2024-03-21T14:48:45Z</time>
      </trkpt>
      <trkpt lat="43.62312" lon="3.27446">
        <ele>234.5</ele>
        <time>2024-03-21T14:48:46Z</time>
      </trkpt>
      <trkpt lat="43.62311" lon="3.27451">
        <ele>234.4</ele>
        <time>2024-03-21T14:48:47Z</time>
      </trkpt>
      <trkpt lat="43.62311" lon="3.27468">
        <ele>233.9</ele>
        <time>2024-03-21T14:48:50Z</time>
      </trkpt>
      <trkpt lat="43.62312" lon="3.27474">
        <ele>233.7</ele>
        <time>2024-03-21T14:48:51Z</time>
      </trkpt>
      <trkpt lat="43.62312" lon="3.2748">
        <ele>233.4</ele>
        <time>2024-03-21T14:48:52Z</time>
      </trkpt>
      <trkpt lat="43.62311" lon="3.27486">
        <ele>233.2</ele>
        <time>2024-03-21T14:48:53Z</time>
      </trkpt>
      <trkpt lat="43.6231" lon="3.27491">
        <ele>233.1</ele>
        <time>2024-03-21T14:48:54Z</time>
      </trkpt>
      <trkpt lat="43.62308" lon="3.27496">
        <ele>233</ele>
        <time>2024-03-21T14:48:55Z</time>
      </trkpt>
      <trkpt lat="43.62305" lon="3.275">
        <ele>233.1</ele>
        <time>2024-03-21T14:48:56Z</time>
      </trkpt>
      <trkpt lat="43.62301" lon="3.27503">
        <ele>233.6</ele>
        <time>2024-03-21T14:48:57Z</time>
      </trkpt>
      <trkpt lat="43.62297" lon="3.27504">
        <ele>234.3</ele>
        <time>2024-03-21T14:48:58Z</time>
      </trkpt>
      <trkpt lat="43.62294" lon="3.27506">
        <ele>234.8</ele>
        <time>2024-03-21T14:48:59Z</time>
      </trkpt>
      <trkpt lat="43.6229" lon="3.27507">
        <ele>235.6</ele>
        <time>2024-03-21T14:49:00Z</time>
      </trkpt>
      <trkpt lat="43.62286" lon="3.27509">
        <ele>236.3</ele>
        <time>2024-03-21T14:49:01Z</time>
      </trkpt>
      <trkpt lat="43.62283" lon="3.27512">
        <ele>236.9</ele>
        <time>2024-03-21T14:49:02Z</time>
      </trkpt>
      <trkpt lat="43.62281" lon="3.27517">
        <ele>237.3</ele>
        <time>2024-03-21T14:49:03Z</time>
      </trkpt>
      <trkpt lat="43.62281" lon="3.27521">
        <ele>237.2</ele>
        <time>2024-03-21T14:49:04Z</time>
      </trkpt>
      <trkpt lat="43.62282" lon="3.27525">
        <ele>237</ele>
        <time>2024-03-21T14:49:05Z</time>
      </trkpt>
      <trkpt lat="43.62282" lon="3.27545">
        <ele>236.5</ele>
        <time>2024-03-21T14:49:09Z</time>
      </trkpt>
      <trkpt lat="43.6228" lon="3.27555">
        <ele>236.6</ele>
        <time>2024-03-21T14:49:11Z</time>
      </trkpt>
      <trkpt lat="43.62276" lon="3.27563">
        <ele>237.2</ele>
        <time>2024-03-21T14:49:13Z</time>
      </trkpt>
      <trkpt lat="43.62275" lon="3.27567">
        <ele>237.2</ele>
        <time>2024-03-21T14:49:14Z</time>
      </trkpt>
      <trkpt lat="43.62271" lon="3.27575">
        <ele>237.8</ele>
        <time>2024-03-21T14:49:16Z</time>
      </trkpt>
      <trkpt lat="43.6227" lon="3.27578">
        <ele>237.9</ele>
        <time>2024-03-21T14:49:17Z</time>
      </trkpt>
      <trkpt lat="43.62268" lon="3.27582">
        <ele>238.2</ele>
        <time>2024-03-21T14:49:18Z</time>
      </trkpt>
      <trkpt lat="43.62266" lon="3.27587">
        <ele>238.2</ele>
        <time>2024-03-21T14:49:19Z</time>
      </trkpt>
      <trkpt lat="43.62264" lon="3.27591">
        <ele>238.3</ele>
        <time>2024-03-21T14:49:20Z</time>
      </trkpt>
      <trkpt lat="43.62262" lon="3.27599">
        <ele>238</ele>
        <time>2024-03-21T14:49:22Z</time>
      </trkpt>
      <trkpt lat="43.62261" lon="3.27602">
        <ele>237.9</ele>
        <time>2024-03-21T14:49:23Z</time>
      </trkpt>
      <trkpt lat="43.6226" lon="3.27607">
        <ele>237.6</ele>
        <time>2024-03-21T14:49:24Z</time>
      </trkpt>
      <trkpt lat="43.62258" lon="3.27612">
        <ele>237.5</ele>
        <time>2024-03-21T14:49:25Z</time>
      </trkpt>
      <trkpt lat="43.62256" lon="3.2762">
        <ele>236.8</ele>
        <time>2024-03-21T14:49:27Z</time>
      </trkpt>
      <trkpt lat="43.6225" lon="3.27632">
        <ele>236</ele>
        <time>2024-03-21T14:49:30Z</time>
      </trkpt>
      <trkpt lat="43.62244" lon="3.27636">
        <ele>236.1</ele>
        <time>2024-03-21T14:49:32Z</time>
      </trkpt>
      <trkpt lat="43.6224" lon="3.27638">
        <ele>236.2</ele>
        <time>2024-03-21T14:49:33Z</time>
      </trkpt>
      <trkpt lat="43.62237" lon="3.27638">
        <ele>236.5</ele>
        <time>2024-03-21T14:49:34Z</time>
      </trkpt>
      <trkpt lat="43.62234" lon="3.27639">
        <ele>236.7</ele>
        <time>2024-03-21T14:49:35Z</time>
      </trkpt>
      <trkpt lat="43.6222" lon="3.27639">
        <ele>238.2</ele>
        <time>2024-03-21T14:49:39Z</time>
      </trkpt>
      <trkpt lat="43.62216" lon="3.27638">
        <ele>238.8</ele>
        <time>2024-03-21T14:49:40Z</time>
      </trkpt>
      <trkpt lat="43.62207" lon="3.27635">
        <ele>240.4</ele>
        <time>2024-03-21T14:49:43Z</time>
      </trkpt>
      <trkpt lat="43.62199" lon="3.27635">
        <ele>241.3</ele>
        <time>2024-03-21T14:49:46Z</time>
      </trkpt>
      <trkpt lat="43.62196" lon="3.27636">
        <ele>241.5</ele>
        <time>2024-03-21T14:49:47Z</time>
      </trkpt>
      <trkpt lat="43.62188" lon="3.27644">
        <ele>242.7</ele>
        <time>2024-03-21T14:49:50Z</time>
      </trkpt>
      <trkpt lat="43.62186" lon="3.27647">
        <ele>243.1</ele>
        <time>2024-03-21T14:49:51Z</time>
      </trkpt>
      <trkpt lat="43.62184" lon="3.27651">
        <ele>243.4</ele>
        <time>2024-03-21T14:49:52Z</time>
      </trkpt>
      <trkpt lat="43.62181" lon="3.27654">
        <ele>243.8</ele>
        <time>2024-03-21T14:49:53Z</time>
      </trkpt>
      <trkpt lat="43.62178" lon="3.27656">
        <ele>244.3</ele>
        <time>2024-03-21T14:49:54Z</time>
      </trkpt>
      <trkpt lat="43.62176" lon="3.27659">
        <ele>244.4</ele>
        <time>2024-03-21T14:49:55Z</time>
      </trkpt>
      <trkpt lat="43.62173" lon="3.27661">
        <ele>244.7</ele>
        <time>2024-03-21T14:49:56Z</time>
      </trkpt>
      <trkpt lat="43.62171" lon="3.27664">
        <ele>244.7</ele>
        <time>2024-03-21T14:49:57Z</time>
      </trkpt>
      <trkpt lat="43.62169" lon="3.27666">
        <ele>244.8</ele>
        <time>2024-03-21T14:49:58Z</time>
      </trkpt>
      <trkpt lat="43.62166" lon="3.27668">
        <ele>245.2</ele>
        <time>2024-03-21T14:49:59Z</time>
      </trkpt>
      <trkpt lat="43.62164" lon="3.27671">
        <ele>245.7</ele>
        <time>2024-03-21T14:50:00Z</time>
      </trkpt>
      <trkpt lat="43.62162" lon="3.27675">
        <ele>246.1</ele>
        <time>2024-03-21T14:50:01Z</time>
      </trkpt>
      <trkpt lat="43.62159" lon="3.27677">
        <ele>246.8</ele>
        <time>2024-03-21T14:50:02Z</time>
      </trkpt>
      <trkpt lat="43.62157" lon="3.2768">
        <ele>247.3</ele>
        <time>2024-03-21T14:50:03Z</time>
      </trkpt>
      <trkpt lat="43.62156" lon="3.27683">
        <ele>247.5</ele>
        <time>2024-03-21T14:50:04Z</time>
      </trkpt>
      <trkpt lat="43.62154" lon="3.27687">
        <ele>247.9</ele>
        <time>2024-03-21T14:50:05Z</time>
      </trkpt>
      <trkpt lat="43.62153" lon="3.2769">
        <ele>248</ele>
        <time>2024-03-21T14:50:06Z</time>
      </trkpt>
      <trkpt lat="43.62153" lon="3.27709">
        <ele>248.5</ele>
        <time>2024-03-21T14:50:10Z</time>
      </trkpt>
      <trkpt lat="43.62154" lon="3.27714">
        <ele>248.4</ele>
        <time>2024-03-21T14:50:11Z</time>
      </trkpt>
      <trkpt lat="43.62154" lon="3.27722">
        <ele>248.7</ele>
        <time>2024-03-21T14:50:13Z</time>
      </trkpt>
      <trkpt lat="43.62155" lon="3.27727">
        <ele>248.5</ele>
        <time>2024-03-21T14:50:14Z</time>
      </trkpt>
      <trkpt lat="43.62155" lon="3.27741">
        <ele>248.5</ele>
        <time>2024-03-21T14:50:17Z</time>
      </trkpt>
      <trkpt lat="43.62154" lon="3.27745">
        <ele>248.7</ele>
        <time>2024-03-21T14:50:18Z</time>
      </trkpt>
      <trkpt lat="43.62154" lon="3.27754">
        <ele>248.5</ele>
        <time>2024-03-21T14:50:20Z</time>
      </trkpt>
      <trkpt lat="43.62152" lon="3.27764">
        <ele>248.4</ele>
        <time>2024-03-21T14:50:22Z</time>
      </trkpt>
      <trkpt lat="43.62151" lon="3.27768">
        <ele>248.5</ele>
        <time>2024-03-21T14:50:23Z</time>
      </trkpt>
      <trkpt lat="43.62151" lon="3.27773">
        <ele>248.2</ele>
        <time>2024-03-21T14:50:24Z</time>
      </trkpt>
      <trkpt lat="43.6215" lon="3.27778">
        <ele>248.2</ele>
        <time>2024-03-21T14:50:25Z</time>
      </trkpt>
      <trkpt lat="43.62148" lon="3.27782">
        <ele>248.6</ele>
        <time>2024-03-21T14:50:26Z</time>
      </trkpt>
      <trkpt lat="43.62147" lon="3.27787">
        <ele>248.8</ele>
        <time>2024-03-21T14:50:27Z</time>
      </trkpt>
      <trkpt lat="43.62147" lon="3.27791">
        <ele>248.7</ele>
        <time>2024-03-21T14:50:28Z</time>
      </trkpt>
      <trkpt lat="43.62146" lon="3.27796">
        <ele>248.9</ele>
        <time>2024-03-21T14:50:29Z</time>
      </trkpt>
      <trkpt lat="43.62145" lon="3.278">
        <ele>249.1</ele>
        <time>2024-03-21T14:50:30Z</time>
      </trkpt>
      <trkpt lat="43.62144" lon="3.27803">
        <ele>249.4</ele>
        <time>2024-03-21T14:50:31Z</time>
      </trkpt>
      <trkpt lat="43.62143" lon="3.27805">
        <ele>249.7</ele>
        <time>2024-03-21T14:50:32Z</time>
      </trkpt>
      <trkpt lat="43.62142" lon="3.27808">
        <ele>250</ele>
        <time>2024-03-21T14:50:33Z</time>
      </trkpt>
      <trkpt lat="43.62142" lon="3.27811">
        <ele>250</ele>
        <time>2024-03-21T14:50:34Z</time>
      </trkpt>
      <trkpt lat="43.62139" lon="3.27814">
        <ele>251</ele>
        <time>2024-03-21T14:50:36Z</time>
      </trkpt>
      <trkpt lat="43.62138" lon="3.27816">
        <ele>251.3</ele>
        <time>2024-03-21T14:50:38Z</time>
      </trkpt>
      <trkpt lat="43.62138" lon="3.27818">
        <ele>251.3</ele>
        <time>2024-03-21T14:50:40Z</time>
      </trkpt>
      <trkpt lat="43.62137" lon="3.27819">
        <ele>251.6</ele>
        <time>2024-03-21T14:50:41Z</time>
      </trkpt>
      <trkpt lat="43.62137" lon="3.27818">
        <ele>251.6</ele>
        <time>2024-03-21T14:50:57Z</time>
      </trkpt>
      <trkpt lat="43.62139" lon="3.27826">
        <ele>251</ele>
        <time>2024-03-21T14:51:14Z</time>
      </trkpt>
      <trkpt lat="43.62139" lon="3.27836">
        <ele>251</ele>
        <time>2024-03-21T14:51:16Z</time>
      </trkpt>
      <trkpt lat="43.62141" lon="3.27844">
        <ele>250.3</ele>
        <time>2024-03-21T14:51:18Z</time>
      </trkpt>
      <trkpt lat="43.62142" lon="3.27849">
        <ele>249.9</ele>
        <time>2024-03-21T14:51:19Z</time>
      </trkpt>
      <trkpt lat="43.62144" lon="3.27855">
        <ele>249.3</ele>
        <time>2024-03-21T14:51:20Z</time>
      </trkpt>
      <trkpt lat="43.62146" lon="3.27865">
        <ele>248.7</ele>
        <time>2024-03-21T14:51:22Z</time>
      </trkpt>
      <trkpt lat="43.62146" lon="3.27871">
        <ele>248.7</ele>
        <time>2024-03-21T14:51:23Z</time>
      </trkpt>
      <trkpt lat="43.62145" lon="3.27877">
        <ele>249</ele>
        <time>2024-03-21T14:51:24Z</time>
      </trkpt>
      <trkpt lat="43.62145" lon="3.27894">
        <ele>248.9</ele>
        <time>2024-03-21T14:51:27Z</time>
      </trkpt>
      <trkpt lat="43.62146" lon="3.279">
        <ele>248.4</ele>
        <time>2024-03-21T14:51:28Z</time>
      </trkpt>
      <trkpt lat="43.62147" lon="3.27905">
        <ele>248</ele>
        <time>2024-03-21T14:51:29Z</time>
      </trkpt>
      <trkpt lat="43.62147" lon="3.27909">
        <ele>247.9</ele>
        <time>2024-03-21T14:51:30Z</time>
      </trkpt>
      <trkpt lat="43.62148" lon="3.27914">
        <ele>247.4</ele>
        <time>2024-03-21T14:51:31Z</time>
      </trkpt>
      <trkpt lat="43.62148" lon="3.27927">
        <ele>247</ele>
        <time>2024-03-21T14:51:34Z</time>
      </trkpt>
      <trkpt lat="43.62146" lon="3.27933">
        <ele>247.4</ele>
        <time>2024-03-21T14:51:35Z</time>
      </trkpt>
      <trkpt lat="43.62145" lon="3.27938">
        <ele>247.5</ele>
        <time>2024-03-21T14:51:36Z</time>
      </trkpt>
      <trkpt lat="43.62142" lon="3.27942">
        <ele>248.2</ele>
        <time>2024-03-21T14:51:37Z</time>
      </trkpt>
      <trkpt lat="43.62142" lon="3.27947">
        <ele>247.9</ele>
        <time>2024-03-21T14:51:38Z</time>
      </trkpt>
      <trkpt lat="43.62141" lon="3.27953">
        <ele>247.8</ele>
        <time>2024-03-21T14:51:39Z</time>
      </trkpt>
      <trkpt lat="43.62141" lon="3.27959">
        <ele>247.3</ele>
        <time>2024-03-21T14:51:40Z</time>
      </trkpt>
      <trkpt lat="43.62142" lon="3.27966">
        <ele>246.6</ele>
        <time>2024-03-21T14:51:41Z</time>
      </trkpt>
      <trkpt lat="43.62145" lon="3.2797">
        <ele>245.4</ele>
        <time>2024-03-21T14:51:42Z</time>
      </trkpt>
      <trkpt lat="43.62148" lon="3.27975">
        <ele>244.1</ele>
        <time>2024-03-21T14:51:43Z</time>
      </trkpt>
      <trkpt lat="43.62147" lon="3.2798">
        <ele>244</ele>
        <time>2024-03-21T14:51:44Z</time>
      </trkpt>
      <trkpt lat="43.62147" lon="3.27985">
        <ele>243.6</ele>
        <time>2024-03-21T14:51:45Z</time>
      </trkpt>
      <trkpt lat="43.62145" lon="3.27991">
        <ele>243.7</ele>
        <time>2024-03-21T14:51:46Z</time>
      </trkpt>
      <trkpt lat="43.62143" lon="3.27996">
        <ele>244</ele>
        <time>2024-03-21T14:51:47Z</time>
      </trkpt>
      <trkpt lat="43.62141" lon="3.28002">
        <ele>244.3</ele>
        <time>2024-03-21T14:51:48Z</time>
      </trkpt>
      <trkpt lat="43.62139" lon="3.28014">
        <ele>244.5</ele>
        <time>2024-03-21T14:51:50Z</time>
      </trkpt>
      <trkpt lat="43.62141" lon="3.28024">
        <ele>243.7</ele>
        <time>2024-03-21T14:51:52Z</time>
      </trkpt>
      <trkpt lat="43.62142" lon="3.28028">
        <ele>243.4</ele>
        <time>2024-03-21T14:51:53Z</time>
      </trkpt>
      <trkpt lat="43.62142" lon="3.28032">
        <ele>243.2</ele>
        <time>2024-03-21T14:51:54Z</time>
      </trkpt>
      <trkpt lat="43.62141" lon="3.28037">
        <ele>243</ele>
        <time>2024-03-21T14:51:55Z</time>
      </trkpt>
      <trkpt lat="43.62142" lon="3.28043">
        <ele>242.5</ele>
        <time>2024-03-21T14:51:56Z</time>
      </trkpt>
      <trkpt lat="43.62142" lon="3.28049">
        <ele>242.2</ele>
        <time>2024-03-21T14:51:57Z</time>
      </trkpt>
      <trkpt lat="43.62143" lon="3.28055">
        <ele>241.7</ele>
        <time>2024-03-21T14:51:58Z</time>
      </trkpt>
      <trkpt lat="43.62143" lon="3.28065">
        <ele>240.4</ele>
        <time>2024-03-21T14:52:00Z</time>
      </trkpt>
      <trkpt lat="43.62142" lon="3.28069">
        <ele>239.9</ele>
        <time>2024-03-21T14:52:01Z</time>
      </trkpt>
      <trkpt lat="43.62138" lon="3.28077">
        <ele>239.1</ele>
        <time>2024-03-21T14:52:04Z</time>
      </trkpt>
      <trkpt lat="43.62135" lon="3.28082">
        <ele>239</ele>
        <time>2024-03-21T14:52:05Z</time>
      </trkpt>
      <trkpt lat="43.62131" lon="3.28088">
        <ele>239.1</ele>
        <time>2024-03-21T14:52:06Z</time>
      </trkpt>
      <trkpt lat="43.62128" lon="3.28095">
        <ele>238.9</ele>
        <time>2024-03-21T14:52:07Z</time>
      </trkpt>
      <trkpt lat="43.62126" lon="3.28103">
        <ele>238.6</ele>
        <time>2024-03-21T14:52:08Z</time>
      </trkpt>
      <trkpt lat="43.62124" lon="3.28112">
        <ele>238.3</ele>
        <time>2024-03-21T14:52:09Z</time>
      </trkpt>
      <trkpt lat="43.62124" lon="3.28132">
        <ele>236.5</ele>
        <time>2024-03-21T14:52:11Z</time>
      </trkpt>
      <trkpt lat="43.6212" lon="3.28154">
        <ele>235.3</ele>
        <time>2024-03-21T14:52:13Z</time>
      </trkpt>
      <trkpt lat="43.62119" lon="3.28165">
        <ele>234.4</ele>
        <time>2024-03-21T14:52:14Z</time>
      </trkpt>
      <trkpt lat="43.62117" lon="3.28176">
        <ele>234.5</ele>
        <time>2024-03-21T14:52:15Z</time>
      </trkpt>
      <trkpt lat="43.62117" lon="3.28198">
        <ele>233.6</ele>
        <time>2024-03-21T14:52:17Z</time>
      </trkpt>
      <trkpt lat="43.62115" lon="3.28218">
        <ele>232.4</ele>
        <time>2024-03-21T14:52:19Z</time>
      </trkpt>
      <trkpt lat="43.62113" lon="3.28229">
        <ele>231.3</ele>
        <time>2024-03-21T14:52:20Z</time>
      </trkpt>
      <trkpt lat="43.6211" lon="3.28239">
        <ele>230.3</ele>
        <time>2024-03-21T14:52:21Z</time>
      </trkpt>
      <trkpt lat="43.621" lon="3.28255">
        <ele>230.2</ele>
        <time>2024-03-21T14:52:23Z</time>
      </trkpt>
      <trkpt lat="43.62094" lon="3.28262">
        <ele>231.2</ele>
        <time>2024-03-21T14:52:24Z</time>
      </trkpt>
      <trkpt lat="43.62089" lon="3.2827">
        <ele>232.3</ele>
        <time>2024-03-21T14:52:25Z</time>
      </trkpt>
      <trkpt lat="43.62088" lon="3.28279">
        <ele>232.3</ele>
        <time>2024-03-21T14:52:26Z</time>
      </trkpt>
      <trkpt lat="43.6209" lon="3.28287">
        <ele>232.2</ele>
        <time>2024-03-21T14:52:27Z</time>
      </trkpt>
      <trkpt lat="43.62096" lon="3.28301">
        <ele>230.7</ele>
        <time>2024-03-21T14:52:29Z</time>
      </trkpt>
      <trkpt lat="43.62099" lon="3.28309">
        <ele>229.5</ele>
        <time>2024-03-21T14:52:30Z</time>
      </trkpt>
      <trkpt lat="43.62101" lon="3.28318">
        <ele>228.3</ele>
        <time>2024-03-21T14:52:31Z</time>
      </trkpt>
      <trkpt lat="43.62102" lon="3.28328">
        <ele>227.5</ele>
        <time>2024-03-21T14:52:32Z</time>
      </trkpt>
      <trkpt lat="43.62101" lon="3.28338">
        <ele>227.6</ele>
        <time>2024-03-21T14:52:33Z</time>
      </trkpt>
      <trkpt lat="43.621" lon="3.28347">
        <ele>227.8</ele>
        <time>2024-03-21T14:52:34Z</time>
      </trkpt>
      <trkpt lat="43.62099" lon="3.28357">
        <ele>227.9</ele>
        <time>2024-03-21T14:52:35Z</time>
      </trkpt>
      <trkpt lat="43.62099" lon="3.28373">
        <ele>227.2</ele>
        <time>2024-03-21T14:52:37Z</time>
      </trkpt>
      <trkpt lat="43.62101" lon="3.28378">
        <ele>226.2</ele>
        <time>2024-03-21T14:52:38Z</time>
      </trkpt>
      <trkpt lat="43.62103" lon="3.28381">
        <ele>225.3</ele>
        <time>2024-03-21T14:52:39Z</time>
      </trkpt>
      <trkpt lat="43.62105" lon="3.28386">
        <ele>224.3</ele>
        <time>2024-03-21T14:52:40Z</time>
      </trkpt>
      <trkpt lat="43.62104" lon="3.28391">
        <ele>224.3</ele>
        <time>2024-03-21T14:52:41Z</time>
      </trkpt>
      <trkpt lat="43.62104" lon="3.28396">
        <ele>223.8</ele>
        <time>2024-03-21T14:52:42Z</time>
      </trkpt>
      <trkpt lat="43.62103" lon="3.28402">
        <ele>223.4</ele>
        <time>2024-03-21T14:52:43Z</time>
      </trkpt>
      <trkpt lat="43.62102" lon="3.2841">
        <ele>222.8</ele>
        <time>2024-03-21T14:52:44Z</time>
      </trkpt>
      <trkpt lat="43.62098" lon="3.28426">
        <ele>221.5</ele>
        <time>2024-03-21T14:52:46Z</time>
      </trkpt>
      <trkpt lat="43.62097" lon="3.28432">
        <ele>220.8</ele>
        <time>2024-03-21T14:52:47Z</time>
      </trkpt>
      <trkpt lat="43.62096" lon="3.28439">
        <ele>220</ele>
        <time>2024-03-21T14:52:48Z</time>
      </trkpt>
      <trkpt lat="43.62095" lon="3.28445">
        <ele>219.3</ele>
        <time>2024-03-21T14:52:49Z</time>
      </trkpt>
      <trkpt lat="43.62093" lon="3.2845">
        <ele>219.2</ele>
        <time>2024-03-21T14:52:50Z</time>
      </trkpt>
      <trkpt lat="43.62093" lon="3.28455">
        <ele>218.8</ele>
        <time>2024-03-21T14:52:51Z</time>
      </trkpt>
      <trkpt lat="43.62095" lon="3.28458">
        <ele>218.3</ele>
        <time>2024-03-21T14:52:52Z</time>
      </trkpt>
      <trkpt lat="43.62098" lon="3.28459">
        <ele>217.8</ele>
        <time>2024-03-21T14:52:53Z</time>
      </trkpt>
      <trkpt lat="43.62102" lon="3.28459">
        <ele>217.3</ele>
        <time>2024-03-21T14:52:54Z</time>
      </trkpt>
      <trkpt lat="43.62107" lon="3.28456">
        <ele>216.8</ele>
        <time>2024-03-21T14:52:55Z</time>
      </trkpt>
      <trkpt lat="43.62115" lon="3.28448">
        <ele>216.2</ele>
        <time>2024-03-21T14:52:57Z</time>
      </trkpt>
      <trkpt lat="43.6212" lon="3.28448">
        <ele>215.4</ele>
        <time>2024-03-21T14:52:58Z</time>
      </trkpt>
      <trkpt lat="43.62124" lon="3.28451">
        <ele>214.6</ele>
        <time>2024-03-21T14:52:59Z</time>
      </trkpt>
      <trkpt lat="43.62124" lon="3.28457">
        <ele>214</ele>
        <time>2024-03-21T14:53:00Z</time>
      </trkpt>
      <trkpt lat="43.62123" lon="3.28463">
        <ele>213.7</ele>
        <time>2024-03-21T14:53:01Z</time>
      </trkpt>
      <trkpt lat="43.62123" lon="3.28469">
        <ele>213.1</ele>
        <time>2024-03-21T14:53:02Z</time>
      </trkpt>
      <trkpt lat="43.62119" lon="3.28483">
        <ele>212.6</ele>
        <time>2024-03-21T14:53:04Z</time>
      </trkpt>
      <trkpt lat="43.62117" lon="3.28492">
        <ele>212.1</ele>
        <time>2024-03-21T14:53:05Z</time>
      </trkpt>
      <trkpt lat="43.62114" lon="3.28499">
        <ele>211.8</ele>
        <time>2024-03-21T14:53:06Z</time>
      </trkpt>
      <trkpt lat="43.62111" lon="3.28508">
        <ele>211.4</ele>
        <time>2024-03-21T14:53:07Z</time>
      </trkpt>
      <trkpt lat="43.62108" lon="3.28516">
        <ele>211.2</ele>
        <time>2024-03-21T14:53:08Z</time>
      </trkpt>
      <trkpt lat="43.62109" lon="3.28524">
        <ele>210.5</ele>
        <time>2024-03-21T14:53:09Z</time>
      </trkpt>
      <trkpt lat="43.62112" lon="3.2853">
        <ele>209.7</ele>
        <time>2024-03-21T14:53:10Z</time>
      </trkpt>
      <trkpt lat="43.62118" lon="3.2853">
        <ele>209.3</ele>
        <time>2024-03-21T14:53:11Z</time>
      </trkpt>
      <trkpt lat="43.62124" lon="3.28528">
        <ele>209.1</ele>
        <time>2024-03-21T14:53:12Z</time>
      </trkpt>
      <trkpt lat="43.62134" lon="3.28518">
        <ele>208.8</ele>
        <time>2024-03-21T14:53:14Z</time>
      </trkpt>
      <trkpt lat="43.6214" lon="3.28516">
        <ele>208.3</ele>
        <time>2024-03-21T14:53:15Z</time>
      </trkpt>
      <trkpt lat="43.62147" lon="3.28518">
        <ele>207.7</ele>
        <time>2024-03-21T14:53:16Z</time>
      </trkpt>
      <trkpt lat="43.62154" lon="3.28524">
        <ele>207</ele>
        <time>2024-03-21T14:53:17Z</time>
      </trkpt>
      <trkpt lat="43.62161" lon="3.28532">
        <ele>206.3</ele>
        <time>2024-03-21T14:53:18Z</time>
      </trkpt>
      <trkpt lat="43.62168" lon="3.28539">
        <ele>205.5</ele>
        <time>2024-03-21T14:53:19Z</time>
      </trkpt>
      <trkpt lat="43.62175" lon="3.28548">
        <ele>204.6</ele>
        <time>2024-03-21T14:53:20Z</time>
      </trkpt>
      <trkpt lat="43.62182" lon="3.28556">
        <ele>203.9</ele>
        <time>2024-03-21T14:53:21Z</time>
      </trkpt>
      <trkpt lat="43.62189" lon="3.28565">
        <ele>203.3</ele>
        <time>2024-03-21T14:53:22Z</time>
      </trkpt>
      <trkpt lat="43.62197" lon="3.28573">
        <ele>202.8</ele>
        <time>2024-03-21T14:53:23Z</time>
      </trkpt>
      <trkpt lat="43.62204" lon="3.28581">
        <ele>202.3</ele>
        <time>2024-03-21T14:53:24Z</time>
      </trkpt>
      <trkpt lat="43.62212" lon="3.2859">
        <ele>201.3</ele>
        <time>2024-03-21T14:53:25Z</time>
      </trkpt>
      <trkpt lat="43.6222" lon="3.28598">
        <ele>200.1</ele>
        <time>2024-03-21T14:53:26Z</time>
      </trkpt>
      <trkpt lat="43.62234" lon="3.28614">
        <ele>198</ele>
        <time>2024-03-21T14:53:28Z</time>
      </trkpt>
      <trkpt lat="43.62239" lon="3.2862">
        <ele>197.3</ele>
        <time>2024-03-21T14:53:29Z</time>
      </trkpt>
      <trkpt lat="43.62243" lon="3.28624">
        <ele>196.9</ele>
        <time>2024-03-21T14:53:30Z</time>
      </trkpt>
      <trkpt lat="43.62246" lon="3.28628">
        <ele>196.6</ele>
        <time>2024-03-21T14:53:31Z</time>
      </trkpt>
      <trkpt lat="43.62249" lon="3.28631">
        <ele>196.3</ele>
        <time>2024-03-21T14:53:32Z</time>
      </trkpt>
      <trkpt lat="43.62251" lon="3.28634">
        <ele>196</ele>
        <time>2024-03-21T14:53:33Z</time>
      </trkpt>
      <trkpt lat="43.62252" lon="3.28638">
        <ele>195.7</ele>
        <time>2024-03-21T14:53:34Z</time>
      </trkpt>
      <trkpt lat="43.62251" lon="3.28644">
        <ele>195.3</ele>
        <time>2024-03-21T14:53:35Z</time>
      </trkpt>
      <trkpt lat="43.62249" lon="3.2865">
        <ele>194.9</ele>
        <time>2024-03-21T14:53:36Z</time>
      </trkpt>
      <trkpt lat="43.62246" lon="3.28655">
        <ele>194.5</ele>
        <time>2024-03-21T14:53:37Z</time>
      </trkpt>
      <trkpt lat="43.62243" lon="3.28661">
        <ele>194.1</ele>
        <time>2024-03-21T14:53:38Z</time>
      </trkpt>
      <trkpt lat="43.6224" lon="3.28666">
        <ele>193.8</ele>
        <time>2024-03-21T14:53:39Z</time>
      </trkpt>
      <trkpt lat="43.62237" lon="3.28672">
        <ele>193.7</ele>
        <time>2024-03-21T14:53:40Z</time>
      </trkpt>
      <trkpt lat="43.62233" lon="3.28677">
        <ele>193.6</ele>
        <time>2024-03-21T14:53:41Z</time>
      </trkpt>
      <trkpt lat="43.62229" lon="3.28683">
        <ele>193.5</ele>
        <time>2024-03-21T14:53:42Z</time>
      </trkpt>
      <trkpt lat="43.62226" lon="3.28689">
        <ele>193.2</ele>
        <time>2024-03-21T14:53:43Z</time>
      </trkpt>
      <trkpt lat="43.62222" lon="3.28696">
        <ele>192.9</ele>
        <time>2024-03-21T14:53:44Z</time>
      </trkpt>
      <trkpt lat="43.62213" lon="3.28714">
        <ele>191.9</ele>
        <time>2024-03-21T14:53:47Z</time>
      </trkpt>
      <trkpt lat="43.62209" lon="3.2872">
        <ele>191.6</ele>
        <time>2024-03-21T14:53:48Z</time>
      </trkpt>
      <trkpt lat="43.62203" lon="3.28732">
        <ele>191.1</ele>
        <time>2024-03-21T14:53:50Z</time>
      </trkpt>
      <trkpt lat="43.62193" lon="3.28742">
        <ele>190.7</ele>
        <time>2024-03-21T14:53:52Z</time>
      </trkpt>
      <trkpt lat="43.62188" lon="3.28746">
        <ele>190.9</ele>
        <time>2024-03-21T14:53:53Z</time>
      </trkpt>
      <trkpt lat="43.62182" lon="3.2875">
        <ele>191.3</ele>
        <time>2024-03-21T14:53:54Z</time>
      </trkpt>
      <trkpt lat="43.62178" lon="3.28756">
        <ele>191.8</ele>
        <time>2024-03-21T14:53:55Z</time>
      </trkpt>
      <trkpt lat="43.62176" lon="3.28763">
        <ele>192</ele>
        <time>2024-03-21T14:53:56Z</time>
      </trkpt>
      <trkpt lat="43.62176" lon="3.28777">
        <ele>192</ele>
        <time>2024-03-21T14:53:58Z</time>
      </trkpt>
      <trkpt lat="43.62177" lon="3.28785">
        <ele>192.1</ele>
        <time>2024-03-21T14:53:59Z</time>
      </trkpt>
      <trkpt lat="43.62177" lon="3.28803">
        <ele>192.8</ele>
        <time>2024-03-21T14:54:01Z</time>
      </trkpt>
      <trkpt lat="43.62176" lon="3.28812">
        <ele>192.9</ele>
        <time>2024-03-21T14:54:02Z</time>
      </trkpt>
      <trkpt lat="43.62176" lon="3.2882">
        <ele>192.8</ele>
        <time>2024-03-21T14:54:03Z</time>
      </trkpt>
      <trkpt lat="43.62175" lon="3.28829">
        <ele>192.8</ele>
        <time>2024-03-21T14:54:04Z</time>
      </trkpt>
      <trkpt lat="43.62176" lon="3.28838">
        <ele>192.5</ele>
        <time>2024-03-21T14:54:05Z</time>
      </trkpt>
      <trkpt lat="43.62178" lon="3.28845">
        <ele>192.1</ele>
        <time>2024-03-21T14:54:06Z</time>
      </trkpt>
      <trkpt lat="43.62179" lon="3.28852">
        <ele>191.9</ele>
        <time>2024-03-21T14:54:07Z</time>
      </trkpt>
      <trkpt lat="43.62181" lon="3.28858">
        <ele>191.5</ele>
        <time>2024-03-21T14:54:08Z</time>
      </trkpt>
      <trkpt lat="43.62182" lon="3.28863">
        <ele>191.3</ele>
        <time>2024-03-21T14:54:09Z</time>
      </trkpt>
      <trkpt lat="43.62184" lon="3.28868">
        <ele>190.9</ele>
        <time>2024-03-21T14:54:10Z</time>
      </trkpt>
      <trkpt lat="43.62185" lon="3.28874">
        <ele>190.6</ele>
        <time>2024-03-21T14:54:11Z</time>
      </trkpt>
      <trkpt lat="43.62187" lon="3.28884">
        <ele>190</ele>
        <time>2024-03-21T14:54:13Z</time>
      </trkpt>
      <trkpt lat="43.62189" lon="3.28888">
        <ele>189.6</ele>
        <time>2024-03-21T14:54:14Z</time>
      </trkpt>
      <trkpt lat="43.62191" lon="3.28898">
        <ele>189.4</ele>
        <time>2024-03-21T14:54:16Z</time>
      </trkpt>
      <trkpt lat="43.62192" lon="3.28901">
        <ele>189.3</ele>
        <time>2024-03-21T14:54:17Z</time>
      </trkpt>
      <trkpt lat="43.62193" lon="3.28906">
        <ele>189.2</ele>
        <time>2024-03-21T14:54:18Z</time>
      </trkpt>
      <trkpt lat="43.62193" lon="3.28912">
        <ele>189.2</ele>
        <time>2024-03-21T14:54:19Z</time>
      </trkpt>
      <trkpt lat="43.62195" lon="3.28922">
        <ele>189.1</ele>
        <time>2024-03-21T14:54:21Z</time>
      </trkpt>
      <trkpt lat="43.62195" lon="3.28927">
        <ele>189.3</ele>
        <time>2024-03-21T14:54:22Z</time>
      </trkpt>
      <trkpt lat="43.62196" lon="3.28931">
        <ele>189.4</ele>
        <time>2024-03-21T14:54:23Z</time>
      </trkpt>
      <trkpt lat="43.62196" lon="3.28935">
        <ele>189.5</ele>
        <time>2024-03-21T14:54:24Z</time>
      </trkpt>
      <trkpt lat="43.62197" lon="3.28938">
        <ele>189.5</ele>
        <time>2024-03-21T14:54:25Z</time>
      </trkpt>
      <trkpt lat="43.62198" lon="3.28942">
        <ele>189.5</ele>
        <time>2024-03-21T14:54:26Z</time>
      </trkpt>
      <trkpt lat="43.62199" lon="3.28945">
        <ele>189.5</ele>
        <time>2024-03-21T14:54:27Z</time>
      </trkpt>
      <trkpt lat="43.62201" lon="3.2895">
        <ele>189.5</ele>
        <time>2024-03-21T14:54:28Z</time>
      </trkpt>
      <trkpt lat="43.62203" lon="3.28954">
        <ele>189.4</ele>
        <time>2024-03-21T14:54:29Z</time>
      </trkpt>
      <trkpt lat="43.62204" lon="3.28959">
        <ele>189.5</ele>
        <time>2024-03-21T14:54:30Z</time>
      </trkpt>
      <trkpt lat="43.62205" lon="3.28965">
        <ele>189.6</ele>
        <time>2024-03-21T14:54:31Z</time>
      </trkpt>
      <trkpt lat="43.62207" lon="3.28971">
        <ele>189.6</ele>
        <time>2024-03-21T14:54:32Z</time>
      </trkpt>
      <trkpt lat="43.62208" lon="3.28975">
        <ele>189.7</ele>
        <time>2024-03-21T14:54:33Z</time>
      </trkpt>
      <trkpt lat="43.62209" lon="3.2898">
        <ele>189.8</ele>
        <time>2024-03-21T14:54:34Z</time>
      </trkpt>
      <trkpt lat="43.62211" lon="3.28985">
        <ele>189.9</ele>
        <time>2024-03-21T14:54:35Z</time>
      </trkpt>
      <trkpt lat="43.62212" lon="3.28989">
        <ele>189.9</ele>
        <time>2024-03-21T14:54:36Z</time>
      </trkpt>
      <trkpt lat="43.62214" lon="3.28999">
        <ele>190.1</ele>
        <time>2024-03-21T14:54:38Z</time>
      </trkpt>
      <trkpt lat="43.62216" lon="3.29005">
        <ele>190</ele>
        <time>2024-03-21T14:54:39Z</time>
      </trkpt>
      <trkpt lat="43.62217" lon="3.29009">
        <ele>190</ele>
        <time>2024-03-21T14:54:40Z</time>
      </trkpt>
      <trkpt lat="43.6222" lon="3.29024">
        <ele>190.1</ele>
        <time>2024-03-21T14:54:43Z</time>
      </trkpt>
      <trkpt lat="43.62222" lon="3.29029">
        <ele>190</ele>
        <time>2024-03-21T14:54:44Z</time>
      </trkpt>
      <trkpt lat="43.62222" lon="3.29034">
        <ele>190</ele>
        <time>2024-03-21T14:54:45Z</time>
      </trkpt>
      <trkpt lat="43.62224" lon="3.2904">
        <ele>189.8</ele>
        <time>2024-03-21T14:54:46Z</time>
      </trkpt>
      <trkpt lat="43.62225" lon="3.29045">
        <ele>189.7</ele>
        <time>2024-03-21T14:54:47Z</time>
      </trkpt>
      <trkpt lat="43.62227" lon="3.29057">
        <ele>189.5</ele>
        <time>2024-03-21T14:54:49Z</time>
      </trkpt>
      <trkpt lat="43.62228" lon="3.29062">
        <ele>189.4</ele>
        <time>2024-03-21T14:54:50Z</time>
      </trkpt>
      <trkpt lat="43.62229" lon="3.29068">
        <ele>189.3</ele>
        <time>2024-03-21T14:54:51Z</time>
      </trkpt>
      <trkpt lat="43.62229" lon="3.29073">
        <ele>189.3</ele>
        <time>2024-03-21T14:54:52Z</time>
      </trkpt>
      <trkpt lat="43.6223" lon="3.29078">
        <ele>189.2</ele>
        <time>2024-03-21T14:54:53Z</time>
      </trkpt>
      <trkpt lat="43.6223" lon="3.29094">
        <ele>188.9</ele>
        <time>2024-03-21T14:54:56Z</time>
      </trkpt>
      <trkpt lat="43.62229" lon="3.29098">
        <ele>188.9</ele>
        <time>2024-03-21T14:54:57Z</time>
      </trkpt>
      <trkpt lat="43.62229" lon="3.29103">
        <ele>188.7</ele>
        <time>2024-03-21T14:54:58Z</time>
      </trkpt>
      <trkpt lat="43.62228" lon="3.29108">
        <ele>188.7</ele>
        <time>2024-03-21T14:54:59Z</time>
      </trkpt>
      <trkpt lat="43.62228" lon="3.29113">
        <ele>188.5</ele>
        <time>2024-03-21T14:55:00Z</time>
      </trkpt>
      <trkpt lat="43.62224" lon="3.29123">
        <ele>188.4</ele>
        <time>2024-03-21T14:55:02Z</time>
      </trkpt>
      <trkpt lat="43.62222" lon="3.29127">
        <ele>188.4</ele>
        <time>2024-03-21T14:55:03Z</time>
      </trkpt>
      <trkpt lat="43.62221" lon="3.29131">
        <ele>188.4</ele>
        <time>2024-03-21T14:55:04Z</time>
      </trkpt>
      <trkpt lat="43.62221" lon="3.29139">
        <ele>188.1</ele>
        <time>2024-03-21T14:55:06Z</time>
      </trkpt>
      <trkpt lat="43.6222" lon="3.29143">
        <ele>188</ele>
        <time>2024-03-21T14:55:07Z</time>
      </trkpt>
      <trkpt lat="43.6222" lon="3.29147">
        <ele>187.9</ele>
        <time>2024-03-21T14:55:08Z</time>
      </trkpt>
      <trkpt lat="43.62218" lon="3.29152">
        <ele>187.9</ele>
        <time>2024-03-21T14:55:09Z</time>
      </trkpt>
      <trkpt lat="43.62217" lon="3.29156">
        <ele>187.9</ele>
        <time>2024-03-21T14:55:10Z</time>
      </trkpt>
      <trkpt lat="43.62217" lon="3.2916">
        <ele>187.8</ele>
        <time>2024-03-21T14:55:11Z</time>
      </trkpt>
      <trkpt lat="43.62216" lon="3.29164">
        <ele>187.7</ele>
        <time>2024-03-21T14:55:12Z</time>
      </trkpt>
      <trkpt lat="43.62216" lon="3.29172">
        <ele>187.5</ele>
        <time>2024-03-21T14:55:14Z</time>
      </trkpt>
      <trkpt lat="43.62218" lon="3.29184">
        <ele>186.8</ele>
        <time>2024-03-21T14:55:16Z</time>
      </trkpt>
      <trkpt lat="43.62218" lon="3.2919">
        <ele>186.6</ele>
        <time>2024-03-21T14:55:17Z</time>
      </trkpt>
      <trkpt lat="43.62219" lon="3.29195">
        <ele>186.3</ele>
        <time>2024-03-21T14:55:18Z</time>
      </trkpt>
      <trkpt lat="43.62219" lon="3.29225">
        <ele>186.2</ele>
        <time>2024-03-21T14:55:24Z</time>
      </trkpt>
      <trkpt lat="43.6222" lon="3.29228">
        <ele>186.2</ele>
        <time>2024-03-21T14:55:25Z</time>
      </trkpt>
      <trkpt lat="43.62221" lon="3.2923">
        <ele>186.1</ele>
        <time>2024-03-21T14:55:26Z</time>
      </trkpt>
      <trkpt lat="43.62222" lon="3.29233">
        <ele>186</ele>
        <time>2024-03-21T14:55:27Z</time>
      </trkpt>
      <trkpt lat="43.62223" lon="3.29237">
        <ele>185.9</ele>
        <time>2024-03-21T14:55:28Z</time>
      </trkpt>
      <trkpt lat="43.62223" lon="3.29242">
        <ele>185.9</ele>
        <time>2024-03-21T14:55:29Z</time>
      </trkpt>
      <trkpt lat="43.62224" lon="3.29248">
        <ele>185.9</ele>
        <time>2024-03-21T14:55:30Z</time>
      </trkpt>
      <trkpt lat="43.62224" lon="3.29253">
        <ele>185.9</ele>
        <time>2024-03-21T14:55:31Z</time>
      </trkpt>
      <trkpt lat="43.62227" lon="3.29268">
        <ele>185.7</ele>
        <time>2024-03-21T14:55:34Z</time>
      </trkpt>
      <trkpt lat="43.62228" lon="3.29272">
        <ele>185.6</ele>
        <time>2024-03-21T14:55:35Z</time>
      </trkpt>
      <trkpt lat="43.62228" lon="3.29276">
        <ele>185.6</ele>
        <time>2024-03-21T14:55:36Z</time>
      </trkpt>
      <trkpt lat="43.6223" lon="3.29284">
        <ele>185.2</ele>
        <time>2024-03-21T14:55:38Z</time>
      </trkpt>
      <trkpt lat="43.62231" lon="3.29287">
        <ele>185</ele>
        <time>2024-03-21T14:55:39Z</time>
      </trkpt>
      <trkpt lat="43.62231" lon="3.29291">
        <ele>184.9</ele>
        <time>2024-03-21T14:55:40Z</time>
      </trkpt>
      <trkpt lat="43.62232" lon="3.29297">
        <ele>184.6</ele>
        <time>2024-03-21T14:55:41Z</time>
      </trkpt>
      <trkpt lat="43.62233" lon="3.29302">
        <ele>184.4</ele>
        <time>2024-03-21T14:55:42Z</time>
      </trkpt>
      <trkpt lat="43.62233" lon="3.29306">
        <ele>184.2</ele>
        <time>2024-03-21T14:55:43Z</time>
      </trkpt>
      <trkpt lat="43.62235" lon="3.29316">
        <ele>183.7</ele>
        <time>2024-03-21T14:55:45Z</time>
      </trkpt>
      <trkpt lat="43.62235" lon="3.29321">
        <ele>183.5</ele>
        <time>2024-03-21T14:55:46Z</time>
      </trkpt>
      <trkpt lat="43.62236" lon="3.29327">
        <ele>183.2</ele>
        <time>2024-03-21T14:55:47Z</time>
      </trkpt>
      <trkpt lat="43.62236" lon="3.29333">
        <ele>183</ele>
        <time>2024-03-21T14:55:48Z</time>
      </trkpt>
      <trkpt lat="43.62238" lon="3.29345">
        <ele>183</ele>
        <time>2024-03-21T14:55:50Z</time>
      </trkpt>
      <trkpt lat="43.62238" lon="3.29349">
        <ele>183.1</ele>
        <time>2024-03-21T14:55:51Z</time>
      </trkpt>
      <trkpt lat="43.62239" lon="3.29353">
        <ele>183.1</ele>
        <time>2024-03-21T14:55:52Z</time>
      </trkpt>
      <trkpt lat="43.62241" lon="3.29363">
        <ele>183</ele>
        <time>2024-03-21T14:55:54Z</time>
      </trkpt>
      <trkpt lat="43.62242" lon="3.29369">
        <ele>183.1</ele>
        <time>2024-03-21T14:55:55Z</time>
      </trkpt>
      <trkpt lat="43.62243" lon="3.29376">
        <ele>183.3</ele>
        <time>2024-03-21T14:55:56Z</time>
      </trkpt>
      <trkpt lat="43.62244" lon="3.29381">
        <ele>183.4</ele>
        <time>2024-03-21T14:55:57Z</time>
      </trkpt>
      <trkpt lat="43.62246" lon="3.29386">
        <ele>183.3</ele>
        <time>2024-03-21T14:55:58Z</time>
      </trkpt>
      <trkpt lat="43.62247" lon="3.29391">
        <ele>183.3</ele>
        <time>2024-03-21T14:55:59Z</time>
      </trkpt>
      <trkpt lat="43.62248" lon="3.29394">
        <ele>183.2</ele>
        <time>2024-03-21T14:56:00Z</time>
      </trkpt>
      <trkpt lat="43.62253" lon="3.29399">
        <ele>182.6</ele>
        <time>2024-03-21T14:56:02Z</time>
      </trkpt>
      <trkpt lat="43.62257" lon="3.29405">
        <ele>182</ele>
        <time>2024-03-21T14:56:04Z</time>
      </trkpt>
      <trkpt lat="43.62259" lon="3.29413">
        <ele>181.7</ele>
        <time>2024-03-21T14:56:06Z</time>
      </trkpt>
      <trkpt lat="43.62262" lon="3.29417">
        <ele>181.3</ele>
        <time>2024-03-21T14:56:07Z</time>
      </trkpt>
      <trkpt lat="43.62265" lon="3.2942">
        <ele>180.8</ele>
        <time>2024-03-21T14:56:08Z</time>
      </trkpt>
      <trkpt lat="43.62268" lon="3.29422">
        <ele>180.3</ele>
        <time>2024-03-21T14:56:09Z</time>
      </trkpt>
      <trkpt lat="43.62274" lon="3.29428">
        <ele>179.5</ele>
        <time>2024-03-21T14:56:11Z</time>
      </trkpt>
      <trkpt lat="43.62277" lon="3.29432">
        <ele>179.1</ele>
        <time>2024-03-21T14:56:12Z</time>
      </trkpt>
      <trkpt lat="43.62279" lon="3.29436">
        <ele>178.9</ele>
        <time>2024-03-21T14:56:13Z</time>
      </trkpt>
      <trkpt lat="43.62283" lon="3.29439">
        <ele>178.6</ele>
        <time>2024-03-21T14:56:14Z</time>
      </trkpt>
      <trkpt lat="43.62286" lon="3.29442">
        <ele>178.4</ele>
        <time>2024-03-21T14:56:15Z</time>
      </trkpt>
      <trkpt lat="43.62292" lon="3.29446">
        <ele>177.9</ele>
        <time>2024-03-21T14:56:17Z</time>
      </trkpt>
      <trkpt lat="43.62294" lon="3.29448">
        <ele>177.7</ele>
        <time>2024-03-21T14:56:18Z</time>
      </trkpt>
      <trkpt lat="43.62295" lon="3.29452">
        <ele>177.5</ele>
        <time>2024-03-21T14:56:19Z</time>
      </trkpt>
      <trkpt lat="43.62295" lon="3.29455">
        <ele>177.4</ele>
        <time>2024-03-21T14:56:20Z</time>
      </trkpt>
      <trkpt lat="43.62294" lon="3.29459">
        <ele>177.3</ele>
        <time>2024-03-21T14:56:21Z</time>
      </trkpt>
      <trkpt lat="43.62292" lon="3.29464">
        <ele>177.3</ele>
        <time>2024-03-21T14:56:22Z</time>
      </trkpt>
      <trkpt lat="43.62291" lon="3.29468">
        <ele>177.2</ele>
        <time>2024-03-21T14:56:23Z</time>
      </trkpt>
      <trkpt lat="43.62289" lon="3.29473">
        <ele>177.2</ele>
        <time>2024-03-21T14:56:24Z</time>
      </trkpt>
      <trkpt lat="43.62287" lon="3.29481">
        <ele>177</ele>
        <time>2024-03-21T14:56:26Z</time>
      </trkpt>
      <trkpt lat="43.62286" lon="3.29484">
        <ele>177</ele>
        <time>2024-03-21T14:56:27Z</time>
      </trkpt>
      <trkpt lat="43.62286" lon="3.29495">
        <ele>176.6</ele>
        <time>2024-03-21T14:56:29Z</time>
      </trkpt>
      <trkpt lat="43.62288" lon="3.295">
        <ele>176.3</ele>
        <time>2024-03-21T14:56:30Z</time>
      </trkpt>
      <trkpt lat="43.62289" lon="3.29506">
        <ele>176.3</ele>
        <time>2024-03-21T14:56:31Z</time>
      </trkpt>
      <trkpt lat="43.62291" lon="3.29512">
        <ele>176.3</ele>
        <time>2024-03-21T14:56:32Z</time>
      </trkpt>
      <trkpt lat="43.62293" lon="3.29517">
        <ele>176.2</ele>
        <time>2024-03-21T14:56:33Z</time>
      </trkpt>
      <trkpt lat="43.62294" lon="3.29522">
        <ele>176.2</ele>
        <time>2024-03-21T14:56:34Z</time>
      </trkpt>
      <trkpt lat="43.62296" lon="3.29526">
        <ele>176</ele>
        <time>2024-03-21T14:56:35Z</time>
      </trkpt>
      <trkpt lat="43.62297" lon="3.29531">
        <ele>175.9</ele>
        <time>2024-03-21T14:56:36Z</time>
      </trkpt>
      <trkpt lat="43.62298" lon="3.29535">
        <ele>175.8</ele>
        <time>2024-03-21T14:56:37Z</time>
      </trkpt>
      <trkpt lat="43.62299" lon="3.29538">
        <ele>175.7</ele>
        <time>2024-03-21T14:56:38Z</time>
      </trkpt>
      <trkpt lat="43.62299" lon="3.29541">
        <ele>175.7</ele>
        <time>2024-03-21T14:56:39Z</time>
      </trkpt>
      <trkpt lat="43.623" lon="3.29543">
        <ele>175.6</ele>
        <time>2024-03-21T14:56:40Z</time>
      </trkpt>
      <trkpt lat="43.623" lon="3.29546">
        <ele>175.6</ele>
        <time>2024-03-21T14:56:41Z</time>
      </trkpt>
      <trkpt lat="43.62301" lon="3.2955">
        <ele>175.5</ele>
        <time>2024-03-21T14:56:42Z</time>
      </trkpt>
      <trkpt lat="43.62302" lon="3.29553">
        <ele>175.4</ele>
        <time>2024-03-21T14:56:43Z</time>
      </trkpt>
      <trkpt lat="43.62304" lon="3.29557">
        <ele>175.1</ele>
        <time>2024-03-21T14:56:44Z</time>
      </trkpt>
      <trkpt lat="43.62306" lon="3.29567">
        <ele>174.6</ele>
        <time>2024-03-21T14:56:46Z</time>
      </trkpt>
      <trkpt lat="43.62308" lon="3.29572">
        <ele>174.3</ele>
        <time>2024-03-21T14:56:47Z</time>
      </trkpt>
      <trkpt lat="43.62309" lon="3.29577">
        <ele>174.1</ele>
        <time>2024-03-21T14:56:48Z</time>
      </trkpt>
      <trkpt lat="43.62311" lon="3.29581">
        <ele>173.9</ele>
        <time>2024-03-21T14:56:49Z</time>
      </trkpt>
      <trkpt lat="43.62314" lon="3.29586">
        <ele>173.7</ele>
        <time>2024-03-21T14:56:50Z</time>
      </trkpt>
      <trkpt lat="43.62322" lon="3.29598">
        <ele>173.4</ele>
        <time>2024-03-21T14:56:54Z</time>
      </trkpt>
      <trkpt lat="43.62327" lon="3.29603">
        <ele>173.2</ele>
        <time>2024-03-21T14:56:56Z</time>
      </trkpt>
      <trkpt lat="43.62329" lon="3.29606">
        <ele>173.2</ele>
        <time>2024-03-21T14:56:57Z</time>
      </trkpt>
      <trkpt lat="43.62331" lon="3.29608">
        <ele>173.1</ele>
        <time>2024-03-21T14:56:58Z</time>
      </trkpt>
      <trkpt lat="43.62334" lon="3.29609">
        <ele>173</ele>
        <time>2024-03-21T14:56:59Z</time>
      </trkpt>
      <trkpt lat="43.62336" lon="3.29609">
        <ele>172.8</ele>
        <time>2024-03-21T14:57:00Z</time>
      </trkpt>
      <trkpt lat="43.62338" lon="3.29608">
        <ele>172.7</ele>
        <time>2024-03-21T14:57:01Z</time>
      </trkpt>
      <trkpt lat="43.62341" lon="3.29608">
        <ele>172.5</ele>
        <time>2024-03-21T14:57:02Z</time>
      </trkpt>
      <trkpt lat="43.62343" lon="3.29606">
        <ele>172.4</ele>
        <time>2024-03-21T14:57:03Z</time>
      </trkpt>
      <trkpt lat="43.62345" lon="3.29605">
        <ele>172.3</ele>
        <time>2024-03-21T14:57:04Z</time>
      </trkpt>
      <trkpt lat="43.62352" lon="3.29605">
        <ele>171.8</ele>
        <time>2024-03-21T14:57:07Z</time>
      </trkpt>
      <trkpt lat="43.62353" lon="3.29608">
        <ele>171.7</ele>
        <time>2024-03-21T14:57:08Z</time>
      </trkpt>
      <trkpt lat="43.62353" lon="3.29616">
        <ele>171.4</ele>
        <time>2024-03-21T14:57:10Z</time>
      </trkpt>
      <trkpt lat="43.62352" lon="3.2962">
        <ele>171.3</ele>
        <time>2024-03-21T14:57:11Z</time>
      </trkpt>
      <trkpt lat="43.62348" lon="3.2964">
        <ele>170.9</ele>
        <time>2024-03-21T14:57:15Z</time>
      </trkpt>
      <trkpt lat="43.62346" lon="3.29645">
        <ele>171.1</ele>
        <time>2024-03-21T14:57:16Z</time>
      </trkpt>
      <trkpt lat="43.62345" lon="3.29651">
        <ele>171.2</ele>
        <time>2024-03-21T14:57:17Z</time>
      </trkpt>
      <trkpt lat="43.62344" lon="3.29656">
        <ele>171.2</ele>
        <time>2024-03-21T14:57:18Z</time>
      </trkpt>
      <trkpt lat="43.62342" lon="3.29661">
        <ele>171.4</ele>
        <time>2024-03-21T14:57:19Z</time>
      </trkpt>
      <trkpt lat="43.62339" lon="3.29676">
        <ele>171.6</ele>
        <time>2024-03-21T14:57:22Z</time>
      </trkpt>
      <trkpt lat="43.62338" lon="3.29682">
        <ele>171.7</ele>
        <time>2024-03-21T14:57:23Z</time>
      </trkpt>
      <trkpt lat="43.62336" lon="3.29687">
        <ele>171.8</ele>
        <time>2024-03-21T14:57:24Z</time>
      </trkpt>
      <trkpt lat="43.62334" lon="3.29697">
        <ele>171.9</ele>
        <time>2024-03-21T14:57:26Z</time>
      </trkpt>
      <trkpt lat="43.62333" lon="3.29701">
        <ele>171.8</ele>
        <time>2024-03-21T14:57:27Z</time>
      </trkpt>
      <trkpt lat="43.62333" lon="3.29706">
        <ele>171.6</ele>
        <time>2024-03-21T14:57:28Z</time>
      </trkpt>
      <trkpt lat="43.6233" lon="3.29721">
        <ele>171.3</ele>
        <time>2024-03-21T14:57:31Z</time>
      </trkpt>
      <trkpt lat="43.62329" lon="3.29725">
        <ele>171.3</ele>
        <time>2024-03-21T14:57:32Z</time>
      </trkpt>
      <trkpt lat="43.62329" lon="3.29729">
        <ele>171.3</ele>
        <time>2024-03-21T14:57:33Z</time>
      </trkpt>
      <trkpt lat="43.62328" lon="3.29734">
        <ele>171.4</ele>
        <time>2024-03-21T14:57:34Z</time>
      </trkpt>
      <trkpt lat="43.62328" lon="3.29738">
        <ele>171.4</ele>
        <time>2024-03-21T14:57:35Z</time>
      </trkpt>
      <trkpt lat="43.62327" lon="3.29742">
        <ele>171.5</ele>
        <time>2024-03-21T14:57:36Z</time>
      </trkpt>
      <trkpt lat="43.62326" lon="3.29745">
        <ele>171.5</ele>
        <time>2024-03-21T14:57:37Z</time>
      </trkpt>
      <trkpt lat="43.62323" lon="3.29748">
        <ele>171.7</ele>
        <time>2024-03-21T14:57:38Z</time>
      </trkpt>
      <trkpt lat="43.6232" lon="3.29748">
        <ele>172</ele>
        <time>2024-03-21T14:57:39Z</time>
      </trkpt>
      <trkpt lat="43.62318" lon="3.29745">
        <ele>172.1</ele>
        <time>2024-03-21T14:57:40Z</time>
      </trkpt>
      <trkpt lat="43.62316" lon="3.29743">
        <ele>172.2</ele>
        <time>2024-03-21T14:57:41Z</time>
      </trkpt>
      <trkpt lat="43.62314" lon="3.2974">
        <ele>172.4</ele>
        <time>2024-03-21T14:57:42Z</time>
      </trkpt>
      <trkpt lat="43.62311" lon="3.29737">
        <ele>172.6</ele>
        <time>2024-03-21T14:57:43Z</time>
      </trkpt>
      <trkpt lat="43.62309" lon="3.29734">
        <ele>172.8</ele>
        <time>2024-03-21T14:57:44Z</time>
      </trkpt>
      <trkpt lat="43.62306" lon="3.29729">
        <ele>173</ele>
        <time>2024-03-21T14:57:45Z</time>
      </trkpt>
      <trkpt lat="43.62304" lon="3.29725">
        <ele>173.1</ele>
        <time>2024-03-21T14:57:46Z</time>
      </trkpt>
      <trkpt lat="43.62303" lon="3.29721">
        <ele>173.2</ele>
        <time>2024-03-21T14:57:47Z</time>
      </trkpt>
      <trkpt lat="43.62302" lon="3.29716">
        <ele>173.3</ele>
        <time>2024-03-21T14:57:48Z</time>
      </trkpt>
      <trkpt lat="43.623" lon="3.29711">
        <ele>173.4</ele>
        <time>2024-03-21T14:57:49Z</time>
      </trkpt>
      <trkpt lat="43.62299" lon="3.29706">
        <ele>173.5</ele>
        <time>2024-03-21T14:57:50Z</time>
      </trkpt>
      <trkpt lat="43.62298" lon="3.29702">
        <ele>173.5</ele>
        <time>2024-03-21T14:57:51Z</time>
      </trkpt>
      <trkpt lat="43.62296" lon="3.29692">
        <ele>173.7</ele>
        <time>2024-03-21T14:57:53Z</time>
      </trkpt>
      <trkpt lat="43.62294" lon="3.29687">
        <ele>174</ele>
        <time>2024-03-21T14:57:54Z</time>
      </trkpt>
      <trkpt lat="43.62293" lon="3.29683">
        <ele>174.1</ele>
        <time>2024-03-21T14:57:55Z</time>
      </trkpt>
      <trkpt lat="43.62291" lon="3.29678">
        <ele>174.3</ele>
        <time>2024-03-21T14:57:56Z</time>
      </trkpt>
      <trkpt lat="43.6229" lon="3.29673">
        <ele>174.5</ele>
        <time>2024-03-21T14:57:57Z</time>
      </trkpt>
      <trkpt lat="43.62288" lon="3.29667">
        <ele>174.6</ele>
        <time>2024-03-21T14:57:58Z</time>
      </trkpt>
      <trkpt lat="43.62286" lon="3.29663">
        <ele>174.7</ele>
        <time>2024-03-21T14:57:59Z</time>
      </trkpt>
      <trkpt lat="43.62285" lon="3.29658">
        <ele>174.7</ele>
        <time>2024-03-21T14:58:00Z</time>
      </trkpt>
      <trkpt lat="43.62281" lon="3.2965">
        <ele>174.8</ele>
        <time>2024-03-21T14:58:02Z</time>
      </trkpt>
      <trkpt lat="43.6228" lon="3.29646">
        <ele>174.9</ele>
        <time>2024-03-21T14:58:03Z</time>
      </trkpt>
      <trkpt lat="43.62277" lon="3.29642">
        <ele>175</ele>
        <time>2024-03-21T14:58:04Z</time>
      </trkpt>
      <trkpt lat="43.62275" lon="3.29639">
        <ele>175.1</ele>
        <time>2024-03-21T14:58:05Z</time>
      </trkpt>
      <trkpt lat="43.62272" lon="3.29636">
        <ele>175.3</ele>
        <time>2024-03-21T14:58:06Z</time>
      </trkpt>
      <trkpt lat="43.6227" lon="3.29633">
        <ele>175.5</ele>
        <time>2024-03-21T14:58:07Z</time>
      </trkpt>
      <trkpt lat="43.62267" lon="3.29631">
        <ele>175.7</ele>
        <time>2024-03-21T14:58:08Z</time>
      </trkpt>
      <trkpt lat="43.62265" lon="3.29629">
        <ele>175.8</ele>
        <time>2024-03-21T14:58:09Z</time>
      </trkpt>
      <trkpt lat="43.62263" lon="3.29626">
        <ele>176</ele>
        <time>2024-03-21T14:58:10Z</time>
      </trkpt>
      <trkpt lat="43.6226" lon="3.29624">
        <ele>176.2</ele>
        <time>2024-03-21T14:58:11Z</time>
      </trkpt>
      <trkpt lat="43.62258" lon="3.29621">
        <ele>176.4</ele>
        <time>2024-03-21T14:58:12Z</time>
      </trkpt>
      <trkpt lat="43.62256" lon="3.29619">
        <ele>176.5</ele>
        <time>2024-03-21T14:58:13Z</time>
      </trkpt>
      <trkpt lat="43.62254" lon="3.29616">
        <ele>176.7</ele>
        <time>2024-03-21T14:58:14Z</time>
      </trkpt>
      <trkpt lat="43.62251" lon="3.29614">
        <ele>176.9</ele>
        <time>2024-03-21T14:58:15Z</time>
      </trkpt>
      <trkpt lat="43.62249" lon="3.29611">
        <ele>177.2</ele>
        <time>2024-03-21T14:58:16Z</time>
      </trkpt>
      <trkpt lat="43.62247" lon="3.29609">
        <ele>177.8</ele>
        <time>2024-03-21T14:58:17Z</time>
      </trkpt>
      <trkpt lat="43.62244" lon="3.29607">
        <ele>178.6</ele>
        <time>2024-03-21T14:58:18Z</time>
      </trkpt>
      <trkpt lat="43.62242" lon="3.29604">
        <ele>179.2</ele>
        <time>2024-03-21T14:58:19Z</time>
      </trkpt>
      <trkpt lat="43.6224" lon="3.29602">
        <ele>179.7</ele>
        <time>2024-03-21T14:58:20Z</time>
      </trkpt>
      <trkpt lat="43.62237" lon="3.296">
        <ele>180.4</ele>
        <time>2024-03-21T14:58:21Z</time>
      </trkpt>
      <trkpt lat="43.62235" lon="3.29597">
        <ele>181</ele>
        <time>2024-03-21T14:58:22Z</time>
      </trkpt>
      <trkpt lat="43.62229" lon="3.29591">
        <ele>182.4</ele>
        <time>2024-03-21T14:58:25Z</time>
      </trkpt>
      <trkpt lat="43.62227" lon="3.29588">
        <ele>182.9</ele>
        <time>2024-03-21T14:58:26Z</time>
      </trkpt>
      <trkpt lat="43.62226" lon="3.29584">
        <ele>183.3</ele>
        <time>2024-03-21T14:58:27Z</time>
      </trkpt>
      <trkpt lat="43.62226" lon="3.2958">
        <ele>183.6</ele>
        <time>2024-03-21T14:58:28Z</time>
      </trkpt>
      <trkpt lat="43.62225" lon="3.29576">
        <ele>184</ele>
        <time>2024-03-21T14:58:29Z</time>
      </trkpt>
      <trkpt lat="43.62225" lon="3.29569">
        <ele>184.5</ele>
        <time>2024-03-21T14:58:31Z</time>
      </trkpt>
      <trkpt lat="43.62227" lon="3.29561">
        <ele>184.7</ele>
        <time>2024-03-21T14:58:33Z</time>
      </trkpt>
      <trkpt lat="43.62228" lon="3.29558">
        <ele>184.8</ele>
        <time>2024-03-21T14:58:34Z</time>
      </trkpt>
      <trkpt lat="43.62228" lon="3.29555">
        <ele>185</ele>
        <time>2024-03-21T14:58:35Z</time>
      </trkpt>
      <trkpt lat="43.62229" lon="3.2955">
        <ele>185</ele>
        <time>2024-03-21T14:58:36Z</time>
      </trkpt>
      <trkpt lat="43.62231" lon="3.29542">
        <ele>185.1</ele>
        <time>2024-03-21T14:58:38Z</time>
      </trkpt>
      <trkpt lat="43.62233" lon="3.29536">
        <ele>185</ele>
        <time>2024-03-21T14:58:40Z</time>
      </trkpt>
      <trkpt lat="43.62233" lon="3.29532">
        <ele>185.2</ele>
        <time>2024-03-21T14:58:41Z</time>
      </trkpt>
      <trkpt lat="43.62234" lon="3.29529">
        <ele>185.2</ele>
        <time>2024-03-21T14:58:42Z</time>
      </trkpt>
      <trkpt lat="43.62232" lon="3.29521">
        <ele>185.8</ele>
        <time>2024-03-21T14:58:44Z</time>
      </trkpt>
      <trkpt lat="43.6223" lon="3.29517">
        <ele>186.2</ele>
        <time>2024-03-21T14:58:45Z</time>
      </trkpt>
      <trkpt lat="43.62227" lon="3.29515">
        <ele>186.7</ele>
        <time>2024-03-21T14:58:46Z</time>
      </trkpt>
      <trkpt lat="43.62225" lon="3.29515">
        <ele>187</ele>
        <time>2024-03-21T14:58:47Z</time>
      </trkpt>
      <trkpt lat="43.62223" lon="3.29514">
        <ele>187.4</ele>
        <time>2024-03-21T14:58:48Z</time>
      </trkpt>
      <trkpt lat="43.6222" lon="3.29514">
        <ele>187.9</ele>
        <time>2024-03-21T14:58:49Z</time>
      </trkpt>
      <trkpt lat="43.62217" lon="3.29513">
        <ele>188.6</ele>
        <time>2024-03-21T14:58:50Z</time>
      </trkpt>
      <trkpt lat="43.62212" lon="3.29513">
        <ele>189.5</ele>
        <time>2024-03-21T14:58:52Z</time>
      </trkpt>
      <trkpt lat="43.6221" lon="3.29512">
        <ele>190</ele>
        <time>2024-03-21T14:58:53Z</time>
      </trkpt>
      <trkpt lat="43.62205" lon="3.29512">
        <ele>190.9</ele>
        <time>2024-03-21T14:58:55Z</time>
      </trkpt>
      <trkpt lat="43.62203" lon="3.29511">
        <ele>191.3</ele>
        <time>2024-03-21T14:58:56Z</time>
      </trkpt>
      <trkpt lat="43.62194" lon="3.29511">
        <ele>193.1</ele>
        <time>2024-03-21T14:59:00Z</time>
      </trkpt>
      <trkpt lat="43.62191" lon="3.2951">
        <ele>193.6</ele>
        <time>2024-03-21T14:59:01Z</time>
      </trkpt>
      <trkpt lat="43.62185" lon="3.2951">
        <ele>194.7</ele>
        <time>2024-03-21T14:59:04Z</time>
      </trkpt>
      <trkpt lat="43.62182" lon="3.29509">
        <ele>195.2</ele>
        <time>2024-03-21T14:59:05Z</time>
      </trkpt>
      <trkpt lat="43.6218" lon="3.29509">
        <ele>195.6</ele>
        <time>2024-03-21T14:59:06Z</time>
      </trkpt>
      <trkpt lat="43.62178" lon="3.29508">
        <ele>196</ele>
        <time>2024-03-21T14:59:07Z</time>
      </trkpt>
      <trkpt lat="43.62175" lon="3.29507">
        <ele>196.5</ele>
        <time>2024-03-21T14:59:08Z</time>
      </trkpt>
      <trkpt lat="43.62173" lon="3.29505">
        <ele>196.9</ele>
        <time>2024-03-21T14:59:09Z</time>
      </trkpt>
      <trkpt lat="43.62171" lon="3.29505">
        <ele>197.2</ele>
        <time>2024-03-21T14:59:10Z</time>
      </trkpt>
      <trkpt lat="43.62161" lon="3.295">
        <ele>198.8</ele>
        <time>2024-03-21T14:59:15Z</time>
      </trkpt>
      <trkpt lat="43.62159" lon="3.29498">
        <ele>199</ele>
        <time>2024-03-21T14:59:16Z</time>
      </trkpt>
      <trkpt lat="43.62156" lon="3.29497">
        <ele>199.4</ele>
        <time>2024-03-21T14:59:17Z</time>
      </trkpt>
      <trkpt lat="43.62153" lon="3.29494">
        <ele>199.6</ele>
        <time>2024-03-21T14:59:19Z</time>
      </trkpt>
      <trkpt lat="43.62143" lon="3.29489">
        <ele>200.7</ele>
        <time>2024-03-21T14:59:24Z</time>
      </trkpt>
      <trkpt lat="43.6214" lon="3.29488">
        <ele>201</ele>
        <time>2024-03-21T14:59:25Z</time>
      </trkpt>
      <trkpt lat="43.62138" lon="3.29488">
        <ele>201.3</ele>
        <time>2024-03-21T14:59:26Z</time>
      </trkpt>
      <trkpt lat="43.62135" lon="3.29487">
        <ele>201.7</ele>
        <time>2024-03-21T14:59:27Z</time>
      </trkpt>
      <trkpt lat="43.62128" lon="3.29487">
        <ele>202.8</ele>
        <time>2024-03-21T14:59:30Z</time>
      </trkpt>
      <trkpt lat="43.62122" lon="3.2949">
        <ele>203.9</ele>
        <time>2024-03-21T14:59:33Z</time>
      </trkpt>
      <trkpt lat="43.62119" lon="3.29491">
        <ele>204.4</ele>
        <time>2024-03-21T14:59:34Z</time>
      </trkpt>
      <trkpt lat="43.62113" lon="3.29497">
        <ele>205.6</ele>
        <time>2024-03-21T14:59:37Z</time>
      </trkpt>
      <trkpt lat="43.62111" lon="3.29498">
        <ele>205.9</ele>
        <time>2024-03-21T14:59:38Z</time>
      </trkpt>
      <trkpt lat="43.62109" lon="3.29501">
        <ele>206.3</ele>
        <time>2024-03-21T14:59:39Z</time>
      </trkpt>
      <trkpt lat="43.62106" lon="3.29502">
        <ele>206.8</ele>
        <time>2024-03-21T14:59:40Z</time>
      </trkpt>
      <trkpt lat="43.621" lon="3.29508">
        <ele>207.9</ele>
        <time>2024-03-21T14:59:43Z</time>
      </trkpt>
      <trkpt lat="43.62098" lon="3.29509">
        <ele>208.2</ele>
        <time>2024-03-21T14:59:44Z</time>
      </trkpt>
      <trkpt lat="43.62094" lon="3.29513">
        <ele>208.9</ele>
        <time>2024-03-21T14:59:46Z</time>
      </trkpt>
      <trkpt lat="43.62092" lon="3.29516">
        <ele>209.3</ele>
        <time>2024-03-21T14:59:47Z</time>
      </trkpt>
      <trkpt lat="43.6209" lon="3.29518">
        <ele>209.7</ele>
        <time>2024-03-21T14:59:48Z</time>
      </trkpt>
      <trkpt lat="43.62088" lon="3.29521">
        <ele>210.1</ele>
        <time>2024-03-21T14:59:49Z</time>
      </trkpt>
      <trkpt lat="43.62086" lon="3.29523">
        <ele>210.4</ele>
        <time>2024-03-21T14:59:50Z</time>
      </trkpt>
      <trkpt lat="43.62085" lon="3.29526">
        <ele>210.7</ele>
        <time>2024-03-21T14:59:51Z</time>
      </trkpt>
      <trkpt lat="43.62083" lon="3.29529">
        <ele>211.1</ele>
        <time>2024-03-21T14:59:52Z</time>
      </trkpt>
      <trkpt lat="43.6208" lon="3.29535">
        <ele>212</ele>
        <time>2024-03-21T14:59:55Z</time>
      </trkpt>
      <trkpt lat="43.62078" lon="3.29541">
        <ele>212.6</ele>
        <time>2024-03-21T14:59:57Z</time>
      </trkpt>
      <trkpt lat="43.62078" lon="3.29545">
        <ele>212.7</ele>
        <time>2024-03-21T14:59:58Z</time>
      </trkpt>
      <trkpt lat="43.62077" lon="3.29548">
        <ele>213</ele>
        <time>2024-03-21T14:59:59Z</time>
      </trkpt>
      <trkpt lat="43.62077" lon="3.29551">
        <ele>213.1</ele>
        <time>2024-03-21T15:00:00Z</time>
      </trkpt>
      <trkpt lat="43.62076" lon="3.29553">
        <ele>213.3</ele>
        <time>2024-03-21T15:00:01Z</time>
      </trkpt>
      <trkpt lat="43.62076" lon="3.29555">
        <ele>213.3</ele>
        <time>2024-03-21T15:00:02Z</time>
      </trkpt>
      <trkpt lat="43.62075" lon="3.29558">
        <ele>213.6</ele>
        <time>2024-03-21T15:00:03Z</time>
      </trkpt>
      <trkpt lat="43.62071" lon="3.29562">
        <ele>214.3</ele>
        <time>2024-03-21T15:00:05Z</time>
      </trkpt>
      <trkpt lat="43.62069" lon="3.29562">
        <ele>214.7</ele>
        <time>2024-03-21T15:00:06Z</time>
      </trkpt>
      <trkpt lat="43.62067" lon="3.29559">
        <ele>215</ele>
        <time>2024-03-21T15:00:07Z</time>
      </trkpt>
      <trkpt lat="43.62066" lon="3.29557">
        <ele>215.1</ele>
        <time>2024-03-21T15:00:08Z</time>
      </trkpt>
      <trkpt lat="43.62064" lon="3.29554">
        <ele>215.5</ele>
        <time>2024-03-21T15:00:09Z</time>
      </trkpt>
      <trkpt lat="43.62063" lon="3.29551">
        <ele>215.7</ele>
        <time>2024-03-21T15:00:10Z</time>
      </trkpt>
      <trkpt lat="43.62062" lon="3.29547">
        <ele>216</ele>
        <time>2024-03-21T15:00:11Z</time>
      </trkpt>
      <trkpt lat="43.62061" lon="3.29544">
        <ele>216.3</ele>
        <time>2024-03-21T15:00:12Z</time>
      </trkpt>
      <trkpt lat="43.6206" lon="3.29542">
        <ele>216.5</ele>
        <time>2024-03-21T15:00:13Z</time>
      </trkpt>
      <trkpt lat="43.62058" lon="3.2954">
        <ele>217</ele>
        <time>2024-03-21T15:00:14Z</time>
      </trkpt>
      <trkpt lat="43.62057" lon="3.29538">
        <ele>217.3</ele>
        <time>2024-03-21T15:00:15Z</time>
      </trkpt>
      <trkpt lat="43.62055" lon="3.29537">
        <ele>217.8</ele>
        <time>2024-03-21T15:00:16Z</time>
      </trkpt>
      <trkpt lat="43.62052" lon="3.29535">
        <ele>218.3</ele>
        <time>2024-03-21T15:00:17Z</time>
      </trkpt>
      <trkpt lat="43.6205" lon="3.29533">
        <ele>218.6</ele>
        <time>2024-03-21T15:00:18Z</time>
      </trkpt>
      <trkpt lat="43.62047" lon="3.29532">
        <ele>219.1</ele>
        <time>2024-03-21T15:00:19Z</time>
      </trkpt>
      <trkpt lat="43.62044" lon="3.2953">
        <ele>219.6</ele>
        <time>2024-03-21T15:00:20Z</time>
      </trkpt>
      <trkpt lat="43.62035" lon="3.29527">
        <ele>220.9</ele>
        <time>2024-03-21T15:00:23Z</time>
      </trkpt>
      <trkpt lat="43.62031" lon="3.29525">
        <ele>221.4</ele>
        <time>2024-03-21T15:00:25Z</time>
      </trkpt>
      <trkpt lat="43.62028" lon="3.29523">
        <ele>221.8</ele>
        <time>2024-03-21T15:00:26Z</time>
      </trkpt>
      <trkpt lat="43.62026" lon="3.29521">
        <ele>222</ele>
        <time>2024-03-21T15:00:27Z</time>
      </trkpt>
      <trkpt lat="43.62023" lon="3.29519">
        <ele>222.4</ele>
        <time>2024-03-21T15:00:28Z</time>
      </trkpt>
      <trkpt lat="43.62021" lon="3.29518">
        <ele>222.7</ele>
        <time>2024-03-21T15:00:29Z</time>
      </trkpt>
      <trkpt lat="43.62019" lon="3.29516">
        <ele>222.9</ele>
        <time>2024-03-21T15:00:30Z</time>
      </trkpt>
      <trkpt lat="43.62016" lon="3.29515">
        <ele>223.3</ele>
        <time>2024-03-21T15:00:31Z</time>
      </trkpt>
      <trkpt lat="43.62006" lon="3.29515">
        <ele>224.7</ele>
        <time>2024-03-21T15:00:35Z</time>
      </trkpt>
      <trkpt lat="43.62003" lon="3.29516">
        <ele>225.3</ele>
        <time>2024-03-21T15:00:36Z</time>
      </trkpt>
      <trkpt lat="43.62001" lon="3.29518">
        <ele>225.8</ele>
        <time>2024-03-21T15:00:37Z</time>
      </trkpt>
      <trkpt lat="43.61998" lon="3.2952">
        <ele>226.4</ele>
        <time>2024-03-21T15:00:38Z</time>
      </trkpt>
      <trkpt lat="43.61996" lon="3.29521">
        <ele>226.8</ele>
        <time>2024-03-21T15:00:39Z</time>
      </trkpt>
      <trkpt lat="43.61993" lon="3.29522">
        <ele>227.3</ele>
        <time>2024-03-21T15:00:40Z</time>
      </trkpt>
      <trkpt lat="43.61985" lon="3.2953">
        <ele>228.7</ele>
        <time>2024-03-21T15:00:44Z</time>
      </trkpt>
      <trkpt lat="43.61983" lon="3.29533">
        <ele>229</ele>
        <time>2024-03-21T15:00:45Z</time>
      </trkpt>
      <trkpt lat="43.61982" lon="3.29536">
        <ele>229.1</ele>
        <time>2024-03-21T15:00:46Z</time>
      </trkpt>
      <trkpt lat="43.61981" lon="3.29538">
        <ele>229.3</ele>
        <time>2024-03-21T15:00:47Z</time>
      </trkpt>
      <trkpt lat="43.61979" lon="3.29541">
        <ele>229.6</ele>
        <time>2024-03-21T15:00:48Z</time>
      </trkpt>
      <trkpt lat="43.61978" lon="3.29543">
        <ele>229.8</ele>
        <time>2024-03-21T15:00:49Z</time>
      </trkpt>
      <trkpt lat="43.61976" lon="3.29546">
        <ele>230.2</ele>
        <time>2024-03-21T15:00:50Z</time>
      </trkpt>
      <trkpt lat="43.61975" lon="3.29548">
        <ele>230.4</ele>
        <time>2024-03-21T15:00:51Z</time>
      </trkpt>
      <trkpt lat="43.61972" lon="3.29557">
        <ele>231.1</ele>
        <time>2024-03-21T15:00:54Z</time>
      </trkpt>
      <trkpt lat="43.6197" lon="3.29561">
        <ele>231.5</ele>
        <time>2024-03-21T15:00:55Z</time>
      </trkpt>
      <trkpt lat="43.61969" lon="3.29564">
        <ele>231.8</ele>
        <time>2024-03-21T15:00:56Z</time>
      </trkpt>
      <trkpt lat="43.61965" lon="3.29572">
        <ele>232.6</ele>
        <time>2024-03-21T15:00:59Z</time>
      </trkpt>
      <trkpt lat="43.61963" lon="3.29575">
        <ele>233</ele>
        <time>2024-03-21T15:01:00Z</time>
      </trkpt>
      <trkpt lat="43.61961" lon="3.29577">
        <ele>233.4</ele>
        <time>2024-03-21T15:01:01Z</time>
      </trkpt>
      <trkpt lat="43.61959" lon="3.29578">
        <ele>233.7</ele>
        <time>2024-03-21T15:01:02Z</time>
      </trkpt>
      <trkpt lat="43.61956" lon="3.29578">
        <ele>234.1</ele>
        <time>2024-03-21T15:01:03Z</time>
      </trkpt>
      <trkpt lat="43.6195" lon="3.29575">
        <ele>234.9</ele>
        <time>2024-03-21T15:01:06Z</time>
      </trkpt>
      <trkpt lat="43.61947" lon="3.29574">
        <ele>235.3</ele>
        <time>2024-03-21T15:01:07Z</time>
      </trkpt>
      <trkpt lat="43.61944" lon="3.29574">
        <ele>235.8</ele>
        <time>2024-03-21T15:01:08Z</time>
      </trkpt>
      <trkpt lat="43.61938" lon="3.29572">
        <ele>237</ele>
        <time>2024-03-21T15:01:10Z</time>
      </trkpt>
      <trkpt lat="43.61935" lon="3.29572">
        <ele>237.6</ele>
        <time>2024-03-21T15:01:11Z</time>
      </trkpt>
      <trkpt lat="43.61932" lon="3.2957">
        <ele>238.2</ele>
        <time>2024-03-21T15:01:12Z</time>
      </trkpt>
      <trkpt lat="43.6193" lon="3.29569">
        <ele>238.6</ele>
        <time>2024-03-21T15:01:13Z</time>
      </trkpt>
      <trkpt lat="43.61927" lon="3.29567">
        <ele>239.2</ele>
        <time>2024-03-21T15:01:14Z</time>
      </trkpt>
      <trkpt lat="43.61925" lon="3.29565">
        <ele>239.5</ele>
        <time>2024-03-21T15:01:15Z</time>
      </trkpt>
      <trkpt lat="43.61919" lon="3.29561">
        <ele>240.7</ele>
        <time>2024-03-21T15:01:17Z</time>
      </trkpt>
      <trkpt lat="43.61917" lon="3.29558">
        <ele>241</ele>
        <time>2024-03-21T15:01:18Z</time>
      </trkpt>
      <trkpt lat="43.61915" lon="3.29556">
        <ele>241.4</ele>
        <time>2024-03-21T15:01:19Z</time>
      </trkpt>
      <trkpt lat="43.61911" lon="3.2955">
        <ele>242.2</ele>
        <time>2024-03-21T15:01:21Z</time>
      </trkpt>
      <trkpt lat="43.61909" lon="3.29545">
        <ele>242.4</ele>
        <time>2024-03-21T15:01:22Z</time>
      </trkpt>
      <trkpt lat="43.61905" lon="3.29539">
        <ele>243.1</ele>
        <time>2024-03-21T15:01:24Z</time>
      </trkpt>
      <trkpt lat="43.61903" lon="3.29535">
        <ele>243.3</ele>
        <time>2024-03-21T15:01:25Z</time>
      </trkpt>
      <trkpt lat="43.61899" lon="3.29529">
        <ele>243.9</ele>
        <time>2024-03-21T15:01:27Z</time>
      </trkpt>
      <trkpt lat="43.61896" lon="3.29525">
        <ele>244.3</ele>
        <time>2024-03-21T15:01:28Z</time>
      </trkpt>
      <trkpt lat="43.61887" lon="3.29516">
        <ele>246.2</ele>
        <time>2024-03-21T15:01:31Z</time>
      </trkpt>
      <trkpt lat="43.61884" lon="3.29514">
        <ele>247</ele>
        <time>2024-03-21T15:01:32Z</time>
      </trkpt>
      <trkpt lat="43.61879" lon="3.29509">
        <ele>248.2</ele>
        <time>2024-03-21T15:01:34Z</time>
      </trkpt>
      <trkpt lat="43.61875" lon="3.29503">
        <ele>248.8</ele>
        <time>2024-03-21T15:01:36Z</time>
      </trkpt>
      <trkpt lat="43.61874" lon="3.29498">
        <ele>248.9</ele>
        <time>2024-03-21T15:01:37Z</time>
      </trkpt>
      <trkpt lat="43.61874" lon="3.29493">
        <ele>249.3</ele>
        <time>2024-03-21T15:01:38Z</time>
      </trkpt>
      <trkpt lat="43.61876" lon="3.29485">
        <ele>249.3</ele>
        <time>2024-03-21T15:01:40Z</time>
      </trkpt>
      <trkpt lat="43.61878" lon="3.29481">
        <ele>249.1</ele>
        <time>2024-03-21T15:01:41Z</time>
      </trkpt>
      <trkpt lat="43.61879" lon="3.29477">
        <ele>249.1</ele>
        <time>2024-03-21T15:01:42Z</time>
      </trkpt>
      <trkpt lat="43.61881" lon="3.29473">
        <ele>248.9</ele>
        <time>2024-03-21T15:01:43Z</time>
      </trkpt>
      <trkpt lat="43.61882" lon="3.29469">
        <ele>249.1</ele>
        <time>2024-03-21T15:01:44Z</time>
      </trkpt>
      <trkpt lat="43.61884" lon="3.29464">
        <ele>249.2</ele>
        <time>2024-03-21T15:01:45Z</time>
      </trkpt>
      <trkpt lat="43.61885" lon="3.29459">
        <ele>249.5</ele>
        <time>2024-03-21T15:01:46Z</time>
      </trkpt>
      <trkpt lat="43.61885" lon="3.29454">
        <ele>250</ele>
        <time>2024-03-21T15:01:47Z</time>
      </trkpt>
      <trkpt lat="43.61887" lon="3.29444">
        <ele>250.6</ele>
        <time>2024-03-21T15:01:49Z</time>
      </trkpt>
      <trkpt lat="43.61887" lon="3.29439">
        <ele>250.9</ele>
        <time>2024-03-21T15:01:50Z</time>
      </trkpt>
      <trkpt lat="43.61888" lon="3.29433">
        <ele>251.1</ele>
        <time>2024-03-21T15:01:51Z</time>
      </trkpt>
      <trkpt lat="43.61888" lon="3.29409">
        <ele>252.6</ele>
        <time>2024-03-21T15:01:56Z</time>
      </trkpt>
      <trkpt lat="43.61887" lon="3.29404">
        <ele>253.1</ele>
        <time>2024-03-21T15:01:57Z</time>
      </trkpt>
      <trkpt lat="43.61887" lon="3.29399">
        <ele>253.2</ele>
        <time>2024-03-21T15:01:58Z</time>
      </trkpt>
      <trkpt lat="43.61886" lon="3.29393">
        <ele>253.8</ele>
        <time>2024-03-21T15:01:59Z</time>
      </trkpt>
      <trkpt lat="43.61884" lon="3.29383">
        <ele>254.8</ele>
        <time>2024-03-21T15:02:01Z</time>
      </trkpt>
      <trkpt lat="43.61883" lon="3.29379">
        <ele>255.2</ele>
        <time>2024-03-21T15:02:02Z</time>
      </trkpt>
      <trkpt lat="43.61882" lon="3.29374">
        <ele>255.6</ele>
        <time>2024-03-21T15:02:03Z</time>
      </trkpt>
      <trkpt lat="43.61882" lon="3.29368">
        <ele>255.8</ele>
        <time>2024-03-21T15:02:04Z</time>
      </trkpt>
      <trkpt lat="43.61883" lon="3.29363">
        <ele>255.6</ele>
        <time>2024-03-21T15:02:05Z</time>
      </trkpt>
      <trkpt lat="43.61883" lon="3.29358">
        <ele>255.7</ele>
        <time>2024-03-21T15:02:06Z</time>
      </trkpt>
      <trkpt lat="43.61881" lon="3.29348">
        <ele>256.4</ele>
        <time>2024-03-21T15:02:08Z</time>
      </trkpt>
      <trkpt lat="43.6188" lon="3.29342">
        <ele>256.8</ele>
        <time>2024-03-21T15:02:09Z</time>
      </trkpt>
      <trkpt lat="43.6188" lon="3.29337">
        <ele>256.8</ele>
        <time>2024-03-21T15:02:10Z</time>
      </trkpt>
      <trkpt lat="43.61878" lon="3.29327">
        <ele>257.8</ele>
        <time>2024-03-21T15:02:12Z</time>
      </trkpt>
      <trkpt lat="43.61874" lon="3.29319">
        <ele>259.3</ele>
        <time>2024-03-21T15:02:14Z</time>
      </trkpt>
      <trkpt lat="43.61873" lon="3.29314">
        <ele>259.8</ele>
        <time>2024-03-21T15:02:15Z</time>
      </trkpt>
      <trkpt lat="43.61872" lon="3.29308">
        <ele>260.4</ele>
        <time>2024-03-21T15:02:16Z</time>
      </trkpt>
      <trkpt lat="43.61872" lon="3.29304">
        <ele>260.5</ele>
        <time>2024-03-21T15:02:17Z</time>
      </trkpt>
      <trkpt lat="43.61871" lon="3.29301">
        <ele>260.7</ele>
        <time>2024-03-21T15:02:18Z</time>
      </trkpt>
      <trkpt lat="43.6187" lon="3.29297">
        <ele>261</ele>
        <time>2024-03-21T15:02:19Z</time>
      </trkpt>
      <trkpt lat="43.6187" lon="3.29292">
        <ele>260.9</ele>
        <time>2024-03-21T15:02:20Z</time>
      </trkpt>
      <trkpt lat="43.61868" lon="3.29288">
        <ele>261.4</ele>
        <time>2024-03-21T15:02:21Z</time>
      </trkpt>
      <trkpt lat="43.61867" lon="3.29284">
        <ele>261.6</ele>
        <time>2024-03-21T15:02:22Z</time>
      </trkpt>
      <trkpt lat="43.61862" lon="3.29279">
        <ele>262.8</ele>
        <time>2024-03-21T15:02:24Z</time>
      </trkpt>
      <trkpt lat="43.6186" lon="3.29276">
        <ele>263.3</ele>
        <time>2024-03-21T15:02:25Z</time>
      </trkpt>
      <trkpt lat="43.61854" lon="3.29272">
        <ele>264.8</ele>
        <time>2024-03-21T15:02:27Z</time>
      </trkpt>
      <trkpt lat="43.61851" lon="3.29269">
        <ele>265.5</ele>
        <time>2024-03-21T15:02:28Z</time>
      </trkpt>
      <trkpt lat="43.61848" lon="3.29267">
        <ele>266</ele>
        <time>2024-03-21T15:02:29Z</time>
      </trkpt>
      <trkpt lat="43.61846" lon="3.29265">
        <ele>266.4</ele>
        <time>2024-03-21T15:02:30Z</time>
      </trkpt>
      <trkpt lat="43.61843" lon="3.29264">
        <ele>266.9</ele>
        <time>2024-03-21T15:02:31Z</time>
      </trkpt>
      <trkpt lat="43.6183" lon="3.29264">
        <ele>270.2</ele>
        <time>2024-03-21T15:02:35Z</time>
      </trkpt>
      <trkpt lat="43.61828" lon="3.29262">
        <ele>270.5</ele>
        <time>2024-03-21T15:02:36Z</time>
      </trkpt>
      <trkpt lat="43.61825" lon="3.29261">
        <ele>271.4</ele>
        <time>2024-03-21T15:02:37Z</time>
      </trkpt>
      <trkpt lat="43.61823" lon="3.29261">
        <ele>272.1</ele>
        <time>2024-03-21T15:02:38Z</time>
      </trkpt>
      <trkpt lat="43.6182" lon="3.2926">
        <ele>272.9</ele>
        <time>2024-03-21T15:02:39Z</time>
      </trkpt>
      <trkpt lat="43.61817" lon="3.29258">
        <ele>273.6</ele>
        <time>2024-03-21T15:02:40Z</time>
      </trkpt>
      <trkpt lat="43.61815" lon="3.29257">
        <ele>274.1</ele>
        <time>2024-03-21T15:02:41Z</time>
      </trkpt>
      <trkpt lat="43.61811" lon="3.29249">
        <ele>274.3</ele>
        <time>2024-03-21T15:02:43Z</time>
      </trkpt>
      <trkpt lat="43.61811" lon="3.29244">
        <ele>274.9</ele>
        <time>2024-03-21T15:02:44Z</time>
      </trkpt>
      <trkpt lat="43.61812" lon="3.2924">
        <ele>275</ele>
        <time>2024-03-21T15:02:45Z</time>
      </trkpt>
      <trkpt lat="43.61815" lon="3.29237">
        <ele>274.3</ele>
        <time>2024-03-21T15:02:46Z</time>
      </trkpt>
      <trkpt lat="43.61821" lon="3.29233">
        <ele>272.8</ele>
        <time>2024-03-21T15:02:48Z</time>
      </trkpt>
      <trkpt lat="43.61825" lon="3.29232">
        <ele>271.6</ele>
        <time>2024-03-21T15:02:49Z</time>
      </trkpt>
      <trkpt lat="43.61828" lon="3.2923">
        <ele>270.9</ele>
        <time>2024-03-21T15:02:50Z</time>
      </trkpt>
      <trkpt lat="43.61832" lon="3.29227">
        <ele>269.9</ele>
        <time>2024-03-21T15:02:51Z</time>
      </trkpt>
      <trkpt lat="43.61835" lon="3.29224">
        <ele>269.5</ele>
        <time>2024-03-21T15:02:52Z</time>
      </trkpt>
      <trkpt lat="43.61838" lon="3.29219">
        <ele>269.6</ele>
        <time>2024-03-21T15:02:53Z</time>
      </trkpt>
      <trkpt lat="43.6184" lon="3.29213">
        <ele>270</ele>
        <time>2024-03-21T15:02:54Z</time>
      </trkpt>
      <trkpt lat="43.61841" lon="3.29206">
        <ele>270.6</ele>
        <time>2024-03-21T15:02:55Z</time>
      </trkpt>
      <trkpt lat="43.6184" lon="3.29199">
        <ele>271.7</ele>
        <time>2024-03-21T15:02:56Z</time>
      </trkpt>
      <trkpt lat="43.6184" lon="3.29193">
        <ele>272.4</ele>
        <time>2024-03-21T15:02:57Z</time>
      </trkpt>
      <trkpt lat="43.61838" lon="3.29188">
        <ele>273.1</ele>
        <time>2024-03-21T15:02:58Z</time>
      </trkpt>
      <trkpt lat="43.61837" lon="3.29182">
        <ele>273.6</ele>
        <time>2024-03-21T15:02:59Z</time>
      </trkpt>
      <trkpt lat="43.61838" lon="3.29176">
        <ele>273.6</ele>
        <time>2024-03-21T15:03:00Z</time>
      </trkpt>
      <trkpt lat="43.61838" lon="3.2917">
        <ele>273.9</ele>
        <time>2024-03-21T15:03:01Z</time>
      </trkpt>
      <trkpt lat="43.61839" lon="3.29164">
        <ele>274</ele>
        <time>2024-03-21T15:03:02Z</time>
      </trkpt>
      <trkpt lat="43.6184" lon="3.29159">
        <ele>274.3</ele>
        <time>2024-03-21T15:03:03Z</time>
      </trkpt>
      <trkpt lat="43.61841" lon="3.29153">
        <ele>274.7</ele>
        <time>2024-03-21T15:03:04Z</time>
      </trkpt>
      <trkpt lat="43.61841" lon="3.29141">
        <ele>275.9</ele>
        <time>2024-03-21T15:03:06Z</time>
      </trkpt>
      <trkpt lat="43.61842" lon="3.29135">
        <ele>276.2</ele>
        <time>2024-03-21T15:03:07Z</time>
      </trkpt>
      <trkpt lat="43.61843" lon="3.29128">
        <ele>276.7</ele>
        <time>2024-03-21T15:03:08Z</time>
      </trkpt>
      <trkpt lat="43.61843" lon="3.29121">
        <ele>277.5</ele>
        <time>2024-03-21T15:03:09Z</time>
      </trkpt>
      <trkpt lat="43.61846" lon="3.291">
        <ele>278.6</ele>
        <time>2024-03-21T15:03:12Z</time>
      </trkpt>
      <trkpt lat="43.61846" lon="3.29095">
        <ele>278.9</ele>
        <time>2024-03-21T15:03:13Z</time>
      </trkpt>
      <trkpt lat="43.61847" lon="3.29089">
        <ele>279.1</ele>
        <time>2024-03-21T15:03:14Z</time>
      </trkpt>
      <trkpt lat="43.61849" lon="3.29082">
        <ele>279.3</ele>
        <time>2024-03-21T15:03:15Z</time>
      </trkpt>
      <trkpt lat="43.61851" lon="3.2907">
        <ele>279.6</ele>
        <time>2024-03-21T15:03:17Z</time>
      </trkpt>
      <trkpt lat="43.61853" lon="3.29063">
        <ele>279.7</ele>
        <time>2024-03-21T15:03:18Z</time>
      </trkpt>
      <trkpt lat="43.61856" lon="3.29058">
        <ele>279.6</ele>
        <time>2024-03-21T15:03:19Z</time>
      </trkpt>
      <trkpt lat="43.61858" lon="3.29053">
        <ele>279.6</ele>
        <time>2024-03-21T15:03:20Z</time>
      </trkpt>
      <trkpt lat="43.61861" lon="3.29048">
        <ele>279.6</ele>
        <time>2024-03-21T15:03:21Z</time>
      </trkpt>
      <trkpt lat="43.61863" lon="3.29043">
        <ele>279.5</ele>
        <time>2024-03-21T15:03:22Z</time>
      </trkpt>
      <trkpt lat="43.61865" lon="3.29037">
        <ele>279.4</ele>
        <time>2024-03-21T15:03:23Z</time>
      </trkpt>
      <trkpt lat="43.61866" lon="3.29033">
        <ele>279.4</ele>
        <time>2024-03-21T15:03:24Z</time>
      </trkpt>
      <trkpt lat="43.61866" lon="3.29028">
        <ele>279.8</ele>
        <time>2024-03-21T15:03:25Z</time>
      </trkpt>
      <trkpt lat="43.61865" lon="3.29024">
        <ele>280</ele>
        <time>2024-03-21T15:03:26Z</time>
      </trkpt>
      <trkpt lat="43.61864" lon="3.29022">
        <ele>280.3</ele>
        <time>2024-03-21T15:03:27Z</time>
      </trkpt>
      <trkpt lat="43.61861" lon="3.29019">
        <ele>281</ele>
        <time>2024-03-21T15:03:28Z</time>
      </trkpt>
      <trkpt lat="43.61855" lon="3.29017">
        <ele>281.7</ele>
        <time>2024-03-21T15:03:30Z</time>
      </trkpt>
      <trkpt lat="43.61847" lon="3.29015">
        <ele>282.8</ele>
        <time>2024-03-21T15:03:32Z</time>
      </trkpt>
      <trkpt lat="43.61844" lon="3.29014">
        <ele>283.2</ele>
        <time>2024-03-21T15:03:33Z</time>
      </trkpt>
      <trkpt lat="43.6184" lon="3.29014">
        <ele>283.7</ele>
        <time>2024-03-21T15:03:34Z</time>
      </trkpt>
      <trkpt lat="43.61836" lon="3.29015">
        <ele>284.1</ele>
        <time>2024-03-21T15:03:35Z</time>
      </trkpt>
      <trkpt lat="43.61832" lon="3.29017">
        <ele>284.6</ele>
        <time>2024-03-21T15:03:36Z</time>
      </trkpt>
      <trkpt lat="43.61828" lon="3.29018">
        <ele>285.2</ele>
        <time>2024-03-21T15:03:37Z</time>
      </trkpt>
      <trkpt lat="43.61825" lon="3.2902">
        <ele>285.7</ele>
        <time>2024-03-21T15:03:38Z</time>
      </trkpt>
      <trkpt lat="43.61822" lon="3.29023">
        <ele>286.1</ele>
        <time>2024-03-21T15:03:39Z</time>
      </trkpt>
      <trkpt lat="43.6181" lon="3.29039">
        <ele>288.1</ele>
        <time>2024-03-21T15:03:43Z</time>
      </trkpt>
      <trkpt lat="43.61804" lon="3.29045">
        <ele>289.3</ele>
        <time>2024-03-21T15:03:45Z</time>
      </trkpt>
      <trkpt lat="43.61798" lon="3.29045">
        <ele>290.3</ele>
        <time>2024-03-21T15:03:47Z</time>
      </trkpt>
      <trkpt lat="43.61795" lon="3.29042">
        <ele>290.7</ele>
        <time>2024-03-21T15:03:48Z</time>
      </trkpt>
      <trkpt lat="43.61793" lon="3.29039">
        <ele>290.9</ele>
        <time>2024-03-21T15:03:49Z</time>
      </trkpt>
      <trkpt lat="43.61789" lon="3.29036">
        <ele>291.3</ele>
        <time>2024-03-21T15:03:50Z</time>
      </trkpt>
      <trkpt lat="43.61786" lon="3.29035">
        <ele>291.7</ele>
        <time>2024-03-21T15:03:51Z</time>
      </trkpt>
      <trkpt lat="43.61782" lon="3.29034">
        <ele>292.1</ele>
        <time>2024-03-21T15:03:52Z</time>
      </trkpt>
      <trkpt lat="43.61774" lon="3.29034">
        <ele>293.3</ele>
        <time>2024-03-21T15:03:54Z</time>
      </trkpt>
      <trkpt lat="43.61766" lon="3.29032">
        <ele>294.3</ele>
        <time>2024-03-21T15:03:56Z</time>
      </trkpt>
      <trkpt lat="43.61763" lon="3.2903">
        <ele>294.5</ele>
        <time>2024-03-21T15:03:57Z</time>
      </trkpt>
      <trkpt lat="43.61761" lon="3.29026">
        <ele>294.4</ele>
        <time>2024-03-21T15:03:58Z</time>
      </trkpt>
      <trkpt lat="43.61758" lon="3.29022">
        <ele>294.9</ele>
        <time>2024-03-21T15:03:59Z</time>
      </trkpt>
      <trkpt lat="43.61756" lon="3.29019">
        <ele>295.2</ele>
        <time>2024-03-21T15:04:00Z</time>
      </trkpt>
      <trkpt lat="43.61752" lon="3.29017">
        <ele>295.7</ele>
        <time>2024-03-21T15:04:01Z</time>
      </trkpt>
      <trkpt lat="43.61748" lon="3.29017">
        <ele>296.8</ele>
        <time>2024-03-21T15:04:02Z</time>
      </trkpt>
      <trkpt lat="43.61746" lon="3.2902">
        <ele>297.7</ele>
        <time>2024-03-21T15:04:03Z</time>
      </trkpt>
      <trkpt lat="43.6174" lon="3.29032">
        <ele>300.8</ele>
        <time>2024-03-21T15:04:06Z</time>
      </trkpt>
      <trkpt lat="43.61739" lon="3.29038">
        <ele>301.9</ele>
        <time>2024-03-21T15:04:07Z</time>
      </trkpt>
      <trkpt lat="43.61737" lon="3.29044">
        <ele>303.2</ele>
        <time>2024-03-21T15:04:08Z</time>
      </trkpt>
      <trkpt lat="43.61736" lon="3.29049">
        <ele>303.9</ele>
        <time>2024-03-21T15:04:09Z</time>
      </trkpt>
      <trkpt lat="43.61736" lon="3.2908">
        <ele>305</ele>
        <time>2024-03-21T15:04:14Z</time>
      </trkpt>
      <trkpt lat="43.61735" lon="3.29087">
        <ele>305.3</ele>
        <time>2024-03-21T15:04:15Z</time>
      </trkpt>
      <trkpt lat="43.61735" lon="3.29099">
        <ele>305.3</ele>
        <time>2024-03-21T15:04:17Z</time>
      </trkpt>
      <trkpt lat="43.61736" lon="3.29104">
        <ele>305</ele>
        <time>2024-03-21T15:04:18Z</time>
      </trkpt>
      <trkpt lat="43.61736" lon="3.29115">
        <ele>305</ele>
        <time>2024-03-21T15:04:20Z</time>
      </trkpt>
      <trkpt lat="43.61735" lon="3.29121">
        <ele>305.1</ele>
        <time>2024-03-21T15:04:21Z</time>
      </trkpt>
      <trkpt lat="43.61734" lon="3.29126">
        <ele>305.2</ele>
        <time>2024-03-21T15:04:22Z</time>
      </trkpt>
      <trkpt lat="43.61733" lon="3.29132">
        <ele>305.3</ele>
        <time>2024-03-21T15:04:23Z</time>
      </trkpt>
      <trkpt lat="43.61727" lon="3.2915">
        <ele>305.9</ele>
        <time>2024-03-21T15:04:26Z</time>
      </trkpt>
      <trkpt lat="43.61724" lon="3.29156">
        <ele>306.1</ele>
        <time>2024-03-21T15:04:27Z</time>
      </trkpt>
      <trkpt lat="43.61721" lon="3.29161">
        <ele>306.6</ele>
        <time>2024-03-21T15:04:28Z</time>
      </trkpt>
      <trkpt lat="43.61718" lon="3.29165">
        <ele>307.3</ele>
        <time>2024-03-21T15:04:29Z</time>
      </trkpt>
      <trkpt lat="43.61715" lon="3.2917">
        <ele>308.1</ele>
        <time>2024-03-21T15:04:30Z</time>
      </trkpt>
      <trkpt lat="43.61711" lon="3.29174">
        <ele>309.1</ele>
        <time>2024-03-21T15:04:31Z</time>
      </trkpt>
      <trkpt lat="43.61708" lon="3.2918">
        <ele>309.6</ele>
        <time>2024-03-21T15:04:32Z</time>
      </trkpt>
      <trkpt lat="43.61704" lon="3.29185">
        <ele>310</ele>
        <time>2024-03-21T15:04:33Z</time>
      </trkpt>
      <trkpt lat="43.61698" lon="3.29195">
        <ele>309.7</ele>
        <time>2024-03-21T15:04:35Z</time>
      </trkpt>
      <trkpt lat="43.61695" lon="3.29201">
        <ele>310</ele>
        <time>2024-03-21T15:04:36Z</time>
      </trkpt>
      <trkpt lat="43.61693" lon="3.29206">
        <ele>310.5</ele>
        <time>2024-03-21T15:04:37Z</time>
      </trkpt>
      <trkpt lat="43.6169" lon="3.29213">
        <ele>311.7</ele>
        <time>2024-03-21T15:04:38Z</time>
      </trkpt>
      <trkpt lat="43.61684" lon="3.29231">
        <ele>315.4</ele>
        <time>2024-03-21T15:04:41Z</time>
      </trkpt>
      <trkpt lat="43.61681" lon="3.29237">
        <ele>317.2</ele>
        <time>2024-03-21T15:04:42Z</time>
      </trkpt>
      <trkpt lat="43.61679" lon="3.29244">
        <ele>318.7</ele>
        <time>2024-03-21T15:04:43Z</time>
      </trkpt>
      <trkpt lat="43.61673" lon="3.29256">
        <ele>321.3</ele>
        <time>2024-03-21T15:04:45Z</time>
      </trkpt>
      <trkpt lat="43.61669" lon="3.2927">
        <ele>322.5</ele>
        <time>2024-03-21T15:04:47Z</time>
      </trkpt>
      <trkpt lat="43.61668" lon="3.29276">
        <ele>322.8</ele>
        <time>2024-03-21T15:04:48Z</time>
      </trkpt>
      <trkpt lat="43.61668" lon="3.29283">
        <ele>322.8</ele>
        <time>2024-03-21T15:04:49Z</time>
      </trkpt>
      <trkpt lat="43.61669" lon="3.29289">
        <ele>322.6</ele>
        <time>2024-03-21T15:04:50Z</time>
      </trkpt>
      <trkpt lat="43.61669" lon="3.29307">
        <ele>322.8</ele>
        <time>2024-03-21T15:04:53Z</time>
      </trkpt>
      <trkpt lat="43.61667" lon="3.29319">
        <ele>323.9</ele>
        <time>2024-03-21T15:04:55Z</time>
      </trkpt>
      <trkpt lat="43.61665" lon="3.29326">
        <ele>324.9</ele>
        <time>2024-03-21T15:04:56Z</time>
      </trkpt>
      <trkpt lat="43.61663" lon="3.29332">
        <ele>325.8</ele>
        <time>2024-03-21T15:04:57Z</time>
      </trkpt>
      <trkpt lat="43.6166" lon="3.29338">
        <ele>326.9</ele>
        <time>2024-03-21T15:04:58Z</time>
      </trkpt>
      <trkpt lat="43.61658" lon="3.29344">
        <ele>327.7</ele>
        <time>2024-03-21T15:04:59Z</time>
      </trkpt>
      <trkpt lat="43.61656" lon="3.29351">
        <ele>328.6</ele>
        <time>2024-03-21T15:05:00Z</time>
      </trkpt>
      <trkpt lat="43.61652" lon="3.29363">
        <ele>330.3</ele>
        <time>2024-03-21T15:05:02Z</time>
      </trkpt>
      <trkpt lat="43.61651" lon="3.2937">
        <ele>330.8</ele>
        <time>2024-03-21T15:05:03Z</time>
      </trkpt>
      <trkpt lat="43.6165" lon="3.29376">
        <ele>331.3</ele>
        <time>2024-03-21T15:05:04Z</time>
      </trkpt>
      <trkpt lat="43.61648" lon="3.29382">
        <ele>332.1</ele>
        <time>2024-03-21T15:05:05Z</time>
      </trkpt>
      <trkpt lat="43.61647" lon="3.29387">
        <ele>332.6</ele>
        <time>2024-03-21T15:05:06Z</time>
      </trkpt>
      <trkpt lat="43.61643" lon="3.29399">
        <ele>334.5</ele>
        <time>2024-03-21T15:05:08Z</time>
      </trkpt>
      <trkpt lat="43.61641" lon="3.29406">
        <ele>335.6</ele>
        <time>2024-03-21T15:05:09Z</time>
      </trkpt>
      <trkpt lat="43.6164" lon="3.29413">
        <ele>336.4</ele>
        <time>2024-03-21T15:05:10Z</time>
      </trkpt>
      <trkpt lat="43.61638" lon="3.29421">
        <ele>337.3</ele>
        <time>2024-03-21T15:05:11Z</time>
      </trkpt>
      <trkpt lat="43.61636" lon="3.29435">
        <ele>337.8</ele>
        <time>2024-03-21T15:05:13Z</time>
      </trkpt>
      <trkpt lat="43.61634" lon="3.29442">
        <ele>338.2</ele>
        <time>2024-03-21T15:05:14Z</time>
      </trkpt>
      <trkpt lat="43.61632" lon="3.29448">
        <ele>338.7</ele>
        <time>2024-03-21T15:05:15Z</time>
      </trkpt>
      <trkpt lat="43.6163" lon="3.29455">
        <ele>339.1</ele>
        <time>2024-03-21T15:05:16Z</time>
      </trkpt>
      <trkpt lat="43.61629" lon="3.29463">
        <ele>339.3</ele>
        <time>2024-03-21T15:05:17Z</time>
      </trkpt>
      <trkpt lat="43.61628" lon="3.29468">
        <ele>339.6</ele>
        <time>2024-03-21T15:05:18Z</time>
      </trkpt>
      <trkpt lat="43.61627" lon="3.29475">
        <ele>339.9</ele>
        <time>2024-03-21T15:05:19Z</time>
      </trkpt>
      <trkpt lat="43.61625" lon="3.29481">
        <ele>340.7</ele>
        <time>2024-03-21T15:05:20Z</time>
      </trkpt>
      <trkpt lat="43.61625" lon="3.29488">
        <ele>340.8</ele>
        <time>2024-03-21T15:05:21Z</time>
      </trkpt>
      <trkpt lat="43.61624" lon="3.29494">
        <ele>341.2</ele>
        <time>2024-03-21T15:05:22Z</time>
      </trkpt>
      <trkpt lat="43.61624" lon="3.29501">
        <ele>341.3</ele>
        <time>2024-03-21T15:05:23Z</time>
      </trkpt>
      <trkpt lat="43.61623" lon="3.29507">
        <ele>341.2</ele>
        <time>2024-03-21T15:05:24Z</time>
      </trkpt>
      <trkpt lat="43.61623" lon="3.29543">
        <ele>339.5</ele>
        <time>2024-03-21T15:05:29Z</time>
      </trkpt>
      <trkpt lat="43.61622" lon="3.29548">
        <ele>339.8</ele>
        <time>2024-03-21T15:05:30Z</time>
      </trkpt>
      <trkpt lat="43.61622" lon="3.29572">
        <ele>340.7</ele>
        <time>2024-03-21T15:05:34Z</time>
      </trkpt>
      <trkpt lat="43.61623" lon="3.29578">
        <ele>340.8</ele>
        <time>2024-03-21T15:05:35Z</time>
      </trkpt>
      <trkpt lat="43.61624" lon="3.29583">
        <ele>340.8</ele>
        <time>2024-03-21T15:05:36Z</time>
      </trkpt>
      <trkpt lat="43.61624" lon="3.29613">
        <ele>341.4</ele>
        <time>2024-03-21T15:05:42Z</time>
      </trkpt>
      <trkpt lat="43.61623" lon="3.29618">
        <ele>341.7</ele>
        <time>2024-03-21T15:05:43Z</time>
      </trkpt>
      <trkpt lat="43.61623" lon="3.29628">
        <ele>341.7</ele>
        <time>2024-03-21T15:05:45Z</time>
      </trkpt>
      <trkpt lat="43.61622" lon="3.29632">
        <ele>342.1</ele>
        <time>2024-03-21T15:05:46Z</time>
      </trkpt>
      <trkpt lat="43.61622" lon="3.29637">
        <ele>342.1</ele>
        <time>2024-03-21T15:05:47Z</time>
      </trkpt>
      <trkpt lat="43.61621" lon="3.29642">
        <ele>342.5</ele>
        <time>2024-03-21T15:05:48Z</time>
      </trkpt>
      <trkpt lat="43.61621" lon="3.29647">
        <ele>342.6</ele>
        <time>2024-03-21T15:05:49Z</time>
      </trkpt>
      <trkpt lat="43.61615" lon="3.29677">
        <ele>345.5</ele>
        <time>2024-03-21T15:05:55Z</time>
      </trkpt>
      <trkpt lat="43.61614" lon="3.29683">
        <ele>345.9</ele>
        <time>2024-03-21T15:05:56Z</time>
      </trkpt>
      <trkpt lat="43.61612" lon="3.29688">
        <ele>346.6</ele>
        <time>2024-03-21T15:05:57Z</time>
      </trkpt>
      <trkpt lat="43.61611" lon="3.29693">
        <ele>347.1</ele>
        <time>2024-03-21T15:05:58Z</time>
      </trkpt>
      <trkpt lat="43.61609" lon="3.29698">
        <ele>348.1</ele>
        <time>2024-03-21T15:05:59Z</time>
      </trkpt>
      <trkpt lat="43.61607" lon="3.29702">
        <ele>349.1</ele>
        <time>2024-03-21T15:06:00Z</time>
      </trkpt>
      <trkpt lat="43.61606" lon="3.29706">
        <ele>349.6</ele>
        <time>2024-03-21T15:06:01Z</time>
      </trkpt>
      <trkpt lat="43.61604" lon="3.29711">
        <ele>350.6</ele>
        <time>2024-03-21T15:06:02Z</time>
      </trkpt>
      <trkpt lat="43.61602" lon="3.29715">
        <ele>351.6</ele>
        <time>2024-03-21T15:06:03Z</time>
      </trkpt>
      <trkpt lat="43.616" lon="3.29727">
        <ele>352.7</ele>
        <time>2024-03-21T15:06:05Z</time>
      </trkpt>
      <trkpt lat="43.616" lon="3.29733">
        <ele>352.8</ele>
        <time>2024-03-21T15:06:06Z</time>
      </trkpt>
      <trkpt lat="43.61599" lon="3.29739">
        <ele>353.4</ele>
        <time>2024-03-21T15:06:07Z</time>
      </trkpt>
      <trkpt lat="43.61599" lon="3.29765">
        <ele>354</ele>
        <time>2024-03-21T15:06:11Z</time>
      </trkpt>
      <trkpt lat="43.61598" lon="3.29771">
        <ele>354.5</ele>
        <time>2024-03-21T15:06:12Z</time>
      </trkpt>
      <trkpt lat="43.61598" lon="3.29777">
        <ele>354.6</ele>
        <time>2024-03-21T15:06:13Z</time>
      </trkpt>
      <trkpt lat="43.61596" lon="3.29791">
        <ele>355.3</ele>
        <time>2024-03-21T15:06:15Z</time>
      </trkpt>
      <trkpt lat="43.61595" lon="3.29797">
        <ele>355.6</ele>
        <time>2024-03-21T15:06:16Z</time>
      </trkpt>
      <trkpt lat="43.61594" lon="3.29804">
        <ele>355.8</ele>
        <time>2024-03-21T15:06:17Z</time>
      </trkpt>
      <trkpt lat="43.61592" lon="3.2981">
        <ele>356.3</ele>
        <time>2024-03-21T15:06:18Z</time>
      </trkpt>
      <trkpt lat="43.61591" lon="3.29816">
        <ele>356.4</ele>
        <time>2024-03-21T15:06:19Z</time>
      </trkpt>
      <trkpt lat="43.61589" lon="3.29822">
        <ele>356.8</ele>
        <time>2024-03-21T15:06:20Z</time>
      </trkpt>
      <trkpt lat="43.61588" lon="3.29828">
        <ele>356.8</ele>
        <time>2024-03-21T15:06:21Z</time>
      </trkpt>
      <trkpt lat="43.61584" lon="3.2984">
        <ele>357.8</ele>
        <time>2024-03-21T15:06:23Z</time>
      </trkpt>
      <trkpt lat="43.61583" lon="3.29846">
        <ele>358.2</ele>
        <time>2024-03-21T15:06:24Z</time>
      </trkpt>
      <trkpt lat="43.61582" lon="3.29851">
        <ele>358.8</ele>
        <time>2024-03-21T15:06:25Z</time>
      </trkpt>
      <trkpt lat="43.61581" lon="3.29855">
        <ele>359.3</ele>
        <time>2024-03-21T15:06:26Z</time>
      </trkpt>
      <trkpt lat="43.6158" lon="3.2986">
        <ele>359.8</ele>
        <time>2024-03-21T15:06:27Z</time>
      </trkpt>
      <trkpt lat="43.6158" lon="3.29864">
        <ele>359.7</ele>
        <time>2024-03-21T15:06:28Z</time>
      </trkpt>
      <trkpt lat="43.61578" lon="3.29874">
        <ele>360.2</ele>
        <time>2024-03-21T15:06:30Z</time>
      </trkpt>
      <trkpt lat="43.61576" lon="3.2988">
        <ele>360.9</ele>
        <time>2024-03-21T15:06:31Z</time>
      </trkpt>
      <trkpt lat="43.61575" lon="3.29885">
        <ele>361.1</ele>
        <time>2024-03-21T15:06:32Z</time>
      </trkpt>
      <trkpt lat="43.61574" lon="3.29889">
        <ele>361.4</ele>
        <time>2024-03-21T15:06:33Z</time>
      </trkpt>
      <trkpt lat="43.61573" lon="3.29894">
        <ele>361.6</ele>
        <time>2024-03-21T15:06:34Z</time>
      </trkpt>
      <trkpt lat="43.61571" lon="3.29899">
        <ele>362.3</ele>
        <time>2024-03-21T15:06:35Z</time>
      </trkpt>
      <trkpt lat="43.6157" lon="3.29903">
        <ele>362.5</ele>
        <time>2024-03-21T15:06:36Z</time>
      </trkpt>
      <trkpt lat="43.61568" lon="3.29913">
        <ele>362.7</ele>
        <time>2024-03-21T15:06:38Z</time>
      </trkpt>
      <trkpt lat="43.61562" lon="3.29925">
        <ele>363.8</ele>
        <time>2024-03-21T15:06:41Z</time>
      </trkpt>
      <trkpt lat="43.61559" lon="3.29929">
        <ele>364.5</ele>
        <time>2024-03-21T15:06:42Z</time>
      </trkpt>
      <trkpt lat="43.61558" lon="3.29933">
        <ele>364.4</ele>
        <time>2024-03-21T15:06:43Z</time>
      </trkpt>
      <trkpt lat="43.61556" lon="3.29937">
        <ele>364.7</ele>
        <time>2024-03-21T15:06:44Z</time>
      </trkpt>
      <trkpt lat="43.61555" lon="3.29942">
        <ele>364.5</ele>
        <time>2024-03-21T15:06:45Z</time>
      </trkpt>
      <trkpt lat="43.61553" lon="3.29946">
        <ele>364.9</ele>
        <time>2024-03-21T15:06:46Z</time>
      </trkpt>
      <trkpt lat="43.61551" lon="3.29951">
        <ele>365.3</ele>
        <time>2024-03-21T15:06:47Z</time>
      </trkpt>
      <trkpt lat="43.61548" lon="3.29956">
        <ele>365.9</ele>
        <time>2024-03-21T15:06:48Z</time>
      </trkpt>
      <trkpt lat="43.61546" lon="3.2996">
        <ele>366.3</ele>
        <time>2024-03-21T15:06:49Z</time>
      </trkpt>
      <trkpt lat="43.61544" lon="3.29965">
        <ele>366.5</ele>
        <time>2024-03-21T15:06:50Z</time>
      </trkpt>
      <trkpt lat="43.61543" lon="3.29969">
        <ele>366.4</ele>
        <time>2024-03-21T15:06:51Z</time>
      </trkpt>
      <trkpt lat="43.61541" lon="3.29974">
        <ele>366.6</ele>
        <time>2024-03-21T15:06:52Z</time>
      </trkpt>
      <trkpt lat="43.61539" lon="3.29978">
        <ele>367</ele>
        <time>2024-03-21T15:06:53Z</time>
      </trkpt>
      <trkpt lat="43.61535" lon="3.29988">
        <ele>367.7</ele>
        <time>2024-03-21T15:06:55Z</time>
      </trkpt>
      <trkpt lat="43.61533" lon="3.29992">
        <ele>368</ele>
        <time>2024-03-21T15:06:56Z</time>
      </trkpt>
      <trkpt lat="43.61532" lon="3.29997">
        <ele>368</ele>
        <time>2024-03-21T15:06:57Z</time>
      </trkpt>
      <trkpt lat="43.61524" lon="3.30013">
        <ele>369.8</ele>
        <time>2024-03-21T15:07:01Z</time>
      </trkpt>
      <trkpt lat="43.61522" lon="3.30018">
        <ele>370.2</ele>
        <time>2024-03-21T15:07:02Z</time>
      </trkpt>
      <trkpt lat="43.61519" lon="3.30023">
        <ele>370.8</ele>
        <time>2024-03-21T15:07:03Z</time>
      </trkpt>
      <trkpt lat="43.61518" lon="3.30027">
        <ele>370.9</ele>
        <time>2024-03-21T15:07:04Z</time>
      </trkpt>
      <trkpt lat="43.61516" lon="3.30032">
        <ele>371.3</ele>
        <time>2024-03-21T15:07:05Z</time>
      </trkpt>
      <trkpt lat="43.61514" lon="3.30036">
        <ele>371.7</ele>
        <time>2024-03-21T15:07:06Z</time>
      </trkpt>
      <trkpt lat="43.61508" lon="3.30051">
        <ele>372.5</ele>
        <time>2024-03-21T15:07:09Z</time>
      </trkpt>
      <trkpt lat="43.61505" lon="3.30056">
        <ele>372.9</ele>
        <time>2024-03-21T15:07:10Z</time>
      </trkpt>
      <trkpt lat="43.61503" lon="3.3006">
        <ele>373.2</ele>
        <time>2024-03-21T15:07:11Z</time>
      </trkpt>
      <trkpt lat="43.61499" lon="3.3007">
        <ele>373.7</ele>
        <time>2024-03-21T15:07:13Z</time>
      </trkpt>
      <trkpt lat="43.61497" lon="3.30074">
        <ele>374.1</ele>
        <time>2024-03-21T15:07:14Z</time>
      </trkpt>
      <trkpt lat="43.61494" lon="3.30079">
        <ele>374.7</ele>
        <time>2024-03-21T15:07:15Z</time>
      </trkpt>
      <trkpt lat="43.61488" lon="3.30091">
        <ele>375.9</ele>
        <time>2024-03-21T15:07:18Z</time>
      </trkpt>
      <trkpt lat="43.61486" lon="3.30094">
        <ele>376.3</ele>
        <time>2024-03-21T15:07:19Z</time>
      </trkpt>
      <trkpt lat="43.61483" lon="3.30098">
        <ele>376.8</ele>
        <time>2024-03-21T15:07:20Z</time>
      </trkpt>
      <trkpt lat="43.61479" lon="3.30106">
        <ele>377.3</ele>
        <time>2024-03-21T15:07:22Z</time>
      </trkpt>
      <trkpt lat="43.61476" lon="3.3011">
        <ele>377.5</ele>
        <time>2024-03-21T15:07:23Z</time>
      </trkpt>
      <trkpt lat="43.61474" lon="3.30115">
        <ele>377.9</ele>
        <time>2024-03-21T15:07:24Z</time>
      </trkpt>
      <trkpt lat="43.61471" lon="3.30118">
        <ele>378.5</ele>
        <time>2024-03-21T15:07:25Z</time>
      </trkpt>
      <trkpt lat="43.61468" lon="3.30122">
        <ele>379.2</ele>
        <time>2024-03-21T15:07:26Z</time>
      </trkpt>
      <trkpt lat="43.61466" lon="3.30126">
        <ele>379.8</ele>
        <time>2024-03-21T15:07:27Z</time>
      </trkpt>
      <trkpt lat="43.61465" lon="3.3013">
        <ele>380.1</ele>
        <time>2024-03-21T15:07:28Z</time>
      </trkpt>
      <trkpt lat="43.61463" lon="3.30133">
        <ele>380.5</ele>
        <time>2024-03-21T15:07:29Z</time>
      </trkpt>
      <trkpt lat="43.61462" lon="3.30136">
        <ele>380.8</ele>
        <time>2024-03-21T15:07:30Z</time>
      </trkpt>
      <trkpt lat="43.6146" lon="3.30139">
        <ele>381.2</ele>
        <time>2024-03-21T15:07:31Z</time>
      </trkpt>
      <trkpt lat="43.61457" lon="3.30142">
        <ele>382</ele>
        <time>2024-03-21T15:07:32Z</time>
      </trkpt>
      <trkpt lat="43.61454" lon="3.30142">
        <ele>382.6</ele>
        <time>2024-03-21T15:07:33Z</time>
      </trkpt>
      <trkpt lat="43.61452" lon="3.3014">
        <ele>382.7</ele>
        <time>2024-03-21T15:07:34Z</time>
      </trkpt>
      <trkpt lat="43.61451" lon="3.30138">
        <ele>382.8</ele>
        <time>2024-03-21T15:07:35Z</time>
      </trkpt>
      <trkpt lat="43.6145" lon="3.30134">
        <ele>383</ele>
        <time>2024-03-21T15:07:36Z</time>
      </trkpt>
      <trkpt lat="43.6145" lon="3.3013">
        <ele>382.9</ele>
        <time>2024-03-21T15:07:37Z</time>
      </trkpt>
      <trkpt lat="43.61448" lon="3.30122">
        <ele>383.3</ele>
        <time>2024-03-21T15:07:39Z</time>
      </trkpt>
      <trkpt lat="43.61448" lon="3.30108">
        <ele>383.5</ele>
        <time>2024-03-21T15:07:42Z</time>
      </trkpt>
      <trkpt lat="43.61449" lon="3.30103">
        <ele>383.6</ele>
        <time>2024-03-21T15:07:43Z</time>
      </trkpt>
      <trkpt lat="43.61449" lon="3.30098">
        <ele>384</ele>
        <time>2024-03-21T15:07:44Z</time>
      </trkpt>
      <trkpt lat="43.6145" lon="3.30094">
        <ele>384</ele>
        <time>2024-03-21T15:07:45Z</time>
      </trkpt>
      <trkpt lat="43.61451" lon="3.30088">
        <ele>384.2</ele>
        <time>2024-03-21T15:07:46Z</time>
      </trkpt>
      <trkpt lat="43.61452" lon="3.30083">
        <ele>384.4</ele>
        <time>2024-03-21T15:07:47Z</time>
      </trkpt>
      <trkpt lat="43.61453" lon="3.30077">
        <ele>384.5</ele>
        <time>2024-03-21T15:07:48Z</time>
      </trkpt>
      <trkpt lat="43.61457" lon="3.30065">
        <ele>384.2</ele>
        <time>2024-03-21T15:07:50Z</time>
      </trkpt>
      <trkpt lat="43.6146" lon="3.30059">
        <ele>384</ele>
        <time>2024-03-21T15:07:51Z</time>
      </trkpt>
      <trkpt lat="43.61462" lon="3.30053">
        <ele>384.2</ele>
        <time>2024-03-21T15:07:52Z</time>
      </trkpt>
      <trkpt lat="43.61465" lon="3.30047">
        <ele>384.5</ele>
        <time>2024-03-21T15:07:53Z</time>
      </trkpt>
      <trkpt lat="43.61467" lon="3.3004">
        <ele>385.1</ele>
        <time>2024-03-21T15:07:54Z</time>
      </trkpt>
      <trkpt lat="43.61471" lon="3.30033">
        <ele>385.4</ele>
        <time>2024-03-21T15:07:55Z</time>
      </trkpt>
      <trkpt lat="43.61474" lon="3.30025">
        <ele>385.7</ele>
        <time>2024-03-21T15:07:56Z</time>
      </trkpt>
      <trkpt lat="43.61476" lon="3.30019">
        <ele>385.6</ele>
        <time>2024-03-21T15:07:57Z</time>
      </trkpt>
      <trkpt lat="43.61479" lon="3.30012">
        <ele>385.3</ele>
        <time>2024-03-21T15:07:58Z</time>
      </trkpt>
      <trkpt lat="43.61481" lon="3.30005">
        <ele>385.3</ele>
        <time>2024-03-21T15:07:59Z</time>
      </trkpt>
      <trkpt lat="43.61484" lon="3.29998">
        <ele>385</ele>
        <time>2024-03-21T15:08:00Z</time>
      </trkpt>
      <trkpt lat="43.61485" lon="3.29991">
        <ele>385.4</ele>
        <time>2024-03-21T15:08:01Z</time>
      </trkpt>
      <trkpt lat="43.61487" lon="3.29984">
        <ele>385.4</ele>
        <time>2024-03-21T15:08:02Z</time>
      </trkpt>
      <trkpt lat="43.61489" lon="3.2997">
        <ele>386.2</ele>
        <time>2024-03-21T15:08:04Z</time>
      </trkpt>
      <trkpt lat="43.6149" lon="3.29964">
        <ele>386.7</ele>
        <time>2024-03-21T15:08:05Z</time>
      </trkpt>
      <trkpt lat="43.6149" lon="3.29957">
        <ele>387.6</ele>
        <time>2024-03-21T15:08:06Z</time>
      </trkpt>
      <trkpt lat="43.61495" lon="3.29922">
        <ele>391.4</ele>
        <time>2024-03-21T15:08:11Z</time>
      </trkpt>
      <trkpt lat="43.61495" lon="3.29902">
        <ele>394.6</ele>
        <time>2024-03-21T15:08:14Z</time>
      </trkpt>
      <trkpt lat="43.61493" lon="3.29888">
        <ele>397.1</ele>
        <time>2024-03-21T15:08:16Z</time>
      </trkpt>
      <trkpt lat="43.61493" lon="3.29882">
        <ele>397.6</ele>
        <time>2024-03-21T15:08:17Z</time>
      </trkpt>
      <trkpt lat="43.61492" lon="3.29877">
        <ele>398.2</ele>
        <time>2024-03-21T15:08:18Z</time>
      </trkpt>
      <trkpt lat="43.61492" lon="3.29871">
        <ele>398.7</ele>
        <time>2024-03-21T15:08:19Z</time>
      </trkpt>
      <trkpt lat="43.61491" lon="3.29867">
        <ele>399.1</ele>
        <time>2024-03-21T15:08:20Z</time>
      </trkpt>
      <trkpt lat="43.61491" lon="3.29857">
        <ele>399.7</ele>
        <time>2024-03-21T15:08:24Z</time>
      </trkpt>
      <trkpt lat="43.6149" lon="3.29857">
        <ele>399.8</ele>
        <time>2024-03-21T15:08:27Z</time>
      </trkpt>
      <trkpt lat="43.6149" lon="3.29856">
        <ele>399.8</ele>
        <time>2024-03-21T15:08:28Z</time>
      </trkpt>
      <trkpt lat="43.61489" lon="3.29855">
        <ele>399.9</ele>
        <time>2024-03-21T15:08:29Z</time>
      </trkpt>
      <trkpt lat="43.61489" lon="3.29854">
        <ele>399.9</ele>
        <time>2024-03-21T15:08:30Z</time>
      </trkpt>
      <trkpt lat="43.61488" lon="3.29853">
        <ele>400</ele>
        <time>2024-03-21T15:08:31Z</time>
      </trkpt>
      <trkpt lat="43.61489" lon="3.29851">
        <ele>400</ele>
        <time>2024-03-21T15:08:32Z</time>
      </trkpt>
      <trkpt lat="43.61487" lon="3.29847">
        <ele>400.2</ele>
        <time>2024-03-21T15:08:34Z</time>
      </trkpt>
      <trkpt lat="43.61485" lon="3.29844">
        <ele>400.4</ele>
        <time>2024-03-21T15:08:35Z</time>
      </trkpt>
      <trkpt lat="43.61478" lon="3.29844">
        <ele>400.7</ele>
        <time>2024-03-21T15:08:37Z</time>
      </trkpt>
      <trkpt lat="43.61475" lon="3.29843">
        <ele>400.9</ele>
        <time>2024-03-21T15:08:38Z</time>
      </trkpt>
      <trkpt lat="43.61471" lon="3.29841">
        <ele>401</ele>
        <time>2024-03-21T15:08:39Z</time>
      </trkpt>
      <trkpt lat="43.61468" lon="3.29839">
        <ele>401.1</ele>
        <time>2024-03-21T15:08:40Z</time>
      </trkpt>
      <trkpt lat="43.61464" lon="3.29837">
        <ele>401.3</ele>
        <time>2024-03-21T15:08:41Z</time>
      </trkpt>
      <trkpt lat="43.61461" lon="3.29836">
        <ele>401.4</ele>
        <time>2024-03-21T15:08:42Z</time>
      </trkpt>
      <trkpt lat="43.61449" lon="3.29833">
        <ele>401.8</ele>
        <time>2024-03-21T15:08:45Z</time>
      </trkpt>
      <trkpt lat="43.61444" lon="3.29833">
        <ele>402</ele>
        <time>2024-03-21T15:08:46Z</time>
      </trkpt>
      <trkpt lat="43.61439" lon="3.29834">
        <ele>402.2</ele>
        <time>2024-03-21T15:08:47Z</time>
      </trkpt>
      <trkpt lat="43.61433" lon="3.29836">
        <ele>402.3</ele>
        <time>2024-03-21T15:08:48Z</time>
      </trkpt>
      <trkpt lat="43.61429" lon="3.29839">
        <ele>402.4</ele>
        <time>2024-03-21T15:08:49Z</time>
      </trkpt>
      <trkpt lat="43.61419" lon="3.29843">
        <ele>402.6</ele>
        <time>2024-03-21T15:08:51Z</time>
      </trkpt>
      <trkpt lat="43.61415" lon="3.29843">
        <ele>402.6</ele>
        <time>2024-03-21T15:08:52Z</time>
      </trkpt>
      <trkpt lat="43.6141" lon="3.29841">
        <ele>402.6</ele>
        <time>2024-03-21T15:08:53Z</time>
      </trkpt>
      <trkpt lat="43.61407" lon="3.29837">
        <ele>402.6</ele>
        <time>2024-03-21T15:08:54Z</time>
      </trkpt>
      <trkpt lat="43.61405" lon="3.29832">
        <ele>402.6</ele>
        <time>2024-03-21T15:08:55Z</time>
      </trkpt>
      <trkpt lat="43.61403" lon="3.29828">
        <ele>402.6</ele>
        <time>2024-03-21T15:08:56Z</time>
      </trkpt>
      <trkpt lat="43.61401" lon="3.29818">
        <ele>402.7</ele>
        <time>2024-03-21T15:08:58Z</time>
      </trkpt>
      <trkpt lat="43.614" lon="3.29814">
        <ele>402.8</ele>
        <time>2024-03-21T15:08:59Z</time>
      </trkpt>
      <trkpt lat="43.61398" lon="3.29811">
        <ele>402.9</ele>
        <time>2024-03-21T15:09:00Z</time>
      </trkpt>
      <trkpt lat="43.61386" lon="3.29799">
        <ele>402.7</ele>
        <time>2024-03-21T15:13:44Z</time>
      </trkpt>
      <trkpt lat="43.61382" lon="3.29797">
        <ele>402.4</ele>
        <time>2024-03-21T15:13:46Z</time>
      </trkpt>
      <trkpt lat="43.6138" lon="3.29795">
        <ele>402.3</ele>
        <time>2024-03-21T15:13:47Z</time>
      </trkpt>
      <trkpt lat="43.61377" lon="3.29794">
        <ele>402.2</ele>
        <time>2024-03-21T15:13:48Z</time>
      </trkpt>
      <trkpt lat="43.61375" lon="3.29793">
        <ele>402</ele>
        <time>2024-03-21T15:13:49Z</time>
      </trkpt>
      <trkpt lat="43.61372" lon="3.29792">
        <ele>401.9</ele>
        <time>2024-03-21T15:13:50Z</time>
      </trkpt>
      <trkpt lat="43.61371" lon="3.2979">
        <ele>401.8</ele>
        <time>2024-03-21T15:13:51Z</time>
      </trkpt>
      <trkpt lat="43.61369" lon="3.29789">
        <ele>401.7</ele>
        <time>2024-03-21T15:13:52Z</time>
      </trkpt>
      <trkpt lat="43.61366" lon="3.29788">
        <ele>401.5</ele>
        <time>2024-03-21T15:13:53Z</time>
      </trkpt>
      <trkpt lat="43.61363" lon="3.29786">
        <ele>401.4</ele>
        <time>2024-03-21T15:13:54Z</time>
      </trkpt>
      <trkpt lat="43.6136" lon="3.29785">
        <ele>401.2</ele>
        <time>2024-03-21T15:13:55Z</time>
      </trkpt>
      <trkpt lat="43.61356" lon="3.29782">
        <ele>400.9</ele>
        <time>2024-03-21T15:13:56Z</time>
      </trkpt>
      <trkpt lat="43.61352" lon="3.2978">
        <ele>400.7</ele>
        <time>2024-03-21T15:13:57Z</time>
      </trkpt>
      <trkpt lat="43.61347" lon="3.29778">
        <ele>400.5</ele>
        <time>2024-03-21T15:13:58Z</time>
      </trkpt>
      <trkpt lat="43.61343" lon="3.29776">
        <ele>400.3</ele>
        <time>2024-03-21T15:13:59Z</time>
      </trkpt>
      <trkpt lat="43.61339" lon="3.29773">
        <ele>400.2</ele>
        <time>2024-03-21T15:14:00Z</time>
      </trkpt>
      <trkpt lat="43.61335" lon="3.29771">
        <ele>400.1</ele>
        <time>2024-03-21T15:14:01Z</time>
      </trkpt>
      <trkpt lat="43.61332" lon="3.29768">
        <ele>400</ele>
        <time>2024-03-21T15:14:02Z</time>
      </trkpt>
      <trkpt lat="43.61328" lon="3.29765">
        <ele>399.8</ele>
        <time>2024-03-21T15:14:03Z</time>
      </trkpt>
      <trkpt lat="43.61325" lon="3.29761">
        <ele>399.7</ele>
        <time>2024-03-21T15:14:04Z</time>
      </trkpt>
      <trkpt lat="43.61315" lon="3.29751">
        <ele>399.3</ele>
        <time>2024-03-21T15:14:07Z</time>
      </trkpt>
      <trkpt lat="43.61311" lon="3.29749">
        <ele>399.2</ele>
        <time>2024-03-21T15:14:08Z</time>
      </trkpt>
      <trkpt lat="43.61307" lon="3.29746">
        <ele>398.9</ele>
        <time>2024-03-21T15:14:09Z</time>
      </trkpt>
      <trkpt lat="43.61303" lon="3.29744">
        <ele>398.6</ele>
        <time>2024-03-21T15:14:10Z</time>
      </trkpt>
      <trkpt lat="43.61293" lon="3.2974">
        <ele>397.9</ele>
        <time>2024-03-21T15:14:12Z</time>
      </trkpt>
      <trkpt lat="43.61289" lon="3.29738">
        <ele>397.6</ele>
        <time>2024-03-21T15:14:13Z</time>
      </trkpt>
      <trkpt lat="43.61284" lon="3.29737">
        <ele>397.3</ele>
        <time>2024-03-21T15:14:14Z</time>
      </trkpt>
      <trkpt lat="43.6128" lon="3.29735">
        <ele>397.1</ele>
        <time>2024-03-21T15:14:15Z</time>
      </trkpt>
      <trkpt lat="43.61265" lon="3.29729">
        <ele>396.4</ele>
        <time>2024-03-21T15:14:18Z</time>
      </trkpt>
      <trkpt lat="43.61261" lon="3.29728">
        <ele>396.3</ele>
        <time>2024-03-21T15:14:19Z</time>
      </trkpt>
      <trkpt lat="43.61256" lon="3.29727">
        <ele>396.1</ele>
        <time>2024-03-21T15:14:20Z</time>
      </trkpt>
      <trkpt lat="43.61252" lon="3.29726">
        <ele>395.9</ele>
        <time>2024-03-21T15:14:21Z</time>
      </trkpt>
      <trkpt lat="43.61246" lon="3.29724">
        <ele>395.5</ele>
        <time>2024-03-21T15:14:23Z</time>
      </trkpt>
      <trkpt lat="43.61242" lon="3.29724">
        <ele>395.1</ele>
        <time>2024-03-21T15:14:25Z</time>
      </trkpt>
      <trkpt lat="43.61241" lon="3.29726">
        <ele>394.9</ele>
        <time>2024-03-21T15:14:26Z</time>
      </trkpt>
      <trkpt lat="43.61239" lon="3.29729">
        <ele>394.7</ele>
        <time>2024-03-21T15:14:27Z</time>
      </trkpt>
      <trkpt lat="43.61239" lon="3.29734">
        <ele>394.6</ele>
        <time>2024-03-21T15:14:28Z</time>
      </trkpt>
      <trkpt lat="43.61238" lon="3.2974">
        <ele>394.3</ele>
        <time>2024-03-21T15:14:29Z</time>
      </trkpt>
      <trkpt lat="43.61239" lon="3.29746">
        <ele>394.3</ele>
        <time>2024-03-21T15:14:30Z</time>
      </trkpt>
      <trkpt lat="43.61239" lon="3.29751">
        <ele>394.2</ele>
        <time>2024-03-21T15:14:31Z</time>
      </trkpt>
      <trkpt lat="43.6124" lon="3.29757">
        <ele>394.3</ele>
        <time>2024-03-21T15:14:32Z</time>
      </trkpt>
      <trkpt lat="43.61241" lon="3.29762">
        <ele>394.4</ele>
        <time>2024-03-21T15:14:33Z</time>
      </trkpt>
      <trkpt lat="43.61242" lon="3.29768">
        <ele>394.4</ele>
        <time>2024-03-21T15:14:34Z</time>
      </trkpt>
      <trkpt lat="43.61242" lon="3.29772">
        <ele>394.4</ele>
        <time>2024-03-21T15:14:35Z</time>
      </trkpt>
      <trkpt lat="43.61244" lon="3.2978">
        <ele>394.6</ele>
        <time>2024-03-21T15:14:37Z</time>
      </trkpt>
      <trkpt lat="43.61244" lon="3.29784">
        <ele>394.6</ele>
        <time>2024-03-21T15:14:38Z</time>
      </trkpt>
      <trkpt lat="43.61245" lon="3.29788">
        <ele>394.7</ele>
        <time>2024-03-21T15:14:39Z</time>
      </trkpt>
      <trkpt lat="43.61246" lon="3.29791">
        <ele>394.8</ele>
        <time>2024-03-21T15:14:40Z</time>
      </trkpt>
      <trkpt lat="43.61246" lon="3.29797">
        <ele>394.8</ele>
        <time>2024-03-21T15:14:42Z</time>
      </trkpt>
      <trkpt lat="43.61247" lon="3.298">
        <ele>394.9</ele>
        <time>2024-03-21T15:14:43Z</time>
      </trkpt>
      <trkpt lat="43.61247" lon="3.29805">
        <ele>394.9</ele>
        <time>2024-03-21T15:14:45Z</time>
      </trkpt>
      <trkpt lat="43.61248" lon="3.29807">
        <ele>394.9</ele>
        <time>2024-03-21T15:14:46Z</time>
      </trkpt>
      <trkpt lat="43.61248" lon="3.2981">
        <ele>394.8</ele>
        <time>2024-03-21T15:15:02Z</time>
      </trkpt>
      <trkpt lat="43.61248" lon="3.29809">
        <ele>394.8</ele>
        <time>2024-03-21T15:15:10Z</time>
      </trkpt>
      <trkpt lat="43.61248" lon="3.2981">
        <ele>394.8</ele>
        <time>2024-03-21T15:15:13Z</time>
      </trkpt>
      <trkpt lat="43.6125" lon="3.29816">
        <ele>394.6</ele>
        <time>2024-03-21T15:15:15Z</time>
      </trkpt>
      <trkpt lat="43.6125" lon="3.2982">
        <ele>394.5</ele>
        <time>2024-03-21T15:15:16Z</time>
      </trkpt>
      <trkpt lat="43.61251" lon="3.29823">
        <ele>394.5</ele>
        <time>2024-03-21T15:15:17Z</time>
      </trkpt>
      <trkpt lat="43.61252" lon="3.29825">
        <ele>394.5</ele>
        <time>2024-03-21T15:15:18Z</time>
      </trkpt>
      <trkpt lat="43.61253" lon="3.29828">
        <ele>394.5</ele>
        <time>2024-03-21T15:15:19Z</time>
      </trkpt>
      <trkpt lat="43.61253" lon="3.2983">
        <ele>394.4</ele>
        <time>2024-03-21T15:15:20Z</time>
      </trkpt>
      <trkpt lat="43.61254" lon="3.29833">
        <ele>394.4</ele>
        <time>2024-03-21T15:15:21Z</time>
      </trkpt>
      <trkpt lat="43.61254" lon="3.29836">
        <ele>394.3</ele>
        <time>2024-03-21T15:15:22Z</time>
      </trkpt>
      <trkpt lat="43.61255" lon="3.2984">
        <ele>394.3</ele>
        <time>2024-03-21T15:15:23Z</time>
      </trkpt>
      <trkpt lat="43.61256" lon="3.29843">
        <ele>394.3</ele>
        <time>2024-03-21T15:15:24Z</time>
      </trkpt>
      <trkpt lat="43.61257" lon="3.29848">
        <ele>394.2</ele>
        <time>2024-03-21T15:15:25Z</time>
      </trkpt>
      <trkpt lat="43.61258" lon="3.29852">
        <ele>394.2</ele>
        <time>2024-03-21T15:15:26Z</time>
      </trkpt>
      <trkpt lat="43.61259" lon="3.29855">
        <ele>394.2</ele>
        <time>2024-03-21T15:15:27Z</time>
      </trkpt>
      <trkpt lat="43.61259" lon="3.29858">
        <ele>394.1</ele>
        <time>2024-03-21T15:15:28Z</time>
      </trkpt>
      <trkpt lat="43.6126" lon="3.29861">
        <ele>394.1</ele>
        <time>2024-03-21T15:15:29Z</time>
      </trkpt>
      <trkpt lat="43.6126" lon="3.29864">
        <ele>394</ele>
        <time>2024-03-21T15:15:30Z</time>
      </trkpt>
      <trkpt lat="43.61261" lon="3.29866">
        <ele>394</ele>
        <time>2024-03-21T15:15:31Z</time>
      </trkpt>
      <trkpt lat="43.61261" lon="3.29869">
        <ele>393.9</ele>
        <time>2024-03-21T15:15:32Z</time>
      </trkpt>
      <trkpt lat="43.61262" lon="3.29873">
        <ele>393.9</ele>
        <time>2024-03-21T15:15:33Z</time>
      </trkpt>
      <trkpt lat="43.61262" lon="3.29877">
        <ele>393.7</ele>
        <time>2024-03-21T15:15:34Z</time>
      </trkpt>
      <trkpt lat="43.61263" lon="3.2988">
        <ele>393.7</ele>
        <time>2024-03-21T15:15:35Z</time>
      </trkpt>
      <trkpt lat="43.61264" lon="3.29884">
        <ele>393.7</ele>
        <time>2024-03-21T15:15:36Z</time>
      </trkpt>
      <trkpt lat="43.61267" lon="3.29893">
        <ele>393.6</ele>
        <time>2024-03-21T15:15:39Z</time>
      </trkpt>
      <trkpt lat="43.61267" lon="3.29896">
        <ele>393.4</ele>
        <time>2024-03-21T15:15:41Z</time>
      </trkpt>
      <trkpt lat="43.61269" lon="3.299">
        <ele>393.4</ele>
        <time>2024-03-21T15:15:43Z</time>
      </trkpt>
      <trkpt lat="43.61269" lon="3.29905">
        <ele>393.1</ele>
        <time>2024-03-21T15:15:45Z</time>
      </trkpt>
      <trkpt lat="43.6127" lon="3.29907">
        <ele>393</ele>
        <time>2024-03-21T15:15:46Z</time>
      </trkpt>
      <trkpt lat="43.6127" lon="3.29909">
        <ele>392.9</ele>
        <time>2024-03-21T15:15:47Z</time>
      </trkpt>
      <trkpt lat="43.61271" lon="3.29911">
        <ele>392.9</ele>
        <time>2024-03-21T15:15:51Z</time>
      </trkpt>
      <trkpt lat="43.61271" lon="3.29915">
        <ele>392.6</ele>
        <time>2024-03-21T15:15:55Z</time>
      </trkpt>
      <trkpt lat="43.61272" lon="3.29916">
        <ele>392.6</ele>
        <time>2024-03-21T15:15:57Z</time>
      </trkpt>
      <trkpt lat="43.61272" lon="3.29928">
        <ele>392.2</ele>
        <time>2024-03-21T15:16:07Z</time>
      </trkpt>
      <trkpt lat="43.61273" lon="3.29931">
        <ele>392.1</ele>
        <time>2024-03-21T15:16:08Z</time>
      </trkpt>
      <trkpt lat="43.61274" lon="3.29935">
        <ele>392.1</ele>
        <time>2024-03-21T15:16:09Z</time>
      </trkpt>
      <trkpt lat="43.61275" lon="3.2994">
        <ele>392</ele>
        <time>2024-03-21T15:16:10Z</time>
      </trkpt>
      <trkpt lat="43.61277" lon="3.29945">
        <ele>391.9</ele>
        <time>2024-03-21T15:16:11Z</time>
      </trkpt>
      <trkpt lat="43.61278" lon="3.29951">
        <ele>391.5</ele>
        <time>2024-03-21T15:16:12Z</time>
      </trkpt>
      <trkpt lat="43.61279" lon="3.29956">
        <ele>391.3</ele>
        <time>2024-03-21T15:16:13Z</time>
      </trkpt>
      <trkpt lat="43.6128" lon="3.29962">
        <ele>390.9</ele>
        <time>2024-03-21T15:16:14Z</time>
      </trkpt>
      <trkpt lat="43.61282" lon="3.29968">
        <ele>390.7</ele>
        <time>2024-03-21T15:16:15Z</time>
      </trkpt>
      <trkpt lat="43.61285" lon="3.29974">
        <ele>390.7</ele>
        <time>2024-03-21T15:16:16Z</time>
      </trkpt>
      <trkpt lat="43.61286" lon="3.2998">
        <ele>390.4</ele>
        <time>2024-03-21T15:16:17Z</time>
      </trkpt>
      <trkpt lat="43.61288" lon="3.29985">
        <ele>390.4</ele>
        <time>2024-03-21T15:16:18Z</time>
      </trkpt>
      <trkpt lat="43.61289" lon="3.29991">
        <ele>390.1</ele>
        <time>2024-03-21T15:16:19Z</time>
      </trkpt>
      <trkpt lat="43.61295" lon="3.30009">
        <ele>390.1</ele>
        <time>2024-03-21T15:16:22Z</time>
      </trkpt>
      <trkpt lat="43.61297" lon="3.30016">
        <ele>390</ele>
        <time>2024-03-21T15:16:23Z</time>
      </trkpt>
      <trkpt lat="43.61299" lon="3.30021">
        <ele>389.9</ele>
        <time>2024-03-21T15:16:24Z</time>
      </trkpt>
      <trkpt lat="43.61301" lon="3.30027">
        <ele>389.7</ele>
        <time>2024-03-21T15:16:25Z</time>
      </trkpt>
      <trkpt lat="43.61302" lon="3.30034">
        <ele>389.5</ele>
        <time>2024-03-21T15:16:26Z</time>
      </trkpt>
      <trkpt lat="43.61302" lon="3.30055">
        <ele>388.8</ele>
        <time>2024-03-21T15:16:29Z</time>
      </trkpt>
      <trkpt lat="43.61303" lon="3.30062">
        <ele>388.8</ele>
        <time>2024-03-21T15:16:30Z</time>
      </trkpt>
      <trkpt lat="43.61303" lon="3.3009">
        <ele>388.9</ele>
        <time>2024-03-21T15:16:34Z</time>
      </trkpt>
      <trkpt lat="43.61302" lon="3.30096">
        <ele>388.9</ele>
        <time>2024-03-21T15:16:35Z</time>
      </trkpt>
      <trkpt lat="43.61302" lon="3.30102">
        <ele>388.9</ele>
        <time>2024-03-21T15:16:36Z</time>
      </trkpt>
      <trkpt lat="43.613" lon="3.30114">
        <ele>388.9</ele>
        <time>2024-03-21T15:16:38Z</time>
      </trkpt>
      <trkpt lat="43.61299" lon="3.30119">
        <ele>389</ele>
        <time>2024-03-21T15:16:39Z</time>
      </trkpt>
      <trkpt lat="43.61297" lon="3.30125">
        <ele>389</ele>
        <time>2024-03-21T15:16:40Z</time>
      </trkpt>
      <trkpt lat="43.61296" lon="3.3013">
        <ele>389.1</ele>
        <time>2024-03-21T15:16:41Z</time>
      </trkpt>
      <trkpt lat="43.61294" lon="3.30134">
        <ele>389.1</ele>
        <time>2024-03-21T15:16:42Z</time>
      </trkpt>
      <trkpt lat="43.61294" lon="3.30137">
        <ele>389.1</ele>
        <time>2024-03-21T15:16:44Z</time>
      </trkpt>
      <trkpt lat="43.61294" lon="3.30136">
        <ele>389.1</ele>
        <time>2024-03-21T15:17:00Z</time>
      </trkpt>
      <trkpt lat="43.61294" lon="3.30137">
        <ele>389.1</ele>
        <time>2024-03-21T15:17:04Z</time>
      </trkpt>
      <trkpt lat="43.61296" lon="3.30139">
        <ele>389.3</ele>
        <time>2024-03-21T15:17:06Z</time>
      </trkpt>
      <trkpt lat="43.61296" lon="3.3014">
        <ele>389.4</ele>
        <time>2024-03-21T15:17:08Z</time>
      </trkpt>
      <trkpt lat="43.61297" lon="3.30142">
        <ele>389.5</ele>
        <time>2024-03-21T15:17:10Z</time>
      </trkpt>
      <trkpt lat="43.61298" lon="3.30142">
        <ele>389.6</ele>
        <time>2024-03-21T15:17:14Z</time>
      </trkpt>
      <trkpt lat="43.61299" lon="3.30144">
        <ele>389.7</ele>
        <time>2024-03-21T15:17:16Z</time>
      </trkpt>
      <trkpt lat="43.61301" lon="3.30144">
        <ele>389.9</ele>
        <time>2024-03-21T15:18:52Z</time>
      </trkpt>
      <trkpt lat="43.61302" lon="3.30145">
        <ele>390</ele>
        <time>2024-03-21T15:18:58Z</time>
      </trkpt>
      <trkpt lat="43.61304" lon="3.30146">
        <ele>390.1</ele>
        <time>2024-03-21T15:18:59Z</time>
      </trkpt>
      <trkpt lat="43.61306" lon="3.30148">
        <ele>390.3</ele>
        <time>2024-03-21T15:19:00Z</time>
      </trkpt>
      <trkpt lat="43.61309" lon="3.30149">
        <ele>390.5</ele>
        <time>2024-03-21T15:19:01Z</time>
      </trkpt>
      <trkpt lat="43.61312" lon="3.30151">
        <ele>390.7</ele>
        <time>2024-03-21T15:19:02Z</time>
      </trkpt>
      <trkpt lat="43.61315" lon="3.30152">
        <ele>390.8</ele>
        <time>2024-03-21T15:19:03Z</time>
      </trkpt>
      <trkpt lat="43.61317" lon="3.30153">
        <ele>390.9</ele>
        <time>2024-03-21T15:19:04Z</time>
      </trkpt>
      <trkpt lat="43.61323" lon="3.30155">
        <ele>391.2</ele>
        <time>2024-03-21T15:19:06Z</time>
      </trkpt>
      <trkpt lat="43.61325" lon="3.30156">
        <ele>391.3</ele>
        <time>2024-03-21T15:19:07Z</time>
      </trkpt>
      <trkpt lat="43.61328" lon="3.30158">
        <ele>391.5</ele>
        <time>2024-03-21T15:19:08Z</time>
      </trkpt>
      <trkpt lat="43.61331" lon="3.30159">
        <ele>391.6</ele>
        <time>2024-03-21T15:19:09Z</time>
      </trkpt>
      <trkpt lat="43.61334" lon="3.30161">
        <ele>391.8</ele>
        <time>2024-03-21T15:19:10Z</time>
      </trkpt>
      <trkpt lat="43.61343" lon="3.30164">
        <ele>392.3</ele>
        <time>2024-03-21T15:19:13Z</time>
      </trkpt>
      <trkpt lat="43.61346" lon="3.30166">
        <ele>392.4</ele>
        <time>2024-03-21T15:19:14Z</time>
      </trkpt>
      <trkpt lat="43.61349" lon="3.30167">
        <ele>392.6</ele>
        <time>2024-03-21T15:19:15Z</time>
      </trkpt>
      <trkpt lat="43.61351" lon="3.30168">
        <ele>392.7</ele>
        <time>2024-03-21T15:19:16Z</time>
      </trkpt>
      <trkpt lat="43.61354" lon="3.30169">
        <ele>392.8</ele>
        <time>2024-03-21T15:19:17Z</time>
      </trkpt>
      <trkpt lat="43.61357" lon="3.30171">
        <ele>393</ele>
        <time>2024-03-21T15:19:18Z</time>
      </trkpt>
      <trkpt lat="43.61361" lon="3.30173">
        <ele>393.2</ele>
        <time>2024-03-21T15:19:19Z</time>
      </trkpt>
      <trkpt lat="43.61364" lon="3.30176">
        <ele>393.4</ele>
        <time>2024-03-21T15:19:20Z</time>
      </trkpt>
      <trkpt lat="43.61368" lon="3.30184">
        <ele>393.9</ele>
        <time>2024-03-21T15:19:22Z</time>
      </trkpt>
      <trkpt lat="43.61368" lon="3.30192">
        <ele>394.2</ele>
        <time>2024-03-21T15:19:24Z</time>
      </trkpt>
      <trkpt lat="43.61367" lon="3.30196">
        <ele>394.3</ele>
        <time>2024-03-21T15:19:25Z</time>
      </trkpt>
      <trkpt lat="43.61367" lon="3.302">
        <ele>394.4</ele>
        <time>2024-03-21T15:19:26Z</time>
      </trkpt>
      <trkpt lat="43.61365" lon="3.3021">
        <ele>394.7</ele>
        <time>2024-03-21T15:19:28Z</time>
      </trkpt>
      <trkpt lat="43.61365" lon="3.30215">
        <ele>394.9</ele>
        <time>2024-03-21T15:19:29Z</time>
      </trkpt>
      <trkpt lat="43.61366" lon="3.30219">
        <ele>395.1</ele>
        <time>2024-03-21T15:19:30Z</time>
      </trkpt>
      <trkpt lat="43.61368" lon="3.30223">
        <ele>395.3</ele>
        <time>2024-03-21T15:19:31Z</time>
      </trkpt>
      <trkpt lat="43.6137" lon="3.30226">
        <ele>395.5</ele>
        <time>2024-03-21T15:19:32Z</time>
      </trkpt>
      <trkpt lat="43.61374" lon="3.30228">
        <ele>395.8</ele>
        <time>2024-03-21T15:19:33Z</time>
      </trkpt>
      <trkpt lat="43.6138" lon="3.3023">
        <ele>396</ele>
        <time>2024-03-21T15:19:35Z</time>
      </trkpt>
      <trkpt lat="43.61384" lon="3.30231">
        <ele>396.2</ele>
        <time>2024-03-21T15:19:36Z</time>
      </trkpt>
      <trkpt lat="43.61387" lon="3.30231">
        <ele>396.3</ele>
        <time>2024-03-21T15:19:37Z</time>
      </trkpt>
      <trkpt lat="43.6139" lon="3.30232">
        <ele>396.3</ele>
        <time>2024-03-21T15:19:38Z</time>
      </trkpt>
      <trkpt lat="43.61394" lon="3.30233">
        <ele>396.2</ele>
        <time>2024-03-21T15:19:39Z</time>
      </trkpt>
      <trkpt lat="43.61397" lon="3.30234">
        <ele>396.1</ele>
        <time>2024-03-21T15:19:40Z</time>
      </trkpt>
      <trkpt lat="43.61403" lon="3.30238">
        <ele>396.1</ele>
        <time>2024-03-21T15:19:42Z</time>
      </trkpt>
      <trkpt lat="43.61405" lon="3.30241">
        <ele>396.1</ele>
        <time>2024-03-21T15:19:43Z</time>
      </trkpt>
      <trkpt lat="43.6141" lon="3.30246">
        <ele>396.1</ele>
        <time>2024-03-21T15:19:45Z</time>
      </trkpt>
      <trkpt lat="43.61413" lon="3.30248">
        <ele>396.1</ele>
        <time>2024-03-21T15:19:46Z</time>
      </trkpt>
      <trkpt lat="43.61415" lon="3.3025">
        <ele>396.1</ele>
        <time>2024-03-21T15:19:47Z</time>
      </trkpt>
      <trkpt lat="43.61416" lon="3.30253">
        <ele>396.1</ele>
        <time>2024-03-21T15:19:48Z</time>
      </trkpt>
      <trkpt lat="43.61417" lon="3.30258">
        <ele>396.2</ele>
        <time>2024-03-21T15:19:49Z</time>
      </trkpt>
      <trkpt lat="43.61418" lon="3.30262">
        <ele>396.2</ele>
        <time>2024-03-21T15:19:50Z</time>
      </trkpt>
      <trkpt lat="43.6142" lon="3.30266">
        <ele>396</ele>
        <time>2024-03-21T15:19:51Z</time>
      </trkpt>
      <trkpt lat="43.61421" lon="3.3027">
        <ele>395.9</ele>
        <time>2024-03-21T15:19:52Z</time>
      </trkpt>
      <trkpt lat="43.61423" lon="3.3028">
        <ele>396</ele>
        <time>2024-03-21T15:19:54Z</time>
      </trkpt>
      <trkpt lat="43.61424" lon="3.30284">
        <ele>396</ele>
        <time>2024-03-21T15:19:55Z</time>
      </trkpt>
      <trkpt lat="43.61426" lon="3.30287">
        <ele>395.9</ele>
        <time>2024-03-21T15:19:56Z</time>
      </trkpt>
      <trkpt lat="43.61428" lon="3.30291">
        <ele>395.8</ele>
        <time>2024-03-21T15:19:57Z</time>
      </trkpt>
      <trkpt lat="43.61428" lon="3.30295">
        <ele>396.1</ele>
        <time>2024-03-21T15:19:58Z</time>
      </trkpt>
      <trkpt lat="43.61429" lon="3.30299">
        <ele>396.2</ele>
        <time>2024-03-21T15:19:59Z</time>
      </trkpt>
      <trkpt lat="43.61428" lon="3.30303">
        <ele>396.6</ele>
        <time>2024-03-21T15:20:00Z</time>
      </trkpt>
      <trkpt lat="43.61428" lon="3.30308">
        <ele>396.9</ele>
        <time>2024-03-21T15:20:01Z</time>
      </trkpt>
      <trkpt lat="43.61429" lon="3.30312">
        <ele>397</ele>
        <time>2024-03-21T15:20:02Z</time>
      </trkpt>
      <trkpt lat="43.61429" lon="3.30317">
        <ele>397.3</ele>
        <time>2024-03-21T15:20:03Z</time>
      </trkpt>
      <trkpt lat="43.61431" lon="3.30327">
        <ele>397.6</ele>
        <time>2024-03-21T15:20:05Z</time>
      </trkpt>
      <trkpt lat="43.61432" lon="3.30331">
        <ele>397.8</ele>
        <time>2024-03-21T15:20:06Z</time>
      </trkpt>
      <trkpt lat="43.61432" lon="3.30339">
        <ele>398.5</ele>
        <time>2024-03-21T15:20:08Z</time>
      </trkpt>
      <trkpt lat="43.61431" lon="3.30343">
        <ele>399</ele>
        <time>2024-03-21T15:20:09Z</time>
      </trkpt>
      <trkpt lat="43.61431" lon="3.30347">
        <ele>399.4</ele>
        <time>2024-03-21T15:20:10Z</time>
      </trkpt>
      <trkpt lat="43.61432" lon="3.30351">
        <ele>399.8</ele>
        <time>2024-03-21T15:20:11Z</time>
      </trkpt>
      <trkpt lat="43.61432" lon="3.30354">
        <ele>400.1</ele>
        <time>2024-03-21T15:20:12Z</time>
      </trkpt>
      <trkpt lat="43.61434" lon="3.30362">
        <ele>400.8</ele>
        <time>2024-03-21T15:20:14Z</time>
      </trkpt>
      <trkpt lat="43.61431" lon="3.30374">
        <ele>402.1</ele>
        <time>2024-03-21T15:20:17Z</time>
      </trkpt>
      <trkpt lat="43.61431" lon="3.30383">
        <ele>403</ele>
        <time>2024-03-21T15:20:19Z</time>
      </trkpt>
      <trkpt lat="43.6143" lon="3.30387">
        <ele>403.4</ele>
        <time>2024-03-21T15:20:20Z</time>
      </trkpt>
      <trkpt lat="43.61432" lon="3.30397">
        <ele>403.4</ele>
        <time>2024-03-21T15:20:22Z</time>
      </trkpt>
      <trkpt lat="43.61434" lon="3.30401">
        <ele>403.4</ele>
        <time>2024-03-21T15:20:23Z</time>
      </trkpt>
      <trkpt lat="43.61435" lon="3.30405">
        <ele>403.3</ele>
        <time>2024-03-21T15:20:24Z</time>
      </trkpt>
      <trkpt lat="43.61436" lon="3.30411">
        <ele>403.3</ele>
        <time>2024-03-21T15:20:25Z</time>
      </trkpt>
      <trkpt lat="43.61437" lon="3.30415">
        <ele>403.3</ele>
        <time>2024-03-21T15:20:26Z</time>
      </trkpt>
      <trkpt lat="43.61437" lon="3.3042">
        <ele>403.3</ele>
        <time>2024-03-21T15:20:27Z</time>
      </trkpt>
      <trkpt lat="43.61436" lon="3.30425">
        <ele>403.5</ele>
        <time>2024-03-21T15:20:28Z</time>
      </trkpt>
      <trkpt lat="43.61434" lon="3.30433">
        <ele>403.8</ele>
        <time>2024-03-21T15:20:30Z</time>
      </trkpt>
      <trkpt lat="43.61432" lon="3.30437">
        <ele>404.1</ele>
        <time>2024-03-21T15:20:31Z</time>
      </trkpt>
      <trkpt lat="43.61431" lon="3.30441">
        <ele>404.3</ele>
        <time>2024-03-21T15:20:32Z</time>
      </trkpt>
      <trkpt lat="43.6143" lon="3.30444">
        <ele>404.5</ele>
        <time>2024-03-21T15:20:33Z</time>
      </trkpt>
      <trkpt lat="43.61431" lon="3.30447">
        <ele>404.6</ele>
        <time>2024-03-21T15:20:34Z</time>
      </trkpt>
      <trkpt lat="43.61433" lon="3.30451">
        <ele>404.5</ele>
        <time>2024-03-21T15:20:36Z</time>
      </trkpt>
      <trkpt lat="43.61433" lon="3.30452">
        <ele>404.6</ele>
        <time>2024-03-21T15:20:37Z</time>
      </trkpt>
      <trkpt lat="43.61434" lon="3.30454">
        <ele>404.5</ele>
        <time>2024-03-21T15:20:38Z</time>
      </trkpt>
      <trkpt lat="43.61434" lon="3.30467">
        <ele>405</ele>
        <time>2024-03-21T15:20:43Z</time>
      </trkpt>
      <trkpt lat="43.61436" lon="3.30471">
        <ele>404.8</ele>
        <time>2024-03-21T15:20:45Z</time>
      </trkpt>
      <trkpt lat="43.61436" lon="3.30474">
        <ele>404.8</ele>
        <time>2024-03-21T15:20:46Z</time>
      </trkpt>
      <trkpt lat="43.61435" lon="3.30477">
        <ele>404.9</ele>
        <time>2024-03-21T15:20:47Z</time>
      </trkpt>
      <trkpt lat="43.61435" lon="3.30481">
        <ele>404.7</ele>
        <time>2024-03-21T15:20:48Z</time>
      </trkpt>
      <trkpt lat="43.61434" lon="3.30483">
        <ele>404.9</ele>
        <time>2024-03-21T15:20:49Z</time>
      </trkpt>
      <trkpt lat="43.61434" lon="3.30491">
        <ele>404.7</ele>
        <time>2024-03-21T15:20:51Z</time>
      </trkpt>
      <trkpt lat="43.61435" lon="3.30495">
        <ele>404.2</ele>
        <time>2024-03-21T15:20:52Z</time>
      </trkpt>
      <trkpt lat="43.61435" lon="3.305">
        <ele>404.1</ele>
        <time>2024-03-21T15:20:53Z</time>
      </trkpt>
      <trkpt lat="43.61437" lon="3.3051">
        <ele>402.6</ele>
        <time>2024-03-21T15:20:55Z</time>
      </trkpt>
      <trkpt lat="43.61438" lon="3.30514">
        <ele>402</ele>
        <time>2024-03-21T15:20:56Z</time>
      </trkpt>
      <trkpt lat="43.61438" lon="3.30532">
        <ele>400.2</ele>
        <time>2024-03-21T15:21:00Z</time>
      </trkpt>
      <trkpt lat="43.61437" lon="3.30536">
        <ele>400</ele>
        <time>2024-03-21T15:21:01Z</time>
      </trkpt>
      <trkpt lat="43.61437" lon="3.30546">
        <ele>398.5</ele>
        <time>2024-03-21T15:21:03Z</time>
      </trkpt>
      <trkpt lat="43.61438" lon="3.3055">
        <ele>397.7</ele>
        <time>2024-03-21T15:21:04Z</time>
      </trkpt>
      <trkpt lat="43.61438" lon="3.30559">
        <ele>396.1</ele>
        <time>2024-03-21T15:21:06Z</time>
      </trkpt>
      <trkpt lat="43.61437" lon="3.30562">
        <ele>395.6</ele>
        <time>2024-03-21T15:21:07Z</time>
      </trkpt>
      <trkpt lat="43.61435" lon="3.30566">
        <ele>395.2</ele>
        <time>2024-03-21T15:21:08Z</time>
      </trkpt>
      <trkpt lat="43.61434" lon="3.3057">
        <ele>394.5</ele>
        <time>2024-03-21T15:21:09Z</time>
      </trkpt>
      <trkpt lat="43.61433" lon="3.30573">
        <ele>394</ele>
        <time>2024-03-21T15:21:10Z</time>
      </trkpt>
      <trkpt lat="43.61433" lon="3.30583">
        <ele>391.6</ele>
        <time>2024-03-21T15:21:12Z</time>
      </trkpt>
      <trkpt lat="43.61434" lon="3.30588">
        <ele>390</ele>
        <time>2024-03-21T15:21:13Z</time>
      </trkpt>
      <trkpt lat="43.61435" lon="3.30592">
        <ele>388.6</ele>
        <time>2024-03-21T15:21:14Z</time>
      </trkpt>
      <trkpt lat="43.61435" lon="3.30597">
        <ele>387.3</ele>
        <time>2024-03-21T15:21:15Z</time>
      </trkpt>
      <trkpt lat="43.61436" lon="3.30601">
        <ele>386</ele>
        <time>2024-03-21T15:21:16Z</time>
      </trkpt>
      <trkpt lat="43.61438" lon="3.30605">
        <ele>384.6</ele>
        <time>2024-03-21T15:21:17Z</time>
      </trkpt>
      <trkpt lat="43.61441" lon="3.30609">
        <ele>383</ele>
        <time>2024-03-21T15:21:18Z</time>
      </trkpt>
      <trkpt lat="43.61444" lon="3.30612">
        <ele>381.8</ele>
        <time>2024-03-21T15:21:19Z</time>
      </trkpt>
      <trkpt lat="43.61446" lon="3.30615">
        <ele>380.6</ele>
        <time>2024-03-21T15:21:20Z</time>
      </trkpt>
      <trkpt lat="43.61449" lon="3.30617">
        <ele>379.4</ele>
        <time>2024-03-21T15:21:21Z</time>
      </trkpt>
      <trkpt lat="43.61451" lon="3.3062">
        <ele>378.3</ele>
        <time>2024-03-21T15:21:22Z</time>
      </trkpt>
      <trkpt lat="43.61453" lon="3.30622">
        <ele>377.3</ele>
        <time>2024-03-21T15:21:23Z</time>
      </trkpt>
      <trkpt lat="43.61455" lon="3.30625">
        <ele>376.2</ele>
        <time>2024-03-21T15:21:24Z</time>
      </trkpt>
      <trkpt lat="43.61458" lon="3.30628">
        <ele>374.9</ele>
        <time>2024-03-21T15:21:25Z</time>
      </trkpt>
      <trkpt lat="43.61459" lon="3.3063">
        <ele>374.3</ele>
        <time>2024-03-21T15:21:26Z</time>
      </trkpt>
      <trkpt lat="43.61463" lon="3.30636">
        <ele>372.2</ele>
        <time>2024-03-21T15:21:28Z</time>
      </trkpt>
      <trkpt lat="43.61466" lon="3.30639">
        <ele>371.1</ele>
        <time>2024-03-21T15:21:30Z</time>
      </trkpt>
      <trkpt lat="43.61466" lon="3.30638">
        <ele>371.3</ele>
        <time>2024-03-21T15:21:31Z</time>
      </trkpt>
      <trkpt lat="43.61466" lon="3.30639">
        <ele>371.1</ele>
        <time>2024-03-21T15:21:35Z</time>
      </trkpt>
      <trkpt lat="43.61467" lon="3.30639">
        <ele>370.9</ele>
        <time>2024-03-21T15:21:36Z</time>
      </trkpt>
      <trkpt lat="43.61469" lon="3.30643">
        <ele>369.7</ele>
        <time>2024-03-21T15:21:37Z</time>
      </trkpt>
      <trkpt lat="43.6147" lon="3.30646">
        <ele>368.8</ele>
        <time>2024-03-21T15:21:38Z</time>
      </trkpt>
      <trkpt lat="43.61472" lon="3.30648">
        <ele>368.1</ele>
        <time>2024-03-21T15:21:39Z</time>
      </trkpt>
      <trkpt lat="43.61475" lon="3.30652">
        <ele>366.7</ele>
        <time>2024-03-21T15:21:40Z</time>
      </trkpt>
      <trkpt lat="43.61479" lon="3.3066">
        <ele>364.6</ele>
        <time>2024-03-21T15:21:42Z</time>
      </trkpt>
      <trkpt lat="43.61485" lon="3.30668">
        <ele>362.8</ele>
        <time>2024-03-21T15:21:44Z</time>
      </trkpt>
      <trkpt lat="43.61487" lon="3.30672">
        <ele>362</ele>
        <time>2024-03-21T15:21:45Z</time>
      </trkpt>
      <trkpt lat="43.61491" lon="3.30684">
        <ele>360</ele>
        <time>2024-03-21T15:21:47Z</time>
      </trkpt>
      <trkpt lat="43.61494" lon="3.30691">
        <ele>359</ele>
        <time>2024-03-21T15:21:48Z</time>
      </trkpt>
      <trkpt lat="43.61495" lon="3.30696">
        <ele>358.3</ele>
        <time>2024-03-21T15:21:49Z</time>
      </trkpt>
      <trkpt lat="43.61496" lon="3.30703">
        <ele>356.8</ele>
        <time>2024-03-21T15:21:50Z</time>
      </trkpt>
      <trkpt lat="43.61497" lon="3.30709">
        <ele>355.5</ele>
        <time>2024-03-21T15:21:51Z</time>
      </trkpt>
      <trkpt lat="43.61501" lon="3.30721">
        <ele>353.4</ele>
        <time>2024-03-21T15:21:53Z</time>
      </trkpt>
      <trkpt lat="43.61506" lon="3.30731">
        <ele>351.2</ele>
        <time>2024-03-21T15:21:55Z</time>
      </trkpt>
      <trkpt lat="43.61509" lon="3.30734">
        <ele>350.8</ele>
        <time>2024-03-21T15:21:56Z</time>
      </trkpt>
      <trkpt lat="43.61511" lon="3.30737">
        <ele>350.2</ele>
        <time>2024-03-21T15:21:57Z</time>
      </trkpt>
      <trkpt lat="43.61512" lon="3.3074">
        <ele>349.5</ele>
        <time>2024-03-21T15:21:58Z</time>
      </trkpt>
      <trkpt lat="43.61514" lon="3.30742">
        <ele>349.3</ele>
        <time>2024-03-21T15:21:59Z</time>
      </trkpt>
      <trkpt lat="43.61515" lon="3.30745">
        <ele>348.7</ele>
        <time>2024-03-21T15:22:00Z</time>
      </trkpt>
      <trkpt lat="43.61516" lon="3.30746">
        <ele>348.6</ele>
        <time>2024-03-21T15:22:01Z</time>
      </trkpt>
      <trkpt lat="43.61517" lon="3.3075">
        <ele>347.7</ele>
        <time>2024-03-21T15:22:02Z</time>
      </trkpt>
      <trkpt lat="43.61519" lon="3.30753">
        <ele>346.8</ele>
        <time>2024-03-21T15:22:03Z</time>
      </trkpt>
      <trkpt lat="43.61521" lon="3.30755">
        <ele>346.4</ele>
        <time>2024-03-21T15:22:04Z</time>
      </trkpt>
      <trkpt lat="43.61523" lon="3.30759">
        <ele>345.1</ele>
        <time>2024-03-21T15:22:05Z</time>
      </trkpt>
      <trkpt lat="43.61526" lon="3.30761">
        <ele>344.9</ele>
        <time>2024-03-21T15:22:06Z</time>
      </trkpt>
      <trkpt lat="43.61529" lon="3.30764">
        <ele>343.8</ele>
        <time>2024-03-21T15:22:07Z</time>
      </trkpt>
      <trkpt lat="43.61533" lon="3.30765">
        <ele>342.9</ele>
        <time>2024-03-21T15:22:08Z</time>
      </trkpt>
      <trkpt lat="43.61539" lon="3.30763">
        <ele>342.9</ele>
        <time>2024-03-21T15:22:10Z</time>
      </trkpt>
      <trkpt lat="43.61543" lon="3.30764">
        <ele>342</ele>
        <time>2024-03-21T15:22:11Z</time>
      </trkpt>
      <trkpt lat="43.6155" lon="3.30764">
        <ele>341.2</ele>
        <time>2024-03-21T15:22:13Z</time>
      </trkpt>
      <trkpt lat="43.61554" lon="3.30765">
        <ele>340.4</ele>
        <time>2024-03-21T15:22:14Z</time>
      </trkpt>
      <trkpt lat="43.61557" lon="3.30765">
        <ele>339.8</ele>
        <time>2024-03-21T15:22:15Z</time>
      </trkpt>
      <trkpt lat="43.61563" lon="3.30763">
        <ele>338.3</ele>
        <time>2024-03-21T15:22:17Z</time>
      </trkpt>
      <trkpt lat="43.61566" lon="3.30763">
        <ele>337.3</ele>
        <time>2024-03-21T15:22:18Z</time>
      </trkpt>
      <trkpt lat="43.61568" lon="3.30765">
        <ele>336.2</ele>
        <time>2024-03-21T15:22:19Z</time>
      </trkpt>
      <trkpt lat="43.61569" lon="3.30767">
        <ele>335.4</ele>
        <time>2024-03-21T15:22:20Z</time>
      </trkpt>
      <trkpt lat="43.61569" lon="3.30771">
        <ele>334.4</ele>
        <time>2024-03-21T15:22:21Z</time>
      </trkpt>
      <trkpt lat="43.61568" lon="3.30774">
        <ele>333.9</ele>
        <time>2024-03-21T15:22:22Z</time>
      </trkpt>
      <trkpt lat="43.61566" lon="3.30778">
        <ele>333.5</ele>
        <time>2024-03-21T15:22:24Z</time>
      </trkpt>
      <trkpt lat="43.61566" lon="3.3078">
        <ele>332.8</ele>
        <time>2024-03-21T15:22:25Z</time>
      </trkpt>
      <trkpt lat="43.61569" lon="3.30783">
        <ele>330.8</ele>
        <time>2024-03-21T15:22:27Z</time>
      </trkpt>
      <trkpt lat="43.61573" lon="3.30783">
        <ele>329.6</ele>
        <time>2024-03-21T15:22:29Z</time>
      </trkpt>
      <trkpt lat="43.61574" lon="3.30782">
        <ele>329.7</ele>
        <time>2024-03-21T15:22:30Z</time>
      </trkpt>
      <trkpt lat="43.61575" lon="3.30782">
        <ele>329.3</ele>
        <time>2024-03-21T15:22:31Z</time>
      </trkpt>
      <trkpt lat="43.61576" lon="3.30781">
        <ele>329.4</ele>
        <time>2024-03-21T15:22:39Z</time>
      </trkpt>
      <trkpt lat="43.61578" lon="3.30781">
        <ele>328.7</ele>
        <time>2024-03-21T15:22:43Z</time>
      </trkpt>
      <trkpt lat="43.61579" lon="3.3078">
        <ele>328.7</ele>
        <time>2024-03-21T15:22:44Z</time>
      </trkpt>
      <trkpt lat="43.61581" lon="3.30779">
        <ele>328.4</ele>
        <time>2024-03-21T15:22:45Z</time>
      </trkpt>
      <trkpt lat="43.61582" lon="3.30781">
        <ele>327.5</ele>
        <time>2024-03-21T15:22:46Z</time>
      </trkpt>
      <trkpt lat="43.61582" lon="3.30787">
        <ele>325.7</ele>
        <time>2024-03-21T15:22:49Z</time>
      </trkpt>
      <trkpt lat="43.61586" lon="3.30789">
        <ele>323.8</ele>
        <time>2024-03-21T15:22:51Z</time>
      </trkpt>
      <trkpt lat="43.61588" lon="3.30789">
        <ele>323.1</ele>
        <time>2024-03-21T15:22:52Z</time>
      </trkpt>
      <trkpt lat="43.6159" lon="3.30792">
        <ele>321.5</ele>
        <time>2024-03-21T15:22:53Z</time>
      </trkpt>
      <trkpt lat="43.61591" lon="3.30795">
        <ele>320.3</ele>
        <time>2024-03-21T15:22:54Z</time>
      </trkpt>
      <trkpt lat="43.61589" lon="3.30801">
        <ele>319.3</ele>
        <time>2024-03-21T15:22:56Z</time>
      </trkpt>
      <trkpt lat="43.61583" lon="3.30809">
        <ele>319.1</ele>
        <time>2024-03-21T15:22:58Z</time>
      </trkpt>
      <trkpt lat="43.61581" lon="3.30813">
        <ele>318.4</ele>
        <time>2024-03-21T15:22:59Z</time>
      </trkpt>
      <trkpt lat="43.61579" lon="3.30815">
        <ele>318.2</ele>
        <time>2024-03-21T15:23:00Z</time>
      </trkpt>
      <trkpt lat="43.61575" lon="3.30821">
        <ele>317.4</ele>
        <time>2024-03-21T15:23:02Z</time>
      </trkpt>
      <trkpt lat="43.61572" lon="3.3083">
        <ele>315.4</ele>
        <time>2024-03-21T15:23:04Z</time>
      </trkpt>
      <trkpt lat="43.61568" lon="3.30838">
        <ele>314</ele>
        <time>2024-03-21T15:23:06Z</time>
      </trkpt>
      <trkpt lat="43.61565" lon="3.30842">
        <ele>313.6</ele>
        <time>2024-03-21T15:23:07Z</time>
      </trkpt>
      <trkpt lat="43.61563" lon="3.30847">
        <ele>312.6</ele>
        <time>2024-03-21T15:23:08Z</time>
      </trkpt>
      <trkpt lat="43.61562" lon="3.30851">
        <ele>311.7</ele>
        <time>2024-03-21T15:23:09Z</time>
      </trkpt>
      <trkpt lat="43.61562" lon="3.30862">
        <ele>308.6</ele>
        <time>2024-03-21T15:23:11Z</time>
      </trkpt>
      <trkpt lat="43.61568" lon="3.30877">
        <ele>303.8</ele>
        <time>2024-03-21T15:23:14Z</time>
      </trkpt>
      <trkpt lat="43.6157" lon="3.30887">
        <ele>300.9</ele>
        <time>2024-03-21T15:23:16Z</time>
      </trkpt>
      <trkpt lat="43.61573" lon="3.30889">
        <ele>299.8</ele>
        <time>2024-03-21T15:23:17Z</time>
      </trkpt>
      <trkpt lat="43.61575" lon="3.30892">
        <ele>298.8</ele>
        <time>2024-03-21T15:23:18Z</time>
      </trkpt>
      <trkpt lat="43.61582" lon="3.30906">
        <ele>294.5</ele>
        <time>2024-03-21T15:23:21Z</time>
      </trkpt>
      <trkpt lat="43.61584" lon="3.30912">
        <ele>292.9</ele>
        <time>2024-03-21T15:23:22Z</time>
      </trkpt>
      <trkpt lat="43.61586" lon="3.30919">
        <ele>291.3</ele>
        <time>2024-03-21T15:23:23Z</time>
      </trkpt>
      <trkpt lat="43.61588" lon="3.30925">
        <ele>290.3</ele>
        <time>2024-03-21T15:23:24Z</time>
      </trkpt>
      <trkpt lat="43.6159" lon="3.30932">
        <ele>289.3</ele>
        <time>2024-03-21T15:23:25Z</time>
      </trkpt>
      <trkpt lat="43.61593" lon="3.30938">
        <ele>288.2</ele>
        <time>2024-03-21T15:23:26Z</time>
      </trkpt>
      <trkpt lat="43.61596" lon="3.30943">
        <ele>287.3</ele>
        <time>2024-03-21T15:23:27Z</time>
      </trkpt>
      <trkpt lat="43.61597" lon="3.30949">
        <ele>286.9</ele>
        <time>2024-03-21T15:23:28Z</time>
      </trkpt>
      <trkpt lat="43.61598" lon="3.30954">
        <ele>286.6</ele>
        <time>2024-03-21T15:23:29Z</time>
      </trkpt>
      <trkpt lat="43.61598" lon="3.30959">
        <ele>286.4</ele>
        <time>2024-03-21T15:23:30Z</time>
      </trkpt>
      <trkpt lat="43.616" lon="3.30969">
        <ele>286.1</ele>
        <time>2024-03-21T15:23:32Z</time>
      </trkpt>
      <trkpt lat="43.61604" lon="3.30981">
        <ele>284.7</ele>
        <time>2024-03-21T15:23:34Z</time>
      </trkpt>
      <trkpt lat="43.61605" lon="3.30986">
        <ele>283.9</ele>
        <time>2024-03-21T15:23:35Z</time>
      </trkpt>
      <trkpt lat="43.61605" lon="3.30993">
        <ele>282.8</ele>
        <time>2024-03-21T15:23:37Z</time>
      </trkpt>
      <trkpt lat="43.61606" lon="3.30998">
        <ele>282.1</ele>
        <time>2024-03-21T15:23:38Z</time>
      </trkpt>
      <trkpt lat="43.61608" lon="3.31003">
        <ele>281.1</ele>
        <time>2024-03-21T15:23:39Z</time>
      </trkpt>
      <trkpt lat="43.61609" lon="3.31006">
        <ele>280.4</ele>
        <time>2024-03-21T15:23:40Z</time>
      </trkpt>
      <trkpt lat="43.6161" lon="3.31011">
        <ele>279.2</ele>
        <time>2024-03-21T15:23:41Z</time>
      </trkpt>
      <trkpt lat="43.6161" lon="3.31014">
        <ele>278.5</ele>
        <time>2024-03-21T15:23:42Z</time>
      </trkpt>
      <trkpt lat="43.61611" lon="3.31016">
        <ele>278</ele>
        <time>2024-03-21T15:23:43Z</time>
      </trkpt>
      <trkpt lat="43.61611" lon="3.31019">
        <ele>277.2</ele>
        <time>2024-03-21T15:23:51Z</time>
      </trkpt>
      <trkpt lat="43.61614" lon="3.31022">
        <ele>276</ele>
        <time>2024-03-21T15:23:53Z</time>
      </trkpt>
      <trkpt lat="43.61615" lon="3.31024">
        <ele>275.4</ele>
        <time>2024-03-21T15:23:54Z</time>
      </trkpt>
      <trkpt lat="43.61615" lon="3.31031">
        <ele>273.5</ele>
        <time>2024-03-21T15:23:57Z</time>
      </trkpt>
      <trkpt lat="43.61616" lon="3.31035">
        <ele>272.2</ele>
        <time>2024-03-21T15:23:58Z</time>
      </trkpt>
      <trkpt lat="43.61617" lon="3.3104">
        <ele>270.6</ele>
        <time>2024-03-21T15:23:59Z</time>
      </trkpt>
      <trkpt lat="43.61618" lon="3.31047">
        <ele>268.5</ele>
        <time>2024-03-21T15:24:00Z</time>
      </trkpt>
      <trkpt lat="43.6162" lon="3.31053">
        <ele>266.5</ele>
        <time>2024-03-21T15:24:01Z</time>
      </trkpt>
      <trkpt lat="43.61621" lon="3.31059">
        <ele>264.9</ele>
        <time>2024-03-21T15:24:02Z</time>
      </trkpt>
      <trkpt lat="43.61624" lon="3.31063">
        <ele>263.8</ele>
        <time>2024-03-21T15:24:03Z</time>
      </trkpt>
      <trkpt lat="43.61626" lon="3.31066">
        <ele>263</ele>
        <time>2024-03-21T15:24:04Z</time>
      </trkpt>
      <trkpt lat="43.61629" lon="3.31071">
        <ele>261.8</ele>
        <time>2024-03-21T15:24:05Z</time>
      </trkpt>
      <trkpt lat="43.6163" lon="3.31078">
        <ele>260.5</ele>
        <time>2024-03-21T15:24:06Z</time>
      </trkpt>
      <trkpt lat="43.61632" lon="3.31085">
        <ele>259</ele>
        <time>2024-03-21T15:24:07Z</time>
      </trkpt>
      <trkpt lat="43.61636" lon="3.31095">
        <ele>255.7</ele>
        <time>2024-03-21T15:24:09Z</time>
      </trkpt>
      <trkpt lat="43.61637" lon="3.31101">
        <ele>253.9</ele>
        <time>2024-03-21T15:24:10Z</time>
      </trkpt>
      <trkpt lat="43.61637" lon="3.31109">
        <ele>251.6</ele>
        <time>2024-03-21T15:24:11Z</time>
      </trkpt>
      <trkpt lat="43.61638" lon="3.31115">
        <ele>250.1</ele>
        <time>2024-03-21T15:24:12Z</time>
      </trkpt>
      <trkpt lat="43.61641" lon="3.31121">
        <ele>248.9</ele>
        <time>2024-03-21T15:24:13Z</time>
      </trkpt>
      <trkpt lat="43.61643" lon="3.31126">
        <ele>247.9</ele>
        <time>2024-03-21T15:24:14Z</time>
      </trkpt>
      <trkpt lat="43.61643" lon="3.3113">
        <ele>247</ele>
        <time>2024-03-21T15:24:15Z</time>
      </trkpt>
      <trkpt lat="43.61645" lon="3.31138">
        <ele>245.4</ele>
        <time>2024-03-21T15:24:17Z</time>
      </trkpt>
      <trkpt lat="43.61648" lon="3.31143">
        <ele>244.5</ele>
        <time>2024-03-21T15:24:18Z</time>
      </trkpt>
      <trkpt lat="43.6165" lon="3.31146">
        <ele>244</ele>
        <time>2024-03-21T15:24:19Z</time>
      </trkpt>
      <trkpt lat="43.61653" lon="3.31148">
        <ele>243.7</ele>
        <time>2024-03-21T15:24:20Z</time>
      </trkpt>
      <trkpt lat="43.61657" lon="3.31148">
        <ele>243.8</ele>
        <time>2024-03-21T15:24:22Z</time>
      </trkpt>
      <trkpt lat="43.61658" lon="3.31149">
        <ele>243.6</ele>
        <time>2024-03-21T15:24:23Z</time>
      </trkpt>
      <trkpt lat="43.6166" lon="3.31155">
        <ele>242.4</ele>
        <time>2024-03-21T15:24:25Z</time>
      </trkpt>
      <trkpt lat="43.61661" lon="3.31159">
        <ele>241.6</ele>
        <time>2024-03-21T15:24:26Z</time>
      </trkpt>
      <trkpt lat="43.61661" lon="3.31162">
        <ele>241</ele>
        <time>2024-03-21T15:24:27Z</time>
      </trkpt>
      <trkpt lat="43.6166" lon="3.31164">
        <ele>240.6</ele>
        <time>2024-03-21T15:24:28Z</time>
      </trkpt>
      <trkpt lat="43.61658" lon="3.31166">
        <ele>240.1</ele>
        <time>2024-03-21T15:24:29Z</time>
      </trkpt>
      <trkpt lat="43.61655" lon="3.31166">
        <ele>240.1</ele>
        <time>2024-03-21T15:24:31Z</time>
      </trkpt>
      <trkpt lat="43.61653" lon="3.31168">
        <ele>239.8</ele>
        <time>2024-03-21T15:24:32Z</time>
      </trkpt>
      <trkpt lat="43.61651" lon="3.31172">
        <ele>239.4</ele>
        <time>2024-03-21T15:24:34Z</time>
      </trkpt>
      <trkpt lat="43.61649" lon="3.31173">
        <ele>239.3</ele>
        <time>2024-03-21T15:24:35Z</time>
      </trkpt>
      <trkpt lat="43.61647" lon="3.31175">
        <ele>239.1</ele>
        <time>2024-03-21T15:24:36Z</time>
      </trkpt>
      <trkpt lat="43.61646" lon="3.31178">
        <ele>238.9</ele>
        <time>2024-03-21T15:24:37Z</time>
      </trkpt>
      <trkpt lat="43.61647" lon="3.31181">
        <ele>238.5</ele>
        <time>2024-03-21T15:24:38Z</time>
      </trkpt>
      <trkpt lat="43.61646" lon="3.31184">
        <ele>238.3</ele>
        <time>2024-03-21T15:24:39Z</time>
      </trkpt>
      <trkpt lat="43.61647" lon="3.31187">
        <ele>237.9</ele>
        <time>2024-03-21T15:24:40Z</time>
      </trkpt>
      <trkpt lat="43.61649" lon="3.31195">
        <ele>236.8</ele>
        <time>2024-03-21T15:24:42Z</time>
      </trkpt>
      <trkpt lat="43.61651" lon="3.31201">
        <ele>235.8</ele>
        <time>2024-03-21T15:24:44Z</time>
      </trkpt>
      <trkpt lat="43.61651" lon="3.31208">
        <ele>234.9</ele>
        <time>2024-03-21T15:24:46Z</time>
      </trkpt>
      <trkpt lat="43.61652" lon="3.31212">
        <ele>234.2</ele>
        <time>2024-03-21T15:24:47Z</time>
      </trkpt>
      <trkpt lat="43.61654" lon="3.31215">
        <ele>233.2</ele>
        <time>2024-03-21T15:24:48Z</time>
      </trkpt>
      <trkpt lat="43.61656" lon="3.31217">
        <ele>232.3</ele>
        <time>2024-03-21T15:24:49Z</time>
      </trkpt>
      <trkpt lat="43.61658" lon="3.3122">
        <ele>231.2</ele>
        <time>2024-03-21T15:24:50Z</time>
      </trkpt>
      <trkpt lat="43.61659" lon="3.31223">
        <ele>230.4</ele>
        <time>2024-03-21T15:24:51Z</time>
      </trkpt>
      <trkpt lat="43.6166" lon="3.31225">
        <ele>230</ele>
        <time>2024-03-21T15:24:52Z</time>
      </trkpt>
      <trkpt lat="43.6166" lon="3.31228">
        <ele>229.9</ele>
        <time>2024-03-21T15:24:53Z</time>
      </trkpt>
      <trkpt lat="43.61661" lon="3.31232">
        <ele>229.3</ele>
        <time>2024-03-21T15:24:54Z</time>
      </trkpt>
      <trkpt lat="43.61662" lon="3.31235">
        <ele>228.9</ele>
        <time>2024-03-21T15:24:55Z</time>
      </trkpt>
      <trkpt lat="43.61663" lon="3.31235">
        <ele>228.6</ele>
        <time>2024-03-21T15:24:56Z</time>
      </trkpt>
      <trkpt lat="43.61663" lon="3.31236">
        <ele>228.6</ele>
        <time>2024-03-21T15:24:58Z</time>
      </trkpt>
      <trkpt lat="43.61664" lon="3.31236">
        <ele>228.3</ele>
        <time>2024-03-21T15:25:00Z</time>
      </trkpt>
      <trkpt lat="43.61664" lon="3.31238">
        <ele>228.2</ele>
        <time>2024-03-21T15:25:08Z</time>
      </trkpt>
      <trkpt lat="43.61666" lon="3.3124">
        <ele>227.5</ele>
        <time>2024-03-21T15:25:14Z</time>
      </trkpt>
      <trkpt lat="43.61667" lon="3.31239">
        <ele>227.3</ele>
        <time>2024-03-21T15:25:16Z</time>
      </trkpt>
      <trkpt lat="43.61669" lon="3.31239">
        <ele>226.8</ele>
        <time>2024-03-21T15:25:20Z</time>
      </trkpt>
      <trkpt lat="43.61669" lon="3.31241">
        <ele>226.7</ele>
        <time>2024-03-21T15:25:22Z</time>
      </trkpt>
      <trkpt lat="43.6167" lon="3.31242">
        <ele>226.4</ele>
        <time>2024-03-21T15:25:23Z</time>
      </trkpt>
      <trkpt lat="43.61671" lon="3.31242">
        <ele>226.2</ele>
        <time>2024-03-21T15:25:24Z</time>
      </trkpt>
      <trkpt lat="43.61671" lon="3.31245">
        <ele>226.1</ele>
        <time>2024-03-21T15:25:32Z</time>
      </trkpt>
      <trkpt lat="43.61672" lon="3.31248">
        <ele>225.7</ele>
        <time>2024-03-21T15:25:36Z</time>
      </trkpt>
      <trkpt lat="43.61678" lon="3.31254">
        <ele>224.3</ele>
        <time>2024-03-21T15:25:39Z</time>
      </trkpt>
      <trkpt lat="43.61679" lon="3.31256">
        <ele>224.1</ele>
        <time>2024-03-21T15:25:40Z</time>
      </trkpt>
      <trkpt lat="43.61681" lon="3.31259">
        <ele>223.7</ele>
        <time>2024-03-21T15:25:41Z</time>
      </trkpt>
      <trkpt lat="43.61683" lon="3.31263">
        <ele>223.4</ele>
        <time>2024-03-21T15:25:42Z</time>
      </trkpt>
      <trkpt lat="43.61684" lon="3.31266">
        <ele>223.4</ele>
        <time>2024-03-21T15:25:43Z</time>
      </trkpt>
      <trkpt lat="43.61686" lon="3.3127">
        <ele>223.1</ele>
        <time>2024-03-21T15:25:44Z</time>
      </trkpt>
      <trkpt lat="43.61685" lon="3.31273">
        <ele>223.5</ele>
        <time>2024-03-21T15:25:45Z</time>
      </trkpt>
      <trkpt lat="43.61685" lon="3.31276">
        <ele>223.6</ele>
        <time>2024-03-21T15:25:46Z</time>
      </trkpt>
      <trkpt lat="43.61686" lon="3.3128">
        <ele>223.5</ele>
        <time>2024-03-21T15:25:47Z</time>
      </trkpt>
      <trkpt lat="43.61686" lon="3.31284">
        <ele>223.5</ele>
        <time>2024-03-21T15:25:48Z</time>
      </trkpt>
      <trkpt lat="43.61687" lon="3.31288">
        <ele>223.3</ele>
        <time>2024-03-21T15:25:49Z</time>
      </trkpt>
      <trkpt lat="43.61689" lon="3.31291">
        <ele>223</ele>
        <time>2024-03-21T15:25:50Z</time>
      </trkpt>
      <trkpt lat="43.61691" lon="3.31296">
        <ele>222.6</ele>
        <time>2024-03-21T15:25:51Z</time>
      </trkpt>
      <trkpt lat="43.61691" lon="3.31301">
        <ele>222.6</ele>
        <time>2024-03-21T15:25:52Z</time>
      </trkpt>
      <trkpt lat="43.61695" lon="3.31317">
        <ele>221.1</ele>
        <time>2024-03-21T15:25:56Z</time>
      </trkpt>
      <trkpt lat="43.61695" lon="3.3132">
        <ele>220.9</ele>
        <time>2024-03-21T15:25:57Z</time>
      </trkpt>
      <trkpt lat="43.61696" lon="3.31323">
        <ele>220.5</ele>
        <time>2024-03-21T15:25:58Z</time>
      </trkpt>
      <trkpt lat="43.61696" lon="3.31327">
        <ele>220.2</ele>
        <time>2024-03-21T15:25:59Z</time>
      </trkpt>
      <trkpt lat="43.61697" lon="3.3133">
        <ele>219.8</ele>
        <time>2024-03-21T15:26:00Z</time>
      </trkpt>
      <trkpt lat="43.61698" lon="3.31332">
        <ele>219.6</ele>
        <time>2024-03-21T15:26:01Z</time>
      </trkpt>
      <trkpt lat="43.61699" lon="3.31335">
        <ele>219.2</ele>
        <time>2024-03-21T15:26:02Z</time>
      </trkpt>
      <trkpt lat="43.617" lon="3.31339">
        <ele>218.8</ele>
        <time>2024-03-21T15:26:03Z</time>
      </trkpt>
      <trkpt lat="43.61699" lon="3.31342">
        <ele>218.7</ele>
        <time>2024-03-21T15:26:04Z</time>
      </trkpt>
      <trkpt lat="43.61699" lon="3.31346">
        <ele>218.4</ele>
        <time>2024-03-21T15:26:05Z</time>
      </trkpt>
      <trkpt lat="43.617" lon="3.3135">
        <ele>218</ele>
        <time>2024-03-21T15:26:06Z</time>
      </trkpt>
      <trkpt lat="43.61702" lon="3.3136">
        <ele>217</ele>
        <time>2024-03-21T15:26:08Z</time>
      </trkpt>
      <trkpt lat="43.61703" lon="3.31364">
        <ele>216.5</ele>
        <time>2024-03-21T15:26:09Z</time>
      </trkpt>
      <trkpt lat="43.61703" lon="3.31367">
        <ele>216.2</ele>
        <time>2024-03-21T15:26:10Z</time>
      </trkpt>
      <trkpt lat="43.61704" lon="3.31369">
        <ele>215.9</ele>
        <time>2024-03-21T15:26:11Z</time>
      </trkpt>
      <trkpt lat="43.61705" lon="3.31372">
        <ele>215.5</ele>
        <time>2024-03-21T15:26:12Z</time>
      </trkpt>
      <trkpt lat="43.61706" lon="3.31374">
        <ele>215.1</ele>
        <time>2024-03-21T15:26:13Z</time>
      </trkpt>
      <trkpt lat="43.61706" lon="3.31387">
        <ele>213.9</ele>
        <time>2024-03-21T15:26:18Z</time>
      </trkpt>
      <trkpt lat="43.61708" lon="3.31393">
        <ele>213.2</ele>
        <time>2024-03-21T15:26:20Z</time>
      </trkpt>
      <trkpt lat="43.61706" lon="3.31401">
        <ele>212.9</ele>
        <time>2024-03-21T15:26:22Z</time>
      </trkpt>
      <trkpt lat="43.61706" lon="3.31405">
        <ele>212.6</ele>
        <time>2024-03-21T15:26:23Z</time>
      </trkpt>
      <trkpt lat="43.61708" lon="3.31408">
        <ele>212.2</ele>
        <time>2024-03-21T15:26:24Z</time>
      </trkpt>
      <trkpt lat="43.61712" lon="3.31416">
        <ele>211.2</ele>
        <time>2024-03-21T15:26:26Z</time>
      </trkpt>
      <trkpt lat="43.61715" lon="3.3142">
        <ele>210.8</ele>
        <time>2024-03-21T15:26:27Z</time>
      </trkpt>
      <trkpt lat="43.61716" lon="3.31424">
        <ele>210.7</ele>
        <time>2024-03-21T15:26:28Z</time>
      </trkpt>
      <trkpt lat="43.61718" lon="3.31428">
        <ele>210.5</ele>
        <time>2024-03-21T15:26:29Z</time>
      </trkpt>
      <trkpt lat="43.61719" lon="3.31432">
        <ele>210.3</ele>
        <time>2024-03-21T15:26:30Z</time>
      </trkpt>
      <trkpt lat="43.61721" lon="3.31435">
        <ele>210.1</ele>
        <time>2024-03-21T15:26:31Z</time>
      </trkpt>
      <trkpt lat="43.61722" lon="3.31439">
        <ele>210</ele>
        <time>2024-03-21T15:26:32Z</time>
      </trkpt>
      <trkpt lat="43.61723" lon="3.31444">
        <ele>209.9</ele>
        <time>2024-03-21T15:26:33Z</time>
      </trkpt>
      <trkpt lat="43.61725" lon="3.31449">
        <ele>209.7</ele>
        <time>2024-03-21T15:26:34Z</time>
      </trkpt>
      <trkpt lat="43.61726" lon="3.31453">
        <ele>209.6</ele>
        <time>2024-03-21T15:26:35Z</time>
      </trkpt>
      <trkpt lat="43.61728" lon="3.31458">
        <ele>209.4</ele>
        <time>2024-03-21T15:26:36Z</time>
      </trkpt>
      <trkpt lat="43.61729" lon="3.31462">
        <ele>209.3</ele>
        <time>2024-03-21T15:26:37Z</time>
      </trkpt>
      <trkpt lat="43.6173" lon="3.31467">
        <ele>209.2</ele>
        <time>2024-03-21T15:26:38Z</time>
      </trkpt>
      <trkpt lat="43.61732" lon="3.31473">
        <ele>208.9</ele>
        <time>2024-03-21T15:26:39Z</time>
      </trkpt>
      <trkpt lat="43.61736" lon="3.31483">
        <ele>208.3</ele>
        <time>2024-03-21T15:26:41Z</time>
      </trkpt>
      <trkpt lat="43.61739" lon="3.31488">
        <ele>208</ele>
        <time>2024-03-21T15:26:42Z</time>
      </trkpt>
      <trkpt lat="43.61741" lon="3.31494">
        <ele>207.7</ele>
        <time>2024-03-21T15:26:43Z</time>
      </trkpt>
      <trkpt lat="43.61742" lon="3.31498">
        <ele>207.6</ele>
        <time>2024-03-21T15:26:44Z</time>
      </trkpt>
      <trkpt lat="43.61743" lon="3.31501">
        <ele>207.5</ele>
        <time>2024-03-21T15:26:45Z</time>
      </trkpt>
      <trkpt lat="43.61746" lon="3.31505">
        <ele>207.3</ele>
        <time>2024-03-21T15:26:46Z</time>
      </trkpt>
      <trkpt lat="43.61747" lon="3.31508">
        <ele>207.2</ele>
        <time>2024-03-21T15:26:47Z</time>
      </trkpt>
      <trkpt lat="43.61757" lon="3.31528">
        <ele>206.5</ele>
        <time>2024-03-21T15:26:52Z</time>
      </trkpt>
      <trkpt lat="43.61758" lon="3.31531">
        <ele>206.3</ele>
        <time>2024-03-21T15:26:53Z</time>
      </trkpt>
      <trkpt lat="43.6176" lon="3.31534">
        <ele>206.1</ele>
        <time>2024-03-21T15:26:54Z</time>
      </trkpt>
      <trkpt lat="43.61766" lon="3.31536">
        <ele>205.7</ele>
        <time>2024-03-21T15:26:56Z</time>
      </trkpt>
      <trkpt lat="43.61769" lon="3.31536">
        <ele>205.5</ele>
        <time>2024-03-21T15:26:57Z</time>
      </trkpt>
      <trkpt lat="43.61772" lon="3.31535">
        <ele>205.4</ele>
        <time>2024-03-21T15:26:58Z</time>
      </trkpt>
      <trkpt lat="43.61783" lon="3.31535">
        <ele>204.8</ele>
        <time>2024-03-21T15:27:02Z</time>
      </trkpt>
      <trkpt lat="43.61786" lon="3.31534">
        <ele>204.7</ele>
        <time>2024-03-21T15:27:03Z</time>
      </trkpt>
      <trkpt lat="43.6179" lon="3.31534">
        <ele>204.6</ele>
        <time>2024-03-21T15:27:04Z</time>
      </trkpt>
      <trkpt lat="43.61793" lon="3.31535">
        <ele>204.5</ele>
        <time>2024-03-21T15:27:05Z</time>
      </trkpt>
      <trkpt lat="43.61797" lon="3.31535">
        <ele>204.3</ele>
        <time>2024-03-21T15:27:06Z</time>
      </trkpt>
      <trkpt lat="43.61801" lon="3.31536">
        <ele>204.2</ele>
        <time>2024-03-21T15:27:07Z</time>
      </trkpt>
      <trkpt lat="43.61807" lon="3.31536">
        <ele>203.9</ele>
        <time>2024-03-21T15:27:08Z</time>
      </trkpt>
      <trkpt lat="43.61811" lon="3.31537">
        <ele>203.6</ele>
        <time>2024-03-21T15:27:09Z</time>
      </trkpt>
      <trkpt lat="43.61816" lon="3.31537">
        <ele>203.2</ele>
        <time>2024-03-21T15:27:11Z</time>
      </trkpt>
      <trkpt lat="43.61819" lon="3.3154">
        <ele>203</ele>
        <time>2024-03-21T15:27:13Z</time>
      </trkpt>
      <trkpt lat="43.6182" lon="3.31542">
        <ele>203</ele>
        <time>2024-03-21T15:27:14Z</time>
      </trkpt>
      <trkpt lat="43.61824" lon="3.31548">
        <ele>202.7</ele>
        <time>2024-03-21T15:27:16Z</time>
      </trkpt>
      <trkpt lat="43.61825" lon="3.31552">
        <ele>202.6</ele>
        <time>2024-03-21T15:27:17Z</time>
      </trkpt>
      <trkpt lat="43.61826" lon="3.31555">
        <ele>202.5</ele>
        <time>2024-03-21T15:27:18Z</time>
      </trkpt>
      <trkpt lat="43.61826" lon="3.3156">
        <ele>202.6</ele>
        <time>2024-03-21T15:27:19Z</time>
      </trkpt>
      <trkpt lat="43.61827" lon="3.31565">
        <ele>202.7</ele>
        <time>2024-03-21T15:27:20Z</time>
      </trkpt>
      <trkpt lat="43.61829" lon="3.3157">
        <ele>202.8</ele>
        <time>2024-03-21T15:27:21Z</time>
      </trkpt>
      <trkpt lat="43.61831" lon="3.31582">
        <ele>203</ele>
        <time>2024-03-21T15:27:23Z</time>
      </trkpt>
      <trkpt lat="43.61833" lon="3.31587">
        <ele>203</ele>
        <time>2024-03-21T15:27:24Z</time>
      </trkpt>
      <trkpt lat="43.61834" lon="3.31593">
        <ele>203</ele>
        <time>2024-03-21T15:27:25Z</time>
      </trkpt>
      <trkpt lat="43.61835" lon="3.31598">
        <ele>202.9</ele>
        <time>2024-03-21T15:27:26Z</time>
      </trkpt>
      <trkpt lat="43.61836" lon="3.31604">
        <ele>202.8</ele>
        <time>2024-03-21T15:27:27Z</time>
      </trkpt>
      <trkpt lat="43.61837" lon="3.31609">
        <ele>202.7</ele>
        <time>2024-03-21T15:27:28Z</time>
      </trkpt>
      <trkpt lat="43.61838" lon="3.31615">
        <ele>202.5</ele>
        <time>2024-03-21T15:27:29Z</time>
      </trkpt>
      <trkpt lat="43.61842" lon="3.31627">
        <ele>201.6</ele>
        <time>2024-03-21T15:27:31Z</time>
      </trkpt>
      <trkpt lat="43.61843" lon="3.31631">
        <ele>201.3</ele>
        <time>2024-03-21T15:27:32Z</time>
      </trkpt>
      <trkpt lat="43.61844" lon="3.31636">
        <ele>201</ele>
        <time>2024-03-21T15:27:33Z</time>
      </trkpt>
      <trkpt lat="43.61847" lon="3.3164">
        <ele>200.6</ele>
        <time>2024-03-21T15:27:34Z</time>
      </trkpt>
      <trkpt lat="43.61849" lon="3.31642">
        <ele>200.6</ele>
        <time>2024-03-21T15:27:35Z</time>
      </trkpt>
      <trkpt lat="43.61851" lon="3.31645">
        <ele>200.7</ele>
        <time>2024-03-21T15:27:36Z</time>
      </trkpt>
      <trkpt lat="43.61852" lon="3.31647">
        <ele>200.8</ele>
        <time>2024-03-21T15:27:38Z</time>
      </trkpt>
      <trkpt lat="43.61853" lon="3.31648">
        <ele>200.8</ele>
        <time>2024-03-21T15:27:54Z</time>
      </trkpt>
      <trkpt lat="43.61852" lon="3.31648">
        <ele>200.9</ele>
        <time>2024-03-21T15:27:57Z</time>
      </trkpt>
      <trkpt lat="43.61854" lon="3.31648">
        <ele>200.7</ele>
        <time>2024-03-21T15:28:01Z</time>
      </trkpt>
      <trkpt lat="43.61854" lon="3.3165">
        <ele>200.9</ele>
        <time>2024-03-21T15:28:09Z</time>
      </trkpt>
      <trkpt lat="43.61855" lon="3.31651">
        <ele>200.9</ele>
        <time>2024-03-21T15:28:12Z</time>
      </trkpt>
      <trkpt lat="43.61856" lon="3.31651">
        <ele>200.8</ele>
        <time>2024-03-21T15:28:14Z</time>
      </trkpt>
      <trkpt lat="43.61855" lon="3.3165">
        <ele>200.8</ele>
        <time>2024-03-21T15:28:30Z</time>
      </trkpt>
      <trkpt lat="43.61855" lon="3.31649">
        <ele>200.7</ele>
        <time>2024-03-21T15:28:33Z</time>
      </trkpt>
      <trkpt lat="43.61856" lon="3.31648">
        <ele>200.5</ele>
        <time>2024-03-21T15:28:35Z</time>
      </trkpt>
      <trkpt lat="43.61856" lon="3.31649">
        <ele>200.6</ele>
        <time>2024-03-21T15:28:36Z</time>
      </trkpt>
      <trkpt lat="43.61857" lon="3.31649">
        <ele>200.5</ele>
        <time>2024-03-21T15:28:37Z</time>
      </trkpt>
      <trkpt lat="43.61857" lon="3.31648">
        <ele>200.4</ele>
        <time>2024-03-21T15:28:38Z</time>
      </trkpt>
      <trkpt lat="43.61857" lon="3.31649">
        <ele>200.5</ele>
        <time>2024-03-21T15:28:54Z</time>
      </trkpt>
      <trkpt lat="43.61858" lon="3.31648">
        <ele>200.3</ele>
        <time>2024-03-21T15:29:06Z</time>
      </trkpt>
      <trkpt lat="43.61857" lon="3.31648">
        <ele>200.4</ele>
        <time>2024-03-21T15:29:14Z</time>
      </trkpt>
      <trkpt lat="43.61859" lon="3.31645">
        <ele>199.9</ele>
        <time>2024-03-21T15:29:16Z</time>
      </trkpt>
      <trkpt lat="43.61862" lon="3.31645">
        <ele>199.7</ele>
        <time>2024-03-21T15:29:17Z</time>
      </trkpt>
      <trkpt lat="43.61864" lon="3.31644">
        <ele>199.8</ele>
        <time>2024-03-21T15:29:18Z</time>
      </trkpt>
      <trkpt lat="43.61867" lon="3.31644">
        <ele>200.1</ele>
        <time>2024-03-21T15:29:19Z</time>
      </trkpt>
      <trkpt lat="43.61869" lon="3.31645">
        <ele>200.4</ele>
        <time>2024-03-21T15:29:20Z</time>
      </trkpt>
      <trkpt lat="43.61871" lon="3.31644">
        <ele>200.6</ele>
        <time>2024-03-21T15:29:21Z</time>
      </trkpt>
      <trkpt lat="43.61872" lon="3.31643">
        <ele>200.6</ele>
        <time>2024-03-21T15:29:22Z</time>
      </trkpt>
      <trkpt lat="43.61875" lon="3.31643">
        <ele>200.9</ele>
        <time>2024-03-21T15:29:24Z</time>
      </trkpt>
      <trkpt lat="43.61877" lon="3.31642">
        <ele>201</ele>
        <time>2024-03-21T15:29:25Z</time>
      </trkpt>
      <trkpt lat="43.61878" lon="3.31642">
        <ele>201.1</ele>
        <time>2024-03-21T15:29:26Z</time>
      </trkpt>
      <trkpt lat="43.61879" lon="3.31643">
        <ele>201.3</ele>
        <time>2024-03-21T15:29:34Z</time>
      </trkpt>
      <trkpt lat="43.61881" lon="3.31644">
        <ele>201.6</ele>
        <time>2024-03-21T15:29:38Z</time>
      </trkpt>
      <trkpt lat="43.61881" lon="3.31645">
        <ele>201.7</ele>
        <time>2024-03-21T15:29:39Z</time>
      </trkpt>
      <trkpt lat="43.61882" lon="3.31645">
        <ele>201.8</ele>
        <time>2024-03-21T15:29:41Z</time>
      </trkpt>
      <trkpt lat="43.61883" lon="3.31644">
        <ele>201.8</ele>
        <time>2024-03-21T15:29:49Z</time>
      </trkpt>
      <trkpt lat="43.61884" lon="3.31644">
        <ele>201.9</ele>
        <time>2024-03-21T15:30:05Z</time>
      </trkpt>
      <trkpt lat="43.61884" lon="3.31645">
        <ele>202</ele>
        <time>2024-03-21T15:30:17Z</time>
      </trkpt>
      <trkpt lat="43.61884" lon="3.31644">
        <ele>201.9</ele>
        <time>2024-03-21T15:30:19Z</time>
      </trkpt>
      <trkpt lat="43.61883" lon="3.31644">
        <ele>201.8</ele>
        <time>2024-03-21T15:30:23Z</time>
      </trkpt>
      <trkpt lat="43.61884" lon="3.31644">
        <ele>201.9</ele>
        <time>2024-03-21T15:30:25Z</time>
      </trkpt>
      <trkpt lat="43.61887" lon="3.31641">
        <ele>202</ele>
        <time>2024-03-21T15:30:28Z</time>
      </trkpt>
      <trkpt lat="43.6189" lon="3.3164">
        <ele>202.1</ele>
        <time>2024-03-21T15:30:29Z</time>
      </trkpt>
      <trkpt lat="43.61892" lon="3.31638">
        <ele>201.9</ele>
        <time>2024-03-21T15:30:30Z</time>
      </trkpt>
      <trkpt lat="43.61895" lon="3.31636">
        <ele>201.8</ele>
        <time>2024-03-21T15:30:31Z</time>
      </trkpt>
      <trkpt lat="43.61897" lon="3.31634">
        <ele>201.6</ele>
        <time>2024-03-21T15:30:32Z</time>
      </trkpt>
      <trkpt lat="43.619" lon="3.31632">
        <ele>201.5</ele>
        <time>2024-03-21T15:30:33Z</time>
      </trkpt>
      <trkpt lat="43.61903" lon="3.31629">
        <ele>201.3</ele>
        <time>2024-03-21T15:30:34Z</time>
      </trkpt>
      <trkpt lat="43.61906" lon="3.31627">
        <ele>201.1</ele>
        <time>2024-03-21T15:30:35Z</time>
      </trkpt>
      <trkpt lat="43.61913" lon="3.3162">
        <ele>200.6</ele>
        <time>2024-03-21T15:30:38Z</time>
      </trkpt>
      <trkpt lat="43.61916" lon="3.31619">
        <ele>200.6</ele>
        <time>2024-03-21T15:30:39Z</time>
      </trkpt>
      <trkpt lat="43.61923" lon="3.31612">
        <ele>200.3</ele>
        <time>2024-03-21T15:30:42Z</time>
      </trkpt>
      <trkpt lat="43.61926" lon="3.3161">
        <ele>200.3</ele>
        <time>2024-03-21T15:30:43Z</time>
      </trkpt>
      <trkpt lat="43.61931" lon="3.31605">
        <ele>200.3</ele>
        <time>2024-03-21T15:30:45Z</time>
      </trkpt>
      <trkpt lat="43.61934" lon="3.31604">
        <ele>200.4</ele>
        <time>2024-03-21T15:30:46Z</time>
      </trkpt>
      <trkpt lat="43.61937" lon="3.31602">
        <ele>200.4</ele>
        <time>2024-03-21T15:30:47Z</time>
      </trkpt>
      <trkpt lat="43.6194" lon="3.31601">
        <ele>200.5</ele>
        <time>2024-03-21T15:30:48Z</time>
      </trkpt>
      <trkpt lat="43.61953" lon="3.31601">
        <ele>200.3</ele>
        <time>2024-03-21T15:30:52Z</time>
      </trkpt>
      <trkpt lat="43.61956" lon="3.31602">
        <ele>200.3</ele>
        <time>2024-03-21T15:30:53Z</time>
      </trkpt>
      <trkpt lat="43.61959" lon="3.31602">
        <ele>200.1</ele>
        <time>2024-03-21T15:30:54Z</time>
      </trkpt>
      <trkpt lat="43.61963" lon="3.31603">
        <ele>200</ele>
        <time>2024-03-21T15:30:55Z</time>
      </trkpt>
      <trkpt lat="43.61966" lon="3.31605">
        <ele>200</ele>
        <time>2024-03-21T15:30:56Z</time>
      </trkpt>
      <trkpt lat="43.61969" lon="3.31606">
        <ele>199.9</ele>
        <time>2024-03-21T15:30:57Z</time>
      </trkpt>
      <trkpt lat="43.61972" lon="3.31608">
        <ele>199.9</ele>
        <time>2024-03-21T15:30:58Z</time>
      </trkpt>
      <trkpt lat="43.61974" lon="3.31611">
        <ele>199.9</ele>
        <time>2024-03-21T15:30:59Z</time>
      </trkpt>
      <trkpt lat="43.61976" lon="3.31616">
        <ele>200</ele>
        <time>2024-03-21T15:31:00Z</time>
      </trkpt>
      <trkpt lat="43.61977" lon="3.3162">
        <ele>200.1</ele>
        <time>2024-03-21T15:31:01Z</time>
      </trkpt>
      <trkpt lat="43.61977" lon="3.31625">
        <ele>200.3</ele>
        <time>2024-03-21T15:31:02Z</time>
      </trkpt>
      <trkpt lat="43.61976" lon="3.31629">
        <ele>200.5</ele>
        <time>2024-03-21T15:31:03Z</time>
      </trkpt>
      <trkpt lat="43.61976" lon="3.31631">
        <ele>200.6</ele>
        <time>2024-03-21T15:31:04Z</time>
      </trkpt>
      <trkpt lat="43.61975" lon="3.31633">
        <ele>200.7</ele>
        <time>2024-03-21T15:31:05Z</time>
      </trkpt>
      <trkpt lat="43.61974" lon="3.31636">
        <ele>200.8</ele>
        <time>2024-03-21T15:31:06Z</time>
      </trkpt>
      <trkpt lat="43.61974" lon="3.31638">
        <ele>200.9</ele>
        <time>2024-03-21T15:31:07Z</time>
      </trkpt>
      <trkpt lat="43.61973" lon="3.31639">
        <ele>201</ele>
        <time>2024-03-21T15:31:08Z</time>
      </trkpt>
      <trkpt lat="43.61973" lon="3.31641">
        <ele>201</ele>
        <time>2024-03-21T15:33:15Z</time>
      </trkpt>
      <trkpt lat="43.61974" lon="3.31642">
        <ele>200.9</ele>
        <time>2024-03-21T15:33:23Z</time>
      </trkpt>
      <trkpt lat="43.61975" lon="3.31642">
        <ele>200.9</ele>
        <time>2024-03-21T15:33:39Z</time>
      </trkpt>
      <trkpt lat="43.61975" lon="3.31641">
        <ele>200.9</ele>
        <time>2024-03-21T15:33:45Z</time>
      </trkpt>
      <trkpt lat="43.61975" lon="3.31645">
        <ele>200.9</ele>
        <time>2024-03-21T15:33:48Z</time>
      </trkpt>
      <trkpt lat="43.61973" lon="3.31653">
        <ele>201</ele>
        <time>2024-03-21T15:33:50Z</time>
      </trkpt>
      <trkpt lat="43.61972" lon="3.31658">
        <ele>201</ele>
        <time>2024-03-21T15:33:51Z</time>
      </trkpt>
      <trkpt lat="43.61968" lon="3.31664">
        <ele>201.3</ele>
        <time>2024-03-21T15:33:53Z</time>
      </trkpt>
      <trkpt lat="43.61967" lon="3.31667">
        <ele>201.4</ele>
        <time>2024-03-21T15:33:54Z</time>
      </trkpt>
      <trkpt lat="43.6197" lon="3.31674">
        <ele>201.4</ele>
        <time>2024-03-21T15:40:15Z</time>
      </trkpt>
      <trkpt lat="43.61972" lon="3.31677">
        <ele>201.4</ele>
        <time>2024-03-21T15:40:16Z</time>
      </trkpt>
      <trkpt lat="43.61972" lon="3.31679">
        <ele>201.5</ele>
        <time>2024-03-21T15:40:17Z</time>
      </trkpt>
      <trkpt lat="43.61971" lon="3.31683">
        <ele>201.7</ele>
        <time>2024-03-21T15:40:18Z</time>
      </trkpt>
      <trkpt lat="43.61971" lon="3.31687">
        <ele>201.8</ele>
        <time>2024-03-21T15:40:19Z</time>
      </trkpt>
      <trkpt lat="43.61968" lon="3.31696">
        <ele>202.1</ele>
        <time>2024-03-21T15:40:22Z</time>
      </trkpt>
      <trkpt lat="43.61967" lon="3.31698">
        <ele>202.1</ele>
        <time>2024-03-21T15:40:23Z</time>
      </trkpt>
      <trkpt lat="43.61965" lon="3.31701">
        <ele>202.1</ele>
        <time>2024-03-21T15:40:24Z</time>
      </trkpt>
      <trkpt lat="43.61963" lon="3.31705">
        <ele>202.2</ele>
        <time>2024-03-21T15:40:26Z</time>
      </trkpt>
      <trkpt lat="43.61961" lon="3.31708">
        <ele>202.3</ele>
        <time>2024-03-21T15:40:27Z</time>
      </trkpt>
      <trkpt lat="43.6196" lon="3.31711">
        <ele>202.4</ele>
        <time>2024-03-21T15:40:28Z</time>
      </trkpt>
      <trkpt lat="43.61959" lon="3.31715">
        <ele>202.4</ele>
        <time>2024-03-21T15:40:29Z</time>
      </trkpt>
      <trkpt lat="43.61958" lon="3.31718">
        <ele>202.5</ele>
        <time>2024-03-21T15:40:30Z</time>
      </trkpt>
      <trkpt lat="43.61958" lon="3.31721">
        <ele>202.5</ele>
        <time>2024-03-21T15:40:31Z</time>
      </trkpt>
      <trkpt lat="43.61957" lon="3.31724">
        <ele>202.6</ele>
        <time>2024-03-21T15:40:32Z</time>
      </trkpt>
      <trkpt lat="43.61957" lon="3.31726">
        <ele>202.5</ele>
        <time>2024-03-21T15:40:33Z</time>
      </trkpt>
      <trkpt lat="43.61959" lon="3.31732">
        <ele>202.1</ele>
        <time>2024-03-21T15:40:35Z</time>
      </trkpt>
      <trkpt lat="43.61959" lon="3.31751">
        <ele>201.4</ele>
        <time>2024-03-21T15:40:40Z</time>
      </trkpt>
      <trkpt lat="43.6196" lon="3.31758">
        <ele>200.9</ele>
        <time>2024-03-21T15:40:41Z</time>
      </trkpt>
      <trkpt lat="43.6196" lon="3.31764">
        <ele>200.5</ele>
        <time>2024-03-21T15:40:42Z</time>
      </trkpt>
      <trkpt lat="43.61961" lon="3.31771">
        <ele>200</ele>
        <time>2024-03-21T15:40:43Z</time>
      </trkpt>
      <trkpt lat="43.61962" lon="3.31779">
        <ele>199.5</ele>
        <time>2024-03-21T15:40:44Z</time>
      </trkpt>
      <trkpt lat="43.61966" lon="3.31795">
        <ele>198.8</ele>
        <time>2024-03-21T15:40:46Z</time>
      </trkpt>
      <trkpt lat="43.61967" lon="3.31803">
        <ele>198.6</ele>
        <time>2024-03-21T15:40:47Z</time>
      </trkpt>
      <trkpt lat="43.61969" lon="3.31812">
        <ele>198.3</ele>
        <time>2024-03-21T15:40:48Z</time>
      </trkpt>
      <trkpt lat="43.6197" lon="3.3182">
        <ele>198.2</ele>
        <time>2024-03-21T15:40:49Z</time>
      </trkpt>
      <trkpt lat="43.61972" lon="3.31838">
        <ele>198</ele>
        <time>2024-03-21T15:40:51Z</time>
      </trkpt>
      <trkpt lat="43.61974" lon="3.31847">
        <ele>197.9</ele>
        <time>2024-03-21T15:40:52Z</time>
      </trkpt>
      <trkpt lat="43.61975" lon="3.31856">
        <ele>197.9</ele>
        <time>2024-03-21T15:40:53Z</time>
      </trkpt>
      <trkpt lat="43.61975" lon="3.31864">
        <ele>197.8</ele>
        <time>2024-03-21T15:40:54Z</time>
      </trkpt>
      <trkpt lat="43.61973" lon="3.31873">
        <ele>197.6</ele>
        <time>2024-03-21T15:40:55Z</time>
      </trkpt>
      <trkpt lat="43.61972" lon="3.31881">
        <ele>197.3</ele>
        <time>2024-03-21T15:40:56Z</time>
      </trkpt>
      <trkpt lat="43.61969" lon="3.31888">
        <ele>197.3</ele>
        <time>2024-03-21T15:40:57Z</time>
      </trkpt>
      <trkpt lat="43.61967" lon="3.31895">
        <ele>197.6</ele>
        <time>2024-03-21T15:40:58Z</time>
      </trkpt>
      <trkpt lat="43.61965" lon="3.31901">
        <ele>197.8</ele>
        <time>2024-03-21T15:40:59Z</time>
      </trkpt>
      <trkpt lat="43.61962" lon="3.31907">
        <ele>198.1</ele>
        <time>2024-03-21T15:41:00Z</time>
      </trkpt>
      <trkpt lat="43.6196" lon="3.31913">
        <ele>198.4</ele>
        <time>2024-03-21T15:41:01Z</time>
      </trkpt>
      <trkpt lat="43.61959" lon="3.31918">
        <ele>198.5</ele>
        <time>2024-03-21T15:41:02Z</time>
      </trkpt>
      <trkpt lat="43.61957" lon="3.31924">
        <ele>198.7</ele>
        <time>2024-03-21T15:41:03Z</time>
      </trkpt>
      <trkpt lat="43.61956" lon="3.3193">
        <ele>198.9</ele>
        <time>2024-03-21T15:41:04Z</time>
      </trkpt>
      <trkpt lat="43.61954" lon="3.31935">
        <ele>199.1</ele>
        <time>2024-03-21T15:41:05Z</time>
      </trkpt>
      <trkpt lat="43.61953" lon="3.31941">
        <ele>199.3</ele>
        <time>2024-03-21T15:41:06Z</time>
      </trkpt>
      <trkpt lat="43.61951" lon="3.31947">
        <ele>199.5</ele>
        <time>2024-03-21T15:41:07Z</time>
      </trkpt>
      <trkpt lat="43.6195" lon="3.31952">
        <ele>199.7</ele>
        <time>2024-03-21T15:41:08Z</time>
      </trkpt>
      <trkpt lat="43.61949" lon="3.31958">
        <ele>199.8</ele>
        <time>2024-03-21T15:41:09Z</time>
      </trkpt>
      <trkpt lat="43.61948" lon="3.31962">
        <ele>199.8</ele>
        <time>2024-03-21T15:41:10Z</time>
      </trkpt>
      <trkpt lat="43.61946" lon="3.31972">
        <ele>199.9</ele>
        <time>2024-03-21T15:41:12Z</time>
      </trkpt>
      <trkpt lat="43.61946" lon="3.31977">
        <ele>200</ele>
        <time>2024-03-21T15:41:13Z</time>
      </trkpt>
      <trkpt lat="43.61945" lon="3.31981">
        <ele>200</ele>
        <time>2024-03-21T15:41:14Z</time>
      </trkpt>
      <trkpt lat="43.61944" lon="3.31986">
        <ele>200</ele>
        <time>2024-03-21T15:41:15Z</time>
      </trkpt>
      <trkpt lat="43.61944" lon="3.3199">
        <ele>200</ele>
        <time>2024-03-21T15:41:16Z</time>
      </trkpt>
      <trkpt lat="43.61943" lon="3.31995">
        <ele>200.1</ele>
        <time>2024-03-21T15:41:17Z</time>
      </trkpt>
      <trkpt lat="43.61942" lon="3.31999">
        <ele>200.2</ele>
        <time>2024-03-21T15:41:18Z</time>
      </trkpt>
      <trkpt lat="43.6194" lon="3.32009">
        <ele>200.6</ele>
        <time>2024-03-21T15:41:20Z</time>
      </trkpt>
      <trkpt lat="43.6194" lon="3.32014">
        <ele>200.8</ele>
        <time>2024-03-21T15:41:21Z</time>
      </trkpt>
      <trkpt lat="43.61939" lon="3.32018">
        <ele>201</ele>
        <time>2024-03-21T15:41:22Z</time>
      </trkpt>
      <trkpt lat="43.61938" lon="3.32023">
        <ele>201.3</ele>
        <time>2024-03-21T15:41:23Z</time>
      </trkpt>
      <trkpt lat="43.61935" lon="3.32035">
        <ele>202.1</ele>
        <time>2024-03-21T15:41:26Z</time>
      </trkpt>
      <trkpt lat="43.61935" lon="3.3204">
        <ele>202.4</ele>
        <time>2024-03-21T15:41:27Z</time>
      </trkpt>
      <trkpt lat="43.61934" lon="3.32044">
        <ele>202.7</ele>
        <time>2024-03-21T15:41:28Z</time>
      </trkpt>
      <trkpt lat="43.61934" lon="3.32048">
        <ele>202.9</ele>
        <time>2024-03-21T15:41:29Z</time>
      </trkpt>
      <trkpt lat="43.61933" lon="3.32052">
        <ele>203.2</ele>
        <time>2024-03-21T15:41:30Z</time>
      </trkpt>
      <trkpt lat="43.61933" lon="3.32056">
        <ele>203.4</ele>
        <time>2024-03-21T15:41:31Z</time>
      </trkpt>
      <trkpt lat="43.61932" lon="3.3206">
        <ele>203.6</ele>
        <time>2024-03-21T15:41:32Z</time>
      </trkpt>
      <trkpt lat="43.61932" lon="3.32064">
        <ele>203.8</ele>
        <time>2024-03-21T15:41:33Z</time>
      </trkpt>
      <trkpt lat="43.61931" lon="3.32069">
        <ele>204</ele>
        <time>2024-03-21T15:41:34Z</time>
      </trkpt>
      <trkpt lat="43.6193" lon="3.32072">
        <ele>204.1</ele>
        <time>2024-03-21T15:41:35Z</time>
      </trkpt>
      <trkpt lat="43.61929" lon="3.32076">
        <ele>204.3</ele>
        <time>2024-03-21T15:41:36Z</time>
      </trkpt>
      <trkpt lat="43.61929" lon="3.3208">
        <ele>204.4</ele>
        <time>2024-03-21T15:41:37Z</time>
      </trkpt>
      <trkpt lat="43.61928" lon="3.32084">
        <ele>204.6</ele>
        <time>2024-03-21T15:41:38Z</time>
      </trkpt>
      <trkpt lat="43.61927" lon="3.32087">
        <ele>204.8</ele>
        <time>2024-03-21T15:41:39Z</time>
      </trkpt>
      <trkpt lat="43.61927" lon="3.32092">
        <ele>204.9</ele>
        <time>2024-03-21T15:41:40Z</time>
      </trkpt>
      <trkpt lat="43.61925" lon="3.321">
        <ele>205.3</ele>
        <time>2024-03-21T15:41:42Z</time>
      </trkpt>
      <trkpt lat="43.61925" lon="3.32146">
        <ele>208.3</ele>
        <time>2024-03-21T15:41:53Z</time>
      </trkpt>
      <trkpt lat="43.61926" lon="3.3215">
        <ele>208.6</ele>
        <time>2024-03-21T15:41:54Z</time>
      </trkpt>
      <trkpt lat="43.61926" lon="3.32167">
        <ele>210</ele>
        <time>2024-03-21T15:41:58Z</time>
      </trkpt>
      <trkpt lat="43.61925" lon="3.32171">
        <ele>210.4</ele>
        <time>2024-03-21T15:41:59Z</time>
      </trkpt>
      <trkpt lat="43.61925" lon="3.32175">
        <ele>210.7</ele>
        <time>2024-03-21T15:42:00Z</time>
      </trkpt>
      <trkpt lat="43.61924" lon="3.32179">
        <ele>211</ele>
        <time>2024-03-21T15:42:01Z</time>
      </trkpt>
      <trkpt lat="43.61924" lon="3.32183">
        <ele>211.3</ele>
        <time>2024-03-21T15:42:02Z</time>
      </trkpt>
      <trkpt lat="43.61922" lon="3.32191">
        <ele>211.9</ele>
        <time>2024-03-21T15:42:04Z</time>
      </trkpt>
      <trkpt lat="43.61922" lon="3.32195">
        <ele>212.2</ele>
        <time>2024-03-21T15:42:05Z</time>
      </trkpt>
      <trkpt lat="43.61921" lon="3.32199">
        <ele>212.5</ele>
        <time>2024-03-21T15:42:06Z</time>
      </trkpt>
      <trkpt lat="43.6192" lon="3.32204">
        <ele>212.8</ele>
        <time>2024-03-21T15:42:07Z</time>
      </trkpt>
      <trkpt lat="43.6192" lon="3.32208">
        <ele>213</ele>
        <time>2024-03-21T15:42:08Z</time>
      </trkpt>
      <trkpt lat="43.61918" lon="3.32216">
        <ele>213.6</ele>
        <time>2024-03-21T15:42:10Z</time>
      </trkpt>
      <trkpt lat="43.61918" lon="3.3222">
        <ele>213.8</ele>
        <time>2024-03-21T15:42:11Z</time>
      </trkpt>
      <trkpt lat="43.61917" lon="3.32224">
        <ele>214.1</ele>
        <time>2024-03-21T15:42:12Z</time>
      </trkpt>
      <trkpt lat="43.61917" lon="3.32232">
        <ele>214.7</ele>
        <time>2024-03-21T15:42:14Z</time>
      </trkpt>
      <trkpt lat="43.61916" lon="3.32237">
        <ele>215.2</ele>
        <time>2024-03-21T15:42:15Z</time>
      </trkpt>
      <trkpt lat="43.61916" lon="3.32264">
        <ele>216.1</ele>
        <time>2024-03-21T15:42:22Z</time>
      </trkpt>
      <trkpt lat="43.61915" lon="3.32268">
        <ele>216.3</ele>
        <time>2024-03-21T15:42:23Z</time>
      </trkpt>
      <trkpt lat="43.61915" lon="3.32273">
        <ele>216.3</ele>
        <time>2024-03-21T15:42:24Z</time>
      </trkpt>
      <trkpt lat="43.61914" lon="3.32276">
        <ele>216.6</ele>
        <time>2024-03-21T15:42:25Z</time>
      </trkpt>
      <trkpt lat="43.61914" lon="3.3228">
        <ele>216.6</ele>
        <time>2024-03-21T15:42:26Z</time>
      </trkpt>
      <trkpt lat="43.61913" lon="3.32284">
        <ele>216.8</ele>
        <time>2024-03-21T15:42:27Z</time>
      </trkpt>
      <trkpt lat="43.61913" lon="3.32288">
        <ele>216.8</ele>
        <time>2024-03-21T15:42:28Z</time>
      </trkpt>
      <trkpt lat="43.61909" lon="3.32304">
        <ele>217.9</ele>
        <time>2024-03-21T15:42:32Z</time>
      </trkpt>
      <trkpt lat="43.61909" lon="3.32308">
        <ele>217.8</ele>
        <time>2024-03-21T15:42:33Z</time>
      </trkpt>
      <trkpt lat="43.61907" lon="3.32312">
        <ele>218.1</ele>
        <time>2024-03-21T15:42:34Z</time>
      </trkpt>
      <trkpt lat="43.61906" lon="3.32315">
        <ele>218.1</ele>
        <time>2024-03-21T15:42:35Z</time>
      </trkpt>
      <trkpt lat="43.61905" lon="3.32319">
        <ele>218.2</ele>
        <time>2024-03-21T15:42:36Z</time>
      </trkpt>
      <trkpt lat="43.61903" lon="3.32322">
        <ele>218.6</ele>
        <time>2024-03-21T15:42:37Z</time>
      </trkpt>
      <trkpt lat="43.61899" lon="3.32338">
        <ele>219</ele>
        <time>2024-03-21T15:42:41Z</time>
      </trkpt>
      <trkpt lat="43.61897" lon="3.32342">
        <ele>219.5</ele>
        <time>2024-03-21T15:42:42Z</time>
      </trkpt>
      <trkpt lat="43.61896" lon="3.32345">
        <ele>219.7</ele>
        <time>2024-03-21T15:42:43Z</time>
      </trkpt>
      <trkpt lat="43.61894" lon="3.32353">
        <ele>220.3</ele>
        <time>2024-03-21T15:42:45Z</time>
      </trkpt>
      <trkpt lat="43.61894" lon="3.32357">
        <ele>220.2</ele>
        <time>2024-03-21T15:42:46Z</time>
      </trkpt>
      <trkpt lat="43.61893" lon="3.32361">
        <ele>220.5</ele>
        <time>2024-03-21T15:42:47Z</time>
      </trkpt>
      <trkpt lat="43.61893" lon="3.32365">
        <ele>220.4</ele>
        <time>2024-03-21T15:42:48Z</time>
      </trkpt>
      <trkpt lat="43.61892" lon="3.32369">
        <ele>220.6</ele>
        <time>2024-03-21T15:42:49Z</time>
      </trkpt>
      <trkpt lat="43.61892" lon="3.32374">
        <ele>220.5</ele>
        <time>2024-03-21T15:42:50Z</time>
      </trkpt>
      <trkpt lat="43.6189" lon="3.32382">
        <ele>220.9</ele>
        <time>2024-03-21T15:42:52Z</time>
      </trkpt>
      <trkpt lat="43.61889" lon="3.32387">
        <ele>221</ele>
        <time>2024-03-21T15:42:53Z</time>
      </trkpt>
      <trkpt lat="43.61886" lon="3.32399">
        <ele>221.3</ele>
        <time>2024-03-21T15:42:56Z</time>
      </trkpt>
      <trkpt lat="43.61884" lon="3.32403">
        <ele>221.6</ele>
        <time>2024-03-21T15:42:57Z</time>
      </trkpt>
      <trkpt lat="43.61883" lon="3.32408">
        <ele>221.7</ele>
        <time>2024-03-21T15:42:58Z</time>
      </trkpt>
      <trkpt lat="43.61881" lon="3.32411">
        <ele>222</ele>
        <time>2024-03-21T15:42:59Z</time>
      </trkpt>
      <trkpt lat="43.6188" lon="3.32416">
        <ele>222</ele>
        <time>2024-03-21T15:43:00Z</time>
      </trkpt>
      <trkpt lat="43.61878" lon="3.3242">
        <ele>222.1</ele>
        <time>2024-03-21T15:43:01Z</time>
      </trkpt>
      <trkpt lat="43.61877" lon="3.32423">
        <ele>222.1</ele>
        <time>2024-03-21T15:43:02Z</time>
      </trkpt>
      <trkpt lat="43.61875" lon="3.32427">
        <ele>222.3</ele>
        <time>2024-03-21T15:43:03Z</time>
      </trkpt>
      <trkpt lat="43.61874" lon="3.32431">
        <ele>222.2</ele>
        <time>2024-03-21T15:43:04Z</time>
      </trkpt>
      <trkpt lat="43.61872" lon="3.32434">
        <ele>222.4</ele>
        <time>2024-03-21T15:43:05Z</time>
      </trkpt>
      <trkpt lat="43.61866" lon="3.32446">
        <ele>222.9</ele>
        <time>2024-03-21T15:43:08Z</time>
      </trkpt>
      <trkpt lat="43.61864" lon="3.32451">
        <ele>223</ele>
        <time>2024-03-21T15:43:09Z</time>
      </trkpt>
      <trkpt lat="43.61858" lon="3.32463">
        <ele>223.4</ele>
        <time>2024-03-21T15:43:12Z</time>
      </trkpt>
      <trkpt lat="43.61857" lon="3.32467">
        <ele>223.4</ele>
        <time>2024-03-21T15:43:13Z</time>
      </trkpt>
      <trkpt lat="43.61853" lon="3.32475">
        <ele>223.9</ele>
        <time>2024-03-21T15:43:15Z</time>
      </trkpt>
      <trkpt lat="43.61851" lon="3.3248">
        <ele>224.2</ele>
        <time>2024-03-21T15:43:16Z</time>
      </trkpt>
      <trkpt lat="43.6185" lon="3.32484">
        <ele>224.2</ele>
        <time>2024-03-21T15:43:17Z</time>
      </trkpt>
      <trkpt lat="43.61848" lon="3.32489">
        <ele>224.4</ele>
        <time>2024-03-21T15:43:18Z</time>
      </trkpt>
      <trkpt lat="43.61847" lon="3.32493">
        <ele>224.4</ele>
        <time>2024-03-21T15:43:19Z</time>
      </trkpt>
      <trkpt lat="43.61845" lon="3.32497">
        <ele>224.7</ele>
        <time>2024-03-21T15:43:20Z</time>
      </trkpt>
      <trkpt lat="43.61844" lon="3.32502">
        <ele>224.4</ele>
        <time>2024-03-21T15:43:21Z</time>
      </trkpt>
      <trkpt lat="43.61842" lon="3.32506">
        <ele>224.3</ele>
        <time>2024-03-21T15:43:22Z</time>
      </trkpt>
      <trkpt lat="43.6184" lon="3.32511">
        <ele>224.1</ele>
        <time>2024-03-21T15:43:23Z</time>
      </trkpt>
      <trkpt lat="43.61834" lon="3.32523">
        <ele>223.6</ele>
        <time>2024-03-21T15:43:26Z</time>
      </trkpt>
      <trkpt lat="43.61832" lon="3.32526">
        <ele>223.6</ele>
        <time>2024-03-21T15:43:27Z</time>
      </trkpt>
      <trkpt lat="43.61826" lon="3.32538">
        <ele>224.7</ele>
        <time>2024-03-21T15:43:30Z</time>
      </trkpt>
      <trkpt lat="43.61824" lon="3.32543">
        <ele>225.2</ele>
        <time>2024-03-21T15:43:31Z</time>
      </trkpt>
      <trkpt lat="43.61823" lon="3.32547">
        <ele>225.4</ele>
        <time>2024-03-21T15:43:32Z</time>
      </trkpt>
      <trkpt lat="43.61821" lon="3.32552">
        <ele>226</ele>
        <time>2024-03-21T15:43:33Z</time>
      </trkpt>
      <trkpt lat="43.61819" lon="3.3256">
        <ele>226.6</ele>
        <time>2024-03-21T15:43:35Z</time>
      </trkpt>
      <trkpt lat="43.61817" lon="3.3257">
        <ele>226.9</ele>
        <time>2024-03-21T15:43:37Z</time>
      </trkpt>
      <trkpt lat="43.61815" lon="3.32574">
        <ele>227.3</ele>
        <time>2024-03-21T15:43:38Z</time>
      </trkpt>
      <trkpt lat="43.61815" lon="3.32579">
        <ele>227.1</ele>
        <time>2024-03-21T15:43:39Z</time>
      </trkpt>
      <trkpt lat="43.61814" lon="3.32584">
        <ele>227.2</ele>
        <time>2024-03-21T15:43:40Z</time>
      </trkpt>
      <trkpt lat="43.61813" lon="3.32588">
        <ele>227.4</ele>
        <time>2024-03-21T15:43:41Z</time>
      </trkpt>
      <trkpt lat="43.61813" lon="3.32592">
        <ele>227.3</ele>
        <time>2024-03-21T15:43:42Z</time>
      </trkpt>
      <trkpt lat="43.61811" lon="3.32602">
        <ele>227.5</ele>
        <time>2024-03-21T15:43:44Z</time>
      </trkpt>
      <trkpt lat="43.6181" lon="3.32606">
        <ele>227.6</ele>
        <time>2024-03-21T15:43:45Z</time>
      </trkpt>
      <trkpt lat="43.61807" lon="3.32621">
        <ele>227.5</ele>
        <time>2024-03-21T15:43:48Z</time>
      </trkpt>
      <trkpt lat="43.61805" lon="3.32626">
        <ele>227.7</ele>
        <time>2024-03-21T15:43:49Z</time>
      </trkpt>
      <trkpt lat="43.61804" lon="3.32631">
        <ele>227.9</ele>
        <time>2024-03-21T15:43:50Z</time>
      </trkpt>
      <trkpt lat="43.61802" lon="3.32636">
        <ele>228.5</ele>
        <time>2024-03-21T15:43:51Z</time>
      </trkpt>
      <trkpt lat="43.61801" lon="3.32642">
        <ele>228.8</ele>
        <time>2024-03-21T15:43:52Z</time>
      </trkpt>
      <trkpt lat="43.61801" lon="3.32648">
        <ele>228.9</ele>
        <time>2024-03-21T15:43:53Z</time>
      </trkpt>
      <trkpt lat="43.618" lon="3.32654">
        <ele>229.3</ele>
        <time>2024-03-21T15:43:54Z</time>
      </trkpt>
      <trkpt lat="43.618" lon="3.3266">
        <ele>229.4</ele>
        <time>2024-03-21T15:43:55Z</time>
      </trkpt>
      <trkpt lat="43.61799" lon="3.32665">
        <ele>229.8</ele>
        <time>2024-03-21T15:43:56Z</time>
      </trkpt>
      <trkpt lat="43.61799" lon="3.32706">
        <ele>232.4</ele>
        <time>2024-03-21T15:44:04Z</time>
      </trkpt>
      <trkpt lat="43.618" lon="3.32711">
        <ele>232.2</ele>
        <time>2024-03-21T15:44:05Z</time>
      </trkpt>
      <trkpt lat="43.61801" lon="3.32717">
        <ele>232.1</ele>
        <time>2024-03-21T15:44:06Z</time>
      </trkpt>
      <trkpt lat="43.61803" lon="3.32727">
        <ele>231.9</ele>
        <time>2024-03-21T15:44:08Z</time>
      </trkpt>
      <trkpt lat="43.61805" lon="3.32733">
        <ele>231.5</ele>
        <time>2024-03-21T15:44:09Z</time>
      </trkpt>
      <trkpt lat="43.61806" lon="3.32738">
        <ele>231.7</ele>
        <time>2024-03-21T15:44:10Z</time>
      </trkpt>
      <trkpt lat="43.61808" lon="3.32743">
        <ele>232</ele>
        <time>2024-03-21T15:44:11Z</time>
      </trkpt>
      <trkpt lat="43.6181" lon="3.32749">
        <ele>232.4</ele>
        <time>2024-03-21T15:44:12Z</time>
      </trkpt>
      <trkpt lat="43.61812" lon="3.32756">
        <ele>232.6</ele>
        <time>2024-03-21T15:44:13Z</time>
      </trkpt>
      <trkpt lat="43.61813" lon="3.32761">
        <ele>232.8</ele>
        <time>2024-03-21T15:44:14Z</time>
      </trkpt>
      <trkpt lat="43.61814" lon="3.32768">
        <ele>233</ele>
        <time>2024-03-21T15:44:15Z</time>
      </trkpt>
      <trkpt lat="43.61815" lon="3.32774">
        <ele>233.1</ele>
        <time>2024-03-21T15:44:16Z</time>
      </trkpt>
      <trkpt lat="43.61816" lon="3.32779">
        <ele>233.1</ele>
        <time>2024-03-21T15:44:17Z</time>
      </trkpt>
      <trkpt lat="43.61817" lon="3.32785">
        <ele>232.7</ele>
        <time>2024-03-21T15:44:18Z</time>
      </trkpt>
      <trkpt lat="43.61817" lon="3.32804">
        <ele>232.1</ele>
        <time>2024-03-21T15:44:21Z</time>
      </trkpt>
      <trkpt lat="43.61815" lon="3.32809">
        <ele>231.9</ele>
        <time>2024-03-21T15:44:22Z</time>
      </trkpt>
      <trkpt lat="43.61814" lon="3.32814">
        <ele>231.8</ele>
        <time>2024-03-21T15:44:23Z</time>
      </trkpt>
      <trkpt lat="43.61811" lon="3.32819">
        <ele>231.4</ele>
        <time>2024-03-21T15:44:24Z</time>
      </trkpt>
      <trkpt lat="43.61809" lon="3.32824">
        <ele>231</ele>
        <time>2024-03-21T15:44:25Z</time>
      </trkpt>
      <trkpt lat="43.61806" lon="3.32828">
        <ele>230.4</ele>
        <time>2024-03-21T15:44:26Z</time>
      </trkpt>
      <trkpt lat="43.61802" lon="3.32832">
        <ele>230.8</ele>
        <time>2024-03-21T15:44:27Z</time>
      </trkpt>
      <trkpt lat="43.61799" lon="3.32836">
        <ele>231.4</ele>
        <time>2024-03-21T15:44:28Z</time>
      </trkpt>
      <trkpt lat="43.61795" lon="3.3284">
        <ele>232.3</ele>
        <time>2024-03-21T15:44:29Z</time>
      </trkpt>
      <trkpt lat="43.61792" lon="3.32845">
        <ele>232.9</ele>
        <time>2024-03-21T15:44:30Z</time>
      </trkpt>
      <trkpt lat="43.61787" lon="3.32855">
        <ele>233.6</ele>
        <time>2024-03-21T15:44:32Z</time>
      </trkpt>
      <trkpt lat="43.61785" lon="3.32865">
        <ele>233.9</ele>
        <time>2024-03-21T15:44:34Z</time>
      </trkpt>
      <trkpt lat="43.61784" lon="3.32871">
        <ele>234.1</ele>
        <time>2024-03-21T15:44:35Z</time>
      </trkpt>
      <trkpt lat="43.61784" lon="3.32877">
        <ele>234.3</ele>
        <time>2024-03-21T15:44:36Z</time>
      </trkpt>
      <trkpt lat="43.61785" lon="3.32883">
        <ele>234.5</ele>
        <time>2024-03-21T15:44:37Z</time>
      </trkpt>
      <trkpt lat="43.61786" lon="3.32888">
        <ele>234.7</ele>
        <time>2024-03-21T15:44:38Z</time>
      </trkpt>
      <trkpt lat="43.61787" lon="3.32894">
        <ele>235.2</ele>
        <time>2024-03-21T15:44:39Z</time>
      </trkpt>
      <trkpt lat="43.61788" lon="3.32899">
        <ele>235.7</ele>
        <time>2024-03-21T15:44:40Z</time>
      </trkpt>
      <trkpt lat="43.6179" lon="3.32904">
        <ele>236</ele>
        <time>2024-03-21T15:44:41Z</time>
      </trkpt>
      <trkpt lat="43.61791" lon="3.32909">
        <ele>236.4</ele>
        <time>2024-03-21T15:44:42Z</time>
      </trkpt>
      <trkpt lat="43.61793" lon="3.32915">
        <ele>236.7</ele>
        <time>2024-03-21T15:44:43Z</time>
      </trkpt>
      <trkpt lat="43.61794" lon="3.3292">
        <ele>236.9</ele>
        <time>2024-03-21T15:44:44Z</time>
      </trkpt>
      <trkpt lat="43.61796" lon="3.32925">
        <ele>236.9</ele>
        <time>2024-03-21T15:44:45Z</time>
      </trkpt>
      <trkpt lat="43.61797" lon="3.3293">
        <ele>237</ele>
        <time>2024-03-21T15:44:46Z</time>
      </trkpt>
      <trkpt lat="43.61801" lon="3.3294">
        <ele>236.8</ele>
        <time>2024-03-21T15:44:48Z</time>
      </trkpt>
      <trkpt lat="43.61802" lon="3.32946">
        <ele>236.9</ele>
        <time>2024-03-21T15:44:49Z</time>
      </trkpt>
      <trkpt lat="43.61804" lon="3.32951">
        <ele>236.8</ele>
        <time>2024-03-21T15:44:50Z</time>
      </trkpt>
      <trkpt lat="43.61805" lon="3.32957">
        <ele>237.1</ele>
        <time>2024-03-21T15:44:51Z</time>
      </trkpt>
      <trkpt lat="43.61807" lon="3.32962">
        <ele>237.2</ele>
        <time>2024-03-21T15:44:52Z</time>
      </trkpt>
      <trkpt lat="43.6181" lon="3.32977">
        <ele>238.5</ele>
        <time>2024-03-21T15:44:55Z</time>
      </trkpt>
      <trkpt lat="43.61812" lon="3.32981">
        <ele>239</ele>
        <time>2024-03-21T15:44:56Z</time>
      </trkpt>
      <trkpt lat="43.61812" lon="3.32986">
        <ele>239.6</ele>
        <time>2024-03-21T15:44:57Z</time>
      </trkpt>
      <trkpt lat="43.61814" lon="3.32996">
        <ele>240.9</ele>
        <time>2024-03-21T15:44:59Z</time>
      </trkpt>
      <trkpt lat="43.61814" lon="3.33">
        <ele>241.4</ele>
        <time>2024-03-21T15:45:00Z</time>
      </trkpt>
      <trkpt lat="43.61815" lon="3.33005">
        <ele>241.8</ele>
        <time>2024-03-21T15:45:01Z</time>
      </trkpt>
      <trkpt lat="43.61815" lon="3.33016">
        <ele>242.9</ele>
        <time>2024-03-21T15:45:03Z</time>
      </trkpt>
      <trkpt lat="43.61816" lon="3.3302">
        <ele>243.1</ele>
        <time>2024-03-21T15:45:04Z</time>
      </trkpt>
      <trkpt lat="43.61816" lon="3.33031">
        <ele>244</ele>
        <time>2024-03-21T15:45:06Z</time>
      </trkpt>
      <trkpt lat="43.61815" lon="3.33035">
        <ele>244.2</ele>
        <time>2024-03-21T15:45:07Z</time>
      </trkpt>
      <trkpt lat="43.61815" lon="3.33045">
        <ele>244.4</ele>
        <time>2024-03-21T15:45:09Z</time>
      </trkpt>
      <trkpt lat="43.61814" lon="3.3305">
        <ele>244.5</ele>
        <time>2024-03-21T15:45:10Z</time>
      </trkpt>
      <trkpt lat="43.61814" lon="3.33055">
        <ele>244.6</ele>
        <time>2024-03-21T15:45:11Z</time>
      </trkpt>
      <trkpt lat="43.61813" lon="3.33059">
        <ele>244.6</ele>
        <time>2024-03-21T15:45:12Z</time>
      </trkpt>
      <trkpt lat="43.61813" lon="3.33064">
        <ele>244.8</ele>
        <time>2024-03-21T15:45:13Z</time>
      </trkpt>
      <trkpt lat="43.61811" lon="3.33074">
        <ele>244.8</ele>
        <time>2024-03-21T15:45:15Z</time>
      </trkpt>
      <trkpt lat="43.61811" lon="3.33083">
        <ele>245</ele>
        <time>2024-03-21T15:45:17Z</time>
      </trkpt>
      <trkpt lat="43.61809" lon="3.33093">
        <ele>245.6</ele>
        <time>2024-03-21T15:45:19Z</time>
      </trkpt>
      <trkpt lat="43.61808" lon="3.33097">
        <ele>245.9</ele>
        <time>2024-03-21T15:45:20Z</time>
      </trkpt>
      <trkpt lat="43.61808" lon="3.33102">
        <ele>246.4</ele>
        <time>2024-03-21T15:45:21Z</time>
      </trkpt>
      <trkpt lat="43.61807" lon="3.33106">
        <ele>246.7</ele>
        <time>2024-03-21T15:45:22Z</time>
      </trkpt>
      <trkpt lat="43.61805" lon="3.33116">
        <ele>247.6</ele>
        <time>2024-03-21T15:45:24Z</time>
      </trkpt>
      <trkpt lat="43.61805" lon="3.3312">
        <ele>247.7</ele>
        <time>2024-03-21T15:45:25Z</time>
      </trkpt>
      <trkpt lat="43.61804" lon="3.33125">
        <ele>248.5</ele>
        <time>2024-03-21T15:45:26Z</time>
      </trkpt>
      <trkpt lat="43.61801" lon="3.33137">
        <ele>250.8</ele>
        <time>2024-03-21T15:45:29Z</time>
      </trkpt>
      <trkpt lat="43.61799" lon="3.33141">
        <ele>252.1</ele>
        <time>2024-03-21T15:45:30Z</time>
      </trkpt>
      <trkpt lat="43.61797" lon="3.33151">
        <ele>253.4</ele>
        <time>2024-03-21T15:45:32Z</time>
      </trkpt>
      <trkpt lat="43.61797" lon="3.33155">
        <ele>253.5</ele>
        <time>2024-03-21T15:45:33Z</time>
      </trkpt>
      <trkpt lat="43.61795" lon="3.33165">
        <ele>254.7</ele>
        <time>2024-03-21T15:45:35Z</time>
      </trkpt>
      <trkpt lat="43.61794" lon="3.33169">
        <ele>255.3</ele>
        <time>2024-03-21T15:45:36Z</time>
      </trkpt>
      <trkpt lat="43.61793" lon="3.33174">
        <ele>255.8</ele>
        <time>2024-03-21T15:45:37Z</time>
      </trkpt>
      <trkpt lat="43.61793" lon="3.33178">
        <ele>255.8</ele>
        <time>2024-03-21T15:45:38Z</time>
      </trkpt>
      <trkpt lat="43.61791" lon="3.33188">
        <ele>256.8</ele>
        <time>2024-03-21T15:45:40Z</time>
      </trkpt>
      <trkpt lat="43.6179" lon="3.33192">
        <ele>257.3</ele>
        <time>2024-03-21T15:45:41Z</time>
      </trkpt>
      <trkpt lat="43.61788" lon="3.33202">
        <ele>258.1</ele>
        <time>2024-03-21T15:45:43Z</time>
      </trkpt>
      <trkpt lat="43.61788" lon="3.33207">
        <ele>258.1</ele>
        <time>2024-03-21T15:45:44Z</time>
      </trkpt>
      <trkpt lat="43.61786" lon="3.33212">
        <ele>258.9</ele>
        <time>2024-03-21T15:45:45Z</time>
      </trkpt>
      <trkpt lat="43.61786" lon="3.33217">
        <ele>258.8</ele>
        <time>2024-03-21T15:45:46Z</time>
      </trkpt>
      <trkpt lat="43.61785" lon="3.33222">
        <ele>259.1</ele>
        <time>2024-03-21T15:45:47Z</time>
      </trkpt>
      <trkpt lat="43.61784" lon="3.33226">
        <ele>259.4</ele>
        <time>2024-03-21T15:45:48Z</time>
      </trkpt>
      <trkpt lat="43.61781" lon="3.33241">
        <ele>259.7</ele>
        <time>2024-03-21T15:45:51Z</time>
      </trkpt>
      <trkpt lat="43.6178" lon="3.33245">
        <ele>259.7</ele>
        <time>2024-03-21T15:45:52Z</time>
      </trkpt>
      <trkpt lat="43.61779" lon="3.3325">
        <ele>259.7</ele>
        <time>2024-03-21T15:45:53Z</time>
      </trkpt>
      <trkpt lat="43.61778" lon="3.33254">
        <ele>259.8</ele>
        <time>2024-03-21T15:45:54Z</time>
      </trkpt>
      <trkpt lat="43.61777" lon="3.33259">
        <ele>260.2</ele>
        <time>2024-03-21T15:45:55Z</time>
      </trkpt>
      <trkpt lat="43.61775" lon="3.33267">
        <ele>261.1</ele>
        <time>2024-03-21T15:45:57Z</time>
      </trkpt>
      <trkpt lat="43.61772" lon="3.33282">
        <ele>262.6</ele>
        <time>2024-03-21T15:46:00Z</time>
      </trkpt>
      <trkpt lat="43.6177" lon="3.3329">
        <ele>264</ele>
        <time>2024-03-21T15:46:02Z</time>
      </trkpt>
      <trkpt lat="43.6177" lon="3.33295">
        <ele>264</ele>
        <time>2024-03-21T15:46:03Z</time>
      </trkpt>
      <trkpt lat="43.61769" lon="3.333">
        <ele>264.7</ele>
        <time>2024-03-21T15:46:04Z</time>
      </trkpt>
      <trkpt lat="43.61769" lon="3.33315">
        <ele>264.1</ele>
        <time>2024-03-21T15:46:07Z</time>
      </trkpt>
      <trkpt lat="43.61768" lon="3.3332">
        <ele>264.2</ele>
        <time>2024-03-21T15:46:08Z</time>
      </trkpt>
      <trkpt lat="43.61768" lon="3.33325">
        <ele>263.8</ele>
        <time>2024-03-21T15:46:09Z</time>
      </trkpt>
      <trkpt lat="43.61766" lon="3.33335">
        <ele>263.7</ele>
        <time>2024-03-21T15:46:11Z</time>
      </trkpt>
      <trkpt lat="43.61766" lon="3.3334">
        <ele>263.4</ele>
        <time>2024-03-21T15:46:12Z</time>
      </trkpt>
      <trkpt lat="43.61765" lon="3.33345">
        <ele>263.4</ele>
        <time>2024-03-21T15:46:13Z</time>
      </trkpt>
      <trkpt lat="43.61764" lon="3.33349">
        <ele>263.3</ele>
        <time>2024-03-21T15:46:14Z</time>
      </trkpt>
      <trkpt lat="43.61762" lon="3.33354">
        <ele>263.4</ele>
        <time>2024-03-21T15:46:15Z</time>
      </trkpt>
      <trkpt lat="43.61761" lon="3.33359">
        <ele>263.2</ele>
        <time>2024-03-21T15:46:16Z</time>
      </trkpt>
      <trkpt lat="43.61759" lon="3.33363">
        <ele>263.4</ele>
        <time>2024-03-21T15:46:17Z</time>
      </trkpt>
      <trkpt lat="43.61757" lon="3.33368">
        <ele>263.8</ele>
        <time>2024-03-21T15:46:18Z</time>
      </trkpt>
      <trkpt lat="43.61755" lon="3.33372">
        <ele>264.1</ele>
        <time>2024-03-21T15:46:19Z</time>
      </trkpt>
      <trkpt lat="43.61753" lon="3.33377">
        <ele>264.2</ele>
        <time>2024-03-21T15:46:20Z</time>
      </trkpt>
      <trkpt lat="43.61752" lon="3.33381">
        <ele>264.2</ele>
        <time>2024-03-21T15:46:21Z</time>
      </trkpt>
      <trkpt lat="43.6175" lon="3.33384">
        <ele>264.2</ele>
        <time>2024-03-21T15:46:22Z</time>
      </trkpt>
      <trkpt lat="43.61749" lon="3.33388">
        <ele>264.2</ele>
        <time>2024-03-21T15:46:23Z</time>
      </trkpt>
      <trkpt lat="43.61747" lon="3.33392">
        <ele>264.5</ele>
        <time>2024-03-21T15:46:24Z</time>
      </trkpt>
      <trkpt lat="43.61746" lon="3.33396">
        <ele>264.6</ele>
        <time>2024-03-21T15:46:25Z</time>
      </trkpt>
      <trkpt lat="43.61742" lon="3.33404">
        <ele>264.9</ele>
        <time>2024-03-21T15:46:27Z</time>
      </trkpt>
      <trkpt lat="43.6174" lon="3.33407">
        <ele>264.9</ele>
        <time>2024-03-21T15:46:28Z</time>
      </trkpt>
      <trkpt lat="43.61737" lon="3.33411">
        <ele>264.8</ele>
        <time>2024-03-21T15:46:29Z</time>
      </trkpt>
      <trkpt lat="43.61735" lon="3.33415">
        <ele>264.6</ele>
        <time>2024-03-21T15:46:30Z</time>
      </trkpt>
      <trkpt lat="43.61733" lon="3.33418">
        <ele>264.5</ele>
        <time>2024-03-21T15:46:31Z</time>
      </trkpt>
      <trkpt lat="43.6173" lon="3.33421">
        <ele>264.5</ele>
        <time>2024-03-21T15:46:32Z</time>
      </trkpt>
      <trkpt lat="43.61728" lon="3.33425">
        <ele>264.6</ele>
        <time>2024-03-21T15:46:33Z</time>
      </trkpt>
      <trkpt lat="43.61724" lon="3.33435">
        <ele>264.8</ele>
        <time>2024-03-21T15:46:35Z</time>
      </trkpt>
      <trkpt lat="43.6172" lon="3.33443">
        <ele>264.9</ele>
        <time>2024-03-21T15:46:37Z</time>
      </trkpt>
      <trkpt lat="43.61718" lon="3.33448">
        <ele>265.1</ele>
        <time>2024-03-21T15:46:38Z</time>
      </trkpt>
      <trkpt lat="43.61717" lon="3.33452">
        <ele>265.3</ele>
        <time>2024-03-21T15:46:39Z</time>
      </trkpt>
      <trkpt lat="43.61713" lon="3.3346">
        <ele>265.6</ele>
        <time>2024-03-21T15:46:41Z</time>
      </trkpt>
      <trkpt lat="43.61711" lon="3.33465">
        <ele>265.8</ele>
        <time>2024-03-21T15:46:42Z</time>
      </trkpt>
      <trkpt lat="43.61709" lon="3.33469">
        <ele>265.9</ele>
        <time>2024-03-21T15:46:43Z</time>
      </trkpt>
      <trkpt lat="43.61707" lon="3.33474">
        <ele>266</ele>
        <time>2024-03-21T15:46:44Z</time>
      </trkpt>
      <trkpt lat="43.61705" lon="3.33478">
        <ele>266</ele>
        <time>2024-03-21T15:46:45Z</time>
      </trkpt>
      <trkpt lat="43.61704" lon="3.33483">
        <ele>266.1</ele>
        <time>2024-03-21T15:46:46Z</time>
      </trkpt>
      <trkpt lat="43.61701" lon="3.33487">
        <ele>266</ele>
        <time>2024-03-21T15:46:47Z</time>
      </trkpt>
      <trkpt lat="43.617" lon="3.33492">
        <ele>266.1</ele>
        <time>2024-03-21T15:46:48Z</time>
      </trkpt>
      <trkpt lat="43.61698" lon="3.33496">
        <ele>266.1</ele>
        <time>2024-03-21T15:46:49Z</time>
      </trkpt>
      <trkpt lat="43.61696" lon="3.33501">
        <ele>266.1</ele>
        <time>2024-03-21T15:46:50Z</time>
      </trkpt>
      <trkpt lat="43.61692" lon="3.33509">
        <ele>266.4</ele>
        <time>2024-03-21T15:46:52Z</time>
      </trkpt>
      <trkpt lat="43.6169" lon="3.33514">
        <ele>266.7</ele>
        <time>2024-03-21T15:46:53Z</time>
      </trkpt>
      <trkpt lat="43.61689" lon="3.33518">
        <ele>266.8</ele>
        <time>2024-03-21T15:46:54Z</time>
      </trkpt>
      <trkpt lat="43.61681" lon="3.33534">
        <ele>267</ele>
        <time>2024-03-21T15:46:58Z</time>
      </trkpt>
      <trkpt lat="43.61679" lon="3.33537">
        <ele>267</ele>
        <time>2024-03-21T15:46:59Z</time>
      </trkpt>
      <trkpt lat="43.61678" lon="3.33541">
        <ele>266.9</ele>
        <time>2024-03-21T15:47:00Z</time>
      </trkpt>
      <trkpt lat="43.61676" lon="3.33545">
        <ele>266.8</ele>
        <time>2024-03-21T15:47:01Z</time>
      </trkpt>
      <trkpt lat="43.61675" lon="3.33549">
        <ele>266.7</ele>
        <time>2024-03-21T15:47:02Z</time>
      </trkpt>
      <trkpt lat="43.61671" lon="3.33559">
        <ele>266.4</ele>
        <time>2024-03-21T15:47:04Z</time>
      </trkpt>
      <trkpt lat="43.61668" lon="3.33563">
        <ele>266.4</ele>
        <time>2024-03-21T15:47:05Z</time>
      </trkpt>
      <trkpt lat="43.61664" lon="3.33573">
        <ele>266.7</ele>
        <time>2024-03-21T15:47:07Z</time>
      </trkpt>
      <trkpt lat="43.61661" lon="3.33577">
        <ele>266.9</ele>
        <time>2024-03-21T15:47:08Z</time>
      </trkpt>
      <trkpt lat="43.61659" lon="3.33582">
        <ele>267</ele>
        <time>2024-03-21T15:47:09Z</time>
      </trkpt>
      <trkpt lat="43.61657" lon="3.33586">
        <ele>267</ele>
        <time>2024-03-21T15:47:10Z</time>
      </trkpt>
      <trkpt lat="43.61654" lon="3.33589">
        <ele>267</ele>
        <time>2024-03-21T15:47:11Z</time>
      </trkpt>
      <trkpt lat="43.61652" lon="3.33594">
        <ele>267</ele>
        <time>2024-03-21T15:47:12Z</time>
      </trkpt>
      <trkpt lat="43.6165" lon="3.33598">
        <ele>266.9</ele>
        <time>2024-03-21T15:47:13Z</time>
      </trkpt>
      <trkpt lat="43.61646" lon="3.33604">
        <ele>266.6</ele>
        <time>2024-03-21T15:47:15Z</time>
      </trkpt>
      <trkpt lat="43.61645" lon="3.33607">
        <ele>266.5</ele>
        <time>2024-03-21T15:47:16Z</time>
      </trkpt>
      <trkpt lat="43.6164" lon="3.33612">
        <ele>266.1</ele>
        <time>2024-03-21T15:47:18Z</time>
      </trkpt>
      <trkpt lat="43.61637" lon="3.33617">
        <ele>266.1</ele>
        <time>2024-03-21T15:47:19Z</time>
      </trkpt>
      <trkpt lat="43.61635" lon="3.33622">
        <ele>266.1</ele>
        <time>2024-03-21T15:47:20Z</time>
      </trkpt>
      <trkpt lat="43.61632" lon="3.33626">
        <ele>266.1</ele>
        <time>2024-03-21T15:47:21Z</time>
      </trkpt>
      <trkpt lat="43.61628" lon="3.33631">
        <ele>266.1</ele>
        <time>2024-03-21T15:47:22Z</time>
      </trkpt>
      <trkpt lat="43.61625" lon="3.33634">
        <ele>266.1</ele>
        <time>2024-03-21T15:47:23Z</time>
      </trkpt>
      <trkpt lat="43.61622" lon="3.33638">
        <ele>266</ele>
        <time>2024-03-21T15:47:24Z</time>
      </trkpt>
      <trkpt lat="43.61614" lon="3.33644">
        <ele>265.9</ele>
        <time>2024-03-21T15:47:26Z</time>
      </trkpt>
      <trkpt lat="43.61609" lon="3.33646">
        <ele>265.8</ele>
        <time>2024-03-21T15:47:27Z</time>
      </trkpt>
      <trkpt lat="43.61605" lon="3.33649">
        <ele>265.7</ele>
        <time>2024-03-21T15:47:28Z</time>
      </trkpt>
      <trkpt lat="43.616" lon="3.33651">
        <ele>265.7</ele>
        <time>2024-03-21T15:47:29Z</time>
      </trkpt>
      <trkpt lat="43.61594" lon="3.33653">
        <ele>265.8</ele>
        <time>2024-03-21T15:47:30Z</time>
      </trkpt>
      <trkpt lat="43.61589" lon="3.33654">
        <ele>265.9</ele>
        <time>2024-03-21T15:47:31Z</time>
      </trkpt>
      <trkpt lat="43.61583" lon="3.33656">
        <ele>266</ele>
        <time>2024-03-21T15:47:32Z</time>
      </trkpt>
      <trkpt lat="43.61578" lon="3.33656">
        <ele>265.7</ele>
        <time>2024-03-21T15:47:33Z</time>
      </trkpt>
      <trkpt lat="43.61573" lon="3.33657">
        <ele>265.4</ele>
        <time>2024-03-21T15:47:34Z</time>
      </trkpt>
      <trkpt lat="43.61568" lon="3.33657">
        <ele>265.1</ele>
        <time>2024-03-21T15:47:35Z</time>
      </trkpt>
      <trkpt lat="43.61563" lon="3.33659">
        <ele>264.7</ele>
        <time>2024-03-21T15:47:36Z</time>
      </trkpt>
      <trkpt lat="43.61557" lon="3.3366">
        <ele>264.3</ele>
        <time>2024-03-21T15:47:37Z</time>
      </trkpt>
      <trkpt lat="43.61551" lon="3.33662">
        <ele>263.9</ele>
        <time>2024-03-21T15:47:38Z</time>
      </trkpt>
      <trkpt lat="43.61545" lon="3.33666">
        <ele>263.3</ele>
        <time>2024-03-21T15:47:39Z</time>
      </trkpt>
      <trkpt lat="43.61539" lon="3.33672">
        <ele>262.5</ele>
        <time>2024-03-21T15:47:40Z</time>
      </trkpt>
      <trkpt lat="43.61534" lon="3.3368">
        <ele>261.9</ele>
        <time>2024-03-21T15:47:41Z</time>
      </trkpt>
      <trkpt lat="43.6153" lon="3.33689">
        <ele>261.3</ele>
        <time>2024-03-21T15:47:42Z</time>
      </trkpt>
      <trkpt lat="43.61528" lon="3.337">
        <ele>261</ele>
        <time>2024-03-21T15:47:43Z</time>
      </trkpt>
      <trkpt lat="43.61527" lon="3.33711">
        <ele>261.1</ele>
        <time>2024-03-21T15:47:44Z</time>
      </trkpt>
      <trkpt lat="43.61525" lon="3.33722">
        <ele>261.2</ele>
        <time>2024-03-21T15:47:45Z</time>
      </trkpt>
      <trkpt lat="43.61523" lon="3.33746">
        <ele>260.6</ele>
        <time>2024-03-21T15:47:47Z</time>
      </trkpt>
      <trkpt lat="43.61521" lon="3.33757">
        <ele>260.5</ele>
        <time>2024-03-21T15:47:48Z</time>
      </trkpt>
      <trkpt lat="43.61519" lon="3.33769">
        <ele>260.3</ele>
        <time>2024-03-21T15:47:49Z</time>
      </trkpt>
      <trkpt lat="43.61517" lon="3.3378">
        <ele>260.1</ele>
        <time>2024-03-21T15:47:50Z</time>
      </trkpt>
      <trkpt lat="43.61515" lon="3.33792">
        <ele>259.9</ele>
        <time>2024-03-21T15:47:51Z</time>
      </trkpt>
      <trkpt lat="43.61512" lon="3.33804">
        <ele>259.6</ele>
        <time>2024-03-21T15:47:52Z</time>
      </trkpt>
      <trkpt lat="43.6151" lon="3.33815">
        <ele>259.4</ele>
        <time>2024-03-21T15:47:53Z</time>
      </trkpt>
      <trkpt lat="43.61507" lon="3.33826">
        <ele>259.2</ele>
        <time>2024-03-21T15:47:54Z</time>
      </trkpt>
      <trkpt lat="43.61505" lon="3.33837">
        <ele>258.7</ele>
        <time>2024-03-21T15:47:55Z</time>
      </trkpt>
      <trkpt lat="43.61501" lon="3.33861">
        <ele>256.1</ele>
        <time>2024-03-21T15:47:57Z</time>
      </trkpt>
      <trkpt lat="43.615" lon="3.33874">
        <ele>255.5</ele>
        <time>2024-03-21T15:47:58Z</time>
      </trkpt>
      <trkpt lat="43.61501" lon="3.33887">
        <ele>255.1</ele>
        <time>2024-03-21T15:47:59Z</time>
      </trkpt>
      <trkpt lat="43.61503" lon="3.339">
        <ele>255.5</ele>
        <time>2024-03-21T15:48:00Z</time>
      </trkpt>
      <trkpt lat="43.61506" lon="3.33912">
        <ele>255.7</ele>
        <time>2024-03-21T15:48:01Z</time>
      </trkpt>
      <trkpt lat="43.61508" lon="3.33926">
        <ele>255.5</ele>
        <time>2024-03-21T15:48:02Z</time>
      </trkpt>
      <trkpt lat="43.6151" lon="3.33939">
        <ele>255.1</ele>
        <time>2024-03-21T15:48:03Z</time>
      </trkpt>
      <trkpt lat="43.61513" lon="3.33953">
        <ele>254.5</ele>
        <time>2024-03-21T15:48:04Z</time>
      </trkpt>
      <trkpt lat="43.61517" lon="3.33981">
        <ele>253.6</ele>
        <time>2024-03-21T15:48:06Z</time>
      </trkpt>
      <trkpt lat="43.61518" lon="3.33995">
        <ele>253.4</ele>
        <time>2024-03-21T15:48:07Z</time>
      </trkpt>
      <trkpt lat="43.6152" lon="3.34009">
        <ele>252.9</ele>
        <time>2024-03-21T15:48:08Z</time>
      </trkpt>
      <trkpt lat="43.61524" lon="3.34022">
        <ele>251.9</ele>
        <time>2024-03-21T15:48:09Z</time>
      </trkpt>
      <trkpt lat="43.61529" lon="3.34034">
        <ele>251.4</ele>
        <time>2024-03-21T15:48:10Z</time>
      </trkpt>
      <trkpt lat="43.61535" lon="3.34044">
        <ele>251.7</ele>
        <time>2024-03-21T15:48:11Z</time>
      </trkpt>
      <trkpt lat="43.6154" lon="3.34054">
        <ele>251.6</ele>
        <time>2024-03-21T15:48:12Z</time>
      </trkpt>
      <trkpt lat="43.61546" lon="3.34064">
        <ele>251.2</ele>
        <time>2024-03-21T15:48:13Z</time>
      </trkpt>
      <trkpt lat="43.6155" lon="3.34074">
        <ele>251.1</ele>
        <time>2024-03-21T15:48:14Z</time>
      </trkpt>
      <trkpt lat="43.61553" lon="3.34085">
        <ele>251.2</ele>
        <time>2024-03-21T15:48:15Z</time>
      </trkpt>
      <trkpt lat="43.61555" lon="3.34097">
        <ele>251</ele>
        <time>2024-03-21T15:48:16Z</time>
      </trkpt>
      <trkpt lat="43.61556" lon="3.34109">
        <ele>251</ele>
        <time>2024-03-21T15:48:17Z</time>
      </trkpt>
      <trkpt lat="43.61558" lon="3.3412">
        <ele>251.1</ele>
        <time>2024-03-21T15:48:18Z</time>
      </trkpt>
      <trkpt lat="43.61559" lon="3.34131">
        <ele>251</ele>
        <time>2024-03-21T15:48:19Z</time>
      </trkpt>
      <trkpt lat="43.61561" lon="3.34141">
        <ele>250.9</ele>
        <time>2024-03-21T15:48:20Z</time>
      </trkpt>
      <trkpt lat="43.61562" lon="3.34151">
        <ele>250.7</ele>
        <time>2024-03-21T15:48:21Z</time>
      </trkpt>
      <trkpt lat="43.61563" lon="3.34162">
        <ele>250.4</ele>
        <time>2024-03-21T15:48:22Z</time>
      </trkpt>
      <trkpt lat="43.61564" lon="3.34172">
        <ele>250</ele>
        <time>2024-03-21T15:48:23Z</time>
      </trkpt>
      <trkpt lat="43.61564" lon="3.34182">
        <ele>249.5</ele>
        <time>2024-03-21T15:48:24Z</time>
      </trkpt>
      <trkpt lat="43.61565" lon="3.34193">
        <ele>249.1</ele>
        <time>2024-03-21T15:48:25Z</time>
      </trkpt>
      <trkpt lat="43.61564" lon="3.34204">
        <ele>248.5</ele>
        <time>2024-03-21T15:48:26Z</time>
      </trkpt>
      <trkpt lat="43.61564" lon="3.3425">
        <ele>245.6</ele>
        <time>2024-03-21T15:48:30Z</time>
      </trkpt>
      <trkpt lat="43.61565" lon="3.34262">
        <ele>244.8</ele>
        <time>2024-03-21T15:48:31Z</time>
      </trkpt>
      <trkpt lat="43.61566" lon="3.34275">
        <ele>244</ele>
        <time>2024-03-21T15:48:32Z</time>
      </trkpt>
      <trkpt lat="43.61568" lon="3.34287">
        <ele>243.2</ele>
        <time>2024-03-21T15:48:33Z</time>
      </trkpt>
      <trkpt lat="43.61571" lon="3.343">
        <ele>242.5</ele>
        <time>2024-03-21T15:48:34Z</time>
      </trkpt>
      <trkpt lat="43.61572" lon="3.34314">
        <ele>242</ele>
        <time>2024-03-21T15:48:35Z</time>
      </trkpt>
      <trkpt lat="43.61574" lon="3.34327">
        <ele>241.8</ele>
        <time>2024-03-21T15:48:36Z</time>
      </trkpt>
      <trkpt lat="43.61576" lon="3.34341">
        <ele>241.7</ele>
        <time>2024-03-21T15:48:37Z</time>
      </trkpt>
      <trkpt lat="43.61577" lon="3.34355">
        <ele>241.8</ele>
        <time>2024-03-21T15:48:38Z</time>
      </trkpt>
      <trkpt lat="43.61579" lon="3.34368">
        <ele>241.7</ele>
        <time>2024-03-21T15:48:39Z</time>
      </trkpt>
      <trkpt lat="43.6158" lon="3.34381">
        <ele>241.3</ele>
        <time>2024-03-21T15:48:40Z</time>
      </trkpt>
      <trkpt lat="43.61582" lon="3.34394">
        <ele>241</ele>
        <time>2024-03-21T15:48:41Z</time>
      </trkpt>
      <trkpt lat="43.61582" lon="3.34419">
        <ele>241</ele>
        <time>2024-03-21T15:48:43Z</time>
      </trkpt>
      <trkpt lat="43.61581" lon="3.34432">
        <ele>241.1</ele>
        <time>2024-03-21T15:48:44Z</time>
      </trkpt>
      <trkpt lat="43.61579" lon="3.34444">
        <ele>241.2</ele>
        <time>2024-03-21T15:48:45Z</time>
      </trkpt>
      <trkpt lat="43.61576" lon="3.34456">
        <ele>241.3</ele>
        <time>2024-03-21T15:48:46Z</time>
      </trkpt>
      <trkpt lat="43.61572" lon="3.34478">
        <ele>241.4</ele>
        <time>2024-03-21T15:48:48Z</time>
      </trkpt>
      <trkpt lat="43.61571" lon="3.3449">
        <ele>241.4</ele>
        <time>2024-03-21T15:48:49Z</time>
      </trkpt>
      <trkpt lat="43.61571" lon="3.34502">
        <ele>241.4</ele>
        <time>2024-03-21T15:48:50Z</time>
      </trkpt>
      <trkpt lat="43.6157" lon="3.34515">
        <ele>241</ele>
        <time>2024-03-21T15:48:51Z</time>
      </trkpt>
      <trkpt lat="43.61568" lon="3.34527">
        <ele>240.5</ele>
        <time>2024-03-21T15:48:52Z</time>
      </trkpt>
      <trkpt lat="43.61566" lon="3.3454">
        <ele>239.6</ele>
        <time>2024-03-21T15:48:53Z</time>
      </trkpt>
      <trkpt lat="43.61563" lon="3.34552">
        <ele>238.4</ele>
        <time>2024-03-21T15:48:54Z</time>
      </trkpt>
      <trkpt lat="43.61561" lon="3.34566">
        <ele>237.7</ele>
        <time>2024-03-21T15:48:55Z</time>
      </trkpt>
      <trkpt lat="43.6156" lon="3.3458">
        <ele>237.5</ele>
        <time>2024-03-21T15:48:56Z</time>
      </trkpt>
      <trkpt lat="43.61562" lon="3.34594">
        <ele>237.5</ele>
        <time>2024-03-21T15:48:57Z</time>
      </trkpt>
      <trkpt lat="43.61563" lon="3.34607">
        <ele>237.3</ele>
        <time>2024-03-21T15:48:58Z</time>
      </trkpt>
      <trkpt lat="43.61565" lon="3.34621">
        <ele>237.4</ele>
        <time>2024-03-21T15:48:59Z</time>
      </trkpt>
      <trkpt lat="43.61568" lon="3.34635">
        <ele>237.2</ele>
        <time>2024-03-21T15:49:00Z</time>
      </trkpt>
      <trkpt lat="43.6157" lon="3.34648">
        <ele>236.6</ele>
        <time>2024-03-21T15:49:01Z</time>
      </trkpt>
      <trkpt lat="43.61572" lon="3.34678">
        <ele>234.6</ele>
        <time>2024-03-21T15:49:03Z</time>
      </trkpt>
      <trkpt lat="43.61573" lon="3.34694">
        <ele>233.3</ele>
        <time>2024-03-21T15:49:04Z</time>
      </trkpt>
      <trkpt lat="43.61574" lon="3.34708">
        <ele>233.3</ele>
        <time>2024-03-21T15:49:05Z</time>
      </trkpt>
      <trkpt lat="43.6158" lon="3.34736">
        <ele>231.6</ele>
        <time>2024-03-21T15:49:07Z</time>
      </trkpt>
      <trkpt lat="43.61583" lon="3.34749">
        <ele>230.2</ele>
        <time>2024-03-21T15:49:08Z</time>
      </trkpt>
      <trkpt lat="43.61586" lon="3.34763">
        <ele>230.5</ele>
        <time>2024-03-21T15:49:09Z</time>
      </trkpt>
      <trkpt lat="43.61592" lon="3.34787">
        <ele>231.2</ele>
        <time>2024-03-21T15:49:11Z</time>
      </trkpt>
      <trkpt lat="43.61597" lon="3.34798">
        <ele>230.9</ele>
        <time>2024-03-21T15:49:12Z</time>
      </trkpt>
      <trkpt lat="43.61601" lon="3.34809">
        <ele>230.4</ele>
        <time>2024-03-21T15:49:13Z</time>
      </trkpt>
      <trkpt lat="43.61607" lon="3.34818">
        <ele>229.7</ele>
        <time>2024-03-21T15:49:14Z</time>
      </trkpt>
      <trkpt lat="43.61613" lon="3.34825">
        <ele>229.4</ele>
        <time>2024-03-21T15:49:15Z</time>
      </trkpt>
      <trkpt lat="43.6162" lon="3.3483">
        <ele>229.1</ele>
        <time>2024-03-21T15:49:16Z</time>
      </trkpt>
      <trkpt lat="43.61627" lon="3.34834">
        <ele>228.3</ele>
        <time>2024-03-21T15:49:17Z</time>
      </trkpt>
      <trkpt lat="43.61634" lon="3.34839">
        <ele>227.6</ele>
        <time>2024-03-21T15:49:18Z</time>
      </trkpt>
      <trkpt lat="43.6164" lon="3.34844">
        <ele>227.1</ele>
        <time>2024-03-21T15:49:19Z</time>
      </trkpt>
      <trkpt lat="43.61647" lon="3.3485">
        <ele>227.5</ele>
        <time>2024-03-21T15:49:20Z</time>
      </trkpt>
      <trkpt lat="43.61653" lon="3.34859">
        <ele>227.2</ele>
        <time>2024-03-21T15:49:21Z</time>
      </trkpt>
      <trkpt lat="43.61657" lon="3.34868">
        <ele>227.5</ele>
        <time>2024-03-21T15:49:22Z</time>
      </trkpt>
      <trkpt lat="43.61658" lon="3.34878">
        <ele>228.2</ele>
        <time>2024-03-21T15:49:23Z</time>
      </trkpt>
      <trkpt lat="43.61657" lon="3.34887">
        <ele>228.9</ele>
        <time>2024-03-21T15:49:24Z</time>
      </trkpt>
      <trkpt lat="43.61656" lon="3.34895">
        <ele>229.1</ele>
        <time>2024-03-21T15:49:25Z</time>
      </trkpt>
      <trkpt lat="43.61656" lon="3.34903">
        <ele>229.3</ele>
        <time>2024-03-21T15:49:26Z</time>
      </trkpt>
      <trkpt lat="43.61657" lon="3.34911">
        <ele>229.5</ele>
        <time>2024-03-21T15:49:27Z</time>
      </trkpt>
      <trkpt lat="43.61657" lon="3.34918">
        <ele>229.6</ele>
        <time>2024-03-21T15:49:28Z</time>
      </trkpt>
      <trkpt lat="43.61658" lon="3.34924">
        <ele>229.5</ele>
        <time>2024-03-21T15:49:29Z</time>
      </trkpt>
      <trkpt lat="43.61658" lon="3.34931">
        <ele>229.4</ele>
        <time>2024-03-21T15:49:30Z</time>
      </trkpt>
      <trkpt lat="43.61659" lon="3.34937">
        <ele>229.3</ele>
        <time>2024-03-21T15:49:31Z</time>
      </trkpt>
      <trkpt lat="43.61677" lon="3.3501">
        <ele>230.3</ele>
        <time>2024-03-21T15:49:46Z</time>
      </trkpt>
      <trkpt lat="43.61683" lon="3.3502">
        <ele>229.9</ele>
        <time>2024-03-21T15:49:48Z</time>
      </trkpt>
      <trkpt lat="43.61686" lon="3.35026">
        <ele>229.4</ele>
        <time>2024-03-21T15:49:49Z</time>
      </trkpt>
      <trkpt lat="43.6169" lon="3.35031">
        <ele>229.3</ele>
        <time>2024-03-21T15:49:50Z</time>
      </trkpt>
      <trkpt lat="43.61693" lon="3.35037">
        <ele>229.4</ele>
        <time>2024-03-21T15:49:51Z</time>
      </trkpt>
      <trkpt lat="43.61696" lon="3.35041">
        <ele>229.5</ele>
        <time>2024-03-21T15:49:52Z</time>
      </trkpt>
      <trkpt lat="43.61699" lon="3.35046">
        <ele>229.7</ele>
        <time>2024-03-21T15:49:53Z</time>
      </trkpt>
      <trkpt lat="43.61707" lon="3.35058">
        <ele>229.5</ele>
        <time>2024-03-21T15:49:57Z</time>
      </trkpt>
      <trkpt lat="43.61711" lon="3.35066">
        <ele>229</ele>
        <time>2024-03-21T15:49:59Z</time>
      </trkpt>
      <trkpt lat="43.61714" lon="3.3507">
        <ele>228.8</ele>
        <time>2024-03-21T15:50:00Z</time>
      </trkpt>
      <trkpt lat="43.61716" lon="3.35074">
        <ele>228.6</ele>
        <time>2024-03-21T15:50:01Z</time>
      </trkpt>
      <trkpt lat="43.61722" lon="3.35082">
        <ele>228.1</ele>
        <time>2024-03-21T15:50:03Z</time>
      </trkpt>
      <trkpt lat="43.61734" lon="3.35102">
        <ele>227.3</ele>
        <time>2024-03-21T15:50:07Z</time>
      </trkpt>
      <trkpt lat="43.61738" lon="3.35107">
        <ele>227.1</ele>
        <time>2024-03-21T15:50:08Z</time>
      </trkpt>
      <trkpt lat="43.61747" lon="3.35122">
        <ele>226.9</ele>
        <time>2024-03-21T15:50:11Z</time>
      </trkpt>
      <trkpt lat="43.61751" lon="3.3513">
        <ele>227.1</ele>
        <time>2024-03-21T15:50:13Z</time>
      </trkpt>
      <trkpt lat="43.61754" lon="3.35134">
        <ele>227.3</ele>
        <time>2024-03-21T15:50:14Z</time>
      </trkpt>
      <trkpt lat="43.61756" lon="3.35138">
        <ele>227.4</ele>
        <time>2024-03-21T15:50:15Z</time>
      </trkpt>
      <trkpt lat="43.61758" lon="3.35141">
        <ele>227.6</ele>
        <time>2024-03-21T15:50:16Z</time>
      </trkpt>
      <trkpt lat="43.61759" lon="3.35143">
        <ele>227.7</ele>
        <time>2024-03-21T15:50:17Z</time>
      </trkpt>
      <trkpt lat="43.61761" lon="3.35146">
        <ele>227.9</ele>
        <time>2024-03-21T15:50:18Z</time>
      </trkpt>
      <trkpt lat="43.61763" lon="3.35148">
        <ele>228.1</ele>
        <time>2024-03-21T15:50:19Z</time>
      </trkpt>
      <trkpt lat="43.61769" lon="3.35151">
        <ele>228.5</ele>
        <time>2024-03-21T15:50:22Z</time>
      </trkpt>
      <trkpt lat="43.6177" lon="3.35153">
        <ele>228.6</ele>
        <time>2024-03-21T15:50:23Z</time>
      </trkpt>
      <trkpt lat="43.61772" lon="3.35154">
        <ele>228.7</ele>
        <time>2024-03-21T15:50:24Z</time>
      </trkpt>
      <trkpt lat="43.61772" lon="3.35153">
        <ele>228.7</ele>
        <time>2024-03-21T15:50:25Z</time>
      </trkpt>
      <trkpt lat="43.61772" lon="3.35154">
        <ele>228.7</ele>
        <time>2024-03-21T15:50:41Z</time>
      </trkpt>
      <trkpt lat="43.61773" lon="3.35154">
        <ele>228.7</ele>
        <time>2024-03-21T15:50:57Z</time>
      </trkpt>
      <trkpt lat="43.61771" lon="3.35154">
        <ele>228.6</ele>
        <time>2024-03-21T15:51:29Z</time>
      </trkpt>
      <trkpt lat="43.61771" lon="3.35153">
        <ele>228.6</ele>
        <time>2024-03-21T15:51:31Z</time>
      </trkpt>
      <trkpt lat="43.61772" lon="3.35153">
        <ele>228.7</ele>
        <time>2024-03-21T15:51:39Z</time>
      </trkpt>
      <trkpt lat="43.61772" lon="3.35152">
        <ele>228.7</ele>
        <time>2024-03-21T15:52:43Z</time>
      </trkpt>
      <trkpt lat="43.61773" lon="3.35152">
        <ele>228.7</ele>
        <time>2024-03-21T15:53:03Z</time>
      </trkpt>
      <trkpt lat="43.61772" lon="3.35152">
        <ele>228.7</ele>
        <time>2024-03-21T15:53:19Z</time>
      </trkpt>
      <trkpt lat="43.61773" lon="3.35152">
        <ele>228.7</ele>
        <time>2024-03-21T15:53:35Z</time>
      </trkpt>
      <trkpt lat="43.61775" lon="3.35151">
        <ele>228.8</ele>
        <time>2024-03-21T15:53:48Z</time>
      </trkpt>
      <trkpt lat="43.61776" lon="3.35149">
        <ele>228.9</ele>
        <time>2024-03-21T15:53:49Z</time>
      </trkpt>
      <trkpt lat="43.61779" lon="3.35148">
        <ele>229.1</ele>
        <time>2024-03-21T15:53:50Z</time>
      </trkpt>
      <trkpt lat="43.61783" lon="3.35147">
        <ele>229.6</ele>
        <time>2024-03-21T15:53:51Z</time>
      </trkpt>
      <trkpt lat="43.61797" lon="3.35147">
        <ele>231.3</ele>
        <time>2024-03-21T15:53:56Z</time>
      </trkpt>
      <trkpt lat="43.61803" lon="3.35145">
        <ele>231.9</ele>
        <time>2024-03-21T15:53:58Z</time>
      </trkpt>
      <trkpt lat="43.61811" lon="3.35137">
        <ele>232.3</ele>
        <time>2024-03-21T15:54:02Z</time>
      </trkpt>
      <trkpt lat="43.61813" lon="3.35134">
        <ele>232.4</ele>
        <time>2024-03-21T15:54:03Z</time>
      </trkpt>
      <trkpt lat="43.61814" lon="3.35131">
        <ele>232.6</ele>
        <time>2024-03-21T15:54:04Z</time>
      </trkpt>
      <trkpt lat="43.61817" lon="3.35128">
        <ele>232.8</ele>
        <time>2024-03-21T15:54:05Z</time>
      </trkpt>
      <trkpt lat="43.61819" lon="3.35125">
        <ele>233</ele>
        <time>2024-03-21T15:54:06Z</time>
      </trkpt>
      <trkpt lat="43.61822" lon="3.35123">
        <ele>233.2</ele>
        <time>2024-03-21T15:54:07Z</time>
      </trkpt>
      <trkpt lat="43.61824" lon="3.35121">
        <ele>233.3</ele>
        <time>2024-03-21T15:54:08Z</time>
      </trkpt>
      <trkpt lat="43.61827" lon="3.35119">
        <ele>233.5</ele>
        <time>2024-03-21T15:54:09Z</time>
      </trkpt>
      <trkpt lat="43.6183" lon="3.35116">
        <ele>233.7</ele>
        <time>2024-03-21T15:54:10Z</time>
      </trkpt>
      <trkpt lat="43.61833" lon="3.35115">
        <ele>233.8</ele>
        <time>2024-03-21T15:54:11Z</time>
      </trkpt>
      <trkpt lat="43.61835" lon="3.35114">
        <ele>234</ele>
        <time>2024-03-21T15:54:12Z</time>
      </trkpt>
      <trkpt lat="43.61838" lon="3.35113">
        <ele>234.1</ele>
        <time>2024-03-21T15:54:13Z</time>
      </trkpt>
      <trkpt lat="43.6184" lon="3.35111">
        <ele>234.2</ele>
        <time>2024-03-21T15:54:14Z</time>
      </trkpt>
      <trkpt lat="43.61843" lon="3.3511">
        <ele>234.4</ele>
        <time>2024-03-21T15:54:15Z</time>
      </trkpt>
      <trkpt lat="43.61845" lon="3.35108">
        <ele>234.6</ele>
        <time>2024-03-21T15:54:16Z</time>
      </trkpt>
      <trkpt lat="43.61847" lon="3.35107">
        <ele>234.7</ele>
        <time>2024-03-21T15:54:17Z</time>
      </trkpt>
      <trkpt lat="43.61859" lon="3.35099">
        <ele>235.4</ele>
        <time>2024-03-21T15:54:21Z</time>
      </trkpt>
      <trkpt lat="43.61861" lon="3.35097">
        <ele>235.5</ele>
        <time>2024-03-21T15:54:22Z</time>
      </trkpt>
      <trkpt lat="43.61864" lon="3.35095">
        <ele>235.6</ele>
        <time>2024-03-21T15:54:23Z</time>
      </trkpt>
      <trkpt lat="43.61868" lon="3.35094">
        <ele>235.7</ele>
        <time>2024-03-21T15:54:24Z</time>
      </trkpt>
      <trkpt lat="43.61871" lon="3.35092">
        <ele>235.8</ele>
        <time>2024-03-21T15:54:25Z</time>
      </trkpt>
      <trkpt lat="43.61874" lon="3.35091">
        <ele>235.9</ele>
        <time>2024-03-21T15:54:26Z</time>
      </trkpt>
      <trkpt lat="43.61877" lon="3.35089">
        <ele>235.9</ele>
        <time>2024-03-21T15:54:27Z</time>
      </trkpt>
      <trkpt lat="43.6188" lon="3.35086">
        <ele>236</ele>
        <time>2024-03-21T15:54:28Z</time>
      </trkpt>
      <trkpt lat="43.61883" lon="3.35085">
        <ele>236</ele>
        <time>2024-03-21T15:54:29Z</time>
      </trkpt>
      <trkpt lat="43.61887" lon="3.35079">
        <ele>236.2</ele>
        <time>2024-03-21T15:54:31Z</time>
      </trkpt>
      <trkpt lat="43.61892" lon="3.35074">
        <ele>236.6</ele>
        <time>2024-03-21T15:54:33Z</time>
      </trkpt>
      <trkpt lat="43.61894" lon="3.3507">
        <ele>236.9</ele>
        <time>2024-03-21T15:54:34Z</time>
      </trkpt>
      <trkpt lat="43.619" lon="3.35064">
        <ele>237.3</ele>
        <time>2024-03-21T15:54:36Z</time>
      </trkpt>
      <trkpt lat="43.61903" lon="3.3506">
        <ele>237.5</ele>
        <time>2024-03-21T15:54:37Z</time>
      </trkpt>
      <trkpt lat="43.61908" lon="3.35055">
        <ele>237.7</ele>
        <time>2024-03-21T15:54:39Z</time>
      </trkpt>
      <trkpt lat="43.6191" lon="3.35051">
        <ele>237.9</ele>
        <time>2024-03-21T15:54:40Z</time>
      </trkpt>
      <trkpt lat="43.61913" lon="3.35049">
        <ele>238.1</ele>
        <time>2024-03-21T15:54:41Z</time>
      </trkpt>
      <trkpt lat="43.61916" lon="3.35048">
        <ele>238.2</ele>
        <time>2024-03-21T15:54:42Z</time>
      </trkpt>
      <trkpt lat="43.61928" lon="3.35048">
        <ele>238.9</ele>
        <time>2024-03-21T15:54:46Z</time>
      </trkpt>
      <trkpt lat="43.61931" lon="3.35049">
        <ele>239</ele>
        <time>2024-03-21T15:54:47Z</time>
      </trkpt>
      <trkpt lat="43.61955" lon="3.35055">
        <ele>240.2</ele>
        <time>2024-03-21T15:54:53Z</time>
      </trkpt>
      <trkpt lat="43.61958" lon="3.35055">
        <ele>240.5</ele>
        <time>2024-03-21T15:54:54Z</time>
      </trkpt>
      <trkpt lat="43.61962" lon="3.35056">
        <ele>240.9</ele>
        <time>2024-03-21T15:54:55Z</time>
      </trkpt>
      <trkpt lat="43.61965" lon="3.35057">
        <ele>241.2</ele>
        <time>2024-03-21T15:54:56Z</time>
      </trkpt>
      <trkpt lat="43.6197" lon="3.35057">
        <ele>241.8</ele>
        <time>2024-03-21T15:54:58Z</time>
      </trkpt>
      <trkpt lat="43.61971" lon="3.35056">
        <ele>241.9</ele>
        <time>2024-03-21T15:54:59Z</time>
      </trkpt>
      <trkpt lat="43.61978" lon="3.35056">
        <ele>242.6</ele>
        <time>2024-03-21T15:55:02Z</time>
      </trkpt>
      <trkpt lat="43.61982" lon="3.35054">
        <ele>243.2</ele>
        <time>2024-03-21T15:55:04Z</time>
      </trkpt>
      <trkpt lat="43.61985" lon="3.35053">
        <ele>243.6</ele>
        <time>2024-03-21T15:55:05Z</time>
      </trkpt>
      <trkpt lat="43.61987" lon="3.35052">
        <ele>243.9</ele>
        <time>2024-03-21T15:55:06Z</time>
      </trkpt>
      <trkpt lat="43.61993" lon="3.3505">
        <ele>244.6</ele>
        <time>2024-03-21T15:55:08Z</time>
      </trkpt>
      <trkpt lat="43.61995" lon="3.3505">
        <ele>244.8</ele>
        <time>2024-03-21T15:55:09Z</time>
      </trkpt>
      <trkpt lat="43.61997" lon="3.35049">
        <ele>245</ele>
        <time>2024-03-21T15:55:10Z</time>
      </trkpt>
      <trkpt lat="43.62006" lon="3.35049">
        <ele>245.7</ele>
        <time>2024-03-21T15:55:14Z</time>
      </trkpt>
      <trkpt lat="43.62009" lon="3.35048">
        <ele>245.9</ele>
        <time>2024-03-21T15:55:15Z</time>
      </trkpt>
      <trkpt lat="43.62028" lon="3.35048">
        <ele>247.3</ele>
        <time>2024-03-21T15:55:25Z</time>
      </trkpt>
      <trkpt lat="43.6203" lon="3.35049">
        <ele>247.4</ele>
        <time>2024-03-21T15:55:26Z</time>
      </trkpt>
      <trkpt lat="43.62034" lon="3.35047">
        <ele>247.8</ele>
        <time>2024-03-21T15:55:28Z</time>
      </trkpt>
      <trkpt lat="43.62036" lon="3.35048">
        <ele>247.9</ele>
        <time>2024-03-21T15:55:29Z</time>
      </trkpt>
      <trkpt lat="43.62041" lon="3.35048">
        <ele>248.4</ele>
        <time>2024-03-21T15:55:32Z</time>
      </trkpt>
      <trkpt lat="43.62043" lon="3.35049">
        <ele>248.5</ele>
        <time>2024-03-21T15:55:33Z</time>
      </trkpt>
      <trkpt lat="43.62046" lon="3.3505">
        <ele>248.6</ele>
        <time>2024-03-21T15:55:34Z</time>
      </trkpt>
      <trkpt lat="43.62048" lon="3.3505">
        <ele>248.8</ele>
        <time>2024-03-21T15:55:35Z</time>
      </trkpt>
      <trkpt lat="43.62051" lon="3.35051">
        <ele>249</ele>
        <time>2024-03-21T15:55:36Z</time>
      </trkpt>
      <trkpt lat="43.62053" lon="3.3505">
        <ele>249.2</ele>
        <time>2024-03-21T15:55:37Z</time>
      </trkpt>
      <trkpt lat="43.62056" lon="3.3505">
        <ele>249.4</ele>
        <time>2024-03-21T15:55:38Z</time>
      </trkpt>
      <trkpt lat="43.62057" lon="3.35049">
        <ele>249.6</ele>
        <time>2024-03-21T15:55:39Z</time>
      </trkpt>
      <trkpt lat="43.62059" lon="3.35048">
        <ele>249.8</ele>
        <time>2024-03-21T15:55:40Z</time>
      </trkpt>
      <trkpt lat="43.62063" lon="3.35044">
        <ele>250.4</ele>
        <time>2024-03-21T15:55:42Z</time>
      </trkpt>
      <trkpt lat="43.62065" lon="3.35043">
        <ele>250.6</ele>
        <time>2024-03-21T15:55:43Z</time>
      </trkpt>
      <trkpt lat="43.62071" lon="3.35037">
        <ele>251.4</ele>
        <time>2024-03-21T15:55:46Z</time>
      </trkpt>
      <trkpt lat="43.62073" lon="3.35036">
        <ele>251.7</ele>
        <time>2024-03-21T15:55:47Z</time>
      </trkpt>
      <trkpt lat="43.62079" lon="3.3503">
        <ele>252.5</ele>
        <time>2024-03-21T15:55:51Z</time>
      </trkpt>
      <trkpt lat="43.62081" lon="3.35027">
        <ele>252.9</ele>
        <time>2024-03-21T15:55:52Z</time>
      </trkpt>
      <trkpt lat="43.62082" lon="3.35024">
        <ele>253.2</ele>
        <time>2024-03-21T15:55:53Z</time>
      </trkpt>
      <trkpt lat="43.62084" lon="3.35022">
        <ele>253.4</ele>
        <time>2024-03-21T15:55:54Z</time>
      </trkpt>
      <trkpt lat="43.62088" lon="3.35014">
        <ele>254</ele>
        <time>2024-03-21T15:55:58Z</time>
      </trkpt>
      <trkpt lat="43.6209" lon="3.35008">
        <ele>254.5</ele>
        <time>2024-03-21T15:56:00Z</time>
      </trkpt>
      <trkpt lat="43.62091" lon="3.35006">
        <ele>254.7</ele>
        <time>2024-03-21T15:56:01Z</time>
      </trkpt>
      <trkpt lat="43.62093" lon="3.35003">
        <ele>255.1</ele>
        <time>2024-03-21T15:56:02Z</time>
      </trkpt>
      <trkpt lat="43.62105" lon="3.34991">
        <ele>256.4</ele>
        <time>2024-03-21T15:56:09Z</time>
      </trkpt>
      <trkpt lat="43.62106" lon="3.34989">
        <ele>256.5</ele>
        <time>2024-03-21T15:56:10Z</time>
      </trkpt>
      <trkpt lat="43.62108" lon="3.34986">
        <ele>256.8</ele>
        <time>2024-03-21T15:56:11Z</time>
      </trkpt>
      <trkpt lat="43.62109" lon="3.34983">
        <ele>257.1</ele>
        <time>2024-03-21T15:56:12Z</time>
      </trkpt>
      <trkpt lat="43.62111" lon="3.34981">
        <ele>257.4</ele>
        <time>2024-03-21T15:56:13Z</time>
      </trkpt>
      <trkpt lat="43.62113" lon="3.34977">
        <ele>257.7</ele>
        <time>2024-03-21T15:56:15Z</time>
      </trkpt>
      <trkpt lat="43.62114" lon="3.34974">
        <ele>257.9</ele>
        <time>2024-03-21T15:56:16Z</time>
      </trkpt>
      <trkpt lat="43.62114" lon="3.3497">
        <ele>258.3</ele>
        <time>2024-03-21T15:56:17Z</time>
      </trkpt>
      <trkpt lat="43.62116" lon="3.34968">
        <ele>258.5</ele>
        <time>2024-03-21T15:56:18Z</time>
      </trkpt>
      <trkpt lat="43.62118" lon="3.34962">
        <ele>259.1</ele>
        <time>2024-03-21T15:56:20Z</time>
      </trkpt>
      <trkpt lat="43.6212" lon="3.34958">
        <ele>259.5</ele>
        <time>2024-03-21T15:56:22Z</time>
      </trkpt>
      <trkpt lat="43.62121" lon="3.34955">
        <ele>259.8</ele>
        <time>2024-03-21T15:56:23Z</time>
      </trkpt>
      <trkpt lat="43.62123" lon="3.34951">
        <ele>260.3</ele>
        <time>2024-03-21T15:56:25Z</time>
      </trkpt>
      <trkpt lat="43.62125" lon="3.34945">
        <ele>261</ele>
        <time>2024-03-21T15:56:27Z</time>
      </trkpt>
      <trkpt lat="43.62127" lon="3.34942">
        <ele>261.2</ele>
        <time>2024-03-21T15:56:28Z</time>
      </trkpt>
      <trkpt lat="43.62129" lon="3.34938">
        <ele>261.5</ele>
        <time>2024-03-21T15:56:30Z</time>
      </trkpt>
      <trkpt lat="43.62131" lon="3.34936">
        <ele>261.7</ele>
        <time>2024-03-21T15:56:31Z</time>
      </trkpt>
      <trkpt lat="43.62132" lon="3.34933">
        <ele>261.9</ele>
        <time>2024-03-21T15:56:32Z</time>
      </trkpt>
      <trkpt lat="43.62134" lon="3.34931">
        <ele>262.1</ele>
        <time>2024-03-21T15:56:33Z</time>
      </trkpt>
      <trkpt lat="43.62135" lon="3.34929">
        <ele>262.3</ele>
        <time>2024-03-21T15:56:34Z</time>
      </trkpt>
      <trkpt lat="43.62137" lon="3.34928">
        <ele>262.5</ele>
        <time>2024-03-21T15:56:35Z</time>
      </trkpt>
      <trkpt lat="43.6215" lon="3.34915">
        <ele>262.7</ele>
        <time>2024-03-21T15:56:42Z</time>
      </trkpt>
      <trkpt lat="43.62156" lon="3.34912">
        <ele>262.7</ele>
        <time>2024-03-21T15:56:45Z</time>
      </trkpt>
      <trkpt lat="43.62158" lon="3.3491">
        <ele>262.7</ele>
        <time>2024-03-21T15:56:46Z</time>
      </trkpt>
      <trkpt lat="43.62159" lon="3.34908">
        <ele>262.8</ele>
        <time>2024-03-21T15:56:47Z</time>
      </trkpt>
      <trkpt lat="43.62163" lon="3.34904">
        <ele>263</ele>
        <time>2024-03-21T15:56:49Z</time>
      </trkpt>
      <trkpt lat="43.62164" lon="3.34901">
        <ele>263.2</ele>
        <time>2024-03-21T15:56:50Z</time>
      </trkpt>
      <trkpt lat="43.62166" lon="3.349">
        <ele>263.2</ele>
        <time>2024-03-21T15:56:51Z</time>
      </trkpt>
      <trkpt lat="43.62167" lon="3.34897">
        <ele>263.4</ele>
        <time>2024-03-21T15:56:52Z</time>
      </trkpt>
      <trkpt lat="43.62177" lon="3.34892">
        <ele>263.4</ele>
        <time>2024-03-21T15:56:57Z</time>
      </trkpt>
      <trkpt lat="43.6218" lon="3.34891">
        <ele>263.4</ele>
        <time>2024-03-21T15:56:58Z</time>
      </trkpt>
      <trkpt lat="43.62182" lon="3.3489">
        <ele>263.4</ele>
        <time>2024-03-21T15:56:59Z</time>
      </trkpt>
      <trkpt lat="43.62185" lon="3.34888">
        <ele>263.4</ele>
        <time>2024-03-21T15:57:00Z</time>
      </trkpt>
      <trkpt lat="43.62188" lon="3.34887">
        <ele>263.3</ele>
        <time>2024-03-21T15:57:01Z</time>
      </trkpt>
      <trkpt lat="43.6219" lon="3.34886">
        <ele>263.3</ele>
        <time>2024-03-21T15:57:02Z</time>
      </trkpt>
      <trkpt lat="43.62196" lon="3.34884">
        <ele>263.2</ele>
        <time>2024-03-21T15:57:04Z</time>
      </trkpt>
      <trkpt lat="43.62198" lon="3.34882">
        <ele>263.3</ele>
        <time>2024-03-21T15:57:05Z</time>
      </trkpt>
      <trkpt lat="43.62201" lon="3.3488">
        <ele>263.4</ele>
        <time>2024-03-21T15:57:06Z</time>
      </trkpt>
      <trkpt lat="43.62203" lon="3.34879">
        <ele>263.5</ele>
        <time>2024-03-21T15:57:07Z</time>
      </trkpt>
      <trkpt lat="43.62205" lon="3.34877">
        <ele>263.6</ele>
        <time>2024-03-21T15:57:08Z</time>
      </trkpt>
      <trkpt lat="43.62207" lon="3.34876">
        <ele>263.7</ele>
        <time>2024-03-21T15:57:09Z</time>
      </trkpt>
      <trkpt lat="43.62208" lon="3.34873">
        <ele>263.9</ele>
        <time>2024-03-21T15:57:10Z</time>
      </trkpt>
      <trkpt lat="43.62209" lon="3.34873">
        <ele>263.9</ele>
        <time>2024-03-21T15:57:11Z</time>
      </trkpt>
      <trkpt lat="43.6221" lon="3.34872">
        <ele>263.9</ele>
        <time>2024-03-21T15:57:12Z</time>
      </trkpt>
      <trkpt lat="43.6221" lon="3.34871">
        <ele>264</ele>
        <time>2024-03-21T15:57:13Z</time>
      </trkpt>
      <trkpt lat="43.62211" lon="3.3487">
        <ele>264.1</ele>
        <time>2024-03-21T15:57:14Z</time>
      </trkpt>
      <trkpt lat="43.62213" lon="3.3487">
        <ele>264.1</ele>
        <time>2024-03-21T15:57:15Z</time>
      </trkpt>
      <trkpt lat="43.62217" lon="3.34872">
        <ele>264.1</ele>
        <time>2024-03-21T15:57:17Z</time>
      </trkpt>
      <trkpt lat="43.6222" lon="3.34874">
        <ele>264</ele>
        <time>2024-03-21T15:57:18Z</time>
      </trkpt>
      <trkpt lat="43.62222" lon="3.34876">
        <ele>263.9</ele>
        <time>2024-03-21T15:57:19Z</time>
      </trkpt>
      <trkpt lat="43.62224" lon="3.34876">
        <ele>264.2</ele>
        <time>2024-03-21T15:57:20Z</time>
      </trkpt>
      <trkpt lat="43.62227" lon="3.34878">
        <ele>264.6</ele>
        <time>2024-03-21T15:57:21Z</time>
      </trkpt>
      <trkpt lat="43.62237" lon="3.34888">
        <ele>265.7</ele>
        <time>2024-03-21T15:57:26Z</time>
      </trkpt>
      <trkpt lat="43.6224" lon="3.34889">
        <ele>266.2</ele>
        <time>2024-03-21T15:57:27Z</time>
      </trkpt>
      <trkpt lat="43.62241" lon="3.34892">
        <ele>266</ele>
        <time>2024-03-21T15:57:28Z</time>
      </trkpt>
      <trkpt lat="43.62244" lon="3.34894">
        <ele>266.3</ele>
        <time>2024-03-21T15:57:29Z</time>
      </trkpt>
      <trkpt lat="43.62248" lon="3.34896">
        <ele>266.9</ele>
        <time>2024-03-21T15:57:31Z</time>
      </trkpt>
      <trkpt lat="43.62249" lon="3.34898">
        <ele>266.8</ele>
        <time>2024-03-21T15:57:32Z</time>
      </trkpt>
      <trkpt lat="43.62253" lon="3.34902">
        <ele>267.4</ele>
        <time>2024-03-21T15:57:34Z</time>
      </trkpt>
      <trkpt lat="43.62254" lon="3.34904">
        <ele>267.4</ele>
        <time>2024-03-21T15:57:35Z</time>
      </trkpt>
      <trkpt lat="43.62256" lon="3.34905">
        <ele>267.7</ele>
        <time>2024-03-21T15:57:36Z</time>
      </trkpt>
      <trkpt lat="43.6226" lon="3.34905">
        <ele>268.7</ele>
        <time>2024-03-21T15:57:38Z</time>
      </trkpt>
      <trkpt lat="43.62262" lon="3.34904">
        <ele>269.3</ele>
        <time>2024-03-21T15:57:39Z</time>
      </trkpt>
      <trkpt lat="43.6227" lon="3.34904">
        <ele>271.3</ele>
        <time>2024-03-21T15:57:43Z</time>
      </trkpt>
      <trkpt lat="43.62274" lon="3.34902">
        <ele>272.7</ele>
        <time>2024-03-21T15:57:45Z</time>
      </trkpt>
      <trkpt lat="43.62287" lon="3.34902">
        <ele>274.4</ele>
        <time>2024-03-21T15:57:52Z</time>
      </trkpt>
      <trkpt lat="43.62289" lon="3.34901">
        <ele>274.8</ele>
        <time>2024-03-21T15:57:53Z</time>
      </trkpt>
      <trkpt lat="43.62292" lon="3.34901">
        <ele>275</ele>
        <time>2024-03-21T15:57:55Z</time>
      </trkpt>
      <trkpt lat="43.62294" lon="3.349">
        <ele>275.4</ele>
        <time>2024-03-21T15:57:56Z</time>
      </trkpt>
      <trkpt lat="43.62298" lon="3.34894">
        <ele>277.2</ele>
        <time>2024-03-21T15:57:58Z</time>
      </trkpt>
      <trkpt lat="43.62301" lon="3.34891">
        <ele>278.1</ele>
        <time>2024-03-21T15:58:00Z</time>
      </trkpt>
      <trkpt lat="43.62302" lon="3.34888">
        <ele>278.7</ele>
        <time>2024-03-21T15:58:01Z</time>
      </trkpt>
      <trkpt lat="43.62304" lon="3.34885">
        <ele>278.6</ele>
        <time>2024-03-21T15:58:02Z</time>
      </trkpt>
      <trkpt lat="43.62305" lon="3.34883">
        <ele>278.5</ele>
        <time>2024-03-21T15:58:03Z</time>
      </trkpt>
      <trkpt lat="43.62307" lon="3.34881">
        <ele>278.2</ele>
        <time>2024-03-21T15:58:04Z</time>
      </trkpt>
      <trkpt lat="43.62308" lon="3.34878">
        <ele>277.9</ele>
        <time>2024-03-21T15:58:05Z</time>
      </trkpt>
      <trkpt lat="43.6231" lon="3.34877">
        <ele>277.7</ele>
        <time>2024-03-21T15:58:06Z</time>
      </trkpt>
      <trkpt lat="43.62311" lon="3.34875">
        <ele>277.5</ele>
        <time>2024-03-21T15:58:07Z</time>
      </trkpt>
      <trkpt lat="43.62313" lon="3.34872">
        <ele>277.3</ele>
        <time>2024-03-21T15:58:08Z</time>
      </trkpt>
      <trkpt lat="43.62314" lon="3.3487">
        <ele>277.3</ele>
        <time>2024-03-21T15:58:09Z</time>
      </trkpt>
      <trkpt lat="43.62315" lon="3.34867">
        <ele>277.3</ele>
        <time>2024-03-21T15:58:10Z</time>
      </trkpt>
      <trkpt lat="43.62317" lon="3.34865">
        <ele>277.3</ele>
        <time>2024-03-21T15:58:11Z</time>
      </trkpt>
      <trkpt lat="43.62323" lon="3.34856">
        <ele>277.4</ele>
        <time>2024-03-21T15:58:14Z</time>
      </trkpt>
      <trkpt lat="43.62325" lon="3.34854">
        <ele>277.5</ele>
        <time>2024-03-21T15:58:15Z</time>
      </trkpt>
      <trkpt lat="43.62327" lon="3.34851">
        <ele>277.5</ele>
        <time>2024-03-21T15:58:16Z</time>
      </trkpt>
      <trkpt lat="43.62338" lon="3.3484">
        <ele>277.9</ele>
        <time>2024-03-21T15:58:20Z</time>
      </trkpt>
      <trkpt lat="43.62341" lon="3.34838">
        <ele>278</ele>
        <time>2024-03-21T15:58:21Z</time>
      </trkpt>
      <trkpt lat="43.62343" lon="3.34837">
        <ele>278.1</ele>
        <time>2024-03-21T15:58:22Z</time>
      </trkpt>
      <trkpt lat="43.62345" lon="3.34835">
        <ele>278.3</ele>
        <time>2024-03-21T15:58:23Z</time>
      </trkpt>
      <trkpt lat="43.62348" lon="3.34835">
        <ele>278.3</ele>
        <time>2024-03-21T15:58:24Z</time>
      </trkpt>
      <trkpt lat="43.62351" lon="3.34834">
        <ele>278.5</ele>
        <time>2024-03-21T15:58:25Z</time>
      </trkpt>
      <trkpt lat="43.62355" lon="3.34834">
        <ele>278.7</ele>
        <time>2024-03-21T15:58:26Z</time>
      </trkpt>
      <trkpt lat="43.62364" lon="3.34831">
        <ele>279</ele>
        <time>2024-03-21T15:58:29Z</time>
      </trkpt>
      <trkpt lat="43.62373" lon="3.34825">
        <ele>279</ele>
        <time>2024-03-21T15:58:32Z</time>
      </trkpt>
      <trkpt lat="43.62375" lon="3.34822">
        <ele>279.4</ele>
        <time>2024-03-21T15:58:33Z</time>
      </trkpt>
      <trkpt lat="43.62378" lon="3.34819">
        <ele>279.8</ele>
        <time>2024-03-21T15:58:34Z</time>
      </trkpt>
      <trkpt lat="43.6238" lon="3.34815">
        <ele>280.5</ele>
        <time>2024-03-21T15:58:35Z</time>
      </trkpt>
      <trkpt lat="43.62384" lon="3.34809">
        <ele>281.5</ele>
        <time>2024-03-21T15:58:37Z</time>
      </trkpt>
      <trkpt lat="43.62387" lon="3.34807">
        <ele>281.8</ele>
        <time>2024-03-21T15:58:38Z</time>
      </trkpt>
      <trkpt lat="43.62391" lon="3.34801">
        <ele>281.9</ele>
        <time>2024-03-21T15:58:40Z</time>
      </trkpt>
      <trkpt lat="43.62393" lon="3.34799">
        <ele>281.7</ele>
        <time>2024-03-21T15:58:41Z</time>
      </trkpt>
      <trkpt lat="43.62396" lon="3.34797">
        <ele>281.5</ele>
        <time>2024-03-21T15:58:42Z</time>
      </trkpt>
      <trkpt lat="43.62398" lon="3.34795">
        <ele>281.4</ele>
        <time>2024-03-21T15:58:43Z</time>
      </trkpt>
      <trkpt lat="43.624" lon="3.34792">
        <ele>281.5</ele>
        <time>2024-03-21T15:58:44Z</time>
      </trkpt>
      <trkpt lat="43.62403" lon="3.3479">
        <ele>281.4</ele>
        <time>2024-03-21T15:58:45Z</time>
      </trkpt>
      <trkpt lat="43.62407" lon="3.34784">
        <ele>281.7</ele>
        <time>2024-03-21T15:58:47Z</time>
      </trkpt>
      <trkpt lat="43.62408" lon="3.34782">
        <ele>281.8</ele>
        <time>2024-03-21T15:58:48Z</time>
      </trkpt>
      <trkpt lat="43.6241" lon="3.34781">
        <ele>281.9</ele>
        <time>2024-03-21T15:58:49Z</time>
      </trkpt>
      <trkpt lat="43.62411" lon="3.34779">
        <ele>282.1</ele>
        <time>2024-03-21T15:58:50Z</time>
      </trkpt>
      <trkpt lat="43.62413" lon="3.34778">
        <ele>282.1</ele>
        <time>2024-03-21T15:58:51Z</time>
      </trkpt>
      <trkpt lat="43.62416" lon="3.34775">
        <ele>281.9</ele>
        <time>2024-03-21T15:58:53Z</time>
      </trkpt>
      <trkpt lat="43.62418" lon="3.34771">
        <ele>281.6</ele>
        <time>2024-03-21T15:58:55Z</time>
      </trkpt>
      <trkpt lat="43.62422" lon="3.34771">
        <ele>281.3</ele>
        <time>2024-03-21T15:58:57Z</time>
      </trkpt>
      <trkpt lat="43.62425" lon="3.34772">
        <ele>281.1</ele>
        <time>2024-03-21T15:58:58Z</time>
      </trkpt>
      <trkpt lat="43.62429" lon="3.34772">
        <ele>280.7</ele>
        <time>2024-03-21T15:58:59Z</time>
      </trkpt>
      <trkpt lat="43.62437" lon="3.34774">
        <ele>280</ele>
        <time>2024-03-21T15:59:01Z</time>
      </trkpt>
      <trkpt lat="43.62441" lon="3.34774">
        <ele>279.6</ele>
        <time>2024-03-21T15:59:02Z</time>
      </trkpt>
      <trkpt lat="43.62456" lon="3.34777">
        <ele>280.3</ele>
        <time>2024-03-21T15:59:05Z</time>
      </trkpt>
      <trkpt lat="43.62461" lon="3.3478">
        <ele>280.3</ele>
        <time>2024-03-21T15:59:06Z</time>
      </trkpt>
      <trkpt lat="43.62465" lon="3.34783">
        <ele>279.9</ele>
        <time>2024-03-21T15:59:07Z</time>
      </trkpt>
      <trkpt lat="43.62468" lon="3.34786">
        <ele>279.4</ele>
        <time>2024-03-21T15:59:08Z</time>
      </trkpt>
      <trkpt lat="43.62471" lon="3.34788">
        <ele>279</ele>
        <time>2024-03-21T15:59:09Z</time>
      </trkpt>
      <trkpt lat="43.62474" lon="3.34791">
        <ele>278.5</ele>
        <time>2024-03-21T15:59:10Z</time>
      </trkpt>
      <trkpt lat="43.62478" lon="3.34794">
        <ele>278.5</ele>
        <time>2024-03-21T15:59:11Z</time>
      </trkpt>
      <trkpt lat="43.62481" lon="3.34798">
        <ele>278.1</ele>
        <time>2024-03-21T15:59:12Z</time>
      </trkpt>
      <trkpt lat="43.62484" lon="3.34801">
        <ele>278.1</ele>
        <time>2024-03-21T15:59:13Z</time>
      </trkpt>
      <trkpt lat="43.62488" lon="3.34802">
        <ele>278.8</ele>
        <time>2024-03-21T15:59:14Z</time>
      </trkpt>
      <trkpt lat="43.62491" lon="3.34804">
        <ele>279.1</ele>
        <time>2024-03-21T15:59:15Z</time>
      </trkpt>
      <trkpt lat="43.62494" lon="3.34805">
        <ele>279.6</ele>
        <time>2024-03-21T15:59:16Z</time>
      </trkpt>
      <trkpt lat="43.62496" lon="3.34806">
        <ele>279.9</ele>
        <time>2024-03-21T15:59:17Z</time>
      </trkpt>
      <trkpt lat="43.62499" lon="3.34809">
        <ele>279.9</ele>
        <time>2024-03-21T15:59:19Z</time>
      </trkpt>
      <trkpt lat="43.62503" lon="3.34809">
        <ele>280.6</ele>
        <time>2024-03-21T15:59:21Z</time>
      </trkpt>
      <trkpt lat="43.62506" lon="3.34807">
        <ele>281.5</ele>
        <time>2024-03-21T15:59:22Z</time>
      </trkpt>
      <trkpt lat="43.62509" lon="3.34806">
        <ele>282.2</ele>
        <time>2024-03-21T15:59:23Z</time>
      </trkpt>
      <trkpt lat="43.62513" lon="3.34805">
        <ele>283</ele>
        <time>2024-03-21T15:59:24Z</time>
      </trkpt>
      <trkpt lat="43.62516" lon="3.34806">
        <ele>283.2</ele>
        <time>2024-03-21T15:59:25Z</time>
      </trkpt>
      <trkpt lat="43.6252" lon="3.34808">
        <ele>283.4</ele>
        <time>2024-03-21T15:59:26Z</time>
      </trkpt>
      <trkpt lat="43.62524" lon="3.34812">
        <ele>283.2</ele>
        <time>2024-03-21T15:59:27Z</time>
      </trkpt>
      <trkpt lat="43.62528" lon="3.34815">
        <ele>283.3</ele>
        <time>2024-03-21T15:59:28Z</time>
      </trkpt>
      <trkpt lat="43.62538" lon="3.34819">
        <ele>283.3</ele>
        <time>2024-03-21T15:59:30Z</time>
      </trkpt>
      <trkpt lat="43.6255" lon="3.34831">
        <ele>282</ele>
        <time>2024-03-21T15:59:34Z</time>
      </trkpt>
      <trkpt lat="43.62554" lon="3.34833">
        <ele>281.9</ele>
        <time>2024-03-21T15:59:35Z</time>
      </trkpt>
      <trkpt lat="43.62563" lon="3.34833">
        <ele>282.9</ele>
        <time>2024-03-21T15:59:37Z</time>
      </trkpt>
      <trkpt lat="43.62567" lon="3.34834">
        <ele>283.1</ele>
        <time>2024-03-21T15:59:38Z</time>
      </trkpt>
      <trkpt lat="43.62573" lon="3.34832">
        <ele>284.1</ele>
        <time>2024-03-21T15:59:40Z</time>
      </trkpt>
      <trkpt lat="43.62579" lon="3.34828">
        <ele>285.2</ele>
        <time>2024-03-21T15:59:42Z</time>
      </trkpt>
      <trkpt lat="43.62582" lon="3.34825">
        <ele>285.8</ele>
        <time>2024-03-21T15:59:43Z</time>
      </trkpt>
      <trkpt lat="43.62585" lon="3.34823">
        <ele>286.3</ele>
        <time>2024-03-21T15:59:44Z</time>
      </trkpt>
      <trkpt lat="43.62588" lon="3.34822">
        <ele>286.7</ele>
        <time>2024-03-21T15:59:45Z</time>
      </trkpt>
      <trkpt lat="43.62592" lon="3.34822">
        <ele>287</ele>
        <time>2024-03-21T15:59:46Z</time>
      </trkpt>
      <trkpt lat="43.62601" lon="3.34828">
        <ele>287.4</ele>
        <time>2024-03-21T15:59:49Z</time>
      </trkpt>
      <trkpt lat="43.62603" lon="3.34831">
        <ele>287.3</ele>
        <time>2024-03-21T15:59:50Z</time>
      </trkpt>
      <trkpt lat="43.62606" lon="3.34835">
        <ele>287.4</ele>
        <time>2024-03-21T15:59:51Z</time>
      </trkpt>
      <trkpt lat="43.62607" lon="3.3484">
        <ele>287.2</ele>
        <time>2024-03-21T15:59:52Z</time>
      </trkpt>
      <trkpt lat="43.62607" lon="3.34849">
        <ele>286.8</ele>
        <time>2024-03-21T15:59:54Z</time>
      </trkpt>
      <trkpt lat="43.62608" lon="3.34854">
        <ele>286.8</ele>
        <time>2024-03-21T15:59:55Z</time>
      </trkpt>
      <trkpt lat="43.62608" lon="3.34858">
        <ele>286.6</ele>
        <time>2024-03-21T15:59:56Z</time>
      </trkpt>
      <trkpt lat="43.62609" lon="3.34862">
        <ele>286.6</ele>
        <time>2024-03-21T15:59:57Z</time>
      </trkpt>
      <trkpt lat="43.6261" lon="3.34865">
        <ele>286.5</ele>
        <time>2024-03-21T15:59:58Z</time>
      </trkpt>
      <trkpt lat="43.62611" lon="3.34869">
        <ele>286.4</ele>
        <time>2024-03-21T15:59:59Z</time>
      </trkpt>
      <trkpt lat="43.62611" lon="3.34871">
        <ele>286.3</ele>
        <time>2024-03-21T16:00:00Z</time>
      </trkpt>
      <trkpt lat="43.62612" lon="3.34874">
        <ele>286.2</ele>
        <time>2024-03-21T16:00:01Z</time>
      </trkpt>
      <trkpt lat="43.62613" lon="3.34879">
        <ele>286</ele>
        <time>2024-03-21T16:00:02Z</time>
      </trkpt>
      <trkpt lat="43.62613" lon="3.34888">
        <ele>285.3</ele>
        <time>2024-03-21T16:00:04Z</time>
      </trkpt>
      <trkpt lat="43.62614" lon="3.34893">
        <ele>285.3</ele>
        <time>2024-03-21T16:00:05Z</time>
      </trkpt>
      <trkpt lat="43.62617" lon="3.34899">
        <ele>285.4</ele>
        <time>2024-03-21T16:00:06Z</time>
      </trkpt>
      <trkpt lat="43.6262" lon="3.34903">
        <ele>285.6</ele>
        <time>2024-03-21T16:00:07Z</time>
      </trkpt>
      <trkpt lat="43.62625" lon="3.34908">
        <ele>286</ele>
        <time>2024-03-21T16:00:08Z</time>
      </trkpt>
      <trkpt lat="43.62629" lon="3.34911">
        <ele>286.3</ele>
        <time>2024-03-21T16:00:09Z</time>
      </trkpt>
      <trkpt lat="43.62632" lon="3.34916">
        <ele>286.3</ele>
        <time>2024-03-21T16:00:10Z</time>
      </trkpt>
      <trkpt lat="43.62636" lon="3.34926">
        <ele>285.7</ele>
        <time>2024-03-21T16:00:12Z</time>
      </trkpt>
      <trkpt lat="43.62639" lon="3.3493">
        <ele>285.6</ele>
        <time>2024-03-21T16:00:13Z</time>
      </trkpt>
      <trkpt lat="43.62643" lon="3.34933">
        <ele>285.4</ele>
        <time>2024-03-21T16:00:14Z</time>
      </trkpt>
      <trkpt lat="43.62646" lon="3.34937">
        <ele>285.1</ele>
        <time>2024-03-21T16:00:15Z</time>
      </trkpt>
      <trkpt lat="43.62649" lon="3.3494">
        <ele>284.9</ele>
        <time>2024-03-21T16:00:16Z</time>
      </trkpt>
      <trkpt lat="43.62653" lon="3.34943">
        <ele>284.7</ele>
        <time>2024-03-21T16:00:17Z</time>
      </trkpt>
      <trkpt lat="43.62657" lon="3.34945">
        <ele>284.6</ele>
        <time>2024-03-21T16:00:18Z</time>
      </trkpt>
      <trkpt lat="43.62661" lon="3.34948">
        <ele>284.3</ele>
        <time>2024-03-21T16:00:19Z</time>
      </trkpt>
      <trkpt lat="43.62671" lon="3.34952">
        <ele>284.5</ele>
        <time>2024-03-21T16:00:21Z</time>
      </trkpt>
      <trkpt lat="43.62687" lon="3.34964">
        <ele>284.6</ele>
        <time>2024-03-21T16:00:25Z</time>
      </trkpt>
      <trkpt lat="43.62691" lon="3.34968">
        <ele>284.4</ele>
        <time>2024-03-21T16:00:26Z</time>
      </trkpt>
      <trkpt lat="43.62696" lon="3.34969">
        <ele>284.6</ele>
        <time>2024-03-21T16:00:27Z</time>
      </trkpt>
      <trkpt lat="43.627" lon="3.34968">
        <ele>285</ele>
        <time>2024-03-21T16:00:28Z</time>
      </trkpt>
      <trkpt lat="43.62705" lon="3.34967">
        <ele>285.3</ele>
        <time>2024-03-21T16:00:29Z</time>
      </trkpt>
      <trkpt lat="43.6271" lon="3.34968">
        <ele>285.3</ele>
        <time>2024-03-21T16:00:30Z</time>
      </trkpt>
      <trkpt lat="43.62716" lon="3.34967">
        <ele>285.7</ele>
        <time>2024-03-21T16:00:31Z</time>
      </trkpt>
      <trkpt lat="43.62721" lon="3.34965">
        <ele>286.3</ele>
        <time>2024-03-21T16:00:32Z</time>
      </trkpt>
      <trkpt lat="43.62733" lon="3.34962">
        <ele>287.8</ele>
        <time>2024-03-21T16:00:35Z</time>
      </trkpt>
      <trkpt lat="43.62736" lon="3.34963">
        <ele>288</ele>
        <time>2024-03-21T16:00:36Z</time>
      </trkpt>
      <trkpt lat="43.62742" lon="3.34969">
        <ele>288.1</ele>
        <time>2024-03-21T16:00:38Z</time>
      </trkpt>
      <trkpt lat="43.62744" lon="3.34972">
        <ele>288.2</ele>
        <time>2024-03-21T16:00:39Z</time>
      </trkpt>
      <trkpt lat="43.62745" lon="3.34975">
        <ele>288.2</ele>
        <time>2024-03-21T16:00:40Z</time>
      </trkpt>
      <trkpt lat="43.62747" lon="3.34979">
        <ele>288.3</ele>
        <time>2024-03-21T16:00:41Z</time>
      </trkpt>
      <trkpt lat="43.6275" lon="3.34981">
        <ele>288.7</ele>
        <time>2024-03-21T16:00:42Z</time>
      </trkpt>
      <trkpt lat="43.62752" lon="3.34982">
        <ele>288.9</ele>
        <time>2024-03-21T16:00:43Z</time>
      </trkpt>
      <trkpt lat="43.62755" lon="3.34983">
        <ele>289.2</ele>
        <time>2024-03-21T16:00:44Z</time>
      </trkpt>
      <trkpt lat="43.62757" lon="3.34984">
        <ele>289.4</ele>
        <time>2024-03-21T16:00:45Z</time>
      </trkpt>
      <trkpt lat="43.62763" lon="3.34986">
        <ele>289.9</ele>
        <time>2024-03-21T16:00:47Z</time>
      </trkpt>
      <trkpt lat="43.62765" lon="3.34988">
        <ele>290</ele>
        <time>2024-03-21T16:00:48Z</time>
      </trkpt>
      <trkpt lat="43.62767" lon="3.34991">
        <ele>289.9</ele>
        <time>2024-03-21T16:00:49Z</time>
      </trkpt>
      <trkpt lat="43.6277" lon="3.34992">
        <ele>290.1</ele>
        <time>2024-03-21T16:00:50Z</time>
      </trkpt>
      <trkpt lat="43.62775" lon="3.34992">
        <ele>290.6</ele>
        <time>2024-03-21T16:00:52Z</time>
      </trkpt>
      <trkpt lat="43.62778" lon="3.34993">
        <ele>290.8</ele>
        <time>2024-03-21T16:00:53Z</time>
      </trkpt>
      <trkpt lat="43.62786" lon="3.34993">
        <ele>291.5</ele>
        <time>2024-03-21T16:00:56Z</time>
      </trkpt>
      <trkpt lat="43.6279" lon="3.34992">
        <ele>292</ele>
        <time>2024-03-21T16:00:57Z</time>
      </trkpt>
      <trkpt lat="43.62796" lon="3.34992">
        <ele>292.6</ele>
        <time>2024-03-21T16:00:59Z</time>
      </trkpt>
      <trkpt lat="43.62798" lon="3.34991">
        <ele>292.9</ele>
        <time>2024-03-21T16:01:00Z</time>
      </trkpt>
      <trkpt lat="43.62801" lon="3.34992">
        <ele>293</ele>
        <time>2024-03-21T16:01:01Z</time>
      </trkpt>
      <trkpt lat="43.62803" lon="3.34992">
        <ele>293.2</ele>
        <time>2024-03-21T16:01:02Z</time>
      </trkpt>
      <trkpt lat="43.62805" lon="3.34993">
        <ele>293.2</ele>
        <time>2024-03-21T16:01:03Z</time>
      </trkpt>
      <trkpt lat="43.62811" lon="3.34993">
        <ele>293.7</ele>
        <time>2024-03-21T16:01:05Z</time>
      </trkpt>
      <trkpt lat="43.62813" lon="3.34994">
        <ele>293.7</ele>
        <time>2024-03-21T16:01:06Z</time>
      </trkpt>
      <trkpt lat="43.62815" lon="3.34994">
        <ele>293.8</ele>
        <time>2024-03-21T16:01:07Z</time>
      </trkpt>
      <trkpt lat="43.62818" lon="3.34996">
        <ele>293.7</ele>
        <time>2024-03-21T16:01:08Z</time>
      </trkpt>
      <trkpt lat="43.6282" lon="3.34999">
        <ele>293.2</ele>
        <time>2024-03-21T16:01:09Z</time>
      </trkpt>
      <trkpt lat="43.62824" lon="3.35001">
        <ele>293.3</ele>
        <time>2024-03-21T16:01:11Z</time>
      </trkpt>
      <trkpt lat="43.62827" lon="3.35002">
        <ele>293.5</ele>
        <time>2024-03-21T16:01:12Z</time>
      </trkpt>
      <trkpt lat="43.62832" lon="3.35002">
        <ele>293.8</ele>
        <time>2024-03-21T16:01:14Z</time>
      </trkpt>
      <trkpt lat="43.62834" lon="3.35003">
        <ele>294</ele>
        <time>2024-03-21T16:01:15Z</time>
      </trkpt>
      <trkpt lat="43.6284" lon="3.35003">
        <ele>294.8</ele>
        <time>2024-03-21T16:01:17Z</time>
      </trkpt>
      <trkpt lat="43.62841" lon="3.35002">
        <ele>295</ele>
        <time>2024-03-21T16:01:18Z</time>
      </trkpt>
      <trkpt lat="43.62845" lon="3.35002">
        <ele>295.6</ele>
        <time>2024-03-21T16:01:21Z</time>
      </trkpt>
      <trkpt lat="43.62846" lon="3.35001">
        <ele>295.8</ele>
        <time>2024-03-21T16:01:22Z</time>
      </trkpt>
      <trkpt lat="43.62847" lon="3.35002">
        <ele>295.9</ele>
        <time>2024-03-21T16:01:23Z</time>
      </trkpt>
      <trkpt lat="43.62849" lon="3.35001">
        <ele>296.2</ele>
        <time>2024-03-21T16:01:24Z</time>
      </trkpt>
      <trkpt lat="43.62851" lon="3.35001">
        <ele>296.5</ele>
        <time>2024-03-21T16:01:25Z</time>
      </trkpt>
      <trkpt lat="43.62853" lon="3.35">
        <ele>296.8</ele>
        <time>2024-03-21T16:01:26Z</time>
      </trkpt>
      <trkpt lat="43.62856" lon="3.35">
        <ele>297.3</ele>
        <time>2024-03-21T16:01:31Z</time>
      </trkpt>
      <trkpt lat="43.62856" lon="3.34999">
        <ele>297.5</ele>
        <time>2024-03-21T16:01:32Z</time>
      </trkpt>
      <trkpt lat="43.62856" lon="3.35">
        <ele>297.3</ele>
        <time>2024-03-21T16:01:34Z</time>
      </trkpt>
      <trkpt lat="43.62857" lon="3.35">
        <ele>297.4</ele>
        <time>2024-03-21T16:01:35Z</time>
      </trkpt>
      <trkpt lat="43.62858" lon="3.34998">
        <ele>298</ele>
        <time>2024-03-21T16:01:36Z</time>
      </trkpt>
      <trkpt lat="43.62859" lon="3.34997">
        <ele>298.3</ele>
        <time>2024-03-21T16:01:40Z</time>
      </trkpt>
      <trkpt lat="43.62858" lon="3.34997">
        <ele>298.2</ele>
        <time>2024-03-21T16:01:44Z</time>
      </trkpt>
      <trkpt lat="43.62862" lon="3.34997">
        <ele>298.8</ele>
        <time>2024-03-21T16:01:51Z</time>
      </trkpt>
      <trkpt lat="43.62862" lon="3.34996">
        <ele>299</ele>
        <time>2024-03-21T16:01:53Z</time>
      </trkpt>
      <trkpt lat="43.62866" lon="3.34996">
        <ele>299.7</ele>
        <time>2024-03-21T16:01:56Z</time>
      </trkpt>
      <trkpt lat="43.62867" lon="3.34995">
        <ele>300</ele>
        <time>2024-03-21T16:01:57Z</time>
      </trkpt>
      <trkpt lat="43.62869" lon="3.34996">
        <ele>300.2</ele>
        <time>2024-03-21T16:01:58Z</time>
      </trkpt>
      <trkpt lat="43.62871" lon="3.34996">
        <ele>300.5</ele>
        <time>2024-03-21T16:01:59Z</time>
      </trkpt>
      <trkpt lat="43.62877" lon="3.34999">
        <ele>301</ele>
        <time>2024-03-21T16:02:02Z</time>
      </trkpt>
      <trkpt lat="43.62879" lon="3.35001">
        <ele>301.1</ele>
        <time>2024-03-21T16:02:03Z</time>
      </trkpt>
      <trkpt lat="43.62881" lon="3.35">
        <ele>301.6</ele>
        <time>2024-03-21T16:02:04Z</time>
      </trkpt>
      <trkpt lat="43.62883" lon="3.35">
        <ele>301.9</ele>
        <time>2024-03-21T16:02:05Z</time>
      </trkpt>
      <trkpt lat="43.62884" lon="3.35001">
        <ele>302</ele>
        <time>2024-03-21T16:02:06Z</time>
      </trkpt>
      <trkpt lat="43.62886" lon="3.35002">
        <ele>302.3</ele>
        <time>2024-03-21T16:02:07Z</time>
      </trkpt>
      <trkpt lat="43.6289" lon="3.35006">
        <ele>302.7</ele>
        <time>2024-03-21T16:02:09Z</time>
      </trkpt>
      <trkpt lat="43.62891" lon="3.35008">
        <ele>302.7</ele>
        <time>2024-03-21T16:02:10Z</time>
      </trkpt>
      <trkpt lat="43.62893" lon="3.35011">
        <ele>302.9</ele>
        <time>2024-03-21T16:02:11Z</time>
      </trkpt>
      <trkpt lat="43.62894" lon="3.35015">
        <ele>302.9</ele>
        <time>2024-03-21T16:02:12Z</time>
      </trkpt>
      <trkpt lat="43.62892" lon="3.35023">
        <ele>302.1</ele>
        <time>2024-03-21T16:02:14Z</time>
      </trkpt>
      <trkpt lat="43.62892" lon="3.35027">
        <ele>301.8</ele>
        <time>2024-03-21T16:02:15Z</time>
      </trkpt>
      <trkpt lat="43.6289" lon="3.35031">
        <ele>301.4</ele>
        <time>2024-03-21T16:02:16Z</time>
      </trkpt>
      <trkpt lat="43.6289" lon="3.35035">
        <ele>301.6</ele>
        <time>2024-03-21T16:02:17Z</time>
      </trkpt>
      <trkpt lat="43.62889" lon="3.35039">
        <ele>301.4</ele>
        <time>2024-03-21T16:02:18Z</time>
      </trkpt>
      <trkpt lat="43.62889" lon="3.35042">
        <ele>301.6</ele>
        <time>2024-03-21T16:02:19Z</time>
      </trkpt>
      <trkpt lat="43.62888" lon="3.35046">
        <ele>301.5</ele>
        <time>2024-03-21T16:02:20Z</time>
      </trkpt>
      <trkpt lat="43.62888" lon="3.35056">
        <ele>301.9</ele>
        <time>2024-03-21T16:02:24Z</time>
      </trkpt>
      <trkpt lat="43.62889" lon="3.35058">
        <ele>302.5</ele>
        <time>2024-03-21T16:02:25Z</time>
      </trkpt>
      <trkpt lat="43.62889" lon="3.35063">
        <ele>303.4</ele>
        <time>2024-03-21T16:02:27Z</time>
      </trkpt>
      <trkpt lat="43.62888" lon="3.35066">
        <ele>303.7</ele>
        <time>2024-03-21T16:02:28Z</time>
      </trkpt>
      <trkpt lat="43.62888" lon="3.35068">
        <ele>304</ele>
        <time>2024-03-21T16:02:29Z</time>
      </trkpt>
      <trkpt lat="43.62889" lon="3.35071">
        <ele>304.8</ele>
        <time>2024-03-21T16:02:30Z</time>
      </trkpt>
      <trkpt lat="43.62889" lon="3.3508">
        <ele>306.4</ele>
        <time>2024-03-21T16:02:46Z</time>
      </trkpt>
      <trkpt lat="43.62888" lon="3.3508">
        <ele>306.2</ele>
        <time>2024-03-21T16:02:48Z</time>
      </trkpt>
      <trkpt lat="43.62888" lon="3.35083">
        <ele>306.7</ele>
        <time>2024-03-21T16:02:52Z</time>
      </trkpt>
      <trkpt lat="43.62887" lon="3.35085">
        <ele>306.8</ele>
        <time>2024-03-21T16:02:54Z</time>
      </trkpt>
      <trkpt lat="43.62885" lon="3.35087">
        <ele>306.7</ele>
        <time>2024-03-21T16:02:56Z</time>
      </trkpt>
      <trkpt lat="43.62884" lon="3.35087">
        <ele>306.4</ele>
        <time>2024-03-21T16:02:57Z</time>
      </trkpt>
      <trkpt lat="43.62882" lon="3.35089">
        <ele>306.3</ele>
        <time>2024-03-21T16:02:59Z</time>
      </trkpt>
      <trkpt lat="43.62883" lon="3.35089">
        <ele>306.5</ele>
        <time>2024-03-21T16:03:03Z</time>
      </trkpt>
      <trkpt lat="43.62882" lon="3.35089">
        <ele>306.3</ele>
        <time>2024-03-21T16:03:04Z</time>
      </trkpt>
      <trkpt lat="43.62882" lon="3.35091">
        <ele>306.6</ele>
        <time>2024-03-21T16:03:07Z</time>
      </trkpt>
      <trkpt lat="43.62881" lon="3.35091">
        <ele>306.4</ele>
        <time>2024-03-21T16:03:08Z</time>
      </trkpt>
      <trkpt lat="43.62881" lon="3.35094">
        <ele>306.9</ele>
        <time>2024-03-21T16:03:12Z</time>
      </trkpt>
      <trkpt lat="43.6288" lon="3.35095">
        <ele>306.9</ele>
        <time>2024-03-21T16:03:13Z</time>
      </trkpt>
      <trkpt lat="43.6288" lon="3.351">
        <ele>307.8</ele>
        <time>2024-03-21T16:03:17Z</time>
      </trkpt>
      <trkpt lat="43.62881" lon="3.35103">
        <ele>308.6</ele>
        <time>2024-03-21T16:03:21Z</time>
      </trkpt>
      <trkpt lat="43.62881" lon="3.35107">
        <ele>309.3</ele>
        <time>2024-03-21T16:03:22Z</time>
      </trkpt>
      <trkpt lat="43.6288" lon="3.35112">
        <ele>309.8</ele>
        <time>2024-03-21T16:03:23Z</time>
      </trkpt>
      <trkpt lat="43.6288" lon="3.35115">
        <ele>310</ele>
        <time>2024-03-21T16:03:24Z</time>
      </trkpt>
      <trkpt lat="43.62881" lon="3.35119">
        <ele>310.5</ele>
        <time>2024-03-21T16:03:25Z</time>
      </trkpt>
      <trkpt lat="43.62883" lon="3.35125">
        <ele>311.2</ele>
        <time>2024-03-21T16:03:27Z</time>
      </trkpt>
      <trkpt lat="43.62883" lon="3.35131">
        <ele>311.4</ele>
        <time>2024-03-21T16:03:29Z</time>
      </trkpt>
      <trkpt lat="43.62884" lon="3.35134">
        <ele>311.6</ele>
        <time>2024-03-21T16:03:30Z</time>
      </trkpt>
      <trkpt lat="43.62885" lon="3.35138">
        <ele>311.8</ele>
        <time>2024-03-21T16:03:31Z</time>
      </trkpt>
      <trkpt lat="43.62886" lon="3.35141">
        <ele>312.1</ele>
        <time>2024-03-21T16:03:32Z</time>
      </trkpt>
      <trkpt lat="43.62886" lon="3.35143">
        <ele>312.4</ele>
        <time>2024-03-21T16:03:33Z</time>
      </trkpt>
      <trkpt lat="43.62888" lon="3.35146">
        <ele>312.8</ele>
        <time>2024-03-21T16:03:34Z</time>
      </trkpt>
      <trkpt lat="43.62889" lon="3.35148">
        <ele>313</ele>
        <time>2024-03-21T16:03:35Z</time>
      </trkpt>
      <trkpt lat="43.6289" lon="3.35151">
        <ele>313.5</ele>
        <time>2024-03-21T16:03:51Z</time>
      </trkpt>
      <trkpt lat="43.62889" lon="3.3515">
        <ele>313.2</ele>
        <time>2024-03-21T16:03:59Z</time>
      </trkpt>
      <trkpt lat="43.62889" lon="3.35151">
        <ele>313.3</ele>
        <time>2024-03-21T16:04:00Z</time>
      </trkpt>
      <trkpt lat="43.6289" lon="3.35154">
        <ele>313.8</ele>
        <time>2024-03-21T16:04:01Z</time>
      </trkpt>
      <trkpt lat="43.6289" lon="3.35156">
        <ele>314</ele>
        <time>2024-03-21T16:04:02Z</time>
      </trkpt>
      <trkpt lat="43.62892" lon="3.35159">
        <ele>314.5</ele>
        <time>2024-03-21T16:04:03Z</time>
      </trkpt>
      <trkpt lat="43.62892" lon="3.35161">
        <ele>314.7</ele>
        <time>2024-03-21T16:04:04Z</time>
      </trkpt>
      <trkpt lat="43.62894" lon="3.35164">
        <ele>315.2</ele>
        <time>2024-03-21T16:04:05Z</time>
      </trkpt>
      <trkpt lat="43.62895" lon="3.35166">
        <ele>315.4</ele>
        <time>2024-03-21T16:04:06Z</time>
      </trkpt>
      <trkpt lat="43.62897" lon="3.35169">
        <ele>316.1</ele>
        <time>2024-03-21T16:04:07Z</time>
      </trkpt>
      <trkpt lat="43.629" lon="3.35172">
        <ele>317</ele>
        <time>2024-03-21T16:04:23Z</time>
      </trkpt>
      <trkpt lat="43.629" lon="3.35173">
        <ele>317.2</ele>
        <time>2024-03-21T16:04:27Z</time>
      </trkpt>
      <trkpt lat="43.62902" lon="3.35175">
        <ele>317.8</ele>
        <time>2024-03-21T16:04:28Z</time>
      </trkpt>
      <trkpt lat="43.62904" lon="3.35179">
        <ele>318.7</ele>
        <time>2024-03-21T16:04:30Z</time>
      </trkpt>
      <trkpt lat="43.62906" lon="3.35181">
        <ele>319.2</ele>
        <time>2024-03-21T16:04:31Z</time>
      </trkpt>
      <trkpt lat="43.62907" lon="3.35183">
        <ele>319.7</ele>
        <time>2024-03-21T16:04:32Z</time>
      </trkpt>
      <trkpt lat="43.6291" lon="3.35184">
        <ele>319.9</ele>
        <time>2024-03-21T16:04:34Z</time>
      </trkpt>
      <trkpt lat="43.62911" lon="3.35184">
        <ele>320</ele>
        <time>2024-03-21T16:04:36Z</time>
      </trkpt>
      <trkpt lat="43.62912" lon="3.35185">
        <ele>320.2</ele>
        <time>2024-03-21T16:04:38Z</time>
      </trkpt>
      <trkpt lat="43.62912" lon="3.35186">
        <ele>320.4</ele>
        <time>2024-03-21T16:04:39Z</time>
      </trkpt>
      <trkpt lat="43.62913" lon="3.35186">
        <ele>320.4</ele>
        <time>2024-03-21T16:04:40Z</time>
      </trkpt>
      <trkpt lat="43.62913" lon="3.35185">
        <ele>320.2</ele>
        <time>2024-03-21T16:04:41Z</time>
      </trkpt>
      <trkpt lat="43.62914" lon="3.35185">
        <ele>320.2</ele>
        <time>2024-03-21T16:04:42Z</time>
      </trkpt>
      <trkpt lat="43.62914" lon="3.35186">
        <ele>320.4</ele>
        <time>2024-03-21T16:04:43Z</time>
      </trkpt>
      <trkpt lat="43.62914" lon="3.35185">
        <ele>320.2</ele>
        <time>2024-03-21T16:04:44Z</time>
      </trkpt>
      <trkpt lat="43.62915" lon="3.35185">
        <ele>320.3</ele>
        <time>2024-03-21T16:04:46Z</time>
      </trkpt>
      <trkpt lat="43.62916" lon="3.35186">
        <ele>320.5</ele>
        <time>2024-03-21T16:04:48Z</time>
      </trkpt>
      <trkpt lat="43.62921" lon="3.35186">
        <ele>320.8</ele>
        <time>2024-03-21T16:04:54Z</time>
      </trkpt>
      <trkpt lat="43.62922" lon="3.35185">
        <ele>320.7</ele>
        <time>2024-03-21T16:04:55Z</time>
      </trkpt>
      <trkpt lat="43.62923" lon="3.35185">
        <ele>320.8</ele>
        <time>2024-03-21T16:04:56Z</time>
      </trkpt>
      <trkpt lat="43.62923" lon="3.35184">
        <ele>320.7</ele>
        <time>2024-03-21T16:04:57Z</time>
      </trkpt>
      <trkpt lat="43.62926" lon="3.35184">
        <ele>320.9</ele>
        <time>2024-03-21T16:05:01Z</time>
      </trkpt>
      <trkpt lat="43.62925" lon="3.35184">
        <ele>320.8</ele>
        <time>2024-03-21T16:05:05Z</time>
      </trkpt>
      <trkpt lat="43.62926" lon="3.35184">
        <ele>320.9</ele>
        <time>2024-03-21T16:05:07Z</time>
      </trkpt>
      <trkpt lat="43.62926" lon="3.35183">
        <ele>320.8</ele>
        <time>2024-03-21T16:05:11Z</time>
      </trkpt>
      <trkpt lat="43.62928" lon="3.35184">
        <ele>321.1</ele>
        <time>2024-03-21T16:05:15Z</time>
      </trkpt>
      <trkpt lat="43.6293" lon="3.35183">
        <ele>321.1</ele>
        <time>2024-03-21T16:05:16Z</time>
      </trkpt>
      <trkpt lat="43.62931" lon="3.35182">
        <ele>321</ele>
        <time>2024-03-21T16:05:17Z</time>
      </trkpt>
      <trkpt lat="43.62934" lon="3.35181">
        <ele>321.1</ele>
        <time>2024-03-21T16:05:18Z</time>
      </trkpt>
      <trkpt lat="43.62936" lon="3.35181">
        <ele>321.3</ele>
        <time>2024-03-21T16:05:19Z</time>
      </trkpt>
      <trkpt lat="43.62938" lon="3.35182">
        <ele>321.6</ele>
        <time>2024-03-21T16:05:20Z</time>
      </trkpt>
      <trkpt lat="43.6294" lon="3.35182">
        <ele>321.8</ele>
        <time>2024-03-21T16:05:21Z</time>
      </trkpt>
      <trkpt lat="43.62942" lon="3.35181">
        <ele>321.8</ele>
        <time>2024-03-21T16:05:22Z</time>
      </trkpt>
      <trkpt lat="43.62944" lon="3.35182">
        <ele>322.2</ele>
        <time>2024-03-21T16:05:23Z</time>
      </trkpt>
      <trkpt lat="43.62946" lon="3.35181">
        <ele>322.3</ele>
        <time>2024-03-21T16:05:24Z</time>
      </trkpt>
      <trkpt lat="43.62948" lon="3.35181">
        <ele>322.6</ele>
        <time>2024-03-21T16:05:25Z</time>
      </trkpt>
      <trkpt lat="43.6295" lon="3.35179">
        <ele>322.6</ele>
        <time>2024-03-21T16:05:26Z</time>
      </trkpt>
      <trkpt lat="43.62953" lon="3.35178">
        <ele>323</ele>
        <time>2024-03-21T16:05:27Z</time>
      </trkpt>
      <trkpt lat="43.62956" lon="3.35178">
        <ele>323.4</ele>
        <time>2024-03-21T16:05:28Z</time>
      </trkpt>
      <trkpt lat="43.62959" lon="3.35179">
        <ele>324</ele>
        <time>2024-03-21T16:05:29Z</time>
      </trkpt>
      <trkpt lat="43.62962" lon="3.35181">
        <ele>324.6</ele>
        <time>2024-03-21T16:05:30Z</time>
      </trkpt>
      <trkpt lat="43.62964" lon="3.35184">
        <ele>325</ele>
        <time>2024-03-21T16:05:31Z</time>
      </trkpt>
      <trkpt lat="43.62969" lon="3.35189">
        <ele>325.7</ele>
        <time>2024-03-21T16:05:33Z</time>
      </trkpt>
      <trkpt lat="43.62972" lon="3.35191">
        <ele>326</ele>
        <time>2024-03-21T16:05:34Z</time>
      </trkpt>
      <trkpt lat="43.62976" lon="3.35195">
        <ele>326.7</ele>
        <time>2024-03-21T16:05:36Z</time>
      </trkpt>
      <trkpt lat="43.62982" lon="3.35198">
        <ele>328.1</ele>
        <time>2024-03-21T16:05:39Z</time>
      </trkpt>
      <trkpt lat="43.62984" lon="3.352">
        <ele>328.6</ele>
        <time>2024-03-21T16:05:40Z</time>
      </trkpt>
      <trkpt lat="43.6299" lon="3.35204">
        <ele>329.8</ele>
        <time>2024-03-21T16:05:42Z</time>
      </trkpt>
      <trkpt lat="43.62991" lon="3.35207">
        <ele>330.1</ele>
        <time>2024-03-21T16:05:43Z</time>
      </trkpt>
      <trkpt lat="43.62994" lon="3.35209">
        <ele>330.7</ele>
        <time>2024-03-21T16:05:44Z</time>
      </trkpt>
      <trkpt lat="43.62999" lon="3.35214">
        <ele>331.6</ele>
        <time>2024-03-21T16:05:46Z</time>
      </trkpt>
      <trkpt lat="43.63001" lon="3.35215">
        <ele>332</ele>
        <time>2024-03-21T16:05:47Z</time>
      </trkpt>
      <trkpt lat="43.63005" lon="3.35219">
        <ele>332.9</ele>
        <time>2024-03-21T16:05:49Z</time>
      </trkpt>
      <trkpt lat="43.63007" lon="3.3522">
        <ele>333.3</ele>
        <time>2024-03-21T16:05:50Z</time>
      </trkpt>
      <trkpt lat="43.6301" lon="3.35223">
        <ele>333.9</ele>
        <time>2024-03-21T16:06:54Z</time>
      </trkpt>
      <trkpt lat="43.63011" lon="3.35225">
        <ele>334.3</ele>
        <time>2024-03-21T16:07:05Z</time>
      </trkpt>
      <trkpt lat="43.63013" lon="3.35226">
        <ele>334.8</ele>
        <time>2024-03-21T16:07:06Z</time>
      </trkpt>
      <trkpt lat="43.63014" lon="3.35228">
        <ele>335.1</ele>
        <time>2024-03-21T16:07:07Z</time>
      </trkpt>
      <trkpt lat="43.63016" lon="3.35229">
        <ele>335.6</ele>
        <time>2024-03-21T16:07:08Z</time>
      </trkpt>
      <trkpt lat="43.63017" lon="3.3523">
        <ele>335.8</ele>
        <time>2024-03-21T16:07:10Z</time>
      </trkpt>
      <trkpt lat="43.63018" lon="3.35229">
        <ele>335.9</ele>
        <time>2024-03-21T16:07:11Z</time>
      </trkpt>
      <trkpt lat="43.63018" lon="3.35232">
        <ele>336.2</ele>
        <time>2024-03-21T16:07:17Z</time>
      </trkpt>
      <trkpt lat="43.63019" lon="3.35232">
        <ele>336.3</ele>
        <time>2024-03-21T16:07:18Z</time>
      </trkpt>
      <trkpt lat="43.63019" lon="3.35236">
        <ele>336.7</ele>
        <time>2024-03-21T16:07:21Z</time>
      </trkpt>
      <trkpt lat="43.63021" lon="3.35238">
        <ele>337.2</ele>
        <time>2024-03-21T16:07:23Z</time>
      </trkpt>
      <trkpt lat="43.63021" lon="3.35241">
        <ele>337.5</ele>
        <time>2024-03-21T16:07:25Z</time>
      </trkpt>
      <trkpt lat="43.63022" lon="3.35242">
        <ele>337.7</ele>
        <time>2024-03-21T16:07:27Z</time>
      </trkpt>
      <trkpt lat="43.63022" lon="3.35241">
        <ele>337.6</ele>
        <time>2024-03-21T16:07:29Z</time>
      </trkpt>
      <trkpt lat="43.63022" lon="3.35243">
        <ele>337.8</ele>
        <time>2024-03-21T16:07:33Z</time>
      </trkpt>
      <trkpt lat="43.63022" lon="3.35242">
        <ele>337.7</ele>
        <time>2024-03-21T16:07:34Z</time>
      </trkpt>
      <trkpt lat="43.63023" lon="3.35242">
        <ele>337.8</ele>
        <time>2024-03-21T16:07:35Z</time>
      </trkpt>
      <trkpt lat="43.63023" lon="3.35244">
        <ele>338</ele>
        <time>2024-03-21T16:07:37Z</time>
      </trkpt>
      <trkpt lat="43.63024" lon="3.35245">
        <ele>338.2</ele>
        <time>2024-03-21T16:07:39Z</time>
      </trkpt>
      <trkpt lat="43.63025" lon="3.35245">
        <ele>338.3</ele>
        <time>2024-03-21T16:07:40Z</time>
      </trkpt>
      <trkpt lat="43.63026" lon="3.35246">
        <ele>338.5</ele>
        <time>2024-03-21T16:07:41Z</time>
      </trkpt>
      <trkpt lat="43.63026" lon="3.35247">
        <ele>338.6</ele>
        <time>2024-03-21T16:07:42Z</time>
      </trkpt>
      <trkpt lat="43.63027" lon="3.35247">
        <ele>338.7</ele>
        <time>2024-03-21T16:07:43Z</time>
      </trkpt>
      <trkpt lat="43.63027" lon="3.35248">
        <ele>338.8</ele>
        <time>2024-03-21T16:07:44Z</time>
      </trkpt>
      <trkpt lat="43.63029" lon="3.35248">
        <ele>339.2</ele>
        <time>2024-03-21T16:07:46Z</time>
      </trkpt>
      <trkpt lat="43.63029" lon="3.35249">
        <ele>339.2</ele>
        <time>2024-03-21T16:07:47Z</time>
      </trkpt>
      <trkpt lat="43.6303" lon="3.35249">
        <ele>339.5</ele>
        <time>2024-03-21T16:07:48Z</time>
      </trkpt>
      <trkpt lat="43.6303" lon="3.3525">
        <ele>339.6</ele>
        <time>2024-03-21T16:07:50Z</time>
      </trkpt>
      <trkpt lat="43.63031" lon="3.35251">
        <ele>340</ele>
        <time>2024-03-21T16:07:51Z</time>
      </trkpt>
      <trkpt lat="43.63031" lon="3.35249">
        <ele>339.7</ele>
        <time>2024-03-21T16:07:53Z</time>
      </trkpt>
      <trkpt lat="43.63032" lon="3.3525">
        <ele>340.1</ele>
        <time>2024-03-21T16:07:55Z</time>
      </trkpt>
      <trkpt lat="43.63033" lon="3.3525">
        <ele>340.3</ele>
        <time>2024-03-21T16:07:57Z</time>
      </trkpt>
      <trkpt lat="43.63034" lon="3.35251">
        <ele>340.7</ele>
        <time>2024-03-21T16:07:58Z</time>
      </trkpt>
      <trkpt lat="43.63035" lon="3.35251">
        <ele>341</ele>
        <time>2024-03-21T16:07:59Z</time>
      </trkpt>
      <trkpt lat="43.63035" lon="3.35252">
        <ele>341.1</ele>
        <time>2024-03-21T16:08:00Z</time>
      </trkpt>
      <trkpt lat="43.63036" lon="3.35251">
        <ele>341.2</ele>
        <time>2024-03-21T16:08:01Z</time>
      </trkpt>
      <trkpt lat="43.63037" lon="3.35251">
        <ele>341.5</ele>
        <time>2024-03-21T16:08:02Z</time>
      </trkpt>
      <trkpt lat="43.63037" lon="3.35252">
        <ele>341.6</ele>
        <time>2024-03-21T16:08:03Z</time>
      </trkpt>
      <trkpt lat="43.6304" lon="3.35252">
        <ele>342.3</ele>
        <time>2024-03-21T16:08:06Z</time>
      </trkpt>
      <trkpt lat="43.6304" lon="3.35253">
        <ele>342.5</ele>
        <time>2024-03-21T16:08:08Z</time>
      </trkpt>
      <trkpt lat="43.63042" lon="3.35253">
        <ele>343</ele>
        <time>2024-03-21T16:08:10Z</time>
      </trkpt>
      <trkpt lat="43.63048" lon="3.35256">
        <ele>344.7</ele>
        <time>2024-03-21T16:08:13Z</time>
      </trkpt>
      <trkpt lat="43.6305" lon="3.35258">
        <ele>345.3</ele>
        <time>2024-03-21T16:08:14Z</time>
      </trkpt>
      <trkpt lat="43.63051" lon="3.3526">
        <ele>345.7</ele>
        <time>2024-03-21T16:08:15Z</time>
      </trkpt>
      <trkpt lat="43.63051" lon="3.35262">
        <ele>345.9</ele>
        <time>2024-03-21T16:08:16Z</time>
      </trkpt>
      <trkpt lat="43.63052" lon="3.35265">
        <ele>346.4</ele>
        <time>2024-03-21T16:08:17Z</time>
      </trkpt>
      <trkpt lat="43.63053" lon="3.35267">
        <ele>346.7</ele>
        <time>2024-03-21T16:08:18Z</time>
      </trkpt>
      <trkpt lat="43.63053" lon="3.35271">
        <ele>347.1</ele>
        <time>2024-03-21T16:08:20Z</time>
      </trkpt>
      <trkpt lat="43.63055" lon="3.35275">
        <ele>347.7</ele>
        <time>2024-03-21T16:08:22Z</time>
      </trkpt>
      <trkpt lat="43.63055" lon="3.35285">
        <ele>349.2</ele>
        <time>2024-03-21T16:08:26Z</time>
      </trkpt>
      <trkpt lat="43.63054" lon="3.35288">
        <ele>349.7</ele>
        <time>2024-03-21T16:08:27Z</time>
      </trkpt>
      <trkpt lat="43.63054" lon="3.35296">
        <ele>351.1</ele>
        <time>2024-03-21T16:08:30Z</time>
      </trkpt>
      <trkpt lat="43.63055" lon="3.353">
        <ele>352</ele>
        <time>2024-03-21T16:08:31Z</time>
      </trkpt>
      <trkpt lat="43.63055" lon="3.35302">
        <ele>352.3</ele>
        <time>2024-03-21T16:08:32Z</time>
      </trkpt>
      <trkpt lat="43.63056" lon="3.35305">
        <ele>353</ele>
        <time>2024-03-21T16:08:33Z</time>
      </trkpt>
      <trkpt lat="43.63057" lon="3.35307">
        <ele>353.7</ele>
        <time>2024-03-21T16:08:34Z</time>
      </trkpt>
      <trkpt lat="43.63057" lon="3.3531">
        <ele>354.4</ele>
        <time>2024-03-21T16:08:35Z</time>
      </trkpt>
      <trkpt lat="43.63058" lon="3.35312">
        <ele>355</ele>
        <time>2024-03-21T16:08:36Z</time>
      </trkpt>
      <trkpt lat="43.63058" lon="3.35313">
        <ele>355.3</ele>
        <time>2024-03-21T16:08:38Z</time>
      </trkpt>
      <trkpt lat="43.63057" lon="3.35314">
        <ele>355.4</ele>
        <time>2024-03-21T16:08:39Z</time>
      </trkpt>
      <trkpt lat="43.63058" lon="3.35314">
        <ele>355.5</ele>
        <time>2024-03-21T16:08:40Z</time>
      </trkpt>
      <trkpt lat="43.63057" lon="3.35314">
        <ele>355.4</ele>
        <time>2024-03-21T16:08:44Z</time>
      </trkpt>
      <trkpt lat="43.63056" lon="3.35316">
        <ele>355.7</ele>
        <time>2024-03-21T16:08:48Z</time>
      </trkpt>
      <trkpt lat="43.63056" lon="3.35318">
        <ele>356.2</ele>
        <time>2024-03-21T16:08:50Z</time>
      </trkpt>
      <trkpt lat="43.63056" lon="3.35317">
        <ele>355.9</ele>
        <time>2024-03-21T16:08:52Z</time>
      </trkpt>
      <trkpt lat="43.63056" lon="3.35327">
        <ele>358.4</ele>
        <time>2024-03-21T16:09:07Z</time>
      </trkpt>
      <trkpt lat="43.63057" lon="3.35328">
        <ele>358.8</ele>
        <time>2024-03-21T16:09:08Z</time>
      </trkpt>
      <trkpt lat="43.63056" lon="3.35329">
        <ele>358.9</ele>
        <time>2024-03-21T16:09:09Z</time>
      </trkpt>
      <trkpt lat="43.63056" lon="3.3533">
        <ele>359.2</ele>
        <time>2024-03-21T16:09:10Z</time>
      </trkpt>
      <trkpt lat="43.63057" lon="3.3533">
        <ele>359.2</ele>
        <time>2024-03-21T16:09:11Z</time>
      </trkpt>
      <trkpt lat="43.63057" lon="3.35336">
        <ele>360.8</ele>
        <time>2024-03-21T16:09:16Z</time>
      </trkpt>
      <trkpt lat="43.63058" lon="3.35336">
        <ele>360.8</ele>
        <time>2024-03-21T16:09:17Z</time>
      </trkpt>
      <trkpt lat="43.63058" lon="3.3534">
        <ele>362</ele>
        <time>2024-03-21T16:09:21Z</time>
      </trkpt>
      <trkpt lat="43.63059" lon="3.3534">
        <ele>362</ele>
        <time>2024-03-21T16:09:22Z</time>
      </trkpt>
      <trkpt lat="43.63059" lon="3.35343">
        <ele>362.8</ele>
        <time>2024-03-21T16:09:24Z</time>
      </trkpt>
      <trkpt lat="43.6306" lon="3.35344">
        <ele>363.1</ele>
        <time>2024-03-21T16:09:25Z</time>
      </trkpt>
      <trkpt lat="43.6306" lon="3.35345">
        <ele>363.4</ele>
        <time>2024-03-21T16:09:26Z</time>
      </trkpt>
      <trkpt lat="43.63061" lon="3.35346">
        <ele>363.7</ele>
        <time>2024-03-21T16:09:27Z</time>
      </trkpt>
      <trkpt lat="43.63061" lon="3.35348">
        <ele>364.2</ele>
        <time>2024-03-21T16:09:30Z</time>
      </trkpt>
      <trkpt lat="43.63062" lon="3.35348">
        <ele>364.2</ele>
        <time>2024-03-21T16:09:32Z</time>
      </trkpt>
      <trkpt lat="43.63062" lon="3.35351">
        <ele>365</ele>
        <time>2024-03-21T16:09:35Z</time>
      </trkpt>
      <trkpt lat="43.63063" lon="3.35352">
        <ele>365.3</ele>
        <time>2024-03-21T16:09:36Z</time>
      </trkpt>
      <trkpt lat="43.63063" lon="3.35353">
        <ele>365.6</ele>
        <time>2024-03-21T16:09:37Z</time>
      </trkpt>
      <trkpt lat="43.63064" lon="3.35354">
        <ele>365.8</ele>
        <time>2024-03-21T16:09:39Z</time>
      </trkpt>
      <trkpt lat="43.63064" lon="3.35355">
        <ele>366.1</ele>
        <time>2024-03-21T16:09:40Z</time>
      </trkpt>
      <trkpt lat="43.63065" lon="3.35355">
        <ele>366</ele>
        <time>2024-03-21T16:09:42Z</time>
      </trkpt>
      <trkpt lat="43.63066" lon="3.35356">
        <ele>366.3</ele>
        <time>2024-03-21T16:09:43Z</time>
      </trkpt>
      <trkpt lat="43.63066" lon="3.35358">
        <ele>366.8</ele>
        <time>2024-03-21T16:09:45Z</time>
      </trkpt>
      <trkpt lat="43.63067" lon="3.35359">
        <ele>367</ele>
        <time>2024-03-21T16:09:46Z</time>
      </trkpt>
      <trkpt lat="43.63067" lon="3.35362">
        <ele>367.9</ele>
        <time>2024-03-21T16:09:49Z</time>
      </trkpt>
      <trkpt lat="43.63068" lon="3.35363">
        <ele>368.1</ele>
        <time>2024-03-21T16:10:05Z</time>
      </trkpt>
      <trkpt lat="43.63068" lon="3.35364">
        <ele>368.5</ele>
        <time>2024-03-21T16:10:08Z</time>
      </trkpt>
      <trkpt lat="43.63069" lon="3.35365">
        <ele>368.7</ele>
        <time>2024-03-21T16:10:09Z</time>
      </trkpt>
      <trkpt lat="43.63069" lon="3.35366">
        <ele>369</ele>
        <time>2024-03-21T16:10:11Z</time>
      </trkpt>
      <trkpt lat="43.6307" lon="3.35367">
        <ele>369.3</ele>
        <time>2024-03-21T16:10:12Z</time>
      </trkpt>
      <trkpt lat="43.6307" lon="3.35369">
        <ele>369.9</ele>
        <time>2024-03-21T16:10:14Z</time>
      </trkpt>
      <trkpt lat="43.63072" lon="3.35371">
        <ele>370.3</ele>
        <time>2024-03-21T16:10:16Z</time>
      </trkpt>
      <trkpt lat="43.63072" lon="3.35372">
        <ele>370.6</ele>
        <time>2024-03-21T16:10:18Z</time>
      </trkpt>
      <trkpt lat="43.63074" lon="3.35372">
        <ele>370.5</ele>
        <time>2024-03-21T16:10:19Z</time>
      </trkpt>
      <trkpt lat="43.63075" lon="3.35373">
        <ele>370.7</ele>
        <time>2024-03-21T16:10:20Z</time>
      </trkpt>
      <trkpt lat="43.63075" lon="3.35376">
        <ele>371.5</ele>
        <time>2024-03-21T16:10:23Z</time>
      </trkpt>
      <trkpt lat="43.63076" lon="3.35376">
        <ele>371.4</ele>
        <time>2024-03-21T16:10:24Z</time>
      </trkpt>
      <trkpt lat="43.63076" lon="3.35377">
        <ele>371.7</ele>
        <time>2024-03-21T16:10:26Z</time>
      </trkpt>
      <trkpt lat="43.63077" lon="3.35378">
        <ele>371.9</ele>
        <time>2024-03-21T16:10:27Z</time>
      </trkpt>
      <trkpt lat="43.63078" lon="3.35378">
        <ele>371.8</ele>
        <time>2024-03-21T16:10:28Z</time>
      </trkpt>
      <trkpt lat="43.63078" lon="3.35379">
        <ele>372.1</ele>
        <time>2024-03-21T16:10:29Z</time>
      </trkpt>
      <trkpt lat="43.63079" lon="3.3538">
        <ele>372.2</ele>
        <time>2024-03-21T16:10:30Z</time>
      </trkpt>
      <trkpt lat="43.63079" lon="3.35381">
        <ele>372.5</ele>
        <time>2024-03-21T16:10:31Z</time>
      </trkpt>
      <trkpt lat="43.6308" lon="3.35382">
        <ele>372.7</ele>
        <time>2024-03-21T16:11:03Z</time>
      </trkpt>
      <trkpt lat="43.63081" lon="3.35382">
        <ele>372.5</ele>
        <time>2024-03-21T16:11:35Z</time>
      </trkpt>
      <trkpt lat="43.63082" lon="3.35383">
        <ele>372.7</ele>
        <time>2024-03-21T16:11:37Z</time>
      </trkpt>
      <trkpt lat="43.63083" lon="3.35385">
        <ele>373.1</ele>
        <time>2024-03-21T16:11:38Z</time>
      </trkpt>
      <trkpt lat="43.63085" lon="3.35386">
        <ele>373.3</ele>
        <time>2024-03-21T16:11:39Z</time>
      </trkpt>
      <trkpt lat="43.63087" lon="3.35388">
        <ele>373.8</ele>
        <time>2024-03-21T16:11:40Z</time>
      </trkpt>
      <trkpt lat="43.63089" lon="3.35389">
        <ele>374</ele>
        <time>2024-03-21T16:11:41Z</time>
      </trkpt>
      <trkpt lat="43.6309" lon="3.35391">
        <ele>374.7</ele>
        <time>2024-03-21T16:11:42Z</time>
      </trkpt>
      <trkpt lat="43.63097" lon="3.35398">
        <ele>376.6</ele>
        <time>2024-03-21T16:11:46Z</time>
      </trkpt>
      <trkpt lat="43.631" lon="3.35399">
        <ele>376.8</ele>
        <time>2024-03-21T16:11:47Z</time>
      </trkpt>
      <trkpt lat="43.63104" lon="3.35401">
        <ele>377.1</ele>
        <time>2024-03-21T16:11:49Z</time>
      </trkpt>
      <trkpt lat="43.63105" lon="3.35403">
        <ele>377.5</ele>
        <time>2024-03-21T16:11:50Z</time>
      </trkpt>
      <trkpt lat="43.63107" lon="3.35406">
        <ele>378.1</ele>
        <time>2024-03-21T16:11:51Z</time>
      </trkpt>
      <trkpt lat="43.63108" lon="3.35409">
        <ele>378.7</ele>
        <time>2024-03-21T16:11:52Z</time>
      </trkpt>
      <trkpt lat="43.6311" lon="3.35412">
        <ele>379.1</ele>
        <time>2024-03-21T16:11:53Z</time>
      </trkpt>
      <trkpt lat="43.63111" lon="3.35414">
        <ele>379.4</ele>
        <time>2024-03-21T16:11:54Z</time>
      </trkpt>
      <trkpt lat="43.63112" lon="3.35417">
        <ele>380.1</ele>
        <time>2024-03-21T16:11:55Z</time>
      </trkpt>
      <trkpt lat="43.63112" lon="3.35419">
        <ele>380.6</ele>
        <time>2024-03-21T16:11:56Z</time>
      </trkpt>
      <trkpt lat="43.63113" lon="3.35423">
        <ele>381.6</ele>
        <time>2024-03-21T16:11:57Z</time>
      </trkpt>
      <trkpt lat="43.63113" lon="3.35429">
        <ele>383.1</ele>
        <time>2024-03-21T16:11:59Z</time>
      </trkpt>
      <trkpt lat="43.63114" lon="3.35432">
        <ele>383.7</ele>
        <time>2024-03-21T16:12:00Z</time>
      </trkpt>
      <trkpt lat="43.6312" lon="3.35438">
        <ele>384.5</ele>
        <time>2024-03-21T16:12:03Z</time>
      </trkpt>
      <trkpt lat="43.63121" lon="3.3544">
        <ele>384.8</ele>
        <time>2024-03-21T16:12:04Z</time>
      </trkpt>
      <trkpt lat="43.63124" lon="3.35443">
        <ele>384.9</ele>
        <time>2024-03-21T16:12:06Z</time>
      </trkpt>
      <trkpt lat="43.63126" lon="3.35447">
        <ele>385</ele>
        <time>2024-03-21T16:12:08Z</time>
      </trkpt>
      <trkpt lat="43.63126" lon="3.35448">
        <ele>385</ele>
        <time>2024-03-21T16:14:16Z</time>
      </trkpt>
      <trkpt lat="43.63126" lon="3.35447">
        <ele>385</ele>
        <time>2024-03-21T16:16:08Z</time>
      </trkpt>
      <trkpt lat="43.63126" lon="3.35448">
        <ele>385</ele>
        <time>2024-03-21T16:16:12Z</time>
      </trkpt>
      <trkpt lat="43.63127" lon="3.35449">
        <ele>384.9</ele>
        <time>2024-03-21T16:16:13Z</time>
      </trkpt>
      <trkpt lat="43.63127" lon="3.3545">
        <ele>384.9</ele>
        <time>2024-03-21T16:16:14Z</time>
      </trkpt>
      <trkpt lat="43.63128" lon="3.35453">
        <ele>384.9</ele>
        <time>2024-03-21T16:16:15Z</time>
      </trkpt>
      <trkpt lat="43.63127" lon="3.35456">
        <ele>385.2</ele>
        <time>2024-03-21T16:16:16Z</time>
      </trkpt>
      <trkpt lat="43.63126" lon="3.3546">
        <ele>385.6</ele>
        <time>2024-03-21T16:16:17Z</time>
      </trkpt>
      <trkpt lat="43.63126" lon="3.35465">
        <ele>385.8</ele>
        <time>2024-03-21T16:16:18Z</time>
      </trkpt>
      <trkpt lat="43.63127" lon="3.35469">
        <ele>385.7</ele>
        <time>2024-03-21T16:16:19Z</time>
      </trkpt>
      <trkpt lat="43.6313" lon="3.35484">
        <ele>385.3</ele>
        <time>2024-03-21T16:16:22Z</time>
      </trkpt>
      <trkpt lat="43.63132" lon="3.35489">
        <ele>384.7</ele>
        <time>2024-03-21T16:16:23Z</time>
      </trkpt>
      <trkpt lat="43.63135" lon="3.35494">
        <ele>383.6</ele>
        <time>2024-03-21T16:16:24Z</time>
      </trkpt>
      <trkpt lat="43.63137" lon="3.35499">
        <ele>382.8</ele>
        <time>2024-03-21T16:16:25Z</time>
      </trkpt>
      <trkpt lat="43.6314" lon="3.35502">
        <ele>381.6</ele>
        <time>2024-03-21T16:16:26Z</time>
      </trkpt>
      <trkpt lat="43.63142" lon="3.35503">
        <ele>380.7</ele>
        <time>2024-03-21T16:16:27Z</time>
      </trkpt>
      <trkpt lat="43.63145" lon="3.355">
        <ele>379.6</ele>
        <time>2024-03-21T16:16:29Z</time>
      </trkpt>
      <trkpt lat="43.63147" lon="3.35497">
        <ele>378.9</ele>
        <time>2024-03-21T16:16:30Z</time>
      </trkpt>
      <trkpt lat="43.6315" lon="3.35495">
        <ele>377.9</ele>
        <time>2024-03-21T16:16:31Z</time>
      </trkpt>
      <trkpt lat="43.63154" lon="3.35493">
        <ele>376.6</ele>
        <time>2024-03-21T16:16:32Z</time>
      </trkpt>
      <trkpt lat="43.63157" lon="3.35494">
        <ele>375.4</ele>
        <time>2024-03-21T16:16:33Z</time>
      </trkpt>
      <trkpt lat="43.63159" lon="3.35495">
        <ele>374.6</ele>
        <time>2024-03-21T16:16:34Z</time>
      </trkpt>
      <trkpt lat="43.6316" lon="3.35497">
        <ele>374</ele>
        <time>2024-03-21T16:16:35Z</time>
      </trkpt>
      <trkpt lat="43.6316" lon="3.35506">
        <ele>373.3</ele>
        <time>2024-03-21T16:16:37Z</time>
      </trkpt>
      <trkpt lat="43.63161" lon="3.35512">
        <ele>372.6</ele>
        <time>2024-03-21T16:16:38Z</time>
      </trkpt>
      <trkpt lat="43.63163" lon="3.35519">
        <ele>371.3</ele>
        <time>2024-03-21T16:16:39Z</time>
      </trkpt>
      <trkpt lat="43.63165" lon="3.35527">
        <ele>369.8</ele>
        <time>2024-03-21T16:16:40Z</time>
      </trkpt>
      <trkpt lat="43.63169" lon="3.35541">
        <ele>368.5</ele>
        <time>2024-03-21T16:16:42Z</time>
      </trkpt>
      <trkpt lat="43.63173" lon="3.35547">
        <ele>366.9</ele>
        <time>2024-03-21T16:16:43Z</time>
      </trkpt>
      <trkpt lat="43.63176" lon="3.35552">
        <ele>365.6</ele>
        <time>2024-03-21T16:16:44Z</time>
      </trkpt>
      <trkpt lat="43.63179" lon="3.35559">
        <ele>364.3</ele>
        <time>2024-03-21T16:16:45Z</time>
      </trkpt>
      <trkpt lat="43.63182" lon="3.35567">
        <ele>362.7</ele>
        <time>2024-03-21T16:16:46Z</time>
      </trkpt>
      <trkpt lat="43.63187" lon="3.35576">
        <ele>359.8</ele>
        <time>2024-03-21T16:16:47Z</time>
      </trkpt>
      <trkpt lat="43.63191" lon="3.35584">
        <ele>357.2</ele>
        <time>2024-03-21T16:16:48Z</time>
      </trkpt>
      <trkpt lat="43.63201" lon="3.356">
        <ele>353.1</ele>
        <time>2024-03-21T16:16:50Z</time>
      </trkpt>
      <trkpt lat="43.63207" lon="3.35614">
        <ele>350.3</ele>
        <time>2024-03-21T16:16:52Z</time>
      </trkpt>
      <trkpt lat="43.63211" lon="3.35626">
        <ele>348.3</ele>
        <time>2024-03-21T16:16:54Z</time>
      </trkpt>
      <trkpt lat="43.63215" lon="3.35642">
        <ele>346.1</ele>
        <time>2024-03-21T16:16:56Z</time>
      </trkpt>
      <trkpt lat="43.63216" lon="3.3565">
        <ele>345.4</ele>
        <time>2024-03-21T16:16:57Z</time>
      </trkpt>
      <trkpt lat="43.63218" lon="3.35658">
        <ele>344</ele>
        <time>2024-03-21T16:16:58Z</time>
      </trkpt>
      <trkpt lat="43.63219" lon="3.35666">
        <ele>343.1</ele>
        <time>2024-03-21T16:16:59Z</time>
      </trkpt>
      <trkpt lat="43.6322" lon="3.35675">
        <ele>341.8</ele>
        <time>2024-03-21T16:17:00Z</time>
      </trkpt>
      <trkpt lat="43.6322" lon="3.35682">
        <ele>341.3</ele>
        <time>2024-03-21T16:17:01Z</time>
      </trkpt>
      <trkpt lat="43.63221" lon="3.35691">
        <ele>340</ele>
        <time>2024-03-21T16:17:02Z</time>
      </trkpt>
      <trkpt lat="43.63222" lon="3.35698">
        <ele>339</ele>
        <time>2024-03-21T16:17:03Z</time>
      </trkpt>
      <trkpt lat="43.63223" lon="3.35706">
        <ele>338.2</ele>
        <time>2024-03-21T16:17:04Z</time>
      </trkpt>
      <trkpt lat="43.63224" lon="3.35715">
        <ele>337.3</ele>
        <time>2024-03-21T16:17:05Z</time>
      </trkpt>
      <trkpt lat="43.63223" lon="3.35727">
        <ele>337.2</ele>
        <time>2024-03-21T16:17:06Z</time>
      </trkpt>
      <trkpt lat="43.63223" lon="3.35738">
        <ele>336.4</ele>
        <time>2024-03-21T16:17:07Z</time>
      </trkpt>
      <trkpt lat="43.63224" lon="3.35748">
        <ele>335.2</ele>
        <time>2024-03-21T16:17:08Z</time>
      </trkpt>
      <trkpt lat="43.63225" lon="3.35756">
        <ele>334.3</ele>
        <time>2024-03-21T16:17:09Z</time>
      </trkpt>
      <trkpt lat="43.63225" lon="3.35763">
        <ele>334.1</ele>
        <time>2024-03-21T16:17:10Z</time>
      </trkpt>
      <trkpt lat="43.63226" lon="3.35768">
        <ele>333.4</ele>
        <time>2024-03-21T16:17:11Z</time>
      </trkpt>
      <trkpt lat="43.63227" lon="3.3577">
        <ele>332.8</ele>
        <time>2024-03-21T16:17:12Z</time>
      </trkpt>
      <trkpt lat="43.63229" lon="3.3577">
        <ele>331.8</ele>
        <time>2024-03-21T16:17:13Z</time>
      </trkpt>
      <trkpt lat="43.6323" lon="3.35768">
        <ele>331.3</ele>
        <time>2024-03-21T16:17:14Z</time>
      </trkpt>
      <trkpt lat="43.6323" lon="3.35766">
        <ele>331.4</ele>
        <time>2024-03-21T16:17:15Z</time>
      </trkpt>
      <trkpt lat="43.63231" lon="3.35763">
        <ele>330.9</ele>
        <time>2024-03-21T16:17:16Z</time>
      </trkpt>
      <trkpt lat="43.63232" lon="3.35758">
        <ele>330.5</ele>
        <time>2024-03-21T16:17:17Z</time>
      </trkpt>
      <trkpt lat="43.63234" lon="3.35752">
        <ele>329.6</ele>
        <time>2024-03-21T16:17:18Z</time>
      </trkpt>
      <trkpt lat="43.63236" lon="3.35747">
        <ele>328.8</ele>
        <time>2024-03-21T16:17:19Z</time>
      </trkpt>
      <trkpt lat="43.63242" lon="3.35735">
        <ele>326.4</ele>
        <time>2024-03-21T16:17:21Z</time>
      </trkpt>
      <trkpt lat="43.63246" lon="3.35729">
        <ele>324.7</ele>
        <time>2024-03-21T16:17:22Z</time>
      </trkpt>
      <trkpt lat="43.63249" lon="3.35724">
        <ele>323.4</ele>
        <time>2024-03-21T16:17:23Z</time>
      </trkpt>
      <trkpt lat="43.63257" lon="3.35712">
        <ele>320.7</ele>
        <time>2024-03-21T16:17:25Z</time>
      </trkpt>
      <trkpt lat="43.6326" lon="3.35705">
        <ele>319.9</ele>
        <time>2024-03-21T16:17:26Z</time>
      </trkpt>
      <trkpt lat="43.63263" lon="3.35697">
        <ele>319.2</ele>
        <time>2024-03-21T16:17:27Z</time>
      </trkpt>
      <trkpt lat="43.63267" lon="3.35689">
        <ele>318.4</ele>
        <time>2024-03-21T16:17:28Z</time>
      </trkpt>
      <trkpt lat="43.63272" lon="3.35682">
        <ele>317.2</ele>
        <time>2024-03-21T16:17:29Z</time>
      </trkpt>
      <trkpt lat="43.63275" lon="3.35675">
        <ele>316.9</ele>
        <time>2024-03-21T16:17:30Z</time>
      </trkpt>
      <trkpt lat="43.63279" lon="3.35669">
        <ele>316.4</ele>
        <time>2024-03-21T16:17:31Z</time>
      </trkpt>
      <trkpt lat="43.63282" lon="3.35666">
        <ele>316.2</ele>
        <time>2024-03-21T16:17:32Z</time>
      </trkpt>
      <trkpt lat="43.63285" lon="3.35665">
        <ele>315.7</ele>
        <time>2024-03-21T16:17:33Z</time>
      </trkpt>
      <trkpt lat="43.63289" lon="3.35667">
        <ele>314.5</ele>
        <time>2024-03-21T16:17:34Z</time>
      </trkpt>
      <trkpt lat="43.63295" lon="3.35671">
        <ele>312.5</ele>
        <time>2024-03-21T16:17:35Z</time>
      </trkpt>
      <trkpt lat="43.63303" lon="3.35675">
        <ele>309.8</ele>
        <time>2024-03-21T16:17:36Z</time>
      </trkpt>
      <trkpt lat="43.6331" lon="3.3568">
        <ele>307.6</ele>
        <time>2024-03-21T16:17:37Z</time>
      </trkpt>
      <trkpt lat="43.63317" lon="3.35682">
        <ele>306.5</ele>
        <time>2024-03-21T16:17:38Z</time>
      </trkpt>
      <trkpt lat="43.63324" lon="3.35686">
        <ele>304.8</ele>
        <time>2024-03-21T16:17:39Z</time>
      </trkpt>
      <trkpt lat="43.6333" lon="3.3569">
        <ele>303.3</ele>
        <time>2024-03-21T16:17:40Z</time>
      </trkpt>
      <trkpt lat="43.63334" lon="3.35695">
        <ele>301.8</ele>
        <time>2024-03-21T16:17:41Z</time>
      </trkpt>
      <trkpt lat="43.63338" lon="3.35699">
        <ele>300.4</ele>
        <time>2024-03-21T16:17:42Z</time>
      </trkpt>
      <trkpt lat="43.63342" lon="3.35702">
        <ele>299.4</ele>
        <time>2024-03-21T16:17:43Z</time>
      </trkpt>
      <trkpt lat="43.63347" lon="3.35705">
        <ele>298.3</ele>
        <time>2024-03-21T16:17:44Z</time>
      </trkpt>
      <trkpt lat="43.63357" lon="3.35715">
        <ele>295.6</ele>
        <time>2024-03-21T16:17:46Z</time>
      </trkpt>
      <trkpt lat="43.6336" lon="3.3572">
        <ele>294.5</ele>
        <time>2024-03-21T16:17:47Z</time>
      </trkpt>
      <trkpt lat="43.63364" lon="3.35726">
        <ele>293.3</ele>
        <time>2024-03-21T16:17:48Z</time>
      </trkpt>
      <trkpt lat="43.63368" lon="3.35731">
        <ele>292.4</ele>
        <time>2024-03-21T16:17:49Z</time>
      </trkpt>
      <trkpt lat="43.63371" lon="3.35736">
        <ele>291.2</ele>
        <time>2024-03-21T16:17:50Z</time>
      </trkpt>
      <trkpt lat="43.63374" lon="3.35739">
        <ele>290.6</ele>
        <time>2024-03-21T16:17:51Z</time>
      </trkpt>
      <trkpt lat="43.63383" lon="3.35745">
        <ele>289.3</ele>
        <time>2024-03-21T16:17:54Z</time>
      </trkpt>
      <trkpt lat="43.63385" lon="3.35747">
        <ele>288.8</ele>
        <time>2024-03-21T16:17:55Z</time>
      </trkpt>
      <trkpt lat="43.63389" lon="3.35755">
        <ele>286.6</ele>
        <time>2024-03-21T16:17:57Z</time>
      </trkpt>
      <trkpt lat="43.6339" lon="3.35759">
        <ele>285.3</ele>
        <time>2024-03-21T16:17:58Z</time>
      </trkpt>
      <trkpt lat="43.63393" lon="3.35761">
        <ele>284.6</ele>
        <time>2024-03-21T16:17:59Z</time>
      </trkpt>
      <trkpt lat="43.63396" lon="3.35764">
        <ele>283.6</ele>
        <time>2024-03-21T16:18:00Z</time>
      </trkpt>
      <trkpt lat="43.63399" lon="3.35766">
        <ele>282.9</ele>
        <time>2024-03-21T16:18:01Z</time>
      </trkpt>
      <trkpt lat="43.63403" lon="3.35768">
        <ele>282.1</ele>
        <time>2024-03-21T16:18:02Z</time>
      </trkpt>
      <trkpt lat="43.63407" lon="3.35771">
        <ele>281.1</ele>
        <time>2024-03-21T16:18:03Z</time>
      </trkpt>
      <trkpt lat="43.6341" lon="3.35775">
        <ele>280</ele>
        <time>2024-03-21T16:18:04Z</time>
      </trkpt>
      <trkpt lat="43.63413" lon="3.35777">
        <ele>279.3</ele>
        <time>2024-03-21T16:18:05Z</time>
      </trkpt>
      <trkpt lat="43.63415" lon="3.35778">
        <ele>279</ele>
        <time>2024-03-21T16:18:06Z</time>
      </trkpt>
      <trkpt lat="43.63419" lon="3.35779">
        <ele>278.5</ele>
        <time>2024-03-21T16:18:07Z</time>
      </trkpt>
      <trkpt lat="43.63421" lon="3.35779">
        <ele>278.2</ele>
        <time>2024-03-21T16:18:08Z</time>
      </trkpt>
      <trkpt lat="43.63425" lon="3.3578">
        <ele>277.4</ele>
        <time>2024-03-21T16:18:09Z</time>
      </trkpt>
      <trkpt lat="43.63427" lon="3.35783">
        <ele>276.6</ele>
        <time>2024-03-21T16:18:10Z</time>
      </trkpt>
      <trkpt lat="43.6343" lon="3.35787">
        <ele>275.4</ele>
        <time>2024-03-21T16:18:11Z</time>
      </trkpt>
      <trkpt lat="43.63437" lon="3.35794">
        <ele>272.9</ele>
        <time>2024-03-21T16:18:13Z</time>
      </trkpt>
      <trkpt lat="43.63442" lon="3.35795">
        <ele>271.7</ele>
        <time>2024-03-21T16:18:14Z</time>
      </trkpt>
      <trkpt lat="43.63448" lon="3.35797">
        <ele>270.7</ele>
        <time>2024-03-21T16:18:15Z</time>
      </trkpt>
      <trkpt lat="43.63455" lon="3.358">
        <ele>270</ele>
        <time>2024-03-21T16:18:16Z</time>
      </trkpt>
      <trkpt lat="43.63461" lon="3.35803">
        <ele>269.4</ele>
        <time>2024-03-21T16:18:17Z</time>
      </trkpt>
      <trkpt lat="43.63468" lon="3.3581">
        <ele>268.7</ele>
        <time>2024-03-21T16:18:19Z</time>
      </trkpt>
      <trkpt lat="43.63468" lon="3.3582">
        <ele>268</ele>
        <time>2024-03-21T16:18:21Z</time>
      </trkpt>
      <trkpt lat="43.63467" lon="3.35824">
        <ele>267.7</ele>
        <time>2024-03-21T16:18:22Z</time>
      </trkpt>
      <trkpt lat="43.63466" lon="3.35829">
        <ele>267.3</ele>
        <time>2024-03-21T16:18:23Z</time>
      </trkpt>
      <trkpt lat="43.63466" lon="3.35834">
        <ele>266.9</ele>
        <time>2024-03-21T16:18:24Z</time>
      </trkpt>
      <trkpt lat="43.63465" lon="3.35838">
        <ele>266.2</ele>
        <time>2024-03-21T16:18:25Z</time>
      </trkpt>
      <trkpt lat="43.63465" lon="3.35856">
        <ele>263.1</ele>
        <time>2024-03-21T16:18:29Z</time>
      </trkpt>
      <trkpt lat="43.63466" lon="3.35862">
        <ele>262.2</ele>
        <time>2024-03-21T16:18:30Z</time>
      </trkpt>
      <trkpt lat="43.63466" lon="3.35868">
        <ele>261.9</ele>
        <time>2024-03-21T16:18:31Z</time>
      </trkpt>
      <trkpt lat="43.63467" lon="3.35874">
        <ele>261.6</ele>
        <time>2024-03-21T16:18:32Z</time>
      </trkpt>
      <trkpt lat="43.63467" lon="3.35896">
        <ele>260.7</ele>
        <time>2024-03-21T16:18:35Z</time>
      </trkpt>
      <trkpt lat="43.63466" lon="3.35903">
        <ele>260.4</ele>
        <time>2024-03-21T16:18:36Z</time>
      </trkpt>
      <trkpt lat="43.63466" lon="3.35929">
        <ele>258</ele>
        <time>2024-03-21T16:18:42Z</time>
      </trkpt>
      <trkpt lat="43.63467" lon="3.35934">
        <ele>257.3</ele>
        <time>2024-03-21T16:18:43Z</time>
      </trkpt>
      <trkpt lat="43.63468" lon="3.35938">
        <ele>256.8</ele>
        <time>2024-03-21T16:18:44Z</time>
      </trkpt>
      <trkpt lat="43.63469" lon="3.35943">
        <ele>256.1</ele>
        <time>2024-03-21T16:18:45Z</time>
      </trkpt>
      <trkpt lat="43.6347" lon="3.3595">
        <ele>255.7</ele>
        <time>2024-03-21T16:18:46Z</time>
      </trkpt>
      <trkpt lat="43.63472" lon="3.3596">
        <ele>255.4</ele>
        <time>2024-03-21T16:18:48Z</time>
      </trkpt>
      <trkpt lat="43.63472" lon="3.3597">
        <ele>255.1</ele>
        <time>2024-03-21T16:18:50Z</time>
      </trkpt>
      <trkpt lat="43.63474" lon="3.3598">
        <ele>254.6</ele>
        <time>2024-03-21T16:18:52Z</time>
      </trkpt>
      <trkpt lat="43.63476" lon="3.35988">
        <ele>254.2</ele>
        <time>2024-03-21T16:18:54Z</time>
      </trkpt>
      <trkpt lat="43.63478" lon="3.35991">
        <ele>254.2</ele>
        <time>2024-03-21T16:18:55Z</time>
      </trkpt>
      <trkpt lat="43.6348" lon="3.35993">
        <ele>254.3</ele>
        <time>2024-03-21T16:18:56Z</time>
      </trkpt>
      <trkpt lat="43.63481" lon="3.35996">
        <ele>254.2</ele>
        <time>2024-03-21T16:18:57Z</time>
      </trkpt>
      <trkpt lat="43.63483" lon="3.35997">
        <ele>254.3</ele>
        <time>2024-03-21T16:18:58Z</time>
      </trkpt>
      <trkpt lat="43.63485" lon="3.36001">
        <ele>254.1</ele>
        <time>2024-03-21T16:18:59Z</time>
      </trkpt>
      <trkpt lat="43.63487" lon="3.36004">
        <ele>253.6</ele>
        <time>2024-03-21T16:19:00Z</time>
      </trkpt>
      <trkpt lat="43.63489" lon="3.36008">
        <ele>252.7</ele>
        <time>2024-03-21T16:19:01Z</time>
      </trkpt>
      <trkpt lat="43.63495" lon="3.36016">
        <ele>251.1</ele>
        <time>2024-03-21T16:19:03Z</time>
      </trkpt>
      <trkpt lat="43.63496" lon="3.36019">
        <ele>250.3</ele>
        <time>2024-03-21T16:19:04Z</time>
      </trkpt>
      <trkpt lat="43.63497" lon="3.36023">
        <ele>249.2</ele>
        <time>2024-03-21T16:19:05Z</time>
      </trkpt>
      <trkpt lat="43.63499" lon="3.36029">
        <ele>247.6</ele>
        <time>2024-03-21T16:19:07Z</time>
      </trkpt>
      <trkpt lat="43.63499" lon="3.36032">
        <ele>246.6</ele>
        <time>2024-03-21T16:19:08Z</time>
      </trkpt>
      <trkpt lat="43.63497" lon="3.36038">
        <ele>244.6</ele>
        <time>2024-03-21T16:19:10Z</time>
      </trkpt>
      <trkpt lat="43.63495" lon="3.36041">
        <ele>243.6</ele>
        <time>2024-03-21T16:19:11Z</time>
      </trkpt>
      <trkpt lat="43.63492" lon="3.36044">
        <ele>242.6</ele>
        <time>2024-03-21T16:19:12Z</time>
      </trkpt>
      <trkpt lat="43.6349" lon="3.36047">
        <ele>241.7</ele>
        <time>2024-03-21T16:19:13Z</time>
      </trkpt>
      <trkpt lat="43.63484" lon="3.36053">
        <ele>239.8</ele>
        <time>2024-03-21T16:19:15Z</time>
      </trkpt>
      <trkpt lat="43.6348" lon="3.36055">
        <ele>239.2</ele>
        <time>2024-03-21T16:19:16Z</time>
      </trkpt>
      <trkpt lat="43.63476" lon="3.36058">
        <ele>238.8</ele>
        <time>2024-03-21T16:19:17Z</time>
      </trkpt>
      <trkpt lat="43.63472" lon="3.36062">
        <ele>238.6</ele>
        <time>2024-03-21T16:19:18Z</time>
      </trkpt>
      <trkpt lat="43.63468" lon="3.36068">
        <ele>238.5</ele>
        <time>2024-03-21T16:19:19Z</time>
      </trkpt>
      <trkpt lat="43.63466" lon="3.36073">
        <ele>238.5</ele>
        <time>2024-03-21T16:19:20Z</time>
      </trkpt>
      <trkpt lat="43.63465" lon="3.36076">
        <ele>238.4</ele>
        <time>2024-03-21T16:19:21Z</time>
      </trkpt>
      <trkpt lat="43.63464" lon="3.36077">
        <ele>238.5</ele>
        <time>2024-03-21T16:19:53Z</time>
      </trkpt>
      <trkpt lat="43.63464" lon="3.3608">
        <ele>238.4</ele>
        <time>2024-03-21T16:20:24Z</time>
      </trkpt>
      <trkpt lat="43.63463" lon="3.36082">
        <ele>238.4</ele>
        <time>2024-03-21T16:20:25Z</time>
      </trkpt>
      <trkpt lat="43.63463" lon="3.36096">
        <ele>237.7</ele>
        <time>2024-03-21T16:20:29Z</time>
      </trkpt>
      <trkpt lat="43.63464" lon="3.36099">
        <ele>237.4</ele>
        <time>2024-03-21T16:20:30Z</time>
      </trkpt>
      <trkpt lat="43.63464" lon="3.36102">
        <ele>237.2</ele>
        <time>2024-03-21T16:20:31Z</time>
      </trkpt>
      <trkpt lat="43.63465" lon="3.36104">
        <ele>236.9</ele>
        <time>2024-03-21T16:20:32Z</time>
      </trkpt>
      <trkpt lat="43.63465" lon="3.3611">
        <ele>236.6</ele>
        <time>2024-03-21T16:20:34Z</time>
      </trkpt>
      <trkpt lat="43.63464" lon="3.36113">
        <ele>236.8</ele>
        <time>2024-03-21T16:20:35Z</time>
      </trkpt>
      <trkpt lat="43.63464" lon="3.36125">
        <ele>236.8</ele>
        <time>2024-03-21T16:20:38Z</time>
      </trkpt>
      <trkpt lat="43.63465" lon="3.3613">
        <ele>236.6</ele>
        <time>2024-03-21T16:20:39Z</time>
      </trkpt>
      <trkpt lat="43.63465" lon="3.36153">
        <ele>236.6</ele>
        <time>2024-03-21T16:20:43Z</time>
      </trkpt>
      <trkpt lat="43.63466" lon="3.36159">
        <ele>236.3</ele>
        <time>2024-03-21T16:20:44Z</time>
      </trkpt>
      <trkpt lat="43.63466" lon="3.36181">
        <ele>237.3</ele>
        <time>2024-03-21T16:20:50Z</time>
      </trkpt>
      <trkpt lat="43.63467" lon="3.36185">
        <ele>237.3</ele>
        <time>2024-03-21T16:20:51Z</time>
      </trkpt>
      <trkpt lat="43.63467" lon="3.36194">
        <ele>237.9</ele>
        <time>2024-03-21T16:20:53Z</time>
      </trkpt>
      <trkpt lat="43.63466" lon="3.36198">
        <ele>238.8</ele>
        <time>2024-03-21T16:20:54Z</time>
      </trkpt>
      <trkpt lat="43.63466" lon="3.36203">
        <ele>239.7</ele>
        <time>2024-03-21T16:20:55Z</time>
      </trkpt>
      <trkpt lat="43.63468" lon="3.36211">
        <ele>240.8</ele>
        <time>2024-03-21T16:20:57Z</time>
      </trkpt>
      <trkpt lat="43.6347" lon="3.36214">
        <ele>241</ele>
        <time>2024-03-21T16:20:58Z</time>
      </trkpt>
      <trkpt lat="43.63472" lon="3.36216">
        <ele>240.9</ele>
        <time>2024-03-21T16:20:59Z</time>
      </trkpt>
      <trkpt lat="43.63474" lon="3.36217">
        <ele>240.6</ele>
        <time>2024-03-21T16:21:00Z</time>
      </trkpt>
      <trkpt lat="43.63477" lon="3.36218">
        <ele>240.1</ele>
        <time>2024-03-21T16:21:01Z</time>
      </trkpt>
      <trkpt lat="43.63489" lon="3.36221">
        <ele>237.6</ele>
        <time>2024-03-21T16:21:04Z</time>
      </trkpt>
      <trkpt lat="43.63493" lon="3.36223">
        <ele>237</ele>
        <time>2024-03-21T16:21:05Z</time>
      </trkpt>
      <trkpt lat="43.63497" lon="3.36227">
        <ele>237</ele>
        <time>2024-03-21T16:21:06Z</time>
      </trkpt>
      <trkpt lat="43.63501" lon="3.36232">
        <ele>237.2</ele>
        <time>2024-03-21T16:21:07Z</time>
      </trkpt>
      <trkpt lat="43.63505" lon="3.36238">
        <ele>237.4</ele>
        <time>2024-03-21T16:21:08Z</time>
      </trkpt>
      <trkpt lat="43.63507" lon="3.36245">
        <ele>238.5</ele>
        <time>2024-03-21T16:21:09Z</time>
      </trkpt>
      <trkpt lat="43.6351" lon="3.36252">
        <ele>239.2</ele>
        <time>2024-03-21T16:21:10Z</time>
      </trkpt>
      <trkpt lat="43.63512" lon="3.36258">
        <ele>240</ele>
        <time>2024-03-21T16:21:11Z</time>
      </trkpt>
      <trkpt lat="43.63514" lon="3.36265">
        <ele>241</ele>
        <time>2024-03-21T16:21:12Z</time>
      </trkpt>
      <trkpt lat="43.63517" lon="3.36272">
        <ele>241.7</ele>
        <time>2024-03-21T16:21:13Z</time>
      </trkpt>
      <trkpt lat="43.63519" lon="3.36279">
        <ele>242.6</ele>
        <time>2024-03-21T16:21:14Z</time>
      </trkpt>
      <trkpt lat="43.6352" lon="3.36286">
        <ele>242.7</ele>
        <time>2024-03-21T16:21:15Z</time>
      </trkpt>
      <trkpt lat="43.63521" lon="3.36292">
        <ele>242.7</ele>
        <time>2024-03-21T16:21:16Z</time>
      </trkpt>
      <trkpt lat="43.63523" lon="3.36302">
        <ele>242.5</ele>
        <time>2024-03-21T16:21:18Z</time>
      </trkpt>
      <trkpt lat="43.63525" lon="3.36307">
        <ele>241.8</ele>
        <time>2024-03-21T16:21:19Z</time>
      </trkpt>
      <trkpt lat="43.63526" lon="3.36314">
        <ele>240.7</ele>
        <time>2024-03-21T16:21:20Z</time>
      </trkpt>
      <trkpt lat="43.63527" lon="3.3632">
        <ele>239.7</ele>
        <time>2024-03-21T16:21:21Z</time>
      </trkpt>
      <trkpt lat="43.63527" lon="3.36332">
        <ele>238.4</ele>
        <time>2024-03-21T16:21:23Z</time>
      </trkpt>
      <trkpt lat="43.63525" lon="3.36338">
        <ele>238.5</ele>
        <time>2024-03-21T16:21:24Z</time>
      </trkpt>
      <trkpt lat="43.63525" lon="3.36351">
        <ele>237</ele>
        <time>2024-03-21T16:21:26Z</time>
      </trkpt>
      <trkpt lat="43.63526" lon="3.36358">
        <ele>235.9</ele>
        <time>2024-03-21T16:21:27Z</time>
      </trkpt>
      <trkpt lat="43.63528" lon="3.36366">
        <ele>234.4</ele>
        <time>2024-03-21T16:21:28Z</time>
      </trkpt>
      <trkpt lat="43.63529" lon="3.36375">
        <ele>233</ele>
        <time>2024-03-21T16:21:29Z</time>
      </trkpt>
      <trkpt lat="43.63532" lon="3.36384">
        <ele>231</ele>
        <time>2024-03-21T16:21:30Z</time>
      </trkpt>
      <trkpt lat="43.63536" lon="3.36392">
        <ele>229.1</ele>
        <time>2024-03-21T16:21:31Z</time>
      </trkpt>
      <trkpt lat="43.6354" lon="3.36401">
        <ele>227.8</ele>
        <time>2024-03-21T16:21:32Z</time>
      </trkpt>
      <trkpt lat="43.63543" lon="3.36412">
        <ele>227</ele>
        <time>2024-03-21T16:21:33Z</time>
      </trkpt>
      <trkpt lat="43.63546" lon="3.36421">
        <ele>226.1</ele>
        <time>2024-03-21T16:21:34Z</time>
      </trkpt>
      <trkpt lat="43.63548" lon="3.36432">
        <ele>225.6</ele>
        <time>2024-03-21T16:21:35Z</time>
      </trkpt>
      <trkpt lat="43.63549" lon="3.3644">
        <ele>225.3</ele>
        <time>2024-03-21T16:21:36Z</time>
      </trkpt>
      <trkpt lat="43.6355" lon="3.3645">
        <ele>225</ele>
        <time>2024-03-21T16:21:37Z</time>
      </trkpt>
      <trkpt lat="43.6355" lon="3.36458">
        <ele>224.9</ele>
        <time>2024-03-21T16:21:38Z</time>
      </trkpt>
      <trkpt lat="43.63549" lon="3.36466">
        <ele>225.2</ele>
        <time>2024-03-21T16:21:39Z</time>
      </trkpt>
      <trkpt lat="43.6355" lon="3.36474">
        <ele>224.8</ele>
        <time>2024-03-21T16:21:40Z</time>
      </trkpt>
      <trkpt lat="43.63554" lon="3.3649">
        <ele>223.5</ele>
        <time>2024-03-21T16:21:42Z</time>
      </trkpt>
      <trkpt lat="43.63558" lon="3.36504">
        <ele>222.7</ele>
        <time>2024-03-21T16:21:44Z</time>
      </trkpt>
      <trkpt lat="43.63561" lon="3.36511">
        <ele>222.5</ele>
        <time>2024-03-21T16:21:45Z</time>
      </trkpt>
      <trkpt lat="43.63564" lon="3.36517">
        <ele>222.3</ele>
        <time>2024-03-21T16:21:46Z</time>
      </trkpt>
      <trkpt lat="43.63567" lon="3.36522">
        <ele>222.1</ele>
        <time>2024-03-21T16:21:47Z</time>
      </trkpt>
      <trkpt lat="43.63571" lon="3.36527">
        <ele>221.7</ele>
        <time>2024-03-21T16:21:48Z</time>
      </trkpt>
      <trkpt lat="43.63577" lon="3.36537">
        <ele>221.4</ele>
        <time>2024-03-21T16:21:50Z</time>
      </trkpt>
      <trkpt lat="43.6358" lon="3.36541">
        <ele>221.1</ele>
        <time>2024-03-21T16:21:51Z</time>
      </trkpt>
      <trkpt lat="43.63583" lon="3.36546">
        <ele>220.7</ele>
        <time>2024-03-21T16:21:52Z</time>
      </trkpt>
      <trkpt lat="43.63585" lon="3.36551">
        <ele>220.7</ele>
        <time>2024-03-21T16:21:53Z</time>
      </trkpt>
      <trkpt lat="43.63588" lon="3.36558">
        <ele>220.6</ele>
        <time>2024-03-21T16:21:54Z</time>
      </trkpt>
      <trkpt lat="43.63589" lon="3.36564">
        <ele>220.7</ele>
        <time>2024-03-21T16:21:55Z</time>
      </trkpt>
      <trkpt lat="43.63591" lon="3.36571">
        <ele>220.7</ele>
        <time>2024-03-21T16:21:56Z</time>
      </trkpt>
      <trkpt lat="43.63592" lon="3.36579">
        <ele>220.9</ele>
        <time>2024-03-21T16:21:57Z</time>
      </trkpt>
      <trkpt lat="43.63592" lon="3.36586">
        <ele>221</ele>
        <time>2024-03-21T16:21:58Z</time>
      </trkpt>
      <trkpt lat="43.6359" lon="3.36592">
        <ele>221.2</ele>
        <time>2024-03-21T16:21:59Z</time>
      </trkpt>
      <trkpt lat="43.63589" lon="3.36597">
        <ele>221.3</ele>
        <time>2024-03-21T16:22:00Z</time>
      </trkpt>
      <trkpt lat="43.63589" lon="3.36615">
        <ele>221</ele>
        <time>2024-03-21T16:22:03Z</time>
      </trkpt>
      <trkpt lat="43.63588" lon="3.36622">
        <ele>220.9</ele>
        <time>2024-03-21T16:22:04Z</time>
      </trkpt>
      <trkpt lat="43.63587" lon="3.36628">
        <ele>220.9</ele>
        <time>2024-03-21T16:22:05Z</time>
      </trkpt>
      <trkpt lat="43.63585" lon="3.36633">
        <ele>221</ele>
        <time>2024-03-21T16:22:06Z</time>
      </trkpt>
      <trkpt lat="43.63582" lon="3.36648">
        <ele>221</ele>
        <time>2024-03-21T16:22:09Z</time>
      </trkpt>
      <trkpt lat="43.63582" lon="3.36653">
        <ele>220.9</ele>
        <time>2024-03-21T16:22:10Z</time>
      </trkpt>
      <trkpt lat="43.6358" lon="3.36659">
        <ele>221.2</ele>
        <time>2024-03-21T16:22:11Z</time>
      </trkpt>
      <trkpt lat="43.63579" lon="3.36666">
        <ele>221.3</ele>
        <time>2024-03-21T16:22:12Z</time>
      </trkpt>
      <trkpt lat="43.63577" lon="3.36674">
        <ele>221.4</ele>
        <time>2024-03-21T16:22:13Z</time>
      </trkpt>
      <trkpt lat="43.63576" lon="3.36682">
        <ele>221.1</ele>
        <time>2024-03-21T16:22:14Z</time>
      </trkpt>
      <trkpt lat="43.63576" lon="3.36691">
        <ele>220.5</ele>
        <time>2024-03-21T16:22:15Z</time>
      </trkpt>
      <trkpt lat="43.63578" lon="3.36709">
        <ele>219.9</ele>
        <time>2024-03-21T16:22:17Z</time>
      </trkpt>
      <trkpt lat="43.63579" lon="3.36719">
        <ele>219.6</ele>
        <time>2024-03-21T16:22:18Z</time>
      </trkpt>
      <trkpt lat="43.63581" lon="3.36728">
        <ele>219.4</ele>
        <time>2024-03-21T16:22:19Z</time>
      </trkpt>
      <trkpt lat="43.63582" lon="3.36734">
        <ele>219.3</ele>
        <time>2024-03-21T16:22:20Z</time>
      </trkpt>
      <trkpt lat="43.63584" lon="3.36739">
        <ele>218.9</ele>
        <time>2024-03-21T16:22:21Z</time>
      </trkpt>
      <trkpt lat="43.63585" lon="3.36745">
        <ele>218.8</ele>
        <time>2024-03-21T16:22:22Z</time>
      </trkpt>
      <trkpt lat="43.63591" lon="3.36757">
        <ele>218.1</ele>
        <time>2024-03-21T16:22:25Z</time>
      </trkpt>
      <trkpt lat="43.63593" lon="3.3676">
        <ele>217.8</ele>
        <time>2024-03-21T16:22:26Z</time>
      </trkpt>
      <trkpt lat="43.63595" lon="3.36765">
        <ele>217.6</ele>
        <time>2024-03-21T16:22:27Z</time>
      </trkpt>
      <trkpt lat="43.63596" lon="3.36771">
        <ele>217.6</ele>
        <time>2024-03-21T16:22:28Z</time>
      </trkpt>
      <trkpt lat="43.63597" lon="3.36776">
        <ele>217.5</ele>
        <time>2024-03-21T16:22:29Z</time>
      </trkpt>
      <trkpt lat="43.63597" lon="3.36786">
        <ele>218</ele>
        <time>2024-03-21T16:22:31Z</time>
      </trkpt>
      <trkpt lat="43.63596" lon="3.3679">
        <ele>218.4</ele>
        <time>2024-03-21T16:22:32Z</time>
      </trkpt>
      <trkpt lat="43.63596" lon="3.36793">
        <ele>218.6</ele>
        <time>2024-03-21T16:22:33Z</time>
      </trkpt>
      <trkpt lat="43.63595" lon="3.36795">
        <ele>218.9</ele>
        <time>2024-03-21T16:22:34Z</time>
      </trkpt>
      <trkpt lat="43.63595" lon="3.36801">
        <ele>219.2</ele>
        <time>2024-03-21T16:22:36Z</time>
      </trkpt>
      <trkpt lat="43.63596" lon="3.36804">
        <ele>219.2</ele>
        <time>2024-03-21T16:22:37Z</time>
      </trkpt>
      <trkpt lat="43.63598" lon="3.36806">
        <ele>218.8</ele>
        <time>2024-03-21T16:22:38Z</time>
      </trkpt>
      <trkpt lat="43.636" lon="3.36807">
        <ele>218.4</ele>
        <time>2024-03-21T16:22:39Z</time>
      </trkpt>
      <trkpt lat="43.63602" lon="3.36806">
        <ele>218</ele>
        <time>2024-03-21T16:22:40Z</time>
      </trkpt>
      <trkpt lat="43.63605" lon="3.36808">
        <ele>217.3</ele>
        <time>2024-03-21T16:22:41Z</time>
      </trkpt>
      <trkpt lat="43.63608" lon="3.36809">
        <ele>216.7</ele>
        <time>2024-03-21T16:22:42Z</time>
      </trkpt>
      <trkpt lat="43.63613" lon="3.36812">
        <ele>215.8</ele>
        <time>2024-03-21T16:22:43Z</time>
      </trkpt>
      <trkpt lat="43.63618" lon="3.36814">
        <ele>215.3</ele>
        <time>2024-03-21T16:22:44Z</time>
      </trkpt>
      <trkpt lat="43.63622" lon="3.36818">
        <ele>215</ele>
        <time>2024-03-21T16:22:45Z</time>
      </trkpt>
      <trkpt lat="43.63626" lon="3.36821">
        <ele>214.7</ele>
        <time>2024-03-21T16:22:46Z</time>
      </trkpt>
      <trkpt lat="43.6363" lon="3.36826">
        <ele>214.5</ele>
        <time>2024-03-21T16:22:47Z</time>
      </trkpt>
      <trkpt lat="43.63639" lon="3.36841">
        <ele>214.5</ele>
        <time>2024-03-21T16:22:50Z</time>
      </trkpt>
      <trkpt lat="43.63641" lon="3.36846">
        <ele>214.5</ele>
        <time>2024-03-21T16:22:51Z</time>
      </trkpt>
      <trkpt lat="43.63643" lon="3.36852">
        <ele>214.6</ele>
        <time>2024-03-21T16:22:52Z</time>
      </trkpt>
      <trkpt lat="43.63647" lon="3.36857">
        <ele>214.2</ele>
        <time>2024-03-21T16:22:53Z</time>
      </trkpt>
      <trkpt lat="43.63653" lon="3.3686">
        <ele>213.4</ele>
        <time>2024-03-21T16:22:54Z</time>
      </trkpt>
      <trkpt lat="43.6366" lon="3.36861">
        <ele>212.2</ele>
        <time>2024-03-21T16:22:55Z</time>
      </trkpt>
      <trkpt lat="43.63668" lon="3.36863">
        <ele>210.8</ele>
        <time>2024-03-21T16:22:56Z</time>
      </trkpt>
      <trkpt lat="43.63675" lon="3.36865">
        <ele>209.5</ele>
        <time>2024-03-21T16:22:57Z</time>
      </trkpt>
      <trkpt lat="43.63689" lon="3.36867">
        <ele>206.6</ele>
        <time>2024-03-21T16:22:59Z</time>
      </trkpt>
      <trkpt lat="43.63696" lon="3.36869">
        <ele>205.3</ele>
        <time>2024-03-21T16:23:00Z</time>
      </trkpt>
      <trkpt lat="43.63712" lon="3.36869">
        <ele>202.3</ele>
        <time>2024-03-21T16:23:02Z</time>
      </trkpt>
      <trkpt lat="43.63719" lon="3.36868">
        <ele>201.1</ele>
        <time>2024-03-21T16:23:03Z</time>
      </trkpt>
      <trkpt lat="43.63727" lon="3.36867">
        <ele>199.8</ele>
        <time>2024-03-21T16:23:04Z</time>
      </trkpt>
      <trkpt lat="43.63734" lon="3.36866">
        <ele>198.7</ele>
        <time>2024-03-21T16:23:05Z</time>
      </trkpt>
      <trkpt lat="43.63754" lon="3.36866">
        <ele>195.5</ele>
        <time>2024-03-21T16:23:08Z</time>
      </trkpt>
      <trkpt lat="43.6377" lon="3.36872">
        <ele>193.6</ele>
        <time>2024-03-21T16:23:10Z</time>
      </trkpt>
      <trkpt lat="43.63777" lon="3.36876">
        <ele>192.6</ele>
        <time>2024-03-21T16:23:11Z</time>
      </trkpt>
      <trkpt lat="43.63789" lon="3.36884">
        <ele>191</ele>
        <time>2024-03-21T16:23:13Z</time>
      </trkpt>
      <trkpt lat="43.63796" lon="3.36886">
        <ele>190.1</ele>
        <time>2024-03-21T16:23:14Z</time>
      </trkpt>
      <trkpt lat="43.63802" lon="3.36889">
        <ele>189.4</ele>
        <time>2024-03-21T16:23:15Z</time>
      </trkpt>
      <trkpt lat="43.63807" lon="3.36892">
        <ele>188.8</ele>
        <time>2024-03-21T16:23:16Z</time>
      </trkpt>
      <trkpt lat="43.63819" lon="3.36896">
        <ele>187.8</ele>
        <time>2024-03-21T16:23:18Z</time>
      </trkpt>
      <trkpt lat="43.63829" lon="3.369">
        <ele>186.9</ele>
        <time>2024-03-21T16:23:20Z</time>
      </trkpt>
      <trkpt lat="43.63833" lon="3.36904">
        <ele>186.5</ele>
        <time>2024-03-21T16:23:21Z</time>
      </trkpt>
      <trkpt lat="43.63834" lon="3.36909">
        <ele>186.2</ele>
        <time>2024-03-21T16:23:22Z</time>
      </trkpt>
      <trkpt lat="43.63834" lon="3.36916">
        <ele>186</ele>
        <time>2024-03-21T16:23:23Z</time>
      </trkpt>
      <trkpt lat="43.63832" lon="3.36923">
        <ele>185.7</ele>
        <time>2024-03-21T16:23:24Z</time>
      </trkpt>
      <trkpt lat="43.63829" lon="3.36931">
        <ele>185.4</ele>
        <time>2024-03-21T16:23:25Z</time>
      </trkpt>
      <trkpt lat="43.63827" lon="3.36938">
        <ele>185.3</ele>
        <time>2024-03-21T16:23:26Z</time>
      </trkpt>
      <trkpt lat="43.63824" lon="3.36945">
        <ele>185.3</ele>
        <time>2024-03-21T16:23:27Z</time>
      </trkpt>
      <trkpt lat="43.63823" lon="3.36952">
        <ele>185.1</ele>
        <time>2024-03-21T16:23:28Z</time>
      </trkpt>
      <trkpt lat="43.63821" lon="3.3696">
        <ele>185</ele>
        <time>2024-03-21T16:23:29Z</time>
      </trkpt>
      <trkpt lat="43.63819" lon="3.36966">
        <ele>184.9</ele>
        <time>2024-03-21T16:23:30Z</time>
      </trkpt>
      <trkpt lat="43.63817" lon="3.36969">
        <ele>184.9</ele>
        <time>2024-03-21T16:23:31Z</time>
      </trkpt>
      <trkpt lat="43.63815" lon="3.36973">
        <ele>185</ele>
        <time>2024-03-21T16:23:33Z</time>
      </trkpt>
      <trkpt lat="43.63812" lon="3.36976">
        <ele>185.2</ele>
        <time>2024-03-21T16:23:35Z</time>
      </trkpt>
      <trkpt lat="43.63808" lon="3.36978">
        <ele>185.5</ele>
        <time>2024-03-21T16:23:37Z</time>
      </trkpt>
      <trkpt lat="43.63806" lon="3.36978">
        <ele>185.7</ele>
        <time>2024-03-21T16:23:38Z</time>
      </trkpt>
      <trkpt lat="43.63804" lon="3.36979">
        <ele>186</ele>
        <time>2024-03-21T16:23:39Z</time>
      </trkpt>
      <trkpt lat="43.63802" lon="3.36981">
        <ele>186.3</ele>
        <time>2024-03-21T16:23:40Z</time>
      </trkpt>
      <trkpt lat="43.63801" lon="3.36983">
        <ele>186.4</ele>
        <time>2024-03-21T16:23:41Z</time>
      </trkpt>
      <trkpt lat="43.63799" lon="3.36985">
        <ele>186.6</ele>
        <time>2024-03-21T16:23:42Z</time>
      </trkpt>
      <trkpt lat="43.63798" lon="3.36987">
        <ele>186.7</ele>
        <time>2024-03-21T16:23:43Z</time>
      </trkpt>
      <trkpt lat="43.63792" lon="3.36996">
        <ele>187.2</ele>
        <time>2024-03-21T16:23:46Z</time>
      </trkpt>
      <trkpt lat="43.63789" lon="3.36999">
        <ele>187.4</ele>
        <time>2024-03-21T16:23:47Z</time>
      </trkpt>
      <trkpt lat="43.63787" lon="3.37002">
        <ele>187.6</ele>
        <time>2024-03-21T16:23:48Z</time>
      </trkpt>
      <trkpt lat="43.63784" lon="3.37005">
        <ele>188</ele>
        <time>2024-03-21T16:23:49Z</time>
      </trkpt>
      <trkpt lat="43.63782" lon="3.37008">
        <ele>188.2</ele>
        <time>2024-03-21T16:23:50Z</time>
      </trkpt>
      <trkpt lat="43.6378" lon="3.3701">
        <ele>188.4</ele>
        <time>2024-03-21T16:23:51Z</time>
      </trkpt>
      <trkpt lat="43.63778" lon="3.37011">
        <ele>188.6</ele>
        <time>2024-03-21T16:23:52Z</time>
      </trkpt>
      <trkpt lat="43.63775" lon="3.37014">
        <ele>189</ele>
        <time>2024-03-21T16:23:54Z</time>
      </trkpt>
      <trkpt lat="43.63773" lon="3.37017">
        <ele>189.2</ele>
        <time>2024-03-21T16:23:55Z</time>
      </trkpt>
      <trkpt lat="43.63768" lon="3.37022">
        <ele>189.8</ele>
        <time>2024-03-21T16:23:58Z</time>
      </trkpt>
      <trkpt lat="43.63767" lon="3.37024">
        <ele>189.8</ele>
        <time>2024-03-21T16:23:59Z</time>
      </trkpt>
      <trkpt lat="43.63765" lon="3.37025">
        <ele>190</ele>
        <time>2024-03-21T16:24:00Z</time>
      </trkpt>
      <trkpt lat="43.63747" lon="3.37043">
        <ele>192.1</ele>
        <time>2024-03-21T16:24:10Z</time>
      </trkpt>
      <trkpt lat="43.63744" lon="3.37045">
        <ele>192.8</ele>
        <time>2024-03-21T16:24:11Z</time>
      </trkpt>
      <trkpt lat="43.63742" lon="3.37047">
        <ele>193.1</ele>
        <time>2024-03-21T16:24:12Z</time>
      </trkpt>
      <trkpt lat="43.63741" lon="3.37051">
        <ele>193.2</ele>
        <time>2024-03-21T16:24:13Z</time>
      </trkpt>
      <trkpt lat="43.63739" lon="3.37054">
        <ele>193.5</ele>
        <time>2024-03-21T16:24:14Z</time>
      </trkpt>
      <trkpt lat="43.63736" lon="3.37057">
        <ele>194</ele>
        <time>2024-03-21T16:24:15Z</time>
      </trkpt>
      <trkpt lat="43.63734" lon="3.37061">
        <ele>194.3</ele>
        <time>2024-03-21T16:24:16Z</time>
      </trkpt>
      <trkpt lat="43.63732" lon="3.37063">
        <ele>194.6</ele>
        <time>2024-03-21T16:24:17Z</time>
      </trkpt>
      <trkpt lat="43.6373" lon="3.37066">
        <ele>194.9</ele>
        <time>2024-03-21T16:24:18Z</time>
      </trkpt>
      <trkpt lat="43.63728" lon="3.3707">
        <ele>195</ele>
        <time>2024-03-21T16:24:19Z</time>
      </trkpt>
      <trkpt lat="43.63725" lon="3.37072">
        <ele>195.4</ele>
        <time>2024-03-21T16:24:20Z</time>
      </trkpt>
      <trkpt lat="43.63723" lon="3.37075">
        <ele>195.5</ele>
        <time>2024-03-21T16:24:21Z</time>
      </trkpt>
      <trkpt lat="43.63721" lon="3.37077">
        <ele>195.7</ele>
        <time>2024-03-21T16:24:22Z</time>
      </trkpt>
      <trkpt lat="43.63719" lon="3.3708">
        <ele>195.9</ele>
        <time>2024-03-21T16:24:23Z</time>
      </trkpt>
      <trkpt lat="43.63716" lon="3.37082">
        <ele>196.5</ele>
        <time>2024-03-21T16:24:24Z</time>
      </trkpt>
      <trkpt lat="43.63714" lon="3.37085">
        <ele>196.7</ele>
        <time>2024-03-21T16:24:25Z</time>
      </trkpt>
      <trkpt lat="43.63712" lon="3.37087">
        <ele>197.1</ele>
        <time>2024-03-21T16:24:26Z</time>
      </trkpt>
      <trkpt lat="43.6371" lon="3.3709">
        <ele>197.4</ele>
        <time>2024-03-21T16:24:27Z</time>
      </trkpt>
      <trkpt lat="43.63708" lon="3.37092">
        <ele>197.8</ele>
        <time>2024-03-21T16:24:28Z</time>
      </trkpt>
      <trkpt lat="43.63706" lon="3.37095">
        <ele>198</ele>
        <time>2024-03-21T16:24:29Z</time>
      </trkpt>
      <trkpt lat="43.63702" lon="3.37099">
        <ele>198.5</ele>
        <time>2024-03-21T16:24:31Z</time>
      </trkpt>
      <trkpt lat="43.637" lon="3.37102">
        <ele>198.7</ele>
        <time>2024-03-21T16:24:32Z</time>
      </trkpt>
      <trkpt lat="43.63699" lon="3.37104">
        <ele>198.8</ele>
        <time>2024-03-21T16:24:33Z</time>
      </trkpt>
      <trkpt lat="43.63697" lon="3.37107">
        <ele>198.9</ele>
        <time>2024-03-21T16:24:34Z</time>
      </trkpt>
      <trkpt lat="43.63694" lon="3.3711">
        <ele>199.2</ele>
        <time>2024-03-21T16:24:35Z</time>
      </trkpt>
      <trkpt lat="43.63682" lon="3.37128">
        <ele>200.4</ele>
        <time>2024-03-21T16:24:41Z</time>
      </trkpt>
      <trkpt lat="43.6368" lon="3.3713">
        <ele>200.6</ele>
        <time>2024-03-21T16:24:42Z</time>
      </trkpt>
      <trkpt lat="43.63678" lon="3.37133">
        <ele>200.7</ele>
        <time>2024-03-21T16:24:43Z</time>
      </trkpt>
      <trkpt lat="43.63674" lon="3.37137">
        <ele>201.1</ele>
        <time>2024-03-21T16:24:45Z</time>
      </trkpt>
      <trkpt lat="43.6367" lon="3.37143">
        <ele>201.4</ele>
        <time>2024-03-21T16:24:47Z</time>
      </trkpt>
      <trkpt lat="43.63668" lon="3.37145">
        <ele>201.6</ele>
        <time>2024-03-21T16:24:48Z</time>
      </trkpt>
      <trkpt lat="43.63667" lon="3.37149">
        <ele>201.6</ele>
        <time>2024-03-21T16:24:49Z</time>
      </trkpt>
      <trkpt lat="43.63665" lon="3.37152">
        <ele>201.7</ele>
        <time>2024-03-21T16:24:50Z</time>
      </trkpt>
      <trkpt lat="43.63665" lon="3.37156">
        <ele>201.6</ele>
        <time>2024-03-21T16:24:51Z</time>
      </trkpt>
      <trkpt lat="43.63664" lon="3.3716">
        <ele>201.6</ele>
        <time>2024-03-21T16:24:52Z</time>
      </trkpt>
      <trkpt lat="43.63664" lon="3.37164">
        <ele>201.4</ele>
        <time>2024-03-21T16:24:53Z</time>
      </trkpt>
      <trkpt lat="43.63663" lon="3.37168">
        <ele>201.4</ele>
        <time>2024-03-21T16:24:54Z</time>
      </trkpt>
      <trkpt lat="43.63663" lon="3.37172">
        <ele>201.4</ele>
        <time>2024-03-21T16:24:55Z</time>
      </trkpt>
      <trkpt lat="43.63662" lon="3.37177">
        <ele>201.5</ele>
        <time>2024-03-21T16:24:56Z</time>
      </trkpt>
      <trkpt lat="43.63662" lon="3.37181">
        <ele>201.5</ele>
        <time>2024-03-21T16:24:57Z</time>
      </trkpt>
      <trkpt lat="43.63661" lon="3.37186">
        <ele>201.6</ele>
        <time>2024-03-21T16:24:58Z</time>
      </trkpt>
      <trkpt lat="43.63661" lon="3.37191">
        <ele>201.6</ele>
        <time>2024-03-21T16:24:59Z</time>
      </trkpt>
      <trkpt lat="43.6366" lon="3.37196">
        <ele>201.8</ele>
        <time>2024-03-21T16:25:00Z</time>
      </trkpt>
      <trkpt lat="43.63659" lon="3.372">
        <ele>202</ele>
        <time>2024-03-21T16:25:01Z</time>
      </trkpt>
      <trkpt lat="43.63658" lon="3.37203">
        <ele>202.2</ele>
        <time>2024-03-21T16:25:02Z</time>
      </trkpt>
      <trkpt lat="43.63656" lon="3.37211">
        <ele>202.7</ele>
        <time>2024-03-21T16:25:04Z</time>
      </trkpt>
      <trkpt lat="43.63653" lon="3.37214">
        <ele>203.2</ele>
        <time>2024-03-21T16:25:05Z</time>
      </trkpt>
      <trkpt lat="43.6365" lon="3.37216">
        <ele>203.6</ele>
        <time>2024-03-21T16:25:06Z</time>
      </trkpt>
      <trkpt lat="43.63647" lon="3.37217">
        <ele>203.9</ele>
        <time>2024-03-21T16:25:07Z</time>
      </trkpt>
      <trkpt lat="43.63641" lon="3.37217">
        <ele>204.6</ele>
        <time>2024-03-21T16:25:09Z</time>
      </trkpt>
      <trkpt lat="43.63638" lon="3.37216">
        <ele>204.8</ele>
        <time>2024-03-21T16:25:10Z</time>
      </trkpt>
      <trkpt lat="43.63635" lon="3.37216">
        <ele>205.1</ele>
        <time>2024-03-21T16:25:11Z</time>
      </trkpt>
      <trkpt lat="43.63633" lon="3.37215">
        <ele>205.2</ele>
        <time>2024-03-21T16:25:12Z</time>
      </trkpt>
      <trkpt lat="43.6363" lon="3.37216">
        <ele>205.5</ele>
        <time>2024-03-21T16:25:13Z</time>
      </trkpt>
      <trkpt lat="43.63626" lon="3.37218">
        <ele>205.8</ele>
        <time>2024-03-21T16:25:14Z</time>
      </trkpt>
      <trkpt lat="43.63623" lon="3.37221">
        <ele>206.1</ele>
        <time>2024-03-21T16:25:15Z</time>
      </trkpt>
      <trkpt lat="43.63619" lon="3.37229">
        <ele>206.8</ele>
        <time>2024-03-21T16:25:17Z</time>
      </trkpt>
      <trkpt lat="43.63619" lon="3.37244">
        <ele>207.6</ele>
        <time>2024-03-21T16:25:20Z</time>
      </trkpt>
      <trkpt lat="43.6362" lon="3.37248">
        <ele>207.6</ele>
        <time>2024-03-21T16:25:21Z</time>
      </trkpt>
      <trkpt lat="43.6362" lon="3.37257">
        <ele>207.5</ele>
        <time>2024-03-21T16:25:23Z</time>
      </trkpt>
      <trkpt lat="43.63621" lon="3.37261">
        <ele>207.2</ele>
        <time>2024-03-21T16:25:24Z</time>
      </trkpt>
      <trkpt lat="43.63621" lon="3.3728">
        <ele>206.5</ele>
        <time>2024-03-21T16:25:28Z</time>
      </trkpt>
      <trkpt lat="43.6362" lon="3.37285">
        <ele>206.4</ele>
        <time>2024-03-21T16:25:29Z</time>
      </trkpt>
      <trkpt lat="43.6362" lon="3.3729">
        <ele>206.1</ele>
        <time>2024-03-21T16:25:30Z</time>
      </trkpt>
      <trkpt lat="43.63618" lon="3.37295">
        <ele>206.2</ele>
        <time>2024-03-21T16:25:31Z</time>
      </trkpt>
      <trkpt lat="43.63617" lon="3.37302">
        <ele>206.1</ele>
        <time>2024-03-21T16:25:32Z</time>
      </trkpt>
      <trkpt lat="43.63616" lon="3.37308">
        <ele>206</ele>
        <time>2024-03-21T16:25:33Z</time>
      </trkpt>
      <trkpt lat="43.63614" lon="3.37314">
        <ele>205.9</ele>
        <time>2024-03-21T16:25:34Z</time>
      </trkpt>
      <trkpt lat="43.63613" lon="3.37321">
        <ele>205.6</ele>
        <time>2024-03-21T16:25:35Z</time>
      </trkpt>
      <trkpt lat="43.63611" lon="3.37328">
        <ele>205.4</ele>
        <time>2024-03-21T16:25:36Z</time>
      </trkpt>
      <trkpt lat="43.63609" lon="3.37334">
        <ele>205.1</ele>
        <time>2024-03-21T16:25:37Z</time>
      </trkpt>
      <trkpt lat="43.63608" lon="3.37341">
        <ele>204.7</ele>
        <time>2024-03-21T16:25:38Z</time>
      </trkpt>
      <trkpt lat="43.63606" lon="3.37348">
        <ele>204.3</ele>
        <time>2024-03-21T16:25:39Z</time>
      </trkpt>
      <trkpt lat="43.63606" lon="3.37357">
        <ele>203.7</ele>
        <time>2024-03-21T16:25:40Z</time>
      </trkpt>
      <trkpt lat="43.63607" lon="3.37365">
        <ele>203.2</ele>
        <time>2024-03-21T16:25:41Z</time>
      </trkpt>
      <trkpt lat="43.63608" lon="3.37374">
        <ele>202.8</ele>
        <time>2024-03-21T16:25:42Z</time>
      </trkpt>
      <trkpt lat="43.6361" lon="3.37383">
        <ele>202.3</ele>
        <time>2024-03-21T16:25:43Z</time>
      </trkpt>
      <trkpt lat="43.63612" lon="3.37393">
        <ele>201.6</ele>
        <time>2024-03-21T16:25:44Z</time>
      </trkpt>
      <trkpt lat="43.63613" lon="3.37401">
        <ele>201</ele>
        <time>2024-03-21T16:25:45Z</time>
      </trkpt>
      <trkpt lat="43.63612" lon="3.37411">
        <ele>200.3</ele>
        <time>2024-03-21T16:25:46Z</time>
      </trkpt>
      <trkpt lat="43.63611" lon="3.3742">
        <ele>199.8</ele>
        <time>2024-03-21T16:25:47Z</time>
      </trkpt>
      <trkpt lat="43.63609" lon="3.37428">
        <ele>199.4</ele>
        <time>2024-03-21T16:25:48Z</time>
      </trkpt>
      <trkpt lat="43.63608" lon="3.37436">
        <ele>199</ele>
        <time>2024-03-21T16:25:49Z</time>
      </trkpt>
      <trkpt lat="43.63606" lon="3.37448">
        <ele>198.7</ele>
        <time>2024-03-21T16:25:51Z</time>
      </trkpt>
      <trkpt lat="43.63606" lon="3.37462">
        <ele>198.3</ele>
        <time>2024-03-21T16:25:53Z</time>
      </trkpt>
      <trkpt lat="43.63605" lon="3.37471">
        <ele>198.3</ele>
        <time>2024-03-21T16:25:54Z</time>
      </trkpt>
      <trkpt lat="43.63602" lon="3.37477">
        <ele>198.6</ele>
        <time>2024-03-21T16:25:55Z</time>
      </trkpt>
      <trkpt lat="43.636" lon="3.37483">
        <ele>198.6</ele>
        <time>2024-03-21T16:25:56Z</time>
      </trkpt>
      <trkpt lat="43.63598" lon="3.37487">
        <ele>198.8</ele>
        <time>2024-03-21T16:25:57Z</time>
      </trkpt>
      <trkpt lat="43.63596" lon="3.37492">
        <ele>198.8</ele>
        <time>2024-03-21T16:25:58Z</time>
      </trkpt>
      <trkpt lat="43.6359" lon="3.37502">
        <ele>199.4</ele>
        <time>2024-03-21T16:26:00Z</time>
      </trkpt>
      <trkpt lat="43.63584" lon="3.3751">
        <ele>200.1</ele>
        <time>2024-03-21T16:26:02Z</time>
      </trkpt>
      <trkpt lat="43.6358" lon="3.37514">
        <ele>200.7</ele>
        <time>2024-03-21T16:26:04Z</time>
      </trkpt>
      <trkpt lat="43.63578" lon="3.37515">
        <ele>201</ele>
        <time>2024-03-21T16:26:05Z</time>
      </trkpt>
      <trkpt lat="43.63577" lon="3.37516">
        <ele>201.1</ele>
        <time>2024-03-21T16:26:06Z</time>
      </trkpt>
      <trkpt lat="43.63576" lon="3.37516">
        <ele>201.3</ele>
        <time>2024-03-21T16:26:22Z</time>
      </trkpt>
      <trkpt lat="43.63575" lon="3.37519">
        <ele>201.3</ele>
        <time>2024-03-21T16:26:37Z</time>
      </trkpt>
      <trkpt lat="43.63575" lon="3.37528">
        <ele>200.8</ele>
        <time>2024-03-21T16:26:39Z</time>
      </trkpt>
      <trkpt lat="43.63574" lon="3.37536">
        <ele>200.5</ele>
        <time>2024-03-21T16:26:40Z</time>
      </trkpt>
      <trkpt lat="43.63574" lon="3.37545">
        <ele>200</ele>
        <time>2024-03-21T16:26:41Z</time>
      </trkpt>
      <trkpt lat="43.63575" lon="3.37554">
        <ele>199.3</ele>
        <time>2024-03-21T16:26:42Z</time>
      </trkpt>
      <trkpt lat="43.63576" lon="3.37564">
        <ele>198.5</ele>
        <time>2024-03-21T16:26:43Z</time>
      </trkpt>
      <trkpt lat="43.63577" lon="3.37575">
        <ele>197.7</ele>
        <time>2024-03-21T16:26:44Z</time>
      </trkpt>
      <trkpt lat="43.63579" lon="3.37587">
        <ele>196.6</ele>
        <time>2024-03-21T16:26:45Z</time>
      </trkpt>
      <trkpt lat="43.63581" lon="3.37598">
        <ele>195.8</ele>
        <time>2024-03-21T16:26:46Z</time>
      </trkpt>
      <trkpt lat="43.63582" lon="3.37609">
        <ele>195.3</ele>
        <time>2024-03-21T16:26:47Z</time>
      </trkpt>
      <trkpt lat="43.63584" lon="3.3762">
        <ele>194.3</ele>
        <time>2024-03-21T16:26:48Z</time>
      </trkpt>
      <trkpt lat="43.63587" lon="3.3763">
        <ele>193.2</ele>
        <time>2024-03-21T16:26:49Z</time>
      </trkpt>
      <trkpt lat="43.63591" lon="3.3764">
        <ele>192.2</ele>
        <time>2024-03-21T16:26:50Z</time>
      </trkpt>
      <trkpt lat="43.63598" lon="3.37649">
        <ele>191.4</ele>
        <time>2024-03-21T16:26:51Z</time>
      </trkpt>
      <trkpt lat="43.63606" lon="3.37656">
        <ele>190.6</ele>
        <time>2024-03-21T16:26:52Z</time>
      </trkpt>
      <trkpt lat="43.63614" lon="3.37661">
        <ele>189.8</ele>
        <time>2024-03-21T16:26:53Z</time>
      </trkpt>
      <trkpt lat="43.63623" lon="3.37666">
        <ele>189.1</ele>
        <time>2024-03-21T16:26:54Z</time>
      </trkpt>
      <trkpt lat="43.63631" lon="3.3767">
        <ele>188.7</ele>
        <time>2024-03-21T16:26:55Z</time>
      </trkpt>
      <trkpt lat="43.63638" lon="3.37673">
        <ele>188.3</ele>
        <time>2024-03-21T16:26:56Z</time>
      </trkpt>
      <trkpt lat="43.63645" lon="3.37678">
        <ele>187.9</ele>
        <time>2024-03-21T16:26:57Z</time>
      </trkpt>
      <trkpt lat="43.6365" lon="3.37684">
        <ele>187.6</ele>
        <time>2024-03-21T16:26:58Z</time>
      </trkpt>
      <trkpt lat="43.63654" lon="3.3769">
        <ele>187.3</ele>
        <time>2024-03-21T16:26:59Z</time>
      </trkpt>
      <trkpt lat="43.63657" lon="3.37697">
        <ele>187</ele>
        <time>2024-03-21T16:27:00Z</time>
      </trkpt>
      <trkpt lat="43.63658" lon="3.37705">
        <ele>186.7</ele>
        <time>2024-03-21T16:27:01Z</time>
      </trkpt>
      <trkpt lat="43.6366" lon="3.37714">
        <ele>186.2</ele>
        <time>2024-03-21T16:27:02Z</time>
      </trkpt>
      <trkpt lat="43.63661" lon="3.37723">
        <ele>185.8</ele>
        <time>2024-03-21T16:27:03Z</time>
      </trkpt>
      <trkpt lat="43.63662" lon="3.37731">
        <ele>185.6</ele>
        <time>2024-03-21T16:27:04Z</time>
      </trkpt>
      <trkpt lat="43.63662" lon="3.37741">
        <ele>185.6</ele>
        <time>2024-03-21T16:27:05Z</time>
      </trkpt>
      <trkpt lat="43.63661" lon="3.37751">
        <ele>185.6</ele>
        <time>2024-03-21T16:27:06Z</time>
      </trkpt>
      <trkpt lat="43.63661" lon="3.3778">
        <ele>185.5</ele>
        <time>2024-03-21T16:27:09Z</time>
      </trkpt>
      <trkpt lat="43.6366" lon="3.37789">
        <ele>185.3</ele>
        <time>2024-03-21T16:27:10Z</time>
      </trkpt>
      <trkpt lat="43.6366" lon="3.37798">
        <ele>185</ele>
        <time>2024-03-21T16:27:11Z</time>
      </trkpt>
      <trkpt lat="43.63659" lon="3.37808">
        <ele>184.7</ele>
        <time>2024-03-21T16:27:12Z</time>
      </trkpt>
      <trkpt lat="43.63658" lon="3.37817">
        <ele>184.5</ele>
        <time>2024-03-21T16:27:13Z</time>
      </trkpt>
      <trkpt lat="43.63658" lon="3.37827">
        <ele>184.2</ele>
        <time>2024-03-21T16:27:14Z</time>
      </trkpt>
      <trkpt lat="43.63657" lon="3.37836">
        <ele>183.9</ele>
        <time>2024-03-21T16:27:15Z</time>
      </trkpt>
      <trkpt lat="43.63657" lon="3.37845">
        <ele>183.4</ele>
        <time>2024-03-21T16:27:16Z</time>
      </trkpt>
      <trkpt lat="43.63655" lon="3.37865">
        <ele>182.6</ele>
        <time>2024-03-21T16:27:18Z</time>
      </trkpt>
      <trkpt lat="43.63653" lon="3.37875">
        <ele>182.7</ele>
        <time>2024-03-21T16:27:19Z</time>
      </trkpt>
      <trkpt lat="43.63652" lon="3.37884">
        <ele>182.7</ele>
        <time>2024-03-21T16:27:20Z</time>
      </trkpt>
      <trkpt lat="43.63649" lon="3.37893">
        <ele>182.8</ele>
        <time>2024-03-21T16:27:21Z</time>
      </trkpt>
      <trkpt lat="43.63647" lon="3.37902">
        <ele>182.8</ele>
        <time>2024-03-21T16:27:22Z</time>
      </trkpt>
      <trkpt lat="43.63644" lon="3.37911">
        <ele>182.8</ele>
        <time>2024-03-21T16:27:23Z</time>
      </trkpt>
      <trkpt lat="43.63638" lon="3.37927">
        <ele>182.7</ele>
        <time>2024-03-21T16:27:25Z</time>
      </trkpt>
      <trkpt lat="43.63632" lon="3.37941">
        <ele>182.6</ele>
        <time>2024-03-21T16:27:27Z</time>
      </trkpt>
      <trkpt lat="43.63628" lon="3.37949">
        <ele>182.6</ele>
        <time>2024-03-21T16:27:28Z</time>
      </trkpt>
      <trkpt lat="43.63625" lon="3.37956">
        <ele>182.6</ele>
        <time>2024-03-21T16:27:29Z</time>
      </trkpt>
      <trkpt lat="43.63621" lon="3.37964">
        <ele>182.6</ele>
        <time>2024-03-21T16:27:30Z</time>
      </trkpt>
      <trkpt lat="43.63618" lon="3.37971">
        <ele>182.5</ele>
        <time>2024-03-21T16:27:31Z</time>
      </trkpt>
      <trkpt lat="43.63616" lon="3.3798">
        <ele>182.4</ele>
        <time>2024-03-21T16:27:32Z</time>
      </trkpt>
      <trkpt lat="43.63614" lon="3.37996">
        <ele>181.9</ele>
        <time>2024-03-21T16:27:34Z</time>
      </trkpt>
      <trkpt lat="43.63611" lon="3.38003">
        <ele>181.9</ele>
        <time>2024-03-21T16:27:35Z</time>
      </trkpt>
      <trkpt lat="43.63605" lon="3.38013">
        <ele>182</ele>
        <time>2024-03-21T16:27:37Z</time>
      </trkpt>
      <trkpt lat="43.63602" lon="3.38017">
        <ele>182</ele>
        <time>2024-03-21T16:27:38Z</time>
      </trkpt>
      <trkpt lat="43.63601" lon="3.3802">
        <ele>182</ele>
        <time>2024-03-21T16:27:39Z</time>
      </trkpt>
      <trkpt lat="43.63603" lon="3.38023">
        <ele>181.8</ele>
        <time>2024-03-21T16:27:40Z</time>
      </trkpt>
      <trkpt lat="43.63603" lon="3.38025">
        <ele>181.7</ele>
        <time>2024-03-21T16:27:41Z</time>
      </trkpt>
      <trkpt lat="43.63604" lon="3.38025">
        <ele>181.6</ele>
        <time>2024-03-21T16:28:13Z</time>
      </trkpt>
      <trkpt lat="43.63603" lon="3.38025">
        <ele>181.7</ele>
        <time>2024-03-21T16:28:31Z</time>
      </trkpt>
      <trkpt lat="43.63604" lon="3.38025">
        <ele>181.6</ele>
        <time>2024-03-21T16:28:33Z</time>
      </trkpt>
      <trkpt lat="43.63604" lon="3.38027">
        <ele>181.5</ele>
        <time>2024-03-21T16:28:34Z</time>
      </trkpt>
      <trkpt lat="43.63608" lon="3.38029">
        <ele>181.2</ele>
        <time>2024-03-21T16:28:36Z</time>
      </trkpt>
      <trkpt lat="43.63611" lon="3.38029">
        <ele>181</ele>
        <time>2024-03-21T16:28:37Z</time>
      </trkpt>
      <trkpt lat="43.63614" lon="3.3803">
        <ele>180.8</ele>
        <time>2024-03-21T16:28:38Z</time>
      </trkpt>
      <trkpt lat="43.63616" lon="3.38032">
        <ele>180.6</ele>
        <time>2024-03-21T16:28:39Z</time>
      </trkpt>
      <trkpt lat="43.63618" lon="3.38035">
        <ele>180.5</ele>
        <time>2024-03-21T16:28:40Z</time>
      </trkpt>
      <trkpt lat="43.63621" lon="3.38039">
        <ele>180.3</ele>
        <time>2024-03-21T16:28:41Z</time>
      </trkpt>
      <trkpt lat="43.63623" lon="3.38042">
        <ele>180.1</ele>
        <time>2024-03-21T16:28:42Z</time>
      </trkpt>
      <trkpt lat="43.63624" lon="3.38047">
        <ele>180.1</ele>
        <time>2024-03-21T16:28:43Z</time>
      </trkpt>
      <trkpt lat="43.63624" lon="3.38059">
        <ele>180.1</ele>
        <time>2024-03-21T16:28:45Z</time>
      </trkpt>
      <trkpt lat="43.63626" lon="3.38066">
        <ele>180.1</ele>
        <time>2024-03-21T16:28:46Z</time>
      </trkpt>
      <trkpt lat="43.63629" lon="3.38073">
        <ele>179.9</ele>
        <time>2024-03-21T16:28:47Z</time>
      </trkpt>
      <trkpt lat="43.63632" lon="3.38081">
        <ele>179.7</ele>
        <time>2024-03-21T16:28:48Z</time>
      </trkpt>
      <trkpt lat="43.63634" lon="3.38089">
        <ele>179.7</ele>
        <time>2024-03-21T16:28:49Z</time>
      </trkpt>
      <trkpt lat="43.63636" lon="3.38098">
        <ele>179.8</ele>
        <time>2024-03-21T16:28:50Z</time>
      </trkpt>
      <trkpt lat="43.63639" lon="3.38105">
        <ele>179.8</ele>
        <time>2024-03-21T16:28:51Z</time>
      </trkpt>
      <trkpt lat="43.63641" lon="3.38111">
        <ele>179.8</ele>
        <time>2024-03-21T16:28:52Z</time>
      </trkpt>
      <trkpt lat="43.63643" lon="3.3812">
        <ele>179.7</ele>
        <time>2024-03-21T16:28:53Z</time>
      </trkpt>
      <trkpt lat="43.63645" lon="3.38128">
        <ele>179.6</ele>
        <time>2024-03-21T16:28:54Z</time>
      </trkpt>
      <trkpt lat="43.63646" lon="3.38136">
        <ele>179.5</ele>
        <time>2024-03-21T16:28:55Z</time>
      </trkpt>
      <trkpt lat="43.63648" lon="3.38144">
        <ele>179.3</ele>
        <time>2024-03-21T16:28:56Z</time>
      </trkpt>
      <trkpt lat="43.63649" lon="3.38152">
        <ele>179.1</ele>
        <time>2024-03-21T16:28:57Z</time>
      </trkpt>
      <trkpt lat="43.63649" lon="3.38159">
        <ele>179</ele>
        <time>2024-03-21T16:28:58Z</time>
      </trkpt>
      <trkpt lat="43.6365" lon="3.38166">
        <ele>178.8</ele>
        <time>2024-03-21T16:28:59Z</time>
      </trkpt>
      <trkpt lat="43.63652" lon="3.38173">
        <ele>178.6</ele>
        <time>2024-03-21T16:29:00Z</time>
      </trkpt>
      <trkpt lat="43.63652" lon="3.3818">
        <ele>178.6</ele>
        <time>2024-03-21T16:29:01Z</time>
      </trkpt>
      <trkpt lat="43.63649" lon="3.38187">
        <ele>178.9</ele>
        <time>2024-03-21T16:29:02Z</time>
      </trkpt>
      <trkpt lat="43.63646" lon="3.38193">
        <ele>179.2</ele>
        <time>2024-03-21T16:29:03Z</time>
      </trkpt>
      <trkpt lat="43.63644" lon="3.382">
        <ele>179.3</ele>
        <time>2024-03-21T16:29:04Z</time>
      </trkpt>
      <trkpt lat="43.63643" lon="3.38208">
        <ele>179.1</ele>
        <time>2024-03-21T16:29:05Z</time>
      </trkpt>
      <trkpt lat="43.63642" lon="3.38215">
        <ele>179</ele>
        <time>2024-03-21T16:29:06Z</time>
      </trkpt>
      <trkpt lat="43.63642" lon="3.38223">
        <ele>178.8</ele>
        <time>2024-03-21T16:29:07Z</time>
      </trkpt>
      <trkpt lat="43.63643" lon="3.38228">
        <ele>178.7</ele>
        <time>2024-03-21T16:29:08Z</time>
      </trkpt>
      <trkpt lat="43.63647" lon="3.38231">
        <ele>178.3</ele>
        <time>2024-03-21T16:29:09Z</time>
      </trkpt>
      <trkpt lat="43.63652" lon="3.38232">
        <ele>177.9</ele>
        <time>2024-03-21T16:29:10Z</time>
      </trkpt>
      <trkpt lat="43.63656" lon="3.38231">
        <ele>177.6</ele>
        <time>2024-03-21T16:29:11Z</time>
      </trkpt>
      <trkpt lat="43.63659" lon="3.38229">
        <ele>177.4</ele>
        <time>2024-03-21T16:29:12Z</time>
      </trkpt>
      <trkpt lat="43.63664" lon="3.38225">
        <ele>177.1</ele>
        <time>2024-03-21T16:29:13Z</time>
      </trkpt>
      <trkpt lat="43.63668" lon="3.38221">
        <ele>176.9</ele>
        <time>2024-03-21T16:29:14Z</time>
      </trkpt>
      <trkpt lat="43.63673" lon="3.38219">
        <ele>176.5</ele>
        <time>2024-03-21T16:29:15Z</time>
      </trkpt>
      <trkpt lat="43.63677" lon="3.38217">
        <ele>176.3</ele>
        <time>2024-03-21T16:29:16Z</time>
      </trkpt>
      <trkpt lat="43.63687" lon="3.38213">
        <ele>175.5</ele>
        <time>2024-03-21T16:29:18Z</time>
      </trkpt>
      <trkpt lat="43.63692" lon="3.38212">
        <ele>175.2</ele>
        <time>2024-03-21T16:29:19Z</time>
      </trkpt>
      <trkpt lat="43.63698" lon="3.3821">
        <ele>174.7</ele>
        <time>2024-03-21T16:29:20Z</time>
      </trkpt>
      <trkpt lat="43.63703" lon="3.38212">
        <ele>174.2</ele>
        <time>2024-03-21T16:29:21Z</time>
      </trkpt>
      <trkpt lat="43.63707" lon="3.38215">
        <ele>173.8</ele>
        <time>2024-03-21T16:29:22Z</time>
      </trkpt>
      <trkpt lat="43.63712" lon="3.38219">
        <ele>173.2</ele>
        <time>2024-03-21T16:29:23Z</time>
      </trkpt>
      <trkpt lat="43.63718" lon="3.3822">
        <ele>172.5</ele>
        <time>2024-03-21T16:29:24Z</time>
      </trkpt>
      <trkpt lat="43.63728" lon="3.38224">
        <ele>171.2</ele>
        <time>2024-03-21T16:29:26Z</time>
      </trkpt>
      <trkpt lat="43.63734" lon="3.38225">
        <ele>170.5</ele>
        <time>2024-03-21T16:29:27Z</time>
      </trkpt>
      <trkpt lat="43.63738" lon="3.38226">
        <ele>170</ele>
        <time>2024-03-21T16:29:28Z</time>
      </trkpt>
      <trkpt lat="43.63742" lon="3.38225">
        <ele>169.7</ele>
        <time>2024-03-21T16:29:29Z</time>
      </trkpt>
      <trkpt lat="43.63746" lon="3.38223">
        <ele>169.4</ele>
        <time>2024-03-21T16:29:30Z</time>
      </trkpt>
      <trkpt lat="43.63751" lon="3.38222">
        <ele>168.9</ele>
        <time>2024-03-21T16:29:31Z</time>
      </trkpt>
      <trkpt lat="43.63755" lon="3.38222">
        <ele>168.7</ele>
        <time>2024-03-21T16:29:32Z</time>
      </trkpt>
      <trkpt lat="43.63759" lon="3.38221">
        <ele>168.4</ele>
        <time>2024-03-21T16:29:33Z</time>
      </trkpt>
      <trkpt lat="43.63764" lon="3.38222">
        <ele>168</ele>
        <time>2024-03-21T16:29:34Z</time>
      </trkpt>
      <trkpt lat="43.63768" lon="3.38224">
        <ele>167.6</ele>
        <time>2024-03-21T16:29:35Z</time>
      </trkpt>
      <trkpt lat="43.63772" lon="3.38227">
        <ele>167.2</ele>
        <time>2024-03-21T16:29:36Z</time>
      </trkpt>
      <trkpt lat="43.63774" lon="3.38232">
        <ele>166.9</ele>
        <time>2024-03-21T16:29:37Z</time>
      </trkpt>
      <trkpt lat="43.63782" lon="3.3824">
        <ele>165.9</ele>
        <time>2024-03-21T16:29:39Z</time>
      </trkpt>
      <trkpt lat="43.63787" lon="3.38243">
        <ele>165.4</ele>
        <time>2024-03-21T16:29:40Z</time>
      </trkpt>
      <trkpt lat="43.6379" lon="3.38248">
        <ele>165.1</ele>
        <time>2024-03-21T16:29:41Z</time>
      </trkpt>
      <trkpt lat="43.63791" lon="3.38251">
        <ele>165</ele>
        <time>2024-03-21T16:29:42Z</time>
      </trkpt>
      <trkpt lat="43.63793" lon="3.38254">
        <ele>164.9</ele>
        <time>2024-03-21T16:29:43Z</time>
      </trkpt>
      <trkpt lat="43.63795" lon="3.38255">
        <ele>164.8</ele>
        <time>2024-03-21T16:29:44Z</time>
      </trkpt>
      <trkpt lat="43.63798" lon="3.38257">
        <ele>164.5</ele>
        <time>2024-03-21T16:29:45Z</time>
      </trkpt>
      <trkpt lat="43.63802" lon="3.38257">
        <ele>164.3</ele>
        <time>2024-03-21T16:29:46Z</time>
      </trkpt>
      <trkpt lat="43.63806" lon="3.38259">
        <ele>164</ele>
        <time>2024-03-21T16:29:47Z</time>
      </trkpt>
      <trkpt lat="43.6381" lon="3.38262">
        <ele>163.6</ele>
        <time>2024-03-21T16:29:48Z</time>
      </trkpt>
      <trkpt lat="43.63813" lon="3.38266">
        <ele>163.4</ele>
        <time>2024-03-21T16:29:49Z</time>
      </trkpt>
      <trkpt lat="43.63816" lon="3.38271">
        <ele>163.2</ele>
        <time>2024-03-21T16:29:50Z</time>
      </trkpt>
      <trkpt lat="43.6382" lon="3.38276">
        <ele>162.9</ele>
        <time>2024-03-21T16:29:51Z</time>
      </trkpt>
      <trkpt lat="43.63824" lon="3.38282">
        <ele>162.6</ele>
        <time>2024-03-21T16:29:52Z</time>
      </trkpt>
      <trkpt lat="43.63827" lon="3.38284">
        <ele>162.4</ele>
        <time>2024-03-21T16:29:53Z</time>
      </trkpt>
      <trkpt lat="43.63831" lon="3.38285">
        <ele>162.1</ele>
        <time>2024-03-21T16:29:54Z</time>
      </trkpt>
      <trkpt lat="43.63837" lon="3.38285">
        <ele>161.8</ele>
        <time>2024-03-21T16:29:55Z</time>
      </trkpt>
      <trkpt lat="43.63847" lon="3.38289">
        <ele>161.2</ele>
        <time>2024-03-21T16:29:57Z</time>
      </trkpt>
      <trkpt lat="43.63851" lon="3.3829">
        <ele>161</ele>
        <time>2024-03-21T16:29:58Z</time>
      </trkpt>
      <trkpt lat="43.63853" lon="3.38293">
        <ele>161</ele>
        <time>2024-03-21T16:29:59Z</time>
      </trkpt>
      <trkpt lat="43.63856" lon="3.38298">
        <ele>161</ele>
        <time>2024-03-21T16:30:00Z</time>
      </trkpt>
      <trkpt lat="43.63859" lon="3.38302">
        <ele>161</ele>
        <time>2024-03-21T16:30:01Z</time>
      </trkpt>
      <trkpt lat="43.63863" lon="3.38306">
        <ele>160.9</ele>
        <time>2024-03-21T16:30:02Z</time>
      </trkpt>
      <trkpt lat="43.63867" lon="3.38308">
        <ele>160.6</ele>
        <time>2024-03-21T16:30:03Z</time>
      </trkpt>
      <trkpt lat="43.63871" lon="3.38307">
        <ele>160.3</ele>
        <time>2024-03-21T16:30:04Z</time>
      </trkpt>
      <trkpt lat="43.63875" lon="3.38301">
        <ele>159.8</ele>
        <time>2024-03-21T16:30:06Z</time>
      </trkpt>
      <trkpt lat="43.63878" lon="3.383">
        <ele>159.6</ele>
        <time>2024-03-21T16:30:07Z</time>
      </trkpt>
      <trkpt lat="43.63883" lon="3.38301">
        <ele>159.3</ele>
        <time>2024-03-21T16:30:08Z</time>
      </trkpt>
      <trkpt lat="43.63887" lon="3.38303">
        <ele>159</ele>
        <time>2024-03-21T16:30:09Z</time>
      </trkpt>
      <trkpt lat="43.63891" lon="3.38308">
        <ele>159</ele>
        <time>2024-03-21T16:30:10Z</time>
      </trkpt>
      <trkpt lat="43.63896" lon="3.38313">
        <ele>159</ele>
        <time>2024-03-21T16:30:11Z</time>
      </trkpt>
      <trkpt lat="43.63906" lon="3.38319">
        <ele>158.9</ele>
        <time>2024-03-21T16:30:13Z</time>
      </trkpt>
      <trkpt lat="43.63911" lon="3.3832">
        <ele>158.7</ele>
        <time>2024-03-21T16:30:14Z</time>
      </trkpt>
      <trkpt lat="43.63923" lon="3.3832">
        <ele>158.4</ele>
        <time>2024-03-21T16:30:16Z</time>
      </trkpt>
      <trkpt lat="43.63927" lon="3.38321">
        <ele>158.3</ele>
        <time>2024-03-21T16:30:17Z</time>
      </trkpt>
      <trkpt lat="43.63931" lon="3.38321">
        <ele>158.3</ele>
        <time>2024-03-21T16:30:18Z</time>
      </trkpt>
      <trkpt lat="43.63935" lon="3.3832">
        <ele>158.2</ele>
        <time>2024-03-21T16:30:19Z</time>
      </trkpt>
      <trkpt lat="43.63939" lon="3.38318">
        <ele>158.1</ele>
        <time>2024-03-21T16:30:20Z</time>
      </trkpt>
      <trkpt lat="43.63943" lon="3.38319">
        <ele>158</ele>
        <time>2024-03-21T16:30:21Z</time>
      </trkpt>
      <trkpt lat="43.63946" lon="3.38323">
        <ele>157.9</ele>
        <time>2024-03-21T16:30:22Z</time>
      </trkpt>
      <trkpt lat="43.63952" lon="3.38327">
        <ele>157.7</ele>
        <time>2024-03-21T16:30:24Z</time>
      </trkpt>
      <trkpt lat="43.63955" lon="3.38328">
        <ele>157.6</ele>
        <time>2024-03-21T16:30:25Z</time>
      </trkpt>
      <trkpt lat="43.63957" lon="3.38327">
        <ele>157.5</ele>
        <time>2024-03-21T16:30:26Z</time>
      </trkpt>
      <trkpt lat="43.63959" lon="3.38325">
        <ele>157.5</ele>
        <time>2024-03-21T16:30:27Z</time>
      </trkpt>
      <trkpt lat="43.6396" lon="3.38322">
        <ele>157.4</ele>
        <time>2024-03-21T16:30:28Z</time>
      </trkpt>
      <trkpt lat="43.6396" lon="3.38307">
        <ele>157.4</ele>
        <time>2024-03-21T16:30:32Z</time>
      </trkpt>
      <trkpt lat="43.63966" lon="3.38298">
        <ele>157.2</ele>
        <time>2024-03-21T16:30:35Z</time>
      </trkpt>
      <trkpt lat="43.63969" lon="3.38294">
        <ele>157.1</ele>
        <time>2024-03-21T16:30:36Z</time>
      </trkpt>
      <trkpt lat="43.63973" lon="3.38291">
        <ele>157</ele>
        <time>2024-03-21T16:30:37Z</time>
      </trkpt>
      <trkpt lat="43.63977" lon="3.38289">
        <ele>156.8</ele>
        <time>2024-03-21T16:30:38Z</time>
      </trkpt>
      <trkpt lat="43.63981" lon="3.38288">
        <ele>156.7</ele>
        <time>2024-03-21T16:30:39Z</time>
      </trkpt>
      <trkpt lat="43.63991" lon="3.38286">
        <ele>156.3</ele>
        <time>2024-03-21T16:30:41Z</time>
      </trkpt>
      <trkpt lat="43.63997" lon="3.38288">
        <ele>156.1</ele>
        <time>2024-03-21T16:30:42Z</time>
      </trkpt>
      <trkpt lat="43.64003" lon="3.38292">
        <ele>155.8</ele>
        <time>2024-03-21T16:30:43Z</time>
      </trkpt>
      <trkpt lat="43.64008" lon="3.38295">
        <ele>155.5</ele>
        <time>2024-03-21T16:30:44Z</time>
      </trkpt>
      <trkpt lat="43.64014" lon="3.38296">
        <ele>155.2</ele>
        <time>2024-03-21T16:30:45Z</time>
      </trkpt>
      <trkpt lat="43.64021" lon="3.38295">
        <ele>154.8</ele>
        <time>2024-03-21T16:30:46Z</time>
      </trkpt>
      <trkpt lat="43.64027" lon="3.38296">
        <ele>154.4</ele>
        <time>2024-03-21T16:30:47Z</time>
      </trkpt>
      <trkpt lat="43.64033" lon="3.38298">
        <ele>154.1</ele>
        <time>2024-03-21T16:30:48Z</time>
      </trkpt>
      <trkpt lat="43.64038" lon="3.383">
        <ele>153.8</ele>
        <time>2024-03-21T16:30:49Z</time>
      </trkpt>
      <trkpt lat="43.64043" lon="3.38303">
        <ele>153.5</ele>
        <time>2024-03-21T16:30:50Z</time>
      </trkpt>
      <trkpt lat="43.64049" lon="3.38304">
        <ele>153.3</ele>
        <time>2024-03-21T16:30:51Z</time>
      </trkpt>
      <trkpt lat="43.64056" lon="3.38301">
        <ele>153.2</ele>
        <time>2024-03-21T16:30:52Z</time>
      </trkpt>
      <trkpt lat="43.64063" lon="3.38299">
        <ele>153.2</ele>
        <time>2024-03-21T16:30:53Z</time>
      </trkpt>
      <trkpt lat="43.6407" lon="3.38298">
        <ele>153.1</ele>
        <time>2024-03-21T16:30:54Z</time>
      </trkpt>
      <trkpt lat="43.64075" lon="3.383">
        <ele>153.1</ele>
        <time>2024-03-21T16:30:55Z</time>
      </trkpt>
      <trkpt lat="43.64079" lon="3.38303">
        <ele>153</ele>
        <time>2024-03-21T16:30:56Z</time>
      </trkpt>
      <trkpt lat="43.64081" lon="3.38307">
        <ele>152.9</ele>
        <time>2024-03-21T16:30:57Z</time>
      </trkpt>
      <trkpt lat="43.64084" lon="3.38311">
        <ele>152.8</ele>
        <time>2024-03-21T16:30:58Z</time>
      </trkpt>
      <trkpt lat="43.64088" lon="3.38313">
        <ele>152.4</ele>
        <time>2024-03-21T16:30:59Z</time>
      </trkpt>
      <trkpt lat="43.64092" lon="3.38317">
        <ele>152.1</ele>
        <time>2024-03-21T16:31:00Z</time>
      </trkpt>
      <trkpt lat="43.64096" lon="3.38322">
        <ele>151.8</ele>
        <time>2024-03-21T16:31:01Z</time>
      </trkpt>
      <trkpt lat="43.64101" lon="3.38325">
        <ele>151.5</ele>
        <time>2024-03-21T16:31:02Z</time>
      </trkpt>
      <trkpt lat="43.64107" lon="3.3833">
        <ele>151.2</ele>
        <time>2024-03-21T16:31:03Z</time>
      </trkpt>
      <trkpt lat="43.64113" lon="3.38333">
        <ele>151</ele>
        <time>2024-03-21T16:31:04Z</time>
      </trkpt>
      <trkpt lat="43.64118" lon="3.38335">
        <ele>151</ele>
        <time>2024-03-21T16:31:05Z</time>
      </trkpt>
      <trkpt lat="43.64123" lon="3.38333">
        <ele>151</ele>
        <time>2024-03-21T16:31:06Z</time>
      </trkpt>
      <trkpt lat="43.64129" lon="3.38332">
        <ele>151</ele>
        <time>2024-03-21T16:31:07Z</time>
      </trkpt>
      <trkpt lat="43.64134" lon="3.38335">
        <ele>151</ele>
        <time>2024-03-21T16:31:08Z</time>
      </trkpt>
      <trkpt lat="43.64139" lon="3.3834">
        <ele>150.8</ele>
        <time>2024-03-21T16:31:09Z</time>
      </trkpt>
      <trkpt lat="43.64145" lon="3.3835">
        <ele>150.4</ele>
        <time>2024-03-21T16:31:11Z</time>
      </trkpt>
      <trkpt lat="43.64147" lon="3.38356">
        <ele>150.2</ele>
        <time>2024-03-21T16:31:12Z</time>
      </trkpt>
      <trkpt lat="43.64148" lon="3.38363">
        <ele>149.9</ele>
        <time>2024-03-21T16:31:13Z</time>
      </trkpt>
      <trkpt lat="43.64149" lon="3.38368">
        <ele>149.6</ele>
        <time>2024-03-21T16:31:14Z</time>
      </trkpt>
      <trkpt lat="43.64149" lon="3.38378">
        <ele>149</ele>
        <time>2024-03-21T16:31:16Z</time>
      </trkpt>
      <trkpt lat="43.6415" lon="3.38383">
        <ele>148.7</ele>
        <time>2024-03-21T16:31:17Z</time>
      </trkpt>
      <trkpt lat="43.64152" lon="3.38389">
        <ele>148.5</ele>
        <time>2024-03-21T16:31:18Z</time>
      </trkpt>
      <trkpt lat="43.64153" lon="3.38395">
        <ele>148</ele>
        <time>2024-03-21T16:31:19Z</time>
      </trkpt>
      <trkpt lat="43.64155" lon="3.384">
        <ele>147.5</ele>
        <time>2024-03-21T16:31:20Z</time>
      </trkpt>
      <trkpt lat="43.64156" lon="3.38405">
        <ele>147.1</ele>
        <time>2024-03-21T16:31:21Z</time>
      </trkpt>
      <trkpt lat="43.64157" lon="3.38408">
        <ele>146.8</ele>
        <time>2024-03-21T16:31:22Z</time>
      </trkpt>
      <trkpt lat="43.64157" lon="3.3841">
        <ele>146.6</ele>
        <time>2024-03-21T16:31:24Z</time>
      </trkpt>
      <trkpt lat="43.64158" lon="3.38411">
        <ele>146.5</ele>
        <time>2024-03-21T16:31:25Z</time>
      </trkpt>
      <trkpt lat="43.64158" lon="3.38417">
        <ele>146</ele>
        <time>2024-03-21T16:31:27Z</time>
      </trkpt>
      <trkpt lat="43.64159" lon="3.38422">
        <ele>145.9</ele>
        <time>2024-03-21T16:31:28Z</time>
      </trkpt>
      <trkpt lat="43.64161" lon="3.38426">
        <ele>145.7</ele>
        <time>2024-03-21T16:31:29Z</time>
      </trkpt>
      <trkpt lat="43.64164" lon="3.38429">
        <ele>145.6</ele>
        <time>2024-03-21T16:31:30Z</time>
      </trkpt>
      <trkpt lat="43.64168" lon="3.38432">
        <ele>145.4</ele>
        <time>2024-03-21T16:31:31Z</time>
      </trkpt>
      <trkpt lat="43.6417" lon="3.38433">
        <ele>145.3</ele>
        <time>2024-03-21T16:31:32Z</time>
      </trkpt>
      <trkpt lat="43.64173" lon="3.38432">
        <ele>145.3</ele>
        <time>2024-03-21T16:31:33Z</time>
      </trkpt>
      <trkpt lat="43.64177" lon="3.38431">
        <ele>145.3</ele>
        <time>2024-03-21T16:31:34Z</time>
      </trkpt>
      <trkpt lat="43.64182" lon="3.38429">
        <ele>145.3</ele>
        <time>2024-03-21T16:31:35Z</time>
      </trkpt>
      <trkpt lat="43.64186" lon="3.38427">
        <ele>145.4</ele>
        <time>2024-03-21T16:31:36Z</time>
      </trkpt>
      <trkpt lat="43.64189" lon="3.38424">
        <ele>145.5</ele>
        <time>2024-03-21T16:31:37Z</time>
      </trkpt>
      <trkpt lat="43.64199" lon="3.38419">
        <ele>145.5</ele>
        <time>2024-03-21T16:31:40Z</time>
      </trkpt>
      <trkpt lat="43.64201" lon="3.38417">
        <ele>145.5</ele>
        <time>2024-03-21T16:31:41Z</time>
      </trkpt>
      <trkpt lat="43.64204" lon="3.38416">
        <ele>145.3</ele>
        <time>2024-03-21T16:31:42Z</time>
      </trkpt>
      <trkpt lat="43.64207" lon="3.38414">
        <ele>145.2</ele>
        <time>2024-03-21T16:31:43Z</time>
      </trkpt>
      <trkpt lat="43.64208" lon="3.38409">
        <ele>145.3</ele>
        <time>2024-03-21T16:31:44Z</time>
      </trkpt>
      <trkpt lat="43.64208" lon="3.38404">
        <ele>145.5</ele>
        <time>2024-03-21T16:31:45Z</time>
      </trkpt>
      <trkpt lat="43.64207" lon="3.384">
        <ele>145.7</ele>
        <time>2024-03-21T16:31:46Z</time>
      </trkpt>
      <trkpt lat="43.64209" lon="3.38394">
        <ele>145.8</ele>
        <time>2024-03-21T16:31:47Z</time>
      </trkpt>
      <trkpt lat="43.64211" lon="3.38391">
        <ele>145.7</ele>
        <time>2024-03-21T16:31:48Z</time>
      </trkpt>
      <trkpt lat="43.64217" lon="3.38394">
        <ele>145.2</ele>
        <time>2024-03-21T16:31:51Z</time>
      </trkpt>
      <trkpt lat="43.64219" lon="3.38394">
        <ele>145</ele>
        <time>2024-03-21T16:31:52Z</time>
      </trkpt>
      <trkpt lat="43.64221" lon="3.38395">
        <ele>144.9</ele>
        <time>2024-03-21T16:31:53Z</time>
      </trkpt>
      <trkpt lat="43.64228" lon="3.38402">
        <ele>144.2</ele>
        <time>2024-03-21T16:31:56Z</time>
      </trkpt>
      <trkpt lat="43.64231" lon="3.38404">
        <ele>144</ele>
        <time>2024-03-21T16:31:57Z</time>
      </trkpt>
      <trkpt lat="43.64236" lon="3.38409">
        <ele>143.6</ele>
        <time>2024-03-21T16:31:59Z</time>
      </trkpt>
      <trkpt lat="43.64238" lon="3.38412">
        <ele>143.5</ele>
        <time>2024-03-21T16:32:00Z</time>
      </trkpt>
      <trkpt lat="43.64239" lon="3.38415">
        <ele>143.4</ele>
        <time>2024-03-21T16:32:01Z</time>
      </trkpt>
      <trkpt lat="43.64239" lon="3.38439">
        <ele>143.4</ele>
        <time>2024-03-21T16:32:07Z</time>
      </trkpt>
      <trkpt lat="43.64241" lon="3.38447">
        <ele>143.4</ele>
        <time>2024-03-21T16:32:09Z</time>
      </trkpt>
      <trkpt lat="43.64243" lon="3.3845">
        <ele>143.3</ele>
        <time>2024-03-21T16:32:10Z</time>
      </trkpt>
      <trkpt lat="43.64246" lon="3.38451">
        <ele>143.2</ele>
        <time>2024-03-21T16:32:11Z</time>
      </trkpt>
      <trkpt lat="43.64249" lon="3.38451">
        <ele>143</ele>
        <time>2024-03-21T16:32:12Z</time>
      </trkpt>
      <trkpt lat="43.64253" lon="3.38452">
        <ele>142.8</ele>
        <time>2024-03-21T16:32:13Z</time>
      </trkpt>
      <trkpt lat="43.64258" lon="3.38454">
        <ele>142.5</ele>
        <time>2024-03-21T16:32:14Z</time>
      </trkpt>
      <trkpt lat="43.64263" lon="3.38455">
        <ele>142.2</ele>
        <time>2024-03-21T16:32:15Z</time>
      </trkpt>
      <trkpt lat="43.64268" lon="3.38454">
        <ele>141.9</ele>
        <time>2024-03-21T16:32:16Z</time>
      </trkpt>
      <trkpt lat="43.64273" lon="3.38456">
        <ele>141.7</ele>
        <time>2024-03-21T16:32:17Z</time>
      </trkpt>
      <trkpt lat="43.64278" lon="3.3846">
        <ele>141.6</ele>
        <time>2024-03-21T16:32:18Z</time>
      </trkpt>
      <trkpt lat="43.64282" lon="3.38464">
        <ele>141.7</ele>
        <time>2024-03-21T16:32:19Z</time>
      </trkpt>
      <trkpt lat="43.64288" lon="3.38468">
        <ele>141.8</ele>
        <time>2024-03-21T16:32:20Z</time>
      </trkpt>
      <trkpt lat="43.64294" lon="3.3847">
        <ele>141.9</ele>
        <time>2024-03-21T16:32:21Z</time>
      </trkpt>
      <trkpt lat="43.64299" lon="3.38471">
        <ele>142</ele>
        <time>2024-03-21T16:32:22Z</time>
      </trkpt>
      <trkpt lat="43.64305" lon="3.38474">
        <ele>142.1</ele>
        <time>2024-03-21T16:32:23Z</time>
      </trkpt>
      <trkpt lat="43.64309" lon="3.38477">
        <ele>142</ele>
        <time>2024-03-21T16:32:24Z</time>
      </trkpt>
      <trkpt lat="43.64312" lon="3.38479">
        <ele>142</ele>
        <time>2024-03-21T16:32:25Z</time>
      </trkpt>
      <trkpt lat="43.64316" lon="3.38477">
        <ele>141.8</ele>
        <time>2024-03-21T16:32:26Z</time>
      </trkpt>
      <trkpt lat="43.64319" lon="3.38475">
        <ele>141.6</ele>
        <time>2024-03-21T16:32:27Z</time>
      </trkpt>
      <trkpt lat="43.6432" lon="3.38471">
        <ele>141.5</ele>
        <time>2024-03-21T16:32:28Z</time>
      </trkpt>
      <trkpt lat="43.64322" lon="3.38465">
        <ele>141.3</ele>
        <time>2024-03-21T16:32:30Z</time>
      </trkpt>
      <trkpt lat="43.64323" lon="3.38461">
        <ele>141.2</ele>
        <time>2024-03-21T16:32:31Z</time>
      </trkpt>
      <trkpt lat="43.64324" lon="3.38459">
        <ele>141.2</ele>
        <time>2024-03-21T16:32:32Z</time>
      </trkpt>
      <trkpt lat="43.6433" lon="3.38455">
        <ele>141</ele>
        <time>2024-03-21T16:32:34Z</time>
      </trkpt>
      <trkpt lat="43.64333" lon="3.38451">
        <ele>141</ele>
        <time>2024-03-21T16:32:35Z</time>
      </trkpt>
      <trkpt lat="43.64337" lon="3.38449">
        <ele>140.9</ele>
        <time>2024-03-21T16:32:36Z</time>
      </trkpt>
      <trkpt lat="43.64345" lon="3.38447">
        <ele>140.6</ele>
        <time>2024-03-21T16:32:38Z</time>
      </trkpt>
      <trkpt lat="43.64351" lon="3.38443">
        <ele>140.3</ele>
        <time>2024-03-21T16:32:40Z</time>
      </trkpt>
      <trkpt lat="43.64353" lon="3.3844">
        <ele>140.2</ele>
        <time>2024-03-21T16:32:41Z</time>
      </trkpt>
      <trkpt lat="43.64356" lon="3.38436">
        <ele>140.1</ele>
        <time>2024-03-21T16:32:42Z</time>
      </trkpt>
      <trkpt lat="43.64358" lon="3.38434">
        <ele>140.1</ele>
        <time>2024-03-21T16:32:43Z</time>
      </trkpt>
      <trkpt lat="43.64361" lon="3.38433">
        <ele>140</ele>
        <time>2024-03-21T16:32:44Z</time>
      </trkpt>
      <trkpt lat="43.64366" lon="3.38435">
        <ele>139.8</ele>
        <time>2024-03-21T16:32:45Z</time>
      </trkpt>
      <trkpt lat="43.64374" lon="3.38441">
        <ele>139.5</ele>
        <time>2024-03-21T16:32:47Z</time>
      </trkpt>
      <trkpt lat="43.64382" lon="3.38449">
        <ele>139.4</ele>
        <time>2024-03-21T16:32:49Z</time>
      </trkpt>
      <trkpt lat="43.64385" lon="3.38453">
        <ele>139.4</ele>
        <time>2024-03-21T16:32:50Z</time>
      </trkpt>
      <trkpt lat="43.64388" lon="3.38458">
        <ele>139.5</ele>
        <time>2024-03-21T16:32:51Z</time>
      </trkpt>
      <trkpt lat="43.64394" lon="3.3847">
        <ele>139.7</ele>
        <time>2024-03-21T16:32:53Z</time>
      </trkpt>
      <trkpt lat="43.64397" lon="3.38477">
        <ele>139.8</ele>
        <time>2024-03-21T16:32:54Z</time>
      </trkpt>
      <trkpt lat="43.64403" lon="3.38487">
        <ele>139.8</ele>
        <time>2024-03-21T16:32:56Z</time>
      </trkpt>
      <trkpt lat="43.64405" lon="3.38492">
        <ele>139.8</ele>
        <time>2024-03-21T16:32:57Z</time>
      </trkpt>
      <trkpt lat="43.64406" lon="3.38496">
        <ele>139.9</ele>
        <time>2024-03-21T16:32:58Z</time>
      </trkpt>
      <trkpt lat="43.64408" lon="3.38501">
        <ele>140</ele>
        <time>2024-03-21T16:32:59Z</time>
      </trkpt>
      <trkpt lat="43.64411" lon="3.38505">
        <ele>140.2</ele>
        <time>2024-03-21T16:33:00Z</time>
      </trkpt>
      <trkpt lat="43.64414" lon="3.38506">
        <ele>140.2</ele>
        <time>2024-03-21T16:33:01Z</time>
      </trkpt>
      <trkpt lat="43.64417" lon="3.38506">
        <ele>140.2</ele>
        <time>2024-03-21T16:33:02Z</time>
      </trkpt>
      <trkpt lat="43.6442" lon="3.38507">
        <ele>140.1</ele>
        <time>2024-03-21T16:33:03Z</time>
      </trkpt>
      <trkpt lat="43.64424" lon="3.38506">
        <ele>140</ele>
        <time>2024-03-21T16:33:04Z</time>
      </trkpt>
      <trkpt lat="43.64427" lon="3.38508">
        <ele>139.9</ele>
        <time>2024-03-21T16:33:05Z</time>
      </trkpt>
      <trkpt lat="43.64431" lon="3.38511">
        <ele>139.9</ele>
        <time>2024-03-21T16:33:06Z</time>
      </trkpt>
      <trkpt lat="43.64434" lon="3.38514">
        <ele>139.9</ele>
        <time>2024-03-21T16:33:07Z</time>
      </trkpt>
      <trkpt lat="43.64438" lon="3.38517">
        <ele>139.8</ele>
        <time>2024-03-21T16:33:08Z</time>
      </trkpt>
      <trkpt lat="43.64442" lon="3.38519">
        <ele>139.8</ele>
        <time>2024-03-21T16:33:09Z</time>
      </trkpt>
      <trkpt lat="43.64445" lon="3.38523">
        <ele>139.8</ele>
        <time>2024-03-21T16:33:10Z</time>
      </trkpt>
      <trkpt lat="43.64447" lon="3.38528">
        <ele>139.8</ele>
        <time>2024-03-21T16:33:11Z</time>
      </trkpt>
      <trkpt lat="43.64447" lon="3.38534">
        <ele>139.8</ele>
        <time>2024-03-21T16:33:12Z</time>
      </trkpt>
      <trkpt lat="43.64448" lon="3.3854">
        <ele>139.7</ele>
        <time>2024-03-21T16:33:13Z</time>
      </trkpt>
      <trkpt lat="43.64453" lon="3.3855">
        <ele>139.4</ele>
        <time>2024-03-21T16:33:15Z</time>
      </trkpt>
      <trkpt lat="43.64456" lon="3.38559">
        <ele>139.2</ele>
      </trkpt>
      <trkpt lat="43.6446" lon="3.38565">
        <ele>139.1</ele>
        <time>2024-03-21T16:33:18Z</time>
      </trkpt>
      <trkpt lat="43.64463" lon="3.38571">
        <ele>139</ele>
        <time>2024-03-21T16:33:19Z</time>
      </trkpt>
      <trkpt lat="43.64465" lon="3.38576">
        <ele>139.1</ele>
        <time>2024-03-21T16:33:20Z</time>
      </trkpt>
      <trkpt lat="43.64467" lon="3.38582">
        <ele>139.1</ele>
        <time>2024-03-21T16:33:21Z</time>
      </trkpt>
      <trkpt lat="43.6447" lon="3.38588">
        <ele>139.2</ele>
        <time>2024-03-21T16:33:22Z</time>
      </trkpt>
      <trkpt lat="43.64476" lon="3.38598">
        <ele>139.4</ele>
        <time>2024-03-21T16:33:24Z</time>
      </trkpt>
      <trkpt lat="43.6448" lon="3.38602">
        <ele>139.4</ele>
        <time>2024-03-21T16:33:25Z</time>
      </trkpt>
      <trkpt lat="43.64484" lon="3.38607">
        <ele>139.4</ele>
        <time>2024-03-21T16:33:26Z</time>
      </trkpt>
      <trkpt lat="43.64496" lon="3.38619">
        <ele>139.4</ele>
        <time>2024-03-21T16:33:29Z</time>
      </trkpt>
      <trkpt lat="43.64502" lon="3.38629">
        <ele>139.6</ele>
        <time>2024-03-21T16:33:31Z</time>
      </trkpt>
      <trkpt lat="43.64534" lon="3.38662">
        <ele>140.8</ele>
      </trkpt>
      <trkpt lat="43.64542" lon="3.38666">
        <ele>141</ele>
        <time>2024-03-21T16:33:41Z</time>
      </trkpt>
      <trkpt lat="43.64544" lon="3.38667">
        <ele>141</ele>
        <time>2024-03-21T16:33:42Z</time>
      </trkpt>
      <trkpt lat="43.64548" lon="3.38668">
        <ele>141</ele>
        <time>2024-03-21T16:33:43Z</time>
      </trkpt>
      <trkpt lat="43.64551" lon="3.3867">
        <ele>141.1</ele>
        <time>2024-03-21T16:33:44Z</time>
      </trkpt>
      <trkpt lat="43.64563" lon="3.38673">
        <ele>141.2</ele>
        <time>2024-03-21T16:33:47Z</time>
      </trkpt>
      <trkpt lat="43.64567" lon="3.38675">
        <ele>141.3</ele>
        <time>2024-03-21T16:33:48Z</time>
      </trkpt>
      <trkpt lat="43.64572" lon="3.38678">
        <ele>141.4</ele>
        <time>2024-03-21T16:33:49Z</time>
      </trkpt>
      <trkpt lat="43.64576" lon="3.38683">
        <ele>141.6</ele>
        <time>2024-03-21T16:33:50Z</time>
      </trkpt>
      <trkpt lat="43.6458" lon="3.3869">
        <ele>141.8</ele>
        <time>2024-03-21T16:33:51Z</time>
      </trkpt>
      <trkpt lat="43.64583" lon="3.38696">
        <ele>142.1</ele>
        <time>2024-03-21T16:33:52Z</time>
      </trkpt>
      <trkpt lat="43.64586" lon="3.38703">
        <ele>142.3</ele>
        <time>2024-03-21T16:33:53Z</time>
      </trkpt>
      <trkpt lat="43.64587" lon="3.38708">
        <ele>142.4</ele>
        <time>2024-03-21T16:33:54Z</time>
      </trkpt>
      <trkpt lat="43.64588" lon="3.38714">
        <ele>142.6</ele>
        <time>2024-03-21T16:33:55Z</time>
      </trkpt>
      <trkpt lat="43.64584" lon="3.38726">
        <ele>143</ele>
        <time>2024-03-21T16:33:57Z</time>
      </trkpt>
      <trkpt lat="43.6458" lon="3.3874">
        <ele>143</ele>
        <time>2024-03-21T16:33:59Z</time>
      </trkpt>
      <trkpt lat="43.64577" lon="3.38745">
        <ele>143</ele>
        <time>2024-03-21T16:34:00Z</time>
      </trkpt>
      <trkpt lat="43.64575" lon="3.38751">
        <ele>143</ele>
        <time>2024-03-21T16:34:01Z</time>
      </trkpt>
      <trkpt lat="43.64575" lon="3.38765">
        <ele>143.2</ele>
        <time>2024-03-21T16:34:03Z</time>
      </trkpt>
      <trkpt lat="43.64577" lon="3.38771">
        <ele>143.2</ele>
        <time>2024-03-21T16:34:04Z</time>
      </trkpt>
      <trkpt lat="43.64579" lon="3.38776">
        <ele>143.1</ele>
        <time>2024-03-21T16:34:05Z</time>
      </trkpt>
      <trkpt lat="43.64579" lon="3.38783">
        <ele>143.3</ele>
        <time>2024-03-21T16:34:06Z</time>
      </trkpt>
      <trkpt lat="43.64578" lon="3.3879">
        <ele>143.5</ele>
        <time>2024-03-21T16:34:07Z</time>
      </trkpt>
      <trkpt lat="43.64576" lon="3.38795">
        <ele>143.7</ele>
        <time>2024-03-21T16:34:08Z</time>
      </trkpt>
      <trkpt lat="43.64572" lon="3.38801">
        <ele>143.9</ele>
        <time>2024-03-21T16:34:09Z</time>
      </trkpt>
      <trkpt lat="43.64569" lon="3.38807">
        <ele>144</ele>
        <time>2024-03-21T16:34:10Z</time>
      </trkpt>
      <trkpt lat="43.64566" lon="3.38812">
        <ele>144</ele>
        <time>2024-03-21T16:34:11Z</time>
      </trkpt>
      <trkpt lat="43.64565" lon="3.38818">
        <ele>144</ele>
        <time>2024-03-21T16:34:12Z</time>
      </trkpt>
      <trkpt lat="43.64567" lon="3.38834">
        <ele>144</ele>
      </trkpt>
      <trkpt lat="43.64566" lon="3.38853">
        <ele>144.4</ele>
        <time>2024-03-21T16:34:17Z</time>
      </trkpt>
      <trkpt lat="43.64566" lon="3.38865">
        <ele>144.7</ele>
      </trkpt>
      <trkpt lat="43.64566" lon="3.38872">
        <ele>144.8</ele>
        <time>2024-03-21T16:34:20Z</time>
      </trkpt>
      <trkpt lat="43.64566" lon="3.38878">
        <ele>144.9</ele>
        <time>2024-03-21T16:34:21Z</time>
      </trkpt>
      <trkpt lat="43.64564" lon="3.38885">
        <ele>145</ele>
        <time>2024-03-21T16:34:22Z</time>
      </trkpt>
      <trkpt lat="43.64562" lon="3.38899">
        <ele>145.3</ele>
        <time>2024-03-21T16:34:24Z</time>
      </trkpt>
      <trkpt lat="43.64561" lon="3.38905">
        <ele>145.5</ele>
        <time>2024-03-21T16:34:25Z</time>
      </trkpt>
      <trkpt lat="43.64559" lon="3.38911">
        <ele>145.7</ele>
        <time>2024-03-21T16:34:26Z</time>
      </trkpt>
      <trkpt lat="43.64558" lon="3.38919">
        <ele>145.9</ele>
      </trkpt>
      <trkpt lat="43.64555" lon="3.38934">
        <ele>146</ele>
        <time>2024-03-21T16:34:28Z</time>
      </trkpt>
      <trkpt lat="43.64554" lon="3.38943">
        <ele>146</ele>
        <time>2024-03-21T16:34:29Z</time>
      </trkpt>
      <trkpt lat="43.64551" lon="3.3895">
        <ele>146</ele>
        <time>2024-03-21T16:34:32Z</time>
      </trkpt>
      <trkpt lat="43.6455" lon="3.38954">
        <ele>146.1</ele>
        <time>2024-03-21T16:34:34Z</time>
      </trkpt>
      <trkpt lat="43.6454" lon="3.38974">
        <ele>146.5</ele>
        <time>2024-03-21T16:34:38Z</time>
      </trkpt>
      <trkpt lat="43.64537" lon="3.38978">
        <ele>146.7</ele>
        <time>2024-03-21T16:34:39Z</time>
      </trkpt>
      <trkpt lat="43.64534" lon="3.38982">
        <ele>146.8</ele>
        <time>2024-03-21T16:34:40Z</time>
      </trkpt>
      <trkpt lat="43.64533" lon="3.38981">
        <ele>146.8</ele>
      </trkpt>
      <trkpt lat="43.6453" lon="3.38983">
        <ele>146.9</ele>
      </trkpt>
    </trkseg>
  </trk>
</gpx>